<?xml version="1.0" encoding="UTF-8" standalone="no" ?>
<gpx xmlns="http://www.topografix.com/GPX/1/1" xmlns:xsi="http://www.w3.org/2001/XMLSchema-instance" xsi:schemaLocation="http://www.topografix.com/GPX/1/1 http://www.topografix.com/GPX/1/1/gpx.xsd" version="1.1" creator="VisuGPX - https://www.visugpx.com">
  <metadata>
    <name>bateau</name>
    <desc><![CDATA[sortie 10102015]]></desc>
  </metadata>
  <trk>
    <name><![CDATA[Tracé]]></name>
    <trkseg>
      <trkpt lat="47.72317" lon="-3.36552">
        <ele>18.88</ele>
        <time>2015-10-10T13:16:41Z</time>
      </trkpt>
      <trkpt lat="47.72317" lon="-3.3655">
        <ele>18.88</ele>
        <time>2015-10-10T13:16:42Z</time>
      </trkpt>
      <trkpt lat="47.72318" lon="-3.36548">
        <ele>18.88</ele>
        <time>2015-10-10T13:16:43Z</time>
      </trkpt>
      <trkpt lat="47.72318" lon="-3.36545">
        <ele>18.88</ele>
        <time>2015-10-10T13:16:44Z</time>
      </trkpt>
      <trkpt lat="47.72319" lon="-3.36543">
        <ele>18.88</ele>
        <time>2015-10-10T13:16:45Z</time>
      </trkpt>
      <trkpt lat="47.7232" lon="-3.36541">
        <ele>18.88</ele>
        <time>2015-10-10T13:16:46Z</time>
      </trkpt>
      <trkpt lat="47.72321" lon="-3.36539">
        <ele>18.4</ele>
        <time>2015-10-10T13:16:47Z</time>
      </trkpt>
      <trkpt lat="47.72321" lon="-3.36537">
        <ele>17.44</ele>
        <time>2015-10-10T13:16:48Z</time>
      </trkpt>
      <trkpt lat="47.72321" lon="-3.36536">
        <ele>16.96</ele>
        <time>2015-10-10T13:16:49Z</time>
      </trkpt>
      <trkpt lat="47.72321" lon="-3.36534">
        <ele>17.92</ele>
        <time>2015-10-10T13:16:50Z</time>
      </trkpt>
      <trkpt lat="47.72321" lon="-3.36532">
        <ele>17.44</ele>
        <time>2015-10-10T13:16:51Z</time>
      </trkpt>
      <trkpt lat="47.72321" lon="-3.36531">
        <ele>16.96</ele>
        <time>2015-10-10T13:16:52Z</time>
      </trkpt>
      <trkpt lat="47.72321" lon="-3.36528">
        <ele>16.48</ele>
        <time>2015-10-10T13:16:53Z</time>
      </trkpt>
      <trkpt lat="47.72321" lon="-3.36527">
        <ele>16.48</ele>
        <time>2015-10-10T13:16:54Z</time>
      </trkpt>
      <trkpt lat="47.72321" lon="-3.36525">
        <ele>16</ele>
        <time>2015-10-10T13:16:55Z</time>
      </trkpt>
      <trkpt lat="47.72321" lon="-3.36524">
        <ele>15.52</ele>
        <time>2015-10-10T13:16:56Z</time>
      </trkpt>
      <trkpt lat="47.72321" lon="-3.36522">
        <ele>15.04</ele>
        <time>2015-10-10T13:16:57Z</time>
      </trkpt>
      <trkpt lat="47.72321" lon="-3.36521">
        <ele>14.56</ele>
        <time>2015-10-10T13:16:58Z</time>
      </trkpt>
      <trkpt lat="47.72322" lon="-3.36519">
        <ele>14.08</ele>
        <time>2015-10-10T13:16:59Z</time>
      </trkpt>
      <trkpt lat="47.72322" lon="-3.36518">
        <ele>12.63</ele>
        <time>2015-10-10T13:17:00Z</time>
      </trkpt>
      <trkpt lat="47.72323" lon="-3.36516">
        <ele>11.67</ele>
        <time>2015-10-10T13:17:01Z</time>
      </trkpt>
      <trkpt lat="47.72323" lon="-3.36514">
        <ele>12.63</ele>
        <time>2015-10-10T13:17:02Z</time>
      </trkpt>
      <trkpt lat="47.72323" lon="-3.36513">
        <ele>12.15</ele>
        <time>2015-10-10T13:17:03Z</time>
      </trkpt>
      <trkpt lat="47.72323" lon="-3.36511">
        <ele>11.67</ele>
        <time>2015-10-10T13:17:04Z</time>
      </trkpt>
      <trkpt lat="47.72323" lon="-3.36509">
        <ele>11.67</ele>
        <time>2015-10-10T13:17:05Z</time>
      </trkpt>
      <trkpt lat="47.72323" lon="-3.36507">
        <ele>11.67</ele>
        <time>2015-10-10T13:17:06Z</time>
      </trkpt>
      <trkpt lat="47.72322" lon="-3.36505">
        <ele>11.19</ele>
        <time>2015-10-10T13:17:07Z</time>
      </trkpt>
      <trkpt lat="47.72322" lon="-3.36504">
        <ele>10.71</ele>
        <time>2015-10-10T13:17:08Z</time>
      </trkpt>
      <trkpt lat="47.72321" lon="-3.36503">
        <ele>10.23</ele>
        <time>2015-10-10T13:17:09Z</time>
      </trkpt>
      <trkpt lat="47.7232" lon="-3.36501">
        <ele>10.23</ele>
        <time>2015-10-10T13:17:10Z</time>
      </trkpt>
      <trkpt lat="47.72319" lon="-3.365">
        <ele>9.75</ele>
        <time>2015-10-10T13:17:11Z</time>
      </trkpt>
      <trkpt lat="47.72318" lon="-3.36499">
        <ele>9.27</ele>
        <time>2015-10-10T13:17:12Z</time>
      </trkpt>
      <trkpt lat="47.72317" lon="-3.36497">
        <ele>8.79</ele>
        <time>2015-10-10T13:17:13Z</time>
      </trkpt>
      <trkpt lat="47.72316" lon="-3.36496">
        <ele>8.31</ele>
        <time>2015-10-10T13:17:14Z</time>
      </trkpt>
      <trkpt lat="47.72315" lon="-3.36496">
        <ele>7.83</ele>
        <time>2015-10-10T13:17:15Z</time>
      </trkpt>
      <trkpt lat="47.72314" lon="-3.36495">
        <ele>7.35</ele>
        <time>2015-10-10T13:17:16Z</time>
      </trkpt>
      <trkpt lat="47.72312" lon="-3.36495">
        <ele>7.35</ele>
        <time>2015-10-10T13:17:17Z</time>
      </trkpt>
      <trkpt lat="47.72311" lon="-3.36494">
        <ele>6.87</ele>
        <time>2015-10-10T13:17:18Z</time>
      </trkpt>
      <trkpt lat="47.7231" lon="-3.36494">
        <ele>6.39</ele>
        <time>2015-10-10T13:17:19Z</time>
      </trkpt>
      <trkpt lat="47.72308" lon="-3.36493">
        <ele>6.39</ele>
        <time>2015-10-10T13:17:20Z</time>
      </trkpt>
      <trkpt lat="47.72307" lon="-3.36492">
        <ele>3.5</ele>
        <time>2015-10-10T13:17:21Z</time>
      </trkpt>
      <trkpt lat="47.72306" lon="-3.36491">
        <ele>5.42</ele>
        <time>2015-10-10T13:17:22Z</time>
      </trkpt>
      <trkpt lat="47.72305" lon="-3.36491">
        <ele>4.94</ele>
        <time>2015-10-10T13:17:23Z</time>
      </trkpt>
      <trkpt lat="47.72303" lon="-3.3649">
        <ele>4.46</ele>
        <time>2015-10-10T13:17:24Z</time>
      </trkpt>
      <trkpt lat="47.72301" lon="-3.3649">
        <ele>4.46</ele>
        <time>2015-10-10T13:17:25Z</time>
      </trkpt>
      <trkpt lat="47.723" lon="-3.3649">
        <ele>3.98</ele>
        <time>2015-10-10T13:17:26Z</time>
      </trkpt>
      <trkpt lat="47.72298" lon="-3.3649">
        <ele>3.5</ele>
        <time>2015-10-10T13:17:27Z</time>
      </trkpt>
      <trkpt lat="47.72297" lon="-3.36489">
        <ele>3.5</ele>
        <time>2015-10-10T13:17:28Z</time>
      </trkpt>
      <trkpt lat="47.72295" lon="-3.36489">
        <ele>3.02</ele>
        <time>2015-10-10T13:17:29Z</time>
      </trkpt>
      <trkpt lat="47.72294" lon="-3.36489">
        <ele>3.02</ele>
        <time>2015-10-10T13:17:30Z</time>
      </trkpt>
      <trkpt lat="47.72292" lon="-3.36489">
        <ele>2.54</ele>
        <time>2015-10-10T13:17:31Z</time>
      </trkpt>
      <trkpt lat="47.7229" lon="-3.36489">
        <ele>3.5</ele>
        <time>2015-10-10T13:17:32Z</time>
      </trkpt>
      <trkpt lat="47.72288" lon="-3.36488">
        <ele>3.5</ele>
        <time>2015-10-10T13:17:33Z</time>
      </trkpt>
      <trkpt lat="47.72287" lon="-3.36488">
        <ele>3.5</ele>
        <time>2015-10-10T13:17:34Z</time>
      </trkpt>
      <trkpt lat="47.72285" lon="-3.36488">
        <ele>3.02</ele>
        <time>2015-10-10T13:17:35Z</time>
      </trkpt>
      <trkpt lat="47.72283" lon="-3.36488">
        <ele>3.02</ele>
        <time>2015-10-10T13:17:36Z</time>
      </trkpt>
      <trkpt lat="47.72281" lon="-3.36488">
        <ele>2.54</ele>
        <time>2015-10-10T13:17:37Z</time>
      </trkpt>
      <trkpt lat="47.72279" lon="-3.36488">
        <ele>2.54</ele>
        <time>2015-10-10T13:17:38Z</time>
      </trkpt>
      <trkpt lat="47.72277" lon="-3.36489">
        <ele>2.06</ele>
        <time>2015-10-10T13:17:39Z</time>
      </trkpt>
      <trkpt lat="47.72275" lon="-3.36488">
        <ele>2.06</ele>
        <time>2015-10-10T13:17:40Z</time>
      </trkpt>
      <trkpt lat="47.72273" lon="-3.36488">
        <ele>1.58</ele>
        <time>2015-10-10T13:17:41Z</time>
      </trkpt>
      <trkpt lat="47.72271" lon="-3.36488">
        <ele>1.58</ele>
        <time>2015-10-10T13:17:42Z</time>
      </trkpt>
      <trkpt lat="47.72269" lon="-3.36488">
        <ele>1.58</ele>
        <time>2015-10-10T13:17:43Z</time>
      </trkpt>
      <trkpt lat="47.72267" lon="-3.36488">
        <ele>1.1</ele>
        <time>2015-10-10T13:17:44Z</time>
      </trkpt>
      <trkpt lat="47.72265" lon="-3.36488">
        <ele>1.1</ele>
        <time>2015-10-10T13:17:45Z</time>
      </trkpt>
      <trkpt lat="47.72263" lon="-3.36488">
        <ele>1.1</ele>
        <time>2015-10-10T13:17:46Z</time>
      </trkpt>
      <trkpt lat="47.72261" lon="-3.36487">
        <ele>0.62</ele>
        <time>2015-10-10T13:17:47Z</time>
      </trkpt>
      <trkpt lat="47.7226" lon="-3.36487">
        <ele>0.62</ele>
        <time>2015-10-10T13:17:48Z</time>
      </trkpt>
      <trkpt lat="47.72258" lon="-3.36487">
        <ele>0.62</ele>
        <time>2015-10-10T13:17:49Z</time>
      </trkpt>
      <trkpt lat="47.72256" lon="-3.36487">
        <ele>0.62</ele>
        <time>2015-10-10T13:17:50Z</time>
      </trkpt>
      <trkpt lat="47.72254" lon="-3.36487">
        <ele>0.14</ele>
        <time>2015-10-10T13:17:51Z</time>
      </trkpt>
      <trkpt lat="47.72253" lon="-3.36487">
        <ele>0.14</ele>
        <time>2015-10-10T13:17:52Z</time>
      </trkpt>
      <trkpt lat="47.72251" lon="-3.36487">
        <ele>0.14</ele>
        <time>2015-10-10T13:17:53Z</time>
      </trkpt>
      <trkpt lat="47.72249" lon="-3.36487">
        <ele>-0.34</ele>
        <time>2015-10-10T13:17:54Z</time>
      </trkpt>
      <trkpt lat="47.72248" lon="-3.36487">
        <ele>-0.34</ele>
        <time>2015-10-10T13:17:55Z</time>
      </trkpt>
      <trkpt lat="47.72246" lon="-3.36487">
        <ele>-0.34</ele>
        <time>2015-10-10T13:17:56Z</time>
      </trkpt>
      <trkpt lat="47.72244" lon="-3.36487">
        <ele>0.14</ele>
        <time>2015-10-10T13:17:57Z</time>
      </trkpt>
      <trkpt lat="47.72243" lon="-3.36487">
        <ele>-0.34</ele>
        <time>2015-10-10T13:17:58Z</time>
      </trkpt>
      <trkpt lat="47.72241" lon="-3.36486">
        <ele>-0.34</ele>
        <time>2015-10-10T13:17:59Z</time>
      </trkpt>
      <trkpt lat="47.7224" lon="-3.36486">
        <ele>-1.79</ele>
        <time>2015-10-10T13:18:00Z</time>
      </trkpt>
      <trkpt lat="47.72238" lon="-3.36485">
        <ele>-1.79</ele>
        <time>2015-10-10T13:18:01Z</time>
      </trkpt>
      <trkpt lat="47.72236" lon="-3.36484">
        <ele>-1.79</ele>
        <time>2015-10-10T13:18:02Z</time>
      </trkpt>
      <trkpt lat="47.72235" lon="-3.36484">
        <ele>-1.79</ele>
        <time>2015-10-10T13:18:03Z</time>
      </trkpt>
      <trkpt lat="47.72233" lon="-3.36483">
        <ele>-1.79</ele>
        <time>2015-10-10T13:18:04Z</time>
      </trkpt>
      <trkpt lat="47.72231" lon="-3.36483">
        <ele>-1.79</ele>
        <time>2015-10-10T13:18:05Z</time>
      </trkpt>
      <trkpt lat="47.7223" lon="-3.36483">
        <ele>-1.79</ele>
        <time>2015-10-10T13:18:06Z</time>
      </trkpt>
      <trkpt lat="47.72228" lon="-3.36482">
        <ele>-2.27</ele>
        <time>2015-10-10T13:18:07Z</time>
      </trkpt>
      <trkpt lat="47.72226" lon="-3.36482">
        <ele>-2.27</ele>
        <time>2015-10-10T13:18:08Z</time>
      </trkpt>
      <trkpt lat="47.72224" lon="-3.36482">
        <ele>-2.27</ele>
        <time>2015-10-10T13:18:09Z</time>
      </trkpt>
      <trkpt lat="47.72223" lon="-3.36481">
        <ele>-2.27</ele>
        <time>2015-10-10T13:18:10Z</time>
      </trkpt>
      <trkpt lat="47.72221" lon="-3.36481">
        <ele>-2.27</ele>
        <time>2015-10-10T13:18:11Z</time>
      </trkpt>
      <trkpt lat="47.72219" lon="-3.36481">
        <ele>-2.27</ele>
        <time>2015-10-10T13:18:12Z</time>
      </trkpt>
      <trkpt lat="47.72218" lon="-3.36481">
        <ele>-2.27</ele>
        <time>2015-10-10T13:18:13Z</time>
      </trkpt>
      <trkpt lat="47.72216" lon="-3.36481">
        <ele>-2.27</ele>
        <time>2015-10-10T13:18:14Z</time>
      </trkpt>
      <trkpt lat="47.72214" lon="-3.36481">
        <ele>-2.27</ele>
        <time>2015-10-10T13:18:15Z</time>
      </trkpt>
      <trkpt lat="47.72212" lon="-3.36481">
        <ele>-2.27</ele>
        <time>2015-10-10T13:18:16Z</time>
      </trkpt>
      <trkpt lat="47.7221" lon="-3.3648">
        <ele>-2.27</ele>
        <time>2015-10-10T13:18:17Z</time>
      </trkpt>
      <trkpt lat="47.72208" lon="-3.3648">
        <ele>-2.75</ele>
        <time>2015-10-10T13:18:18Z</time>
      </trkpt>
      <trkpt lat="47.72206" lon="-3.36479">
        <ele>-2.75</ele>
        <time>2015-10-10T13:18:19Z</time>
      </trkpt>
      <trkpt lat="47.72204" lon="-3.36478">
        <ele>-2.75</ele>
        <time>2015-10-10T13:18:20Z</time>
      </trkpt>
      <trkpt lat="47.72203" lon="-3.36478">
        <ele>-2.27</ele>
        <time>2015-10-10T13:18:21Z</time>
      </trkpt>
      <trkpt lat="47.72201" lon="-3.36478">
        <ele>-2.27</ele>
        <time>2015-10-10T13:18:22Z</time>
      </trkpt>
      <trkpt lat="47.72199" lon="-3.36478">
        <ele>-2.27</ele>
        <time>2015-10-10T13:18:23Z</time>
      </trkpt>
      <trkpt lat="47.72197" lon="-3.36477">
        <ele>-2.27</ele>
        <time>2015-10-10T13:18:24Z</time>
      </trkpt>
      <trkpt lat="47.72195" lon="-3.36477">
        <ele>-2.27</ele>
        <time>2015-10-10T13:18:25Z</time>
      </trkpt>
      <trkpt lat="47.72193" lon="-3.36477">
        <ele>-2.27</ele>
        <time>2015-10-10T13:18:26Z</time>
      </trkpt>
      <trkpt lat="47.72191" lon="-3.36476">
        <ele>-2.27</ele>
        <time>2015-10-10T13:18:27Z</time>
      </trkpt>
      <trkpt lat="47.7219" lon="-3.36476">
        <ele>-2.27</ele>
        <time>2015-10-10T13:18:28Z</time>
      </trkpt>
      <trkpt lat="47.72188" lon="-3.36476">
        <ele>-2.27</ele>
        <time>2015-10-10T13:18:29Z</time>
      </trkpt>
      <trkpt lat="47.72186" lon="-3.36475">
        <ele>-2.27</ele>
        <time>2015-10-10T13:18:30Z</time>
      </trkpt>
      <trkpt lat="47.72184" lon="-3.36474">
        <ele>-2.27</ele>
        <time>2015-10-10T13:18:31Z</time>
      </trkpt>
      <trkpt lat="47.72182" lon="-3.36474">
        <ele>-2.27</ele>
        <time>2015-10-10T13:18:32Z</time>
      </trkpt>
      <trkpt lat="47.7218" lon="-3.36473">
        <ele>-2.27</ele>
        <time>2015-10-10T13:18:33Z</time>
      </trkpt>
      <trkpt lat="47.72178" lon="-3.36473">
        <ele>-2.27</ele>
        <time>2015-10-10T13:18:34Z</time>
      </trkpt>
      <trkpt lat="47.72177" lon="-3.36472">
        <ele>-2.27</ele>
        <time>2015-10-10T13:18:35Z</time>
      </trkpt>
      <trkpt lat="47.72175" lon="-3.36472">
        <ele>-2.27</ele>
        <time>2015-10-10T13:18:36Z</time>
      </trkpt>
      <trkpt lat="47.72173" lon="-3.36471">
        <ele>-2.27</ele>
        <time>2015-10-10T13:18:37Z</time>
      </trkpt>
      <trkpt lat="47.72171" lon="-3.36471">
        <ele>-2.27</ele>
        <time>2015-10-10T13:18:38Z</time>
      </trkpt>
      <trkpt lat="47.72169" lon="-3.3647">
        <ele>-2.27</ele>
        <time>2015-10-10T13:18:39Z</time>
      </trkpt>
      <trkpt lat="47.72167" lon="-3.36469">
        <ele>-2.27</ele>
        <time>2015-10-10T13:18:40Z</time>
      </trkpt>
      <trkpt lat="47.72166" lon="-3.36469">
        <ele>-3.23</ele>
        <time>2015-10-10T13:18:41Z</time>
      </trkpt>
      <trkpt lat="47.72164" lon="-3.36469">
        <ele>-3.23</ele>
        <time>2015-10-10T13:18:42Z</time>
      </trkpt>
      <trkpt lat="47.72162" lon="-3.36469">
        <ele>-3.23</ele>
        <time>2015-10-10T13:18:43Z</time>
      </trkpt>
      <trkpt lat="47.72161" lon="-3.36468">
        <ele>-3.23</ele>
        <time>2015-10-10T13:18:44Z</time>
      </trkpt>
      <trkpt lat="47.72159" lon="-3.36468">
        <ele>-3.23</ele>
        <time>2015-10-10T13:18:45Z</time>
      </trkpt>
      <trkpt lat="47.72158" lon="-3.36467">
        <ele>-3.23</ele>
        <time>2015-10-10T13:18:46Z</time>
      </trkpt>
      <trkpt lat="47.72156" lon="-3.36467">
        <ele>-3.23</ele>
        <time>2015-10-10T13:18:47Z</time>
      </trkpt>
      <trkpt lat="47.72155" lon="-3.36467">
        <ele>-3.23</ele>
        <time>2015-10-10T13:18:48Z</time>
      </trkpt>
      <trkpt lat="47.72153" lon="-3.36466">
        <ele>-3.23</ele>
        <time>2015-10-10T13:18:49Z</time>
      </trkpt>
      <trkpt lat="47.72152" lon="-3.36466">
        <ele>-3.23</ele>
        <time>2015-10-10T13:18:50Z</time>
      </trkpt>
      <trkpt lat="47.7215" lon="-3.36466">
        <ele>-3.23</ele>
        <time>2015-10-10T13:18:51Z</time>
      </trkpt>
      <trkpt lat="47.72149" lon="-3.36466">
        <ele>-3.23</ele>
        <time>2015-10-10T13:18:52Z</time>
      </trkpt>
      <trkpt lat="47.72147" lon="-3.36465">
        <ele>-3.23</ele>
        <time>2015-10-10T13:18:53Z</time>
      </trkpt>
      <trkpt lat="47.72146" lon="-3.36465">
        <ele>-4.19</ele>
        <time>2015-10-10T13:18:54Z</time>
      </trkpt>
      <trkpt lat="47.72144" lon="-3.36465">
        <ele>-4.19</ele>
        <time>2015-10-10T13:18:55Z</time>
      </trkpt>
      <trkpt lat="47.72143" lon="-3.36464">
        <ele>-2.75</ele>
        <time>2015-10-10T13:18:56Z</time>
      </trkpt>
      <trkpt lat="47.72142" lon="-3.36464">
        <ele>-2.27</ele>
        <time>2015-10-10T13:18:57Z</time>
      </trkpt>
      <trkpt lat="47.7214" lon="-3.36464">
        <ele>-3.71</ele>
        <time>2015-10-10T13:18:58Z</time>
      </trkpt>
      <trkpt lat="47.72139" lon="-3.36464">
        <ele>-3.23</ele>
        <time>2015-10-10T13:18:59Z</time>
      </trkpt>
      <trkpt lat="47.72138" lon="-3.36464">
        <ele>-3.71</ele>
        <time>2015-10-10T13:19:00Z</time>
      </trkpt>
      <trkpt lat="47.72137" lon="-3.36464">
        <ele>-3.71</ele>
        <time>2015-10-10T13:19:01Z</time>
      </trkpt>
      <trkpt lat="47.72135" lon="-3.36464">
        <ele>-3.71</ele>
        <time>2015-10-10T13:19:02Z</time>
      </trkpt>
      <trkpt lat="47.72134" lon="-3.36464">
        <ele>-1.79</ele>
        <time>2015-10-10T13:19:03Z</time>
      </trkpt>
      <trkpt lat="47.72132" lon="-3.36464">
        <ele>-3.23</ele>
        <time>2015-10-10T13:19:04Z</time>
      </trkpt>
      <trkpt lat="47.72131" lon="-3.36464">
        <ele>-2.27</ele>
        <time>2015-10-10T13:19:05Z</time>
      </trkpt>
      <trkpt lat="47.7213" lon="-3.36464">
        <ele>-2.27</ele>
        <time>2015-10-10T13:19:06Z</time>
      </trkpt>
      <trkpt lat="47.72128" lon="-3.36464">
        <ele>-2.27</ele>
        <time>2015-10-10T13:19:07Z</time>
      </trkpt>
      <trkpt lat="47.72127" lon="-3.36464">
        <ele>-2.27</ele>
        <time>2015-10-10T13:19:08Z</time>
      </trkpt>
      <trkpt lat="47.72126" lon="-3.36463">
        <ele>-2.27</ele>
        <time>2015-10-10T13:19:09Z</time>
      </trkpt>
      <trkpt lat="47.72124" lon="-3.36463">
        <ele>-2.27</ele>
        <time>2015-10-10T13:19:10Z</time>
      </trkpt>
      <trkpt lat="47.72123" lon="-3.36463">
        <ele>-3.23</ele>
        <time>2015-10-10T13:19:11Z</time>
      </trkpt>
      <trkpt lat="47.72122" lon="-3.36462">
        <ele>-3.23</ele>
        <time>2015-10-10T13:19:12Z</time>
      </trkpt>
      <trkpt lat="47.7212" lon="-3.36462">
        <ele>-3.23</ele>
        <time>2015-10-10T13:19:13Z</time>
      </trkpt>
      <trkpt lat="47.72119" lon="-3.36462">
        <ele>-3.23</ele>
        <time>2015-10-10T13:19:14Z</time>
      </trkpt>
      <trkpt lat="47.72118" lon="-3.36462">
        <ele>-3.23</ele>
        <time>2015-10-10T13:19:15Z</time>
      </trkpt>
      <trkpt lat="47.72117" lon="-3.36462">
        <ele>-3.23</ele>
        <time>2015-10-10T13:19:16Z</time>
      </trkpt>
      <trkpt lat="47.72115" lon="-3.36462">
        <ele>-3.23</ele>
        <time>2015-10-10T13:19:17Z</time>
      </trkpt>
      <trkpt lat="47.72113" lon="-3.36463">
        <ele>-3.23</ele>
        <time>2015-10-10T13:19:18Z</time>
      </trkpt>
      <trkpt lat="47.72112" lon="-3.36462">
        <ele>-3.23</ele>
        <time>2015-10-10T13:19:19Z</time>
      </trkpt>
      <trkpt lat="47.7211" lon="-3.36462">
        <ele>-1.79</ele>
        <time>2015-10-10T13:19:20Z</time>
      </trkpt>
      <trkpt lat="47.72109" lon="-3.36462">
        <ele>-1.79</ele>
        <time>2015-10-10T13:19:21Z</time>
      </trkpt>
      <trkpt lat="47.72107" lon="-3.36462">
        <ele>-1.79</ele>
        <time>2015-10-10T13:19:22Z</time>
      </trkpt>
      <trkpt lat="47.72105" lon="-3.36462">
        <ele>-1.79</ele>
        <time>2015-10-10T13:19:23Z</time>
      </trkpt>
      <trkpt lat="47.72103" lon="-3.36462">
        <ele>-1.79</ele>
        <time>2015-10-10T13:19:24Z</time>
      </trkpt>
      <trkpt lat="47.72102" lon="-3.36462">
        <ele>-1.79</ele>
        <time>2015-10-10T13:19:25Z</time>
      </trkpt>
      <trkpt lat="47.721" lon="-3.36462">
        <ele>-1.79</ele>
        <time>2015-10-10T13:19:26Z</time>
      </trkpt>
      <trkpt lat="47.72098" lon="-3.36461">
        <ele>-1.79</ele>
        <time>2015-10-10T13:19:27Z</time>
      </trkpt>
      <trkpt lat="47.72096" lon="-3.36462">
        <ele>-1.79</ele>
        <time>2015-10-10T13:19:28Z</time>
      </trkpt>
      <trkpt lat="47.72094" lon="-3.36462">
        <ele>-1.79</ele>
        <time>2015-10-10T13:19:29Z</time>
      </trkpt>
      <trkpt lat="47.72092" lon="-3.36461">
        <ele>-1.79</ele>
        <time>2015-10-10T13:19:30Z</time>
      </trkpt>
      <trkpt lat="47.7209" lon="-3.36461">
        <ele>-1.79</ele>
        <time>2015-10-10T13:19:31Z</time>
      </trkpt>
      <trkpt lat="47.72088" lon="-3.36461">
        <ele>-1.79</ele>
        <time>2015-10-10T13:19:32Z</time>
      </trkpt>
      <trkpt lat="47.72087" lon="-3.3646">
        <ele>-1.79</ele>
        <time>2015-10-10T13:19:33Z</time>
      </trkpt>
      <trkpt lat="47.72085" lon="-3.3646">
        <ele>-1.79</ele>
        <time>2015-10-10T13:19:34Z</time>
      </trkpt>
      <trkpt lat="47.72083" lon="-3.3646">
        <ele>-1.79</ele>
        <time>2015-10-10T13:19:35Z</time>
      </trkpt>
      <trkpt lat="47.72082" lon="-3.36459">
        <ele>-1.79</ele>
        <time>2015-10-10T13:19:36Z</time>
      </trkpt>
      <trkpt lat="47.7208" lon="-3.36459">
        <ele>-3.23</ele>
        <time>2015-10-10T13:19:37Z</time>
      </trkpt>
      <trkpt lat="47.72078" lon="-3.36458">
        <ele>-3.23</ele>
        <time>2015-10-10T13:19:38Z</time>
      </trkpt>
      <trkpt lat="47.72077" lon="-3.36458">
        <ele>-3.23</ele>
        <time>2015-10-10T13:19:39Z</time>
      </trkpt>
      <trkpt lat="47.72075" lon="-3.36458">
        <ele>-3.23</ele>
        <time>2015-10-10T13:19:40Z</time>
      </trkpt>
      <trkpt lat="47.72074" lon="-3.36457">
        <ele>-3.23</ele>
        <time>2015-10-10T13:19:41Z</time>
      </trkpt>
      <trkpt lat="47.72072" lon="-3.36457">
        <ele>-3.23</ele>
        <time>2015-10-10T13:19:42Z</time>
      </trkpt>
      <trkpt lat="47.72071" lon="-3.36457">
        <ele>-3.23</ele>
        <time>2015-10-10T13:19:43Z</time>
      </trkpt>
      <trkpt lat="47.72069" lon="-3.36456">
        <ele>-3.23</ele>
        <time>2015-10-10T13:19:44Z</time>
      </trkpt>
      <trkpt lat="47.72067" lon="-3.36456">
        <ele>-3.23</ele>
        <time>2015-10-10T13:19:45Z</time>
      </trkpt>
      <trkpt lat="47.72066" lon="-3.36456">
        <ele>-3.23</ele>
        <time>2015-10-10T13:19:46Z</time>
      </trkpt>
      <trkpt lat="47.72064" lon="-3.36456">
        <ele>-3.23</ele>
        <time>2015-10-10T13:19:47Z</time>
      </trkpt>
      <trkpt lat="47.72063" lon="-3.36456">
        <ele>-3.71</ele>
        <time>2015-10-10T13:19:48Z</time>
      </trkpt>
      <trkpt lat="47.72061" lon="-3.36456">
        <ele>-3.71</ele>
        <time>2015-10-10T13:19:49Z</time>
      </trkpt>
      <trkpt lat="47.7206" lon="-3.36456">
        <ele>-3.71</ele>
        <time>2015-10-10T13:19:50Z</time>
      </trkpt>
      <trkpt lat="47.72059" lon="-3.36456">
        <ele>-4.67</ele>
        <time>2015-10-10T13:19:51Z</time>
      </trkpt>
      <trkpt lat="47.72057" lon="-3.36456">
        <ele>-1.79</ele>
        <time>2015-10-10T13:19:52Z</time>
      </trkpt>
      <trkpt lat="47.72056" lon="-3.36456">
        <ele>-3.71</ele>
        <time>2015-10-10T13:19:53Z</time>
      </trkpt>
      <trkpt lat="47.72054" lon="-3.36456">
        <ele>-3.71</ele>
        <time>2015-10-10T13:19:54Z</time>
      </trkpt>
      <trkpt lat="47.72053" lon="-3.36456">
        <ele>-3.71</ele>
        <time>2015-10-10T13:19:55Z</time>
      </trkpt>
      <trkpt lat="47.72051" lon="-3.36456">
        <ele>-3.71</ele>
        <time>2015-10-10T13:19:56Z</time>
      </trkpt>
      <trkpt lat="47.72049" lon="-3.36455">
        <ele>-3.71</ele>
        <time>2015-10-10T13:19:57Z</time>
      </trkpt>
      <trkpt lat="47.72048" lon="-3.36455">
        <ele>-3.71</ele>
        <time>2015-10-10T13:19:58Z</time>
      </trkpt>
      <trkpt lat="47.72046" lon="-3.36455">
        <ele>-3.71</ele>
        <time>2015-10-10T13:19:59Z</time>
      </trkpt>
      <trkpt lat="47.72044" lon="-3.36455">
        <ele>-3.71</ele>
        <time>2015-10-10T13:20:00Z</time>
      </trkpt>
      <trkpt lat="47.72042" lon="-3.36455">
        <ele>-3.71</ele>
        <time>2015-10-10T13:20:01Z</time>
      </trkpt>
      <trkpt lat="47.72041" lon="-3.36455">
        <ele>-3.71</ele>
        <time>2015-10-10T13:20:02Z</time>
      </trkpt>
      <trkpt lat="47.72039" lon="-3.36455">
        <ele>-3.71</ele>
        <time>2015-10-10T13:20:03Z</time>
      </trkpt>
      <trkpt lat="47.72037" lon="-3.36455">
        <ele>-3.71</ele>
        <time>2015-10-10T13:20:04Z</time>
      </trkpt>
      <trkpt lat="47.72035" lon="-3.36455">
        <ele>-3.71</ele>
        <time>2015-10-10T13:20:05Z</time>
      </trkpt>
      <trkpt lat="47.72033" lon="-3.36455">
        <ele>-3.71</ele>
        <time>2015-10-10T13:20:06Z</time>
      </trkpt>
      <trkpt lat="47.72032" lon="-3.36455">
        <ele>-3.71</ele>
        <time>2015-10-10T13:20:07Z</time>
      </trkpt>
      <trkpt lat="47.7203" lon="-3.36456">
        <ele>-3.71</ele>
        <time>2015-10-10T13:20:08Z</time>
      </trkpt>
      <trkpt lat="47.72028" lon="-3.36457">
        <ele>-3.71</ele>
        <time>2015-10-10T13:20:09Z</time>
      </trkpt>
      <trkpt lat="47.72027" lon="-3.36457">
        <ele>-3.71</ele>
        <time>2015-10-10T13:20:10Z</time>
      </trkpt>
      <trkpt lat="47.72025" lon="-3.36458">
        <ele>-3.71</ele>
        <time>2015-10-10T13:20:11Z</time>
      </trkpt>
      <trkpt lat="47.72023" lon="-3.36458">
        <ele>-3.71</ele>
        <time>2015-10-10T13:20:12Z</time>
      </trkpt>
      <trkpt lat="47.72022" lon="-3.36459">
        <ele>-3.71</ele>
        <time>2015-10-10T13:20:13Z</time>
      </trkpt>
      <trkpt lat="47.7202" lon="-3.3646">
        <ele>-3.71</ele>
        <time>2015-10-10T13:20:14Z</time>
      </trkpt>
      <trkpt lat="47.72019" lon="-3.3646">
        <ele>-3.71</ele>
        <time>2015-10-10T13:20:15Z</time>
      </trkpt>
      <trkpt lat="47.72017" lon="-3.36461">
        <ele>-3.71</ele>
        <time>2015-10-10T13:20:16Z</time>
      </trkpt>
      <trkpt lat="47.72015" lon="-3.36462">
        <ele>-3.71</ele>
        <time>2015-10-10T13:20:17Z</time>
      </trkpt>
      <trkpt lat="47.72014" lon="-3.36463">
        <ele>-3.71</ele>
        <time>2015-10-10T13:20:18Z</time>
      </trkpt>
      <trkpt lat="47.72012" lon="-3.36463">
        <ele>-3.71</ele>
        <time>2015-10-10T13:20:19Z</time>
      </trkpt>
      <trkpt lat="47.7201" lon="-3.36463">
        <ele>-3.71</ele>
        <time>2015-10-10T13:20:20Z</time>
      </trkpt>
      <trkpt lat="47.72008" lon="-3.36463">
        <ele>-3.71</ele>
        <time>2015-10-10T13:20:21Z</time>
      </trkpt>
      <trkpt lat="47.72007" lon="-3.36463">
        <ele>-3.71</ele>
        <time>2015-10-10T13:20:22Z</time>
      </trkpt>
      <trkpt lat="47.72005" lon="-3.36463">
        <ele>-3.71</ele>
        <time>2015-10-10T13:20:23Z</time>
      </trkpt>
      <trkpt lat="47.72004" lon="-3.36463">
        <ele>-3.71</ele>
        <time>2015-10-10T13:20:24Z</time>
      </trkpt>
      <trkpt lat="47.72002" lon="-3.36463">
        <ele>-3.71</ele>
        <time>2015-10-10T13:20:25Z</time>
      </trkpt>
      <trkpt lat="47.72" lon="-3.36462">
        <ele>-3.71</ele>
        <time>2015-10-10T13:20:26Z</time>
      </trkpt>
      <trkpt lat="47.71999" lon="-3.36462">
        <ele>-3.71</ele>
        <time>2015-10-10T13:20:27Z</time>
      </trkpt>
      <trkpt lat="47.71997" lon="-3.36462">
        <ele>-3.71</ele>
        <time>2015-10-10T13:20:28Z</time>
      </trkpt>
      <trkpt lat="47.71995" lon="-3.36462">
        <ele>-3.71</ele>
        <time>2015-10-10T13:20:29Z</time>
      </trkpt>
      <trkpt lat="47.71994" lon="-3.36462">
        <ele>-3.71</ele>
        <time>2015-10-10T13:20:30Z</time>
      </trkpt>
      <trkpt lat="47.71992" lon="-3.36461">
        <ele>-3.71</ele>
        <time>2015-10-10T13:20:31Z</time>
      </trkpt>
      <trkpt lat="47.7199" lon="-3.36461">
        <ele>-3.71</ele>
        <time>2015-10-10T13:20:32Z</time>
      </trkpt>
      <trkpt lat="47.71988" lon="-3.36461">
        <ele>-3.71</ele>
        <time>2015-10-10T13:20:33Z</time>
      </trkpt>
      <trkpt lat="47.71987" lon="-3.36461">
        <ele>-3.71</ele>
        <time>2015-10-10T13:20:34Z</time>
      </trkpt>
      <trkpt lat="47.71985" lon="-3.3646">
        <ele>-3.71</ele>
        <time>2015-10-10T13:20:35Z</time>
      </trkpt>
      <trkpt lat="47.71983" lon="-3.3646">
        <ele>-3.71</ele>
        <time>2015-10-10T13:20:36Z</time>
      </trkpt>
      <trkpt lat="47.71981" lon="-3.36459">
        <ele>-3.71</ele>
        <time>2015-10-10T13:20:37Z</time>
      </trkpt>
      <trkpt lat="47.7198" lon="-3.36459">
        <ele>-3.71</ele>
        <time>2015-10-10T13:20:38Z</time>
      </trkpt>
      <trkpt lat="47.71978" lon="-3.36459">
        <ele>-3.71</ele>
        <time>2015-10-10T13:20:39Z</time>
      </trkpt>
      <trkpt lat="47.71976" lon="-3.36458">
        <ele>-3.71</ele>
        <time>2015-10-10T13:20:40Z</time>
      </trkpt>
      <trkpt lat="47.71974" lon="-3.36458">
        <ele>-3.71</ele>
        <time>2015-10-10T13:20:41Z</time>
      </trkpt>
      <trkpt lat="47.71973" lon="-3.36458">
        <ele>-3.71</ele>
        <time>2015-10-10T13:20:42Z</time>
      </trkpt>
      <trkpt lat="47.71971" lon="-3.36458">
        <ele>-3.71</ele>
        <time>2015-10-10T13:20:43Z</time>
      </trkpt>
      <trkpt lat="47.71969" lon="-3.36459">
        <ele>-3.71</ele>
        <time>2015-10-10T13:20:44Z</time>
      </trkpt>
      <trkpt lat="47.71967" lon="-3.36459">
        <ele>-3.71</ele>
        <time>2015-10-10T13:20:45Z</time>
      </trkpt>
      <trkpt lat="47.71965" lon="-3.36459">
        <ele>-3.71</ele>
        <time>2015-10-10T13:20:46Z</time>
      </trkpt>
      <trkpt lat="47.71963" lon="-3.36459">
        <ele>-3.71</ele>
        <time>2015-10-10T13:20:47Z</time>
      </trkpt>
      <trkpt lat="47.71961" lon="-3.3646">
        <ele>-3.71</ele>
        <time>2015-10-10T13:20:48Z</time>
      </trkpt>
      <trkpt lat="47.7196" lon="-3.3646">
        <ele>-3.71</ele>
        <time>2015-10-10T13:20:49Z</time>
      </trkpt>
      <trkpt lat="47.71958" lon="-3.36461">
        <ele>-3.71</ele>
        <time>2015-10-10T13:20:50Z</time>
      </trkpt>
      <trkpt lat="47.71956" lon="-3.36462">
        <ele>-3.71</ele>
        <time>2015-10-10T13:20:51Z</time>
      </trkpt>
      <trkpt lat="47.71953" lon="-3.36462">
        <ele>-3.71</ele>
        <time>2015-10-10T13:20:52Z</time>
      </trkpt>
      <trkpt lat="47.71951" lon="-3.36461">
        <ele>-3.71</ele>
        <time>2015-10-10T13:20:53Z</time>
      </trkpt>
      <trkpt lat="47.7195" lon="-3.36461">
        <ele>-3.71</ele>
        <time>2015-10-10T13:20:54Z</time>
      </trkpt>
      <trkpt lat="47.71948" lon="-3.36461">
        <ele>-3.71</ele>
        <time>2015-10-10T13:20:55Z</time>
      </trkpt>
      <trkpt lat="47.71946" lon="-3.3646">
        <ele>-3.71</ele>
        <time>2015-10-10T13:20:56Z</time>
      </trkpt>
      <trkpt lat="47.71944" lon="-3.3646">
        <ele>-3.71</ele>
        <time>2015-10-10T13:20:57Z</time>
      </trkpt>
      <trkpt lat="47.71942" lon="-3.36459">
        <ele>-3.71</ele>
        <time>2015-10-10T13:20:58Z</time>
      </trkpt>
      <trkpt lat="47.7194" lon="-3.36459">
        <ele>-3.71</ele>
        <time>2015-10-10T13:20:59Z</time>
      </trkpt>
      <trkpt lat="47.71939" lon="-3.36458">
        <ele>-3.71</ele>
        <time>2015-10-10T13:21:00Z</time>
      </trkpt>
      <trkpt lat="47.71936" lon="-3.36458">
        <ele>-3.71</ele>
        <time>2015-10-10T13:21:01Z</time>
      </trkpt>
      <trkpt lat="47.71934" lon="-3.36457">
        <ele>-3.71</ele>
        <time>2015-10-10T13:21:02Z</time>
      </trkpt>
      <trkpt lat="47.71933" lon="-3.36457">
        <ele>-3.71</ele>
        <time>2015-10-10T13:21:03Z</time>
      </trkpt>
      <trkpt lat="47.71931" lon="-3.36457">
        <ele>-3.71</ele>
        <time>2015-10-10T13:21:04Z</time>
      </trkpt>
      <trkpt lat="47.71928" lon="-3.36456">
        <ele>-3.71</ele>
        <time>2015-10-10T13:21:05Z</time>
      </trkpt>
      <trkpt lat="47.71927" lon="-3.36456">
        <ele>-3.71</ele>
        <time>2015-10-10T13:21:06Z</time>
      </trkpt>
      <trkpt lat="47.71925" lon="-3.36456">
        <ele>-3.71</ele>
        <time>2015-10-10T13:21:07Z</time>
      </trkpt>
      <trkpt lat="47.71923" lon="-3.36455">
        <ele>-3.71</ele>
        <time>2015-10-10T13:21:08Z</time>
      </trkpt>
      <trkpt lat="47.71921" lon="-3.36455">
        <ele>-3.71</ele>
        <time>2015-10-10T13:21:09Z</time>
      </trkpt>
      <trkpt lat="47.71919" lon="-3.36455">
        <ele>-3.71</ele>
        <time>2015-10-10T13:21:10Z</time>
      </trkpt>
      <trkpt lat="47.71918" lon="-3.36455">
        <ele>-3.71</ele>
        <time>2015-10-10T13:21:11Z</time>
      </trkpt>
      <trkpt lat="47.71916" lon="-3.36455">
        <ele>-3.71</ele>
        <time>2015-10-10T13:21:12Z</time>
      </trkpt>
      <trkpt lat="47.71914" lon="-3.36454">
        <ele>-3.71</ele>
        <time>2015-10-10T13:21:13Z</time>
      </trkpt>
      <trkpt lat="47.71912" lon="-3.36454">
        <ele>-3.71</ele>
        <time>2015-10-10T13:21:14Z</time>
      </trkpt>
      <trkpt lat="47.7191" lon="-3.36453">
        <ele>-3.71</ele>
        <time>2015-10-10T13:21:15Z</time>
      </trkpt>
      <trkpt lat="47.71908" lon="-3.36453">
        <ele>-3.71</ele>
        <time>2015-10-10T13:21:16Z</time>
      </trkpt>
      <trkpt lat="47.71906" lon="-3.36452">
        <ele>-3.71</ele>
        <time>2015-10-10T13:21:17Z</time>
      </trkpt>
      <trkpt lat="47.71904" lon="-3.36452">
        <ele>-3.71</ele>
        <time>2015-10-10T13:21:18Z</time>
      </trkpt>
      <trkpt lat="47.71902" lon="-3.36452">
        <ele>-3.71</ele>
        <time>2015-10-10T13:21:19Z</time>
      </trkpt>
      <trkpt lat="47.719" lon="-3.36453">
        <ele>-3.71</ele>
        <time>2015-10-10T13:21:20Z</time>
      </trkpt>
      <trkpt lat="47.71898" lon="-3.36453">
        <ele>-3.71</ele>
        <time>2015-10-10T13:21:21Z</time>
      </trkpt>
      <trkpt lat="47.71897" lon="-3.36452">
        <ele>-3.71</ele>
        <time>2015-10-10T13:21:22Z</time>
      </trkpt>
      <trkpt lat="47.71895" lon="-3.36452">
        <ele>-3.71</ele>
        <time>2015-10-10T13:21:23Z</time>
      </trkpt>
      <trkpt lat="47.71893" lon="-3.36451">
        <ele>-3.71</ele>
        <time>2015-10-10T13:21:24Z</time>
      </trkpt>
      <trkpt lat="47.71891" lon="-3.36451">
        <ele>-3.71</ele>
        <time>2015-10-10T13:21:25Z</time>
      </trkpt>
      <trkpt lat="47.71889" lon="-3.36451">
        <ele>-3.71</ele>
        <time>2015-10-10T13:21:26Z</time>
      </trkpt>
      <trkpt lat="47.71887" lon="-3.36451">
        <ele>-3.71</ele>
        <time>2015-10-10T13:21:27Z</time>
      </trkpt>
      <trkpt lat="47.71885" lon="-3.36451">
        <ele>-3.71</ele>
        <time>2015-10-10T13:21:28Z</time>
      </trkpt>
      <trkpt lat="47.71883" lon="-3.3645">
        <ele>-3.71</ele>
        <time>2015-10-10T13:21:29Z</time>
      </trkpt>
      <trkpt lat="47.71881" lon="-3.3645">
        <ele>-3.71</ele>
        <time>2015-10-10T13:21:30Z</time>
      </trkpt>
      <trkpt lat="47.7188" lon="-3.3645">
        <ele>-3.71</ele>
        <time>2015-10-10T13:21:31Z</time>
      </trkpt>
      <trkpt lat="47.71878" lon="-3.36449">
        <ele>-2.27</ele>
        <time>2015-10-10T13:21:32Z</time>
      </trkpt>
      <trkpt lat="47.71876" lon="-3.36449">
        <ele>-2.27</ele>
        <time>2015-10-10T13:21:33Z</time>
      </trkpt>
      <trkpt lat="47.71875" lon="-3.36449">
        <ele>-2.27</ele>
        <time>2015-10-10T13:21:34Z</time>
      </trkpt>
      <trkpt lat="47.71873" lon="-3.3645">
        <ele>-2.27</ele>
        <time>2015-10-10T13:21:35Z</time>
      </trkpt>
      <trkpt lat="47.71872" lon="-3.3645">
        <ele>-2.27</ele>
        <time>2015-10-10T13:21:36Z</time>
      </trkpt>
      <trkpt lat="47.7187" lon="-3.36449">
        <ele>-2.27</ele>
        <time>2015-10-10T13:21:37Z</time>
      </trkpt>
      <trkpt lat="47.71869" lon="-3.36449">
        <ele>-2.27</ele>
        <time>2015-10-10T13:21:38Z</time>
      </trkpt>
      <trkpt lat="47.71868" lon="-3.36449">
        <ele>-2.27</ele>
        <time>2015-10-10T13:21:39Z</time>
      </trkpt>
      <trkpt lat="47.71867" lon="-3.3645">
        <ele>-2.27</ele>
        <time>2015-10-10T13:21:40Z</time>
      </trkpt>
      <trkpt lat="47.71866" lon="-3.3645">
        <ele>-2.27</ele>
        <time>2015-10-10T13:21:41Z</time>
      </trkpt>
      <trkpt lat="47.71865" lon="-3.36449">
        <ele>-2.27</ele>
        <time>2015-10-10T13:21:42Z</time>
      </trkpt>
      <trkpt lat="47.71864" lon="-3.36449">
        <ele>-2.27</ele>
        <time>2015-10-10T13:21:43Z</time>
      </trkpt>
      <trkpt lat="47.71862" lon="-3.36449">
        <ele>-2.27</ele>
        <time>2015-10-10T13:21:44Z</time>
      </trkpt>
      <trkpt lat="47.71861" lon="-3.36449">
        <ele>-2.27</ele>
        <time>2015-10-10T13:21:45Z</time>
      </trkpt>
      <trkpt lat="47.7186" lon="-3.36449">
        <ele>-2.27</ele>
        <time>2015-10-10T13:21:46Z</time>
      </trkpt>
      <trkpt lat="47.71858" lon="-3.36449">
        <ele>-2.27</ele>
        <time>2015-10-10T13:21:47Z</time>
      </trkpt>
      <trkpt lat="47.71857" lon="-3.36449">
        <ele>-2.27</ele>
        <time>2015-10-10T13:21:48Z</time>
      </trkpt>
      <trkpt lat="47.71856" lon="-3.36449">
        <ele>-2.27</ele>
        <time>2015-10-10T13:21:49Z</time>
      </trkpt>
      <trkpt lat="47.71855" lon="-3.36449">
        <ele>-2.27</ele>
        <time>2015-10-10T13:21:50Z</time>
      </trkpt>
      <trkpt lat="47.71854" lon="-3.36449">
        <ele>-2.27</ele>
        <time>2015-10-10T13:21:51Z</time>
      </trkpt>
      <trkpt lat="47.71853" lon="-3.36449">
        <ele>-2.27</ele>
        <time>2015-10-10T13:21:52Z</time>
      </trkpt>
      <trkpt lat="47.71851" lon="-3.36449">
        <ele>-2.27</ele>
        <time>2015-10-10T13:21:53Z</time>
      </trkpt>
      <trkpt lat="47.7185" lon="-3.36449">
        <ele>-2.27</ele>
        <time>2015-10-10T13:21:54Z</time>
      </trkpt>
      <trkpt lat="47.71849" lon="-3.36449">
        <ele>-2.27</ele>
        <time>2015-10-10T13:21:55Z</time>
      </trkpt>
      <trkpt lat="47.71847" lon="-3.36449">
        <ele>-2.27</ele>
        <time>2015-10-10T13:21:56Z</time>
      </trkpt>
      <trkpt lat="47.71846" lon="-3.36449">
        <ele>-2.27</ele>
        <time>2015-10-10T13:21:57Z</time>
      </trkpt>
      <trkpt lat="47.71845" lon="-3.36449">
        <ele>-2.27</ele>
        <time>2015-10-10T13:21:58Z</time>
      </trkpt>
      <trkpt lat="47.71843" lon="-3.36448">
        <ele>-2.27</ele>
        <time>2015-10-10T13:21:59Z</time>
      </trkpt>
      <trkpt lat="47.71842" lon="-3.36449">
        <ele>-2.27</ele>
        <time>2015-10-10T13:22:00Z</time>
      </trkpt>
      <trkpt lat="47.71841" lon="-3.36449">
        <ele>-2.27</ele>
        <time>2015-10-10T13:22:01Z</time>
      </trkpt>
      <trkpt lat="47.71839" lon="-3.36449">
        <ele>-2.27</ele>
        <time>2015-10-10T13:22:02Z</time>
      </trkpt>
      <trkpt lat="47.71838" lon="-3.36449">
        <ele>-2.27</ele>
        <time>2015-10-10T13:22:03Z</time>
      </trkpt>
      <trkpt lat="47.71837" lon="-3.36449">
        <ele>-2.27</ele>
        <time>2015-10-10T13:22:04Z</time>
      </trkpt>
      <trkpt lat="47.71835" lon="-3.36449">
        <ele>-2.27</ele>
        <time>2015-10-10T13:22:05Z</time>
      </trkpt>
      <trkpt lat="47.71834" lon="-3.36449">
        <ele>-2.27</ele>
        <time>2015-10-10T13:22:06Z</time>
      </trkpt>
      <trkpt lat="47.71833" lon="-3.3645">
        <ele>-2.27</ele>
        <time>2015-10-10T13:22:07Z</time>
      </trkpt>
      <trkpt lat="47.71831" lon="-3.3645">
        <ele>-2.27</ele>
        <time>2015-10-10T13:22:08Z</time>
      </trkpt>
      <trkpt lat="47.7183" lon="-3.3645">
        <ele>-2.27</ele>
        <time>2015-10-10T13:22:09Z</time>
      </trkpt>
      <trkpt lat="47.71828" lon="-3.36451">
        <ele>-2.27</ele>
        <time>2015-10-10T13:22:10Z</time>
      </trkpt>
      <trkpt lat="47.71827" lon="-3.36451">
        <ele>-2.27</ele>
        <time>2015-10-10T13:22:11Z</time>
      </trkpt>
      <trkpt lat="47.71826" lon="-3.36451">
        <ele>-2.27</ele>
        <time>2015-10-10T13:22:12Z</time>
      </trkpt>
      <trkpt lat="47.71824" lon="-3.36452">
        <ele>-2.27</ele>
        <time>2015-10-10T13:22:13Z</time>
      </trkpt>
      <trkpt lat="47.71823" lon="-3.36452">
        <ele>-2.27</ele>
        <time>2015-10-10T13:22:14Z</time>
      </trkpt>
      <trkpt lat="47.71821" lon="-3.36452">
        <ele>-2.27</ele>
        <time>2015-10-10T13:22:15Z</time>
      </trkpt>
      <trkpt lat="47.7182" lon="-3.36452">
        <ele>-2.27</ele>
        <time>2015-10-10T13:22:16Z</time>
      </trkpt>
      <trkpt lat="47.71818" lon="-3.36453">
        <ele>-2.27</ele>
        <time>2015-10-10T13:22:17Z</time>
      </trkpt>
      <trkpt lat="47.71816" lon="-3.36453">
        <ele>-2.27</ele>
        <time>2015-10-10T13:22:18Z</time>
      </trkpt>
      <trkpt lat="47.71815" lon="-3.36453">
        <ele>-2.27</ele>
        <time>2015-10-10T13:22:19Z</time>
      </trkpt>
      <trkpt lat="47.71813" lon="-3.36453">
        <ele>-2.27</ele>
        <time>2015-10-10T13:22:20Z</time>
      </trkpt>
      <trkpt lat="47.71811" lon="-3.36453">
        <ele>-2.27</ele>
        <time>2015-10-10T13:22:21Z</time>
      </trkpt>
      <trkpt lat="47.7181" lon="-3.36453">
        <ele>-2.27</ele>
        <time>2015-10-10T13:22:22Z</time>
      </trkpt>
      <trkpt lat="47.71808" lon="-3.36454">
        <ele>-2.27</ele>
        <time>2015-10-10T13:22:23Z</time>
      </trkpt>
      <trkpt lat="47.71807" lon="-3.36454">
        <ele>-2.27</ele>
        <time>2015-10-10T13:22:24Z</time>
      </trkpt>
      <trkpt lat="47.71805" lon="-3.36454">
        <ele>-2.27</ele>
        <time>2015-10-10T13:22:25Z</time>
      </trkpt>
      <trkpt lat="47.71803" lon="-3.36454">
        <ele>-2.27</ele>
        <time>2015-10-10T13:22:26Z</time>
      </trkpt>
      <trkpt lat="47.71801" lon="-3.36454">
        <ele>-2.27</ele>
        <time>2015-10-10T13:22:27Z</time>
      </trkpt>
      <trkpt lat="47.718" lon="-3.36455">
        <ele>-2.27</ele>
        <time>2015-10-10T13:22:28Z</time>
      </trkpt>
      <trkpt lat="47.71798" lon="-3.36455">
        <ele>-2.27</ele>
        <time>2015-10-10T13:22:29Z</time>
      </trkpt>
      <trkpt lat="47.71796" lon="-3.36455">
        <ele>-3.71</ele>
        <time>2015-10-10T13:22:30Z</time>
      </trkpt>
      <trkpt lat="47.71795" lon="-3.36456">
        <ele>-3.71</ele>
        <time>2015-10-10T13:22:31Z</time>
      </trkpt>
      <trkpt lat="47.71793" lon="-3.36456">
        <ele>-3.71</ele>
        <time>2015-10-10T13:22:32Z</time>
      </trkpt>
      <trkpt lat="47.71791" lon="-3.36456">
        <ele>-3.71</ele>
        <time>2015-10-10T13:22:33Z</time>
      </trkpt>
      <trkpt lat="47.71789" lon="-3.36456">
        <ele>-3.71</ele>
        <time>2015-10-10T13:22:34Z</time>
      </trkpt>
      <trkpt lat="47.71788" lon="-3.36456">
        <ele>-2.27</ele>
        <time>2015-10-10T13:22:35Z</time>
      </trkpt>
      <trkpt lat="47.71786" lon="-3.36456">
        <ele>-2.27</ele>
        <time>2015-10-10T13:22:36Z</time>
      </trkpt>
      <trkpt lat="47.71785" lon="-3.36455">
        <ele>-2.27</ele>
        <time>2015-10-10T13:22:37Z</time>
      </trkpt>
      <trkpt lat="47.71783" lon="-3.36455">
        <ele>-2.27</ele>
        <time>2015-10-10T13:22:38Z</time>
      </trkpt>
      <trkpt lat="47.71781" lon="-3.36455">
        <ele>-2.27</ele>
        <time>2015-10-10T13:22:39Z</time>
      </trkpt>
      <trkpt lat="47.71779" lon="-3.36454">
        <ele>-4.19</ele>
        <time>2015-10-10T13:22:40Z</time>
      </trkpt>
      <trkpt lat="47.71778" lon="-3.36453">
        <ele>-2.75</ele>
        <time>2015-10-10T13:22:41Z</time>
      </trkpt>
      <trkpt lat="47.71776" lon="-3.36452">
        <ele>-0.34</ele>
        <time>2015-10-10T13:22:42Z</time>
      </trkpt>
      <trkpt lat="47.71774" lon="-3.36452">
        <ele>-2.75</ele>
        <time>2015-10-10T13:22:43Z</time>
      </trkpt>
      <trkpt lat="47.71772" lon="-3.36452">
        <ele>-2.75</ele>
        <time>2015-10-10T13:22:44Z</time>
      </trkpt>
      <trkpt lat="47.71771" lon="-3.36452">
        <ele>-1.3</ele>
        <time>2015-10-10T13:22:45Z</time>
      </trkpt>
      <trkpt lat="47.71769" lon="-3.36452">
        <ele>-1.3</ele>
        <time>2015-10-10T13:22:46Z</time>
      </trkpt>
      <trkpt lat="47.71767" lon="-3.36452">
        <ele>-1.3</ele>
        <time>2015-10-10T13:22:47Z</time>
      </trkpt>
      <trkpt lat="47.71765" lon="-3.36452">
        <ele>-1.3</ele>
        <time>2015-10-10T13:22:48Z</time>
      </trkpt>
      <trkpt lat="47.71763" lon="-3.36452">
        <ele>-4.19</ele>
        <time>2015-10-10T13:22:49Z</time>
      </trkpt>
      <trkpt lat="47.71761" lon="-3.36452">
        <ele>-0.34</ele>
        <time>2015-10-10T13:22:50Z</time>
      </trkpt>
      <trkpt lat="47.7176" lon="-3.36452">
        <ele>-2.27</ele>
        <time>2015-10-10T13:22:51Z</time>
      </trkpt>
      <trkpt lat="47.71758" lon="-3.36451">
        <ele>-2.27</ele>
        <time>2015-10-10T13:22:52Z</time>
      </trkpt>
      <trkpt lat="47.71756" lon="-3.36451">
        <ele>-2.27</ele>
        <time>2015-10-10T13:22:53Z</time>
      </trkpt>
      <trkpt lat="47.71754" lon="-3.36451">
        <ele>-2.27</ele>
        <time>2015-10-10T13:22:54Z</time>
      </trkpt>
      <trkpt lat="47.71752" lon="-3.36451">
        <ele>-2.27</ele>
        <time>2015-10-10T13:22:55Z</time>
      </trkpt>
      <trkpt lat="47.7175" lon="-3.36451">
        <ele>-2.27</ele>
        <time>2015-10-10T13:22:56Z</time>
      </trkpt>
      <trkpt lat="47.71748" lon="-3.3645">
        <ele>-2.27</ele>
        <time>2015-10-10T13:22:57Z</time>
      </trkpt>
      <trkpt lat="47.71746" lon="-3.3645">
        <ele>-2.27</ele>
        <time>2015-10-10T13:22:58Z</time>
      </trkpt>
      <trkpt lat="47.71744" lon="-3.3645">
        <ele>-2.27</ele>
        <time>2015-10-10T13:22:59Z</time>
      </trkpt>
      <trkpt lat="47.71742" lon="-3.36449">
        <ele>-5.15</ele>
        <time>2015-10-10T13:23:00Z</time>
      </trkpt>
      <trkpt lat="47.71741" lon="-3.36449">
        <ele>-1.79</ele>
        <time>2015-10-10T13:23:01Z</time>
      </trkpt>
      <trkpt lat="47.71739" lon="-3.36448">
        <ele>-1.3</ele>
        <time>2015-10-10T13:23:02Z</time>
      </trkpt>
      <trkpt lat="47.71737" lon="-3.36448">
        <ele>-1.3</ele>
        <time>2015-10-10T13:23:03Z</time>
      </trkpt>
      <trkpt lat="47.71735" lon="-3.36448">
        <ele>-1.3</ele>
        <time>2015-10-10T13:23:04Z</time>
      </trkpt>
      <trkpt lat="47.71733" lon="-3.36448">
        <ele>-1.3</ele>
        <time>2015-10-10T13:23:05Z</time>
      </trkpt>
      <trkpt lat="47.71731" lon="-3.36448">
        <ele>-1.3</ele>
        <time>2015-10-10T13:23:06Z</time>
      </trkpt>
      <trkpt lat="47.71729" lon="-3.36448">
        <ele>-1.3</ele>
        <time>2015-10-10T13:23:07Z</time>
      </trkpt>
      <trkpt lat="47.71727" lon="-3.36448">
        <ele>-1.3</ele>
        <time>2015-10-10T13:23:08Z</time>
      </trkpt>
      <trkpt lat="47.71725" lon="-3.36449">
        <ele>-1.3</ele>
        <time>2015-10-10T13:23:09Z</time>
      </trkpt>
      <trkpt lat="47.71723" lon="-3.36448">
        <ele>-1.3</ele>
        <time>2015-10-10T13:23:10Z</time>
      </trkpt>
      <trkpt lat="47.71721" lon="-3.36448">
        <ele>-1.3</ele>
        <time>2015-10-10T13:23:11Z</time>
      </trkpt>
      <trkpt lat="47.71719" lon="-3.36448">
        <ele>-1.3</ele>
        <time>2015-10-10T13:23:12Z</time>
      </trkpt>
      <trkpt lat="47.71717" lon="-3.36448">
        <ele>-2.75</ele>
        <time>2015-10-10T13:23:13Z</time>
      </trkpt>
      <trkpt lat="47.71715" lon="-3.36448">
        <ele>-2.75</ele>
        <time>2015-10-10T13:23:14Z</time>
      </trkpt>
      <trkpt lat="47.71712" lon="-3.36448">
        <ele>-2.75</ele>
        <time>2015-10-10T13:23:15Z</time>
      </trkpt>
      <trkpt lat="47.7171" lon="-3.36448">
        <ele>-2.75</ele>
        <time>2015-10-10T13:23:16Z</time>
      </trkpt>
      <trkpt lat="47.71708" lon="-3.36448">
        <ele>-2.75</ele>
        <time>2015-10-10T13:23:17Z</time>
      </trkpt>
      <trkpt lat="47.71706" lon="-3.36448">
        <ele>-2.75</ele>
        <time>2015-10-10T13:23:18Z</time>
      </trkpt>
      <trkpt lat="47.71703" lon="-3.36448">
        <ele>-2.75</ele>
        <time>2015-10-10T13:23:19Z</time>
      </trkpt>
      <trkpt lat="47.71701" lon="-3.36448">
        <ele>-2.75</ele>
        <time>2015-10-10T13:23:20Z</time>
      </trkpt>
      <trkpt lat="47.71699" lon="-3.36448">
        <ele>-2.75</ele>
        <time>2015-10-10T13:23:21Z</time>
      </trkpt>
      <trkpt lat="47.71696" lon="-3.36447">
        <ele>-2.75</ele>
        <time>2015-10-10T13:23:22Z</time>
      </trkpt>
      <trkpt lat="47.71694" lon="-3.36447">
        <ele>-2.75</ele>
        <time>2015-10-10T13:23:23Z</time>
      </trkpt>
      <trkpt lat="47.71691" lon="-3.36447">
        <ele>-2.75</ele>
        <time>2015-10-10T13:23:24Z</time>
      </trkpt>
      <trkpt lat="47.71689" lon="-3.36446">
        <ele>-2.75</ele>
        <time>2015-10-10T13:23:25Z</time>
      </trkpt>
      <trkpt lat="47.71686" lon="-3.36446">
        <ele>-2.75</ele>
        <time>2015-10-10T13:23:26Z</time>
      </trkpt>
      <trkpt lat="47.71684" lon="-3.36446">
        <ele>-3.23</ele>
        <time>2015-10-10T13:23:27Z</time>
      </trkpt>
      <trkpt lat="47.71681" lon="-3.36445">
        <ele>-3.23</ele>
        <time>2015-10-10T13:23:28Z</time>
      </trkpt>
      <trkpt lat="47.71679" lon="-3.36444">
        <ele>-3.23</ele>
        <time>2015-10-10T13:23:29Z</time>
      </trkpt>
      <trkpt lat="47.71676" lon="-3.36444">
        <ele>-3.23</ele>
        <time>2015-10-10T13:23:30Z</time>
      </trkpt>
      <trkpt lat="47.71674" lon="-3.36444">
        <ele>-3.23</ele>
        <time>2015-10-10T13:23:31Z</time>
      </trkpt>
      <trkpt lat="47.71671" lon="-3.36444">
        <ele>-3.23</ele>
        <time>2015-10-10T13:23:32Z</time>
      </trkpt>
      <trkpt lat="47.71669" lon="-3.36444">
        <ele>-3.23</ele>
        <time>2015-10-10T13:23:33Z</time>
      </trkpt>
      <trkpt lat="47.71667" lon="-3.36444">
        <ele>-3.23</ele>
        <time>2015-10-10T13:23:34Z</time>
      </trkpt>
      <trkpt lat="47.71664" lon="-3.36443">
        <ele>-3.23</ele>
        <time>2015-10-10T13:23:35Z</time>
      </trkpt>
      <trkpt lat="47.71662" lon="-3.36443">
        <ele>-3.23</ele>
        <time>2015-10-10T13:23:36Z</time>
      </trkpt>
      <trkpt lat="47.7166" lon="-3.36443">
        <ele>-3.23</ele>
        <time>2015-10-10T13:23:37Z</time>
      </trkpt>
      <trkpt lat="47.71657" lon="-3.36443">
        <ele>-3.23</ele>
        <time>2015-10-10T13:23:38Z</time>
      </trkpt>
      <trkpt lat="47.71655" lon="-3.36443">
        <ele>-3.23</ele>
        <time>2015-10-10T13:23:39Z</time>
      </trkpt>
      <trkpt lat="47.71653" lon="-3.36443">
        <ele>-3.23</ele>
        <time>2015-10-10T13:23:40Z</time>
      </trkpt>
      <trkpt lat="47.7165" lon="-3.36443">
        <ele>-3.23</ele>
        <time>2015-10-10T13:23:41Z</time>
      </trkpt>
      <trkpt lat="47.71648" lon="-3.36442">
        <ele>-3.23</ele>
        <time>2015-10-10T13:23:42Z</time>
      </trkpt>
      <trkpt lat="47.71646" lon="-3.36442">
        <ele>-3.23</ele>
        <time>2015-10-10T13:23:43Z</time>
      </trkpt>
      <trkpt lat="47.71644" lon="-3.36443">
        <ele>-3.23</ele>
        <time>2015-10-10T13:23:44Z</time>
      </trkpt>
      <trkpt lat="47.71642" lon="-3.36443">
        <ele>-3.23</ele>
        <time>2015-10-10T13:23:45Z</time>
      </trkpt>
      <trkpt lat="47.7164" lon="-3.36443">
        <ele>-3.23</ele>
        <time>2015-10-10T13:23:46Z</time>
      </trkpt>
      <trkpt lat="47.71638" lon="-3.36443">
        <ele>-3.23</ele>
        <time>2015-10-10T13:23:47Z</time>
      </trkpt>
      <trkpt lat="47.71636" lon="-3.36443">
        <ele>-3.23</ele>
        <time>2015-10-10T13:23:48Z</time>
      </trkpt>
      <trkpt lat="47.71634" lon="-3.36443">
        <ele>-3.23</ele>
        <time>2015-10-10T13:23:49Z</time>
      </trkpt>
      <trkpt lat="47.71632" lon="-3.36443">
        <ele>-3.23</ele>
        <time>2015-10-10T13:23:50Z</time>
      </trkpt>
      <trkpt lat="47.7163" lon="-3.36443">
        <ele>-3.23</ele>
        <time>2015-10-10T13:23:51Z</time>
      </trkpt>
      <trkpt lat="47.71628" lon="-3.36444">
        <ele>-3.23</ele>
        <time>2015-10-10T13:23:52Z</time>
      </trkpt>
      <trkpt lat="47.71626" lon="-3.36444">
        <ele>-3.23</ele>
        <time>2015-10-10T13:23:53Z</time>
      </trkpt>
      <trkpt lat="47.71623" lon="-3.36443">
        <ele>-3.23</ele>
        <time>2015-10-10T13:23:54Z</time>
      </trkpt>
      <trkpt lat="47.71621" lon="-3.36443">
        <ele>-3.23</ele>
        <time>2015-10-10T13:23:55Z</time>
      </trkpt>
      <trkpt lat="47.71619" lon="-3.36443">
        <ele>-3.23</ele>
        <time>2015-10-10T13:23:56Z</time>
      </trkpt>
      <trkpt lat="47.71617" lon="-3.36443">
        <ele>-3.23</ele>
        <time>2015-10-10T13:23:57Z</time>
      </trkpt>
      <trkpt lat="47.71614" lon="-3.36443">
        <ele>-3.23</ele>
        <time>2015-10-10T13:23:58Z</time>
      </trkpt>
      <trkpt lat="47.71612" lon="-3.36443">
        <ele>-3.23</ele>
        <time>2015-10-10T13:23:59Z</time>
      </trkpt>
      <trkpt lat="47.71609" lon="-3.36442">
        <ele>-3.23</ele>
        <time>2015-10-10T13:24:00Z</time>
      </trkpt>
      <trkpt lat="47.71607" lon="-3.36442">
        <ele>-3.23</ele>
        <time>2015-10-10T13:24:01Z</time>
      </trkpt>
      <trkpt lat="47.71604" lon="-3.36441">
        <ele>-3.23</ele>
        <time>2015-10-10T13:24:02Z</time>
      </trkpt>
      <trkpt lat="47.71602" lon="-3.36441">
        <ele>-3.23</ele>
        <time>2015-10-10T13:24:03Z</time>
      </trkpt>
      <trkpt lat="47.71599" lon="-3.36441">
        <ele>-3.23</ele>
        <time>2015-10-10T13:24:04Z</time>
      </trkpt>
      <trkpt lat="47.71597" lon="-3.36441">
        <ele>-3.23</ele>
        <time>2015-10-10T13:24:05Z</time>
      </trkpt>
      <trkpt lat="47.71594" lon="-3.36441">
        <ele>-3.23</ele>
        <time>2015-10-10T13:24:06Z</time>
      </trkpt>
      <trkpt lat="47.71591" lon="-3.36441">
        <ele>-3.23</ele>
        <time>2015-10-10T13:24:07Z</time>
      </trkpt>
      <trkpt lat="47.71589" lon="-3.36442">
        <ele>-3.23</ele>
        <time>2015-10-10T13:24:08Z</time>
      </trkpt>
      <trkpt lat="47.71586" lon="-3.36442">
        <ele>-3.23</ele>
        <time>2015-10-10T13:24:09Z</time>
      </trkpt>
      <trkpt lat="47.71584" lon="-3.36442">
        <ele>-3.23</ele>
        <time>2015-10-10T13:24:10Z</time>
      </trkpt>
      <trkpt lat="47.71581" lon="-3.36443">
        <ele>-3.23</ele>
        <time>2015-10-10T13:24:11Z</time>
      </trkpt>
      <trkpt lat="47.71579" lon="-3.36443">
        <ele>-3.23</ele>
        <time>2015-10-10T13:24:12Z</time>
      </trkpt>
      <trkpt lat="47.71577" lon="-3.36444">
        <ele>-3.23</ele>
        <time>2015-10-10T13:24:13Z</time>
      </trkpt>
      <trkpt lat="47.71575" lon="-3.36444">
        <ele>-3.23</ele>
        <time>2015-10-10T13:24:14Z</time>
      </trkpt>
      <trkpt lat="47.71572" lon="-3.36444">
        <ele>-3.23</ele>
        <time>2015-10-10T13:24:15Z</time>
      </trkpt>
      <trkpt lat="47.7157" lon="-3.36445">
        <ele>-3.23</ele>
        <time>2015-10-10T13:24:16Z</time>
      </trkpt>
      <trkpt lat="47.71568" lon="-3.36445">
        <ele>-3.23</ele>
        <time>2015-10-10T13:24:17Z</time>
      </trkpt>
      <trkpt lat="47.71566" lon="-3.36446">
        <ele>-3.23</ele>
        <time>2015-10-10T13:24:18Z</time>
      </trkpt>
      <trkpt lat="47.71564" lon="-3.36446">
        <ele>-3.23</ele>
        <time>2015-10-10T13:24:19Z</time>
      </trkpt>
      <trkpt lat="47.71562" lon="-3.36447">
        <ele>-3.23</ele>
        <time>2015-10-10T13:24:20Z</time>
      </trkpt>
      <trkpt lat="47.7156" lon="-3.36447">
        <ele>-3.23</ele>
        <time>2015-10-10T13:24:21Z</time>
      </trkpt>
      <trkpt lat="47.71558" lon="-3.36448">
        <ele>-3.23</ele>
        <time>2015-10-10T13:24:22Z</time>
      </trkpt>
      <trkpt lat="47.71556" lon="-3.36448">
        <ele>-3.23</ele>
        <time>2015-10-10T13:24:23Z</time>
      </trkpt>
      <trkpt lat="47.71554" lon="-3.36449">
        <ele>-3.23</ele>
        <time>2015-10-10T13:24:24Z</time>
      </trkpt>
      <trkpt lat="47.71552" lon="-3.36449">
        <ele>-3.23</ele>
        <time>2015-10-10T13:24:25Z</time>
      </trkpt>
      <trkpt lat="47.7155" lon="-3.3645">
        <ele>-3.23</ele>
        <time>2015-10-10T13:24:26Z</time>
      </trkpt>
      <trkpt lat="47.71548" lon="-3.3645">
        <ele>-3.23</ele>
        <time>2015-10-10T13:24:27Z</time>
      </trkpt>
      <trkpt lat="47.71546" lon="-3.36451">
        <ele>-3.23</ele>
        <time>2015-10-10T13:24:28Z</time>
      </trkpt>
      <trkpt lat="47.71544" lon="-3.36451">
        <ele>-3.23</ele>
        <time>2015-10-10T13:24:29Z</time>
      </trkpt>
      <trkpt lat="47.71542" lon="-3.36452">
        <ele>-3.23</ele>
        <time>2015-10-10T13:24:30Z</time>
      </trkpt>
      <trkpt lat="47.7154" lon="-3.36453">
        <ele>-3.23</ele>
        <time>2015-10-10T13:24:31Z</time>
      </trkpt>
      <trkpt lat="47.71538" lon="-3.36453">
        <ele>-3.23</ele>
        <time>2015-10-10T13:24:32Z</time>
      </trkpt>
      <trkpt lat="47.71536" lon="-3.36454">
        <ele>-3.23</ele>
        <time>2015-10-10T13:24:33Z</time>
      </trkpt>
      <trkpt lat="47.71534" lon="-3.36454">
        <ele>-3.23</ele>
        <time>2015-10-10T13:24:34Z</time>
      </trkpt>
      <trkpt lat="47.71532" lon="-3.36455">
        <ele>-3.23</ele>
        <time>2015-10-10T13:24:35Z</time>
      </trkpt>
      <trkpt lat="47.7153" lon="-3.36455">
        <ele>-3.23</ele>
        <time>2015-10-10T13:24:36Z</time>
      </trkpt>
      <trkpt lat="47.71527" lon="-3.36456">
        <ele>-3.23</ele>
        <time>2015-10-10T13:24:37Z</time>
      </trkpt>
      <trkpt lat="47.71525" lon="-3.36457">
        <ele>-3.23</ele>
        <time>2015-10-10T13:24:38Z</time>
      </trkpt>
      <trkpt lat="47.71523" lon="-3.36457">
        <ele>-3.23</ele>
        <time>2015-10-10T13:24:39Z</time>
      </trkpt>
      <trkpt lat="47.71521" lon="-3.36458">
        <ele>-3.23</ele>
        <time>2015-10-10T13:24:40Z</time>
      </trkpt>
      <trkpt lat="47.71518" lon="-3.36459">
        <ele>-3.23</ele>
        <time>2015-10-10T13:24:41Z</time>
      </trkpt>
      <trkpt lat="47.71516" lon="-3.36459">
        <ele>-3.23</ele>
        <time>2015-10-10T13:24:42Z</time>
      </trkpt>
      <trkpt lat="47.71513" lon="-3.3646">
        <ele>-3.23</ele>
        <time>2015-10-10T13:24:43Z</time>
      </trkpt>
      <trkpt lat="47.71511" lon="-3.3646">
        <ele>-3.23</ele>
        <time>2015-10-10T13:24:44Z</time>
      </trkpt>
      <trkpt lat="47.71509" lon="-3.36461">
        <ele>-3.23</ele>
        <time>2015-10-10T13:24:45Z</time>
      </trkpt>
      <trkpt lat="47.71507" lon="-3.36462">
        <ele>-3.23</ele>
        <time>2015-10-10T13:24:46Z</time>
      </trkpt>
      <trkpt lat="47.71504" lon="-3.36463">
        <ele>-3.23</ele>
        <time>2015-10-10T13:24:47Z</time>
      </trkpt>
      <trkpt lat="47.71502" lon="-3.36463">
        <ele>-3.23</ele>
        <time>2015-10-10T13:24:48Z</time>
      </trkpt>
      <trkpt lat="47.71499" lon="-3.36464">
        <ele>-3.23</ele>
        <time>2015-10-10T13:24:49Z</time>
      </trkpt>
      <trkpt lat="47.71497" lon="-3.36465">
        <ele>-3.23</ele>
        <time>2015-10-10T13:24:50Z</time>
      </trkpt>
      <trkpt lat="47.71495" lon="-3.36465">
        <ele>-3.23</ele>
        <time>2015-10-10T13:24:51Z</time>
      </trkpt>
      <trkpt lat="47.71492" lon="-3.36466">
        <ele>-3.23</ele>
        <time>2015-10-10T13:24:52Z</time>
      </trkpt>
      <trkpt lat="47.7149" lon="-3.36467">
        <ele>-3.23</ele>
        <time>2015-10-10T13:24:53Z</time>
      </trkpt>
      <trkpt lat="47.71488" lon="-3.36468">
        <ele>-3.23</ele>
        <time>2015-10-10T13:24:54Z</time>
      </trkpt>
      <trkpt lat="47.71485" lon="-3.36469">
        <ele>-3.23</ele>
        <time>2015-10-10T13:24:55Z</time>
      </trkpt>
      <trkpt lat="47.71483" lon="-3.3647">
        <ele>-3.23</ele>
        <time>2015-10-10T13:24:56Z</time>
      </trkpt>
      <trkpt lat="47.71481" lon="-3.36471">
        <ele>-3.23</ele>
        <time>2015-10-10T13:24:57Z</time>
      </trkpt>
      <trkpt lat="47.71479" lon="-3.36471">
        <ele>-3.23</ele>
        <time>2015-10-10T13:24:58Z</time>
      </trkpt>
      <trkpt lat="47.71476" lon="-3.36472">
        <ele>-3.23</ele>
        <time>2015-10-10T13:24:59Z</time>
      </trkpt>
      <trkpt lat="47.71474" lon="-3.36472">
        <ele>-3.23</ele>
        <time>2015-10-10T13:25:00Z</time>
      </trkpt>
      <trkpt lat="47.71471" lon="-3.36473">
        <ele>-3.23</ele>
        <time>2015-10-10T13:25:01Z</time>
      </trkpt>
      <trkpt lat="47.71469" lon="-3.36474">
        <ele>-3.23</ele>
        <time>2015-10-10T13:25:02Z</time>
      </trkpt>
      <trkpt lat="47.71467" lon="-3.36474">
        <ele>-3.23</ele>
        <time>2015-10-10T13:25:03Z</time>
      </trkpt>
      <trkpt lat="47.71464" lon="-3.36475">
        <ele>-3.23</ele>
        <time>2015-10-10T13:25:04Z</time>
      </trkpt>
      <trkpt lat="47.71462" lon="-3.36475">
        <ele>-3.23</ele>
        <time>2015-10-10T13:25:05Z</time>
      </trkpt>
      <trkpt lat="47.7146" lon="-3.36476">
        <ele>-3.23</ele>
        <time>2015-10-10T13:25:06Z</time>
      </trkpt>
      <trkpt lat="47.71457" lon="-3.36477">
        <ele>-3.23</ele>
        <time>2015-10-10T13:25:07Z</time>
      </trkpt>
      <trkpt lat="47.71455" lon="-3.36478">
        <ele>-3.23</ele>
        <time>2015-10-10T13:25:08Z</time>
      </trkpt>
      <trkpt lat="47.71453" lon="-3.36479">
        <ele>-3.23</ele>
        <time>2015-10-10T13:25:09Z</time>
      </trkpt>
      <trkpt lat="47.71451" lon="-3.3648">
        <ele>-3.23</ele>
        <time>2015-10-10T13:25:10Z</time>
      </trkpt>
      <trkpt lat="47.71448" lon="-3.36481">
        <ele>-3.23</ele>
        <time>2015-10-10T13:25:11Z</time>
      </trkpt>
      <trkpt lat="47.71446" lon="-3.36481">
        <ele>-3.23</ele>
        <time>2015-10-10T13:25:12Z</time>
      </trkpt>
      <trkpt lat="47.71444" lon="-3.36482">
        <ele>-3.23</ele>
        <time>2015-10-10T13:25:13Z</time>
      </trkpt>
      <trkpt lat="47.71442" lon="-3.36483">
        <ele>-3.23</ele>
        <time>2015-10-10T13:25:14Z</time>
      </trkpt>
      <trkpt lat="47.71439" lon="-3.36483">
        <ele>-3.23</ele>
        <time>2015-10-10T13:25:15Z</time>
      </trkpt>
      <trkpt lat="47.71437" lon="-3.36484">
        <ele>-3.23</ele>
        <time>2015-10-10T13:25:16Z</time>
      </trkpt>
      <trkpt lat="47.71435" lon="-3.36485">
        <ele>-3.23</ele>
        <time>2015-10-10T13:25:17Z</time>
      </trkpt>
      <trkpt lat="47.71433" lon="-3.36485">
        <ele>-3.23</ele>
        <time>2015-10-10T13:25:18Z</time>
      </trkpt>
      <trkpt lat="47.7143" lon="-3.36486">
        <ele>-3.23</ele>
        <time>2015-10-10T13:25:19Z</time>
      </trkpt>
      <trkpt lat="47.71428" lon="-3.36487">
        <ele>-3.23</ele>
        <time>2015-10-10T13:25:20Z</time>
      </trkpt>
      <trkpt lat="47.71426" lon="-3.36488">
        <ele>-3.23</ele>
        <time>2015-10-10T13:25:21Z</time>
      </trkpt>
      <trkpt lat="47.71424" lon="-3.36488">
        <ele>-3.23</ele>
        <time>2015-10-10T13:25:22Z</time>
      </trkpt>
      <trkpt lat="47.71421" lon="-3.36489">
        <ele>-3.23</ele>
        <time>2015-10-10T13:25:23Z</time>
      </trkpt>
      <trkpt lat="47.71419" lon="-3.3649">
        <ele>-3.23</ele>
        <time>2015-10-10T13:25:24Z</time>
      </trkpt>
      <trkpt lat="47.71417" lon="-3.36491">
        <ele>-3.23</ele>
        <time>2015-10-10T13:25:25Z</time>
      </trkpt>
      <trkpt lat="47.71415" lon="-3.36492">
        <ele>-3.23</ele>
        <time>2015-10-10T13:25:26Z</time>
      </trkpt>
      <trkpt lat="47.71412" lon="-3.36493">
        <ele>-3.23</ele>
        <time>2015-10-10T13:25:27Z</time>
      </trkpt>
      <trkpt lat="47.7141" lon="-3.36494">
        <ele>-3.23</ele>
        <time>2015-10-10T13:25:28Z</time>
      </trkpt>
      <trkpt lat="47.71408" lon="-3.36495">
        <ele>-3.23</ele>
        <time>2015-10-10T13:25:29Z</time>
      </trkpt>
      <trkpt lat="47.71406" lon="-3.36497">
        <ele>-3.23</ele>
        <time>2015-10-10T13:25:30Z</time>
      </trkpt>
      <trkpt lat="47.71404" lon="-3.36498">
        <ele>-3.23</ele>
        <time>2015-10-10T13:25:31Z</time>
      </trkpt>
      <trkpt lat="47.71402" lon="-3.36499">
        <ele>-3.23</ele>
        <time>2015-10-10T13:25:32Z</time>
      </trkpt>
      <trkpt lat="47.714" lon="-3.365">
        <ele>-3.23</ele>
        <time>2015-10-10T13:25:33Z</time>
      </trkpt>
      <trkpt lat="47.71398" lon="-3.36501">
        <ele>-3.23</ele>
        <time>2015-10-10T13:25:34Z</time>
      </trkpt>
      <trkpt lat="47.71396" lon="-3.36502">
        <ele>-3.23</ele>
        <time>2015-10-10T13:25:35Z</time>
      </trkpt>
      <trkpt lat="47.71394" lon="-3.36503">
        <ele>-3.23</ele>
        <time>2015-10-10T13:25:36Z</time>
      </trkpt>
      <trkpt lat="47.71392" lon="-3.36505">
        <ele>-3.23</ele>
        <time>2015-10-10T13:25:37Z</time>
      </trkpt>
      <trkpt lat="47.71389" lon="-3.36506">
        <ele>-3.23</ele>
        <time>2015-10-10T13:25:38Z</time>
      </trkpt>
      <trkpt lat="47.71387" lon="-3.36507">
        <ele>-3.23</ele>
        <time>2015-10-10T13:25:39Z</time>
      </trkpt>
      <trkpt lat="47.71385" lon="-3.36508">
        <ele>-3.23</ele>
        <time>2015-10-10T13:25:40Z</time>
      </trkpt>
      <trkpt lat="47.71383" lon="-3.36509">
        <ele>-3.23</ele>
        <time>2015-10-10T13:25:41Z</time>
      </trkpt>
      <trkpt lat="47.71381" lon="-3.36511">
        <ele>-3.23</ele>
        <time>2015-10-10T13:25:42Z</time>
      </trkpt>
      <trkpt lat="47.71378" lon="-3.36512">
        <ele>-3.23</ele>
        <time>2015-10-10T13:25:43Z</time>
      </trkpt>
      <trkpt lat="47.71376" lon="-3.36513">
        <ele>-3.23</ele>
        <time>2015-10-10T13:25:44Z</time>
      </trkpt>
      <trkpt lat="47.71374" lon="-3.36514">
        <ele>-3.23</ele>
        <time>2015-10-10T13:25:45Z</time>
      </trkpt>
      <trkpt lat="47.71372" lon="-3.36515">
        <ele>-3.23</ele>
        <time>2015-10-10T13:25:46Z</time>
      </trkpt>
      <trkpt lat="47.7137" lon="-3.36517">
        <ele>-3.23</ele>
        <time>2015-10-10T13:25:47Z</time>
      </trkpt>
      <trkpt lat="47.71368" lon="-3.36518">
        <ele>-3.23</ele>
        <time>2015-10-10T13:25:48Z</time>
      </trkpt>
      <trkpt lat="47.71366" lon="-3.36519">
        <ele>-3.23</ele>
        <time>2015-10-10T13:25:49Z</time>
      </trkpt>
      <trkpt lat="47.71363" lon="-3.3652">
        <ele>-3.23</ele>
        <time>2015-10-10T13:25:50Z</time>
      </trkpt>
      <trkpt lat="47.71361" lon="-3.36521">
        <ele>-3.23</ele>
        <time>2015-10-10T13:25:51Z</time>
      </trkpt>
      <trkpt lat="47.71359" lon="-3.36523">
        <ele>-3.23</ele>
        <time>2015-10-10T13:25:52Z</time>
      </trkpt>
      <trkpt lat="47.71357" lon="-3.36524">
        <ele>-3.23</ele>
        <time>2015-10-10T13:25:53Z</time>
      </trkpt>
      <trkpt lat="47.71355" lon="-3.36525">
        <ele>-3.23</ele>
        <time>2015-10-10T13:25:54Z</time>
      </trkpt>
      <trkpt lat="47.71353" lon="-3.36527">
        <ele>-3.23</ele>
        <time>2015-10-10T13:25:55Z</time>
      </trkpt>
      <trkpt lat="47.71351" lon="-3.36528">
        <ele>-3.23</ele>
        <time>2015-10-10T13:25:56Z</time>
      </trkpt>
      <trkpt lat="47.71349" lon="-3.3653">
        <ele>-3.23</ele>
        <time>2015-10-10T13:25:57Z</time>
      </trkpt>
      <trkpt lat="47.71347" lon="-3.36532">
        <ele>-3.23</ele>
        <time>2015-10-10T13:25:58Z</time>
      </trkpt>
      <trkpt lat="47.71345" lon="-3.36533">
        <ele>-3.23</ele>
        <time>2015-10-10T13:25:59Z</time>
      </trkpt>
      <trkpt lat="47.71343" lon="-3.36535">
        <ele>-3.23</ele>
        <time>2015-10-10T13:26:00Z</time>
      </trkpt>
      <trkpt lat="47.7134" lon="-3.36536">
        <ele>-3.23</ele>
        <time>2015-10-10T13:26:01Z</time>
      </trkpt>
      <trkpt lat="47.71338" lon="-3.36537">
        <ele>-3.23</ele>
        <time>2015-10-10T13:26:02Z</time>
      </trkpt>
      <trkpt lat="47.71336" lon="-3.36539">
        <ele>-3.23</ele>
        <time>2015-10-10T13:26:03Z</time>
      </trkpt>
      <trkpt lat="47.71333" lon="-3.3654">
        <ele>-3.23</ele>
        <time>2015-10-10T13:26:04Z</time>
      </trkpt>
      <trkpt lat="47.71331" lon="-3.36541">
        <ele>-3.23</ele>
        <time>2015-10-10T13:26:05Z</time>
      </trkpt>
      <trkpt lat="47.71329" lon="-3.36543">
        <ele>-3.23</ele>
        <time>2015-10-10T13:26:06Z</time>
      </trkpt>
      <trkpt lat="47.71326" lon="-3.36544">
        <ele>-3.23</ele>
        <time>2015-10-10T13:26:07Z</time>
      </trkpt>
      <trkpt lat="47.71324" lon="-3.36545">
        <ele>-3.23</ele>
        <time>2015-10-10T13:26:08Z</time>
      </trkpt>
      <trkpt lat="47.71321" lon="-3.36547">
        <ele>-3.23</ele>
        <time>2015-10-10T13:26:09Z</time>
      </trkpt>
      <trkpt lat="47.71319" lon="-3.36548">
        <ele>-3.23</ele>
        <time>2015-10-10T13:26:10Z</time>
      </trkpt>
      <trkpt lat="47.71317" lon="-3.36549">
        <ele>-3.23</ele>
        <time>2015-10-10T13:26:11Z</time>
      </trkpt>
      <trkpt lat="47.71315" lon="-3.3655">
        <ele>-3.23</ele>
        <time>2015-10-10T13:26:12Z</time>
      </trkpt>
      <trkpt lat="47.71312" lon="-3.36551">
        <ele>-3.23</ele>
        <time>2015-10-10T13:26:13Z</time>
      </trkpt>
      <trkpt lat="47.7131" lon="-3.36552">
        <ele>-3.23</ele>
        <time>2015-10-10T13:26:14Z</time>
      </trkpt>
      <trkpt lat="47.71307" lon="-3.36553">
        <ele>-3.23</ele>
        <time>2015-10-10T13:26:15Z</time>
      </trkpt>
      <trkpt lat="47.71305" lon="-3.36554">
        <ele>-3.23</ele>
        <time>2015-10-10T13:26:16Z</time>
      </trkpt>
      <trkpt lat="47.71302" lon="-3.36555">
        <ele>-3.23</ele>
        <time>2015-10-10T13:26:17Z</time>
      </trkpt>
      <trkpt lat="47.713" lon="-3.36556">
        <ele>-3.23</ele>
        <time>2015-10-10T13:26:18Z</time>
      </trkpt>
      <trkpt lat="47.71298" lon="-3.36556">
        <ele>-3.23</ele>
        <time>2015-10-10T13:26:19Z</time>
      </trkpt>
      <trkpt lat="47.71295" lon="-3.36556">
        <ele>-3.23</ele>
        <time>2015-10-10T13:26:20Z</time>
      </trkpt>
      <trkpt lat="47.71293" lon="-3.36557">
        <ele>-3.23</ele>
        <time>2015-10-10T13:26:21Z</time>
      </trkpt>
      <trkpt lat="47.7129" lon="-3.36557">
        <ele>-3.23</ele>
        <time>2015-10-10T13:26:22Z</time>
      </trkpt>
      <trkpt lat="47.71287" lon="-3.36557">
        <ele>-3.23</ele>
        <time>2015-10-10T13:26:23Z</time>
      </trkpt>
      <trkpt lat="47.71285" lon="-3.36558">
        <ele>-3.23</ele>
        <time>2015-10-10T13:26:24Z</time>
      </trkpt>
      <trkpt lat="47.71282" lon="-3.36559">
        <ele>-3.23</ele>
        <time>2015-10-10T13:26:25Z</time>
      </trkpt>
      <trkpt lat="47.7128" lon="-3.36559">
        <ele>-3.23</ele>
        <time>2015-10-10T13:26:26Z</time>
      </trkpt>
      <trkpt lat="47.71277" lon="-3.3656">
        <ele>-3.23</ele>
        <time>2015-10-10T13:26:27Z</time>
      </trkpt>
      <trkpt lat="47.71275" lon="-3.36561">
        <ele>-3.23</ele>
        <time>2015-10-10T13:26:28Z</time>
      </trkpt>
      <trkpt lat="47.71272" lon="-3.36561">
        <ele>-3.23</ele>
        <time>2015-10-10T13:26:29Z</time>
      </trkpt>
      <trkpt lat="47.7127" lon="-3.36562">
        <ele>-3.23</ele>
        <time>2015-10-10T13:26:30Z</time>
      </trkpt>
      <trkpt lat="47.71267" lon="-3.36562">
        <ele>-3.23</ele>
        <time>2015-10-10T13:26:31Z</time>
      </trkpt>
      <trkpt lat="47.71264" lon="-3.36563">
        <ele>-3.23</ele>
        <time>2015-10-10T13:26:32Z</time>
      </trkpt>
      <trkpt lat="47.71262" lon="-3.36564">
        <ele>-3.23</ele>
        <time>2015-10-10T13:26:33Z</time>
      </trkpt>
      <trkpt lat="47.71259" lon="-3.36564">
        <ele>-3.23</ele>
        <time>2015-10-10T13:26:34Z</time>
      </trkpt>
      <trkpt lat="47.71257" lon="-3.36564">
        <ele>-3.23</ele>
        <time>2015-10-10T13:26:35Z</time>
      </trkpt>
      <trkpt lat="47.71254" lon="-3.36565">
        <ele>-3.23</ele>
        <time>2015-10-10T13:26:36Z</time>
      </trkpt>
      <trkpt lat="47.71252" lon="-3.36565">
        <ele>-3.23</ele>
        <time>2015-10-10T13:26:37Z</time>
      </trkpt>
      <trkpt lat="47.71249" lon="-3.36566">
        <ele>-3.23</ele>
        <time>2015-10-10T13:26:38Z</time>
      </trkpt>
      <trkpt lat="47.71247" lon="-3.36566">
        <ele>-3.23</ele>
        <time>2015-10-10T13:26:39Z</time>
      </trkpt>
      <trkpt lat="47.71244" lon="-3.36566">
        <ele>-3.23</ele>
        <time>2015-10-10T13:26:40Z</time>
      </trkpt>
      <trkpt lat="47.71242" lon="-3.36567">
        <ele>-3.23</ele>
        <time>2015-10-10T13:26:41Z</time>
      </trkpt>
      <trkpt lat="47.71239" lon="-3.36568">
        <ele>-3.23</ele>
        <time>2015-10-10T13:26:42Z</time>
      </trkpt>
      <trkpt lat="47.71237" lon="-3.36569">
        <ele>-3.23</ele>
        <time>2015-10-10T13:26:43Z</time>
      </trkpt>
      <trkpt lat="47.71234" lon="-3.36569">
        <ele>-3.23</ele>
        <time>2015-10-10T13:26:44Z</time>
      </trkpt>
      <trkpt lat="47.71232" lon="-3.3657">
        <ele>-3.23</ele>
        <time>2015-10-10T13:26:45Z</time>
      </trkpt>
      <trkpt lat="47.71229" lon="-3.36571">
        <ele>-3.23</ele>
        <time>2015-10-10T13:26:46Z</time>
      </trkpt>
      <trkpt lat="47.71227" lon="-3.36571">
        <ele>-3.23</ele>
        <time>2015-10-10T13:26:47Z</time>
      </trkpt>
      <trkpt lat="47.71224" lon="-3.36572">
        <ele>-3.23</ele>
        <time>2015-10-10T13:26:48Z</time>
      </trkpt>
      <trkpt lat="47.71222" lon="-3.36573">
        <ele>-3.23</ele>
        <time>2015-10-10T13:26:49Z</time>
      </trkpt>
      <trkpt lat="47.71219" lon="-3.36574">
        <ele>-3.23</ele>
        <time>2015-10-10T13:26:50Z</time>
      </trkpt>
      <trkpt lat="47.71217" lon="-3.36575">
        <ele>-3.23</ele>
        <time>2015-10-10T13:26:51Z</time>
      </trkpt>
      <trkpt lat="47.71214" lon="-3.36576">
        <ele>-3.23</ele>
        <time>2015-10-10T13:26:52Z</time>
      </trkpt>
      <trkpt lat="47.71212" lon="-3.36577">
        <ele>-3.23</ele>
        <time>2015-10-10T13:26:53Z</time>
      </trkpt>
      <trkpt lat="47.7121" lon="-3.36577">
        <ele>-3.23</ele>
        <time>2015-10-10T13:26:54Z</time>
      </trkpt>
      <trkpt lat="47.71208" lon="-3.36578">
        <ele>-3.23</ele>
        <time>2015-10-10T13:26:55Z</time>
      </trkpt>
      <trkpt lat="47.71205" lon="-3.36579">
        <ele>-3.23</ele>
        <time>2015-10-10T13:26:56Z</time>
      </trkpt>
      <trkpt lat="47.71203" lon="-3.36581">
        <ele>-3.23</ele>
        <time>2015-10-10T13:26:57Z</time>
      </trkpt>
      <trkpt lat="47.71201" lon="-3.36582">
        <ele>-3.23</ele>
        <time>2015-10-10T13:26:58Z</time>
      </trkpt>
      <trkpt lat="47.71199" lon="-3.36583">
        <ele>-3.23</ele>
        <time>2015-10-10T13:26:59Z</time>
      </trkpt>
      <trkpt lat="47.71197" lon="-3.36584">
        <ele>-3.23</ele>
        <time>2015-10-10T13:27:00Z</time>
      </trkpt>
      <trkpt lat="47.71194" lon="-3.36585">
        <ele>-3.23</ele>
        <time>2015-10-10T13:27:01Z</time>
      </trkpt>
      <trkpt lat="47.71192" lon="-3.36586">
        <ele>-3.23</ele>
        <time>2015-10-10T13:27:02Z</time>
      </trkpt>
      <trkpt lat="47.7119" lon="-3.36587">
        <ele>-3.23</ele>
        <time>2015-10-10T13:27:03Z</time>
      </trkpt>
      <trkpt lat="47.71188" lon="-3.36588">
        <ele>-3.23</ele>
        <time>2015-10-10T13:27:04Z</time>
      </trkpt>
      <trkpt lat="47.71186" lon="-3.36588">
        <ele>-3.23</ele>
        <time>2015-10-10T13:27:05Z</time>
      </trkpt>
      <trkpt lat="47.71184" lon="-3.36589">
        <ele>-3.23</ele>
        <time>2015-10-10T13:27:06Z</time>
      </trkpt>
      <trkpt lat="47.71181" lon="-3.3659">
        <ele>-3.23</ele>
        <time>2015-10-10T13:27:07Z</time>
      </trkpt>
      <trkpt lat="47.71179" lon="-3.36591">
        <ele>-3.23</ele>
        <time>2015-10-10T13:27:08Z</time>
      </trkpt>
      <trkpt lat="47.71177" lon="-3.36591">
        <ele>-3.23</ele>
        <time>2015-10-10T13:27:09Z</time>
      </trkpt>
      <trkpt lat="47.71175" lon="-3.36592">
        <ele>-3.23</ele>
        <time>2015-10-10T13:27:10Z</time>
      </trkpt>
      <trkpt lat="47.71173" lon="-3.36593">
        <ele>-3.23</ele>
        <time>2015-10-10T13:27:11Z</time>
      </trkpt>
      <trkpt lat="47.71171" lon="-3.36594">
        <ele>-3.23</ele>
        <time>2015-10-10T13:27:12Z</time>
      </trkpt>
      <trkpt lat="47.71169" lon="-3.36595">
        <ele>-3.23</ele>
        <time>2015-10-10T13:27:13Z</time>
      </trkpt>
      <trkpt lat="47.71167" lon="-3.36596">
        <ele>-3.23</ele>
        <time>2015-10-10T13:27:14Z</time>
      </trkpt>
      <trkpt lat="47.71165" lon="-3.36597">
        <ele>-3.23</ele>
        <time>2015-10-10T13:27:15Z</time>
      </trkpt>
      <trkpt lat="47.71163" lon="-3.36598">
        <ele>-3.23</ele>
        <time>2015-10-10T13:27:16Z</time>
      </trkpt>
      <trkpt lat="47.71161" lon="-3.36598">
        <ele>-3.23</ele>
        <time>2015-10-10T13:27:17Z</time>
      </trkpt>
      <trkpt lat="47.71159" lon="-3.36599">
        <ele>-3.23</ele>
        <time>2015-10-10T13:27:18Z</time>
      </trkpt>
      <trkpt lat="47.71157" lon="-3.36599">
        <ele>-3.23</ele>
        <time>2015-10-10T13:27:19Z</time>
      </trkpt>
      <trkpt lat="47.71154" lon="-3.366">
        <ele>-3.23</ele>
        <time>2015-10-10T13:27:20Z</time>
      </trkpt>
      <trkpt lat="47.71152" lon="-3.36601">
        <ele>-3.23</ele>
        <time>2015-10-10T13:27:21Z</time>
      </trkpt>
      <trkpt lat="47.7115" lon="-3.36601">
        <ele>-3.23</ele>
        <time>2015-10-10T13:27:22Z</time>
      </trkpt>
      <trkpt lat="47.71148" lon="-3.36602">
        <ele>-3.23</ele>
        <time>2015-10-10T13:27:23Z</time>
      </trkpt>
      <trkpt lat="47.71146" lon="-3.36603">
        <ele>-3.23</ele>
        <time>2015-10-10T13:27:24Z</time>
      </trkpt>
      <trkpt lat="47.71143" lon="-3.36603">
        <ele>-3.23</ele>
        <time>2015-10-10T13:27:25Z</time>
      </trkpt>
      <trkpt lat="47.71141" lon="-3.36604">
        <ele>-3.23</ele>
        <time>2015-10-10T13:27:26Z</time>
      </trkpt>
      <trkpt lat="47.71139" lon="-3.36605">
        <ele>-3.23</ele>
        <time>2015-10-10T13:27:27Z</time>
      </trkpt>
      <trkpt lat="47.71137" lon="-3.36606">
        <ele>-3.23</ele>
        <time>2015-10-10T13:27:28Z</time>
      </trkpt>
      <trkpt lat="47.71135" lon="-3.36607">
        <ele>-3.23</ele>
        <time>2015-10-10T13:27:29Z</time>
      </trkpt>
      <trkpt lat="47.71133" lon="-3.36608">
        <ele>-3.23</ele>
        <time>2015-10-10T13:27:30Z</time>
      </trkpt>
      <trkpt lat="47.71131" lon="-3.36609">
        <ele>-3.23</ele>
        <time>2015-10-10T13:27:31Z</time>
      </trkpt>
      <trkpt lat="47.71129" lon="-3.36609">
        <ele>-3.23</ele>
        <time>2015-10-10T13:27:32Z</time>
      </trkpt>
      <trkpt lat="47.71127" lon="-3.3661">
        <ele>-3.23</ele>
        <time>2015-10-10T13:27:33Z</time>
      </trkpt>
      <trkpt lat="47.71125" lon="-3.36611">
        <ele>-3.23</ele>
        <time>2015-10-10T13:27:34Z</time>
      </trkpt>
      <trkpt lat="47.71123" lon="-3.36611">
        <ele>-3.23</ele>
        <time>2015-10-10T13:27:35Z</time>
      </trkpt>
      <trkpt lat="47.71122" lon="-3.36612">
        <ele>-3.23</ele>
        <time>2015-10-10T13:27:36Z</time>
      </trkpt>
      <trkpt lat="47.7112" lon="-3.36614">
        <ele>-3.23</ele>
        <time>2015-10-10T13:27:37Z</time>
      </trkpt>
      <trkpt lat="47.71118" lon="-3.36615">
        <ele>-3.23</ele>
        <time>2015-10-10T13:27:38Z</time>
      </trkpt>
      <trkpt lat="47.71117" lon="-3.36615">
        <ele>-3.23</ele>
        <time>2015-10-10T13:27:39Z</time>
      </trkpt>
      <trkpt lat="47.71115" lon="-3.36616">
        <ele>-3.23</ele>
        <time>2015-10-10T13:27:40Z</time>
      </trkpt>
      <trkpt lat="47.71113" lon="-3.36617">
        <ele>-3.23</ele>
        <time>2015-10-10T13:27:41Z</time>
      </trkpt>
      <trkpt lat="47.71111" lon="-3.36617">
        <ele>-3.23</ele>
        <time>2015-10-10T13:27:42Z</time>
      </trkpt>
      <trkpt lat="47.71109" lon="-3.36618">
        <ele>-3.23</ele>
        <time>2015-10-10T13:27:43Z</time>
      </trkpt>
      <trkpt lat="47.71107" lon="-3.36618">
        <ele>-3.23</ele>
        <time>2015-10-10T13:27:44Z</time>
      </trkpt>
      <trkpt lat="47.71105" lon="-3.36619">
        <ele>-3.23</ele>
        <time>2015-10-10T13:27:45Z</time>
      </trkpt>
      <trkpt lat="47.71103" lon="-3.36619">
        <ele>-3.23</ele>
        <time>2015-10-10T13:27:46Z</time>
      </trkpt>
      <trkpt lat="47.71101" lon="-3.3662">
        <ele>-3.23</ele>
        <time>2015-10-10T13:27:47Z</time>
      </trkpt>
      <trkpt lat="47.711" lon="-3.3662">
        <ele>-3.23</ele>
        <time>2015-10-10T13:27:48Z</time>
      </trkpt>
      <trkpt lat="47.71098" lon="-3.36621">
        <ele>-3.23</ele>
        <time>2015-10-10T13:27:49Z</time>
      </trkpt>
      <trkpt lat="47.71097" lon="-3.36621">
        <ele>-3.23</ele>
        <time>2015-10-10T13:27:50Z</time>
      </trkpt>
      <trkpt lat="47.71095" lon="-3.36622">
        <ele>-3.23</ele>
        <time>2015-10-10T13:27:51Z</time>
      </trkpt>
      <trkpt lat="47.71094" lon="-3.36623">
        <ele>-3.23</ele>
        <time>2015-10-10T13:27:52Z</time>
      </trkpt>
      <trkpt lat="47.71092" lon="-3.36624">
        <ele>-3.23</ele>
        <time>2015-10-10T13:27:53Z</time>
      </trkpt>
      <trkpt lat="47.71091" lon="-3.36624">
        <ele>-3.23</ele>
        <time>2015-10-10T13:27:54Z</time>
      </trkpt>
      <trkpt lat="47.71089" lon="-3.36625">
        <ele>-3.23</ele>
        <time>2015-10-10T13:27:55Z</time>
      </trkpt>
      <trkpt lat="47.71087" lon="-3.36626">
        <ele>-3.23</ele>
        <time>2015-10-10T13:27:56Z</time>
      </trkpt>
      <trkpt lat="47.71086" lon="-3.36627">
        <ele>-3.23</ele>
        <time>2015-10-10T13:27:57Z</time>
      </trkpt>
      <trkpt lat="47.71084" lon="-3.36628">
        <ele>-3.23</ele>
        <time>2015-10-10T13:27:58Z</time>
      </trkpt>
      <trkpt lat="47.71082" lon="-3.36629">
        <ele>-3.23</ele>
        <time>2015-10-10T13:27:59Z</time>
      </trkpt>
      <trkpt lat="47.71081" lon="-3.3663">
        <ele>-3.23</ele>
        <time>2015-10-10T13:28:00Z</time>
      </trkpt>
      <trkpt lat="47.71079" lon="-3.36631">
        <ele>-3.23</ele>
        <time>2015-10-10T13:28:01Z</time>
      </trkpt>
      <trkpt lat="47.71077" lon="-3.36631">
        <ele>-3.23</ele>
        <time>2015-10-10T13:28:02Z</time>
      </trkpt>
      <trkpt lat="47.71075" lon="-3.36632">
        <ele>-3.23</ele>
        <time>2015-10-10T13:28:03Z</time>
      </trkpt>
      <trkpt lat="47.71073" lon="-3.36633">
        <ele>-3.23</ele>
        <time>2015-10-10T13:28:04Z</time>
      </trkpt>
      <trkpt lat="47.71071" lon="-3.36634">
        <ele>-3.23</ele>
        <time>2015-10-10T13:28:05Z</time>
      </trkpt>
      <trkpt lat="47.71069" lon="-3.36635">
        <ele>-3.23</ele>
        <time>2015-10-10T13:28:06Z</time>
      </trkpt>
      <trkpt lat="47.71068" lon="-3.36636">
        <ele>-3.23</ele>
        <time>2015-10-10T13:28:07Z</time>
      </trkpt>
      <trkpt lat="47.71066" lon="-3.36637">
        <ele>-3.23</ele>
        <time>2015-10-10T13:28:08Z</time>
      </trkpt>
      <trkpt lat="47.71064" lon="-3.36638">
        <ele>-3.23</ele>
        <time>2015-10-10T13:28:09Z</time>
      </trkpt>
      <trkpt lat="47.71062" lon="-3.36639">
        <ele>-3.23</ele>
        <time>2015-10-10T13:28:10Z</time>
      </trkpt>
      <trkpt lat="47.71061" lon="-3.36639">
        <ele>-3.23</ele>
        <time>2015-10-10T13:28:11Z</time>
      </trkpt>
      <trkpt lat="47.71059" lon="-3.3664">
        <ele>-3.23</ele>
        <time>2015-10-10T13:28:12Z</time>
      </trkpt>
      <trkpt lat="47.71057" lon="-3.36641">
        <ele>-3.23</ele>
        <time>2015-10-10T13:28:13Z</time>
      </trkpt>
      <trkpt lat="47.71056" lon="-3.36642">
        <ele>-3.23</ele>
        <time>2015-10-10T13:28:14Z</time>
      </trkpt>
      <trkpt lat="47.71055" lon="-3.36643">
        <ele>-3.23</ele>
        <time>2015-10-10T13:28:15Z</time>
      </trkpt>
      <trkpt lat="47.71053" lon="-3.36644">
        <ele>-3.23</ele>
        <time>2015-10-10T13:28:16Z</time>
      </trkpt>
      <trkpt lat="47.71052" lon="-3.36645">
        <ele>-3.23</ele>
        <time>2015-10-10T13:28:17Z</time>
      </trkpt>
      <trkpt lat="47.71051" lon="-3.36645">
        <ele>-3.23</ele>
        <time>2015-10-10T13:28:18Z</time>
      </trkpt>
      <trkpt lat="47.71049" lon="-3.36646">
        <ele>-3.23</ele>
        <time>2015-10-10T13:28:19Z</time>
      </trkpt>
      <trkpt lat="47.71048" lon="-3.36647">
        <ele>-3.23</ele>
        <time>2015-10-10T13:28:20Z</time>
      </trkpt>
      <trkpt lat="47.71047" lon="-3.36648">
        <ele>-3.23</ele>
        <time>2015-10-10T13:28:21Z</time>
      </trkpt>
      <trkpt lat="47.71045" lon="-3.36648">
        <ele>-3.23</ele>
        <time>2015-10-10T13:28:22Z</time>
      </trkpt>
      <trkpt lat="47.71044" lon="-3.36649">
        <ele>-3.23</ele>
        <time>2015-10-10T13:28:23Z</time>
      </trkpt>
      <trkpt lat="47.71043" lon="-3.3665">
        <ele>-3.23</ele>
        <time>2015-10-10T13:28:24Z</time>
      </trkpt>
      <trkpt lat="47.71041" lon="-3.36651">
        <ele>-3.23</ele>
        <time>2015-10-10T13:28:25Z</time>
      </trkpt>
      <trkpt lat="47.7104" lon="-3.36652">
        <ele>-3.23</ele>
        <time>2015-10-10T13:28:26Z</time>
      </trkpt>
      <trkpt lat="47.71039" lon="-3.36653">
        <ele>-3.23</ele>
        <time>2015-10-10T13:28:27Z</time>
      </trkpt>
      <trkpt lat="47.71038" lon="-3.36653">
        <ele>-3.23</ele>
        <time>2015-10-10T13:28:28Z</time>
      </trkpt>
      <trkpt lat="47.71037" lon="-3.36654">
        <ele>-3.23</ele>
        <time>2015-10-10T13:28:29Z</time>
      </trkpt>
      <trkpt lat="47.71036" lon="-3.36655">
        <ele>-3.23</ele>
        <time>2015-10-10T13:28:30Z</time>
      </trkpt>
      <trkpt lat="47.71035" lon="-3.36656">
        <ele>-3.23</ele>
        <time>2015-10-10T13:28:31Z</time>
      </trkpt>
      <trkpt lat="47.71033" lon="-3.36657">
        <ele>-3.23</ele>
        <time>2015-10-10T13:28:32Z</time>
      </trkpt>
      <trkpt lat="47.71032" lon="-3.36657">
        <ele>-3.23</ele>
        <time>2015-10-10T13:28:33Z</time>
      </trkpt>
      <trkpt lat="47.71031" lon="-3.36658">
        <ele>-3.23</ele>
        <time>2015-10-10T13:28:34Z</time>
      </trkpt>
      <trkpt lat="47.71029" lon="-3.36659">
        <ele>-3.23</ele>
        <time>2015-10-10T13:28:35Z</time>
      </trkpt>
      <trkpt lat="47.71028" lon="-3.3666">
        <ele>-3.23</ele>
        <time>2015-10-10T13:28:36Z</time>
      </trkpt>
      <trkpt lat="47.71027" lon="-3.36661">
        <ele>-3.23</ele>
        <time>2015-10-10T13:28:37Z</time>
      </trkpt>
      <trkpt lat="47.71026" lon="-3.36661">
        <ele>-3.23</ele>
        <time>2015-10-10T13:28:38Z</time>
      </trkpt>
      <trkpt lat="47.71024" lon="-3.36662">
        <ele>-3.23</ele>
        <time>2015-10-10T13:28:39Z</time>
      </trkpt>
      <trkpt lat="47.71023" lon="-3.36663">
        <ele>-3.23</ele>
        <time>2015-10-10T13:28:40Z</time>
      </trkpt>
      <trkpt lat="47.71022" lon="-3.36663">
        <ele>-3.23</ele>
        <time>2015-10-10T13:28:41Z</time>
      </trkpt>
      <trkpt lat="47.71021" lon="-3.36664">
        <ele>-3.23</ele>
        <time>2015-10-10T13:28:42Z</time>
      </trkpt>
      <trkpt lat="47.7102" lon="-3.36665">
        <ele>-3.23</ele>
        <time>2015-10-10T13:28:43Z</time>
      </trkpt>
      <trkpt lat="47.71019" lon="-3.36665">
        <ele>-3.23</ele>
        <time>2015-10-10T13:28:44Z</time>
      </trkpt>
      <trkpt lat="47.71017" lon="-3.36666">
        <ele>-3.23</ele>
        <time>2015-10-10T13:28:45Z</time>
      </trkpt>
      <trkpt lat="47.71016" lon="-3.36667">
        <ele>-3.23</ele>
        <time>2015-10-10T13:28:46Z</time>
      </trkpt>
      <trkpt lat="47.71015" lon="-3.36668">
        <ele>-3.23</ele>
        <time>2015-10-10T13:28:47Z</time>
      </trkpt>
      <trkpt lat="47.71014" lon="-3.36669">
        <ele>-3.23</ele>
        <time>2015-10-10T13:28:48Z</time>
      </trkpt>
      <trkpt lat="47.71013" lon="-3.3667">
        <ele>-3.23</ele>
        <time>2015-10-10T13:28:49Z</time>
      </trkpt>
      <trkpt lat="47.71011" lon="-3.36671">
        <ele>-3.23</ele>
        <time>2015-10-10T13:28:50Z</time>
      </trkpt>
      <trkpt lat="47.7101" lon="-3.36671">
        <ele>-3.23</ele>
        <time>2015-10-10T13:28:51Z</time>
      </trkpt>
      <trkpt lat="47.71008" lon="-3.36672">
        <ele>-3.23</ele>
        <time>2015-10-10T13:28:52Z</time>
      </trkpt>
      <trkpt lat="47.71007" lon="-3.36673">
        <ele>-3.23</ele>
        <time>2015-10-10T13:28:53Z</time>
      </trkpt>
      <trkpt lat="47.71005" lon="-3.36674">
        <ele>-3.23</ele>
        <time>2015-10-10T13:28:54Z</time>
      </trkpt>
      <trkpt lat="47.71003" lon="-3.36675">
        <ele>-3.23</ele>
        <time>2015-10-10T13:28:55Z</time>
      </trkpt>
      <trkpt lat="47.71002" lon="-3.36675">
        <ele>-3.23</ele>
        <time>2015-10-10T13:28:56Z</time>
      </trkpt>
      <trkpt lat="47.71" lon="-3.36675">
        <ele>-3.23</ele>
        <time>2015-10-10T13:28:57Z</time>
      </trkpt>
      <trkpt lat="47.70998" lon="-3.36675">
        <ele>-3.23</ele>
        <time>2015-10-10T13:28:58Z</time>
      </trkpt>
      <trkpt lat="47.70996" lon="-3.36676">
        <ele>-3.23</ele>
        <time>2015-10-10T13:28:59Z</time>
      </trkpt>
      <trkpt lat="47.70995" lon="-3.36677">
        <ele>-3.23</ele>
        <time>2015-10-10T13:29:00Z</time>
      </trkpt>
      <trkpt lat="47.70993" lon="-3.36677">
        <ele>-3.23</ele>
        <time>2015-10-10T13:29:01Z</time>
      </trkpt>
      <trkpt lat="47.70991" lon="-3.36678">
        <ele>-3.23</ele>
        <time>2015-10-10T13:29:02Z</time>
      </trkpt>
      <trkpt lat="47.70989" lon="-3.36679">
        <ele>-3.23</ele>
        <time>2015-10-10T13:29:03Z</time>
      </trkpt>
      <trkpt lat="47.70987" lon="-3.3668">
        <ele>-3.23</ele>
        <time>2015-10-10T13:29:04Z</time>
      </trkpt>
      <trkpt lat="47.70985" lon="-3.3668">
        <ele>-2.27</ele>
        <time>2015-10-10T13:29:05Z</time>
      </trkpt>
      <trkpt lat="47.70982" lon="-3.36681">
        <ele>-2.27</ele>
        <time>2015-10-10T13:29:06Z</time>
      </trkpt>
      <trkpt lat="47.7098" lon="-3.36682">
        <ele>-2.27</ele>
        <time>2015-10-10T13:29:07Z</time>
      </trkpt>
      <trkpt lat="47.70978" lon="-3.36682">
        <ele>-2.27</ele>
        <time>2015-10-10T13:29:08Z</time>
      </trkpt>
      <trkpt lat="47.70975" lon="-3.36683">
        <ele>-2.27</ele>
        <time>2015-10-10T13:29:09Z</time>
      </trkpt>
      <trkpt lat="47.70973" lon="-3.36684">
        <ele>-2.27</ele>
        <time>2015-10-10T13:29:10Z</time>
      </trkpt>
      <trkpt lat="47.70971" lon="-3.36685">
        <ele>-2.27</ele>
        <time>2015-10-10T13:29:11Z</time>
      </trkpt>
      <trkpt lat="47.70968" lon="-3.36685">
        <ele>-2.27</ele>
        <time>2015-10-10T13:29:12Z</time>
      </trkpt>
      <trkpt lat="47.70966" lon="-3.36686">
        <ele>-2.27</ele>
        <time>2015-10-10T13:29:13Z</time>
      </trkpt>
      <trkpt lat="47.70964" lon="-3.36687">
        <ele>-2.27</ele>
        <time>2015-10-10T13:29:14Z</time>
      </trkpt>
      <trkpt lat="47.70962" lon="-3.36688">
        <ele>-2.27</ele>
        <time>2015-10-10T13:29:15Z</time>
      </trkpt>
      <trkpt lat="47.7096" lon="-3.36689">
        <ele>-2.27</ele>
        <time>2015-10-10T13:29:16Z</time>
      </trkpt>
      <trkpt lat="47.70957" lon="-3.3669">
        <ele>-2.27</ele>
        <time>2015-10-10T13:29:17Z</time>
      </trkpt>
      <trkpt lat="47.70955" lon="-3.3669">
        <ele>-2.27</ele>
        <time>2015-10-10T13:29:18Z</time>
      </trkpt>
      <trkpt lat="47.70953" lon="-3.36691">
        <ele>-2.27</ele>
        <time>2015-10-10T13:29:19Z</time>
      </trkpt>
      <trkpt lat="47.70951" lon="-3.36692">
        <ele>-2.27</ele>
        <time>2015-10-10T13:29:20Z</time>
      </trkpt>
      <trkpt lat="47.70948" lon="-3.36693">
        <ele>-2.27</ele>
        <time>2015-10-10T13:29:21Z</time>
      </trkpt>
      <trkpt lat="47.70946" lon="-3.36693">
        <ele>-2.27</ele>
        <time>2015-10-10T13:29:22Z</time>
      </trkpt>
      <trkpt lat="47.70944" lon="-3.36694">
        <ele>-2.27</ele>
        <time>2015-10-10T13:29:23Z</time>
      </trkpt>
      <trkpt lat="47.70942" lon="-3.36695">
        <ele>-2.27</ele>
        <time>2015-10-10T13:29:24Z</time>
      </trkpt>
      <trkpt lat="47.70939" lon="-3.36696">
        <ele>-2.27</ele>
        <time>2015-10-10T13:29:25Z</time>
      </trkpt>
      <trkpt lat="47.70937" lon="-3.36696">
        <ele>-2.27</ele>
        <time>2015-10-10T13:29:26Z</time>
      </trkpt>
      <trkpt lat="47.70935" lon="-3.36697">
        <ele>-2.27</ele>
        <time>2015-10-10T13:29:27Z</time>
      </trkpt>
      <trkpt lat="47.70933" lon="-3.36698">
        <ele>-2.27</ele>
        <time>2015-10-10T13:29:28Z</time>
      </trkpt>
      <trkpt lat="47.70931" lon="-3.36699">
        <ele>-2.27</ele>
        <time>2015-10-10T13:29:29Z</time>
      </trkpt>
      <trkpt lat="47.70929" lon="-3.36699">
        <ele>-2.27</ele>
        <time>2015-10-10T13:29:30Z</time>
      </trkpt>
      <trkpt lat="47.70926" lon="-3.367">
        <ele>-2.27</ele>
        <time>2015-10-10T13:29:31Z</time>
      </trkpt>
      <trkpt lat="47.70925" lon="-3.36701">
        <ele>-2.27</ele>
        <time>2015-10-10T13:29:32Z</time>
      </trkpt>
      <trkpt lat="47.70923" lon="-3.36702">
        <ele>-2.27</ele>
        <time>2015-10-10T13:29:33Z</time>
      </trkpt>
      <trkpt lat="47.70921" lon="-3.36703">
        <ele>-2.27</ele>
        <time>2015-10-10T13:29:34Z</time>
      </trkpt>
      <trkpt lat="47.70919" lon="-3.36704">
        <ele>-2.27</ele>
        <time>2015-10-10T13:29:35Z</time>
      </trkpt>
      <trkpt lat="47.70916" lon="-3.36705">
        <ele>-2.27</ele>
        <time>2015-10-10T13:29:36Z</time>
      </trkpt>
      <trkpt lat="47.70914" lon="-3.36706">
        <ele>-2.27</ele>
        <time>2015-10-10T13:29:37Z</time>
      </trkpt>
      <trkpt lat="47.70912" lon="-3.36707">
        <ele>-2.27</ele>
        <time>2015-10-10T13:29:38Z</time>
      </trkpt>
      <trkpt lat="47.7091" lon="-3.36708">
        <ele>-1.3</ele>
        <time>2015-10-10T13:29:39Z</time>
      </trkpt>
      <trkpt lat="47.70908" lon="-3.36709">
        <ele>-1.3</ele>
        <time>2015-10-10T13:29:40Z</time>
      </trkpt>
      <trkpt lat="47.70905" lon="-3.3671">
        <ele>-1.3</ele>
        <time>2015-10-10T13:29:41Z</time>
      </trkpt>
      <trkpt lat="47.70903" lon="-3.36711">
        <ele>-1.3</ele>
        <time>2015-10-10T13:29:42Z</time>
      </trkpt>
      <trkpt lat="47.70901" lon="-3.36712">
        <ele>-1.3</ele>
        <time>2015-10-10T13:29:43Z</time>
      </trkpt>
      <trkpt lat="47.70898" lon="-3.36713">
        <ele>-1.3</ele>
        <time>2015-10-10T13:29:44Z</time>
      </trkpt>
      <trkpt lat="47.70896" lon="-3.36713">
        <ele>-1.3</ele>
        <time>2015-10-10T13:29:45Z</time>
      </trkpt>
      <trkpt lat="47.70893" lon="-3.36714">
        <ele>-1.3</ele>
        <time>2015-10-10T13:29:46Z</time>
      </trkpt>
      <trkpt lat="47.70891" lon="-3.36715">
        <ele>-1.3</ele>
        <time>2015-10-10T13:29:47Z</time>
      </trkpt>
      <trkpt lat="47.70889" lon="-3.36716">
        <ele>-1.3</ele>
        <time>2015-10-10T13:29:48Z</time>
      </trkpt>
      <trkpt lat="47.70886" lon="-3.36717">
        <ele>-1.3</ele>
        <time>2015-10-10T13:29:49Z</time>
      </trkpt>
      <trkpt lat="47.70884" lon="-3.36718">
        <ele>-1.3</ele>
        <time>2015-10-10T13:29:50Z</time>
      </trkpt>
      <trkpt lat="47.70882" lon="-3.36719">
        <ele>-2.75</ele>
        <time>2015-10-10T13:29:51Z</time>
      </trkpt>
      <trkpt lat="47.7088" lon="-3.36719">
        <ele>-2.75</ele>
        <time>2015-10-10T13:29:52Z</time>
      </trkpt>
      <trkpt lat="47.70878" lon="-3.3672">
        <ele>-2.75</ele>
        <time>2015-10-10T13:29:53Z</time>
      </trkpt>
      <trkpt lat="47.70875" lon="-3.36721">
        <ele>-2.75</ele>
        <time>2015-10-10T13:29:54Z</time>
      </trkpt>
      <trkpt lat="47.70873" lon="-3.36722">
        <ele>-2.75</ele>
        <time>2015-10-10T13:29:55Z</time>
      </trkpt>
      <trkpt lat="47.70871" lon="-3.36723">
        <ele>-2.75</ele>
        <time>2015-10-10T13:29:56Z</time>
      </trkpt>
      <trkpt lat="47.70869" lon="-3.36723">
        <ele>-2.75</ele>
        <time>2015-10-10T13:29:57Z</time>
      </trkpt>
      <trkpt lat="47.70867" lon="-3.36724">
        <ele>-2.75</ele>
        <time>2015-10-10T13:29:58Z</time>
      </trkpt>
      <trkpt lat="47.70865" lon="-3.36725">
        <ele>-2.75</ele>
        <time>2015-10-10T13:29:59Z</time>
      </trkpt>
      <trkpt lat="47.70863" lon="-3.36725">
        <ele>-2.75</ele>
        <time>2015-10-10T13:30:00Z</time>
      </trkpt>
      <trkpt lat="47.70861" lon="-3.36726">
        <ele>-2.75</ele>
        <time>2015-10-10T13:30:01Z</time>
      </trkpt>
      <trkpt lat="47.70859" lon="-3.36727">
        <ele>-2.75</ele>
        <time>2015-10-10T13:30:02Z</time>
      </trkpt>
      <trkpt lat="47.70857" lon="-3.36727">
        <ele>-2.75</ele>
        <time>2015-10-10T13:30:03Z</time>
      </trkpt>
      <trkpt lat="47.70855" lon="-3.36728">
        <ele>-2.75</ele>
        <time>2015-10-10T13:30:04Z</time>
      </trkpt>
      <trkpt lat="47.70853" lon="-3.36729">
        <ele>-2.75</ele>
        <time>2015-10-10T13:30:05Z</time>
      </trkpt>
      <trkpt lat="47.70851" lon="-3.36729">
        <ele>-2.75</ele>
        <time>2015-10-10T13:30:06Z</time>
      </trkpt>
      <trkpt lat="47.70849" lon="-3.3673">
        <ele>-2.75</ele>
        <time>2015-10-10T13:30:07Z</time>
      </trkpt>
      <trkpt lat="47.70847" lon="-3.36731">
        <ele>-2.75</ele>
        <time>2015-10-10T13:30:08Z</time>
      </trkpt>
      <trkpt lat="47.70845" lon="-3.36732">
        <ele>-2.75</ele>
        <time>2015-10-10T13:30:09Z</time>
      </trkpt>
      <trkpt lat="47.70843" lon="-3.36733">
        <ele>-2.75</ele>
        <time>2015-10-10T13:30:10Z</time>
      </trkpt>
      <trkpt lat="47.70841" lon="-3.36733">
        <ele>-2.75</ele>
        <time>2015-10-10T13:30:11Z</time>
      </trkpt>
      <trkpt lat="47.70839" lon="-3.36734">
        <ele>-2.75</ele>
        <time>2015-10-10T13:30:12Z</time>
      </trkpt>
      <trkpt lat="47.70837" lon="-3.36735">
        <ele>-2.75</ele>
        <time>2015-10-10T13:30:13Z</time>
      </trkpt>
      <trkpt lat="47.70835" lon="-3.36735">
        <ele>-2.75</ele>
        <time>2015-10-10T13:30:14Z</time>
      </trkpt>
      <trkpt lat="47.70833" lon="-3.36736">
        <ele>-2.75</ele>
        <time>2015-10-10T13:30:15Z</time>
      </trkpt>
      <trkpt lat="47.70831" lon="-3.36737">
        <ele>-2.75</ele>
        <time>2015-10-10T13:30:16Z</time>
      </trkpt>
      <trkpt lat="47.70829" lon="-3.36738">
        <ele>-2.75</ele>
        <time>2015-10-10T13:30:17Z</time>
      </trkpt>
      <trkpt lat="47.70827" lon="-3.36738">
        <ele>-2.75</ele>
        <time>2015-10-10T13:30:18Z</time>
      </trkpt>
      <trkpt lat="47.70825" lon="-3.36739">
        <ele>-2.75</ele>
        <time>2015-10-10T13:30:19Z</time>
      </trkpt>
      <trkpt lat="47.70823" lon="-3.36739">
        <ele>-2.75</ele>
        <time>2015-10-10T13:30:20Z</time>
      </trkpt>
      <trkpt lat="47.70821" lon="-3.3674">
        <ele>-2.75</ele>
        <time>2015-10-10T13:30:21Z</time>
      </trkpt>
      <trkpt lat="47.7082" lon="-3.36741">
        <ele>-2.75</ele>
        <time>2015-10-10T13:30:22Z</time>
      </trkpt>
      <trkpt lat="47.70817" lon="-3.36742">
        <ele>-2.75</ele>
        <time>2015-10-10T13:30:23Z</time>
      </trkpt>
      <trkpt lat="47.70816" lon="-3.36742">
        <ele>-2.75</ele>
        <time>2015-10-10T13:30:24Z</time>
      </trkpt>
      <trkpt lat="47.70814" lon="-3.36743">
        <ele>-2.75</ele>
        <time>2015-10-10T13:30:25Z</time>
      </trkpt>
      <trkpt lat="47.70812" lon="-3.36744">
        <ele>-2.75</ele>
        <time>2015-10-10T13:30:26Z</time>
      </trkpt>
      <trkpt lat="47.7081" lon="-3.36744">
        <ele>-2.75</ele>
        <time>2015-10-10T13:30:27Z</time>
      </trkpt>
      <trkpt lat="47.70807" lon="-3.36745">
        <ele>-2.75</ele>
        <time>2015-10-10T13:30:28Z</time>
      </trkpt>
      <trkpt lat="47.70806" lon="-3.36746">
        <ele>-2.75</ele>
        <time>2015-10-10T13:30:29Z</time>
      </trkpt>
      <trkpt lat="47.70804" lon="-3.36746">
        <ele>-2.75</ele>
        <time>2015-10-10T13:30:30Z</time>
      </trkpt>
      <trkpt lat="47.70802" lon="-3.36747">
        <ele>-2.75</ele>
        <time>2015-10-10T13:30:31Z</time>
      </trkpt>
      <trkpt lat="47.708" lon="-3.36747">
        <ele>-2.75</ele>
        <time>2015-10-10T13:30:32Z</time>
      </trkpt>
      <trkpt lat="47.70798" lon="-3.36748">
        <ele>-2.75</ele>
        <time>2015-10-10T13:30:33Z</time>
      </trkpt>
      <trkpt lat="47.70796" lon="-3.36748">
        <ele>-2.75</ele>
        <time>2015-10-10T13:30:34Z</time>
      </trkpt>
      <trkpt lat="47.70794" lon="-3.36749">
        <ele>-2.75</ele>
        <time>2015-10-10T13:30:35Z</time>
      </trkpt>
      <trkpt lat="47.70792" lon="-3.3675">
        <ele>-2.75</ele>
        <time>2015-10-10T13:30:36Z</time>
      </trkpt>
      <trkpt lat="47.7079" lon="-3.3675">
        <ele>-2.75</ele>
        <time>2015-10-10T13:30:37Z</time>
      </trkpt>
      <trkpt lat="47.70788" lon="-3.36751">
        <ele>-2.75</ele>
        <time>2015-10-10T13:30:38Z</time>
      </trkpt>
      <trkpt lat="47.70786" lon="-3.36752">
        <ele>-2.75</ele>
        <time>2015-10-10T13:30:39Z</time>
      </trkpt>
      <trkpt lat="47.70783" lon="-3.36752">
        <ele>-2.75</ele>
        <time>2015-10-10T13:30:40Z</time>
      </trkpt>
      <trkpt lat="47.70781" lon="-3.36753">
        <ele>-2.75</ele>
        <time>2015-10-10T13:30:41Z</time>
      </trkpt>
      <trkpt lat="47.70779" lon="-3.36753">
        <ele>-2.75</ele>
        <time>2015-10-10T13:30:42Z</time>
      </trkpt>
      <trkpt lat="47.70777" lon="-3.36754">
        <ele>-2.75</ele>
        <time>2015-10-10T13:30:43Z</time>
      </trkpt>
      <trkpt lat="47.70774" lon="-3.36755">
        <ele>-2.75</ele>
        <time>2015-10-10T13:30:44Z</time>
      </trkpt>
      <trkpt lat="47.70772" lon="-3.36755">
        <ele>-2.75</ele>
        <time>2015-10-10T13:30:45Z</time>
      </trkpt>
      <trkpt lat="47.7077" lon="-3.36756">
        <ele>-2.75</ele>
        <time>2015-10-10T13:30:46Z</time>
      </trkpt>
      <trkpt lat="47.70767" lon="-3.36756">
        <ele>-2.75</ele>
        <time>2015-10-10T13:30:47Z</time>
      </trkpt>
      <trkpt lat="47.70765" lon="-3.36756">
        <ele>-2.75</ele>
        <time>2015-10-10T13:30:48Z</time>
      </trkpt>
      <trkpt lat="47.70763" lon="-3.36757">
        <ele>-2.75</ele>
        <time>2015-10-10T13:30:49Z</time>
      </trkpt>
      <trkpt lat="47.70761" lon="-3.36758">
        <ele>-2.75</ele>
        <time>2015-10-10T13:30:50Z</time>
      </trkpt>
      <trkpt lat="47.70758" lon="-3.36758">
        <ele>-2.75</ele>
        <time>2015-10-10T13:30:51Z</time>
      </trkpt>
      <trkpt lat="47.70756" lon="-3.36759">
        <ele>-2.75</ele>
        <time>2015-10-10T13:30:52Z</time>
      </trkpt>
      <trkpt lat="47.70754" lon="-3.36759">
        <ele>-2.75</ele>
        <time>2015-10-10T13:30:53Z</time>
      </trkpt>
      <trkpt lat="47.70752" lon="-3.3676">
        <ele>-2.75</ele>
        <time>2015-10-10T13:30:54Z</time>
      </trkpt>
      <trkpt lat="47.70749" lon="-3.3676">
        <ele>-2.75</ele>
        <time>2015-10-10T13:30:55Z</time>
      </trkpt>
      <trkpt lat="47.70747" lon="-3.36761">
        <ele>-2.75</ele>
        <time>2015-10-10T13:30:56Z</time>
      </trkpt>
      <trkpt lat="47.70745" lon="-3.36761">
        <ele>-2.75</ele>
        <time>2015-10-10T13:30:57Z</time>
      </trkpt>
      <trkpt lat="47.70743" lon="-3.36762">
        <ele>-2.75</ele>
        <time>2015-10-10T13:30:58Z</time>
      </trkpt>
      <trkpt lat="47.70741" lon="-3.36762">
        <ele>-2.75</ele>
        <time>2015-10-10T13:30:59Z</time>
      </trkpt>
      <trkpt lat="47.70738" lon="-3.36762">
        <ele>-2.75</ele>
        <time>2015-10-10T13:31:00Z</time>
      </trkpt>
      <trkpt lat="47.70736" lon="-3.36763">
        <ele>-2.75</ele>
        <time>2015-10-10T13:31:01Z</time>
      </trkpt>
      <trkpt lat="47.70734" lon="-3.36763">
        <ele>-2.75</ele>
        <time>2015-10-10T13:31:02Z</time>
      </trkpt>
      <trkpt lat="47.70732" lon="-3.36764">
        <ele>-2.75</ele>
        <time>2015-10-10T13:31:03Z</time>
      </trkpt>
      <trkpt lat="47.7073" lon="-3.36764">
        <ele>-2.75</ele>
        <time>2015-10-10T13:31:04Z</time>
      </trkpt>
      <trkpt lat="47.70727" lon="-3.36764">
        <ele>-2.75</ele>
        <time>2015-10-10T13:31:05Z</time>
      </trkpt>
      <trkpt lat="47.70725" lon="-3.36765">
        <ele>-2.75</ele>
        <time>2015-10-10T13:31:06Z</time>
      </trkpt>
      <trkpt lat="47.70723" lon="-3.36766">
        <ele>-2.75</ele>
        <time>2015-10-10T13:31:07Z</time>
      </trkpt>
      <trkpt lat="47.70721" lon="-3.36766">
        <ele>-2.75</ele>
        <time>2015-10-10T13:31:08Z</time>
      </trkpt>
      <trkpt lat="47.70719" lon="-3.36767">
        <ele>-2.75</ele>
        <time>2015-10-10T13:31:09Z</time>
      </trkpt>
      <trkpt lat="47.70716" lon="-3.36767">
        <ele>-2.75</ele>
        <time>2015-10-10T13:31:10Z</time>
      </trkpt>
      <trkpt lat="47.70714" lon="-3.36768">
        <ele>-2.75</ele>
        <time>2015-10-10T13:31:11Z</time>
      </trkpt>
      <trkpt lat="47.70712" lon="-3.36768">
        <ele>-2.75</ele>
        <time>2015-10-10T13:31:12Z</time>
      </trkpt>
      <trkpt lat="47.7071" lon="-3.36769">
        <ele>-2.75</ele>
        <time>2015-10-10T13:31:13Z</time>
      </trkpt>
      <trkpt lat="47.70708" lon="-3.36769">
        <ele>-2.75</ele>
        <time>2015-10-10T13:31:14Z</time>
      </trkpt>
      <trkpt lat="47.70706" lon="-3.3677">
        <ele>-2.75</ele>
        <time>2015-10-10T13:31:15Z</time>
      </trkpt>
      <trkpt lat="47.70704" lon="-3.3677">
        <ele>-2.75</ele>
        <time>2015-10-10T13:31:16Z</time>
      </trkpt>
      <trkpt lat="47.70702" lon="-3.36771">
        <ele>-2.75</ele>
        <time>2015-10-10T13:31:17Z</time>
      </trkpt>
      <trkpt lat="47.707" lon="-3.36771">
        <ele>-2.75</ele>
        <time>2015-10-10T13:31:18Z</time>
      </trkpt>
      <trkpt lat="47.70698" lon="-3.36772">
        <ele>-2.75</ele>
        <time>2015-10-10T13:31:19Z</time>
      </trkpt>
      <trkpt lat="47.70696" lon="-3.36772">
        <ele>-2.75</ele>
        <time>2015-10-10T13:31:20Z</time>
      </trkpt>
      <trkpt lat="47.70693" lon="-3.36772">
        <ele>-2.75</ele>
        <time>2015-10-10T13:31:21Z</time>
      </trkpt>
      <trkpt lat="47.70691" lon="-3.36773">
        <ele>-2.75</ele>
        <time>2015-10-10T13:31:22Z</time>
      </trkpt>
      <trkpt lat="47.70689" lon="-3.36774">
        <ele>-2.75</ele>
        <time>2015-10-10T13:31:23Z</time>
      </trkpt>
      <trkpt lat="47.70687" lon="-3.36774">
        <ele>-2.75</ele>
        <time>2015-10-10T13:31:24Z</time>
      </trkpt>
      <trkpt lat="47.70685" lon="-3.36775">
        <ele>-2.75</ele>
        <time>2015-10-10T13:31:25Z</time>
      </trkpt>
      <trkpt lat="47.70683" lon="-3.36776">
        <ele>-2.75</ele>
        <time>2015-10-10T13:31:26Z</time>
      </trkpt>
      <trkpt lat="47.70681" lon="-3.36777">
        <ele>-2.75</ele>
        <time>2015-10-10T13:31:27Z</time>
      </trkpt>
      <trkpt lat="47.70679" lon="-3.36777">
        <ele>-2.75</ele>
        <time>2015-10-10T13:31:28Z</time>
      </trkpt>
      <trkpt lat="47.70677" lon="-3.36778">
        <ele>-2.75</ele>
        <time>2015-10-10T13:31:29Z</time>
      </trkpt>
      <trkpt lat="47.70675" lon="-3.36778">
        <ele>-2.75</ele>
        <time>2015-10-10T13:31:30Z</time>
      </trkpt>
      <trkpt lat="47.70673" lon="-3.36779">
        <ele>-2.75</ele>
        <time>2015-10-10T13:31:31Z</time>
      </trkpt>
      <trkpt lat="47.7067" lon="-3.3678">
        <ele>-2.75</ele>
        <time>2015-10-10T13:31:32Z</time>
      </trkpt>
      <trkpt lat="47.70668" lon="-3.36781">
        <ele>-1.3</ele>
        <time>2015-10-10T13:31:33Z</time>
      </trkpt>
      <trkpt lat="47.70665" lon="-3.36782">
        <ele>-1.3</ele>
        <time>2015-10-10T13:31:34Z</time>
      </trkpt>
      <trkpt lat="47.70663" lon="-3.36782">
        <ele>-1.3</ele>
        <time>2015-10-10T13:31:35Z</time>
      </trkpt>
      <trkpt lat="47.7066" lon="-3.36782">
        <ele>-1.3</ele>
        <time>2015-10-10T13:31:36Z</time>
      </trkpt>
      <trkpt lat="47.70658" lon="-3.36783">
        <ele>-1.3</ele>
        <time>2015-10-10T13:31:37Z</time>
      </trkpt>
      <trkpt lat="47.70655" lon="-3.36784">
        <ele>-1.3</ele>
        <time>2015-10-10T13:31:38Z</time>
      </trkpt>
      <trkpt lat="47.70653" lon="-3.36784">
        <ele>-1.3</ele>
        <time>2015-10-10T13:31:39Z</time>
      </trkpt>
      <trkpt lat="47.70651" lon="-3.36785">
        <ele>-1.3</ele>
        <time>2015-10-10T13:31:40Z</time>
      </trkpt>
      <trkpt lat="47.70648" lon="-3.36785">
        <ele>-1.3</ele>
        <time>2015-10-10T13:31:41Z</time>
      </trkpt>
      <trkpt lat="47.70646" lon="-3.36786">
        <ele>-1.3</ele>
        <time>2015-10-10T13:31:42Z</time>
      </trkpt>
      <trkpt lat="47.70643" lon="-3.36787">
        <ele>-1.3</ele>
        <time>2015-10-10T13:31:43Z</time>
      </trkpt>
      <trkpt lat="47.70641" lon="-3.36788">
        <ele>-1.3</ele>
        <time>2015-10-10T13:31:44Z</time>
      </trkpt>
      <trkpt lat="47.70638" lon="-3.36788">
        <ele>-1.3</ele>
        <time>2015-10-10T13:31:45Z</time>
      </trkpt>
      <trkpt lat="47.70636" lon="-3.36789">
        <ele>-1.3</ele>
        <time>2015-10-10T13:31:46Z</time>
      </trkpt>
      <trkpt lat="47.70633" lon="-3.3679">
        <ele>-1.3</ele>
        <time>2015-10-10T13:31:47Z</time>
      </trkpt>
      <trkpt lat="47.70631" lon="-3.3679">
        <ele>-1.3</ele>
        <time>2015-10-10T13:31:48Z</time>
      </trkpt>
      <trkpt lat="47.70628" lon="-3.36791">
        <ele>-1.3</ele>
        <time>2015-10-10T13:31:49Z</time>
      </trkpt>
      <trkpt lat="47.70626" lon="-3.36792">
        <ele>-1.3</ele>
        <time>2015-10-10T13:31:50Z</time>
      </trkpt>
      <trkpt lat="47.70624" lon="-3.36793">
        <ele>-1.3</ele>
        <time>2015-10-10T13:31:51Z</time>
      </trkpt>
      <trkpt lat="47.70621" lon="-3.36793">
        <ele>-1.3</ele>
        <time>2015-10-10T13:31:52Z</time>
      </trkpt>
      <trkpt lat="47.70618" lon="-3.36794">
        <ele>-1.3</ele>
        <time>2015-10-10T13:31:53Z</time>
      </trkpt>
      <trkpt lat="47.70616" lon="-3.36794">
        <ele>-1.3</ele>
        <time>2015-10-10T13:31:54Z</time>
      </trkpt>
      <trkpt lat="47.70613" lon="-3.36795">
        <ele>-1.3</ele>
        <time>2015-10-10T13:31:55Z</time>
      </trkpt>
      <trkpt lat="47.70611" lon="-3.36796">
        <ele>-1.3</ele>
        <time>2015-10-10T13:31:56Z</time>
      </trkpt>
      <trkpt lat="47.70608" lon="-3.36796">
        <ele>-1.3</ele>
        <time>2015-10-10T13:31:57Z</time>
      </trkpt>
      <trkpt lat="47.70606" lon="-3.36797">
        <ele>-1.3</ele>
        <time>2015-10-10T13:31:58Z</time>
      </trkpt>
      <trkpt lat="47.70603" lon="-3.36797">
        <ele>-1.3</ele>
        <time>2015-10-10T13:31:59Z</time>
      </trkpt>
      <trkpt lat="47.70601" lon="-3.36798">
        <ele>-1.3</ele>
        <time>2015-10-10T13:32:00Z</time>
      </trkpt>
      <trkpt lat="47.70598" lon="-3.36799">
        <ele>-1.3</ele>
        <time>2015-10-10T13:32:01Z</time>
      </trkpt>
      <trkpt lat="47.70596" lon="-3.368">
        <ele>-1.3</ele>
        <time>2015-10-10T13:32:02Z</time>
      </trkpt>
      <trkpt lat="47.70593" lon="-3.368">
        <ele>-1.3</ele>
        <time>2015-10-10T13:32:03Z</time>
      </trkpt>
      <trkpt lat="47.70591" lon="-3.36801">
        <ele>-1.3</ele>
        <time>2015-10-10T13:32:04Z</time>
      </trkpt>
      <trkpt lat="47.70588" lon="-3.36802">
        <ele>-1.3</ele>
        <time>2015-10-10T13:32:05Z</time>
      </trkpt>
      <trkpt lat="47.70586" lon="-3.36803">
        <ele>-1.3</ele>
        <time>2015-10-10T13:32:06Z</time>
      </trkpt>
      <trkpt lat="47.70584" lon="-3.36804">
        <ele>-1.3</ele>
        <time>2015-10-10T13:32:07Z</time>
      </trkpt>
      <trkpt lat="47.70582" lon="-3.36804">
        <ele>-1.3</ele>
        <time>2015-10-10T13:32:08Z</time>
      </trkpt>
      <trkpt lat="47.70579" lon="-3.36805">
        <ele>-1.3</ele>
        <time>2015-10-10T13:32:09Z</time>
      </trkpt>
      <trkpt lat="47.70577" lon="-3.36806">
        <ele>-1.3</ele>
        <time>2015-10-10T13:32:10Z</time>
      </trkpt>
      <trkpt lat="47.70575" lon="-3.36807">
        <ele>-1.3</ele>
        <time>2015-10-10T13:32:11Z</time>
      </trkpt>
      <trkpt lat="47.70573" lon="-3.36808">
        <ele>-1.3</ele>
        <time>2015-10-10T13:32:12Z</time>
      </trkpt>
      <trkpt lat="47.70571" lon="-3.36809">
        <ele>-1.3</ele>
        <time>2015-10-10T13:32:13Z</time>
      </trkpt>
      <trkpt lat="47.70569" lon="-3.36809">
        <ele>-1.3</ele>
        <time>2015-10-10T13:32:14Z</time>
      </trkpt>
      <trkpt lat="47.70566" lon="-3.3681">
        <ele>-1.3</ele>
        <time>2015-10-10T13:32:15Z</time>
      </trkpt>
      <trkpt lat="47.70564" lon="-3.36811">
        <ele>-1.3</ele>
        <time>2015-10-10T13:32:16Z</time>
      </trkpt>
      <trkpt lat="47.70562" lon="-3.36811">
        <ele>-1.3</ele>
        <time>2015-10-10T13:32:17Z</time>
      </trkpt>
      <trkpt lat="47.70559" lon="-3.36812">
        <ele>-1.3</ele>
        <time>2015-10-10T13:32:18Z</time>
      </trkpt>
      <trkpt lat="47.70557" lon="-3.36812">
        <ele>-1.3</ele>
        <time>2015-10-10T13:32:19Z</time>
      </trkpt>
      <trkpt lat="47.70555" lon="-3.36813">
        <ele>-1.3</ele>
        <time>2015-10-10T13:32:20Z</time>
      </trkpt>
      <trkpt lat="47.70552" lon="-3.36814">
        <ele>-1.3</ele>
        <time>2015-10-10T13:32:21Z</time>
      </trkpt>
      <trkpt lat="47.7055" lon="-3.36815">
        <ele>-1.3</ele>
        <time>2015-10-10T13:32:22Z</time>
      </trkpt>
      <trkpt lat="47.70548" lon="-3.36815">
        <ele>-1.3</ele>
        <time>2015-10-10T13:32:23Z</time>
      </trkpt>
      <trkpt lat="47.70546" lon="-3.36816">
        <ele>-1.3</ele>
        <time>2015-10-10T13:32:24Z</time>
      </trkpt>
      <trkpt lat="47.70543" lon="-3.36817">
        <ele>-1.3</ele>
        <time>2015-10-10T13:32:25Z</time>
      </trkpt>
      <trkpt lat="47.70541" lon="-3.36817">
        <ele>-1.3</ele>
        <time>2015-10-10T13:32:26Z</time>
      </trkpt>
      <trkpt lat="47.70539" lon="-3.36818">
        <ele>-1.3</ele>
        <time>2015-10-10T13:32:27Z</time>
      </trkpt>
      <trkpt lat="47.70536" lon="-3.36818">
        <ele>-1.3</ele>
        <time>2015-10-10T13:32:28Z</time>
      </trkpt>
      <trkpt lat="47.70534" lon="-3.36819">
        <ele>-1.3</ele>
        <time>2015-10-10T13:32:29Z</time>
      </trkpt>
      <trkpt lat="47.70532" lon="-3.3682">
        <ele>-1.3</ele>
        <time>2015-10-10T13:32:30Z</time>
      </trkpt>
      <trkpt lat="47.70529" lon="-3.36821">
        <ele>-1.3</ele>
        <time>2015-10-10T13:32:31Z</time>
      </trkpt>
      <trkpt lat="47.70527" lon="-3.36821">
        <ele>-1.3</ele>
        <time>2015-10-10T13:32:32Z</time>
      </trkpt>
      <trkpt lat="47.70525" lon="-3.36822">
        <ele>-1.3</ele>
        <time>2015-10-10T13:32:33Z</time>
      </trkpt>
      <trkpt lat="47.70522" lon="-3.36823">
        <ele>-1.3</ele>
        <time>2015-10-10T13:32:34Z</time>
      </trkpt>
      <trkpt lat="47.7052" lon="-3.36824">
        <ele>-1.3</ele>
        <time>2015-10-10T13:32:35Z</time>
      </trkpt>
      <trkpt lat="47.70518" lon="-3.36825">
        <ele>-1.3</ele>
        <time>2015-10-10T13:32:36Z</time>
      </trkpt>
      <trkpt lat="47.70515" lon="-3.36826">
        <ele>-1.3</ele>
        <time>2015-10-10T13:32:37Z</time>
      </trkpt>
      <trkpt lat="47.70513" lon="-3.36827">
        <ele>-1.3</ele>
        <time>2015-10-10T13:32:38Z</time>
      </trkpt>
      <trkpt lat="47.7051" lon="-3.36827">
        <ele>-1.3</ele>
        <time>2015-10-10T13:32:39Z</time>
      </trkpt>
      <trkpt lat="47.70508" lon="-3.36828">
        <ele>-1.3</ele>
        <time>2015-10-10T13:32:40Z</time>
      </trkpt>
      <trkpt lat="47.70505" lon="-3.36829">
        <ele>-1.3</ele>
        <time>2015-10-10T13:32:41Z</time>
      </trkpt>
      <trkpt lat="47.70503" lon="-3.3683">
        <ele>-1.3</ele>
        <time>2015-10-10T13:32:42Z</time>
      </trkpt>
      <trkpt lat="47.70501" lon="-3.36831">
        <ele>-1.3</ele>
        <time>2015-10-10T13:32:43Z</time>
      </trkpt>
      <trkpt lat="47.70499" lon="-3.36832">
        <ele>-1.3</ele>
        <time>2015-10-10T13:32:44Z</time>
      </trkpt>
      <trkpt lat="47.70497" lon="-3.36833">
        <ele>-1.3</ele>
        <time>2015-10-10T13:32:45Z</time>
      </trkpt>
      <trkpt lat="47.70494" lon="-3.36833">
        <ele>-1.3</ele>
        <time>2015-10-10T13:32:46Z</time>
      </trkpt>
      <trkpt lat="47.70492" lon="-3.36834">
        <ele>-1.3</ele>
        <time>2015-10-10T13:32:47Z</time>
      </trkpt>
      <trkpt lat="47.70489" lon="-3.36835">
        <ele>-1.3</ele>
        <time>2015-10-10T13:32:48Z</time>
      </trkpt>
      <trkpt lat="47.70487" lon="-3.36836">
        <ele>-1.3</ele>
        <time>2015-10-10T13:32:49Z</time>
      </trkpt>
      <trkpt lat="47.70485" lon="-3.36836">
        <ele>-1.3</ele>
        <time>2015-10-10T13:32:50Z</time>
      </trkpt>
      <trkpt lat="47.70482" lon="-3.36837">
        <ele>-1.3</ele>
        <time>2015-10-10T13:32:51Z</time>
      </trkpt>
      <trkpt lat="47.7048" lon="-3.36838">
        <ele>-1.3</ele>
        <time>2015-10-10T13:32:52Z</time>
      </trkpt>
      <trkpt lat="47.70478" lon="-3.36839">
        <ele>-1.3</ele>
        <time>2015-10-10T13:32:53Z</time>
      </trkpt>
      <trkpt lat="47.70475" lon="-3.3684">
        <ele>-1.3</ele>
        <time>2015-10-10T13:32:54Z</time>
      </trkpt>
      <trkpt lat="47.70473" lon="-3.36841">
        <ele>-1.3</ele>
        <time>2015-10-10T13:32:55Z</time>
      </trkpt>
      <trkpt lat="47.70471" lon="-3.36842">
        <ele>-1.3</ele>
        <time>2015-10-10T13:32:56Z</time>
      </trkpt>
      <trkpt lat="47.70468" lon="-3.36843">
        <ele>-1.3</ele>
        <time>2015-10-10T13:32:57Z</time>
      </trkpt>
      <trkpt lat="47.70466" lon="-3.36844">
        <ele>-1.3</ele>
        <time>2015-10-10T13:32:58Z</time>
      </trkpt>
      <trkpt lat="47.70463" lon="-3.36845">
        <ele>-1.3</ele>
        <time>2015-10-10T13:32:59Z</time>
      </trkpt>
      <trkpt lat="47.70461" lon="-3.36846">
        <ele>-1.3</ele>
        <time>2015-10-10T13:33:00Z</time>
      </trkpt>
      <trkpt lat="47.70459" lon="-3.36847">
        <ele>-1.3</ele>
        <time>2015-10-10T13:33:01Z</time>
      </trkpt>
      <trkpt lat="47.70456" lon="-3.36848">
        <ele>-1.3</ele>
        <time>2015-10-10T13:33:02Z</time>
      </trkpt>
      <trkpt lat="47.70454" lon="-3.36849">
        <ele>-1.3</ele>
        <time>2015-10-10T13:33:03Z</time>
      </trkpt>
      <trkpt lat="47.70452" lon="-3.3685">
        <ele>-1.3</ele>
        <time>2015-10-10T13:33:04Z</time>
      </trkpt>
      <trkpt lat="47.7045" lon="-3.36851">
        <ele>-1.3</ele>
        <time>2015-10-10T13:33:05Z</time>
      </trkpt>
      <trkpt lat="47.70447" lon="-3.36852">
        <ele>-1.3</ele>
        <time>2015-10-10T13:33:06Z</time>
      </trkpt>
      <trkpt lat="47.70445" lon="-3.36853">
        <ele>-1.3</ele>
        <time>2015-10-10T13:33:07Z</time>
      </trkpt>
      <trkpt lat="47.70443" lon="-3.36854">
        <ele>-1.3</ele>
        <time>2015-10-10T13:33:08Z</time>
      </trkpt>
      <trkpt lat="47.70441" lon="-3.36855">
        <ele>-1.3</ele>
        <time>2015-10-10T13:33:09Z</time>
      </trkpt>
      <trkpt lat="47.70438" lon="-3.36856">
        <ele>-1.3</ele>
        <time>2015-10-10T13:33:10Z</time>
      </trkpt>
      <trkpt lat="47.70436" lon="-3.36857">
        <ele>-1.3</ele>
        <time>2015-10-10T13:33:11Z</time>
      </trkpt>
      <trkpt lat="47.70433" lon="-3.36857">
        <ele>-1.3</ele>
        <time>2015-10-10T13:33:12Z</time>
      </trkpt>
      <trkpt lat="47.70431" lon="-3.36858">
        <ele>-1.3</ele>
        <time>2015-10-10T13:33:13Z</time>
      </trkpt>
      <trkpt lat="47.70428" lon="-3.36859">
        <ele>-1.3</ele>
        <time>2015-10-10T13:33:14Z</time>
      </trkpt>
      <trkpt lat="47.70426" lon="-3.3686">
        <ele>-1.3</ele>
        <time>2015-10-10T13:33:15Z</time>
      </trkpt>
      <trkpt lat="47.70423" lon="-3.36861">
        <ele>-1.3</ele>
        <time>2015-10-10T13:33:16Z</time>
      </trkpt>
      <trkpt lat="47.70421" lon="-3.36861">
        <ele>-1.3</ele>
        <time>2015-10-10T13:33:17Z</time>
      </trkpt>
      <trkpt lat="47.70419" lon="-3.36862">
        <ele>-1.3</ele>
        <time>2015-10-10T13:33:18Z</time>
      </trkpt>
      <trkpt lat="47.70416" lon="-3.36863">
        <ele>-1.3</ele>
        <time>2015-10-10T13:33:19Z</time>
      </trkpt>
      <trkpt lat="47.70414" lon="-3.36863">
        <ele>-1.3</ele>
        <time>2015-10-10T13:33:20Z</time>
      </trkpt>
      <trkpt lat="47.70411" lon="-3.36863">
        <ele>-1.3</ele>
        <time>2015-10-10T13:33:21Z</time>
      </trkpt>
      <trkpt lat="47.70409" lon="-3.36863">
        <ele>-1.3</ele>
        <time>2015-10-10T13:33:22Z</time>
      </trkpt>
      <trkpt lat="47.70407" lon="-3.36863">
        <ele>-1.3</ele>
        <time>2015-10-10T13:33:23Z</time>
      </trkpt>
      <trkpt lat="47.70405" lon="-3.36863">
        <ele>-1.3</ele>
        <time>2015-10-10T13:33:24Z</time>
      </trkpt>
      <trkpt lat="47.70403" lon="-3.36864">
        <ele>-1.3</ele>
        <time>2015-10-10T13:33:25Z</time>
      </trkpt>
      <trkpt lat="47.704" lon="-3.36864">
        <ele>-1.3</ele>
        <time>2015-10-10T13:33:26Z</time>
      </trkpt>
      <trkpt lat="47.70398" lon="-3.36865">
        <ele>-1.3</ele>
        <time>2015-10-10T13:33:27Z</time>
      </trkpt>
      <trkpt lat="47.70396" lon="-3.36865">
        <ele>-1.3</ele>
        <time>2015-10-10T13:33:28Z</time>
      </trkpt>
      <trkpt lat="47.70394" lon="-3.36866">
        <ele>-1.3</ele>
        <time>2015-10-10T13:33:29Z</time>
      </trkpt>
      <trkpt lat="47.70391" lon="-3.36866">
        <ele>-1.3</ele>
        <time>2015-10-10T13:33:30Z</time>
      </trkpt>
      <trkpt lat="47.70389" lon="-3.36867">
        <ele>-1.3</ele>
        <time>2015-10-10T13:33:31Z</time>
      </trkpt>
      <trkpt lat="47.70387" lon="-3.36868">
        <ele>-1.3</ele>
        <time>2015-10-10T13:33:32Z</time>
      </trkpt>
      <trkpt lat="47.70384" lon="-3.36868">
        <ele>-1.3</ele>
        <time>2015-10-10T13:33:33Z</time>
      </trkpt>
      <trkpt lat="47.70382" lon="-3.36868">
        <ele>-1.3</ele>
        <time>2015-10-10T13:33:34Z</time>
      </trkpt>
      <trkpt lat="47.7038" lon="-3.36868">
        <ele>-1.3</ele>
        <time>2015-10-10T13:33:35Z</time>
      </trkpt>
      <trkpt lat="47.70378" lon="-3.36869">
        <ele>-1.3</ele>
        <time>2015-10-10T13:33:36Z</time>
      </trkpt>
      <trkpt lat="47.70375" lon="-3.36869">
        <ele>-1.3</ele>
        <time>2015-10-10T13:33:37Z</time>
      </trkpt>
      <trkpt lat="47.70373" lon="-3.36869">
        <ele>-1.3</ele>
        <time>2015-10-10T13:33:38Z</time>
      </trkpt>
      <trkpt lat="47.70371" lon="-3.3687">
        <ele>-1.3</ele>
        <time>2015-10-10T13:33:39Z</time>
      </trkpt>
      <trkpt lat="47.70368" lon="-3.36871">
        <ele>-1.3</ele>
        <time>2015-10-10T13:33:40Z</time>
      </trkpt>
      <trkpt lat="47.70366" lon="-3.36872">
        <ele>-1.3</ele>
        <time>2015-10-10T13:33:41Z</time>
      </trkpt>
      <trkpt lat="47.70364" lon="-3.36872">
        <ele>-1.3</ele>
        <time>2015-10-10T13:33:42Z</time>
      </trkpt>
      <trkpt lat="47.70362" lon="-3.36872">
        <ele>-1.3</ele>
        <time>2015-10-10T13:33:43Z</time>
      </trkpt>
      <trkpt lat="47.70359" lon="-3.36873">
        <ele>-1.3</ele>
        <time>2015-10-10T13:33:44Z</time>
      </trkpt>
      <trkpt lat="47.70357" lon="-3.36873">
        <ele>-1.3</ele>
        <time>2015-10-10T13:33:45Z</time>
      </trkpt>
      <trkpt lat="47.70355" lon="-3.36873">
        <ele>-1.3</ele>
        <time>2015-10-10T13:33:46Z</time>
      </trkpt>
      <trkpt lat="47.70352" lon="-3.36874">
        <ele>-1.3</ele>
        <time>2015-10-10T13:33:47Z</time>
      </trkpt>
      <trkpt lat="47.7035" lon="-3.36874">
        <ele>-1.3</ele>
        <time>2015-10-10T13:33:48Z</time>
      </trkpt>
      <trkpt lat="47.70348" lon="-3.36874">
        <ele>-1.3</ele>
        <time>2015-10-10T13:33:49Z</time>
      </trkpt>
      <trkpt lat="47.70345" lon="-3.36875">
        <ele>-1.3</ele>
        <time>2015-10-10T13:33:50Z</time>
      </trkpt>
      <trkpt lat="47.70343" lon="-3.36875">
        <ele>-1.3</ele>
        <time>2015-10-10T13:33:51Z</time>
      </trkpt>
      <trkpt lat="47.7034" lon="-3.36875">
        <ele>-1.3</ele>
        <time>2015-10-10T13:33:52Z</time>
      </trkpt>
      <trkpt lat="47.70338" lon="-3.36875">
        <ele>-1.3</ele>
        <time>2015-10-10T13:33:53Z</time>
      </trkpt>
      <trkpt lat="47.70336" lon="-3.36875">
        <ele>-1.3</ele>
        <time>2015-10-10T13:33:54Z</time>
      </trkpt>
      <trkpt lat="47.70333" lon="-3.36875">
        <ele>-1.3</ele>
        <time>2015-10-10T13:33:55Z</time>
      </trkpt>
      <trkpt lat="47.70331" lon="-3.36875">
        <ele>-1.3</ele>
        <time>2015-10-10T13:33:56Z</time>
      </trkpt>
      <trkpt lat="47.70329" lon="-3.36875">
        <ele>-1.3</ele>
        <time>2015-10-10T13:33:57Z</time>
      </trkpt>
      <trkpt lat="47.70326" lon="-3.36875">
        <ele>-1.3</ele>
        <time>2015-10-10T13:33:58Z</time>
      </trkpt>
      <trkpt lat="47.70324" lon="-3.36875">
        <ele>-1.3</ele>
        <time>2015-10-10T13:33:59Z</time>
      </trkpt>
      <trkpt lat="47.70322" lon="-3.36875">
        <ele>-1.3</ele>
        <time>2015-10-10T13:34:00Z</time>
      </trkpt>
      <trkpt lat="47.70319" lon="-3.36876">
        <ele>-1.3</ele>
        <time>2015-10-10T13:34:01Z</time>
      </trkpt>
      <trkpt lat="47.70317" lon="-3.36876">
        <ele>-1.3</ele>
        <time>2015-10-10T13:34:02Z</time>
      </trkpt>
      <trkpt lat="47.70315" lon="-3.36876">
        <ele>-1.3</ele>
        <time>2015-10-10T13:34:03Z</time>
      </trkpt>
      <trkpt lat="47.70312" lon="-3.36876">
        <ele>-1.3</ele>
        <time>2015-10-10T13:34:04Z</time>
      </trkpt>
      <trkpt lat="47.7031" lon="-3.36876">
        <ele>-1.3</ele>
        <time>2015-10-10T13:34:05Z</time>
      </trkpt>
      <trkpt lat="47.70308" lon="-3.36876">
        <ele>-1.3</ele>
        <time>2015-10-10T13:34:06Z</time>
      </trkpt>
      <trkpt lat="47.70305" lon="-3.36876">
        <ele>-1.3</ele>
        <time>2015-10-10T13:34:07Z</time>
      </trkpt>
      <trkpt lat="47.70302" lon="-3.36876">
        <ele>-1.3</ele>
        <time>2015-10-10T13:34:08Z</time>
      </trkpt>
      <trkpt lat="47.703" lon="-3.36876">
        <ele>-1.3</ele>
        <time>2015-10-10T13:34:09Z</time>
      </trkpt>
      <trkpt lat="47.70298" lon="-3.36876">
        <ele>-1.3</ele>
        <time>2015-10-10T13:34:10Z</time>
      </trkpt>
      <trkpt lat="47.70295" lon="-3.36876">
        <ele>-1.3</ele>
        <time>2015-10-10T13:34:11Z</time>
      </trkpt>
      <trkpt lat="47.70293" lon="-3.36876">
        <ele>-1.3</ele>
        <time>2015-10-10T13:34:12Z</time>
      </trkpt>
      <trkpt lat="47.7029" lon="-3.36875">
        <ele>-1.3</ele>
        <time>2015-10-10T13:34:13Z</time>
      </trkpt>
      <trkpt lat="47.70287" lon="-3.36875">
        <ele>-1.3</ele>
        <time>2015-10-10T13:34:14Z</time>
      </trkpt>
      <trkpt lat="47.70285" lon="-3.36875">
        <ele>-1.3</ele>
        <time>2015-10-10T13:34:15Z</time>
      </trkpt>
      <trkpt lat="47.70282" lon="-3.36874">
        <ele>-1.3</ele>
        <time>2015-10-10T13:34:16Z</time>
      </trkpt>
      <trkpt lat="47.7028" lon="-3.36874">
        <ele>-1.3</ele>
        <time>2015-10-10T13:34:17Z</time>
      </trkpt>
      <trkpt lat="47.70277" lon="-3.36873">
        <ele>-1.3</ele>
        <time>2015-10-10T13:34:18Z</time>
      </trkpt>
      <trkpt lat="47.70275" lon="-3.36873">
        <ele>-1.3</ele>
        <time>2015-10-10T13:34:19Z</time>
      </trkpt>
      <trkpt lat="47.70272" lon="-3.36873">
        <ele>-1.3</ele>
        <time>2015-10-10T13:34:20Z</time>
      </trkpt>
      <trkpt lat="47.7027" lon="-3.36873">
        <ele>-1.3</ele>
        <time>2015-10-10T13:34:21Z</time>
      </trkpt>
      <trkpt lat="47.70267" lon="-3.36873">
        <ele>-1.3</ele>
        <time>2015-10-10T13:34:22Z</time>
      </trkpt>
      <trkpt lat="47.70265" lon="-3.36873">
        <ele>-1.3</ele>
        <time>2015-10-10T13:34:23Z</time>
      </trkpt>
      <trkpt lat="47.70262" lon="-3.36873">
        <ele>-1.3</ele>
        <time>2015-10-10T13:34:24Z</time>
      </trkpt>
      <trkpt lat="47.7026" lon="-3.36874">
        <ele>-1.3</ele>
        <time>2015-10-10T13:34:25Z</time>
      </trkpt>
      <trkpt lat="47.70257" lon="-3.36874">
        <ele>-1.3</ele>
        <time>2015-10-10T13:34:26Z</time>
      </trkpt>
      <trkpt lat="47.70255" lon="-3.36874">
        <ele>-1.3</ele>
        <time>2015-10-10T13:34:27Z</time>
      </trkpt>
      <trkpt lat="47.70253" lon="-3.36875">
        <ele>-1.3</ele>
        <time>2015-10-10T13:34:28Z</time>
      </trkpt>
      <trkpt lat="47.7025" lon="-3.36875">
        <ele>-1.3</ele>
        <time>2015-10-10T13:34:29Z</time>
      </trkpt>
      <trkpt lat="47.70248" lon="-3.36876">
        <ele>-1.3</ele>
        <time>2015-10-10T13:34:30Z</time>
      </trkpt>
      <trkpt lat="47.70246" lon="-3.36877">
        <ele>-1.3</ele>
        <time>2015-10-10T13:34:31Z</time>
      </trkpt>
      <trkpt lat="47.70243" lon="-3.36877">
        <ele>-1.3</ele>
        <time>2015-10-10T13:34:32Z</time>
      </trkpt>
      <trkpt lat="47.70241" lon="-3.36878">
        <ele>-1.3</ele>
        <time>2015-10-10T13:34:33Z</time>
      </trkpt>
      <trkpt lat="47.70239" lon="-3.3688">
        <ele>-1.3</ele>
        <time>2015-10-10T13:34:34Z</time>
      </trkpt>
      <trkpt lat="47.70237" lon="-3.36881">
        <ele>-1.3</ele>
        <time>2015-10-10T13:34:35Z</time>
      </trkpt>
      <trkpt lat="47.70235" lon="-3.36883">
        <ele>-1.3</ele>
        <time>2015-10-10T13:34:36Z</time>
      </trkpt>
      <trkpt lat="47.70233" lon="-3.36884">
        <ele>-1.3</ele>
        <time>2015-10-10T13:34:37Z</time>
      </trkpt>
      <trkpt lat="47.70231" lon="-3.36886">
        <ele>-1.3</ele>
        <time>2015-10-10T13:34:38Z</time>
      </trkpt>
      <trkpt lat="47.70229" lon="-3.36887">
        <ele>-1.3</ele>
        <time>2015-10-10T13:34:39Z</time>
      </trkpt>
      <trkpt lat="47.70227" lon="-3.36887">
        <ele>-1.3</ele>
        <time>2015-10-10T13:34:40Z</time>
      </trkpt>
      <trkpt lat="47.70225" lon="-3.36888">
        <ele>-1.3</ele>
        <time>2015-10-10T13:34:41Z</time>
      </trkpt>
      <trkpt lat="47.70223" lon="-3.36889">
        <ele>-1.3</ele>
        <time>2015-10-10T13:34:42Z</time>
      </trkpt>
      <trkpt lat="47.70221" lon="-3.36889">
        <ele>-1.3</ele>
        <time>2015-10-10T13:34:43Z</time>
      </trkpt>
      <trkpt lat="47.70219" lon="-3.3689">
        <ele>-1.3</ele>
        <time>2015-10-10T13:34:44Z</time>
      </trkpt>
      <trkpt lat="47.70217" lon="-3.36891">
        <ele>-1.3</ele>
        <time>2015-10-10T13:34:45Z</time>
      </trkpt>
      <trkpt lat="47.70215" lon="-3.36891">
        <ele>-1.3</ele>
        <time>2015-10-10T13:34:46Z</time>
      </trkpt>
      <trkpt lat="47.70213" lon="-3.36892">
        <ele>-1.3</ele>
        <time>2015-10-10T13:34:47Z</time>
      </trkpt>
      <trkpt lat="47.70211" lon="-3.36892">
        <ele>-1.3</ele>
        <time>2015-10-10T13:34:48Z</time>
      </trkpt>
      <trkpt lat="47.70209" lon="-3.36893">
        <ele>-1.3</ele>
        <time>2015-10-10T13:34:49Z</time>
      </trkpt>
      <trkpt lat="47.70207" lon="-3.36893">
        <ele>-1.3</ele>
        <time>2015-10-10T13:34:50Z</time>
      </trkpt>
      <trkpt lat="47.70205" lon="-3.36893">
        <ele>-1.3</ele>
        <time>2015-10-10T13:34:51Z</time>
      </trkpt>
      <trkpt lat="47.70203" lon="-3.36894">
        <ele>-1.3</ele>
        <time>2015-10-10T13:34:52Z</time>
      </trkpt>
      <trkpt lat="47.70201" lon="-3.36894">
        <ele>-1.3</ele>
        <time>2015-10-10T13:34:53Z</time>
      </trkpt>
      <trkpt lat="47.70199" lon="-3.36895">
        <ele>-1.3</ele>
        <time>2015-10-10T13:34:54Z</time>
      </trkpt>
      <trkpt lat="47.70197" lon="-3.36895">
        <ele>-1.3</ele>
        <time>2015-10-10T13:34:55Z</time>
      </trkpt>
      <trkpt lat="47.70195" lon="-3.36895">
        <ele>-1.3</ele>
        <time>2015-10-10T13:34:56Z</time>
      </trkpt>
      <trkpt lat="47.70193" lon="-3.36895">
        <ele>-1.3</ele>
        <time>2015-10-10T13:34:57Z</time>
      </trkpt>
      <trkpt lat="47.7019" lon="-3.36896">
        <ele>-1.3</ele>
        <time>2015-10-10T13:34:58Z</time>
      </trkpt>
      <trkpt lat="47.70188" lon="-3.36896">
        <ele>-1.3</ele>
        <time>2015-10-10T13:34:59Z</time>
      </trkpt>
      <trkpt lat="47.70186" lon="-3.36896">
        <ele>-1.3</ele>
        <time>2015-10-10T13:35:00Z</time>
      </trkpt>
      <trkpt lat="47.70184" lon="-3.36897">
        <ele>-1.3</ele>
        <time>2015-10-10T13:35:01Z</time>
      </trkpt>
      <trkpt lat="47.70181" lon="-3.36897">
        <ele>-1.3</ele>
        <time>2015-10-10T13:35:02Z</time>
      </trkpt>
      <trkpt lat="47.70179" lon="-3.36897">
        <ele>-1.3</ele>
        <time>2015-10-10T13:35:03Z</time>
      </trkpt>
      <trkpt lat="47.70177" lon="-3.36898">
        <ele>-1.3</ele>
        <time>2015-10-10T13:35:04Z</time>
      </trkpt>
      <trkpt lat="47.70174" lon="-3.36899">
        <ele>-1.3</ele>
        <time>2015-10-10T13:35:05Z</time>
      </trkpt>
      <trkpt lat="47.70172" lon="-3.36899">
        <ele>-1.3</ele>
        <time>2015-10-10T13:35:06Z</time>
      </trkpt>
      <trkpt lat="47.7017" lon="-3.369">
        <ele>-1.3</ele>
        <time>2015-10-10T13:35:07Z</time>
      </trkpt>
      <trkpt lat="47.70168" lon="-3.36901">
        <ele>-1.3</ele>
        <time>2015-10-10T13:35:08Z</time>
      </trkpt>
      <trkpt lat="47.70166" lon="-3.36901">
        <ele>-1.3</ele>
        <time>2015-10-10T13:35:09Z</time>
      </trkpt>
      <trkpt lat="47.70163" lon="-3.36901">
        <ele>-1.3</ele>
        <time>2015-10-10T13:35:10Z</time>
      </trkpt>
      <trkpt lat="47.70161" lon="-3.36902">
        <ele>-1.3</ele>
        <time>2015-10-10T13:35:11Z</time>
      </trkpt>
      <trkpt lat="47.70159" lon="-3.36902">
        <ele>-1.3</ele>
        <time>2015-10-10T13:35:12Z</time>
      </trkpt>
      <trkpt lat="47.70157" lon="-3.36902">
        <ele>-1.3</ele>
        <time>2015-10-10T13:35:13Z</time>
      </trkpt>
      <trkpt lat="47.70154" lon="-3.36902">
        <ele>-1.3</ele>
        <time>2015-10-10T13:35:14Z</time>
      </trkpt>
      <trkpt lat="47.70152" lon="-3.36903">
        <ele>-1.3</ele>
        <time>2015-10-10T13:35:15Z</time>
      </trkpt>
      <trkpt lat="47.70149" lon="-3.36903">
        <ele>-1.3</ele>
        <time>2015-10-10T13:35:16Z</time>
      </trkpt>
      <trkpt lat="47.70147" lon="-3.36904">
        <ele>-1.3</ele>
        <time>2015-10-10T13:35:17Z</time>
      </trkpt>
      <trkpt lat="47.70145" lon="-3.36904">
        <ele>-1.3</ele>
        <time>2015-10-10T13:35:18Z</time>
      </trkpt>
      <trkpt lat="47.70143" lon="-3.36905">
        <ele>-1.3</ele>
        <time>2015-10-10T13:35:19Z</time>
      </trkpt>
      <trkpt lat="47.7014" lon="-3.36905">
        <ele>-1.3</ele>
        <time>2015-10-10T13:35:20Z</time>
      </trkpt>
      <trkpt lat="47.70138" lon="-3.36906">
        <ele>-1.3</ele>
        <time>2015-10-10T13:35:21Z</time>
      </trkpt>
      <trkpt lat="47.70136" lon="-3.36906">
        <ele>-1.3</ele>
        <time>2015-10-10T13:35:22Z</time>
      </trkpt>
      <trkpt lat="47.70133" lon="-3.36907">
        <ele>-1.3</ele>
        <time>2015-10-10T13:35:23Z</time>
      </trkpt>
      <trkpt lat="47.70131" lon="-3.36907">
        <ele>-1.3</ele>
        <time>2015-10-10T13:35:24Z</time>
      </trkpt>
      <trkpt lat="47.70129" lon="-3.36908">
        <ele>-1.3</ele>
        <time>2015-10-10T13:35:25Z</time>
      </trkpt>
      <trkpt lat="47.70126" lon="-3.36908">
        <ele>-1.3</ele>
        <time>2015-10-10T13:35:26Z</time>
      </trkpt>
      <trkpt lat="47.70124" lon="-3.36909">
        <ele>-1.3</ele>
        <time>2015-10-10T13:35:27Z</time>
      </trkpt>
      <trkpt lat="47.70122" lon="-3.36909">
        <ele>-1.3</ele>
        <time>2015-10-10T13:35:28Z</time>
      </trkpt>
      <trkpt lat="47.70119" lon="-3.3691">
        <ele>-1.3</ele>
        <time>2015-10-10T13:35:29Z</time>
      </trkpt>
      <trkpt lat="47.70117" lon="-3.3691">
        <ele>-1.3</ele>
        <time>2015-10-10T13:35:30Z</time>
      </trkpt>
      <trkpt lat="47.70114" lon="-3.3691">
        <ele>-1.3</ele>
        <time>2015-10-10T13:35:31Z</time>
      </trkpt>
      <trkpt lat="47.70112" lon="-3.3691">
        <ele>-1.3</ele>
        <time>2015-10-10T13:35:32Z</time>
      </trkpt>
      <trkpt lat="47.7011" lon="-3.36911">
        <ele>-0.82</ele>
        <time>2015-10-10T13:35:33Z</time>
      </trkpt>
      <trkpt lat="47.70107" lon="-3.36911">
        <ele>-0.82</ele>
        <time>2015-10-10T13:35:34Z</time>
      </trkpt>
      <trkpt lat="47.70105" lon="-3.36911">
        <ele>-0.82</ele>
        <time>2015-10-10T13:35:35Z</time>
      </trkpt>
      <trkpt lat="47.70102" lon="-3.36911">
        <ele>-0.82</ele>
        <time>2015-10-10T13:35:36Z</time>
      </trkpt>
      <trkpt lat="47.70099" lon="-3.36911">
        <ele>-0.82</ele>
        <time>2015-10-10T13:35:37Z</time>
      </trkpt>
      <trkpt lat="47.70097" lon="-3.36911">
        <ele>-0.82</ele>
        <time>2015-10-10T13:35:38Z</time>
      </trkpt>
      <trkpt lat="47.70094" lon="-3.36912">
        <ele>-0.82</ele>
        <time>2015-10-10T13:35:39Z</time>
      </trkpt>
      <trkpt lat="47.70091" lon="-3.36911">
        <ele>-0.82</ele>
        <time>2015-10-10T13:35:40Z</time>
      </trkpt>
      <trkpt lat="47.70088" lon="-3.36912">
        <ele>-0.82</ele>
        <time>2015-10-10T13:35:41Z</time>
      </trkpt>
      <trkpt lat="47.70086" lon="-3.36912">
        <ele>-0.82</ele>
        <time>2015-10-10T13:35:42Z</time>
      </trkpt>
      <trkpt lat="47.70083" lon="-3.36912">
        <ele>-0.82</ele>
        <time>2015-10-10T13:35:43Z</time>
      </trkpt>
      <trkpt lat="47.7008" lon="-3.36912">
        <ele>-0.82</ele>
        <time>2015-10-10T13:35:44Z</time>
      </trkpt>
      <trkpt lat="47.70078" lon="-3.36913">
        <ele>-0.82</ele>
        <time>2015-10-10T13:35:45Z</time>
      </trkpt>
      <trkpt lat="47.70075" lon="-3.36913">
        <ele>-0.82</ele>
        <time>2015-10-10T13:35:46Z</time>
      </trkpt>
      <trkpt lat="47.70072" lon="-3.36913">
        <ele>-0.82</ele>
        <time>2015-10-10T13:35:47Z</time>
      </trkpt>
      <trkpt lat="47.7007" lon="-3.36913">
        <ele>-0.82</ele>
        <time>2015-10-10T13:35:48Z</time>
      </trkpt>
      <trkpt lat="47.70067" lon="-3.36913">
        <ele>-0.82</ele>
        <time>2015-10-10T13:35:49Z</time>
      </trkpt>
      <trkpt lat="47.70064" lon="-3.36913">
        <ele>-0.82</ele>
        <time>2015-10-10T13:35:50Z</time>
      </trkpt>
      <trkpt lat="47.70062" lon="-3.36914">
        <ele>-0.82</ele>
        <time>2015-10-10T13:35:51Z</time>
      </trkpt>
      <trkpt lat="47.70059" lon="-3.36914">
        <ele>-0.82</ele>
        <time>2015-10-10T13:35:52Z</time>
      </trkpt>
      <trkpt lat="47.70057" lon="-3.36915">
        <ele>-0.82</ele>
        <time>2015-10-10T13:35:53Z</time>
      </trkpt>
      <trkpt lat="47.70054" lon="-3.36915">
        <ele>-0.82</ele>
        <time>2015-10-10T13:35:54Z</time>
      </trkpt>
      <trkpt lat="47.70051" lon="-3.36916">
        <ele>-0.82</ele>
        <time>2015-10-10T13:35:55Z</time>
      </trkpt>
      <trkpt lat="47.70049" lon="-3.36916">
        <ele>-0.82</ele>
        <time>2015-10-10T13:35:56Z</time>
      </trkpt>
      <trkpt lat="47.70047" lon="-3.36917">
        <ele>-0.82</ele>
        <time>2015-10-10T13:35:57Z</time>
      </trkpt>
      <trkpt lat="47.70044" lon="-3.36917">
        <ele>-0.82</ele>
        <time>2015-10-10T13:35:58Z</time>
      </trkpt>
      <trkpt lat="47.70041" lon="-3.36918">
        <ele>-0.82</ele>
        <time>2015-10-10T13:35:59Z</time>
      </trkpt>
      <trkpt lat="47.70039" lon="-3.36918">
        <ele>-0.82</ele>
        <time>2015-10-10T13:36:00Z</time>
      </trkpt>
      <trkpt lat="47.70036" lon="-3.36918">
        <ele>-0.82</ele>
        <time>2015-10-10T13:36:01Z</time>
      </trkpt>
      <trkpt lat="47.70034" lon="-3.36919">
        <ele>-0.82</ele>
        <time>2015-10-10T13:36:02Z</time>
      </trkpt>
      <trkpt lat="47.70031" lon="-3.36919">
        <ele>-0.82</ele>
        <time>2015-10-10T13:36:03Z</time>
      </trkpt>
      <trkpt lat="47.70029" lon="-3.36919">
        <ele>-0.82</ele>
        <time>2015-10-10T13:36:04Z</time>
      </trkpt>
      <trkpt lat="47.70026" lon="-3.3692">
        <ele>-0.34</ele>
        <time>2015-10-10T13:36:05Z</time>
      </trkpt>
      <trkpt lat="47.70024" lon="-3.3692">
        <ele>-0.82</ele>
        <time>2015-10-10T13:36:06Z</time>
      </trkpt>
      <trkpt lat="47.70021" lon="-3.3692">
        <ele>-0.82</ele>
        <time>2015-10-10T13:36:07Z</time>
      </trkpt>
      <trkpt lat="47.70018" lon="-3.3692">
        <ele>-0.34</ele>
        <time>2015-10-10T13:36:08Z</time>
      </trkpt>
      <trkpt lat="47.70016" lon="-3.36921">
        <ele>-0.34</ele>
        <time>2015-10-10T13:36:09Z</time>
      </trkpt>
      <trkpt lat="47.70013" lon="-3.36921">
        <ele>-0.82</ele>
        <time>2015-10-10T13:36:10Z</time>
      </trkpt>
      <trkpt lat="47.7001" lon="-3.36921">
        <ele>-0.82</ele>
        <time>2015-10-10T13:36:11Z</time>
      </trkpt>
      <trkpt lat="47.70008" lon="-3.36922">
        <ele>-0.82</ele>
        <time>2015-10-10T13:36:12Z</time>
      </trkpt>
      <trkpt lat="47.70005" lon="-3.36922">
        <ele>-0.82</ele>
        <time>2015-10-10T13:36:13Z</time>
      </trkpt>
      <trkpt lat="47.70002" lon="-3.36922">
        <ele>-0.82</ele>
        <time>2015-10-10T13:36:14Z</time>
      </trkpt>
      <trkpt lat="47.7" lon="-3.36922">
        <ele>-0.34</ele>
        <time>2015-10-10T13:36:15Z</time>
      </trkpt>
      <trkpt lat="47.69997" lon="-3.36922">
        <ele>-0.82</ele>
        <time>2015-10-10T13:36:16Z</time>
      </trkpt>
      <trkpt lat="47.69995" lon="-3.36923">
        <ele>-0.82</ele>
        <time>2015-10-10T13:36:17Z</time>
      </trkpt>
      <trkpt lat="47.69992" lon="-3.36923">
        <ele>-0.82</ele>
        <time>2015-10-10T13:36:18Z</time>
      </trkpt>
      <trkpt lat="47.6999" lon="-3.36923">
        <ele>-0.82</ele>
        <time>2015-10-10T13:36:19Z</time>
      </trkpt>
      <trkpt lat="47.69987" lon="-3.36922">
        <ele>-0.82</ele>
        <time>2015-10-10T13:36:20Z</time>
      </trkpt>
      <trkpt lat="47.69984" lon="-3.36923">
        <ele>-0.82</ele>
        <time>2015-10-10T13:36:21Z</time>
      </trkpt>
      <trkpt lat="47.69982" lon="-3.36923">
        <ele>-0.82</ele>
        <time>2015-10-10T13:36:22Z</time>
      </trkpt>
      <trkpt lat="47.69979" lon="-3.36923">
        <ele>-0.82</ele>
        <time>2015-10-10T13:36:23Z</time>
      </trkpt>
      <trkpt lat="47.69976" lon="-3.36923">
        <ele>-0.82</ele>
        <time>2015-10-10T13:36:24Z</time>
      </trkpt>
      <trkpt lat="47.69974" lon="-3.36923">
        <ele>-0.82</ele>
        <time>2015-10-10T13:36:25Z</time>
      </trkpt>
      <trkpt lat="47.69971" lon="-3.36923">
        <ele>-0.82</ele>
        <time>2015-10-10T13:36:26Z</time>
      </trkpt>
      <trkpt lat="47.69968" lon="-3.36924">
        <ele>-0.82</ele>
        <time>2015-10-10T13:36:27Z</time>
      </trkpt>
      <trkpt lat="47.69966" lon="-3.36924">
        <ele>-0.82</ele>
        <time>2015-10-10T13:36:28Z</time>
      </trkpt>
      <trkpt lat="47.69963" lon="-3.36924">
        <ele>-0.82</ele>
        <time>2015-10-10T13:36:29Z</time>
      </trkpt>
      <trkpt lat="47.6996" lon="-3.36924">
        <ele>-0.34</ele>
        <time>2015-10-10T13:36:30Z</time>
      </trkpt>
      <trkpt lat="47.69958" lon="-3.36924">
        <ele>-0.82</ele>
        <time>2015-10-10T13:36:31Z</time>
      </trkpt>
      <trkpt lat="47.69955" lon="-3.36924">
        <ele>-0.82</ele>
        <time>2015-10-10T13:36:32Z</time>
      </trkpt>
      <trkpt lat="47.69952" lon="-3.36923">
        <ele>-0.82</ele>
        <time>2015-10-10T13:36:33Z</time>
      </trkpt>
      <trkpt lat="47.69949" lon="-3.36922">
        <ele>-0.82</ele>
        <time>2015-10-10T13:36:34Z</time>
      </trkpt>
      <trkpt lat="47.69947" lon="-3.36922">
        <ele>-0.82</ele>
        <time>2015-10-10T13:36:35Z</time>
      </trkpt>
      <trkpt lat="47.69944" lon="-3.36922">
        <ele>-0.82</ele>
        <time>2015-10-10T13:36:36Z</time>
      </trkpt>
      <trkpt lat="47.69941" lon="-3.36923">
        <ele>-0.82</ele>
        <time>2015-10-10T13:36:37Z</time>
      </trkpt>
      <trkpt lat="47.69938" lon="-3.36923">
        <ele>-0.82</ele>
        <time>2015-10-10T13:36:38Z</time>
      </trkpt>
      <trkpt lat="47.69936" lon="-3.36923">
        <ele>-0.82</ele>
        <time>2015-10-10T13:36:39Z</time>
      </trkpt>
      <trkpt lat="47.69933" lon="-3.36923">
        <ele>-0.82</ele>
        <time>2015-10-10T13:36:40Z</time>
      </trkpt>
      <trkpt lat="47.6993" lon="-3.36923">
        <ele>-0.82</ele>
        <time>2015-10-10T13:36:41Z</time>
      </trkpt>
      <trkpt lat="47.69927" lon="-3.36923">
        <ele>-0.82</ele>
        <time>2015-10-10T13:36:42Z</time>
      </trkpt>
      <trkpt lat="47.69924" lon="-3.36923">
        <ele>-0.82</ele>
        <time>2015-10-10T13:36:43Z</time>
      </trkpt>
      <trkpt lat="47.69922" lon="-3.36923">
        <ele>-0.82</ele>
        <time>2015-10-10T13:36:44Z</time>
      </trkpt>
      <trkpt lat="47.69919" lon="-3.36923">
        <ele>-0.82</ele>
        <time>2015-10-10T13:36:45Z</time>
      </trkpt>
      <trkpt lat="47.69916" lon="-3.36923">
        <ele>-0.82</ele>
        <time>2015-10-10T13:36:46Z</time>
      </trkpt>
      <trkpt lat="47.69914" lon="-3.36923">
        <ele>-0.82</ele>
        <time>2015-10-10T13:36:47Z</time>
      </trkpt>
      <trkpt lat="47.69911" lon="-3.36922">
        <ele>-0.82</ele>
        <time>2015-10-10T13:36:48Z</time>
      </trkpt>
      <trkpt lat="47.69908" lon="-3.36921">
        <ele>-0.82</ele>
        <time>2015-10-10T13:36:49Z</time>
      </trkpt>
      <trkpt lat="47.69905" lon="-3.36921">
        <ele>-0.82</ele>
        <time>2015-10-10T13:36:50Z</time>
      </trkpt>
      <trkpt lat="47.69902" lon="-3.36921">
        <ele>-0.82</ele>
        <time>2015-10-10T13:36:51Z</time>
      </trkpt>
      <trkpt lat="47.69899" lon="-3.36921">
        <ele>-0.82</ele>
        <time>2015-10-10T13:36:52Z</time>
      </trkpt>
      <trkpt lat="47.69896" lon="-3.36921">
        <ele>-0.82</ele>
        <time>2015-10-10T13:36:53Z</time>
      </trkpt>
      <trkpt lat="47.69893" lon="-3.36921">
        <ele>-0.82</ele>
        <time>2015-10-10T13:36:54Z</time>
      </trkpt>
      <trkpt lat="47.6989" lon="-3.36921">
        <ele>-0.82</ele>
        <time>2015-10-10T13:36:55Z</time>
      </trkpt>
      <trkpt lat="47.69887" lon="-3.36921">
        <ele>-0.82</ele>
        <time>2015-10-10T13:36:56Z</time>
      </trkpt>
      <trkpt lat="47.69885" lon="-3.36921">
        <ele>-0.82</ele>
        <time>2015-10-10T13:36:57Z</time>
      </trkpt>
      <trkpt lat="47.69882" lon="-3.3692">
        <ele>-0.82</ele>
        <time>2015-10-10T13:36:58Z</time>
      </trkpt>
      <trkpt lat="47.69879" lon="-3.3692">
        <ele>-0.82</ele>
        <time>2015-10-10T13:36:59Z</time>
      </trkpt>
      <trkpt lat="47.69876" lon="-3.36919">
        <ele>-0.82</ele>
        <time>2015-10-10T13:37:00Z</time>
      </trkpt>
      <trkpt lat="47.69873" lon="-3.36919">
        <ele>-0.82</ele>
        <time>2015-10-10T13:37:01Z</time>
      </trkpt>
      <trkpt lat="47.6987" lon="-3.36919">
        <ele>-0.82</ele>
        <time>2015-10-10T13:37:02Z</time>
      </trkpt>
      <trkpt lat="47.69867" lon="-3.36919">
        <ele>-0.82</ele>
        <time>2015-10-10T13:37:03Z</time>
      </trkpt>
      <trkpt lat="47.69864" lon="-3.36919">
        <ele>-0.82</ele>
        <time>2015-10-10T13:37:04Z</time>
      </trkpt>
      <trkpt lat="47.69861" lon="-3.36919">
        <ele>0.14</ele>
        <time>2015-10-10T13:37:05Z</time>
      </trkpt>
      <trkpt lat="47.69858" lon="-3.36919">
        <ele>0.14</ele>
        <time>2015-10-10T13:37:06Z</time>
      </trkpt>
      <trkpt lat="47.69855" lon="-3.36918">
        <ele>0.14</ele>
        <time>2015-10-10T13:37:07Z</time>
      </trkpt>
      <trkpt lat="47.69853" lon="-3.36917">
        <ele>0.14</ele>
        <time>2015-10-10T13:37:08Z</time>
      </trkpt>
      <trkpt lat="47.6985" lon="-3.36916">
        <ele>0.14</ele>
        <time>2015-10-10T13:37:09Z</time>
      </trkpt>
      <trkpt lat="47.69847" lon="-3.36915">
        <ele>0.14</ele>
        <time>2015-10-10T13:37:10Z</time>
      </trkpt>
      <trkpt lat="47.69844" lon="-3.36914">
        <ele>0.14</ele>
        <time>2015-10-10T13:37:11Z</time>
      </trkpt>
      <trkpt lat="47.69841" lon="-3.36913">
        <ele>0.14</ele>
        <time>2015-10-10T13:37:12Z</time>
      </trkpt>
      <trkpt lat="47.69838" lon="-3.36912">
        <ele>1.1</ele>
        <time>2015-10-10T13:37:13Z</time>
      </trkpt>
      <trkpt lat="47.69835" lon="-3.36911">
        <ele>1.1</ele>
        <time>2015-10-10T13:37:14Z</time>
      </trkpt>
      <trkpt lat="47.69832" lon="-3.3691">
        <ele>-0.34</ele>
        <time>2015-10-10T13:37:15Z</time>
      </trkpt>
      <trkpt lat="47.69829" lon="-3.3691">
        <ele>-0.82</ele>
        <time>2015-10-10T13:37:16Z</time>
      </trkpt>
      <trkpt lat="47.69826" lon="-3.3691">
        <ele>-0.82</ele>
        <time>2015-10-10T13:37:17Z</time>
      </trkpt>
      <trkpt lat="47.69823" lon="-3.3691">
        <ele>-0.82</ele>
        <time>2015-10-10T13:37:18Z</time>
      </trkpt>
      <trkpt lat="47.6982" lon="-3.3691">
        <ele>-0.82</ele>
        <time>2015-10-10T13:37:19Z</time>
      </trkpt>
      <trkpt lat="47.69817" lon="-3.3691">
        <ele>-0.82</ele>
        <time>2015-10-10T13:37:20Z</time>
      </trkpt>
      <trkpt lat="47.69814" lon="-3.3691">
        <ele>-0.82</ele>
        <time>2015-10-10T13:37:21Z</time>
      </trkpt>
      <trkpt lat="47.69811" lon="-3.3691">
        <ele>-0.82</ele>
        <time>2015-10-10T13:37:22Z</time>
      </trkpt>
      <trkpt lat="47.69808" lon="-3.3691">
        <ele>-0.82</ele>
        <time>2015-10-10T13:37:23Z</time>
      </trkpt>
      <trkpt lat="47.69805" lon="-3.3691">
        <ele>-0.82</ele>
        <time>2015-10-10T13:37:24Z</time>
      </trkpt>
      <trkpt lat="47.69802" lon="-3.3691">
        <ele>-0.82</ele>
        <time>2015-10-10T13:37:25Z</time>
      </trkpt>
      <trkpt lat="47.69799" lon="-3.3691">
        <ele>-0.82</ele>
        <time>2015-10-10T13:37:26Z</time>
      </trkpt>
      <trkpt lat="47.69796" lon="-3.36909">
        <ele>-0.82</ele>
        <time>2015-10-10T13:37:27Z</time>
      </trkpt>
      <trkpt lat="47.69794" lon="-3.36909">
        <ele>-0.82</ele>
        <time>2015-10-10T13:37:28Z</time>
      </trkpt>
      <trkpt lat="47.69791" lon="-3.36909">
        <ele>-0.82</ele>
        <time>2015-10-10T13:37:29Z</time>
      </trkpt>
      <trkpt lat="47.69787" lon="-3.36909">
        <ele>-1.3</ele>
        <time>2015-10-10T13:37:30Z</time>
      </trkpt>
      <trkpt lat="47.69785" lon="-3.36909">
        <ele>-0.82</ele>
        <time>2015-10-10T13:37:31Z</time>
      </trkpt>
      <trkpt lat="47.69782" lon="-3.36909">
        <ele>-0.82</ele>
        <time>2015-10-10T13:37:32Z</time>
      </trkpt>
      <trkpt lat="47.69779" lon="-3.36909">
        <ele>-0.82</ele>
        <time>2015-10-10T13:37:33Z</time>
      </trkpt>
      <trkpt lat="47.69776" lon="-3.36909">
        <ele>-0.82</ele>
        <time>2015-10-10T13:37:34Z</time>
      </trkpt>
      <trkpt lat="47.69773" lon="-3.36909">
        <ele>-0.82</ele>
        <time>2015-10-10T13:37:35Z</time>
      </trkpt>
      <trkpt lat="47.6977" lon="-3.36909">
        <ele>-0.82</ele>
        <time>2015-10-10T13:37:36Z</time>
      </trkpt>
      <trkpt lat="47.69767" lon="-3.36909">
        <ele>-0.82</ele>
        <time>2015-10-10T13:37:37Z</time>
      </trkpt>
      <trkpt lat="47.69764" lon="-3.36908">
        <ele>-0.82</ele>
        <time>2015-10-10T13:37:38Z</time>
      </trkpt>
      <trkpt lat="47.69761" lon="-3.36908">
        <ele>-0.82</ele>
        <time>2015-10-10T13:37:39Z</time>
      </trkpt>
      <trkpt lat="47.69758" lon="-3.36907">
        <ele>-0.82</ele>
        <time>2015-10-10T13:37:40Z</time>
      </trkpt>
      <trkpt lat="47.69755" lon="-3.36907">
        <ele>-0.82</ele>
        <time>2015-10-10T13:37:41Z</time>
      </trkpt>
      <trkpt lat="47.69752" lon="-3.36907">
        <ele>-0.82</ele>
        <time>2015-10-10T13:37:42Z</time>
      </trkpt>
      <trkpt lat="47.6975" lon="-3.36907">
        <ele>-1.3</ele>
        <time>2015-10-10T13:37:43Z</time>
      </trkpt>
      <trkpt lat="47.69747" lon="-3.36906">
        <ele>-1.3</ele>
        <time>2015-10-10T13:37:44Z</time>
      </trkpt>
      <trkpt lat="47.69744" lon="-3.36906">
        <ele>-0.82</ele>
        <time>2015-10-10T13:37:45Z</time>
      </trkpt>
      <trkpt lat="47.69741" lon="-3.36906">
        <ele>-0.82</ele>
        <time>2015-10-10T13:37:46Z</time>
      </trkpt>
      <trkpt lat="47.69738" lon="-3.36906">
        <ele>-0.82</ele>
        <time>2015-10-10T13:37:47Z</time>
      </trkpt>
      <trkpt lat="47.69735" lon="-3.36905">
        <ele>-0.82</ele>
        <time>2015-10-10T13:37:48Z</time>
      </trkpt>
      <trkpt lat="47.69732" lon="-3.36905">
        <ele>-0.82</ele>
        <time>2015-10-10T13:37:49Z</time>
      </trkpt>
      <trkpt lat="47.69729" lon="-3.36905">
        <ele>-0.82</ele>
        <time>2015-10-10T13:37:50Z</time>
      </trkpt>
      <trkpt lat="47.69726" lon="-3.36904">
        <ele>-0.82</ele>
        <time>2015-10-10T13:37:51Z</time>
      </trkpt>
      <trkpt lat="47.69723" lon="-3.36904">
        <ele>-0.82</ele>
        <time>2015-10-10T13:37:52Z</time>
      </trkpt>
      <trkpt lat="47.6972" lon="-3.36904">
        <ele>-0.82</ele>
        <time>2015-10-10T13:37:53Z</time>
      </trkpt>
      <trkpt lat="47.69717" lon="-3.36904">
        <ele>-0.82</ele>
        <time>2015-10-10T13:37:54Z</time>
      </trkpt>
      <trkpt lat="47.69714" lon="-3.36905">
        <ele>-0.82</ele>
        <time>2015-10-10T13:37:55Z</time>
      </trkpt>
      <trkpt lat="47.69711" lon="-3.36905">
        <ele>-0.82</ele>
        <time>2015-10-10T13:37:56Z</time>
      </trkpt>
      <trkpt lat="47.69709" lon="-3.36905">
        <ele>-0.82</ele>
        <time>2015-10-10T13:37:57Z</time>
      </trkpt>
      <trkpt lat="47.69706" lon="-3.36905">
        <ele>-0.82</ele>
        <time>2015-10-10T13:37:58Z</time>
      </trkpt>
      <trkpt lat="47.69703" lon="-3.36905">
        <ele>-0.82</ele>
        <time>2015-10-10T13:37:59Z</time>
      </trkpt>
      <trkpt lat="47.697" lon="-3.36905">
        <ele>-0.82</ele>
        <time>2015-10-10T13:38:00Z</time>
      </trkpt>
      <trkpt lat="47.69697" lon="-3.36905">
        <ele>-0.82</ele>
        <time>2015-10-10T13:38:01Z</time>
      </trkpt>
      <trkpt lat="47.69695" lon="-3.36905">
        <ele>-0.82</ele>
        <time>2015-10-10T13:38:02Z</time>
      </trkpt>
      <trkpt lat="47.69692" lon="-3.36905">
        <ele>-0.82</ele>
        <time>2015-10-10T13:38:03Z</time>
      </trkpt>
      <trkpt lat="47.6969" lon="-3.36905">
        <ele>-0.82</ele>
        <time>2015-10-10T13:38:04Z</time>
      </trkpt>
      <trkpt lat="47.69687" lon="-3.36905">
        <ele>-0.82</ele>
        <time>2015-10-10T13:38:05Z</time>
      </trkpt>
      <trkpt lat="47.69684" lon="-3.36905">
        <ele>-0.82</ele>
        <time>2015-10-10T13:38:06Z</time>
      </trkpt>
      <trkpt lat="47.69682" lon="-3.36905">
        <ele>-0.82</ele>
        <time>2015-10-10T13:38:07Z</time>
      </trkpt>
      <trkpt lat="47.69679" lon="-3.36905">
        <ele>-0.82</ele>
        <time>2015-10-10T13:38:08Z</time>
      </trkpt>
      <trkpt lat="47.69676" lon="-3.36905">
        <ele>-0.82</ele>
        <time>2015-10-10T13:38:09Z</time>
      </trkpt>
      <trkpt lat="47.69673" lon="-3.36905">
        <ele>-0.82</ele>
        <time>2015-10-10T13:38:10Z</time>
      </trkpt>
      <trkpt lat="47.69671" lon="-3.36906">
        <ele>-0.82</ele>
        <time>2015-10-10T13:38:11Z</time>
      </trkpt>
      <trkpt lat="47.69668" lon="-3.36906">
        <ele>-0.82</ele>
        <time>2015-10-10T13:38:12Z</time>
      </trkpt>
      <trkpt lat="47.69665" lon="-3.36906">
        <ele>-0.82</ele>
        <time>2015-10-10T13:38:13Z</time>
      </trkpt>
      <trkpt lat="47.69663" lon="-3.36907">
        <ele>-1.3</ele>
        <time>2015-10-10T13:38:14Z</time>
      </trkpt>
      <trkpt lat="47.6966" lon="-3.36907">
        <ele>-1.3</ele>
        <time>2015-10-10T13:38:15Z</time>
      </trkpt>
      <trkpt lat="47.69658" lon="-3.36907">
        <ele>-1.3</ele>
        <time>2015-10-10T13:38:16Z</time>
      </trkpt>
      <trkpt lat="47.69655" lon="-3.36907">
        <ele>-1.3</ele>
        <time>2015-10-10T13:38:17Z</time>
      </trkpt>
      <trkpt lat="47.69653" lon="-3.36907">
        <ele>-0.82</ele>
        <time>2015-10-10T13:38:18Z</time>
      </trkpt>
      <trkpt lat="47.6965" lon="-3.36907">
        <ele>-0.82</ele>
        <time>2015-10-10T13:38:19Z</time>
      </trkpt>
      <trkpt lat="47.69647" lon="-3.36907">
        <ele>-0.82</ele>
        <time>2015-10-10T13:38:20Z</time>
      </trkpt>
      <trkpt lat="47.69645" lon="-3.36907">
        <ele>-0.82</ele>
        <time>2015-10-10T13:38:21Z</time>
      </trkpt>
      <trkpt lat="47.69642" lon="-3.36908">
        <ele>-0.82</ele>
        <time>2015-10-10T13:38:22Z</time>
      </trkpt>
      <trkpt lat="47.6964" lon="-3.36908">
        <ele>-0.82</ele>
        <time>2015-10-10T13:38:23Z</time>
      </trkpt>
      <trkpt lat="47.69637" lon="-3.36908">
        <ele>-0.82</ele>
        <time>2015-10-10T13:38:24Z</time>
      </trkpt>
      <trkpt lat="47.69634" lon="-3.36908">
        <ele>-0.82</ele>
        <time>2015-10-10T13:38:25Z</time>
      </trkpt>
      <trkpt lat="47.69632" lon="-3.36908">
        <ele>-0.82</ele>
        <time>2015-10-10T13:38:26Z</time>
      </trkpt>
      <trkpt lat="47.69629" lon="-3.36908">
        <ele>-0.82</ele>
        <time>2015-10-10T13:38:27Z</time>
      </trkpt>
      <trkpt lat="47.69627" lon="-3.36908">
        <ele>-0.82</ele>
        <time>2015-10-10T13:38:28Z</time>
      </trkpt>
      <trkpt lat="47.69624" lon="-3.36908">
        <ele>-0.82</ele>
        <time>2015-10-10T13:38:29Z</time>
      </trkpt>
      <trkpt lat="47.69622" lon="-3.36908">
        <ele>-0.82</ele>
        <time>2015-10-10T13:38:30Z</time>
      </trkpt>
      <trkpt lat="47.69619" lon="-3.36908">
        <ele>-0.82</ele>
        <time>2015-10-10T13:38:31Z</time>
      </trkpt>
      <trkpt lat="47.69616" lon="-3.36908">
        <ele>-0.82</ele>
        <time>2015-10-10T13:38:32Z</time>
      </trkpt>
      <trkpt lat="47.69613" lon="-3.36908">
        <ele>-0.82</ele>
        <time>2015-10-10T13:38:33Z</time>
      </trkpt>
      <trkpt lat="47.69611" lon="-3.36908">
        <ele>-0.82</ele>
        <time>2015-10-10T13:38:34Z</time>
      </trkpt>
      <trkpt lat="47.69608" lon="-3.36908">
        <ele>-0.82</ele>
        <time>2015-10-10T13:38:35Z</time>
      </trkpt>
      <trkpt lat="47.69605" lon="-3.36908">
        <ele>-0.82</ele>
        <time>2015-10-10T13:38:36Z</time>
      </trkpt>
      <trkpt lat="47.69603" lon="-3.36908">
        <ele>-0.82</ele>
        <time>2015-10-10T13:38:37Z</time>
      </trkpt>
      <trkpt lat="47.696" lon="-3.36908">
        <ele>-0.82</ele>
        <time>2015-10-10T13:38:38Z</time>
      </trkpt>
      <trkpt lat="47.69597" lon="-3.36908">
        <ele>-0.82</ele>
        <time>2015-10-10T13:38:39Z</time>
      </trkpt>
      <trkpt lat="47.69595" lon="-3.36908">
        <ele>-0.82</ele>
        <time>2015-10-10T13:38:40Z</time>
      </trkpt>
      <trkpt lat="47.69592" lon="-3.36908">
        <ele>-0.82</ele>
        <time>2015-10-10T13:38:41Z</time>
      </trkpt>
      <trkpt lat="47.69589" lon="-3.36908">
        <ele>-0.82</ele>
        <time>2015-10-10T13:38:42Z</time>
      </trkpt>
      <trkpt lat="47.69587" lon="-3.36908">
        <ele>-0.82</ele>
        <time>2015-10-10T13:38:43Z</time>
      </trkpt>
      <trkpt lat="47.69584" lon="-3.36908">
        <ele>-0.82</ele>
        <time>2015-10-10T13:38:44Z</time>
      </trkpt>
      <trkpt lat="47.69581" lon="-3.36908">
        <ele>-0.82</ele>
        <time>2015-10-10T13:38:45Z</time>
      </trkpt>
      <trkpt lat="47.69579" lon="-3.36908">
        <ele>-1.3</ele>
        <time>2015-10-10T13:38:46Z</time>
      </trkpt>
      <trkpt lat="47.69576" lon="-3.36907">
        <ele>-1.3</ele>
        <time>2015-10-10T13:38:47Z</time>
      </trkpt>
      <trkpt lat="47.69574" lon="-3.36907">
        <ele>-1.3</ele>
        <time>2015-10-10T13:38:48Z</time>
      </trkpt>
      <trkpt lat="47.69571" lon="-3.36908">
        <ele>-1.3</ele>
        <time>2015-10-10T13:38:49Z</time>
      </trkpt>
      <trkpt lat="47.69569" lon="-3.36908">
        <ele>-1.3</ele>
        <time>2015-10-10T13:38:50Z</time>
      </trkpt>
      <trkpt lat="47.69566" lon="-3.36908">
        <ele>-1.3</ele>
        <time>2015-10-10T13:38:51Z</time>
      </trkpt>
      <trkpt lat="47.69564" lon="-3.36908">
        <ele>-1.3</ele>
        <time>2015-10-10T13:38:52Z</time>
      </trkpt>
      <trkpt lat="47.69562" lon="-3.36908">
        <ele>-1.3</ele>
        <time>2015-10-10T13:38:53Z</time>
      </trkpt>
      <trkpt lat="47.69559" lon="-3.36908">
        <ele>-1.3</ele>
        <time>2015-10-10T13:38:54Z</time>
      </trkpt>
      <trkpt lat="47.69557" lon="-3.36908">
        <ele>-1.3</ele>
        <time>2015-10-10T13:38:55Z</time>
      </trkpt>
      <trkpt lat="47.69554" lon="-3.36908">
        <ele>-1.3</ele>
        <time>2015-10-10T13:38:56Z</time>
      </trkpt>
      <trkpt lat="47.69552" lon="-3.36908">
        <ele>-1.3</ele>
        <time>2015-10-10T13:38:57Z</time>
      </trkpt>
      <trkpt lat="47.69549" lon="-3.36908">
        <ele>-1.3</ele>
        <time>2015-10-10T13:38:58Z</time>
      </trkpt>
      <trkpt lat="47.69547" lon="-3.36908">
        <ele>-1.3</ele>
        <time>2015-10-10T13:38:59Z</time>
      </trkpt>
      <trkpt lat="47.69544" lon="-3.36908">
        <ele>-1.3</ele>
        <time>2015-10-10T13:39:00Z</time>
      </trkpt>
      <trkpt lat="47.69542" lon="-3.36908">
        <ele>-1.3</ele>
        <time>2015-10-10T13:39:01Z</time>
      </trkpt>
      <trkpt lat="47.69539" lon="-3.36908">
        <ele>-1.3</ele>
        <time>2015-10-10T13:39:02Z</time>
      </trkpt>
      <trkpt lat="47.69536" lon="-3.36908">
        <ele>-1.3</ele>
        <time>2015-10-10T13:39:03Z</time>
      </trkpt>
      <trkpt lat="47.69534" lon="-3.36908">
        <ele>-1.3</ele>
        <time>2015-10-10T13:39:04Z</time>
      </trkpt>
      <trkpt lat="47.69531" lon="-3.36908">
        <ele>-1.3</ele>
        <time>2015-10-10T13:39:05Z</time>
      </trkpt>
      <trkpt lat="47.69529" lon="-3.36908">
        <ele>-1.3</ele>
        <time>2015-10-10T13:39:06Z</time>
      </trkpt>
      <trkpt lat="47.69526" lon="-3.36908">
        <ele>-1.3</ele>
        <time>2015-10-10T13:39:07Z</time>
      </trkpt>
      <trkpt lat="47.69524" lon="-3.36909">
        <ele>-1.3</ele>
        <time>2015-10-10T13:39:08Z</time>
      </trkpt>
      <trkpt lat="47.69521" lon="-3.36909">
        <ele>-1.3</ele>
        <time>2015-10-10T13:39:09Z</time>
      </trkpt>
      <trkpt lat="47.69519" lon="-3.36909">
        <ele>-1.3</ele>
        <time>2015-10-10T13:39:10Z</time>
      </trkpt>
      <trkpt lat="47.69516" lon="-3.36909">
        <ele>-1.3</ele>
        <time>2015-10-10T13:39:11Z</time>
      </trkpt>
      <trkpt lat="47.69514" lon="-3.36909">
        <ele>-1.3</ele>
        <time>2015-10-10T13:39:12Z</time>
      </trkpt>
      <trkpt lat="47.69512" lon="-3.3691">
        <ele>-1.3</ele>
        <time>2015-10-10T13:39:13Z</time>
      </trkpt>
      <trkpt lat="47.6951" lon="-3.3691">
        <ele>-1.3</ele>
        <time>2015-10-10T13:39:14Z</time>
      </trkpt>
      <trkpt lat="47.69507" lon="-3.3691">
        <ele>-1.3</ele>
        <time>2015-10-10T13:39:15Z</time>
      </trkpt>
      <trkpt lat="47.69505" lon="-3.3691">
        <ele>-1.3</ele>
        <time>2015-10-10T13:39:16Z</time>
      </trkpt>
      <trkpt lat="47.69502" lon="-3.3691">
        <ele>-1.3</ele>
        <time>2015-10-10T13:39:17Z</time>
      </trkpt>
      <trkpt lat="47.695" lon="-3.3691">
        <ele>-1.3</ele>
        <time>2015-10-10T13:39:18Z</time>
      </trkpt>
      <trkpt lat="47.69498" lon="-3.36911">
        <ele>-1.3</ele>
        <time>2015-10-10T13:39:19Z</time>
      </trkpt>
      <trkpt lat="47.69495" lon="-3.36911">
        <ele>-1.3</ele>
        <time>2015-10-10T13:39:20Z</time>
      </trkpt>
      <trkpt lat="47.69493" lon="-3.36912">
        <ele>-1.3</ele>
        <time>2015-10-10T13:39:21Z</time>
      </trkpt>
      <trkpt lat="47.69491" lon="-3.36912">
        <ele>-1.3</ele>
        <time>2015-10-10T13:39:22Z</time>
      </trkpt>
      <trkpt lat="47.69488" lon="-3.36912">
        <ele>-1.3</ele>
        <time>2015-10-10T13:39:23Z</time>
      </trkpt>
      <trkpt lat="47.69486" lon="-3.36912">
        <ele>-1.3</ele>
        <time>2015-10-10T13:39:24Z</time>
      </trkpt>
      <trkpt lat="47.69483" lon="-3.36912">
        <ele>-1.3</ele>
        <time>2015-10-10T13:39:25Z</time>
      </trkpt>
      <trkpt lat="47.69481" lon="-3.36912">
        <ele>-1.3</ele>
        <time>2015-10-10T13:39:26Z</time>
      </trkpt>
      <trkpt lat="47.69479" lon="-3.36912">
        <ele>-1.3</ele>
        <time>2015-10-10T13:39:27Z</time>
      </trkpt>
      <trkpt lat="47.69476" lon="-3.36912">
        <ele>-1.3</ele>
        <time>2015-10-10T13:39:28Z</time>
      </trkpt>
      <trkpt lat="47.69473" lon="-3.36911">
        <ele>-1.3</ele>
        <time>2015-10-10T13:39:29Z</time>
      </trkpt>
      <trkpt lat="47.69471" lon="-3.36911">
        <ele>-1.3</ele>
        <time>2015-10-10T13:39:30Z</time>
      </trkpt>
      <trkpt lat="47.69469" lon="-3.36912">
        <ele>-1.3</ele>
        <time>2015-10-10T13:39:31Z</time>
      </trkpt>
      <trkpt lat="47.69466" lon="-3.36912">
        <ele>-1.3</ele>
        <time>2015-10-10T13:39:32Z</time>
      </trkpt>
      <trkpt lat="47.69463" lon="-3.36912">
        <ele>-1.3</ele>
        <time>2015-10-10T13:39:33Z</time>
      </trkpt>
      <trkpt lat="47.69461" lon="-3.36912">
        <ele>-0.34</ele>
        <time>2015-10-10T13:39:34Z</time>
      </trkpt>
      <trkpt lat="47.69458" lon="-3.36912">
        <ele>-0.34</ele>
        <time>2015-10-10T13:39:35Z</time>
      </trkpt>
      <trkpt lat="47.69456" lon="-3.36912">
        <ele>-0.34</ele>
        <time>2015-10-10T13:39:36Z</time>
      </trkpt>
      <trkpt lat="47.69453" lon="-3.36912">
        <ele>-0.34</ele>
        <time>2015-10-10T13:39:37Z</time>
      </trkpt>
      <trkpt lat="47.6945" lon="-3.36912">
        <ele>-0.34</ele>
        <time>2015-10-10T13:39:38Z</time>
      </trkpt>
      <trkpt lat="47.69448" lon="-3.36912">
        <ele>-0.34</ele>
        <time>2015-10-10T13:39:39Z</time>
      </trkpt>
      <trkpt lat="47.69445" lon="-3.36912">
        <ele>-0.34</ele>
        <time>2015-10-10T13:39:40Z</time>
      </trkpt>
      <trkpt lat="47.69442" lon="-3.36912">
        <ele>-0.34</ele>
        <time>2015-10-10T13:39:41Z</time>
      </trkpt>
      <trkpt lat="47.69439" lon="-3.36913">
        <ele>-0.34</ele>
        <time>2015-10-10T13:39:42Z</time>
      </trkpt>
      <trkpt lat="47.69437" lon="-3.36913">
        <ele>-0.34</ele>
        <time>2015-10-10T13:39:43Z</time>
      </trkpt>
      <trkpt lat="47.69434" lon="-3.36913">
        <ele>-0.34</ele>
        <time>2015-10-10T13:39:44Z</time>
      </trkpt>
      <trkpt lat="47.69432" lon="-3.36913">
        <ele>-0.34</ele>
        <time>2015-10-10T13:39:45Z</time>
      </trkpt>
      <trkpt lat="47.69429" lon="-3.36913">
        <ele>-0.34</ele>
        <time>2015-10-10T13:39:46Z</time>
      </trkpt>
      <trkpt lat="47.69426" lon="-3.36913">
        <ele>-0.34</ele>
        <time>2015-10-10T13:39:47Z</time>
      </trkpt>
      <trkpt lat="47.69423" lon="-3.36913">
        <ele>-0.34</ele>
        <time>2015-10-10T13:39:48Z</time>
      </trkpt>
      <trkpt lat="47.69421" lon="-3.36914">
        <ele>-0.34</ele>
        <time>2015-10-10T13:39:49Z</time>
      </trkpt>
      <trkpt lat="47.69418" lon="-3.36914">
        <ele>-0.34</ele>
        <time>2015-10-10T13:39:50Z</time>
      </trkpt>
      <trkpt lat="47.69415" lon="-3.36914">
        <ele>-0.34</ele>
        <time>2015-10-10T13:39:51Z</time>
      </trkpt>
      <trkpt lat="47.69412" lon="-3.36915">
        <ele>-0.34</ele>
        <time>2015-10-10T13:39:52Z</time>
      </trkpt>
      <trkpt lat="47.6941" lon="-3.36916">
        <ele>-0.34</ele>
        <time>2015-10-10T13:39:53Z</time>
      </trkpt>
      <trkpt lat="47.69407" lon="-3.36916">
        <ele>-0.34</ele>
        <time>2015-10-10T13:39:54Z</time>
      </trkpt>
      <trkpt lat="47.69405" lon="-3.36916">
        <ele>-0.34</ele>
        <time>2015-10-10T13:39:55Z</time>
      </trkpt>
      <trkpt lat="47.69402" lon="-3.36916">
        <ele>-0.34</ele>
        <time>2015-10-10T13:39:56Z</time>
      </trkpt>
      <trkpt lat="47.694" lon="-3.36917">
        <ele>-0.34</ele>
        <time>2015-10-10T13:39:57Z</time>
      </trkpt>
      <trkpt lat="47.69397" lon="-3.36917">
        <ele>-0.34</ele>
        <time>2015-10-10T13:39:58Z</time>
      </trkpt>
      <trkpt lat="47.69395" lon="-3.36918">
        <ele>-0.34</ele>
        <time>2015-10-10T13:39:59Z</time>
      </trkpt>
      <trkpt lat="47.69393" lon="-3.36918">
        <ele>-0.34</ele>
        <time>2015-10-10T13:40:00Z</time>
      </trkpt>
      <trkpt lat="47.6939" lon="-3.36918">
        <ele>-0.34</ele>
        <time>2015-10-10T13:40:01Z</time>
      </trkpt>
      <trkpt lat="47.69387" lon="-3.36919">
        <ele>-0.34</ele>
        <time>2015-10-10T13:40:02Z</time>
      </trkpt>
      <trkpt lat="47.69385" lon="-3.36919">
        <ele>-0.34</ele>
        <time>2015-10-10T13:40:03Z</time>
      </trkpt>
      <trkpt lat="47.69383" lon="-3.36919">
        <ele>-0.34</ele>
        <time>2015-10-10T13:40:04Z</time>
      </trkpt>
      <trkpt lat="47.6938" lon="-3.3692">
        <ele>-0.34</ele>
        <time>2015-10-10T13:40:05Z</time>
      </trkpt>
      <trkpt lat="47.69378" lon="-3.3692">
        <ele>-0.34</ele>
        <time>2015-10-10T13:40:06Z</time>
      </trkpt>
      <trkpt lat="47.69375" lon="-3.3692">
        <ele>-0.34</ele>
        <time>2015-10-10T13:40:07Z</time>
      </trkpt>
      <trkpt lat="47.69372" lon="-3.36921">
        <ele>-0.34</ele>
        <time>2015-10-10T13:40:08Z</time>
      </trkpt>
      <trkpt lat="47.6937" lon="-3.36922">
        <ele>-0.34</ele>
        <time>2015-10-10T13:40:09Z</time>
      </trkpt>
      <trkpt lat="47.69368" lon="-3.36923">
        <ele>-0.34</ele>
        <time>2015-10-10T13:40:10Z</time>
      </trkpt>
      <trkpt lat="47.69365" lon="-3.36923">
        <ele>-0.34</ele>
        <time>2015-10-10T13:40:11Z</time>
      </trkpt>
      <trkpt lat="47.69363" lon="-3.36924">
        <ele>-0.34</ele>
        <time>2015-10-10T13:40:12Z</time>
      </trkpt>
      <trkpt lat="47.6936" lon="-3.36925">
        <ele>-0.34</ele>
        <time>2015-10-10T13:40:13Z</time>
      </trkpt>
      <trkpt lat="47.69358" lon="-3.36925">
        <ele>-0.34</ele>
        <time>2015-10-10T13:40:14Z</time>
      </trkpt>
      <trkpt lat="47.69355" lon="-3.36925">
        <ele>-0.34</ele>
        <time>2015-10-10T13:40:15Z</time>
      </trkpt>
      <trkpt lat="47.69353" lon="-3.36926">
        <ele>-0.34</ele>
        <time>2015-10-10T13:40:16Z</time>
      </trkpt>
      <trkpt lat="47.6935" lon="-3.36926">
        <ele>-0.34</ele>
        <time>2015-10-10T13:40:17Z</time>
      </trkpt>
      <trkpt lat="47.69348" lon="-3.36926">
        <ele>-0.34</ele>
        <time>2015-10-10T13:40:18Z</time>
      </trkpt>
      <trkpt lat="47.69345" lon="-3.36926">
        <ele>-0.34</ele>
        <time>2015-10-10T13:40:19Z</time>
      </trkpt>
      <trkpt lat="47.69342" lon="-3.36926">
        <ele>-0.34</ele>
        <time>2015-10-10T13:40:20Z</time>
      </trkpt>
      <trkpt lat="47.6934" lon="-3.36926">
        <ele>-0.34</ele>
        <time>2015-10-10T13:40:21Z</time>
      </trkpt>
      <trkpt lat="47.69337" lon="-3.36926">
        <ele>-0.34</ele>
        <time>2015-10-10T13:40:22Z</time>
      </trkpt>
      <trkpt lat="47.69335" lon="-3.36927">
        <ele>-0.34</ele>
        <time>2015-10-10T13:40:23Z</time>
      </trkpt>
      <trkpt lat="47.69332" lon="-3.36927">
        <ele>-0.34</ele>
        <time>2015-10-10T13:40:24Z</time>
      </trkpt>
      <trkpt lat="47.6933" lon="-3.36927">
        <ele>-0.34</ele>
        <time>2015-10-10T13:40:25Z</time>
      </trkpt>
      <trkpt lat="47.69327" lon="-3.36927">
        <ele>-0.34</ele>
        <time>2015-10-10T13:40:26Z</time>
      </trkpt>
      <trkpt lat="47.69324" lon="-3.36927">
        <ele>-0.34</ele>
        <time>2015-10-10T13:40:27Z</time>
      </trkpt>
      <trkpt lat="47.69322" lon="-3.36928">
        <ele>-0.34</ele>
        <time>2015-10-10T13:40:28Z</time>
      </trkpt>
      <trkpt lat="47.69319" lon="-3.36928">
        <ele>-0.34</ele>
        <time>2015-10-10T13:40:29Z</time>
      </trkpt>
      <trkpt lat="47.69317" lon="-3.36928">
        <ele>-0.34</ele>
        <time>2015-10-10T13:40:30Z</time>
      </trkpt>
      <trkpt lat="47.69315" lon="-3.36928">
        <ele>-0.34</ele>
        <time>2015-10-10T13:40:31Z</time>
      </trkpt>
      <trkpt lat="47.69312" lon="-3.36928">
        <ele>-0.34</ele>
        <time>2015-10-10T13:40:32Z</time>
      </trkpt>
      <trkpt lat="47.6931" lon="-3.36928">
        <ele>-0.34</ele>
        <time>2015-10-10T13:40:33Z</time>
      </trkpt>
      <trkpt lat="47.69307" lon="-3.36928">
        <ele>-0.34</ele>
        <time>2015-10-10T13:40:34Z</time>
      </trkpt>
      <trkpt lat="47.69304" lon="-3.36928">
        <ele>-1.3</ele>
        <time>2015-10-10T13:40:35Z</time>
      </trkpt>
      <trkpt lat="47.69302" lon="-3.36928">
        <ele>-1.3</ele>
        <time>2015-10-10T13:40:36Z</time>
      </trkpt>
      <trkpt lat="47.693" lon="-3.36928">
        <ele>-1.3</ele>
        <time>2015-10-10T13:40:37Z</time>
      </trkpt>
      <trkpt lat="47.69297" lon="-3.36928">
        <ele>-1.3</ele>
        <time>2015-10-10T13:40:38Z</time>
      </trkpt>
      <trkpt lat="47.69295" lon="-3.36928">
        <ele>-1.3</ele>
        <time>2015-10-10T13:40:39Z</time>
      </trkpt>
      <trkpt lat="47.69292" lon="-3.36929">
        <ele>-1.3</ele>
        <time>2015-10-10T13:40:40Z</time>
      </trkpt>
      <trkpt lat="47.6929" lon="-3.36929">
        <ele>-1.3</ele>
        <time>2015-10-10T13:40:41Z</time>
      </trkpt>
      <trkpt lat="47.69288" lon="-3.36929">
        <ele>-1.3</ele>
        <time>2015-10-10T13:40:42Z</time>
      </trkpt>
      <trkpt lat="47.69286" lon="-3.36929">
        <ele>-1.79</ele>
        <time>2015-10-10T13:40:43Z</time>
      </trkpt>
      <trkpt lat="47.69284" lon="-3.36928">
        <ele>-1.79</ele>
        <time>2015-10-10T13:40:44Z</time>
      </trkpt>
      <trkpt lat="47.69281" lon="-3.36929">
        <ele>-1.79</ele>
        <time>2015-10-10T13:40:45Z</time>
      </trkpt>
      <trkpt lat="47.69279" lon="-3.3693">
        <ele>-1.79</ele>
        <time>2015-10-10T13:40:46Z</time>
      </trkpt>
      <trkpt lat="47.69277" lon="-3.36931">
        <ele>-1.79</ele>
        <time>2015-10-10T13:40:47Z</time>
      </trkpt>
      <trkpt lat="47.69275" lon="-3.36932">
        <ele>-1.79</ele>
        <time>2015-10-10T13:40:48Z</time>
      </trkpt>
      <trkpt lat="47.69273" lon="-3.36933">
        <ele>-1.79</ele>
        <time>2015-10-10T13:40:49Z</time>
      </trkpt>
      <trkpt lat="47.69271" lon="-3.36934">
        <ele>-1.3</ele>
        <time>2015-10-10T13:40:50Z</time>
      </trkpt>
      <trkpt lat="47.69269" lon="-3.36935">
        <ele>-1.3</ele>
        <time>2015-10-10T13:40:51Z</time>
      </trkpt>
      <trkpt lat="47.69266" lon="-3.36937">
        <ele>-1.3</ele>
        <time>2015-10-10T13:40:52Z</time>
      </trkpt>
      <trkpt lat="47.69264" lon="-3.36938">
        <ele>-1.3</ele>
        <time>2015-10-10T13:40:53Z</time>
      </trkpt>
      <trkpt lat="47.69262" lon="-3.3694">
        <ele>-1.3</ele>
        <time>2015-10-10T13:40:54Z</time>
      </trkpt>
      <trkpt lat="47.6926" lon="-3.36941">
        <ele>-1.3</ele>
        <time>2015-10-10T13:40:55Z</time>
      </trkpt>
      <trkpt lat="47.69258" lon="-3.36942">
        <ele>-1.3</ele>
        <time>2015-10-10T13:40:56Z</time>
      </trkpt>
      <trkpt lat="47.69256" lon="-3.36943">
        <ele>-1.3</ele>
        <time>2015-10-10T13:40:57Z</time>
      </trkpt>
      <trkpt lat="47.69253" lon="-3.36944">
        <ele>-1.3</ele>
        <time>2015-10-10T13:40:58Z</time>
      </trkpt>
      <trkpt lat="47.69251" lon="-3.36945">
        <ele>-1.3</ele>
        <time>2015-10-10T13:40:59Z</time>
      </trkpt>
      <trkpt lat="47.69249" lon="-3.36946">
        <ele>-1.3</ele>
        <time>2015-10-10T13:41:00Z</time>
      </trkpt>
      <trkpt lat="47.69247" lon="-3.36947">
        <ele>-1.3</ele>
        <time>2015-10-10T13:41:01Z</time>
      </trkpt>
      <trkpt lat="47.69244" lon="-3.36948">
        <ele>-1.3</ele>
        <time>2015-10-10T13:41:02Z</time>
      </trkpt>
      <trkpt lat="47.69242" lon="-3.3695">
        <ele>-1.3</ele>
        <time>2015-10-10T13:41:03Z</time>
      </trkpt>
      <trkpt lat="47.69239" lon="-3.36951">
        <ele>-1.3</ele>
        <time>2015-10-10T13:41:04Z</time>
      </trkpt>
      <trkpt lat="47.69237" lon="-3.36952">
        <ele>-1.3</ele>
        <time>2015-10-10T13:41:05Z</time>
      </trkpt>
      <trkpt lat="47.69235" lon="-3.36953">
        <ele>-1.3</ele>
        <time>2015-10-10T13:41:06Z</time>
      </trkpt>
      <trkpt lat="47.69233" lon="-3.36954">
        <ele>-1.3</ele>
        <time>2015-10-10T13:41:07Z</time>
      </trkpt>
      <trkpt lat="47.6923" lon="-3.36955">
        <ele>-1.3</ele>
        <time>2015-10-10T13:41:08Z</time>
      </trkpt>
      <trkpt lat="47.69228" lon="-3.36956">
        <ele>-1.3</ele>
        <time>2015-10-10T13:41:09Z</time>
      </trkpt>
      <trkpt lat="47.69225" lon="-3.36957">
        <ele>-1.3</ele>
        <time>2015-10-10T13:41:10Z</time>
      </trkpt>
      <trkpt lat="47.69222" lon="-3.36957">
        <ele>-1.3</ele>
        <time>2015-10-10T13:41:11Z</time>
      </trkpt>
      <trkpt lat="47.6922" lon="-3.36958">
        <ele>-1.3</ele>
        <time>2015-10-10T13:41:12Z</time>
      </trkpt>
      <trkpt lat="47.69217" lon="-3.36958">
        <ele>-1.3</ele>
        <time>2015-10-10T13:41:13Z</time>
      </trkpt>
      <trkpt lat="47.69214" lon="-3.36959">
        <ele>-1.3</ele>
        <time>2015-10-10T13:41:14Z</time>
      </trkpt>
      <trkpt lat="47.69212" lon="-3.3696">
        <ele>-0.34</ele>
        <time>2015-10-10T13:41:15Z</time>
      </trkpt>
      <trkpt lat="47.69209" lon="-3.3696">
        <ele>-0.34</ele>
        <time>2015-10-10T13:41:16Z</time>
      </trkpt>
      <trkpt lat="47.69206" lon="-3.36961">
        <ele>-0.34</ele>
        <time>2015-10-10T13:41:17Z</time>
      </trkpt>
      <trkpt lat="47.69203" lon="-3.36961">
        <ele>-0.34</ele>
        <time>2015-10-10T13:41:18Z</time>
      </trkpt>
      <trkpt lat="47.692" lon="-3.36962">
        <ele>-0.34</ele>
        <time>2015-10-10T13:41:19Z</time>
      </trkpt>
      <trkpt lat="47.69198" lon="-3.36963">
        <ele>-0.34</ele>
        <time>2015-10-10T13:41:20Z</time>
      </trkpt>
      <trkpt lat="47.69196" lon="-3.36964">
        <ele>0.62</ele>
        <time>2015-10-10T13:41:21Z</time>
      </trkpt>
      <trkpt lat="47.69193" lon="-3.36964">
        <ele>0.62</ele>
        <time>2015-10-10T13:41:22Z</time>
      </trkpt>
      <trkpt lat="47.69191" lon="-3.36965">
        <ele>0.62</ele>
        <time>2015-10-10T13:41:23Z</time>
      </trkpt>
      <trkpt lat="47.69188" lon="-3.36966">
        <ele>0.62</ele>
        <time>2015-10-10T13:41:24Z</time>
      </trkpt>
      <trkpt lat="47.69186" lon="-3.36967">
        <ele>0.62</ele>
        <time>2015-10-10T13:41:25Z</time>
      </trkpt>
      <trkpt lat="47.69183" lon="-3.36968">
        <ele>0.62</ele>
        <time>2015-10-10T13:41:26Z</time>
      </trkpt>
      <trkpt lat="47.69181" lon="-3.36968">
        <ele>-0.82</ele>
        <time>2015-10-10T13:41:27Z</time>
      </trkpt>
      <trkpt lat="47.69178" lon="-3.36969">
        <ele>-0.82</ele>
        <time>2015-10-10T13:41:28Z</time>
      </trkpt>
      <trkpt lat="47.69176" lon="-3.36969">
        <ele>-0.82</ele>
        <time>2015-10-10T13:41:29Z</time>
      </trkpt>
      <trkpt lat="47.69173" lon="-3.3697">
        <ele>-0.82</ele>
        <time>2015-10-10T13:41:30Z</time>
      </trkpt>
      <trkpt lat="47.69171" lon="-3.36971">
        <ele>-0.82</ele>
        <time>2015-10-10T13:41:31Z</time>
      </trkpt>
      <trkpt lat="47.69168" lon="-3.36972">
        <ele>-0.82</ele>
        <time>2015-10-10T13:41:32Z</time>
      </trkpt>
      <trkpt lat="47.69166" lon="-3.36974">
        <ele>-0.82</ele>
        <time>2015-10-10T13:41:33Z</time>
      </trkpt>
      <trkpt lat="47.69164" lon="-3.36975">
        <ele>-0.82</ele>
        <time>2015-10-10T13:41:34Z</time>
      </trkpt>
      <trkpt lat="47.69162" lon="-3.36976">
        <ele>-0.82</ele>
        <time>2015-10-10T13:41:35Z</time>
      </trkpt>
      <trkpt lat="47.6916" lon="-3.36977">
        <ele>-0.82</ele>
        <time>2015-10-10T13:41:36Z</time>
      </trkpt>
      <trkpt lat="47.69158" lon="-3.36977">
        <ele>-0.82</ele>
        <time>2015-10-10T13:41:37Z</time>
      </trkpt>
      <trkpt lat="47.69155" lon="-3.36978">
        <ele>-0.82</ele>
        <time>2015-10-10T13:41:38Z</time>
      </trkpt>
      <trkpt lat="47.69153" lon="-3.3698">
        <ele>-0.82</ele>
        <time>2015-10-10T13:41:39Z</time>
      </trkpt>
      <trkpt lat="47.69151" lon="-3.36982">
        <ele>-0.82</ele>
        <time>2015-10-10T13:41:40Z</time>
      </trkpt>
      <trkpt lat="47.69148" lon="-3.36983">
        <ele>-1.79</ele>
        <time>2015-10-10T13:41:41Z</time>
      </trkpt>
      <trkpt lat="47.69146" lon="-3.36984">
        <ele>-1.79</ele>
        <time>2015-10-10T13:41:42Z</time>
      </trkpt>
      <trkpt lat="47.69144" lon="-3.36985">
        <ele>-1.79</ele>
        <time>2015-10-10T13:41:43Z</time>
      </trkpt>
      <trkpt lat="47.69141" lon="-3.36986">
        <ele>-1.79</ele>
        <time>2015-10-10T13:41:44Z</time>
      </trkpt>
      <trkpt lat="47.69139" lon="-3.36988">
        <ele>-1.79</ele>
        <time>2015-10-10T13:41:45Z</time>
      </trkpt>
      <trkpt lat="47.69137" lon="-3.36989">
        <ele>-1.79</ele>
        <time>2015-10-10T13:41:46Z</time>
      </trkpt>
      <trkpt lat="47.69134" lon="-3.3699">
        <ele>-1.79</ele>
        <time>2015-10-10T13:41:47Z</time>
      </trkpt>
      <trkpt lat="47.69132" lon="-3.36991">
        <ele>-1.79</ele>
        <time>2015-10-10T13:41:48Z</time>
      </trkpt>
      <trkpt lat="47.6913" lon="-3.36991">
        <ele>-1.79</ele>
        <time>2015-10-10T13:41:49Z</time>
      </trkpt>
      <trkpt lat="47.69128" lon="-3.36992">
        <ele>-1.79</ele>
        <time>2015-10-10T13:41:50Z</time>
      </trkpt>
      <trkpt lat="47.69125" lon="-3.36993">
        <ele>-1.79</ele>
        <time>2015-10-10T13:41:51Z</time>
      </trkpt>
      <trkpt lat="47.69123" lon="-3.36994">
        <ele>-1.79</ele>
        <time>2015-10-10T13:41:52Z</time>
      </trkpt>
      <trkpt lat="47.69121" lon="-3.36995">
        <ele>-1.79</ele>
        <time>2015-10-10T13:41:53Z</time>
      </trkpt>
      <trkpt lat="47.69118" lon="-3.36996">
        <ele>-1.79</ele>
        <time>2015-10-10T13:41:54Z</time>
      </trkpt>
      <trkpt lat="47.69116" lon="-3.36997">
        <ele>-1.79</ele>
        <time>2015-10-10T13:41:55Z</time>
      </trkpt>
      <trkpt lat="47.69113" lon="-3.36998">
        <ele>-1.79</ele>
        <time>2015-10-10T13:41:56Z</time>
      </trkpt>
      <trkpt lat="47.69111" lon="-3.36998">
        <ele>-1.79</ele>
        <time>2015-10-10T13:41:57Z</time>
      </trkpt>
      <trkpt lat="47.69109" lon="-3.36999">
        <ele>-1.79</ele>
        <time>2015-10-10T13:41:58Z</time>
      </trkpt>
      <trkpt lat="47.69107" lon="-3.37001">
        <ele>-1.79</ele>
        <time>2015-10-10T13:41:59Z</time>
      </trkpt>
      <trkpt lat="47.69104" lon="-3.37002">
        <ele>-1.3</ele>
        <time>2015-10-10T13:42:00Z</time>
      </trkpt>
      <trkpt lat="47.69102" lon="-3.37003">
        <ele>-1.79</ele>
        <time>2015-10-10T13:42:01Z</time>
      </trkpt>
      <trkpt lat="47.691" lon="-3.37004">
        <ele>-1.79</ele>
        <time>2015-10-10T13:42:02Z</time>
      </trkpt>
      <trkpt lat="47.69098" lon="-3.37005">
        <ele>-1.79</ele>
        <time>2015-10-10T13:42:03Z</time>
      </trkpt>
      <trkpt lat="47.69096" lon="-3.37006">
        <ele>-1.79</ele>
        <time>2015-10-10T13:42:04Z</time>
      </trkpt>
      <trkpt lat="47.69093" lon="-3.37007">
        <ele>-0.34</ele>
        <time>2015-10-10T13:42:05Z</time>
      </trkpt>
      <trkpt lat="47.69091" lon="-3.37008">
        <ele>-0.34</ele>
        <time>2015-10-10T13:42:06Z</time>
      </trkpt>
      <trkpt lat="47.69089" lon="-3.37009">
        <ele>-0.34</ele>
        <time>2015-10-10T13:42:07Z</time>
      </trkpt>
      <trkpt lat="47.69086" lon="-3.3701">
        <ele>-0.34</ele>
        <time>2015-10-10T13:42:08Z</time>
      </trkpt>
      <trkpt lat="47.69084" lon="-3.37011">
        <ele>-0.34</ele>
        <time>2015-10-10T13:42:09Z</time>
      </trkpt>
      <trkpt lat="47.69082" lon="-3.37012">
        <ele>-0.34</ele>
        <time>2015-10-10T13:42:10Z</time>
      </trkpt>
      <trkpt lat="47.6908" lon="-3.37013">
        <ele>-0.34</ele>
        <time>2015-10-10T13:42:11Z</time>
      </trkpt>
      <trkpt lat="47.69078" lon="-3.37014">
        <ele>-0.34</ele>
        <time>2015-10-10T13:42:12Z</time>
      </trkpt>
      <trkpt lat="47.69075" lon="-3.37014">
        <ele>-0.34</ele>
        <time>2015-10-10T13:42:13Z</time>
      </trkpt>
      <trkpt lat="47.69073" lon="-3.37015">
        <ele>-0.34</ele>
        <time>2015-10-10T13:42:14Z</time>
      </trkpt>
      <trkpt lat="47.6907" lon="-3.37017">
        <ele>-0.34</ele>
        <time>2015-10-10T13:42:15Z</time>
      </trkpt>
      <trkpt lat="47.69069" lon="-3.37018">
        <ele>-1.79</ele>
        <time>2015-10-10T13:42:16Z</time>
      </trkpt>
      <trkpt lat="47.69067" lon="-3.3702">
        <ele>-1.79</ele>
        <time>2015-10-10T13:42:17Z</time>
      </trkpt>
      <trkpt lat="47.69065" lon="-3.37021">
        <ele>-1.79</ele>
        <time>2015-10-10T13:42:18Z</time>
      </trkpt>
      <trkpt lat="47.69063" lon="-3.37021">
        <ele>-0.34</ele>
        <time>2015-10-10T13:42:19Z</time>
      </trkpt>
      <trkpt lat="47.6906" lon="-3.37022">
        <ele>-0.34</ele>
        <time>2015-10-10T13:42:20Z</time>
      </trkpt>
      <trkpt lat="47.69058" lon="-3.37022">
        <ele>-0.34</ele>
        <time>2015-10-10T13:42:21Z</time>
      </trkpt>
      <trkpt lat="47.69056" lon="-3.37023">
        <ele>-0.34</ele>
        <time>2015-10-10T13:42:22Z</time>
      </trkpt>
      <trkpt lat="47.69053" lon="-3.37024">
        <ele>-0.34</ele>
        <time>2015-10-10T13:42:23Z</time>
      </trkpt>
      <trkpt lat="47.69051" lon="-3.37025">
        <ele>-0.34</ele>
        <time>2015-10-10T13:42:24Z</time>
      </trkpt>
      <trkpt lat="47.69048" lon="-3.37026">
        <ele>-0.34</ele>
        <time>2015-10-10T13:42:25Z</time>
      </trkpt>
      <trkpt lat="47.69046" lon="-3.37027">
        <ele>-0.34</ele>
        <time>2015-10-10T13:42:26Z</time>
      </trkpt>
      <trkpt lat="47.69044" lon="-3.37028">
        <ele>-0.34</ele>
        <time>2015-10-10T13:42:27Z</time>
      </trkpt>
      <trkpt lat="47.69041" lon="-3.37029">
        <ele>-0.34</ele>
        <time>2015-10-10T13:42:28Z</time>
      </trkpt>
      <trkpt lat="47.69039" lon="-3.3703">
        <ele>-1.3</ele>
        <time>2015-10-10T13:42:29Z</time>
      </trkpt>
      <trkpt lat="47.69037" lon="-3.37032">
        <ele>-1.3</ele>
        <time>2015-10-10T13:42:30Z</time>
      </trkpt>
      <trkpt lat="47.69034" lon="-3.37033">
        <ele>-1.3</ele>
        <time>2015-10-10T13:42:31Z</time>
      </trkpt>
      <trkpt lat="47.69032" lon="-3.37035">
        <ele>-1.3</ele>
        <time>2015-10-10T13:42:32Z</time>
      </trkpt>
      <trkpt lat="47.6903" lon="-3.37035">
        <ele>0.14</ele>
        <time>2015-10-10T13:42:33Z</time>
      </trkpt>
      <trkpt lat="47.69027" lon="-3.37036">
        <ele>0.14</ele>
        <time>2015-10-10T13:42:34Z</time>
      </trkpt>
      <trkpt lat="47.69025" lon="-3.37037">
        <ele>0.14</ele>
        <time>2015-10-10T13:42:35Z</time>
      </trkpt>
      <trkpt lat="47.69023" lon="-3.37037">
        <ele>0.14</ele>
        <time>2015-10-10T13:42:36Z</time>
      </trkpt>
      <trkpt lat="47.6902" lon="-3.37037">
        <ele>0.14</ele>
        <time>2015-10-10T13:42:37Z</time>
      </trkpt>
      <trkpt lat="47.69017" lon="-3.37037">
        <ele>0.14</ele>
        <time>2015-10-10T13:42:38Z</time>
      </trkpt>
      <trkpt lat="47.69014" lon="-3.37037">
        <ele>0.14</ele>
        <time>2015-10-10T13:42:39Z</time>
      </trkpt>
      <trkpt lat="47.69012" lon="-3.37037">
        <ele>0.14</ele>
        <time>2015-10-10T13:42:40Z</time>
      </trkpt>
      <trkpt lat="47.69009" lon="-3.37037">
        <ele>0.14</ele>
        <time>2015-10-10T13:42:41Z</time>
      </trkpt>
      <trkpt lat="47.69006" lon="-3.37037">
        <ele>0.14</ele>
        <time>2015-10-10T13:42:42Z</time>
      </trkpt>
      <trkpt lat="47.69004" lon="-3.37037">
        <ele>0.14</ele>
        <time>2015-10-10T13:42:43Z</time>
      </trkpt>
      <trkpt lat="47.69001" lon="-3.37036">
        <ele>0.14</ele>
        <time>2015-10-10T13:42:44Z</time>
      </trkpt>
      <trkpt lat="47.68999" lon="-3.37036">
        <ele>0.14</ele>
        <time>2015-10-10T13:42:45Z</time>
      </trkpt>
      <trkpt lat="47.68997" lon="-3.37036">
        <ele>0.14</ele>
        <time>2015-10-10T13:42:46Z</time>
      </trkpt>
      <trkpt lat="47.68995" lon="-3.37036">
        <ele>0.14</ele>
        <time>2015-10-10T13:42:47Z</time>
      </trkpt>
      <trkpt lat="47.68992" lon="-3.37035">
        <ele>0.14</ele>
        <time>2015-10-10T13:42:48Z</time>
      </trkpt>
      <trkpt lat="47.6899" lon="-3.37035">
        <ele>0.14</ele>
        <time>2015-10-10T13:42:49Z</time>
      </trkpt>
      <trkpt lat="47.68987" lon="-3.37036">
        <ele>0.14</ele>
        <time>2015-10-10T13:42:50Z</time>
      </trkpt>
      <trkpt lat="47.68985" lon="-3.37036">
        <ele>0.14</ele>
        <time>2015-10-10T13:42:51Z</time>
      </trkpt>
      <trkpt lat="47.68982" lon="-3.37037">
        <ele>0.14</ele>
        <time>2015-10-10T13:42:52Z</time>
      </trkpt>
      <trkpt lat="47.6898" lon="-3.37037">
        <ele>0.14</ele>
        <time>2015-10-10T13:42:53Z</time>
      </trkpt>
      <trkpt lat="47.68977" lon="-3.37037">
        <ele>-1.3</ele>
        <time>2015-10-10T13:42:54Z</time>
      </trkpt>
      <trkpt lat="47.68974" lon="-3.37037">
        <ele>-1.3</ele>
        <time>2015-10-10T13:42:55Z</time>
      </trkpt>
      <trkpt lat="47.68972" lon="-3.37036">
        <ele>-1.3</ele>
        <time>2015-10-10T13:42:56Z</time>
      </trkpt>
      <trkpt lat="47.68969" lon="-3.37036">
        <ele>-1.3</ele>
        <time>2015-10-10T13:42:57Z</time>
      </trkpt>
      <trkpt lat="47.68967" lon="-3.37036">
        <ele>-1.3</ele>
        <time>2015-10-10T13:42:58Z</time>
      </trkpt>
      <trkpt lat="47.68964" lon="-3.37037">
        <ele>-1.3</ele>
        <time>2015-10-10T13:42:59Z</time>
      </trkpt>
      <trkpt lat="47.68961" lon="-3.37037">
        <ele>-1.3</ele>
        <time>2015-10-10T13:43:00Z</time>
      </trkpt>
      <trkpt lat="47.68959" lon="-3.37037">
        <ele>-1.3</ele>
        <time>2015-10-10T13:43:01Z</time>
      </trkpt>
      <trkpt lat="47.68956" lon="-3.37037">
        <ele>-1.3</ele>
        <time>2015-10-10T13:43:02Z</time>
      </trkpt>
      <trkpt lat="47.68954" lon="-3.37038">
        <ele>-1.3</ele>
        <time>2015-10-10T13:43:03Z</time>
      </trkpt>
      <trkpt lat="47.68952" lon="-3.37038">
        <ele>-1.3</ele>
        <time>2015-10-10T13:43:04Z</time>
      </trkpt>
      <trkpt lat="47.68949" lon="-3.37038">
        <ele>-1.3</ele>
        <time>2015-10-10T13:43:05Z</time>
      </trkpt>
      <trkpt lat="47.68946" lon="-3.37038">
        <ele>-1.3</ele>
        <time>2015-10-10T13:43:06Z</time>
      </trkpt>
      <trkpt lat="47.68943" lon="-3.37038">
        <ele>-1.3</ele>
        <time>2015-10-10T13:43:07Z</time>
      </trkpt>
      <trkpt lat="47.68941" lon="-3.37037">
        <ele>-1.3</ele>
        <time>2015-10-10T13:43:08Z</time>
      </trkpt>
      <trkpt lat="47.68938" lon="-3.37037">
        <ele>-1.3</ele>
        <time>2015-10-10T13:43:09Z</time>
      </trkpt>
      <trkpt lat="47.68935" lon="-3.37036">
        <ele>-1.3</ele>
        <time>2015-10-10T13:43:10Z</time>
      </trkpt>
      <trkpt lat="47.68933" lon="-3.37035">
        <ele>-1.3</ele>
        <time>2015-10-10T13:43:11Z</time>
      </trkpt>
      <trkpt lat="47.68929" lon="-3.37034">
        <ele>-1.3</ele>
        <time>2015-10-10T13:43:12Z</time>
      </trkpt>
      <trkpt lat="47.68927" lon="-3.37034">
        <ele>-1.3</ele>
        <time>2015-10-10T13:43:13Z</time>
      </trkpt>
      <trkpt lat="47.68925" lon="-3.37033">
        <ele>-1.3</ele>
        <time>2015-10-10T13:43:14Z</time>
      </trkpt>
      <trkpt lat="47.68922" lon="-3.37033">
        <ele>-1.3</ele>
        <time>2015-10-10T13:43:15Z</time>
      </trkpt>
      <trkpt lat="47.68919" lon="-3.37033">
        <ele>-1.3</ele>
        <time>2015-10-10T13:43:16Z</time>
      </trkpt>
      <trkpt lat="47.68917" lon="-3.37033">
        <ele>-1.3</ele>
        <time>2015-10-10T13:43:17Z</time>
      </trkpt>
      <trkpt lat="47.68914" lon="-3.37034">
        <ele>-1.3</ele>
        <time>2015-10-10T13:43:18Z</time>
      </trkpt>
      <trkpt lat="47.68911" lon="-3.37034">
        <ele>-1.3</ele>
        <time>2015-10-10T13:43:19Z</time>
      </trkpt>
      <trkpt lat="47.68909" lon="-3.37034">
        <ele>-1.3</ele>
        <time>2015-10-10T13:43:20Z</time>
      </trkpt>
      <trkpt lat="47.68906" lon="-3.37033">
        <ele>-1.3</ele>
        <time>2015-10-10T13:43:21Z</time>
      </trkpt>
      <trkpt lat="47.68903" lon="-3.37033">
        <ele>-1.3</ele>
        <time>2015-10-10T13:43:22Z</time>
      </trkpt>
      <trkpt lat="47.689" lon="-3.37032">
        <ele>-1.3</ele>
        <time>2015-10-10T13:43:23Z</time>
      </trkpt>
      <trkpt lat="47.68897" lon="-3.37031">
        <ele>-1.3</ele>
        <time>2015-10-10T13:43:24Z</time>
      </trkpt>
      <trkpt lat="47.68894" lon="-3.37031">
        <ele>-1.3</ele>
        <time>2015-10-10T13:43:25Z</time>
      </trkpt>
      <trkpt lat="47.68892" lon="-3.37031">
        <ele>-1.3</ele>
        <time>2015-10-10T13:43:26Z</time>
      </trkpt>
      <trkpt lat="47.68889" lon="-3.37031">
        <ele>-1.3</ele>
        <time>2015-10-10T13:43:27Z</time>
      </trkpt>
      <trkpt lat="47.68886" lon="-3.37031">
        <ele>-1.3</ele>
        <time>2015-10-10T13:43:28Z</time>
      </trkpt>
      <trkpt lat="47.68883" lon="-3.37031">
        <ele>-1.3</ele>
        <time>2015-10-10T13:43:29Z</time>
      </trkpt>
      <trkpt lat="47.6888" lon="-3.37031">
        <ele>-1.3</ele>
        <time>2015-10-10T13:43:30Z</time>
      </trkpt>
      <trkpt lat="47.68877" lon="-3.37032">
        <ele>-1.3</ele>
        <time>2015-10-10T13:43:31Z</time>
      </trkpt>
      <trkpt lat="47.68875" lon="-3.37033">
        <ele>-1.3</ele>
        <time>2015-10-10T13:43:32Z</time>
      </trkpt>
      <trkpt lat="47.68873" lon="-3.37033">
        <ele>-1.3</ele>
        <time>2015-10-10T13:43:33Z</time>
      </trkpt>
      <trkpt lat="47.6887" lon="-3.37034">
        <ele>-1.3</ele>
        <time>2015-10-10T13:43:34Z</time>
      </trkpt>
      <trkpt lat="47.68868" lon="-3.37034">
        <ele>-1.3</ele>
        <time>2015-10-10T13:43:35Z</time>
      </trkpt>
      <trkpt lat="47.68865" lon="-3.37034">
        <ele>-1.3</ele>
        <time>2015-10-10T13:43:36Z</time>
      </trkpt>
      <trkpt lat="47.68862" lon="-3.37034">
        <ele>-1.3</ele>
        <time>2015-10-10T13:43:37Z</time>
      </trkpt>
      <trkpt lat="47.68859" lon="-3.37034">
        <ele>-1.3</ele>
        <time>2015-10-10T13:43:38Z</time>
      </trkpt>
      <trkpt lat="47.68857" lon="-3.37034">
        <ele>-1.3</ele>
        <time>2015-10-10T13:43:39Z</time>
      </trkpt>
      <trkpt lat="47.68854" lon="-3.37033">
        <ele>-1.3</ele>
        <time>2015-10-10T13:43:40Z</time>
      </trkpt>
      <trkpt lat="47.68851" lon="-3.37033">
        <ele>-1.3</ele>
        <time>2015-10-10T13:43:41Z</time>
      </trkpt>
      <trkpt lat="47.68848" lon="-3.37033">
        <ele>-1.3</ele>
        <time>2015-10-10T13:43:42Z</time>
      </trkpt>
      <trkpt lat="47.68846" lon="-3.37032">
        <ele>-1.3</ele>
        <time>2015-10-10T13:43:43Z</time>
      </trkpt>
      <trkpt lat="47.68843" lon="-3.37032">
        <ele>-1.3</ele>
        <time>2015-10-10T13:43:44Z</time>
      </trkpt>
      <trkpt lat="47.6884" lon="-3.37031">
        <ele>-1.3</ele>
        <time>2015-10-10T13:43:45Z</time>
      </trkpt>
      <trkpt lat="47.68838" lon="-3.3703">
        <ele>-1.3</ele>
        <time>2015-10-10T13:43:46Z</time>
      </trkpt>
      <trkpt lat="47.68835" lon="-3.3703">
        <ele>-1.3</ele>
        <time>2015-10-10T13:43:47Z</time>
      </trkpt>
      <trkpt lat="47.68833" lon="-3.37029">
        <ele>-1.3</ele>
        <time>2015-10-10T13:43:48Z</time>
      </trkpt>
      <trkpt lat="47.6883" lon="-3.37028">
        <ele>-1.3</ele>
        <time>2015-10-10T13:43:49Z</time>
      </trkpt>
      <trkpt lat="47.68827" lon="-3.37028">
        <ele>-1.3</ele>
        <time>2015-10-10T13:43:50Z</time>
      </trkpt>
      <trkpt lat="47.68824" lon="-3.37029">
        <ele>-1.3</ele>
        <time>2015-10-10T13:43:51Z</time>
      </trkpt>
      <trkpt lat="47.68822" lon="-3.3703">
        <ele>-1.3</ele>
        <time>2015-10-10T13:43:52Z</time>
      </trkpt>
      <trkpt lat="47.68819" lon="-3.37031">
        <ele>-1.3</ele>
        <time>2015-10-10T13:43:53Z</time>
      </trkpt>
      <trkpt lat="47.68816" lon="-3.37032">
        <ele>-1.3</ele>
        <time>2015-10-10T13:43:54Z</time>
      </trkpt>
      <trkpt lat="47.68814" lon="-3.37033">
        <ele>-1.3</ele>
        <time>2015-10-10T13:43:55Z</time>
      </trkpt>
      <trkpt lat="47.68811" lon="-3.37034">
        <ele>-1.3</ele>
        <time>2015-10-10T13:43:56Z</time>
      </trkpt>
      <trkpt lat="47.68809" lon="-3.37035">
        <ele>-1.3</ele>
        <time>2015-10-10T13:43:57Z</time>
      </trkpt>
      <trkpt lat="47.68806" lon="-3.37036">
        <ele>-1.3</ele>
        <time>2015-10-10T13:43:58Z</time>
      </trkpt>
      <trkpt lat="47.68804" lon="-3.37038">
        <ele>-1.3</ele>
        <time>2015-10-10T13:43:59Z</time>
      </trkpt>
      <trkpt lat="47.68801" lon="-3.37039">
        <ele>-1.3</ele>
        <time>2015-10-10T13:44:00Z</time>
      </trkpt>
      <trkpt lat="47.68799" lon="-3.37041">
        <ele>-1.3</ele>
        <time>2015-10-10T13:44:01Z</time>
      </trkpt>
      <trkpt lat="47.68797" lon="-3.37042">
        <ele>-1.3</ele>
        <time>2015-10-10T13:44:02Z</time>
      </trkpt>
      <trkpt lat="47.68794" lon="-3.37044">
        <ele>-1.3</ele>
        <time>2015-10-10T13:44:03Z</time>
      </trkpt>
      <trkpt lat="47.68791" lon="-3.37045">
        <ele>-1.3</ele>
        <time>2015-10-10T13:44:04Z</time>
      </trkpt>
      <trkpt lat="47.68789" lon="-3.37046">
        <ele>-1.3</ele>
        <time>2015-10-10T13:44:05Z</time>
      </trkpt>
      <trkpt lat="47.68787" lon="-3.37047">
        <ele>-1.3</ele>
        <time>2015-10-10T13:44:06Z</time>
      </trkpt>
      <trkpt lat="47.68784" lon="-3.37048">
        <ele>-1.3</ele>
        <time>2015-10-10T13:44:07Z</time>
      </trkpt>
      <trkpt lat="47.68782" lon="-3.37049">
        <ele>-1.3</ele>
        <time>2015-10-10T13:44:08Z</time>
      </trkpt>
      <trkpt lat="47.6878" lon="-3.3705">
        <ele>-1.3</ele>
        <time>2015-10-10T13:44:09Z</time>
      </trkpt>
      <trkpt lat="47.68777" lon="-3.37052">
        <ele>-1.3</ele>
        <time>2015-10-10T13:44:10Z</time>
      </trkpt>
      <trkpt lat="47.68775" lon="-3.37054">
        <ele>-1.3</ele>
        <time>2015-10-10T13:44:11Z</time>
      </trkpt>
      <trkpt lat="47.68772" lon="-3.37056">
        <ele>-1.3</ele>
        <time>2015-10-10T13:44:12Z</time>
      </trkpt>
      <trkpt lat="47.6877" lon="-3.37057">
        <ele>-1.3</ele>
        <time>2015-10-10T13:44:13Z</time>
      </trkpt>
      <trkpt lat="47.68767" lon="-3.37058">
        <ele>-1.3</ele>
        <time>2015-10-10T13:44:14Z</time>
      </trkpt>
      <trkpt lat="47.68764" lon="-3.37059">
        <ele>-1.3</ele>
        <time>2015-10-10T13:44:15Z</time>
      </trkpt>
      <trkpt lat="47.68762" lon="-3.3706">
        <ele>-1.3</ele>
        <time>2015-10-10T13:44:16Z</time>
      </trkpt>
      <trkpt lat="47.68759" lon="-3.37061">
        <ele>-1.3</ele>
        <time>2015-10-10T13:44:17Z</time>
      </trkpt>
      <trkpt lat="47.68757" lon="-3.37063">
        <ele>-1.3</ele>
        <time>2015-10-10T13:44:18Z</time>
      </trkpt>
      <trkpt lat="47.68755" lon="-3.37064">
        <ele>-1.3</ele>
        <time>2015-10-10T13:44:19Z</time>
      </trkpt>
      <trkpt lat="47.68752" lon="-3.37065">
        <ele>-1.3</ele>
        <time>2015-10-10T13:44:20Z</time>
      </trkpt>
      <trkpt lat="47.6875" lon="-3.37066">
        <ele>-1.3</ele>
        <time>2015-10-10T13:44:21Z</time>
      </trkpt>
      <trkpt lat="47.68747" lon="-3.37067">
        <ele>-1.3</ele>
        <time>2015-10-10T13:44:22Z</time>
      </trkpt>
      <trkpt lat="47.68745" lon="-3.37069">
        <ele>-1.3</ele>
        <time>2015-10-10T13:44:23Z</time>
      </trkpt>
      <trkpt lat="47.68742" lon="-3.3707">
        <ele>-1.3</ele>
        <time>2015-10-10T13:44:24Z</time>
      </trkpt>
      <trkpt lat="47.6874" lon="-3.37071">
        <ele>-1.3</ele>
        <time>2015-10-10T13:44:25Z</time>
      </trkpt>
      <trkpt lat="47.68738" lon="-3.37072">
        <ele>-1.3</ele>
        <time>2015-10-10T13:44:26Z</time>
      </trkpt>
      <trkpt lat="47.68735" lon="-3.37073">
        <ele>-1.3</ele>
        <time>2015-10-10T13:44:27Z</time>
      </trkpt>
      <trkpt lat="47.68732" lon="-3.37074">
        <ele>-1.3</ele>
        <time>2015-10-10T13:44:28Z</time>
      </trkpt>
      <trkpt lat="47.6873" lon="-3.37075">
        <ele>-1.3</ele>
        <time>2015-10-10T13:44:29Z</time>
      </trkpt>
      <trkpt lat="47.68727" lon="-3.37076">
        <ele>-1.3</ele>
        <time>2015-10-10T13:44:30Z</time>
      </trkpt>
      <trkpt lat="47.68725" lon="-3.37076">
        <ele>-1.3</ele>
        <time>2015-10-10T13:44:31Z</time>
      </trkpt>
      <trkpt lat="47.68723" lon="-3.37077">
        <ele>-1.3</ele>
        <time>2015-10-10T13:44:32Z</time>
      </trkpt>
      <trkpt lat="47.6872" lon="-3.37078">
        <ele>-1.3</ele>
        <time>2015-10-10T13:44:33Z</time>
      </trkpt>
      <trkpt lat="47.68717" lon="-3.37079">
        <ele>-1.3</ele>
        <time>2015-10-10T13:44:34Z</time>
      </trkpt>
      <trkpt lat="47.68715" lon="-3.37079">
        <ele>-1.3</ele>
        <time>2015-10-10T13:44:35Z</time>
      </trkpt>
      <trkpt lat="47.68713" lon="-3.37079">
        <ele>-1.3</ele>
        <time>2015-10-10T13:44:36Z</time>
      </trkpt>
      <trkpt lat="47.6871" lon="-3.37079">
        <ele>-1.3</ele>
        <time>2015-10-10T13:44:37Z</time>
      </trkpt>
      <trkpt lat="47.68708" lon="-3.37079">
        <ele>-1.3</ele>
        <time>2015-10-10T13:44:38Z</time>
      </trkpt>
      <trkpt lat="47.68706" lon="-3.37079">
        <ele>-1.3</ele>
        <time>2015-10-10T13:44:39Z</time>
      </trkpt>
      <trkpt lat="47.68703" lon="-3.37079">
        <ele>-1.3</ele>
        <time>2015-10-10T13:44:40Z</time>
      </trkpt>
      <trkpt lat="47.687" lon="-3.37079">
        <ele>-1.3</ele>
        <time>2015-10-10T13:44:41Z</time>
      </trkpt>
      <trkpt lat="47.68698" lon="-3.37079">
        <ele>-1.3</ele>
        <time>2015-10-10T13:44:42Z</time>
      </trkpt>
      <trkpt lat="47.68695" lon="-3.37079">
        <ele>-1.3</ele>
        <time>2015-10-10T13:44:43Z</time>
      </trkpt>
      <trkpt lat="47.68692" lon="-3.37079">
        <ele>-1.3</ele>
        <time>2015-10-10T13:44:44Z</time>
      </trkpt>
      <trkpt lat="47.6869" lon="-3.37078">
        <ele>-1.3</ele>
        <time>2015-10-10T13:44:45Z</time>
      </trkpt>
      <trkpt lat="47.68687" lon="-3.37078">
        <ele>-1.3</ele>
        <time>2015-10-10T13:44:46Z</time>
      </trkpt>
      <trkpt lat="47.68685" lon="-3.37077">
        <ele>-1.3</ele>
        <time>2015-10-10T13:44:47Z</time>
      </trkpt>
      <trkpt lat="47.68683" lon="-3.37077">
        <ele>-1.3</ele>
        <time>2015-10-10T13:44:48Z</time>
      </trkpt>
      <trkpt lat="47.6868" lon="-3.37076">
        <ele>-1.3</ele>
        <time>2015-10-10T13:44:49Z</time>
      </trkpt>
      <trkpt lat="47.68678" lon="-3.37075">
        <ele>-1.3</ele>
        <time>2015-10-10T13:44:50Z</time>
      </trkpt>
      <trkpt lat="47.68676" lon="-3.37074">
        <ele>-1.3</ele>
        <time>2015-10-10T13:44:51Z</time>
      </trkpt>
      <trkpt lat="47.68674" lon="-3.37073">
        <ele>-1.3</ele>
        <time>2015-10-10T13:44:52Z</time>
      </trkpt>
      <trkpt lat="47.68672" lon="-3.37071">
        <ele>-1.3</ele>
        <time>2015-10-10T13:44:53Z</time>
      </trkpt>
      <trkpt lat="47.6867" lon="-3.37069">
        <ele>-1.3</ele>
        <time>2015-10-10T13:44:54Z</time>
      </trkpt>
      <trkpt lat="47.68668" lon="-3.37068">
        <ele>-1.3</ele>
        <time>2015-10-10T13:44:55Z</time>
      </trkpt>
      <trkpt lat="47.68665" lon="-3.37066">
        <ele>-1.3</ele>
        <time>2015-10-10T13:44:56Z</time>
      </trkpt>
      <trkpt lat="47.68663" lon="-3.37066">
        <ele>-1.3</ele>
        <time>2015-10-10T13:44:57Z</time>
      </trkpt>
      <trkpt lat="47.6866" lon="-3.37065">
        <ele>-1.3</ele>
        <time>2015-10-10T13:44:58Z</time>
      </trkpt>
      <trkpt lat="47.68657" lon="-3.37064">
        <ele>-1.3</ele>
        <time>2015-10-10T13:44:59Z</time>
      </trkpt>
      <trkpt lat="47.68655" lon="-3.37063">
        <ele>-1.3</ele>
        <time>2015-10-10T13:45:00Z</time>
      </trkpt>
      <trkpt lat="47.68652" lon="-3.37062">
        <ele>-1.3</ele>
        <time>2015-10-10T13:45:01Z</time>
      </trkpt>
      <trkpt lat="47.6865" lon="-3.37061">
        <ele>-1.3</ele>
        <time>2015-10-10T13:45:02Z</time>
      </trkpt>
      <trkpt lat="47.68647" lon="-3.3706">
        <ele>-1.3</ele>
        <time>2015-10-10T13:45:03Z</time>
      </trkpt>
      <trkpt lat="47.68645" lon="-3.37059">
        <ele>-1.3</ele>
        <time>2015-10-10T13:45:04Z</time>
      </trkpt>
      <trkpt lat="47.68643" lon="-3.37058">
        <ele>-1.3</ele>
        <time>2015-10-10T13:45:05Z</time>
      </trkpt>
      <trkpt lat="47.68641" lon="-3.37057">
        <ele>0.14</ele>
        <time>2015-10-10T13:45:06Z</time>
      </trkpt>
      <trkpt lat="47.68638" lon="-3.37056">
        <ele>0.14</ele>
        <time>2015-10-10T13:45:07Z</time>
      </trkpt>
      <trkpt lat="47.68636" lon="-3.37055">
        <ele>0.14</ele>
        <time>2015-10-10T13:45:08Z</time>
      </trkpt>
      <trkpt lat="47.68634" lon="-3.37055">
        <ele>0.14</ele>
        <time>2015-10-10T13:45:09Z</time>
      </trkpt>
      <trkpt lat="47.68631" lon="-3.37054">
        <ele>0.14</ele>
        <time>2015-10-10T13:45:10Z</time>
      </trkpt>
      <trkpt lat="47.68629" lon="-3.37054">
        <ele>-1.3</ele>
        <time>2015-10-10T13:45:11Z</time>
      </trkpt>
      <trkpt lat="47.68626" lon="-3.37054">
        <ele>-1.3</ele>
        <time>2015-10-10T13:45:12Z</time>
      </trkpt>
      <trkpt lat="47.68623" lon="-3.37053">
        <ele>-1.3</ele>
        <time>2015-10-10T13:45:13Z</time>
      </trkpt>
      <trkpt lat="47.6862" lon="-3.37053">
        <ele>-1.3</ele>
        <time>2015-10-10T13:45:14Z</time>
      </trkpt>
      <trkpt lat="47.68617" lon="-3.37053">
        <ele>-1.3</ele>
        <time>2015-10-10T13:45:15Z</time>
      </trkpt>
      <trkpt lat="47.68615" lon="-3.37052">
        <ele>-1.3</ele>
        <time>2015-10-10T13:45:16Z</time>
      </trkpt>
      <trkpt lat="47.68612" lon="-3.37052">
        <ele>-1.3</ele>
        <time>2015-10-10T13:45:17Z</time>
      </trkpt>
      <trkpt lat="47.68609" lon="-3.37052">
        <ele>-1.3</ele>
        <time>2015-10-10T13:45:18Z</time>
      </trkpt>
      <trkpt lat="47.68607" lon="-3.37052">
        <ele>-1.3</ele>
        <time>2015-10-10T13:45:19Z</time>
      </trkpt>
      <trkpt lat="47.68605" lon="-3.37051">
        <ele>-1.3</ele>
        <time>2015-10-10T13:45:20Z</time>
      </trkpt>
      <trkpt lat="47.68603" lon="-3.37051">
        <ele>0.14</ele>
        <time>2015-10-10T13:45:21Z</time>
      </trkpt>
      <trkpt lat="47.686" lon="-3.3705">
        <ele>0.14</ele>
        <time>2015-10-10T13:45:22Z</time>
      </trkpt>
      <trkpt lat="47.68598" lon="-3.3705">
        <ele>0.14</ele>
        <time>2015-10-10T13:45:23Z</time>
      </trkpt>
      <trkpt lat="47.68595" lon="-3.37049">
        <ele>-1.3</ele>
        <time>2015-10-10T13:45:24Z</time>
      </trkpt>
      <trkpt lat="47.68592" lon="-3.37048">
        <ele>-1.3</ele>
        <time>2015-10-10T13:45:25Z</time>
      </trkpt>
      <trkpt lat="47.68589" lon="-3.37048">
        <ele>-1.3</ele>
        <time>2015-10-10T13:45:26Z</time>
      </trkpt>
      <trkpt lat="47.68585" lon="-3.37047">
        <ele>-1.3</ele>
        <time>2015-10-10T13:45:27Z</time>
      </trkpt>
      <trkpt lat="47.68582" lon="-3.37047">
        <ele>-1.3</ele>
        <time>2015-10-10T13:45:28Z</time>
      </trkpt>
      <trkpt lat="47.68579" lon="-3.37047">
        <ele>-1.3</ele>
        <time>2015-10-10T13:45:29Z</time>
      </trkpt>
      <trkpt lat="47.68577" lon="-3.37047">
        <ele>-1.3</ele>
        <time>2015-10-10T13:45:30Z</time>
      </trkpt>
      <trkpt lat="47.68574" lon="-3.37047">
        <ele>-1.3</ele>
        <time>2015-10-10T13:45:31Z</time>
      </trkpt>
      <trkpt lat="47.68571" lon="-3.37047">
        <ele>-1.3</ele>
        <time>2015-10-10T13:45:32Z</time>
      </trkpt>
      <trkpt lat="47.68569" lon="-3.37048">
        <ele>-1.3</ele>
        <time>2015-10-10T13:45:33Z</time>
      </trkpt>
      <trkpt lat="47.68567" lon="-3.37048">
        <ele>-1.3</ele>
        <time>2015-10-10T13:45:34Z</time>
      </trkpt>
      <trkpt lat="47.68564" lon="-3.37047">
        <ele>0.14</ele>
        <time>2015-10-10T13:45:35Z</time>
      </trkpt>
      <trkpt lat="47.68562" lon="-3.37047">
        <ele>0.14</ele>
        <time>2015-10-10T13:45:36Z</time>
      </trkpt>
      <trkpt lat="47.68559" lon="-3.37046">
        <ele>0.14</ele>
        <time>2015-10-10T13:45:37Z</time>
      </trkpt>
      <trkpt lat="47.68556" lon="-3.37046">
        <ele>0.14</ele>
        <time>2015-10-10T13:45:38Z</time>
      </trkpt>
      <trkpt lat="47.68553" lon="-3.37046">
        <ele>0.14</ele>
        <time>2015-10-10T13:45:39Z</time>
      </trkpt>
      <trkpt lat="47.6855" lon="-3.37046">
        <ele>0.14</ele>
        <time>2015-10-10T13:45:40Z</time>
      </trkpt>
      <trkpt lat="47.68547" lon="-3.37046">
        <ele>0.14</ele>
        <time>2015-10-10T13:45:41Z</time>
      </trkpt>
      <trkpt lat="47.68544" lon="-3.37046">
        <ele>-0.82</ele>
        <time>2015-10-10T13:45:42Z</time>
      </trkpt>
      <trkpt lat="47.68541" lon="-3.37046">
        <ele>-0.82</ele>
        <time>2015-10-10T13:45:43Z</time>
      </trkpt>
      <trkpt lat="47.68538" lon="-3.37046">
        <ele>-0.82</ele>
        <time>2015-10-10T13:45:44Z</time>
      </trkpt>
      <trkpt lat="47.68535" lon="-3.37045">
        <ele>-0.82</ele>
        <time>2015-10-10T13:45:45Z</time>
      </trkpt>
      <trkpt lat="47.68532" lon="-3.37045">
        <ele>-0.82</ele>
        <time>2015-10-10T13:45:46Z</time>
      </trkpt>
      <trkpt lat="47.68529" lon="-3.37045">
        <ele>-0.82</ele>
        <time>2015-10-10T13:45:47Z</time>
      </trkpt>
      <trkpt lat="47.68527" lon="-3.37045">
        <ele>-0.82</ele>
        <time>2015-10-10T13:45:48Z</time>
      </trkpt>
      <trkpt lat="47.68524" lon="-3.37045">
        <ele>-0.82</ele>
        <time>2015-10-10T13:45:49Z</time>
      </trkpt>
      <trkpt lat="47.68522" lon="-3.37045">
        <ele>-0.82</ele>
        <time>2015-10-10T13:45:50Z</time>
      </trkpt>
      <trkpt lat="47.68519" lon="-3.37045">
        <ele>-0.82</ele>
        <time>2015-10-10T13:45:51Z</time>
      </trkpt>
      <trkpt lat="47.68517" lon="-3.37045">
        <ele>-0.82</ele>
        <time>2015-10-10T13:45:52Z</time>
      </trkpt>
      <trkpt lat="47.68514" lon="-3.37045">
        <ele>-0.82</ele>
        <time>2015-10-10T13:45:53Z</time>
      </trkpt>
      <trkpt lat="47.68511" lon="-3.37046">
        <ele>-0.82</ele>
        <time>2015-10-10T13:45:54Z</time>
      </trkpt>
      <trkpt lat="47.68509" lon="-3.37046">
        <ele>-0.82</ele>
        <time>2015-10-10T13:45:55Z</time>
      </trkpt>
      <trkpt lat="47.68506" lon="-3.37046">
        <ele>-0.82</ele>
        <time>2015-10-10T13:45:56Z</time>
      </trkpt>
      <trkpt lat="47.68503" lon="-3.37046">
        <ele>-0.82</ele>
        <time>2015-10-10T13:45:57Z</time>
      </trkpt>
      <trkpt lat="47.685" lon="-3.37046">
        <ele>-0.82</ele>
        <time>2015-10-10T13:45:58Z</time>
      </trkpt>
      <trkpt lat="47.68497" lon="-3.37046">
        <ele>-0.82</ele>
        <time>2015-10-10T13:45:59Z</time>
      </trkpt>
      <trkpt lat="47.68494" lon="-3.37045">
        <ele>-0.82</ele>
        <time>2015-10-10T13:46:00Z</time>
      </trkpt>
      <trkpt lat="47.68491" lon="-3.37045">
        <ele>-0.82</ele>
        <time>2015-10-10T13:46:01Z</time>
      </trkpt>
      <trkpt lat="47.68488" lon="-3.37044">
        <ele>-0.82</ele>
        <time>2015-10-10T13:46:02Z</time>
      </trkpt>
      <trkpt lat="47.68486" lon="-3.37044">
        <ele>0.14</ele>
        <time>2015-10-10T13:46:03Z</time>
      </trkpt>
      <trkpt lat="47.68483" lon="-3.37044">
        <ele>0.14</ele>
        <time>2015-10-10T13:46:04Z</time>
      </trkpt>
      <trkpt lat="47.6848" lon="-3.37044">
        <ele>0.14</ele>
        <time>2015-10-10T13:46:05Z</time>
      </trkpt>
      <trkpt lat="47.68478" lon="-3.37044">
        <ele>0.14</ele>
        <time>2015-10-10T13:46:06Z</time>
      </trkpt>
      <trkpt lat="47.68475" lon="-3.37043">
        <ele>0.14</ele>
        <time>2015-10-10T13:46:07Z</time>
      </trkpt>
      <trkpt lat="47.68472" lon="-3.37043">
        <ele>0.14</ele>
        <time>2015-10-10T13:46:08Z</time>
      </trkpt>
      <trkpt lat="47.68469" lon="-3.37043">
        <ele>0.14</ele>
        <time>2015-10-10T13:46:09Z</time>
      </trkpt>
      <trkpt lat="47.68466" lon="-3.37043">
        <ele>0.14</ele>
        <time>2015-10-10T13:46:10Z</time>
      </trkpt>
      <trkpt lat="47.68463" lon="-3.37043">
        <ele>0.14</ele>
        <time>2015-10-10T13:46:11Z</time>
      </trkpt>
      <trkpt lat="47.6846" lon="-3.37043">
        <ele>0.14</ele>
        <time>2015-10-10T13:46:12Z</time>
      </trkpt>
      <trkpt lat="47.68458" lon="-3.37043">
        <ele>0.14</ele>
        <time>2015-10-10T13:46:13Z</time>
      </trkpt>
      <trkpt lat="47.68455" lon="-3.37043">
        <ele>0.14</ele>
        <time>2015-10-10T13:46:14Z</time>
      </trkpt>
      <trkpt lat="47.68452" lon="-3.37042">
        <ele>0.14</ele>
        <time>2015-10-10T13:46:15Z</time>
      </trkpt>
      <trkpt lat="47.6845" lon="-3.37041">
        <ele>0.14</ele>
        <time>2015-10-10T13:46:16Z</time>
      </trkpt>
      <trkpt lat="47.68447" lon="-3.3704">
        <ele>0.14</ele>
        <time>2015-10-10T13:46:17Z</time>
      </trkpt>
      <trkpt lat="47.68444" lon="-3.3704">
        <ele>0.14</ele>
        <time>2015-10-10T13:46:18Z</time>
      </trkpt>
      <trkpt lat="47.68442" lon="-3.37039">
        <ele>0.14</ele>
        <time>2015-10-10T13:46:19Z</time>
      </trkpt>
      <trkpt lat="47.68439" lon="-3.37038">
        <ele>0.14</ele>
        <time>2015-10-10T13:46:20Z</time>
      </trkpt>
      <trkpt lat="47.68436" lon="-3.37037">
        <ele>0.14</ele>
        <time>2015-10-10T13:46:21Z</time>
      </trkpt>
      <trkpt lat="47.68433" lon="-3.37036">
        <ele>0.14</ele>
        <time>2015-10-10T13:46:22Z</time>
      </trkpt>
      <trkpt lat="47.6843" lon="-3.37036">
        <ele>0.14</ele>
        <time>2015-10-10T13:46:23Z</time>
      </trkpt>
      <trkpt lat="47.68427" lon="-3.37035">
        <ele>0.14</ele>
        <time>2015-10-10T13:46:24Z</time>
      </trkpt>
      <trkpt lat="47.68424" lon="-3.37035">
        <ele>0.14</ele>
        <time>2015-10-10T13:46:25Z</time>
      </trkpt>
      <trkpt lat="47.68421" lon="-3.37035">
        <ele>0.14</ele>
        <time>2015-10-10T13:46:26Z</time>
      </trkpt>
      <trkpt lat="47.68418" lon="-3.37035">
        <ele>-0.82</ele>
        <time>2015-10-10T13:46:27Z</time>
      </trkpt>
      <trkpt lat="47.68415" lon="-3.37035">
        <ele>-0.82</ele>
        <time>2015-10-10T13:46:28Z</time>
      </trkpt>
      <trkpt lat="47.68412" lon="-3.37035">
        <ele>-0.82</ele>
        <time>2015-10-10T13:46:29Z</time>
      </trkpt>
      <trkpt lat="47.6841" lon="-3.37034">
        <ele>-0.82</ele>
        <time>2015-10-10T13:46:30Z</time>
      </trkpt>
      <trkpt lat="47.68407" lon="-3.37034">
        <ele>-0.82</ele>
        <time>2015-10-10T13:46:31Z</time>
      </trkpt>
      <trkpt lat="47.68404" lon="-3.37034">
        <ele>-0.82</ele>
        <time>2015-10-10T13:46:32Z</time>
      </trkpt>
      <trkpt lat="47.68401" lon="-3.37034">
        <ele>-0.82</ele>
        <time>2015-10-10T13:46:33Z</time>
      </trkpt>
      <trkpt lat="47.68399" lon="-3.37033">
        <ele>-0.82</ele>
        <time>2015-10-10T13:46:34Z</time>
      </trkpt>
      <trkpt lat="47.68396" lon="-3.37033">
        <ele>-0.82</ele>
        <time>2015-10-10T13:46:35Z</time>
      </trkpt>
      <trkpt lat="47.68393" lon="-3.37031">
        <ele>-0.82</ele>
        <time>2015-10-10T13:46:36Z</time>
      </trkpt>
      <trkpt lat="47.68391" lon="-3.3703">
        <ele>-0.82</ele>
        <time>2015-10-10T13:46:37Z</time>
      </trkpt>
      <trkpt lat="47.68388" lon="-3.37029">
        <ele>0.14</ele>
        <time>2015-10-10T13:46:38Z</time>
      </trkpt>
      <trkpt lat="47.68385" lon="-3.37028">
        <ele>0.14</ele>
        <time>2015-10-10T13:46:39Z</time>
      </trkpt>
      <trkpt lat="47.68382" lon="-3.37027">
        <ele>0.14</ele>
        <time>2015-10-10T13:46:40Z</time>
      </trkpt>
      <trkpt lat="47.68379" lon="-3.37027">
        <ele>0.14</ele>
        <time>2015-10-10T13:46:41Z</time>
      </trkpt>
      <trkpt lat="47.68376" lon="-3.37027">
        <ele>0.14</ele>
        <time>2015-10-10T13:46:42Z</time>
      </trkpt>
      <trkpt lat="47.68373" lon="-3.37026">
        <ele>0.14</ele>
        <time>2015-10-10T13:46:43Z</time>
      </trkpt>
      <trkpt lat="47.6837" lon="-3.37026">
        <ele>0.14</ele>
        <time>2015-10-10T13:46:44Z</time>
      </trkpt>
      <trkpt lat="47.68367" lon="-3.37025">
        <ele>0.14</ele>
        <time>2015-10-10T13:46:45Z</time>
      </trkpt>
      <trkpt lat="47.68364" lon="-3.37024">
        <ele>0.14</ele>
        <time>2015-10-10T13:46:46Z</time>
      </trkpt>
      <trkpt lat="47.68362" lon="-3.37023">
        <ele>0.14</ele>
        <time>2015-10-10T13:46:47Z</time>
      </trkpt>
      <trkpt lat="47.68359" lon="-3.37022">
        <ele>0.14</ele>
        <time>2015-10-10T13:46:48Z</time>
      </trkpt>
      <trkpt lat="47.68356" lon="-3.37022">
        <ele>0.14</ele>
        <time>2015-10-10T13:46:49Z</time>
      </trkpt>
      <trkpt lat="47.68353" lon="-3.37021">
        <ele>0.14</ele>
        <time>2015-10-10T13:46:50Z</time>
      </trkpt>
      <trkpt lat="47.6835" lon="-3.3702">
        <ele>0.14</ele>
        <time>2015-10-10T13:46:51Z</time>
      </trkpt>
      <trkpt lat="47.68347" lon="-3.3702">
        <ele>0.14</ele>
        <time>2015-10-10T13:46:52Z</time>
      </trkpt>
      <trkpt lat="47.68344" lon="-3.37019">
        <ele>0.14</ele>
        <time>2015-10-10T13:46:53Z</time>
      </trkpt>
      <trkpt lat="47.68341" lon="-3.37018">
        <ele>0.14</ele>
        <time>2015-10-10T13:46:54Z</time>
      </trkpt>
      <trkpt lat="47.68339" lon="-3.37017">
        <ele>0.14</ele>
        <time>2015-10-10T13:46:55Z</time>
      </trkpt>
      <trkpt lat="47.68336" lon="-3.37017">
        <ele>0.14</ele>
        <time>2015-10-10T13:46:56Z</time>
      </trkpt>
      <trkpt lat="47.68333" lon="-3.37017">
        <ele>0.14</ele>
        <time>2015-10-10T13:46:57Z</time>
      </trkpt>
      <trkpt lat="47.68331" lon="-3.37017">
        <ele>0.14</ele>
        <time>2015-10-10T13:46:58Z</time>
      </trkpt>
      <trkpt lat="47.68328" lon="-3.37016">
        <ele>0.14</ele>
        <time>2015-10-10T13:46:59Z</time>
      </trkpt>
      <trkpt lat="47.68325" lon="-3.37016">
        <ele>0.14</ele>
        <time>2015-10-10T13:47:00Z</time>
      </trkpt>
      <trkpt lat="47.68322" lon="-3.37015">
        <ele>0.14</ele>
        <time>2015-10-10T13:47:01Z</time>
      </trkpt>
      <trkpt lat="47.68319" lon="-3.37014">
        <ele>0.14</ele>
        <time>2015-10-10T13:47:02Z</time>
      </trkpt>
      <trkpt lat="47.68316" lon="-3.37013">
        <ele>0.14</ele>
        <time>2015-10-10T13:47:03Z</time>
      </trkpt>
      <trkpt lat="47.68314" lon="-3.37012">
        <ele>0.14</ele>
        <time>2015-10-10T13:47:04Z</time>
      </trkpt>
      <trkpt lat="47.68311" lon="-3.37011">
        <ele>0.14</ele>
        <time>2015-10-10T13:47:05Z</time>
      </trkpt>
      <trkpt lat="47.68308" lon="-3.3701">
        <ele>0.14</ele>
        <time>2015-10-10T13:47:06Z</time>
      </trkpt>
      <trkpt lat="47.68305" lon="-3.3701">
        <ele>0.14</ele>
        <time>2015-10-10T13:47:07Z</time>
      </trkpt>
      <trkpt lat="47.68302" lon="-3.37009">
        <ele>0.14</ele>
        <time>2015-10-10T13:47:08Z</time>
      </trkpt>
      <trkpt lat="47.68299" lon="-3.37008">
        <ele>0.14</ele>
        <time>2015-10-10T13:47:09Z</time>
      </trkpt>
      <trkpt lat="47.68297" lon="-3.37008">
        <ele>0.14</ele>
        <time>2015-10-10T13:47:10Z</time>
      </trkpt>
      <trkpt lat="47.68294" lon="-3.37007">
        <ele>0.14</ele>
        <time>2015-10-10T13:47:11Z</time>
      </trkpt>
      <trkpt lat="47.68291" lon="-3.37007">
        <ele>0.62</ele>
        <time>2015-10-10T13:47:12Z</time>
      </trkpt>
      <trkpt lat="47.68289" lon="-3.37007">
        <ele>0.62</ele>
        <time>2015-10-10T13:47:13Z</time>
      </trkpt>
      <trkpt lat="47.68286" lon="-3.37006">
        <ele>0.62</ele>
        <time>2015-10-10T13:47:14Z</time>
      </trkpt>
      <trkpt lat="47.68283" lon="-3.37004">
        <ele>0.62</ele>
        <time>2015-10-10T13:47:15Z</time>
      </trkpt>
      <trkpt lat="47.6828" lon="-3.37003">
        <ele>0.62</ele>
        <time>2015-10-10T13:47:16Z</time>
      </trkpt>
      <trkpt lat="47.68277" lon="-3.37003">
        <ele>-0.82</ele>
        <time>2015-10-10T13:47:17Z</time>
      </trkpt>
      <trkpt lat="47.68274" lon="-3.37002">
        <ele>-0.82</ele>
        <time>2015-10-10T13:47:18Z</time>
      </trkpt>
      <trkpt lat="47.68271" lon="-3.37002">
        <ele>-0.82</ele>
        <time>2015-10-10T13:47:19Z</time>
      </trkpt>
      <trkpt lat="47.68268" lon="-3.37001">
        <ele>-0.82</ele>
        <time>2015-10-10T13:47:20Z</time>
      </trkpt>
      <trkpt lat="47.68265" lon="-3.37">
        <ele>-0.82</ele>
        <time>2015-10-10T13:47:21Z</time>
      </trkpt>
      <trkpt lat="47.68263" lon="-3.36999">
        <ele>-0.82</ele>
        <time>2015-10-10T13:47:22Z</time>
      </trkpt>
      <trkpt lat="47.6826" lon="-3.36998">
        <ele>-0.82</ele>
        <time>2015-10-10T13:47:23Z</time>
      </trkpt>
      <trkpt lat="47.68257" lon="-3.36997">
        <ele>-0.82</ele>
        <time>2015-10-10T13:47:24Z</time>
      </trkpt>
      <trkpt lat="47.68254" lon="-3.36997">
        <ele>-0.82</ele>
        <time>2015-10-10T13:47:25Z</time>
      </trkpt>
      <trkpt lat="47.68252" lon="-3.36996">
        <ele>-0.82</ele>
        <time>2015-10-10T13:47:26Z</time>
      </trkpt>
      <trkpt lat="47.68249" lon="-3.36995">
        <ele>-0.82</ele>
        <time>2015-10-10T13:47:27Z</time>
      </trkpt>
      <trkpt lat="47.68247" lon="-3.36994">
        <ele>-0.82</ele>
        <time>2015-10-10T13:47:28Z</time>
      </trkpt>
      <trkpt lat="47.68244" lon="-3.36994">
        <ele>-0.82</ele>
        <time>2015-10-10T13:47:29Z</time>
      </trkpt>
      <trkpt lat="47.68241" lon="-3.36993">
        <ele>-1.3</ele>
        <time>2015-10-10T13:47:30Z</time>
      </trkpt>
      <trkpt lat="47.68238" lon="-3.36992">
        <ele>-1.3</ele>
        <time>2015-10-10T13:47:31Z</time>
      </trkpt>
      <trkpt lat="47.68235" lon="-3.36991">
        <ele>-1.3</ele>
        <time>2015-10-10T13:47:32Z</time>
      </trkpt>
      <trkpt lat="47.68232" lon="-3.36991">
        <ele>-1.3</ele>
        <time>2015-10-10T13:47:33Z</time>
      </trkpt>
      <trkpt lat="47.6823" lon="-3.3699">
        <ele>-1.3</ele>
        <time>2015-10-10T13:47:34Z</time>
      </trkpt>
      <trkpt lat="47.68227" lon="-3.36989">
        <ele>-0.82</ele>
        <time>2015-10-10T13:47:35Z</time>
      </trkpt>
      <trkpt lat="47.68224" lon="-3.36989">
        <ele>-1.3</ele>
        <time>2015-10-10T13:47:36Z</time>
      </trkpt>
      <trkpt lat="47.68222" lon="-3.36988">
        <ele>-0.82</ele>
        <time>2015-10-10T13:47:37Z</time>
      </trkpt>
      <trkpt lat="47.68219" lon="-3.36988">
        <ele>-1.3</ele>
        <time>2015-10-10T13:47:38Z</time>
      </trkpt>
      <trkpt lat="47.68216" lon="-3.36987">
        <ele>-0.82</ele>
        <time>2015-10-10T13:47:39Z</time>
      </trkpt>
      <trkpt lat="47.68213" lon="-3.36987">
        <ele>-0.82</ele>
        <time>2015-10-10T13:47:40Z</time>
      </trkpt>
      <trkpt lat="47.68211" lon="-3.36986">
        <ele>-0.82</ele>
        <time>2015-10-10T13:47:41Z</time>
      </trkpt>
      <trkpt lat="47.68208" lon="-3.36985">
        <ele>-0.82</ele>
        <time>2015-10-10T13:47:42Z</time>
      </trkpt>
      <trkpt lat="47.68205" lon="-3.36984">
        <ele>-1.3</ele>
        <time>2015-10-10T13:47:43Z</time>
      </trkpt>
      <trkpt lat="47.68203" lon="-3.36983">
        <ele>-0.82</ele>
        <time>2015-10-10T13:47:44Z</time>
      </trkpt>
      <trkpt lat="47.682" lon="-3.36983">
        <ele>-1.3</ele>
        <time>2015-10-10T13:47:45Z</time>
      </trkpt>
      <trkpt lat="47.68198" lon="-3.36982">
        <ele>-0.82</ele>
        <time>2015-10-10T13:47:46Z</time>
      </trkpt>
      <trkpt lat="47.68195" lon="-3.36981">
        <ele>-1.3</ele>
        <time>2015-10-10T13:47:47Z</time>
      </trkpt>
      <trkpt lat="47.68192" lon="-3.3698">
        <ele>-1.3</ele>
        <time>2015-10-10T13:47:48Z</time>
      </trkpt>
      <trkpt lat="47.68189" lon="-3.3698">
        <ele>-0.82</ele>
        <time>2015-10-10T13:47:49Z</time>
      </trkpt>
      <trkpt lat="47.68186" lon="-3.3698">
        <ele>-1.3</ele>
        <time>2015-10-10T13:47:50Z</time>
      </trkpt>
      <trkpt lat="47.68184" lon="-3.3698">
        <ele>-0.82</ele>
        <time>2015-10-10T13:47:51Z</time>
      </trkpt>
      <trkpt lat="47.68181" lon="-3.36979">
        <ele>-0.82</ele>
        <time>2015-10-10T13:47:52Z</time>
      </trkpt>
      <trkpt lat="47.68178" lon="-3.36978">
        <ele>-0.82</ele>
        <time>2015-10-10T13:47:53Z</time>
      </trkpt>
      <trkpt lat="47.68176" lon="-3.36977">
        <ele>-1.3</ele>
        <time>2015-10-10T13:47:54Z</time>
      </trkpt>
      <trkpt lat="47.68173" lon="-3.36976">
        <ele>-1.3</ele>
        <time>2015-10-10T13:47:55Z</time>
      </trkpt>
      <trkpt lat="47.6817" lon="-3.36976">
        <ele>-1.3</ele>
        <time>2015-10-10T13:47:56Z</time>
      </trkpt>
      <trkpt lat="47.68168" lon="-3.36975">
        <ele>-1.3</ele>
        <time>2015-10-10T13:47:57Z</time>
      </trkpt>
      <trkpt lat="47.68165" lon="-3.36975">
        <ele>-1.3</ele>
        <time>2015-10-10T13:47:58Z</time>
      </trkpt>
      <trkpt lat="47.68162" lon="-3.36974">
        <ele>-1.3</ele>
        <time>2015-10-10T13:47:59Z</time>
      </trkpt>
      <trkpt lat="47.68159" lon="-3.36973">
        <ele>-1.3</ele>
        <time>2015-10-10T13:48:00Z</time>
      </trkpt>
      <trkpt lat="47.68156" lon="-3.36974">
        <ele>-1.3</ele>
        <time>2015-10-10T13:48:01Z</time>
      </trkpt>
      <trkpt lat="47.68153" lon="-3.36974">
        <ele>-1.3</ele>
        <time>2015-10-10T13:48:02Z</time>
      </trkpt>
      <trkpt lat="47.68151" lon="-3.36974">
        <ele>-1.3</ele>
        <time>2015-10-10T13:48:03Z</time>
      </trkpt>
      <trkpt lat="47.68148" lon="-3.36974">
        <ele>-1.3</ele>
        <time>2015-10-10T13:48:04Z</time>
      </trkpt>
      <trkpt lat="47.68145" lon="-3.36973">
        <ele>-1.3</ele>
        <time>2015-10-10T13:48:05Z</time>
      </trkpt>
      <trkpt lat="47.68143" lon="-3.36973">
        <ele>-1.3</ele>
        <time>2015-10-10T13:48:06Z</time>
      </trkpt>
      <trkpt lat="47.6814" lon="-3.36972">
        <ele>-1.3</ele>
        <time>2015-10-10T13:48:07Z</time>
      </trkpt>
      <trkpt lat="47.68137" lon="-3.36971">
        <ele>-1.3</ele>
        <time>2015-10-10T13:48:08Z</time>
      </trkpt>
      <trkpt lat="47.68135" lon="-3.36971">
        <ele>-1.3</ele>
        <time>2015-10-10T13:48:09Z</time>
      </trkpt>
      <trkpt lat="47.68132" lon="-3.3697">
        <ele>-1.3</ele>
        <time>2015-10-10T13:48:10Z</time>
      </trkpt>
      <trkpt lat="47.6813" lon="-3.3697">
        <ele>-1.3</ele>
        <time>2015-10-10T13:48:11Z</time>
      </trkpt>
      <trkpt lat="47.68127" lon="-3.36969">
        <ele>-1.3</ele>
        <time>2015-10-10T13:48:12Z</time>
      </trkpt>
      <trkpt lat="47.68124" lon="-3.36969">
        <ele>-1.3</ele>
        <time>2015-10-10T13:48:13Z</time>
      </trkpt>
      <trkpt lat="47.68121" lon="-3.36969">
        <ele>-1.3</ele>
        <time>2015-10-10T13:48:14Z</time>
      </trkpt>
      <trkpt lat="47.68119" lon="-3.36969">
        <ele>-1.3</ele>
        <time>2015-10-10T13:48:15Z</time>
      </trkpt>
      <trkpt lat="47.68116" lon="-3.36968">
        <ele>-1.3</ele>
        <time>2015-10-10T13:48:16Z</time>
      </trkpt>
      <trkpt lat="47.68113" lon="-3.36968">
        <ele>-0.82</ele>
        <time>2015-10-10T13:48:17Z</time>
      </trkpt>
      <trkpt lat="47.6811" lon="-3.36968">
        <ele>-0.82</ele>
        <time>2015-10-10T13:48:18Z</time>
      </trkpt>
      <trkpt lat="47.68108" lon="-3.36968">
        <ele>-1.3</ele>
        <time>2015-10-10T13:48:19Z</time>
      </trkpt>
      <trkpt lat="47.68105" lon="-3.36968">
        <ele>-1.3</ele>
        <time>2015-10-10T13:48:20Z</time>
      </trkpt>
      <trkpt lat="47.68102" lon="-3.36968">
        <ele>-1.3</ele>
        <time>2015-10-10T13:48:21Z</time>
      </trkpt>
      <trkpt lat="47.68099" lon="-3.36967">
        <ele>-1.3</ele>
        <time>2015-10-10T13:48:22Z</time>
      </trkpt>
      <trkpt lat="47.68096" lon="-3.36966">
        <ele>0.14</ele>
        <time>2015-10-10T13:48:23Z</time>
      </trkpt>
      <trkpt lat="47.68094" lon="-3.36965">
        <ele>0.14</ele>
        <time>2015-10-10T13:48:24Z</time>
      </trkpt>
      <trkpt lat="47.68091" lon="-3.36964">
        <ele>0.14</ele>
        <time>2015-10-10T13:48:25Z</time>
      </trkpt>
      <trkpt lat="47.68089" lon="-3.36963">
        <ele>0.14</ele>
        <time>2015-10-10T13:48:26Z</time>
      </trkpt>
      <trkpt lat="47.68086" lon="-3.36962">
        <ele>0.14</ele>
        <time>2015-10-10T13:48:27Z</time>
      </trkpt>
      <trkpt lat="47.68083" lon="-3.36962">
        <ele>0.14</ele>
        <time>2015-10-10T13:48:28Z</time>
      </trkpt>
      <trkpt lat="47.6808" lon="-3.36961">
        <ele>0.14</ele>
        <time>2015-10-10T13:48:29Z</time>
      </trkpt>
      <trkpt lat="47.68077" lon="-3.3696">
        <ele>0.14</ele>
        <time>2015-10-10T13:48:30Z</time>
      </trkpt>
      <trkpt lat="47.68074" lon="-3.36959">
        <ele>0.14</ele>
        <time>2015-10-10T13:48:31Z</time>
      </trkpt>
      <trkpt lat="47.68071" lon="-3.36959">
        <ele>0.14</ele>
        <time>2015-10-10T13:48:32Z</time>
      </trkpt>
      <trkpt lat="47.68068" lon="-3.36959">
        <ele>0.14</ele>
        <time>2015-10-10T13:48:33Z</time>
      </trkpt>
      <trkpt lat="47.68065" lon="-3.36959">
        <ele>0.14</ele>
        <time>2015-10-10T13:48:34Z</time>
      </trkpt>
      <trkpt lat="47.68062" lon="-3.36959">
        <ele>0.14</ele>
        <time>2015-10-10T13:48:35Z</time>
      </trkpt>
      <trkpt lat="47.6806" lon="-3.36958">
        <ele>0.14</ele>
        <time>2015-10-10T13:48:36Z</time>
      </trkpt>
      <trkpt lat="47.68057" lon="-3.36958">
        <ele>0.14</ele>
        <time>2015-10-10T13:48:37Z</time>
      </trkpt>
      <trkpt lat="47.68054" lon="-3.36958">
        <ele>0.14</ele>
        <time>2015-10-10T13:48:38Z</time>
      </trkpt>
      <trkpt lat="47.68051" lon="-3.36958">
        <ele>0.14</ele>
        <time>2015-10-10T13:48:39Z</time>
      </trkpt>
      <trkpt lat="47.68048" lon="-3.36958">
        <ele>0.14</ele>
        <time>2015-10-10T13:48:40Z</time>
      </trkpt>
      <trkpt lat="47.68045" lon="-3.36958">
        <ele>0.14</ele>
        <time>2015-10-10T13:48:41Z</time>
      </trkpt>
      <trkpt lat="47.68042" lon="-3.36958">
        <ele>0.14</ele>
        <time>2015-10-10T13:48:42Z</time>
      </trkpt>
      <trkpt lat="47.68039" lon="-3.36958">
        <ele>-0.82</ele>
        <time>2015-10-10T13:48:43Z</time>
      </trkpt>
      <trkpt lat="47.68036" lon="-3.36958">
        <ele>-0.82</ele>
        <time>2015-10-10T13:48:44Z</time>
      </trkpt>
      <trkpt lat="47.68033" lon="-3.36958">
        <ele>-0.82</ele>
        <time>2015-10-10T13:48:45Z</time>
      </trkpt>
      <trkpt lat="47.6803" lon="-3.36959">
        <ele>-0.82</ele>
        <time>2015-10-10T13:48:46Z</time>
      </trkpt>
      <trkpt lat="47.68027" lon="-3.36959">
        <ele>-0.82</ele>
        <time>2015-10-10T13:48:47Z</time>
      </trkpt>
      <trkpt lat="47.68024" lon="-3.36959">
        <ele>-0.82</ele>
        <time>2015-10-10T13:48:48Z</time>
      </trkpt>
      <trkpt lat="47.68022" lon="-3.36959">
        <ele>-0.82</ele>
        <time>2015-10-10T13:48:49Z</time>
      </trkpt>
      <trkpt lat="47.68019" lon="-3.36959">
        <ele>-0.82</ele>
        <time>2015-10-10T13:48:50Z</time>
      </trkpt>
      <trkpt lat="47.68016" lon="-3.3696">
        <ele>-0.82</ele>
        <time>2015-10-10T13:48:51Z</time>
      </trkpt>
      <trkpt lat="47.68013" lon="-3.36961">
        <ele>-0.82</ele>
        <time>2015-10-10T13:48:52Z</time>
      </trkpt>
      <trkpt lat="47.6801" lon="-3.36962">
        <ele>-0.82</ele>
        <time>2015-10-10T13:48:53Z</time>
      </trkpt>
      <trkpt lat="47.68008" lon="-3.36963">
        <ele>-0.82</ele>
        <time>2015-10-10T13:48:54Z</time>
      </trkpt>
      <trkpt lat="47.68005" lon="-3.36963">
        <ele>-0.82</ele>
        <time>2015-10-10T13:48:55Z</time>
      </trkpt>
      <trkpt lat="47.68003" lon="-3.36963">
        <ele>-0.82</ele>
        <time>2015-10-10T13:48:56Z</time>
      </trkpt>
      <trkpt lat="47.68" lon="-3.36963">
        <ele>-0.82</ele>
        <time>2015-10-10T13:48:57Z</time>
      </trkpt>
      <trkpt lat="47.67997" lon="-3.36963">
        <ele>-0.82</ele>
        <time>2015-10-10T13:48:58Z</time>
      </trkpt>
      <trkpt lat="47.67995" lon="-3.36964">
        <ele>-0.82</ele>
        <time>2015-10-10T13:48:59Z</time>
      </trkpt>
      <trkpt lat="47.67992" lon="-3.36965">
        <ele>-0.82</ele>
        <time>2015-10-10T13:49:00Z</time>
      </trkpt>
      <trkpt lat="47.67989" lon="-3.36965">
        <ele>-0.82</ele>
        <time>2015-10-10T13:49:01Z</time>
      </trkpt>
      <trkpt lat="47.67987" lon="-3.36966">
        <ele>-0.82</ele>
        <time>2015-10-10T13:49:02Z</time>
      </trkpt>
      <trkpt lat="47.67984" lon="-3.36967">
        <ele>-0.82</ele>
        <time>2015-10-10T13:49:03Z</time>
      </trkpt>
      <trkpt lat="47.67982" lon="-3.36967">
        <ele>-0.82</ele>
        <time>2015-10-10T13:49:04Z</time>
      </trkpt>
      <trkpt lat="47.67979" lon="-3.36967">
        <ele>-0.82</ele>
        <time>2015-10-10T13:49:05Z</time>
      </trkpt>
      <trkpt lat="47.67976" lon="-3.36967">
        <ele>-0.82</ele>
        <time>2015-10-10T13:49:06Z</time>
      </trkpt>
      <trkpt lat="47.67974" lon="-3.36967">
        <ele>-0.82</ele>
        <time>2015-10-10T13:49:07Z</time>
      </trkpt>
      <trkpt lat="47.67971" lon="-3.36968">
        <ele>-0.82</ele>
        <time>2015-10-10T13:49:08Z</time>
      </trkpt>
      <trkpt lat="47.67968" lon="-3.36968">
        <ele>-0.82</ele>
        <time>2015-10-10T13:49:09Z</time>
      </trkpt>
      <trkpt lat="47.67966" lon="-3.36969">
        <ele>-0.82</ele>
        <time>2015-10-10T13:49:10Z</time>
      </trkpt>
      <trkpt lat="47.67963" lon="-3.36969">
        <ele>-0.82</ele>
        <time>2015-10-10T13:49:11Z</time>
      </trkpt>
      <trkpt lat="47.6796" lon="-3.3697">
        <ele>-0.82</ele>
        <time>2015-10-10T13:49:12Z</time>
      </trkpt>
      <trkpt lat="47.67957" lon="-3.36969">
        <ele>-0.82</ele>
        <time>2015-10-10T13:49:13Z</time>
      </trkpt>
      <trkpt lat="47.67955" lon="-3.36969">
        <ele>-0.82</ele>
        <time>2015-10-10T13:49:14Z</time>
      </trkpt>
      <trkpt lat="47.67952" lon="-3.36969">
        <ele>-0.82</ele>
        <time>2015-10-10T13:49:15Z</time>
      </trkpt>
      <trkpt lat="47.67949" lon="-3.36969">
        <ele>-0.82</ele>
        <time>2015-10-10T13:49:16Z</time>
      </trkpt>
      <trkpt lat="47.67946" lon="-3.3697">
        <ele>-0.82</ele>
        <time>2015-10-10T13:49:17Z</time>
      </trkpt>
      <trkpt lat="47.67944" lon="-3.36971">
        <ele>-0.82</ele>
        <time>2015-10-10T13:49:18Z</time>
      </trkpt>
      <trkpt lat="47.67941" lon="-3.36972">
        <ele>-0.82</ele>
        <time>2015-10-10T13:49:19Z</time>
      </trkpt>
      <trkpt lat="47.67939" lon="-3.36972">
        <ele>-0.82</ele>
        <time>2015-10-10T13:49:20Z</time>
      </trkpt>
      <trkpt lat="47.67936" lon="-3.36973">
        <ele>-0.82</ele>
        <time>2015-10-10T13:49:21Z</time>
      </trkpt>
      <trkpt lat="47.67934" lon="-3.36973">
        <ele>-0.82</ele>
        <time>2015-10-10T13:49:22Z</time>
      </trkpt>
      <trkpt lat="47.67931" lon="-3.36974">
        <ele>-0.82</ele>
        <time>2015-10-10T13:49:23Z</time>
      </trkpt>
      <trkpt lat="47.67929" lon="-3.36974">
        <ele>-0.82</ele>
        <time>2015-10-10T13:49:24Z</time>
      </trkpt>
      <trkpt lat="47.67926" lon="-3.36974">
        <ele>-0.82</ele>
        <time>2015-10-10T13:49:25Z</time>
      </trkpt>
      <trkpt lat="47.67923" lon="-3.36974">
        <ele>-0.82</ele>
        <time>2015-10-10T13:49:26Z</time>
      </trkpt>
      <trkpt lat="47.6792" lon="-3.36975">
        <ele>-0.82</ele>
        <time>2015-10-10T13:49:27Z</time>
      </trkpt>
      <trkpt lat="47.67918" lon="-3.36975">
        <ele>-0.82</ele>
        <time>2015-10-10T13:49:28Z</time>
      </trkpt>
      <trkpt lat="47.67915" lon="-3.36976">
        <ele>-0.82</ele>
        <time>2015-10-10T13:49:29Z</time>
      </trkpt>
      <trkpt lat="47.67912" lon="-3.36977">
        <ele>-0.82</ele>
        <time>2015-10-10T13:49:30Z</time>
      </trkpt>
      <trkpt lat="47.6791" lon="-3.36977">
        <ele>-0.82</ele>
        <time>2015-10-10T13:49:31Z</time>
      </trkpt>
      <trkpt lat="47.67907" lon="-3.36977">
        <ele>-0.82</ele>
        <time>2015-10-10T13:49:32Z</time>
      </trkpt>
      <trkpt lat="47.67905" lon="-3.36977">
        <ele>-0.82</ele>
        <time>2015-10-10T13:49:33Z</time>
      </trkpt>
      <trkpt lat="47.67902" lon="-3.36977">
        <ele>-0.82</ele>
        <time>2015-10-10T13:49:34Z</time>
      </trkpt>
      <trkpt lat="47.67899" lon="-3.36977">
        <ele>-0.82</ele>
        <time>2015-10-10T13:49:35Z</time>
      </trkpt>
      <trkpt lat="47.67897" lon="-3.36977">
        <ele>-0.82</ele>
        <time>2015-10-10T13:49:36Z</time>
      </trkpt>
      <trkpt lat="47.67894" lon="-3.36977">
        <ele>-0.82</ele>
        <time>2015-10-10T13:49:37Z</time>
      </trkpt>
      <trkpt lat="47.67892" lon="-3.36977">
        <ele>-0.82</ele>
        <time>2015-10-10T13:49:38Z</time>
      </trkpt>
      <trkpt lat="47.67889" lon="-3.36978">
        <ele>-0.82</ele>
        <time>2015-10-10T13:49:39Z</time>
      </trkpt>
      <trkpt lat="47.67887" lon="-3.36978">
        <ele>-0.82</ele>
        <time>2015-10-10T13:49:40Z</time>
      </trkpt>
      <trkpt lat="47.67884" lon="-3.36979">
        <ele>-0.82</ele>
        <time>2015-10-10T13:49:41Z</time>
      </trkpt>
      <trkpt lat="47.67881" lon="-3.36979">
        <ele>-0.82</ele>
        <time>2015-10-10T13:49:42Z</time>
      </trkpt>
      <trkpt lat="47.67878" lon="-3.3698">
        <ele>-0.82</ele>
        <time>2015-10-10T13:49:43Z</time>
      </trkpt>
      <trkpt lat="47.67875" lon="-3.3698">
        <ele>-0.82</ele>
        <time>2015-10-10T13:49:44Z</time>
      </trkpt>
      <trkpt lat="47.67873" lon="-3.3698">
        <ele>-0.82</ele>
        <time>2015-10-10T13:49:45Z</time>
      </trkpt>
      <trkpt lat="47.6787" lon="-3.3698">
        <ele>-0.82</ele>
        <time>2015-10-10T13:49:46Z</time>
      </trkpt>
      <trkpt lat="47.67867" lon="-3.36981">
        <ele>-0.82</ele>
        <time>2015-10-10T13:49:47Z</time>
      </trkpt>
      <trkpt lat="47.67865" lon="-3.36981">
        <ele>0.14</ele>
        <time>2015-10-10T13:49:48Z</time>
      </trkpt>
      <trkpt lat="47.67862" lon="-3.36981">
        <ele>0.14</ele>
        <time>2015-10-10T13:49:49Z</time>
      </trkpt>
      <trkpt lat="47.6786" lon="-3.36981">
        <ele>0.14</ele>
        <time>2015-10-10T13:49:50Z</time>
      </trkpt>
      <trkpt lat="47.67857" lon="-3.36982">
        <ele>0.14</ele>
        <time>2015-10-10T13:49:51Z</time>
      </trkpt>
      <trkpt lat="47.67854" lon="-3.36982">
        <ele>0.14</ele>
        <time>2015-10-10T13:49:52Z</time>
      </trkpt>
      <trkpt lat="47.67852" lon="-3.36983">
        <ele>0.14</ele>
        <time>2015-10-10T13:49:53Z</time>
      </trkpt>
      <trkpt lat="47.67849" lon="-3.36984">
        <ele>0.14</ele>
        <time>2015-10-10T13:49:54Z</time>
      </trkpt>
      <trkpt lat="47.67846" lon="-3.36984">
        <ele>0.14</ele>
        <time>2015-10-10T13:49:55Z</time>
      </trkpt>
      <trkpt lat="47.67843" lon="-3.36985">
        <ele>-0.82</ele>
        <time>2015-10-10T13:49:56Z</time>
      </trkpt>
      <trkpt lat="47.67841" lon="-3.36985">
        <ele>-0.82</ele>
        <time>2015-10-10T13:49:57Z</time>
      </trkpt>
      <trkpt lat="47.67838" lon="-3.36986">
        <ele>-0.82</ele>
        <time>2015-10-10T13:49:58Z</time>
      </trkpt>
      <trkpt lat="47.67835" lon="-3.36987">
        <ele>-0.82</ele>
        <time>2015-10-10T13:49:59Z</time>
      </trkpt>
      <trkpt lat="47.67832" lon="-3.36987">
        <ele>-0.82</ele>
        <time>2015-10-10T13:50:00Z</time>
      </trkpt>
      <trkpt lat="47.6783" lon="-3.36988">
        <ele>-0.82</ele>
        <time>2015-10-10T13:50:01Z</time>
      </trkpt>
      <trkpt lat="47.67827" lon="-3.36988">
        <ele>0.14</ele>
        <time>2015-10-10T13:50:02Z</time>
      </trkpt>
      <trkpt lat="47.67824" lon="-3.36988">
        <ele>0.14</ele>
        <time>2015-10-10T13:50:03Z</time>
      </trkpt>
      <trkpt lat="47.67822" lon="-3.36988">
        <ele>0.14</ele>
        <time>2015-10-10T13:50:04Z</time>
      </trkpt>
      <trkpt lat="47.67819" lon="-3.36989">
        <ele>0.14</ele>
        <time>2015-10-10T13:50:05Z</time>
      </trkpt>
      <trkpt lat="47.67817" lon="-3.36989">
        <ele>0.14</ele>
        <time>2015-10-10T13:50:06Z</time>
      </trkpt>
      <trkpt lat="47.67814" lon="-3.36989">
        <ele>0.14</ele>
        <time>2015-10-10T13:50:07Z</time>
      </trkpt>
      <trkpt lat="47.67811" lon="-3.36989">
        <ele>0.14</ele>
        <time>2015-10-10T13:50:08Z</time>
      </trkpt>
      <trkpt lat="47.67808" lon="-3.36989">
        <ele>0.14</ele>
        <time>2015-10-10T13:50:09Z</time>
      </trkpt>
      <trkpt lat="47.67805" lon="-3.3699">
        <ele>-0.82</ele>
        <time>2015-10-10T13:50:10Z</time>
      </trkpt>
      <trkpt lat="47.67802" lon="-3.36991">
        <ele>-0.82</ele>
        <time>2015-10-10T13:50:11Z</time>
      </trkpt>
      <trkpt lat="47.678" lon="-3.36992">
        <ele>-0.82</ele>
        <time>2015-10-10T13:50:12Z</time>
      </trkpt>
      <trkpt lat="47.67797" lon="-3.36993">
        <ele>-0.82</ele>
        <time>2015-10-10T13:50:13Z</time>
      </trkpt>
      <trkpt lat="47.67794" lon="-3.36994">
        <ele>-0.82</ele>
        <time>2015-10-10T13:50:14Z</time>
      </trkpt>
      <trkpt lat="47.67792" lon="-3.36994">
        <ele>-0.82</ele>
        <time>2015-10-10T13:50:15Z</time>
      </trkpt>
      <trkpt lat="47.67789" lon="-3.36995">
        <ele>-0.82</ele>
        <time>2015-10-10T13:50:16Z</time>
      </trkpt>
      <trkpt lat="47.67787" lon="-3.36995">
        <ele>-0.82</ele>
        <time>2015-10-10T13:50:17Z</time>
      </trkpt>
      <trkpt lat="47.67784" lon="-3.36995">
        <ele>-0.82</ele>
        <time>2015-10-10T13:50:18Z</time>
      </trkpt>
      <trkpt lat="47.67782" lon="-3.36996">
        <ele>-0.82</ele>
        <time>2015-10-10T13:50:19Z</time>
      </trkpt>
      <trkpt lat="47.67779" lon="-3.36997">
        <ele>-0.82</ele>
        <time>2015-10-10T13:50:20Z</time>
      </trkpt>
      <trkpt lat="47.67777" lon="-3.36997">
        <ele>-0.82</ele>
        <time>2015-10-10T13:50:21Z</time>
      </trkpt>
      <trkpt lat="47.67774" lon="-3.36998">
        <ele>-0.82</ele>
        <time>2015-10-10T13:50:22Z</time>
      </trkpt>
      <trkpt lat="47.67772" lon="-3.36998">
        <ele>-0.82</ele>
        <time>2015-10-10T13:50:23Z</time>
      </trkpt>
      <trkpt lat="47.67769" lon="-3.36999">
        <ele>-1.79</ele>
        <time>2015-10-10T13:50:24Z</time>
      </trkpt>
      <trkpt lat="47.67767" lon="-3.37001">
        <ele>-1.79</ele>
        <time>2015-10-10T13:50:25Z</time>
      </trkpt>
      <trkpt lat="47.67764" lon="-3.37002">
        <ele>-1.79</ele>
        <time>2015-10-10T13:50:26Z</time>
      </trkpt>
      <trkpt lat="47.67762" lon="-3.37003">
        <ele>-1.79</ele>
        <time>2015-10-10T13:50:27Z</time>
      </trkpt>
      <trkpt lat="47.67759" lon="-3.37003">
        <ele>-1.79</ele>
        <time>2015-10-10T13:50:28Z</time>
      </trkpt>
      <trkpt lat="47.67757" lon="-3.37004">
        <ele>-1.79</ele>
        <time>2015-10-10T13:50:29Z</time>
      </trkpt>
      <trkpt lat="47.67754" lon="-3.37004">
        <ele>-1.79</ele>
        <time>2015-10-10T13:50:30Z</time>
      </trkpt>
      <trkpt lat="47.67752" lon="-3.37004">
        <ele>-1.79</ele>
        <time>2015-10-10T13:50:31Z</time>
      </trkpt>
      <trkpt lat="47.67749" lon="-3.37005">
        <ele>-1.79</ele>
        <time>2015-10-10T13:50:32Z</time>
      </trkpt>
      <trkpt lat="47.67747" lon="-3.37006">
        <ele>-1.79</ele>
        <time>2015-10-10T13:50:33Z</time>
      </trkpt>
      <trkpt lat="47.67745" lon="-3.37006">
        <ele>-1.79</ele>
        <time>2015-10-10T13:50:34Z</time>
      </trkpt>
      <trkpt lat="47.67743" lon="-3.37007">
        <ele>-1.79</ele>
        <time>2015-10-10T13:50:35Z</time>
      </trkpt>
      <trkpt lat="47.6774" lon="-3.37008">
        <ele>-1.79</ele>
        <time>2015-10-10T13:50:36Z</time>
      </trkpt>
      <trkpt lat="47.67738" lon="-3.37009">
        <ele>-1.79</ele>
        <time>2015-10-10T13:50:37Z</time>
      </trkpt>
      <trkpt lat="47.67735" lon="-3.3701">
        <ele>-1.79</ele>
        <time>2015-10-10T13:50:38Z</time>
      </trkpt>
      <trkpt lat="47.67733" lon="-3.37011">
        <ele>-1.79</ele>
        <time>2015-10-10T13:50:39Z</time>
      </trkpt>
      <trkpt lat="47.6773" lon="-3.37012">
        <ele>-1.79</ele>
        <time>2015-10-10T13:50:40Z</time>
      </trkpt>
      <trkpt lat="47.67728" lon="-3.37013">
        <ele>-1.79</ele>
        <time>2015-10-10T13:50:41Z</time>
      </trkpt>
      <trkpt lat="47.67725" lon="-3.37013">
        <ele>-1.79</ele>
        <time>2015-10-10T13:50:42Z</time>
      </trkpt>
      <trkpt lat="47.67723" lon="-3.37014">
        <ele>-1.79</ele>
        <time>2015-10-10T13:50:43Z</time>
      </trkpt>
      <trkpt lat="47.6772" lon="-3.37014">
        <ele>-1.79</ele>
        <time>2015-10-10T13:50:44Z</time>
      </trkpt>
      <trkpt lat="47.67717" lon="-3.37015">
        <ele>-1.79</ele>
        <time>2015-10-10T13:50:45Z</time>
      </trkpt>
      <trkpt lat="47.67715" lon="-3.37016">
        <ele>-1.79</ele>
        <time>2015-10-10T13:50:46Z</time>
      </trkpt>
      <trkpt lat="47.67712" lon="-3.37016">
        <ele>-1.79</ele>
        <time>2015-10-10T13:50:47Z</time>
      </trkpt>
      <trkpt lat="47.6771" lon="-3.37017">
        <ele>-1.79</ele>
        <time>2015-10-10T13:50:48Z</time>
      </trkpt>
      <trkpt lat="47.67707" lon="-3.37018">
        <ele>-0.34</ele>
        <time>2015-10-10T13:50:49Z</time>
      </trkpt>
      <trkpt lat="47.67705" lon="-3.37019">
        <ele>-0.34</ele>
        <time>2015-10-10T13:50:50Z</time>
      </trkpt>
      <trkpt lat="47.67703" lon="-3.3702">
        <ele>-0.34</ele>
        <time>2015-10-10T13:50:51Z</time>
      </trkpt>
      <trkpt lat="47.677" lon="-3.3702">
        <ele>0.14</ele>
        <time>2015-10-10T13:50:52Z</time>
      </trkpt>
      <trkpt lat="47.67697" lon="-3.3702">
        <ele>0.14</ele>
        <time>2015-10-10T13:50:53Z</time>
      </trkpt>
      <trkpt lat="47.67695" lon="-3.37021">
        <ele>0.14</ele>
        <time>2015-10-10T13:50:54Z</time>
      </trkpt>
      <trkpt lat="47.67692" lon="-3.37022">
        <ele>-1.3</ele>
        <time>2015-10-10T13:50:55Z</time>
      </trkpt>
      <trkpt lat="47.67689" lon="-3.37023">
        <ele>-1.3</ele>
        <time>2015-10-10T13:50:56Z</time>
      </trkpt>
      <trkpt lat="47.67686" lon="-3.37023">
        <ele>-1.3</ele>
        <time>2015-10-10T13:50:57Z</time>
      </trkpt>
      <trkpt lat="47.67683" lon="-3.37023">
        <ele>-1.3</ele>
        <time>2015-10-10T13:50:58Z</time>
      </trkpt>
      <trkpt lat="47.67681" lon="-3.37023">
        <ele>-1.3</ele>
        <time>2015-10-10T13:50:59Z</time>
      </trkpt>
      <trkpt lat="47.67678" lon="-3.37023">
        <ele>-1.3</ele>
        <time>2015-10-10T13:51:00Z</time>
      </trkpt>
      <trkpt lat="47.67675" lon="-3.37024">
        <ele>-1.3</ele>
        <time>2015-10-10T13:51:01Z</time>
      </trkpt>
      <trkpt lat="47.67673" lon="-3.37024">
        <ele>-1.3</ele>
        <time>2015-10-10T13:51:02Z</time>
      </trkpt>
      <trkpt lat="47.6767" lon="-3.37025">
        <ele>-1.3</ele>
        <time>2015-10-10T13:51:03Z</time>
      </trkpt>
      <trkpt lat="47.67667" lon="-3.37025">
        <ele>-1.3</ele>
        <time>2015-10-10T13:51:04Z</time>
      </trkpt>
      <trkpt lat="47.67665" lon="-3.37026">
        <ele>-1.3</ele>
        <time>2015-10-10T13:51:05Z</time>
      </trkpt>
      <trkpt lat="47.67662" lon="-3.37026">
        <ele>-1.3</ele>
        <time>2015-10-10T13:51:06Z</time>
      </trkpt>
      <trkpt lat="47.6766" lon="-3.37027">
        <ele>-1.3</ele>
        <time>2015-10-10T13:51:07Z</time>
      </trkpt>
      <trkpt lat="47.67657" lon="-3.37027">
        <ele>-1.3</ele>
        <time>2015-10-10T13:51:08Z</time>
      </trkpt>
      <trkpt lat="47.67655" lon="-3.37028">
        <ele>-1.3</ele>
        <time>2015-10-10T13:51:09Z</time>
      </trkpt>
      <trkpt lat="47.67652" lon="-3.37029">
        <ele>-1.3</ele>
        <time>2015-10-10T13:51:10Z</time>
      </trkpt>
      <trkpt lat="47.67649" lon="-3.3703">
        <ele>-1.3</ele>
        <time>2015-10-10T13:51:11Z</time>
      </trkpt>
      <trkpt lat="47.67646" lon="-3.3703">
        <ele>-1.3</ele>
        <time>2015-10-10T13:51:12Z</time>
      </trkpt>
      <trkpt lat="47.67644" lon="-3.3703">
        <ele>-1.3</ele>
        <time>2015-10-10T13:51:13Z</time>
      </trkpt>
      <trkpt lat="47.67642" lon="-3.3703">
        <ele>-1.3</ele>
        <time>2015-10-10T13:51:14Z</time>
      </trkpt>
      <trkpt lat="47.67639" lon="-3.37031">
        <ele>-1.3</ele>
        <time>2015-10-10T13:51:15Z</time>
      </trkpt>
      <trkpt lat="47.67636" lon="-3.37031">
        <ele>-1.3</ele>
        <time>2015-10-10T13:51:16Z</time>
      </trkpt>
      <trkpt lat="47.67634" lon="-3.37032">
        <ele>-1.3</ele>
        <time>2015-10-10T13:51:17Z</time>
      </trkpt>
      <trkpt lat="47.67631" lon="-3.37032">
        <ele>-1.3</ele>
        <time>2015-10-10T13:51:18Z</time>
      </trkpt>
      <trkpt lat="47.67628" lon="-3.37032">
        <ele>-1.3</ele>
        <time>2015-10-10T13:51:19Z</time>
      </trkpt>
      <trkpt lat="47.67626" lon="-3.37033">
        <ele>-1.3</ele>
        <time>2015-10-10T13:51:20Z</time>
      </trkpt>
      <trkpt lat="47.67623" lon="-3.37033">
        <ele>-1.3</ele>
        <time>2015-10-10T13:51:21Z</time>
      </trkpt>
      <trkpt lat="47.67621" lon="-3.37034">
        <ele>-1.3</ele>
        <time>2015-10-10T13:51:22Z</time>
      </trkpt>
      <trkpt lat="47.67618" lon="-3.37034">
        <ele>-1.3</ele>
        <time>2015-10-10T13:51:23Z</time>
      </trkpt>
      <trkpt lat="47.67616" lon="-3.37035">
        <ele>-1.3</ele>
        <time>2015-10-10T13:51:24Z</time>
      </trkpt>
      <trkpt lat="47.67613" lon="-3.37035">
        <ele>-1.3</ele>
        <time>2015-10-10T13:51:25Z</time>
      </trkpt>
      <trkpt lat="47.6761" lon="-3.37035">
        <ele>-1.3</ele>
        <time>2015-10-10T13:51:26Z</time>
      </trkpt>
      <trkpt lat="47.67607" lon="-3.37035">
        <ele>-1.3</ele>
        <time>2015-10-10T13:51:27Z</time>
      </trkpt>
      <trkpt lat="47.67604" lon="-3.37035">
        <ele>-1.3</ele>
        <time>2015-10-10T13:51:28Z</time>
      </trkpt>
      <trkpt lat="47.67601" lon="-3.37035">
        <ele>-1.3</ele>
        <time>2015-10-10T13:51:29Z</time>
      </trkpt>
      <trkpt lat="47.67598" lon="-3.37035">
        <ele>-1.3</ele>
        <time>2015-10-10T13:51:30Z</time>
      </trkpt>
      <trkpt lat="47.67596" lon="-3.37036">
        <ele>-1.3</ele>
        <time>2015-10-10T13:51:31Z</time>
      </trkpt>
      <trkpt lat="47.67593" lon="-3.37036">
        <ele>-1.3</ele>
        <time>2015-10-10T13:51:32Z</time>
      </trkpt>
      <trkpt lat="47.6759" lon="-3.37036">
        <ele>-1.3</ele>
        <time>2015-10-10T13:51:33Z</time>
      </trkpt>
      <trkpt lat="47.67587" lon="-3.37036">
        <ele>0.14</ele>
        <time>2015-10-10T13:51:34Z</time>
      </trkpt>
      <trkpt lat="47.67585" lon="-3.37037">
        <ele>0.14</ele>
        <time>2015-10-10T13:51:35Z</time>
      </trkpt>
      <trkpt lat="47.67582" lon="-3.37037">
        <ele>0.14</ele>
        <time>2015-10-10T13:51:36Z</time>
      </trkpt>
      <trkpt lat="47.67579" lon="-3.37036">
        <ele>0.14</ele>
        <time>2015-10-10T13:51:37Z</time>
      </trkpt>
      <trkpt lat="47.67576" lon="-3.37036">
        <ele>0.14</ele>
        <time>2015-10-10T13:51:38Z</time>
      </trkpt>
      <trkpt lat="47.67573" lon="-3.37036">
        <ele>0.14</ele>
        <time>2015-10-10T13:51:39Z</time>
      </trkpt>
      <trkpt lat="47.67571" lon="-3.37037">
        <ele>-1.3</ele>
        <time>2015-10-10T13:51:40Z</time>
      </trkpt>
      <trkpt lat="47.67568" lon="-3.37037">
        <ele>-1.3</ele>
        <time>2015-10-10T13:51:41Z</time>
      </trkpt>
      <trkpt lat="47.67565" lon="-3.37037">
        <ele>-1.3</ele>
        <time>2015-10-10T13:51:42Z</time>
      </trkpt>
      <trkpt lat="47.67562" lon="-3.37038">
        <ele>-1.3</ele>
        <time>2015-10-10T13:51:43Z</time>
      </trkpt>
      <trkpt lat="47.6756" lon="-3.37039">
        <ele>-1.3</ele>
        <time>2015-10-10T13:51:44Z</time>
      </trkpt>
      <trkpt lat="47.67557" lon="-3.3704">
        <ele>-1.3</ele>
        <time>2015-10-10T13:51:45Z</time>
      </trkpt>
      <trkpt lat="47.67554" lon="-3.3704">
        <ele>-1.3</ele>
        <time>2015-10-10T13:51:46Z</time>
      </trkpt>
      <trkpt lat="47.67552" lon="-3.3704">
        <ele>-1.3</ele>
        <time>2015-10-10T13:51:47Z</time>
      </trkpt>
      <trkpt lat="47.67549" lon="-3.37041">
        <ele>-1.3</ele>
        <time>2015-10-10T13:51:48Z</time>
      </trkpt>
      <trkpt lat="47.67546" lon="-3.37041">
        <ele>-1.3</ele>
        <time>2015-10-10T13:51:49Z</time>
      </trkpt>
      <trkpt lat="47.67543" lon="-3.37041">
        <ele>-1.3</ele>
        <time>2015-10-10T13:51:50Z</time>
      </trkpt>
      <trkpt lat="47.67541" lon="-3.37042">
        <ele>-1.3</ele>
        <time>2015-10-10T13:51:51Z</time>
      </trkpt>
      <trkpt lat="47.67538" lon="-3.37042">
        <ele>-1.3</ele>
        <time>2015-10-10T13:51:52Z</time>
      </trkpt>
      <trkpt lat="47.67535" lon="-3.37043">
        <ele>-1.3</ele>
        <time>2015-10-10T13:51:53Z</time>
      </trkpt>
      <trkpt lat="47.67532" lon="-3.37044">
        <ele>-1.3</ele>
        <time>2015-10-10T13:51:54Z</time>
      </trkpt>
      <trkpt lat="47.6753" lon="-3.37045">
        <ele>-1.3</ele>
        <time>2015-10-10T13:51:55Z</time>
      </trkpt>
      <trkpt lat="47.67527" lon="-3.37046">
        <ele>-1.3</ele>
        <time>2015-10-10T13:51:56Z</time>
      </trkpt>
      <trkpt lat="47.67524" lon="-3.37047">
        <ele>-1.3</ele>
        <time>2015-10-10T13:51:57Z</time>
      </trkpt>
      <trkpt lat="47.67521" lon="-3.37047">
        <ele>-1.3</ele>
        <time>2015-10-10T13:51:58Z</time>
      </trkpt>
      <trkpt lat="47.67519" lon="-3.37047">
        <ele>-1.3</ele>
        <time>2015-10-10T13:51:59Z</time>
      </trkpt>
      <trkpt lat="47.67516" lon="-3.37047">
        <ele>-1.3</ele>
        <time>2015-10-10T13:52:00Z</time>
      </trkpt>
      <trkpt lat="47.67514" lon="-3.37048">
        <ele>-1.3</ele>
        <time>2015-10-10T13:52:01Z</time>
      </trkpt>
      <trkpt lat="47.67511" lon="-3.37048">
        <ele>-1.3</ele>
        <time>2015-10-10T13:52:02Z</time>
      </trkpt>
      <trkpt lat="47.67509" lon="-3.37048">
        <ele>-1.3</ele>
        <time>2015-10-10T13:52:03Z</time>
      </trkpt>
      <trkpt lat="47.67506" lon="-3.37049">
        <ele>-1.3</ele>
        <time>2015-10-10T13:52:04Z</time>
      </trkpt>
      <trkpt lat="47.67503" lon="-3.3705">
        <ele>-1.3</ele>
        <time>2015-10-10T13:52:05Z</time>
      </trkpt>
      <trkpt lat="47.675" lon="-3.3705">
        <ele>-1.3</ele>
        <time>2015-10-10T13:52:06Z</time>
      </trkpt>
      <trkpt lat="47.67498" lon="-3.37051">
        <ele>-1.3</ele>
        <time>2015-10-10T13:52:07Z</time>
      </trkpt>
      <trkpt lat="47.67495" lon="-3.37052">
        <ele>-1.3</ele>
        <time>2015-10-10T13:52:08Z</time>
      </trkpt>
      <trkpt lat="47.67492" lon="-3.37052">
        <ele>-1.3</ele>
        <time>2015-10-10T13:52:09Z</time>
      </trkpt>
      <trkpt lat="47.6749" lon="-3.37053">
        <ele>-1.3</ele>
        <time>2015-10-10T13:52:10Z</time>
      </trkpt>
      <trkpt lat="47.67487" lon="-3.37053">
        <ele>-1.3</ele>
        <time>2015-10-10T13:52:11Z</time>
      </trkpt>
      <trkpt lat="47.67484" lon="-3.37053">
        <ele>-1.3</ele>
        <time>2015-10-10T13:52:12Z</time>
      </trkpt>
      <trkpt lat="47.67482" lon="-3.37053">
        <ele>-1.3</ele>
        <time>2015-10-10T13:52:13Z</time>
      </trkpt>
      <trkpt lat="47.67479" lon="-3.37054">
        <ele>-1.3</ele>
        <time>2015-10-10T13:52:14Z</time>
      </trkpt>
      <trkpt lat="47.67476" lon="-3.37054">
        <ele>-1.3</ele>
        <time>2015-10-10T13:52:15Z</time>
      </trkpt>
      <trkpt lat="47.67474" lon="-3.37055">
        <ele>-1.3</ele>
        <time>2015-10-10T13:52:16Z</time>
      </trkpt>
      <trkpt lat="47.67471" lon="-3.37056">
        <ele>-1.3</ele>
        <time>2015-10-10T13:52:17Z</time>
      </trkpt>
      <trkpt lat="47.67468" lon="-3.37057">
        <ele>-1.3</ele>
        <time>2015-10-10T13:52:18Z</time>
      </trkpt>
      <trkpt lat="47.67465" lon="-3.37058">
        <ele>-1.3</ele>
        <time>2015-10-10T13:52:19Z</time>
      </trkpt>
      <trkpt lat="47.67463" lon="-3.37059">
        <ele>-1.3</ele>
        <time>2015-10-10T13:52:20Z</time>
      </trkpt>
      <trkpt lat="47.6746" lon="-3.37059">
        <ele>-1.3</ele>
        <time>2015-10-10T13:52:21Z</time>
      </trkpt>
      <trkpt lat="47.67457" lon="-3.3706">
        <ele>-1.3</ele>
        <time>2015-10-10T13:52:22Z</time>
      </trkpt>
      <trkpt lat="47.67454" lon="-3.3706">
        <ele>-1.3</ele>
        <time>2015-10-10T13:52:23Z</time>
      </trkpt>
      <trkpt lat="47.67451" lon="-3.3706">
        <ele>-1.3</ele>
        <time>2015-10-10T13:52:24Z</time>
      </trkpt>
      <trkpt lat="47.67448" lon="-3.37061">
        <ele>-1.3</ele>
        <time>2015-10-10T13:52:25Z</time>
      </trkpt>
      <trkpt lat="47.67445" lon="-3.37062">
        <ele>-1.3</ele>
        <time>2015-10-10T13:52:26Z</time>
      </trkpt>
      <trkpt lat="47.67442" lon="-3.37063">
        <ele>-1.3</ele>
        <time>2015-10-10T13:52:27Z</time>
      </trkpt>
      <trkpt lat="47.67439" lon="-3.37063">
        <ele>0.14</ele>
        <time>2015-10-10T13:52:28Z</time>
      </trkpt>
      <trkpt lat="47.67437" lon="-3.37064">
        <ele>0.14</ele>
        <time>2015-10-10T13:52:29Z</time>
      </trkpt>
      <trkpt lat="47.67434" lon="-3.37065">
        <ele>0.14</ele>
        <time>2015-10-10T13:52:30Z</time>
      </trkpt>
      <trkpt lat="47.67431" lon="-3.37066">
        <ele>0.14</ele>
        <time>2015-10-10T13:52:31Z</time>
      </trkpt>
      <trkpt lat="47.67429" lon="-3.37068">
        <ele>0.14</ele>
        <time>2015-10-10T13:52:32Z</time>
      </trkpt>
      <trkpt lat="47.67426" lon="-3.3707">
        <ele>0.14</ele>
        <time>2015-10-10T13:52:33Z</time>
      </trkpt>
      <trkpt lat="47.67423" lon="-3.37071">
        <ele>0.14</ele>
        <time>2015-10-10T13:52:34Z</time>
      </trkpt>
      <trkpt lat="47.67421" lon="-3.37072">
        <ele>0.14</ele>
        <time>2015-10-10T13:52:35Z</time>
      </trkpt>
      <trkpt lat="47.67418" lon="-3.37072">
        <ele>0.14</ele>
        <time>2015-10-10T13:52:36Z</time>
      </trkpt>
      <trkpt lat="47.67416" lon="-3.37072">
        <ele>0.14</ele>
        <time>2015-10-10T13:52:37Z</time>
      </trkpt>
      <trkpt lat="47.67413" lon="-3.37072">
        <ele>0.14</ele>
        <time>2015-10-10T13:52:38Z</time>
      </trkpt>
      <trkpt lat="47.6741" lon="-3.37073">
        <ele>0.14</ele>
        <time>2015-10-10T13:52:39Z</time>
      </trkpt>
      <trkpt lat="47.67408" lon="-3.37073">
        <ele>0.14</ele>
        <time>2015-10-10T13:52:40Z</time>
      </trkpt>
      <trkpt lat="47.67405" lon="-3.37074">
        <ele>0.14</ele>
        <time>2015-10-10T13:52:41Z</time>
      </trkpt>
      <trkpt lat="47.67402" lon="-3.37075">
        <ele>0.14</ele>
        <time>2015-10-10T13:52:42Z</time>
      </trkpt>
      <trkpt lat="47.674" lon="-3.37075">
        <ele>0.14</ele>
        <time>2015-10-10T13:52:43Z</time>
      </trkpt>
      <trkpt lat="47.67398" lon="-3.37076">
        <ele>0.14</ele>
        <time>2015-10-10T13:52:44Z</time>
      </trkpt>
      <trkpt lat="47.67395" lon="-3.37077">
        <ele>0.14</ele>
        <time>2015-10-10T13:52:45Z</time>
      </trkpt>
      <trkpt lat="47.67393" lon="-3.37078">
        <ele>0.14</ele>
        <time>2015-10-10T13:52:46Z</time>
      </trkpt>
      <trkpt lat="47.6739" lon="-3.37079">
        <ele>0.14</ele>
        <time>2015-10-10T13:52:47Z</time>
      </trkpt>
      <trkpt lat="47.67387" lon="-3.3708">
        <ele>0.14</ele>
        <time>2015-10-10T13:52:48Z</time>
      </trkpt>
      <trkpt lat="47.67384" lon="-3.37081">
        <ele>0.14</ele>
        <time>2015-10-10T13:52:49Z</time>
      </trkpt>
      <trkpt lat="47.67382" lon="-3.37082">
        <ele>0.14</ele>
        <time>2015-10-10T13:52:50Z</time>
      </trkpt>
      <trkpt lat="47.67379" lon="-3.37083">
        <ele>-1.3</ele>
        <time>2015-10-10T13:52:51Z</time>
      </trkpt>
      <trkpt lat="47.67377" lon="-3.37084">
        <ele>-1.3</ele>
        <time>2015-10-10T13:52:52Z</time>
      </trkpt>
      <trkpt lat="47.67374" lon="-3.37085">
        <ele>-1.3</ele>
        <time>2015-10-10T13:52:53Z</time>
      </trkpt>
      <trkpt lat="47.67372" lon="-3.37087">
        <ele>-1.3</ele>
        <time>2015-10-10T13:52:54Z</time>
      </trkpt>
      <trkpt lat="47.67369" lon="-3.37089">
        <ele>-1.3</ele>
        <time>2015-10-10T13:52:55Z</time>
      </trkpt>
      <trkpt lat="47.67367" lon="-3.37091">
        <ele>-1.3</ele>
        <time>2015-10-10T13:52:56Z</time>
      </trkpt>
      <trkpt lat="47.67364" lon="-3.37092">
        <ele>-1.3</ele>
        <time>2015-10-10T13:52:57Z</time>
      </trkpt>
      <trkpt lat="47.67362" lon="-3.37093">
        <ele>-1.3</ele>
        <time>2015-10-10T13:52:58Z</time>
      </trkpt>
      <trkpt lat="47.67359" lon="-3.37094">
        <ele>-1.3</ele>
        <time>2015-10-10T13:52:59Z</time>
      </trkpt>
      <trkpt lat="47.67357" lon="-3.37096">
        <ele>-1.3</ele>
        <time>2015-10-10T13:53:00Z</time>
      </trkpt>
      <trkpt lat="47.67354" lon="-3.37097">
        <ele>-1.3</ele>
        <time>2015-10-10T13:53:01Z</time>
      </trkpt>
      <trkpt lat="47.67351" lon="-3.37099">
        <ele>-1.3</ele>
        <time>2015-10-10T13:53:02Z</time>
      </trkpt>
      <trkpt lat="47.67348" lon="-3.371">
        <ele>-1.3</ele>
        <time>2015-10-10T13:53:03Z</time>
      </trkpt>
      <trkpt lat="47.67346" lon="-3.37102">
        <ele>-1.3</ele>
        <time>2015-10-10T13:53:04Z</time>
      </trkpt>
      <trkpt lat="47.67343" lon="-3.37104">
        <ele>-1.3</ele>
        <time>2015-10-10T13:53:05Z</time>
      </trkpt>
      <trkpt lat="47.6734" lon="-3.37105">
        <ele>-1.3</ele>
        <time>2015-10-10T13:53:06Z</time>
      </trkpt>
      <trkpt lat="47.67337" lon="-3.37106">
        <ele>-1.3</ele>
        <time>2015-10-10T13:53:07Z</time>
      </trkpt>
      <trkpt lat="47.67335" lon="-3.37108">
        <ele>-1.3</ele>
        <time>2015-10-10T13:53:08Z</time>
      </trkpt>
      <trkpt lat="47.67332" lon="-3.37109">
        <ele>-1.3</ele>
        <time>2015-10-10T13:53:09Z</time>
      </trkpt>
      <trkpt lat="47.6733" lon="-3.37111">
        <ele>-1.3</ele>
        <time>2015-10-10T13:53:10Z</time>
      </trkpt>
      <trkpt lat="47.67328" lon="-3.37112">
        <ele>-1.3</ele>
        <time>2015-10-10T13:53:11Z</time>
      </trkpt>
      <trkpt lat="47.67325" lon="-3.37113">
        <ele>-1.3</ele>
        <time>2015-10-10T13:53:12Z</time>
      </trkpt>
      <trkpt lat="47.67323" lon="-3.37114">
        <ele>-1.3</ele>
        <time>2015-10-10T13:53:13Z</time>
      </trkpt>
      <trkpt lat="47.6732" lon="-3.37115">
        <ele>-1.3</ele>
        <time>2015-10-10T13:53:14Z</time>
      </trkpt>
      <trkpt lat="47.67317" lon="-3.37116">
        <ele>-1.3</ele>
        <time>2015-10-10T13:53:15Z</time>
      </trkpt>
      <trkpt lat="47.67314" lon="-3.37118">
        <ele>-1.3</ele>
        <time>2015-10-10T13:53:16Z</time>
      </trkpt>
      <trkpt lat="47.67312" lon="-3.3712">
        <ele>-1.3</ele>
        <time>2015-10-10T13:53:17Z</time>
      </trkpt>
      <trkpt lat="47.6731" lon="-3.37122">
        <ele>-1.3</ele>
        <time>2015-10-10T13:53:18Z</time>
      </trkpt>
      <trkpt lat="47.67307" lon="-3.37124">
        <ele>-1.79</ele>
        <time>2015-10-10T13:53:19Z</time>
      </trkpt>
      <trkpt lat="47.67305" lon="-3.37126">
        <ele>-1.79</ele>
        <time>2015-10-10T13:53:20Z</time>
      </trkpt>
      <trkpt lat="47.67303" lon="-3.37128">
        <ele>-1.79</ele>
        <time>2015-10-10T13:53:21Z</time>
      </trkpt>
      <trkpt lat="47.673" lon="-3.37129">
        <ele>-1.79</ele>
        <time>2015-10-10T13:53:22Z</time>
      </trkpt>
      <trkpt lat="47.67298" lon="-3.37131">
        <ele>-1.79</ele>
        <time>2015-10-10T13:53:23Z</time>
      </trkpt>
      <trkpt lat="47.67295" lon="-3.37132">
        <ele>-1.79</ele>
        <time>2015-10-10T13:53:24Z</time>
      </trkpt>
      <trkpt lat="47.67293" lon="-3.37134">
        <ele>-1.79</ele>
        <time>2015-10-10T13:53:25Z</time>
      </trkpt>
      <trkpt lat="47.67291" lon="-3.37135">
        <ele>-1.79</ele>
        <time>2015-10-10T13:53:26Z</time>
      </trkpt>
      <trkpt lat="47.67289" lon="-3.37137">
        <ele>-1.79</ele>
        <time>2015-10-10T13:53:27Z</time>
      </trkpt>
      <trkpt lat="47.67287" lon="-3.37139">
        <ele>-0.34</ele>
        <time>2015-10-10T13:53:28Z</time>
      </trkpt>
      <trkpt lat="47.67285" lon="-3.37141">
        <ele>-0.34</ele>
        <time>2015-10-10T13:53:29Z</time>
      </trkpt>
      <trkpt lat="47.67282" lon="-3.37142">
        <ele>-0.82</ele>
        <time>2015-10-10T13:53:30Z</time>
      </trkpt>
      <trkpt lat="47.6728" lon="-3.37143">
        <ele>-0.82</ele>
        <time>2015-10-10T13:53:31Z</time>
      </trkpt>
      <trkpt lat="47.67277" lon="-3.37145">
        <ele>-0.82</ele>
        <time>2015-10-10T13:53:32Z</time>
      </trkpt>
      <trkpt lat="47.67275" lon="-3.37147">
        <ele>-1.79</ele>
        <time>2015-10-10T13:53:33Z</time>
      </trkpt>
      <trkpt lat="47.67272" lon="-3.37148">
        <ele>-1.79</ele>
        <time>2015-10-10T13:53:34Z</time>
      </trkpt>
      <trkpt lat="47.6727" lon="-3.3715">
        <ele>-1.79</ele>
        <time>2015-10-10T13:53:35Z</time>
      </trkpt>
      <trkpt lat="47.67268" lon="-3.37152">
        <ele>-1.79</ele>
        <time>2015-10-10T13:53:36Z</time>
      </trkpt>
      <trkpt lat="47.67265" lon="-3.37154">
        <ele>-1.79</ele>
        <time>2015-10-10T13:53:37Z</time>
      </trkpt>
      <trkpt lat="47.67263" lon="-3.37156">
        <ele>-1.79</ele>
        <time>2015-10-10T13:53:38Z</time>
      </trkpt>
      <trkpt lat="47.67261" lon="-3.37157">
        <ele>-1.79</ele>
        <time>2015-10-10T13:53:39Z</time>
      </trkpt>
      <trkpt lat="47.67258" lon="-3.37159">
        <ele>-1.79</ele>
        <time>2015-10-10T13:53:40Z</time>
      </trkpt>
      <trkpt lat="47.67256" lon="-3.3716">
        <ele>0.14</ele>
        <time>2015-10-10T13:53:41Z</time>
      </trkpt>
      <trkpt lat="47.67254" lon="-3.37162">
        <ele>0.14</ele>
        <time>2015-10-10T13:53:42Z</time>
      </trkpt>
      <trkpt lat="47.67252" lon="-3.37164">
        <ele>-1.3</ele>
        <time>2015-10-10T13:53:43Z</time>
      </trkpt>
      <trkpt lat="47.6725" lon="-3.37166">
        <ele>-0.82</ele>
        <time>2015-10-10T13:53:44Z</time>
      </trkpt>
      <trkpt lat="47.67247" lon="-3.37167">
        <ele>-0.82</ele>
        <time>2015-10-10T13:53:45Z</time>
      </trkpt>
      <trkpt lat="47.67244" lon="-3.37169">
        <ele>-0.82</ele>
        <time>2015-10-10T13:53:46Z</time>
      </trkpt>
      <trkpt lat="47.67241" lon="-3.3717">
        <ele>-1.3</ele>
        <time>2015-10-10T13:53:47Z</time>
      </trkpt>
      <trkpt lat="47.67239" lon="-3.37171">
        <ele>-1.79</ele>
        <time>2015-10-10T13:53:48Z</time>
      </trkpt>
      <trkpt lat="47.67236" lon="-3.37173">
        <ele>-1.79</ele>
        <time>2015-10-10T13:53:49Z</time>
      </trkpt>
      <trkpt lat="47.67234" lon="-3.37175">
        <ele>-1.79</ele>
        <time>2015-10-10T13:53:50Z</time>
      </trkpt>
      <trkpt lat="47.67231" lon="-3.37177">
        <ele>-1.79</ele>
        <time>2015-10-10T13:53:51Z</time>
      </trkpt>
      <trkpt lat="47.67229" lon="-3.37178">
        <ele>-1.79</ele>
        <time>2015-10-10T13:53:52Z</time>
      </trkpt>
      <trkpt lat="47.67227" lon="-3.37181">
        <ele>-1.79</ele>
        <time>2015-10-10T13:53:53Z</time>
      </trkpt>
      <trkpt lat="47.67226" lon="-3.37183">
        <ele>-1.79</ele>
        <time>2015-10-10T13:53:54Z</time>
      </trkpt>
      <trkpt lat="47.67224" lon="-3.37184">
        <ele>-1.79</ele>
        <time>2015-10-10T13:53:55Z</time>
      </trkpt>
      <trkpt lat="47.67221" lon="-3.37186">
        <ele>-1.79</ele>
        <time>2015-10-10T13:53:56Z</time>
      </trkpt>
      <trkpt lat="47.67219" lon="-3.37188">
        <ele>-1.79</ele>
        <time>2015-10-10T13:53:57Z</time>
      </trkpt>
      <trkpt lat="47.67216" lon="-3.37189">
        <ele>-1.79</ele>
        <time>2015-10-10T13:53:58Z</time>
      </trkpt>
      <trkpt lat="47.67214" lon="-3.3719">
        <ele>-0.34</ele>
        <time>2015-10-10T13:53:59Z</time>
      </trkpt>
      <trkpt lat="47.67211" lon="-3.37191">
        <ele>-0.34</ele>
        <time>2015-10-10T13:54:00Z</time>
      </trkpt>
      <trkpt lat="47.67209" lon="-3.37193">
        <ele>-0.34</ele>
        <time>2015-10-10T13:54:01Z</time>
      </trkpt>
      <trkpt lat="47.67206" lon="-3.37194">
        <ele>-0.34</ele>
        <time>2015-10-10T13:54:02Z</time>
      </trkpt>
      <trkpt lat="47.67204" lon="-3.37196">
        <ele>-0.34</ele>
        <time>2015-10-10T13:54:03Z</time>
      </trkpt>
      <trkpt lat="47.67201" lon="-3.37197">
        <ele>-0.34</ele>
        <time>2015-10-10T13:54:04Z</time>
      </trkpt>
      <trkpt lat="47.67198" lon="-3.37198">
        <ele>-0.34</ele>
        <time>2015-10-10T13:54:05Z</time>
      </trkpt>
      <trkpt lat="47.67195" lon="-3.37199">
        <ele>-0.34</ele>
        <time>2015-10-10T13:54:06Z</time>
      </trkpt>
      <trkpt lat="47.67192" lon="-3.37201">
        <ele>-0.34</ele>
        <time>2015-10-10T13:54:07Z</time>
      </trkpt>
      <trkpt lat="47.6719" lon="-3.37203">
        <ele>-1.3</ele>
        <time>2015-10-10T13:54:08Z</time>
      </trkpt>
      <trkpt lat="47.67187" lon="-3.37204">
        <ele>-1.3</ele>
        <time>2015-10-10T13:54:09Z</time>
      </trkpt>
      <trkpt lat="47.67185" lon="-3.37206">
        <ele>-1.3</ele>
        <time>2015-10-10T13:54:10Z</time>
      </trkpt>
      <trkpt lat="47.67183" lon="-3.37208">
        <ele>-1.3</ele>
        <time>2015-10-10T13:54:11Z</time>
      </trkpt>
      <trkpt lat="47.67181" lon="-3.3721">
        <ele>-0.34</ele>
        <time>2015-10-10T13:54:12Z</time>
      </trkpt>
      <trkpt lat="47.67179" lon="-3.37212">
        <ele>-0.34</ele>
        <time>2015-10-10T13:54:13Z</time>
      </trkpt>
      <trkpt lat="47.67176" lon="-3.37214">
        <ele>-0.34</ele>
        <time>2015-10-10T13:54:14Z</time>
      </trkpt>
      <trkpt lat="47.67174" lon="-3.37215">
        <ele>-0.34</ele>
        <time>2015-10-10T13:54:15Z</time>
      </trkpt>
      <trkpt lat="47.67172" lon="-3.37217">
        <ele>-0.34</ele>
        <time>2015-10-10T13:54:16Z</time>
      </trkpt>
      <trkpt lat="47.67169" lon="-3.37218">
        <ele>-0.34</ele>
        <time>2015-10-10T13:54:17Z</time>
      </trkpt>
      <trkpt lat="47.67167" lon="-3.3722">
        <ele>-0.34</ele>
        <time>2015-10-10T13:54:18Z</time>
      </trkpt>
      <trkpt lat="47.67165" lon="-3.37222">
        <ele>-0.34</ele>
        <time>2015-10-10T13:54:19Z</time>
      </trkpt>
      <trkpt lat="47.67162" lon="-3.37223">
        <ele>-0.34</ele>
        <time>2015-10-10T13:54:20Z</time>
      </trkpt>
      <trkpt lat="47.67159" lon="-3.37224">
        <ele>-0.34</ele>
        <time>2015-10-10T13:54:21Z</time>
      </trkpt>
      <trkpt lat="47.67157" lon="-3.37226">
        <ele>-1.79</ele>
        <time>2015-10-10T13:54:22Z</time>
      </trkpt>
      <trkpt lat="47.67154" lon="-3.37228">
        <ele>-1.79</ele>
        <time>2015-10-10T13:54:23Z</time>
      </trkpt>
      <trkpt lat="47.67151" lon="-3.3723">
        <ele>-1.79</ele>
        <time>2015-10-10T13:54:24Z</time>
      </trkpt>
      <trkpt lat="47.67149" lon="-3.37232">
        <ele>-1.79</ele>
        <time>2015-10-10T13:54:25Z</time>
      </trkpt>
      <trkpt lat="47.67147" lon="-3.37234">
        <ele>-1.79</ele>
        <time>2015-10-10T13:54:26Z</time>
      </trkpt>
      <trkpt lat="47.67145" lon="-3.37235">
        <ele>-0.34</ele>
        <time>2015-10-10T13:54:27Z</time>
      </trkpt>
      <trkpt lat="47.67143" lon="-3.37237">
        <ele>-0.34</ele>
        <time>2015-10-10T13:54:28Z</time>
      </trkpt>
      <trkpt lat="47.6714" lon="-3.37239">
        <ele>-0.34</ele>
        <time>2015-10-10T13:54:29Z</time>
      </trkpt>
      <trkpt lat="47.67138" lon="-3.3724">
        <ele>-0.34</ele>
        <time>2015-10-10T13:54:30Z</time>
      </trkpt>
      <trkpt lat="47.67135" lon="-3.37241">
        <ele>-0.34</ele>
        <time>2015-10-10T13:54:31Z</time>
      </trkpt>
      <trkpt lat="47.67133" lon="-3.37242">
        <ele>-0.34</ele>
        <time>2015-10-10T13:54:32Z</time>
      </trkpt>
      <trkpt lat="47.6713" lon="-3.37244">
        <ele>-0.34</ele>
        <time>2015-10-10T13:54:33Z</time>
      </trkpt>
      <trkpt lat="47.67127" lon="-3.37245">
        <ele>-0.34</ele>
        <time>2015-10-10T13:54:34Z</time>
      </trkpt>
      <trkpt lat="47.67125" lon="-3.37247">
        <ele>-0.34</ele>
        <time>2015-10-10T13:54:35Z</time>
      </trkpt>
      <trkpt lat="47.67122" lon="-3.37248">
        <ele>-0.34</ele>
        <time>2015-10-10T13:54:36Z</time>
      </trkpt>
      <trkpt lat="47.6712" lon="-3.3725">
        <ele>-0.34</ele>
        <time>2015-10-10T13:54:37Z</time>
      </trkpt>
      <trkpt lat="47.67117" lon="-3.37252">
        <ele>-0.34</ele>
        <time>2015-10-10T13:54:38Z</time>
      </trkpt>
      <trkpt lat="47.67115" lon="-3.37253">
        <ele>-0.34</ele>
        <time>2015-10-10T13:54:39Z</time>
      </trkpt>
      <trkpt lat="47.67113" lon="-3.37255">
        <ele>-1.79</ele>
        <time>2015-10-10T13:54:40Z</time>
      </trkpt>
      <trkpt lat="47.67111" lon="-3.37257">
        <ele>-1.79</ele>
        <time>2015-10-10T13:54:41Z</time>
      </trkpt>
      <trkpt lat="47.67108" lon="-3.37259">
        <ele>-0.34</ele>
        <time>2015-10-10T13:54:42Z</time>
      </trkpt>
      <trkpt lat="47.67106" lon="-3.3726">
        <ele>-0.34</ele>
        <time>2015-10-10T13:54:43Z</time>
      </trkpt>
      <trkpt lat="47.67103" lon="-3.37261">
        <ele>-0.34</ele>
        <time>2015-10-10T13:54:44Z</time>
      </trkpt>
      <trkpt lat="47.67101" lon="-3.37262">
        <ele>-0.34</ele>
        <time>2015-10-10T13:54:45Z</time>
      </trkpt>
      <trkpt lat="47.67098" lon="-3.37263">
        <ele>-0.34</ele>
        <time>2015-10-10T13:54:46Z</time>
      </trkpt>
      <trkpt lat="47.67096" lon="-3.37264">
        <ele>-0.34</ele>
        <time>2015-10-10T13:54:47Z</time>
      </trkpt>
      <trkpt lat="47.67093" lon="-3.37265">
        <ele>-0.34</ele>
        <time>2015-10-10T13:54:48Z</time>
      </trkpt>
      <trkpt lat="47.6709" lon="-3.37266">
        <ele>-0.34</ele>
        <time>2015-10-10T13:54:49Z</time>
      </trkpt>
      <trkpt lat="47.67087" lon="-3.37267">
        <ele>-0.34</ele>
        <time>2015-10-10T13:54:50Z</time>
      </trkpt>
      <trkpt lat="47.67085" lon="-3.37268">
        <ele>-0.34</ele>
        <time>2015-10-10T13:54:51Z</time>
      </trkpt>
      <trkpt lat="47.67082" lon="-3.37269">
        <ele>-0.34</ele>
        <time>2015-10-10T13:54:52Z</time>
      </trkpt>
      <trkpt lat="47.67079" lon="-3.37271">
        <ele>-0.34</ele>
        <time>2015-10-10T13:54:53Z</time>
      </trkpt>
      <trkpt lat="47.67076" lon="-3.37271">
        <ele>-0.34</ele>
        <time>2015-10-10T13:54:54Z</time>
      </trkpt>
      <trkpt lat="47.67073" lon="-3.37272">
        <ele>0.14</ele>
        <time>2015-10-10T13:54:55Z</time>
      </trkpt>
      <trkpt lat="47.6707" lon="-3.37274">
        <ele>0.14</ele>
        <time>2015-10-10T13:54:56Z</time>
      </trkpt>
      <trkpt lat="47.67068" lon="-3.37275">
        <ele>-0.34</ele>
        <time>2015-10-10T13:54:57Z</time>
      </trkpt>
      <trkpt lat="47.67066" lon="-3.37277">
        <ele>-0.34</ele>
        <time>2015-10-10T13:54:58Z</time>
      </trkpt>
      <trkpt lat="47.67063" lon="-3.37279">
        <ele>-0.34</ele>
        <time>2015-10-10T13:54:59Z</time>
      </trkpt>
      <trkpt lat="47.67061" lon="-3.37281">
        <ele>-0.34</ele>
        <time>2015-10-10T13:55:00Z</time>
      </trkpt>
      <trkpt lat="47.67058" lon="-3.37282">
        <ele>-0.34</ele>
        <time>2015-10-10T13:55:01Z</time>
      </trkpt>
      <trkpt lat="47.67056" lon="-3.37284">
        <ele>-1.79</ele>
        <time>2015-10-10T13:55:02Z</time>
      </trkpt>
      <trkpt lat="47.67053" lon="-3.37285">
        <ele>-1.79</ele>
        <time>2015-10-10T13:55:03Z</time>
      </trkpt>
      <trkpt lat="47.67051" lon="-3.37287">
        <ele>-1.79</ele>
        <time>2015-10-10T13:55:04Z</time>
      </trkpt>
      <trkpt lat="47.67049" lon="-3.37288">
        <ele>-1.79</ele>
        <time>2015-10-10T13:55:05Z</time>
      </trkpt>
      <trkpt lat="47.67046" lon="-3.37289">
        <ele>-1.79</ele>
        <time>2015-10-10T13:55:06Z</time>
      </trkpt>
      <trkpt lat="47.67043" lon="-3.3729">
        <ele>-1.79</ele>
        <time>2015-10-10T13:55:07Z</time>
      </trkpt>
      <trkpt lat="47.6704" lon="-3.37291">
        <ele>-1.79</ele>
        <time>2015-10-10T13:55:08Z</time>
      </trkpt>
      <trkpt lat="47.67038" lon="-3.37292">
        <ele>-0.34</ele>
        <time>2015-10-10T13:55:09Z</time>
      </trkpt>
      <trkpt lat="47.67035" lon="-3.37292">
        <ele>-0.34</ele>
        <time>2015-10-10T13:55:10Z</time>
      </trkpt>
      <trkpt lat="47.67033" lon="-3.37294">
        <ele>-0.34</ele>
        <time>2015-10-10T13:55:11Z</time>
      </trkpt>
      <trkpt lat="47.6703" lon="-3.37295">
        <ele>-0.34</ele>
        <time>2015-10-10T13:55:12Z</time>
      </trkpt>
      <trkpt lat="47.67028" lon="-3.37297">
        <ele>-0.34</ele>
        <time>2015-10-10T13:55:13Z</time>
      </trkpt>
      <trkpt lat="47.67026" lon="-3.37298">
        <ele>-0.34</ele>
        <time>2015-10-10T13:55:14Z</time>
      </trkpt>
      <trkpt lat="47.67023" lon="-3.373">
        <ele>-0.34</ele>
        <time>2015-10-10T13:55:15Z</time>
      </trkpt>
      <trkpt lat="47.67021" lon="-3.37301">
        <ele>-0.34</ele>
        <time>2015-10-10T13:55:16Z</time>
      </trkpt>
      <trkpt lat="47.67018" lon="-3.37303">
        <ele>-0.34</ele>
        <time>2015-10-10T13:55:17Z</time>
      </trkpt>
      <trkpt lat="47.67016" lon="-3.37304">
        <ele>-0.34</ele>
        <time>2015-10-10T13:55:18Z</time>
      </trkpt>
      <trkpt lat="47.67013" lon="-3.37305">
        <ele>-0.34</ele>
        <time>2015-10-10T13:55:19Z</time>
      </trkpt>
      <trkpt lat="47.67011" lon="-3.37307">
        <ele>-0.34</ele>
        <time>2015-10-10T13:55:20Z</time>
      </trkpt>
      <trkpt lat="47.67009" lon="-3.37308">
        <ele>-0.34</ele>
        <time>2015-10-10T13:55:21Z</time>
      </trkpt>
      <trkpt lat="47.67006" lon="-3.3731">
        <ele>-0.34</ele>
        <time>2015-10-10T13:55:22Z</time>
      </trkpt>
      <trkpt lat="47.67004" lon="-3.37311">
        <ele>-0.34</ele>
        <time>2015-10-10T13:55:23Z</time>
      </trkpt>
      <trkpt lat="47.67001" lon="-3.37312">
        <ele>-0.34</ele>
        <time>2015-10-10T13:55:24Z</time>
      </trkpt>
      <trkpt lat="47.66999" lon="-3.37314">
        <ele>-0.34</ele>
        <time>2015-10-10T13:55:25Z</time>
      </trkpt>
      <trkpt lat="47.66997" lon="-3.37315">
        <ele>-0.34</ele>
        <time>2015-10-10T13:55:26Z</time>
      </trkpt>
      <trkpt lat="47.66994" lon="-3.37317">
        <ele>-0.34</ele>
        <time>2015-10-10T13:55:27Z</time>
      </trkpt>
      <trkpt lat="47.66992" lon="-3.37318">
        <ele>-0.34</ele>
        <time>2015-10-10T13:55:28Z</time>
      </trkpt>
      <trkpt lat="47.6699" lon="-3.37318">
        <ele>-0.34</ele>
        <time>2015-10-10T13:55:29Z</time>
      </trkpt>
      <trkpt lat="47.66987" lon="-3.37319">
        <ele>-0.34</ele>
        <time>2015-10-10T13:55:30Z</time>
      </trkpt>
      <trkpt lat="47.66984" lon="-3.3732">
        <ele>-0.34</ele>
        <time>2015-10-10T13:55:31Z</time>
      </trkpt>
      <trkpt lat="47.66982" lon="-3.37321">
        <ele>-0.34</ele>
        <time>2015-10-10T13:55:32Z</time>
      </trkpt>
      <trkpt lat="47.66979" lon="-3.37322">
        <ele>-0.34</ele>
        <time>2015-10-10T13:55:33Z</time>
      </trkpt>
      <trkpt lat="47.66976" lon="-3.37323">
        <ele>-0.34</ele>
        <time>2015-10-10T13:55:34Z</time>
      </trkpt>
      <trkpt lat="47.66974" lon="-3.37324">
        <ele>-0.34</ele>
        <time>2015-10-10T13:55:35Z</time>
      </trkpt>
      <trkpt lat="47.66971" lon="-3.37325">
        <ele>-0.34</ele>
        <time>2015-10-10T13:55:36Z</time>
      </trkpt>
      <trkpt lat="47.66968" lon="-3.37326">
        <ele>-0.34</ele>
        <time>2015-10-10T13:55:37Z</time>
      </trkpt>
      <trkpt lat="47.66965" lon="-3.37327">
        <ele>-0.34</ele>
        <time>2015-10-10T13:55:38Z</time>
      </trkpt>
      <trkpt lat="47.66963" lon="-3.37328">
        <ele>-0.34</ele>
        <time>2015-10-10T13:55:39Z</time>
      </trkpt>
      <trkpt lat="47.6696" lon="-3.37329">
        <ele>-0.34</ele>
        <time>2015-10-10T13:55:40Z</time>
      </trkpt>
      <trkpt lat="47.66957" lon="-3.3733">
        <ele>-0.34</ele>
        <time>2015-10-10T13:55:41Z</time>
      </trkpt>
      <trkpt lat="47.66955" lon="-3.37331">
        <ele>-0.34</ele>
        <time>2015-10-10T13:55:42Z</time>
      </trkpt>
      <trkpt lat="47.66952" lon="-3.37332">
        <ele>-0.34</ele>
        <time>2015-10-10T13:55:43Z</time>
      </trkpt>
      <trkpt lat="47.66949" lon="-3.37333">
        <ele>-0.34</ele>
        <time>2015-10-10T13:55:44Z</time>
      </trkpt>
      <trkpt lat="47.66947" lon="-3.37334">
        <ele>-0.34</ele>
        <time>2015-10-10T13:55:45Z</time>
      </trkpt>
      <trkpt lat="47.66944" lon="-3.37335">
        <ele>-0.34</ele>
        <time>2015-10-10T13:55:46Z</time>
      </trkpt>
      <trkpt lat="47.66941" lon="-3.37335">
        <ele>-0.34</ele>
        <time>2015-10-10T13:55:47Z</time>
      </trkpt>
      <trkpt lat="47.66939" lon="-3.37336">
        <ele>-0.34</ele>
        <time>2015-10-10T13:55:48Z</time>
      </trkpt>
      <trkpt lat="47.66935" lon="-3.37336">
        <ele>-0.34</ele>
        <time>2015-10-10T13:55:49Z</time>
      </trkpt>
      <trkpt lat="47.66933" lon="-3.37336">
        <ele>-0.34</ele>
        <time>2015-10-10T13:55:50Z</time>
      </trkpt>
      <trkpt lat="47.6693" lon="-3.37337">
        <ele>-0.34</ele>
        <time>2015-10-10T13:55:51Z</time>
      </trkpt>
      <trkpt lat="47.66927" lon="-3.37338">
        <ele>-0.34</ele>
        <time>2015-10-10T13:55:52Z</time>
      </trkpt>
      <trkpt lat="47.66925" lon="-3.37339">
        <ele>-0.34</ele>
        <time>2015-10-10T13:55:53Z</time>
      </trkpt>
      <trkpt lat="47.66922" lon="-3.37339">
        <ele>-0.34</ele>
        <time>2015-10-10T13:55:54Z</time>
      </trkpt>
      <trkpt lat="47.66919" lon="-3.3734">
        <ele>-0.34</ele>
        <time>2015-10-10T13:55:55Z</time>
      </trkpt>
      <trkpt lat="47.66917" lon="-3.37341">
        <ele>-0.34</ele>
        <time>2015-10-10T13:55:56Z</time>
      </trkpt>
      <trkpt lat="47.66914" lon="-3.37341">
        <ele>-0.34</ele>
        <time>2015-10-10T13:55:57Z</time>
      </trkpt>
      <trkpt lat="47.66912" lon="-3.37342">
        <ele>-0.34</ele>
        <time>2015-10-10T13:55:58Z</time>
      </trkpt>
      <trkpt lat="47.66909" lon="-3.37343">
        <ele>-0.34</ele>
        <time>2015-10-10T13:55:59Z</time>
      </trkpt>
      <trkpt lat="47.66906" lon="-3.37343">
        <ele>-0.34</ele>
        <time>2015-10-10T13:56:00Z</time>
      </trkpt>
      <trkpt lat="47.66903" lon="-3.37344">
        <ele>-0.34</ele>
        <time>2015-10-10T13:56:01Z</time>
      </trkpt>
      <trkpt lat="47.669" lon="-3.37345">
        <ele>-0.34</ele>
        <time>2015-10-10T13:56:02Z</time>
      </trkpt>
      <trkpt lat="47.66898" lon="-3.37345">
        <ele>-0.34</ele>
        <time>2015-10-10T13:56:03Z</time>
      </trkpt>
      <trkpt lat="47.66895" lon="-3.37346">
        <ele>-0.34</ele>
        <time>2015-10-10T13:56:04Z</time>
      </trkpt>
      <trkpt lat="47.66892" lon="-3.37346">
        <ele>-0.34</ele>
        <time>2015-10-10T13:56:05Z</time>
      </trkpt>
      <trkpt lat="47.66889" lon="-3.37347">
        <ele>-0.34</ele>
        <time>2015-10-10T13:56:06Z</time>
      </trkpt>
      <trkpt lat="47.66887" lon="-3.37347">
        <ele>-0.34</ele>
        <time>2015-10-10T13:56:07Z</time>
      </trkpt>
      <trkpt lat="47.66884" lon="-3.37348">
        <ele>-0.34</ele>
        <time>2015-10-10T13:56:08Z</time>
      </trkpt>
      <trkpt lat="47.66881" lon="-3.37348">
        <ele>-0.34</ele>
        <time>2015-10-10T13:56:09Z</time>
      </trkpt>
      <trkpt lat="47.66879" lon="-3.37349">
        <ele>0.14</ele>
        <time>2015-10-10T13:56:10Z</time>
      </trkpt>
      <trkpt lat="47.66876" lon="-3.37349">
        <ele>0.14</ele>
        <time>2015-10-10T13:56:11Z</time>
      </trkpt>
      <trkpt lat="47.66873" lon="-3.37349">
        <ele>0.14</ele>
        <time>2015-10-10T13:56:12Z</time>
      </trkpt>
      <trkpt lat="47.66871" lon="-3.37349">
        <ele>0.14</ele>
        <time>2015-10-10T13:56:13Z</time>
      </trkpt>
      <trkpt lat="47.66868" lon="-3.37349">
        <ele>0.14</ele>
        <time>2015-10-10T13:56:14Z</time>
      </trkpt>
      <trkpt lat="47.66865" lon="-3.3735">
        <ele>0.14</ele>
        <time>2015-10-10T13:56:15Z</time>
      </trkpt>
      <trkpt lat="47.66863" lon="-3.3735">
        <ele>0.14</ele>
        <time>2015-10-10T13:56:16Z</time>
      </trkpt>
      <trkpt lat="47.6686" lon="-3.37351">
        <ele>0.14</ele>
        <time>2015-10-10T13:56:17Z</time>
      </trkpt>
      <trkpt lat="47.66857" lon="-3.37352">
        <ele>0.14</ele>
        <time>2015-10-10T13:56:18Z</time>
      </trkpt>
      <trkpt lat="47.66854" lon="-3.37352">
        <ele>0.14</ele>
        <time>2015-10-10T13:56:19Z</time>
      </trkpt>
      <trkpt lat="47.66852" lon="-3.37352">
        <ele>0.14</ele>
        <time>2015-10-10T13:56:20Z</time>
      </trkpt>
      <trkpt lat="47.66849" lon="-3.37353">
        <ele>0.14</ele>
        <time>2015-10-10T13:56:21Z</time>
      </trkpt>
      <trkpt lat="47.66846" lon="-3.37354">
        <ele>0.14</ele>
        <time>2015-10-10T13:56:22Z</time>
      </trkpt>
      <trkpt lat="47.66843" lon="-3.37355">
        <ele>0.14</ele>
        <time>2015-10-10T13:56:23Z</time>
      </trkpt>
      <trkpt lat="47.66841" lon="-3.37355">
        <ele>0.62</ele>
        <time>2015-10-10T13:56:24Z</time>
      </trkpt>
      <trkpt lat="47.66838" lon="-3.37355">
        <ele>0.62</ele>
        <time>2015-10-10T13:56:25Z</time>
      </trkpt>
      <trkpt lat="47.66835" lon="-3.37355">
        <ele>0.62</ele>
        <time>2015-10-10T13:56:26Z</time>
      </trkpt>
      <trkpt lat="47.66832" lon="-3.37355">
        <ele>0.62</ele>
        <time>2015-10-10T13:56:27Z</time>
      </trkpt>
      <trkpt lat="47.66829" lon="-3.37355">
        <ele>0.62</ele>
        <time>2015-10-10T13:56:28Z</time>
      </trkpt>
      <trkpt lat="47.66827" lon="-3.37355">
        <ele>-0.82</ele>
        <time>2015-10-10T13:56:29Z</time>
      </trkpt>
      <trkpt lat="47.66824" lon="-3.37356">
        <ele>-0.82</ele>
        <time>2015-10-10T13:56:30Z</time>
      </trkpt>
      <trkpt lat="47.66821" lon="-3.37356">
        <ele>-0.82</ele>
        <time>2015-10-10T13:56:31Z</time>
      </trkpt>
      <trkpt lat="47.66818" lon="-3.37356">
        <ele>-0.82</ele>
        <time>2015-10-10T13:56:32Z</time>
      </trkpt>
      <trkpt lat="47.66815" lon="-3.37356">
        <ele>-0.82</ele>
        <time>2015-10-10T13:56:33Z</time>
      </trkpt>
      <trkpt lat="47.66812" lon="-3.37356">
        <ele>-0.82</ele>
        <time>2015-10-10T13:56:34Z</time>
      </trkpt>
      <trkpt lat="47.66809" lon="-3.37356">
        <ele>-0.82</ele>
        <time>2015-10-10T13:56:35Z</time>
      </trkpt>
      <trkpt lat="47.66806" lon="-3.37357">
        <ele>-0.82</ele>
        <time>2015-10-10T13:56:36Z</time>
      </trkpt>
      <trkpt lat="47.66804" lon="-3.37357">
        <ele>-0.82</ele>
        <time>2015-10-10T13:56:37Z</time>
      </trkpt>
      <trkpt lat="47.66801" lon="-3.37358">
        <ele>-0.82</ele>
        <time>2015-10-10T13:56:38Z</time>
      </trkpt>
      <trkpt lat="47.66798" lon="-3.37358">
        <ele>-0.82</ele>
        <time>2015-10-10T13:56:39Z</time>
      </trkpt>
      <trkpt lat="47.66796" lon="-3.37359">
        <ele>-0.82</ele>
        <time>2015-10-10T13:56:40Z</time>
      </trkpt>
      <trkpt lat="47.66794" lon="-3.37359">
        <ele>-0.82</ele>
        <time>2015-10-10T13:56:41Z</time>
      </trkpt>
      <trkpt lat="47.66791" lon="-3.3736">
        <ele>-0.82</ele>
        <time>2015-10-10T13:56:42Z</time>
      </trkpt>
      <trkpt lat="47.66788" lon="-3.3736">
        <ele>-0.82</ele>
        <time>2015-10-10T13:56:43Z</time>
      </trkpt>
      <trkpt lat="47.66785" lon="-3.3736">
        <ele>-0.82</ele>
        <time>2015-10-10T13:56:44Z</time>
      </trkpt>
      <trkpt lat="47.66782" lon="-3.3736">
        <ele>-1.3</ele>
        <time>2015-10-10T13:56:45Z</time>
      </trkpt>
      <trkpt lat="47.66779" lon="-3.3736">
        <ele>-1.3</ele>
        <time>2015-10-10T13:56:46Z</time>
      </trkpt>
      <trkpt lat="47.66776" lon="-3.3736">
        <ele>-1.3</ele>
        <time>2015-10-10T13:56:47Z</time>
      </trkpt>
      <trkpt lat="47.66773" lon="-3.37361">
        <ele>-1.3</ele>
        <time>2015-10-10T13:56:48Z</time>
      </trkpt>
      <trkpt lat="47.6677" lon="-3.37361">
        <ele>-1.3</ele>
        <time>2015-10-10T13:56:49Z</time>
      </trkpt>
      <trkpt lat="47.66767" lon="-3.3736">
        <ele>0.14</ele>
        <time>2015-10-10T13:56:50Z</time>
      </trkpt>
      <trkpt lat="47.66765" lon="-3.3736">
        <ele>0.14</ele>
        <time>2015-10-10T13:56:51Z</time>
      </trkpt>
      <trkpt lat="47.66762" lon="-3.3736">
        <ele>0.62</ele>
        <time>2015-10-10T13:56:52Z</time>
      </trkpt>
      <trkpt lat="47.66759" lon="-3.3736">
        <ele>0.62</ele>
        <time>2015-10-10T13:56:53Z</time>
      </trkpt>
      <trkpt lat="47.66756" lon="-3.3736">
        <ele>0.62</ele>
        <time>2015-10-10T13:56:54Z</time>
      </trkpt>
      <trkpt lat="47.66753" lon="-3.3736">
        <ele>0.62</ele>
        <time>2015-10-10T13:56:55Z</time>
      </trkpt>
      <trkpt lat="47.66751" lon="-3.3736">
        <ele>0.62</ele>
        <time>2015-10-10T13:56:56Z</time>
      </trkpt>
      <trkpt lat="47.66748" lon="-3.3736">
        <ele>0.62</ele>
        <time>2015-10-10T13:56:57Z</time>
      </trkpt>
      <trkpt lat="47.66745" lon="-3.3736">
        <ele>-0.82</ele>
        <time>2015-10-10T13:56:58Z</time>
      </trkpt>
      <trkpt lat="47.66742" lon="-3.37361">
        <ele>-0.82</ele>
        <time>2015-10-10T13:56:59Z</time>
      </trkpt>
      <trkpt lat="47.66739" lon="-3.37361">
        <ele>-0.82</ele>
        <time>2015-10-10T13:57:00Z</time>
      </trkpt>
      <trkpt lat="47.66736" lon="-3.37362">
        <ele>-0.82</ele>
        <time>2015-10-10T13:57:01Z</time>
      </trkpt>
      <trkpt lat="47.66734" lon="-3.37362">
        <ele>-0.82</ele>
        <time>2015-10-10T13:57:02Z</time>
      </trkpt>
      <trkpt lat="47.66731" lon="-3.37363">
        <ele>-0.82</ele>
        <time>2015-10-10T13:57:03Z</time>
      </trkpt>
      <trkpt lat="47.66728" lon="-3.37363">
        <ele>-0.82</ele>
        <time>2015-10-10T13:57:04Z</time>
      </trkpt>
      <trkpt lat="47.66726" lon="-3.37363">
        <ele>-0.82</ele>
        <time>2015-10-10T13:57:05Z</time>
      </trkpt>
      <trkpt lat="47.66723" lon="-3.37364">
        <ele>-0.82</ele>
        <time>2015-10-10T13:57:06Z</time>
      </trkpt>
      <trkpt lat="47.66721" lon="-3.37364">
        <ele>-0.82</ele>
        <time>2015-10-10T13:57:07Z</time>
      </trkpt>
      <trkpt lat="47.66718" lon="-3.37364">
        <ele>-0.82</ele>
        <time>2015-10-10T13:57:08Z</time>
      </trkpt>
      <trkpt lat="47.66715" lon="-3.37364">
        <ele>-0.82</ele>
        <time>2015-10-10T13:57:09Z</time>
      </trkpt>
      <trkpt lat="47.66713" lon="-3.37365">
        <ele>-0.82</ele>
        <time>2015-10-10T13:57:10Z</time>
      </trkpt>
      <trkpt lat="47.6671" lon="-3.37366">
        <ele>-0.82</ele>
        <time>2015-10-10T13:57:11Z</time>
      </trkpt>
      <trkpt lat="47.66707" lon="-3.37366">
        <ele>-0.82</ele>
        <time>2015-10-10T13:57:12Z</time>
      </trkpt>
      <trkpt lat="47.66704" lon="-3.37366">
        <ele>-0.82</ele>
        <time>2015-10-10T13:57:13Z</time>
      </trkpt>
      <trkpt lat="47.66701" lon="-3.37366">
        <ele>-0.82</ele>
        <time>2015-10-10T13:57:14Z</time>
      </trkpt>
      <trkpt lat="47.66698" lon="-3.37366">
        <ele>-0.82</ele>
        <time>2015-10-10T13:57:15Z</time>
      </trkpt>
      <trkpt lat="47.66695" lon="-3.37366">
        <ele>-0.82</ele>
        <time>2015-10-10T13:57:16Z</time>
      </trkpt>
      <trkpt lat="47.66692" lon="-3.37366">
        <ele>-0.82</ele>
        <time>2015-10-10T13:57:17Z</time>
      </trkpt>
      <trkpt lat="47.66689" lon="-3.37367">
        <ele>-0.82</ele>
        <time>2015-10-10T13:57:18Z</time>
      </trkpt>
      <trkpt lat="47.66687" lon="-3.37367">
        <ele>-0.82</ele>
        <time>2015-10-10T13:57:19Z</time>
      </trkpt>
      <trkpt lat="47.66684" lon="-3.37367">
        <ele>-0.82</ele>
        <time>2015-10-10T13:57:20Z</time>
      </trkpt>
      <trkpt lat="47.66682" lon="-3.37368">
        <ele>-0.82</ele>
        <time>2015-10-10T13:57:21Z</time>
      </trkpt>
      <trkpt lat="47.66679" lon="-3.37369">
        <ele>-0.82</ele>
        <time>2015-10-10T13:57:22Z</time>
      </trkpt>
      <trkpt lat="47.66677" lon="-3.3737">
        <ele>-0.82</ele>
        <time>2015-10-10T13:57:23Z</time>
      </trkpt>
      <trkpt lat="47.66674" lon="-3.3737">
        <ele>-0.82</ele>
        <time>2015-10-10T13:57:24Z</time>
      </trkpt>
      <trkpt lat="47.66671" lon="-3.3737">
        <ele>-0.82</ele>
        <time>2015-10-10T13:57:25Z</time>
      </trkpt>
      <trkpt lat="47.66668" lon="-3.37371">
        <ele>-0.82</ele>
        <time>2015-10-10T13:57:26Z</time>
      </trkpt>
      <trkpt lat="47.66666" lon="-3.37371">
        <ele>-1.3</ele>
        <time>2015-10-10T13:57:27Z</time>
      </trkpt>
      <trkpt lat="47.66663" lon="-3.37372">
        <ele>-1.3</ele>
        <time>2015-10-10T13:57:28Z</time>
      </trkpt>
      <trkpt lat="47.6666" lon="-3.37373">
        <ele>-1.3</ele>
        <time>2015-10-10T13:57:29Z</time>
      </trkpt>
      <trkpt lat="47.66658" lon="-3.37374">
        <ele>-1.3</ele>
        <time>2015-10-10T13:57:30Z</time>
      </trkpt>
      <trkpt lat="47.66655" lon="-3.37374">
        <ele>-1.3</ele>
        <time>2015-10-10T13:57:31Z</time>
      </trkpt>
      <trkpt lat="47.66652" lon="-3.37375">
        <ele>-0.34</ele>
        <time>2015-10-10T13:57:32Z</time>
      </trkpt>
      <trkpt lat="47.66649" lon="-3.37375">
        <ele>-0.34</ele>
        <time>2015-10-10T13:57:33Z</time>
      </trkpt>
      <trkpt lat="47.66647" lon="-3.37375">
        <ele>-0.34</ele>
        <time>2015-10-10T13:57:34Z</time>
      </trkpt>
      <trkpt lat="47.66645" lon="-3.37376">
        <ele>-0.34</ele>
        <time>2015-10-10T13:57:35Z</time>
      </trkpt>
      <trkpt lat="47.66642" lon="-3.37377">
        <ele>-0.34</ele>
        <time>2015-10-10T13:57:36Z</time>
      </trkpt>
      <trkpt lat="47.66639" lon="-3.37377">
        <ele>-0.34</ele>
        <time>2015-10-10T13:57:37Z</time>
      </trkpt>
      <trkpt lat="47.66637" lon="-3.37378">
        <ele>-0.34</ele>
        <time>2015-10-10T13:57:38Z</time>
      </trkpt>
      <trkpt lat="47.66634" lon="-3.37378">
        <ele>-0.34</ele>
        <time>2015-10-10T13:57:39Z</time>
      </trkpt>
      <trkpt lat="47.66632" lon="-3.37379">
        <ele>-0.34</ele>
        <time>2015-10-10T13:57:40Z</time>
      </trkpt>
      <trkpt lat="47.66629" lon="-3.3738">
        <ele>-0.34</ele>
        <time>2015-10-10T13:57:41Z</time>
      </trkpt>
      <trkpt lat="47.66627" lon="-3.37381">
        <ele>-0.34</ele>
        <time>2015-10-10T13:57:42Z</time>
      </trkpt>
      <trkpt lat="47.66624" lon="-3.37381">
        <ele>-0.34</ele>
        <time>2015-10-10T13:57:43Z</time>
      </trkpt>
      <trkpt lat="47.66621" lon="-3.37382">
        <ele>-0.34</ele>
        <time>2015-10-10T13:57:44Z</time>
      </trkpt>
      <trkpt lat="47.66619" lon="-3.37382">
        <ele>-0.34</ele>
        <time>2015-10-10T13:57:45Z</time>
      </trkpt>
      <trkpt lat="47.66616" lon="-3.37383">
        <ele>-0.34</ele>
        <time>2015-10-10T13:57:46Z</time>
      </trkpt>
      <trkpt lat="47.66614" lon="-3.37383">
        <ele>-0.34</ele>
        <time>2015-10-10T13:57:47Z</time>
      </trkpt>
      <trkpt lat="47.66611" lon="-3.37383">
        <ele>-0.34</ele>
        <time>2015-10-10T13:57:48Z</time>
      </trkpt>
      <trkpt lat="47.66608" lon="-3.37384">
        <ele>-0.34</ele>
        <time>2015-10-10T13:57:49Z</time>
      </trkpt>
      <trkpt lat="47.66606" lon="-3.37384">
        <ele>0.14</ele>
        <time>2015-10-10T13:57:50Z</time>
      </trkpt>
      <trkpt lat="47.66603" lon="-3.37385">
        <ele>0.14</ele>
        <time>2015-10-10T13:57:51Z</time>
      </trkpt>
      <trkpt lat="47.666" lon="-3.37385">
        <ele>0.14</ele>
        <time>2015-10-10T13:57:52Z</time>
      </trkpt>
      <trkpt lat="47.66597" lon="-3.37385">
        <ele>0.14</ele>
        <time>2015-10-10T13:57:53Z</time>
      </trkpt>
      <trkpt lat="47.66595" lon="-3.37385">
        <ele>0.14</ele>
        <time>2015-10-10T13:57:54Z</time>
      </trkpt>
      <trkpt lat="47.66592" lon="-3.37385">
        <ele>0.14</ele>
        <time>2015-10-10T13:57:55Z</time>
      </trkpt>
      <trkpt lat="47.66589" lon="-3.37385">
        <ele>0.14</ele>
        <time>2015-10-10T13:57:56Z</time>
      </trkpt>
      <trkpt lat="47.66586" lon="-3.37386">
        <ele>-1.3</ele>
        <time>2015-10-10T13:57:57Z</time>
      </trkpt>
      <trkpt lat="47.66583" lon="-3.37386">
        <ele>-1.3</ele>
        <time>2015-10-10T13:57:58Z</time>
      </trkpt>
      <trkpt lat="47.6658" lon="-3.37386">
        <ele>-1.3</ele>
        <time>2015-10-10T13:57:59Z</time>
      </trkpt>
      <trkpt lat="47.66577" lon="-3.37387">
        <ele>-1.3</ele>
        <time>2015-10-10T13:58:00Z</time>
      </trkpt>
      <trkpt lat="47.66575" lon="-3.37387">
        <ele>-1.3</ele>
        <time>2015-10-10T13:58:01Z</time>
      </trkpt>
      <trkpt lat="47.66572" lon="-3.37388">
        <ele>-1.3</ele>
        <time>2015-10-10T13:58:02Z</time>
      </trkpt>
      <trkpt lat="47.66569" lon="-3.37389">
        <ele>-1.3</ele>
        <time>2015-10-10T13:58:03Z</time>
      </trkpt>
      <trkpt lat="47.66566" lon="-3.37389">
        <ele>-1.3</ele>
        <time>2015-10-10T13:58:04Z</time>
      </trkpt>
      <trkpt lat="47.66564" lon="-3.3739">
        <ele>-1.3</ele>
        <time>2015-10-10T13:58:05Z</time>
      </trkpt>
      <trkpt lat="47.66561" lon="-3.3739">
        <ele>-1.3</ele>
        <time>2015-10-10T13:58:06Z</time>
      </trkpt>
      <trkpt lat="47.66558" lon="-3.37391">
        <ele>-1.3</ele>
        <time>2015-10-10T13:58:07Z</time>
      </trkpt>
      <trkpt lat="47.66556" lon="-3.37392">
        <ele>-1.3</ele>
        <time>2015-10-10T13:58:08Z</time>
      </trkpt>
      <trkpt lat="47.66553" lon="-3.37393">
        <ele>-1.3</ele>
        <time>2015-10-10T13:58:09Z</time>
      </trkpt>
      <trkpt lat="47.66551" lon="-3.37393">
        <ele>-1.3</ele>
        <time>2015-10-10T13:58:10Z</time>
      </trkpt>
      <trkpt lat="47.66548" lon="-3.37394">
        <ele>-1.3</ele>
        <time>2015-10-10T13:58:11Z</time>
      </trkpt>
      <trkpt lat="47.66546" lon="-3.37395">
        <ele>-1.3</ele>
        <time>2015-10-10T13:58:12Z</time>
      </trkpt>
      <trkpt lat="47.66543" lon="-3.37396">
        <ele>-1.3</ele>
        <time>2015-10-10T13:58:13Z</time>
      </trkpt>
      <trkpt lat="47.6654" lon="-3.37397">
        <ele>-1.3</ele>
        <time>2015-10-10T13:58:14Z</time>
      </trkpt>
      <trkpt lat="47.66537" lon="-3.37397">
        <ele>-1.3</ele>
        <time>2015-10-10T13:58:15Z</time>
      </trkpt>
      <trkpt lat="47.66535" lon="-3.37397">
        <ele>-1.3</ele>
        <time>2015-10-10T13:58:16Z</time>
      </trkpt>
      <trkpt lat="47.66532" lon="-3.37397">
        <ele>-1.3</ele>
        <time>2015-10-10T13:58:17Z</time>
      </trkpt>
      <trkpt lat="47.66529" lon="-3.37398">
        <ele>-1.3</ele>
        <time>2015-10-10T13:58:18Z</time>
      </trkpt>
      <trkpt lat="47.66526" lon="-3.37398">
        <ele>-1.3</ele>
        <time>2015-10-10T13:58:19Z</time>
      </trkpt>
      <trkpt lat="47.66524" lon="-3.37399">
        <ele>-1.3</ele>
        <time>2015-10-10T13:58:20Z</time>
      </trkpt>
      <trkpt lat="47.66521" lon="-3.37399">
        <ele>-1.3</ele>
        <time>2015-10-10T13:58:21Z</time>
      </trkpt>
      <trkpt lat="47.66518" lon="-3.37399">
        <ele>-1.3</ele>
        <time>2015-10-10T13:58:22Z</time>
      </trkpt>
      <trkpt lat="47.66516" lon="-3.374">
        <ele>-1.3</ele>
        <time>2015-10-10T13:58:23Z</time>
      </trkpt>
      <trkpt lat="47.66513" lon="-3.374">
        <ele>-1.3</ele>
        <time>2015-10-10T13:58:24Z</time>
      </trkpt>
      <trkpt lat="47.6651" lon="-3.37401">
        <ele>-1.3</ele>
        <time>2015-10-10T13:58:25Z</time>
      </trkpt>
      <trkpt lat="47.66508" lon="-3.37401">
        <ele>-1.3</ele>
        <time>2015-10-10T13:58:26Z</time>
      </trkpt>
      <trkpt lat="47.66505" lon="-3.37402">
        <ele>-1.3</ele>
        <time>2015-10-10T13:58:27Z</time>
      </trkpt>
      <trkpt lat="47.66502" lon="-3.37402">
        <ele>-1.3</ele>
        <time>2015-10-10T13:58:28Z</time>
      </trkpt>
      <trkpt lat="47.66499" lon="-3.37403">
        <ele>-1.3</ele>
        <time>2015-10-10T13:58:29Z</time>
      </trkpt>
      <trkpt lat="47.66496" lon="-3.37405">
        <ele>-1.3</ele>
        <time>2015-10-10T13:58:30Z</time>
      </trkpt>
      <trkpt lat="47.66494" lon="-3.37405">
        <ele>-1.3</ele>
        <time>2015-10-10T13:58:31Z</time>
      </trkpt>
      <trkpt lat="47.66491" lon="-3.37406">
        <ele>-1.3</ele>
        <time>2015-10-10T13:58:32Z</time>
      </trkpt>
      <trkpt lat="47.66488" lon="-3.37407">
        <ele>-1.3</ele>
        <time>2015-10-10T13:58:33Z</time>
      </trkpt>
      <trkpt lat="47.66486" lon="-3.37407">
        <ele>-1.3</ele>
        <time>2015-10-10T13:58:34Z</time>
      </trkpt>
      <trkpt lat="47.66483" lon="-3.37408">
        <ele>-1.3</ele>
        <time>2015-10-10T13:58:35Z</time>
      </trkpt>
      <trkpt lat="47.6648" lon="-3.37408">
        <ele>-1.3</ele>
        <time>2015-10-10T13:58:36Z</time>
      </trkpt>
      <trkpt lat="47.66478" lon="-3.37409">
        <ele>-1.3</ele>
        <time>2015-10-10T13:58:37Z</time>
      </trkpt>
      <trkpt lat="47.66475" lon="-3.37409">
        <ele>-1.3</ele>
        <time>2015-10-10T13:58:38Z</time>
      </trkpt>
      <trkpt lat="47.66472" lon="-3.3741">
        <ele>-1.3</ele>
        <time>2015-10-10T13:58:39Z</time>
      </trkpt>
      <trkpt lat="47.66469" lon="-3.3741">
        <ele>-1.3</ele>
        <time>2015-10-10T13:58:40Z</time>
      </trkpt>
      <trkpt lat="47.66466" lon="-3.3741">
        <ele>-1.3</ele>
        <time>2015-10-10T13:58:41Z</time>
      </trkpt>
      <trkpt lat="47.66463" lon="-3.3741">
        <ele>-1.3</ele>
        <time>2015-10-10T13:58:42Z</time>
      </trkpt>
      <trkpt lat="47.6646" lon="-3.3741">
        <ele>-1.3</ele>
        <time>2015-10-10T13:58:43Z</time>
      </trkpt>
      <trkpt lat="47.66457" lon="-3.3741">
        <ele>-1.3</ele>
        <time>2015-10-10T13:58:44Z</time>
      </trkpt>
      <trkpt lat="47.66455" lon="-3.37412">
        <ele>-1.3</ele>
        <time>2015-10-10T13:58:45Z</time>
      </trkpt>
      <trkpt lat="47.66452" lon="-3.37413">
        <ele>-1.3</ele>
        <time>2015-10-10T13:58:46Z</time>
      </trkpt>
      <trkpt lat="47.6645" lon="-3.37415">
        <ele>-1.3</ele>
        <time>2015-10-10T13:58:47Z</time>
      </trkpt>
      <trkpt lat="47.66447" lon="-3.37416">
        <ele>-1.3</ele>
        <time>2015-10-10T13:58:48Z</time>
      </trkpt>
      <trkpt lat="47.66444" lon="-3.37417">
        <ele>-1.3</ele>
        <time>2015-10-10T13:58:49Z</time>
      </trkpt>
      <trkpt lat="47.66442" lon="-3.37418">
        <ele>-1.3</ele>
        <time>2015-10-10T13:58:50Z</time>
      </trkpt>
      <trkpt lat="47.66439" lon="-3.37419">
        <ele>-1.3</ele>
        <time>2015-10-10T13:58:51Z</time>
      </trkpt>
      <trkpt lat="47.66436" lon="-3.37419">
        <ele>-1.3</ele>
        <time>2015-10-10T13:58:52Z</time>
      </trkpt>
      <trkpt lat="47.66433" lon="-3.3742">
        <ele>-1.3</ele>
        <time>2015-10-10T13:58:53Z</time>
      </trkpt>
      <trkpt lat="47.6643" lon="-3.37421">
        <ele>-1.3</ele>
        <time>2015-10-10T13:58:54Z</time>
      </trkpt>
      <trkpt lat="47.66428" lon="-3.37421">
        <ele>-1.3</ele>
        <time>2015-10-10T13:58:55Z</time>
      </trkpt>
      <trkpt lat="47.66425" lon="-3.37422">
        <ele>-1.3</ele>
        <time>2015-10-10T13:58:56Z</time>
      </trkpt>
      <trkpt lat="47.66422" lon="-3.37422">
        <ele>-1.3</ele>
        <time>2015-10-10T13:58:57Z</time>
      </trkpt>
      <trkpt lat="47.66419" lon="-3.37423">
        <ele>-1.3</ele>
        <time>2015-10-10T13:58:58Z</time>
      </trkpt>
      <trkpt lat="47.66416" lon="-3.37423">
        <ele>-1.3</ele>
        <time>2015-10-10T13:58:59Z</time>
      </trkpt>
      <trkpt lat="47.66413" lon="-3.37423">
        <ele>-1.3</ele>
        <time>2015-10-10T13:59:00Z</time>
      </trkpt>
      <trkpt lat="47.6641" lon="-3.37424">
        <ele>-1.3</ele>
        <time>2015-10-10T13:59:01Z</time>
      </trkpt>
      <trkpt lat="47.66407" lon="-3.37424">
        <ele>-1.3</ele>
        <time>2015-10-10T13:59:02Z</time>
      </trkpt>
      <trkpt lat="47.66405" lon="-3.37424">
        <ele>-1.3</ele>
        <time>2015-10-10T13:59:03Z</time>
      </trkpt>
      <trkpt lat="47.66402" lon="-3.37425">
        <ele>-1.3</ele>
        <time>2015-10-10T13:59:04Z</time>
      </trkpt>
      <trkpt lat="47.66399" lon="-3.37426">
        <ele>-1.3</ele>
        <time>2015-10-10T13:59:05Z</time>
      </trkpt>
      <trkpt lat="47.66396" lon="-3.37427">
        <ele>-1.3</ele>
        <time>2015-10-10T13:59:06Z</time>
      </trkpt>
      <trkpt lat="47.66393" lon="-3.37428">
        <ele>-1.3</ele>
        <time>2015-10-10T13:59:07Z</time>
      </trkpt>
      <trkpt lat="47.66391" lon="-3.37428">
        <ele>-1.3</ele>
        <time>2015-10-10T13:59:08Z</time>
      </trkpt>
      <trkpt lat="47.66388" lon="-3.37429">
        <ele>-1.3</ele>
        <time>2015-10-10T13:59:09Z</time>
      </trkpt>
      <trkpt lat="47.66385" lon="-3.3743">
        <ele>-1.3</ele>
        <time>2015-10-10T13:59:10Z</time>
      </trkpt>
      <trkpt lat="47.66382" lon="-3.37431">
        <ele>-1.3</ele>
        <time>2015-10-10T13:59:11Z</time>
      </trkpt>
      <trkpt lat="47.6638" lon="-3.37431">
        <ele>-1.3</ele>
        <time>2015-10-10T13:59:12Z</time>
      </trkpt>
      <trkpt lat="47.66377" lon="-3.37432">
        <ele>-1.3</ele>
        <time>2015-10-10T13:59:13Z</time>
      </trkpt>
      <trkpt lat="47.66375" lon="-3.37432">
        <ele>-1.3</ele>
        <time>2015-10-10T13:59:14Z</time>
      </trkpt>
      <trkpt lat="47.66372" lon="-3.37433">
        <ele>-1.3</ele>
        <time>2015-10-10T13:59:15Z</time>
      </trkpt>
      <trkpt lat="47.66369" lon="-3.37434">
        <ele>-1.3</ele>
        <time>2015-10-10T13:59:16Z</time>
      </trkpt>
      <trkpt lat="47.66366" lon="-3.37435">
        <ele>-1.3</ele>
        <time>2015-10-10T13:59:17Z</time>
      </trkpt>
      <trkpt lat="47.66363" lon="-3.37436">
        <ele>-1.3</ele>
        <time>2015-10-10T13:59:18Z</time>
      </trkpt>
      <trkpt lat="47.66361" lon="-3.37437">
        <ele>-1.3</ele>
        <time>2015-10-10T13:59:19Z</time>
      </trkpt>
      <trkpt lat="47.66358" lon="-3.37438">
        <ele>-1.3</ele>
        <time>2015-10-10T13:59:20Z</time>
      </trkpt>
      <trkpt lat="47.66355" lon="-3.37439">
        <ele>-1.3</ele>
        <time>2015-10-10T13:59:21Z</time>
      </trkpt>
      <trkpt lat="47.66352" lon="-3.37439">
        <ele>-1.3</ele>
        <time>2015-10-10T13:59:22Z</time>
      </trkpt>
      <trkpt lat="47.66349" lon="-3.3744">
        <ele>-1.3</ele>
        <time>2015-10-10T13:59:23Z</time>
      </trkpt>
      <trkpt lat="47.66346" lon="-3.3744">
        <ele>-1.3</ele>
        <time>2015-10-10T13:59:24Z</time>
      </trkpt>
      <trkpt lat="47.66343" lon="-3.37441">
        <ele>-1.3</ele>
        <time>2015-10-10T13:59:25Z</time>
      </trkpt>
      <trkpt lat="47.6634" lon="-3.37441">
        <ele>0.62</ele>
        <time>2015-10-10T13:59:26Z</time>
      </trkpt>
      <trkpt lat="47.66337" lon="-3.37441">
        <ele>0.62</ele>
        <time>2015-10-10T13:59:27Z</time>
      </trkpt>
      <trkpt lat="47.66334" lon="-3.37442">
        <ele>0.62</ele>
        <time>2015-10-10T13:59:28Z</time>
      </trkpt>
      <trkpt lat="47.66331" lon="-3.37442">
        <ele>0.62</ele>
        <time>2015-10-10T13:59:29Z</time>
      </trkpt>
      <trkpt lat="47.66329" lon="-3.37443">
        <ele>0.62</ele>
        <time>2015-10-10T13:59:30Z</time>
      </trkpt>
      <trkpt lat="47.66326" lon="-3.37443">
        <ele>0.62</ele>
        <time>2015-10-10T13:59:31Z</time>
      </trkpt>
      <trkpt lat="47.66323" lon="-3.37442">
        <ele>-0.82</ele>
        <time>2015-10-10T13:59:32Z</time>
      </trkpt>
      <trkpt lat="47.6632" lon="-3.37442">
        <ele>-0.82</ele>
        <time>2015-10-10T13:59:33Z</time>
      </trkpt>
      <trkpt lat="47.66317" lon="-3.37442">
        <ele>-0.82</ele>
        <time>2015-10-10T13:59:34Z</time>
      </trkpt>
      <trkpt lat="47.66314" lon="-3.37442">
        <ele>-0.82</ele>
        <time>2015-10-10T13:59:35Z</time>
      </trkpt>
      <trkpt lat="47.66311" lon="-3.37442">
        <ele>-0.82</ele>
        <time>2015-10-10T13:59:36Z</time>
      </trkpt>
      <trkpt lat="47.66308" lon="-3.37442">
        <ele>-0.82</ele>
        <time>2015-10-10T13:59:37Z</time>
      </trkpt>
      <trkpt lat="47.66306" lon="-3.37443">
        <ele>-0.82</ele>
        <time>2015-10-10T13:59:38Z</time>
      </trkpt>
      <trkpt lat="47.66302" lon="-3.37443">
        <ele>-0.82</ele>
        <time>2015-10-10T13:59:39Z</time>
      </trkpt>
      <trkpt lat="47.66299" lon="-3.37443">
        <ele>-0.82</ele>
        <time>2015-10-10T13:59:40Z</time>
      </trkpt>
      <trkpt lat="47.66296" lon="-3.37443">
        <ele>-0.82</ele>
        <time>2015-10-10T13:59:41Z</time>
      </trkpt>
      <trkpt lat="47.66293" lon="-3.37443">
        <ele>-0.82</ele>
        <time>2015-10-10T13:59:42Z</time>
      </trkpt>
      <trkpt lat="47.6629" lon="-3.37442">
        <ele>0.14</ele>
        <time>2015-10-10T13:59:43Z</time>
      </trkpt>
      <trkpt lat="47.66287" lon="-3.37441">
        <ele>0.14</ele>
        <time>2015-10-10T13:59:44Z</time>
      </trkpt>
      <trkpt lat="47.66285" lon="-3.3744">
        <ele>0.14</ele>
        <time>2015-10-10T13:59:45Z</time>
      </trkpt>
      <trkpt lat="47.66281" lon="-3.3744">
        <ele>0.14</ele>
        <time>2015-10-10T13:59:46Z</time>
      </trkpt>
      <trkpt lat="47.66278" lon="-3.37439">
        <ele>0.14</ele>
        <time>2015-10-10T13:59:47Z</time>
      </trkpt>
      <trkpt lat="47.66276" lon="-3.37439">
        <ele>0.14</ele>
        <time>2015-10-10T13:59:48Z</time>
      </trkpt>
      <trkpt lat="47.66273" lon="-3.37439">
        <ele>0.14</ele>
        <time>2015-10-10T13:59:49Z</time>
      </trkpt>
      <trkpt lat="47.6627" lon="-3.37439">
        <ele>-0.82</ele>
        <time>2015-10-10T13:59:50Z</time>
      </trkpt>
      <trkpt lat="47.66267" lon="-3.3744">
        <ele>-0.82</ele>
        <time>2015-10-10T13:59:51Z</time>
      </trkpt>
      <trkpt lat="47.66265" lon="-3.3744">
        <ele>-0.82</ele>
        <time>2015-10-10T13:59:52Z</time>
      </trkpt>
      <trkpt lat="47.66262" lon="-3.3744">
        <ele>-0.82</ele>
        <time>2015-10-10T13:59:53Z</time>
      </trkpt>
      <trkpt lat="47.66259" lon="-3.37441">
        <ele>-0.82</ele>
        <time>2015-10-10T13:59:54Z</time>
      </trkpt>
      <trkpt lat="47.66256" lon="-3.37441">
        <ele>-0.82</ele>
        <time>2015-10-10T13:59:55Z</time>
      </trkpt>
      <trkpt lat="47.66252" lon="-3.37441">
        <ele>-0.82</ele>
        <time>2015-10-10T13:59:56Z</time>
      </trkpt>
      <trkpt lat="47.6625" lon="-3.37441">
        <ele>-0.82</ele>
        <time>2015-10-10T13:59:57Z</time>
      </trkpt>
      <trkpt lat="47.66247" lon="-3.37441">
        <ele>-0.82</ele>
        <time>2015-10-10T13:59:58Z</time>
      </trkpt>
      <trkpt lat="47.66245" lon="-3.37442">
        <ele>-0.82</ele>
        <time>2015-10-10T13:59:59Z</time>
      </trkpt>
      <trkpt lat="47.66242" lon="-3.37443">
        <ele>-0.82</ele>
        <time>2015-10-10T14:00:00Z</time>
      </trkpt>
      <trkpt lat="47.66239" lon="-3.37444">
        <ele>-0.82</ele>
        <time>2015-10-10T14:00:01Z</time>
      </trkpt>
      <trkpt lat="47.66237" lon="-3.37445">
        <ele>-0.82</ele>
        <time>2015-10-10T14:00:02Z</time>
      </trkpt>
      <trkpt lat="47.66234" lon="-3.37447">
        <ele>-0.82</ele>
        <time>2015-10-10T14:00:03Z</time>
      </trkpt>
      <trkpt lat="47.66232" lon="-3.37447">
        <ele>-0.82</ele>
        <time>2015-10-10T14:00:04Z</time>
      </trkpt>
      <trkpt lat="47.66229" lon="-3.37448">
        <ele>-0.82</ele>
        <time>2015-10-10T14:00:05Z</time>
      </trkpt>
      <trkpt lat="47.66226" lon="-3.37449">
        <ele>-0.82</ele>
        <time>2015-10-10T14:00:06Z</time>
      </trkpt>
      <trkpt lat="47.66224" lon="-3.37449">
        <ele>-0.82</ele>
        <time>2015-10-10T14:00:07Z</time>
      </trkpt>
      <trkpt lat="47.66221" lon="-3.3745">
        <ele>-0.82</ele>
        <time>2015-10-10T14:00:08Z</time>
      </trkpt>
      <trkpt lat="47.66218" lon="-3.37451">
        <ele>-0.82</ele>
        <time>2015-10-10T14:00:09Z</time>
      </trkpt>
      <trkpt lat="47.66215" lon="-3.37451">
        <ele>-0.82</ele>
        <time>2015-10-10T14:00:10Z</time>
      </trkpt>
      <trkpt lat="47.66213" lon="-3.37452">
        <ele>-2.75</ele>
        <time>2015-10-10T14:00:11Z</time>
      </trkpt>
      <trkpt lat="47.6621" lon="-3.37452">
        <ele>0.14</ele>
        <time>2015-10-10T14:00:12Z</time>
      </trkpt>
      <trkpt lat="47.66207" lon="-3.37454">
        <ele>-1.3</ele>
        <time>2015-10-10T14:00:13Z</time>
      </trkpt>
      <trkpt lat="47.66205" lon="-3.37455">
        <ele>0.14</ele>
        <time>2015-10-10T14:00:14Z</time>
      </trkpt>
      <trkpt lat="47.66203" lon="-3.37457">
        <ele>-2.27</ele>
        <time>2015-10-10T14:00:15Z</time>
      </trkpt>
      <trkpt lat="47.662" lon="-3.37458">
        <ele>-0.82</ele>
        <time>2015-10-10T14:00:16Z</time>
      </trkpt>
      <trkpt lat="47.66198" lon="-3.3746">
        <ele>-0.82</ele>
        <time>2015-10-10T14:00:17Z</time>
      </trkpt>
      <trkpt lat="47.66195" lon="-3.37462">
        <ele>-0.82</ele>
        <time>2015-10-10T14:00:18Z</time>
      </trkpt>
      <trkpt lat="47.66192" lon="-3.37463">
        <ele>-0.82</ele>
        <time>2015-10-10T14:00:19Z</time>
      </trkpt>
      <trkpt lat="47.6619" lon="-3.37465">
        <ele>0.14</ele>
        <time>2015-10-10T14:00:20Z</time>
      </trkpt>
      <trkpt lat="47.66187" lon="-3.37465">
        <ele>-0.34</ele>
        <time>2015-10-10T14:00:21Z</time>
      </trkpt>
      <trkpt lat="47.66184" lon="-3.37465">
        <ele>-0.34</ele>
        <time>2015-10-10T14:00:22Z</time>
      </trkpt>
      <trkpt lat="47.66181" lon="-3.37465">
        <ele>-0.34</ele>
        <time>2015-10-10T14:00:23Z</time>
      </trkpt>
      <trkpt lat="47.66179" lon="-3.37465">
        <ele>-0.34</ele>
        <time>2015-10-10T14:00:24Z</time>
      </trkpt>
      <trkpt lat="47.66176" lon="-3.37466">
        <ele>-0.34</ele>
        <time>2015-10-10T14:00:25Z</time>
      </trkpt>
      <trkpt lat="47.66173" lon="-3.37466">
        <ele>-1.3</ele>
        <time>2015-10-10T14:00:26Z</time>
      </trkpt>
      <trkpt lat="47.6617" lon="-3.37467">
        <ele>-1.3</ele>
        <time>2015-10-10T14:00:27Z</time>
      </trkpt>
      <trkpt lat="47.66167" lon="-3.37467">
        <ele>-1.3</ele>
        <time>2015-10-10T14:00:28Z</time>
      </trkpt>
      <trkpt lat="47.66165" lon="-3.37467">
        <ele>-1.3</ele>
        <time>2015-10-10T14:00:29Z</time>
      </trkpt>
      <trkpt lat="47.66162" lon="-3.37468">
        <ele>-1.3</ele>
        <time>2015-10-10T14:00:30Z</time>
      </trkpt>
      <trkpt lat="47.66159" lon="-3.37468">
        <ele>-1.3</ele>
        <time>2015-10-10T14:00:31Z</time>
      </trkpt>
      <trkpt lat="47.66156" lon="-3.37468">
        <ele>-1.3</ele>
        <time>2015-10-10T14:00:32Z</time>
      </trkpt>
      <trkpt lat="47.66153" lon="-3.37468">
        <ele>-1.3</ele>
        <time>2015-10-10T14:00:33Z</time>
      </trkpt>
      <trkpt lat="47.66151" lon="-3.37468">
        <ele>-1.3</ele>
        <time>2015-10-10T14:00:34Z</time>
      </trkpt>
      <trkpt lat="47.66148" lon="-3.37469">
        <ele>-1.3</ele>
        <time>2015-10-10T14:00:35Z</time>
      </trkpt>
      <trkpt lat="47.66145" lon="-3.37469">
        <ele>-0.34</ele>
        <time>2015-10-10T14:00:36Z</time>
      </trkpt>
      <trkpt lat="47.66142" lon="-3.37469">
        <ele>-0.34</ele>
        <time>2015-10-10T14:00:37Z</time>
      </trkpt>
      <trkpt lat="47.6614" lon="-3.37469">
        <ele>-0.34</ele>
        <time>2015-10-10T14:00:38Z</time>
      </trkpt>
      <trkpt lat="47.66137" lon="-3.37469">
        <ele>-0.34</ele>
        <time>2015-10-10T14:00:39Z</time>
      </trkpt>
      <trkpt lat="47.66134" lon="-3.37469">
        <ele>-0.34</ele>
        <time>2015-10-10T14:00:40Z</time>
      </trkpt>
      <trkpt lat="47.66131" lon="-3.37469">
        <ele>-0.34</ele>
        <time>2015-10-10T14:00:41Z</time>
      </trkpt>
      <trkpt lat="47.66128" lon="-3.37469">
        <ele>-0.34</ele>
        <time>2015-10-10T14:00:42Z</time>
      </trkpt>
      <trkpt lat="47.66125" lon="-3.3747">
        <ele>-0.34</ele>
        <time>2015-10-10T14:00:43Z</time>
      </trkpt>
      <trkpt lat="47.66122" lon="-3.3747">
        <ele>-0.34</ele>
        <time>2015-10-10T14:00:44Z</time>
      </trkpt>
      <trkpt lat="47.66119" lon="-3.3747">
        <ele>-0.34</ele>
        <time>2015-10-10T14:00:45Z</time>
      </trkpt>
      <trkpt lat="47.66117" lon="-3.37471">
        <ele>-0.34</ele>
        <time>2015-10-10T14:00:46Z</time>
      </trkpt>
      <trkpt lat="47.66114" lon="-3.37471">
        <ele>-0.34</ele>
        <time>2015-10-10T14:00:47Z</time>
      </trkpt>
      <trkpt lat="47.66111" lon="-3.37471">
        <ele>-0.34</ele>
        <time>2015-10-10T14:00:48Z</time>
      </trkpt>
      <trkpt lat="47.66108" lon="-3.37471">
        <ele>-0.34</ele>
        <time>2015-10-10T14:00:49Z</time>
      </trkpt>
      <trkpt lat="47.66106" lon="-3.37472">
        <ele>-0.34</ele>
        <time>2015-10-10T14:00:50Z</time>
      </trkpt>
      <trkpt lat="47.66103" lon="-3.37473">
        <ele>-0.34</ele>
        <time>2015-10-10T14:00:51Z</time>
      </trkpt>
      <trkpt lat="47.661" lon="-3.37473">
        <ele>-0.34</ele>
        <time>2015-10-10T14:00:52Z</time>
      </trkpt>
      <trkpt lat="47.66097" lon="-3.37473">
        <ele>-0.34</ele>
        <time>2015-10-10T14:00:53Z</time>
      </trkpt>
      <trkpt lat="47.66095" lon="-3.37474">
        <ele>-0.34</ele>
        <time>2015-10-10T14:00:54Z</time>
      </trkpt>
      <trkpt lat="47.66092" lon="-3.37474">
        <ele>-0.34</ele>
        <time>2015-10-10T14:00:55Z</time>
      </trkpt>
      <trkpt lat="47.66089" lon="-3.37473">
        <ele>-0.34</ele>
        <time>2015-10-10T14:00:56Z</time>
      </trkpt>
      <trkpt lat="47.66086" lon="-3.37473">
        <ele>-0.34</ele>
        <time>2015-10-10T14:00:57Z</time>
      </trkpt>
      <trkpt lat="47.66083" lon="-3.37473">
        <ele>-0.34</ele>
        <time>2015-10-10T14:00:58Z</time>
      </trkpt>
      <trkpt lat="47.6608" lon="-3.37473">
        <ele>-0.34</ele>
        <time>2015-10-10T14:00:59Z</time>
      </trkpt>
      <trkpt lat="47.66077" lon="-3.37473">
        <ele>-0.34</ele>
        <time>2015-10-10T14:01:00Z</time>
      </trkpt>
      <trkpt lat="47.66074" lon="-3.37473">
        <ele>-0.34</ele>
        <time>2015-10-10T14:01:01Z</time>
      </trkpt>
      <trkpt lat="47.66072" lon="-3.37473">
        <ele>-0.34</ele>
        <time>2015-10-10T14:01:02Z</time>
      </trkpt>
      <trkpt lat="47.66069" lon="-3.37473">
        <ele>-0.34</ele>
        <time>2015-10-10T14:01:03Z</time>
      </trkpt>
      <trkpt lat="47.66066" lon="-3.37473">
        <ele>-0.34</ele>
        <time>2015-10-10T14:01:04Z</time>
      </trkpt>
      <trkpt lat="47.66063" lon="-3.37473">
        <ele>-0.34</ele>
        <time>2015-10-10T14:01:05Z</time>
      </trkpt>
      <trkpt lat="47.66061" lon="-3.37473">
        <ele>-1.3</ele>
        <time>2015-10-10T14:01:06Z</time>
      </trkpt>
      <trkpt lat="47.66058" lon="-3.37473">
        <ele>-1.3</ele>
        <time>2015-10-10T14:01:07Z</time>
      </trkpt>
      <trkpt lat="47.66055" lon="-3.37473">
        <ele>-1.3</ele>
        <time>2015-10-10T14:01:08Z</time>
      </trkpt>
      <trkpt lat="47.66052" lon="-3.37473">
        <ele>-1.3</ele>
        <time>2015-10-10T14:01:09Z</time>
      </trkpt>
      <trkpt lat="47.66049" lon="-3.37474">
        <ele>-1.3</ele>
        <time>2015-10-10T14:01:10Z</time>
      </trkpt>
      <trkpt lat="47.66046" lon="-3.37475">
        <ele>-1.3</ele>
        <time>2015-10-10T14:01:11Z</time>
      </trkpt>
      <trkpt lat="47.66043" lon="-3.37475">
        <ele>-1.3</ele>
        <time>2015-10-10T14:01:12Z</time>
      </trkpt>
      <trkpt lat="47.6604" lon="-3.37475">
        <ele>-1.3</ele>
        <time>2015-10-10T14:01:13Z</time>
      </trkpt>
      <trkpt lat="47.66037" lon="-3.37476">
        <ele>-1.3</ele>
        <time>2015-10-10T14:01:14Z</time>
      </trkpt>
      <trkpt lat="47.66034" lon="-3.37476">
        <ele>-1.3</ele>
        <time>2015-10-10T14:01:15Z</time>
      </trkpt>
      <trkpt lat="47.66032" lon="-3.37476">
        <ele>-1.3</ele>
        <time>2015-10-10T14:01:16Z</time>
      </trkpt>
      <trkpt lat="47.66029" lon="-3.37477">
        <ele>-1.3</ele>
        <time>2015-10-10T14:01:17Z</time>
      </trkpt>
      <trkpt lat="47.66026" lon="-3.37477">
        <ele>-1.3</ele>
        <time>2015-10-10T14:01:18Z</time>
      </trkpt>
      <trkpt lat="47.66023" lon="-3.37477">
        <ele>-1.3</ele>
        <time>2015-10-10T14:01:19Z</time>
      </trkpt>
      <trkpt lat="47.6602" lon="-3.37477">
        <ele>-1.3</ele>
        <time>2015-10-10T14:01:20Z</time>
      </trkpt>
      <trkpt lat="47.66017" lon="-3.37477">
        <ele>-1.3</ele>
        <time>2015-10-10T14:01:21Z</time>
      </trkpt>
      <trkpt lat="47.66015" lon="-3.37478">
        <ele>-1.3</ele>
        <time>2015-10-10T14:01:22Z</time>
      </trkpt>
      <trkpt lat="47.66012" lon="-3.37478">
        <ele>-1.3</ele>
        <time>2015-10-10T14:01:23Z</time>
      </trkpt>
      <trkpt lat="47.66009" lon="-3.37479">
        <ele>-1.3</ele>
        <time>2015-10-10T14:01:24Z</time>
      </trkpt>
      <trkpt lat="47.66007" lon="-3.3748">
        <ele>-1.3</ele>
        <time>2015-10-10T14:01:25Z</time>
      </trkpt>
      <trkpt lat="47.66004" lon="-3.3748">
        <ele>-1.3</ele>
        <time>2015-10-10T14:01:26Z</time>
      </trkpt>
      <trkpt lat="47.66001" lon="-3.3748">
        <ele>-1.3</ele>
        <time>2015-10-10T14:01:27Z</time>
      </trkpt>
      <trkpt lat="47.65998" lon="-3.3748">
        <ele>-1.3</ele>
        <time>2015-10-10T14:01:28Z</time>
      </trkpt>
      <trkpt lat="47.65995" lon="-3.37481">
        <ele>-1.3</ele>
        <time>2015-10-10T14:01:29Z</time>
      </trkpt>
      <trkpt lat="47.65993" lon="-3.37482">
        <ele>-1.3</ele>
        <time>2015-10-10T14:01:30Z</time>
      </trkpt>
      <trkpt lat="47.6599" lon="-3.37482">
        <ele>-1.3</ele>
        <time>2015-10-10T14:01:31Z</time>
      </trkpt>
      <trkpt lat="47.65987" lon="-3.37483">
        <ele>-1.3</ele>
        <time>2015-10-10T14:01:32Z</time>
      </trkpt>
      <trkpt lat="47.65984" lon="-3.37483">
        <ele>-1.3</ele>
        <time>2015-10-10T14:01:33Z</time>
      </trkpt>
      <trkpt lat="47.65981" lon="-3.37484">
        <ele>-1.3</ele>
        <time>2015-10-10T14:01:34Z</time>
      </trkpt>
      <trkpt lat="47.65979" lon="-3.37485">
        <ele>-1.3</ele>
        <time>2015-10-10T14:01:35Z</time>
      </trkpt>
      <trkpt lat="47.65976" lon="-3.37486">
        <ele>-0.34</ele>
        <time>2015-10-10T14:01:36Z</time>
      </trkpt>
      <trkpt lat="47.65974" lon="-3.37487">
        <ele>-0.34</ele>
        <time>2015-10-10T14:01:37Z</time>
      </trkpt>
      <trkpt lat="47.65972" lon="-3.37488">
        <ele>-0.34</ele>
        <time>2015-10-10T14:01:38Z</time>
      </trkpt>
      <trkpt lat="47.65969" lon="-3.3749">
        <ele>-0.34</ele>
        <time>2015-10-10T14:01:39Z</time>
      </trkpt>
      <trkpt lat="47.65966" lon="-3.3749">
        <ele>-0.34</ele>
        <time>2015-10-10T14:01:40Z</time>
      </trkpt>
      <trkpt lat="47.65963" lon="-3.37491">
        <ele>-0.34</ele>
        <time>2015-10-10T14:01:41Z</time>
      </trkpt>
      <trkpt lat="47.6596" lon="-3.37491">
        <ele>-0.34</ele>
        <time>2015-10-10T14:01:42Z</time>
      </trkpt>
      <trkpt lat="47.65958" lon="-3.37491">
        <ele>-0.34</ele>
        <time>2015-10-10T14:01:43Z</time>
      </trkpt>
      <trkpt lat="47.65955" lon="-3.37491">
        <ele>-0.34</ele>
        <time>2015-10-10T14:01:44Z</time>
      </trkpt>
      <trkpt lat="47.65952" lon="-3.37492">
        <ele>-0.34</ele>
        <time>2015-10-10T14:01:45Z</time>
      </trkpt>
      <trkpt lat="47.65949" lon="-3.37493">
        <ele>-1.3</ele>
        <time>2015-10-10T14:01:46Z</time>
      </trkpt>
      <trkpt lat="47.65947" lon="-3.37494">
        <ele>-1.3</ele>
        <time>2015-10-10T14:01:47Z</time>
      </trkpt>
      <trkpt lat="47.65944" lon="-3.37495">
        <ele>-1.3</ele>
        <time>2015-10-10T14:01:48Z</time>
      </trkpt>
      <trkpt lat="47.65942" lon="-3.37496">
        <ele>-1.3</ele>
        <time>2015-10-10T14:01:49Z</time>
      </trkpt>
      <trkpt lat="47.65939" lon="-3.37498">
        <ele>-0.34</ele>
        <time>2015-10-10T14:01:50Z</time>
      </trkpt>
      <trkpt lat="47.65936" lon="-3.37498">
        <ele>-0.34</ele>
        <time>2015-10-10T14:01:51Z</time>
      </trkpt>
      <trkpt lat="47.65933" lon="-3.37498">
        <ele>-0.34</ele>
        <time>2015-10-10T14:01:52Z</time>
      </trkpt>
      <trkpt lat="47.65931" lon="-3.37499">
        <ele>-0.34</ele>
        <time>2015-10-10T14:01:53Z</time>
      </trkpt>
      <trkpt lat="47.65928" lon="-3.37499">
        <ele>-0.34</ele>
        <time>2015-10-10T14:01:54Z</time>
      </trkpt>
      <trkpt lat="47.65925" lon="-3.375">
        <ele>-0.34</ele>
        <time>2015-10-10T14:01:55Z</time>
      </trkpt>
      <trkpt lat="47.65922" lon="-3.375">
        <ele>-0.34</ele>
        <time>2015-10-10T14:01:56Z</time>
      </trkpt>
      <trkpt lat="47.65919" lon="-3.375">
        <ele>-0.34</ele>
        <time>2015-10-10T14:01:57Z</time>
      </trkpt>
      <trkpt lat="47.65917" lon="-3.375">
        <ele>-0.34</ele>
        <time>2015-10-10T14:01:58Z</time>
      </trkpt>
      <trkpt lat="47.65914" lon="-3.375">
        <ele>-0.34</ele>
        <time>2015-10-10T14:01:59Z</time>
      </trkpt>
      <trkpt lat="47.65911" lon="-3.375">
        <ele>-0.34</ele>
        <time>2015-10-10T14:02:00Z</time>
      </trkpt>
      <trkpt lat="47.65909" lon="-3.37501">
        <ele>-1.79</ele>
        <time>2015-10-10T14:02:01Z</time>
      </trkpt>
      <trkpt lat="47.65906" lon="-3.37502">
        <ele>-1.79</ele>
        <time>2015-10-10T14:02:02Z</time>
      </trkpt>
      <trkpt lat="47.65903" lon="-3.37503">
        <ele>-1.79</ele>
        <time>2015-10-10T14:02:03Z</time>
      </trkpt>
      <trkpt lat="47.659" lon="-3.37504">
        <ele>-1.3</ele>
        <time>2015-10-10T14:02:04Z</time>
      </trkpt>
      <trkpt lat="47.65898" lon="-3.37504">
        <ele>-1.3</ele>
        <time>2015-10-10T14:02:05Z</time>
      </trkpt>
      <trkpt lat="47.65895" lon="-3.37505">
        <ele>-1.3</ele>
        <time>2015-10-10T14:02:06Z</time>
      </trkpt>
      <trkpt lat="47.65892" lon="-3.37506">
        <ele>-1.3</ele>
        <time>2015-10-10T14:02:07Z</time>
      </trkpt>
      <trkpt lat="47.6589" lon="-3.37507">
        <ele>-1.3</ele>
        <time>2015-10-10T14:02:08Z</time>
      </trkpt>
      <trkpt lat="47.65887" lon="-3.37508">
        <ele>-0.34</ele>
        <time>2015-10-10T14:02:09Z</time>
      </trkpt>
      <trkpt lat="47.65885" lon="-3.37508">
        <ele>-0.34</ele>
        <time>2015-10-10T14:02:10Z</time>
      </trkpt>
      <trkpt lat="47.65882" lon="-3.37509">
        <ele>-0.34</ele>
        <time>2015-10-10T14:02:11Z</time>
      </trkpt>
      <trkpt lat="47.6588" lon="-3.3751">
        <ele>-1.79</ele>
        <time>2015-10-10T14:02:12Z</time>
      </trkpt>
      <trkpt lat="47.65878" lon="-3.37511">
        <ele>-1.79</ele>
        <time>2015-10-10T14:02:13Z</time>
      </trkpt>
      <trkpt lat="47.65875" lon="-3.37512">
        <ele>-1.79</ele>
        <time>2015-10-10T14:02:14Z</time>
      </trkpt>
      <trkpt lat="47.65872" lon="-3.37513">
        <ele>-1.79</ele>
        <time>2015-10-10T14:02:15Z</time>
      </trkpt>
      <trkpt lat="47.6587" lon="-3.37513">
        <ele>-1.79</ele>
        <time>2015-10-10T14:02:16Z</time>
      </trkpt>
      <trkpt lat="47.65867" lon="-3.37513">
        <ele>-1.79</ele>
        <time>2015-10-10T14:02:17Z</time>
      </trkpt>
      <trkpt lat="47.65864" lon="-3.37513">
        <ele>-1.79</ele>
        <time>2015-10-10T14:02:18Z</time>
      </trkpt>
      <trkpt lat="47.65862" lon="-3.37513">
        <ele>-1.79</ele>
        <time>2015-10-10T14:02:19Z</time>
      </trkpt>
      <trkpt lat="47.65859" lon="-3.37513">
        <ele>-1.79</ele>
        <time>2015-10-10T14:02:20Z</time>
      </trkpt>
      <trkpt lat="47.65857" lon="-3.37514">
        <ele>-1.79</ele>
        <time>2015-10-10T14:02:21Z</time>
      </trkpt>
      <trkpt lat="47.65854" lon="-3.37515">
        <ele>-1.79</ele>
        <time>2015-10-10T14:02:22Z</time>
      </trkpt>
      <trkpt lat="47.65851" lon="-3.37516">
        <ele>-1.79</ele>
        <time>2015-10-10T14:02:23Z</time>
      </trkpt>
      <trkpt lat="47.65849" lon="-3.37516">
        <ele>-1.79</ele>
        <time>2015-10-10T14:02:24Z</time>
      </trkpt>
      <trkpt lat="47.65846" lon="-3.37517">
        <ele>-1.79</ele>
        <time>2015-10-10T14:02:25Z</time>
      </trkpt>
      <trkpt lat="47.65843" lon="-3.37517">
        <ele>-1.79</ele>
        <time>2015-10-10T14:02:26Z</time>
      </trkpt>
      <trkpt lat="47.65841" lon="-3.37518">
        <ele>-1.79</ele>
        <time>2015-10-10T14:02:27Z</time>
      </trkpt>
      <trkpt lat="47.65838" lon="-3.37519">
        <ele>-1.79</ele>
        <time>2015-10-10T14:02:28Z</time>
      </trkpt>
      <trkpt lat="47.65836" lon="-3.37519">
        <ele>-1.79</ele>
        <time>2015-10-10T14:02:29Z</time>
      </trkpt>
      <trkpt lat="47.65833" lon="-3.3752">
        <ele>-1.79</ele>
        <time>2015-10-10T14:02:30Z</time>
      </trkpt>
      <trkpt lat="47.6583" lon="-3.3752">
        <ele>-1.79</ele>
        <time>2015-10-10T14:02:31Z</time>
      </trkpt>
      <trkpt lat="47.65827" lon="-3.3752">
        <ele>-1.79</ele>
        <time>2015-10-10T14:02:32Z</time>
      </trkpt>
      <trkpt lat="47.65824" lon="-3.3752">
        <ele>-1.79</ele>
        <time>2015-10-10T14:02:33Z</time>
      </trkpt>
      <trkpt lat="47.65822" lon="-3.37521">
        <ele>-1.79</ele>
        <time>2015-10-10T14:02:34Z</time>
      </trkpt>
      <trkpt lat="47.65819" lon="-3.37521">
        <ele>-1.79</ele>
        <time>2015-10-10T14:02:35Z</time>
      </trkpt>
      <trkpt lat="47.65817" lon="-3.37522">
        <ele>-1.79</ele>
        <time>2015-10-10T14:02:36Z</time>
      </trkpt>
      <trkpt lat="47.65814" lon="-3.37522">
        <ele>-1.79</ele>
        <time>2015-10-10T14:02:37Z</time>
      </trkpt>
      <trkpt lat="47.65811" lon="-3.37523">
        <ele>-1.79</ele>
        <time>2015-10-10T14:02:38Z</time>
      </trkpt>
      <trkpt lat="47.65809" lon="-3.37523">
        <ele>-1.79</ele>
        <time>2015-10-10T14:02:39Z</time>
      </trkpt>
      <trkpt lat="47.65806" lon="-3.37523">
        <ele>-1.79</ele>
        <time>2015-10-10T14:02:40Z</time>
      </trkpt>
      <trkpt lat="47.65804" lon="-3.37524">
        <ele>-1.79</ele>
        <time>2015-10-10T14:02:41Z</time>
      </trkpt>
      <trkpt lat="47.65801" lon="-3.37525">
        <ele>-1.79</ele>
        <time>2015-10-10T14:02:42Z</time>
      </trkpt>
      <trkpt lat="47.65799" lon="-3.37525">
        <ele>-1.79</ele>
        <time>2015-10-10T14:02:43Z</time>
      </trkpt>
      <trkpt lat="47.65796" lon="-3.37526">
        <ele>-1.79</ele>
        <time>2015-10-10T14:02:44Z</time>
      </trkpt>
      <trkpt lat="47.65793" lon="-3.37526">
        <ele>-1.79</ele>
        <time>2015-10-10T14:02:45Z</time>
      </trkpt>
      <trkpt lat="47.6579" lon="-3.37527">
        <ele>-1.79</ele>
        <time>2015-10-10T14:02:46Z</time>
      </trkpt>
      <trkpt lat="47.65788" lon="-3.37528">
        <ele>-1.79</ele>
        <time>2015-10-10T14:02:47Z</time>
      </trkpt>
      <trkpt lat="47.65785" lon="-3.37529">
        <ele>-1.79</ele>
        <time>2015-10-10T14:02:48Z</time>
      </trkpt>
      <trkpt lat="47.65782" lon="-3.37529">
        <ele>-1.79</ele>
        <time>2015-10-10T14:02:49Z</time>
      </trkpt>
      <trkpt lat="47.6578" lon="-3.3753">
        <ele>-1.79</ele>
        <time>2015-10-10T14:02:50Z</time>
      </trkpt>
      <trkpt lat="47.65778" lon="-3.37531">
        <ele>-1.79</ele>
        <time>2015-10-10T14:02:51Z</time>
      </trkpt>
      <trkpt lat="47.65775" lon="-3.37532">
        <ele>-0.34</ele>
        <time>2015-10-10T14:02:52Z</time>
      </trkpt>
      <trkpt lat="47.65772" lon="-3.37533">
        <ele>-0.34</ele>
        <time>2015-10-10T14:02:53Z</time>
      </trkpt>
      <trkpt lat="47.6577" lon="-3.37534">
        <ele>-0.34</ele>
        <time>2015-10-10T14:02:54Z</time>
      </trkpt>
      <trkpt lat="47.65767" lon="-3.37534">
        <ele>-2.27</ele>
        <time>2015-10-10T14:02:55Z</time>
      </trkpt>
      <trkpt lat="47.65765" lon="-3.37536">
        <ele>-2.27</ele>
        <time>2015-10-10T14:02:56Z</time>
      </trkpt>
      <trkpt lat="47.65763" lon="-3.37538">
        <ele>-2.27</ele>
        <time>2015-10-10T14:02:57Z</time>
      </trkpt>
      <trkpt lat="47.6576" lon="-3.37539">
        <ele>-2.27</ele>
        <time>2015-10-10T14:02:58Z</time>
      </trkpt>
      <trkpt lat="47.65758" lon="-3.37541">
        <ele>-2.27</ele>
        <time>2015-10-10T14:02:59Z</time>
      </trkpt>
      <trkpt lat="47.65755" lon="-3.37542">
        <ele>-2.27</ele>
        <time>2015-10-10T14:03:00Z</time>
      </trkpt>
      <trkpt lat="47.65753" lon="-3.37543">
        <ele>-2.27</ele>
        <time>2015-10-10T14:03:01Z</time>
      </trkpt>
      <trkpt lat="47.6575" lon="-3.37543">
        <ele>-0.82</ele>
        <time>2015-10-10T14:03:02Z</time>
      </trkpt>
      <trkpt lat="47.65748" lon="-3.37544">
        <ele>-0.82</ele>
        <time>2015-10-10T14:03:03Z</time>
      </trkpt>
      <trkpt lat="47.65746" lon="-3.37545">
        <ele>-0.82</ele>
        <time>2015-10-10T14:03:04Z</time>
      </trkpt>
      <trkpt lat="47.65743" lon="-3.37546">
        <ele>-0.82</ele>
        <time>2015-10-10T14:03:05Z</time>
      </trkpt>
      <trkpt lat="47.65741" lon="-3.37546">
        <ele>-0.82</ele>
        <time>2015-10-10T14:03:06Z</time>
      </trkpt>
      <trkpt lat="47.65738" lon="-3.37546">
        <ele>-0.82</ele>
        <time>2015-10-10T14:03:07Z</time>
      </trkpt>
      <trkpt lat="47.65736" lon="-3.37547">
        <ele>-0.82</ele>
        <time>2015-10-10T14:03:08Z</time>
      </trkpt>
      <trkpt lat="47.65733" lon="-3.37548">
        <ele>-0.82</ele>
        <time>2015-10-10T14:03:09Z</time>
      </trkpt>
      <trkpt lat="47.65731" lon="-3.37549">
        <ele>-0.82</ele>
        <time>2015-10-10T14:03:10Z</time>
      </trkpt>
      <trkpt lat="47.65728" lon="-3.3755">
        <ele>-0.82</ele>
        <time>2015-10-10T14:03:11Z</time>
      </trkpt>
      <trkpt lat="47.65725" lon="-3.3755">
        <ele>-0.82</ele>
        <time>2015-10-10T14:03:12Z</time>
      </trkpt>
      <trkpt lat="47.65723" lon="-3.37551">
        <ele>-0.82</ele>
        <time>2015-10-10T14:03:13Z</time>
      </trkpt>
      <trkpt lat="47.6572" lon="-3.37551">
        <ele>-0.82</ele>
        <time>2015-10-10T14:03:14Z</time>
      </trkpt>
      <trkpt lat="47.65717" lon="-3.37552">
        <ele>-0.82</ele>
        <time>2015-10-10T14:03:15Z</time>
      </trkpt>
      <trkpt lat="47.65714" lon="-3.37552">
        <ele>-0.82</ele>
        <time>2015-10-10T14:03:16Z</time>
      </trkpt>
      <trkpt lat="47.65711" lon="-3.37552">
        <ele>-0.82</ele>
        <time>2015-10-10T14:03:17Z</time>
      </trkpt>
      <trkpt lat="47.65708" lon="-3.37552">
        <ele>-0.82</ele>
        <time>2015-10-10T14:03:18Z</time>
      </trkpt>
      <trkpt lat="47.65706" lon="-3.37553">
        <ele>-0.82</ele>
        <time>2015-10-10T14:03:19Z</time>
      </trkpt>
      <trkpt lat="47.65703" lon="-3.37553">
        <ele>-0.82</ele>
        <time>2015-10-10T14:03:20Z</time>
      </trkpt>
      <trkpt lat="47.657" lon="-3.37553">
        <ele>-0.82</ele>
        <time>2015-10-10T14:03:21Z</time>
      </trkpt>
      <trkpt lat="47.65697" lon="-3.37554">
        <ele>-0.82</ele>
        <time>2015-10-10T14:03:22Z</time>
      </trkpt>
      <trkpt lat="47.65695" lon="-3.37554">
        <ele>-0.82</ele>
        <time>2015-10-10T14:03:23Z</time>
      </trkpt>
      <trkpt lat="47.65692" lon="-3.37555">
        <ele>-0.82</ele>
        <time>2015-10-10T14:03:24Z</time>
      </trkpt>
      <trkpt lat="47.65689" lon="-3.37556">
        <ele>-0.82</ele>
        <time>2015-10-10T14:03:25Z</time>
      </trkpt>
      <trkpt lat="47.65686" lon="-3.37557">
        <ele>-0.82</ele>
        <time>2015-10-10T14:03:26Z</time>
      </trkpt>
      <trkpt lat="47.65684" lon="-3.37558">
        <ele>-0.82</ele>
        <time>2015-10-10T14:03:27Z</time>
      </trkpt>
      <trkpt lat="47.65681" lon="-3.3756">
        <ele>-0.82</ele>
        <time>2015-10-10T14:03:28Z</time>
      </trkpt>
      <trkpt lat="47.65679" lon="-3.37561">
        <ele>-0.82</ele>
        <time>2015-10-10T14:03:29Z</time>
      </trkpt>
      <trkpt lat="47.65677" lon="-3.37561">
        <ele>-0.82</ele>
        <time>2015-10-10T14:03:30Z</time>
      </trkpt>
      <trkpt lat="47.65674" lon="-3.37562">
        <ele>-0.82</ele>
        <time>2015-10-10T14:03:31Z</time>
      </trkpt>
      <trkpt lat="47.65671" lon="-3.37563">
        <ele>-0.82</ele>
        <time>2015-10-10T14:03:32Z</time>
      </trkpt>
      <trkpt lat="47.65669" lon="-3.37563">
        <ele>-0.82</ele>
        <time>2015-10-10T14:03:33Z</time>
      </trkpt>
      <trkpt lat="47.65666" lon="-3.37564">
        <ele>-0.82</ele>
        <time>2015-10-10T14:03:34Z</time>
      </trkpt>
      <trkpt lat="47.65664" lon="-3.37565">
        <ele>-0.82</ele>
        <time>2015-10-10T14:03:35Z</time>
      </trkpt>
      <trkpt lat="47.65662" lon="-3.37566">
        <ele>-0.82</ele>
        <time>2015-10-10T14:03:36Z</time>
      </trkpt>
      <trkpt lat="47.65659" lon="-3.37567">
        <ele>-0.82</ele>
        <time>2015-10-10T14:03:37Z</time>
      </trkpt>
      <trkpt lat="47.65657" lon="-3.37568">
        <ele>-0.82</ele>
        <time>2015-10-10T14:03:38Z</time>
      </trkpt>
      <trkpt lat="47.65654" lon="-3.37568">
        <ele>-0.82</ele>
        <time>2015-10-10T14:03:39Z</time>
      </trkpt>
      <trkpt lat="47.65651" lon="-3.3757">
        <ele>-0.82</ele>
        <time>2015-10-10T14:03:40Z</time>
      </trkpt>
      <trkpt lat="47.65649" lon="-3.37571">
        <ele>-0.82</ele>
        <time>2015-10-10T14:03:41Z</time>
      </trkpt>
      <trkpt lat="47.65646" lon="-3.37572">
        <ele>-0.82</ele>
        <time>2015-10-10T14:03:42Z</time>
      </trkpt>
      <trkpt lat="47.65643" lon="-3.37573">
        <ele>-0.82</ele>
        <time>2015-10-10T14:03:43Z</time>
      </trkpt>
      <trkpt lat="47.65641" lon="-3.37574">
        <ele>-0.82</ele>
        <time>2015-10-10T14:03:44Z</time>
      </trkpt>
      <trkpt lat="47.65638" lon="-3.37574">
        <ele>-0.82</ele>
        <time>2015-10-10T14:03:45Z</time>
      </trkpt>
      <trkpt lat="47.65635" lon="-3.37575">
        <ele>-0.82</ele>
        <time>2015-10-10T14:03:46Z</time>
      </trkpt>
      <trkpt lat="47.65633" lon="-3.37576">
        <ele>-0.82</ele>
        <time>2015-10-10T14:03:47Z</time>
      </trkpt>
      <trkpt lat="47.6563" lon="-3.37577">
        <ele>-0.82</ele>
        <time>2015-10-10T14:03:48Z</time>
      </trkpt>
      <trkpt lat="47.65628" lon="-3.37577">
        <ele>-0.82</ele>
        <time>2015-10-10T14:03:49Z</time>
      </trkpt>
      <trkpt lat="47.65625" lon="-3.37578">
        <ele>-0.82</ele>
        <time>2015-10-10T14:03:50Z</time>
      </trkpt>
      <trkpt lat="47.65623" lon="-3.37578">
        <ele>-0.82</ele>
        <time>2015-10-10T14:03:51Z</time>
      </trkpt>
      <trkpt lat="47.6562" lon="-3.3758">
        <ele>-0.82</ele>
        <time>2015-10-10T14:03:52Z</time>
      </trkpt>
      <trkpt lat="47.65617" lon="-3.37581">
        <ele>-0.82</ele>
        <time>2015-10-10T14:03:53Z</time>
      </trkpt>
      <trkpt lat="47.65614" lon="-3.37582">
        <ele>-0.82</ele>
        <time>2015-10-10T14:03:54Z</time>
      </trkpt>
      <trkpt lat="47.65612" lon="-3.37583">
        <ele>-0.82</ele>
        <time>2015-10-10T14:03:55Z</time>
      </trkpt>
      <trkpt lat="47.65609" lon="-3.37583">
        <ele>-0.82</ele>
        <time>2015-10-10T14:03:56Z</time>
      </trkpt>
      <trkpt lat="47.65607" lon="-3.37584">
        <ele>-0.82</ele>
        <time>2015-10-10T14:03:57Z</time>
      </trkpt>
      <trkpt lat="47.65604" lon="-3.37585">
        <ele>-0.82</ele>
        <time>2015-10-10T14:03:58Z</time>
      </trkpt>
      <trkpt lat="47.65601" lon="-3.37585">
        <ele>-0.82</ele>
        <time>2015-10-10T14:03:59Z</time>
      </trkpt>
      <trkpt lat="47.65599" lon="-3.37586">
        <ele>-0.82</ele>
        <time>2015-10-10T14:04:00Z</time>
      </trkpt>
      <trkpt lat="47.65596" lon="-3.37587">
        <ele>-0.82</ele>
        <time>2015-10-10T14:04:01Z</time>
      </trkpt>
      <trkpt lat="47.65594" lon="-3.37588">
        <ele>-0.82</ele>
        <time>2015-10-10T14:04:02Z</time>
      </trkpt>
      <trkpt lat="47.65591" lon="-3.37588">
        <ele>-0.82</ele>
        <time>2015-10-10T14:04:03Z</time>
      </trkpt>
      <trkpt lat="47.65589" lon="-3.37589">
        <ele>-0.82</ele>
        <time>2015-10-10T14:04:04Z</time>
      </trkpt>
      <trkpt lat="47.65586" lon="-3.37589">
        <ele>-1.3</ele>
        <time>2015-10-10T14:04:05Z</time>
      </trkpt>
      <trkpt lat="47.65583" lon="-3.37589">
        <ele>-1.3</ele>
        <time>2015-10-10T14:04:06Z</time>
      </trkpt>
      <trkpt lat="47.65581" lon="-3.3759">
        <ele>-1.3</ele>
        <time>2015-10-10T14:04:07Z</time>
      </trkpt>
      <trkpt lat="47.65578" lon="-3.3759">
        <ele>-1.3</ele>
        <time>2015-10-10T14:04:08Z</time>
      </trkpt>
      <trkpt lat="47.65575" lon="-3.37591">
        <ele>-1.3</ele>
        <time>2015-10-10T14:04:09Z</time>
      </trkpt>
      <trkpt lat="47.65573" lon="-3.37592">
        <ele>-1.3</ele>
        <time>2015-10-10T14:04:10Z</time>
      </trkpt>
      <trkpt lat="47.6557" lon="-3.37593">
        <ele>-1.3</ele>
        <time>2015-10-10T14:04:11Z</time>
      </trkpt>
      <trkpt lat="47.65568" lon="-3.37593">
        <ele>-1.3</ele>
        <time>2015-10-10T14:04:12Z</time>
      </trkpt>
      <trkpt lat="47.65565" lon="-3.37594">
        <ele>-1.3</ele>
        <time>2015-10-10T14:04:13Z</time>
      </trkpt>
      <trkpt lat="47.65563" lon="-3.37594">
        <ele>-1.3</ele>
        <time>2015-10-10T14:04:14Z</time>
      </trkpt>
      <trkpt lat="47.65561" lon="-3.37595">
        <ele>-1.3</ele>
        <time>2015-10-10T14:04:15Z</time>
      </trkpt>
      <trkpt lat="47.65558" lon="-3.37596">
        <ele>-1.3</ele>
        <time>2015-10-10T14:04:16Z</time>
      </trkpt>
      <trkpt lat="47.65555" lon="-3.37597">
        <ele>-1.3</ele>
        <time>2015-10-10T14:04:17Z</time>
      </trkpt>
      <trkpt lat="47.65552" lon="-3.37597">
        <ele>-1.3</ele>
        <time>2015-10-10T14:04:18Z</time>
      </trkpt>
      <trkpt lat="47.6555" lon="-3.37598">
        <ele>-1.3</ele>
        <time>2015-10-10T14:04:19Z</time>
      </trkpt>
      <trkpt lat="47.65547" lon="-3.37598">
        <ele>-1.3</ele>
        <time>2015-10-10T14:04:20Z</time>
      </trkpt>
      <trkpt lat="47.65544" lon="-3.376">
        <ele>-1.3</ele>
        <time>2015-10-10T14:04:21Z</time>
      </trkpt>
      <trkpt lat="47.65542" lon="-3.37601">
        <ele>-1.3</ele>
        <time>2015-10-10T14:04:22Z</time>
      </trkpt>
      <trkpt lat="47.6554" lon="-3.37601">
        <ele>-1.3</ele>
        <time>2015-10-10T14:04:23Z</time>
      </trkpt>
      <trkpt lat="47.65537" lon="-3.37603">
        <ele>-1.3</ele>
        <time>2015-10-10T14:04:24Z</time>
      </trkpt>
      <trkpt lat="47.65534" lon="-3.37603">
        <ele>-1.3</ele>
        <time>2015-10-10T14:04:25Z</time>
      </trkpt>
      <trkpt lat="47.65531" lon="-3.37603">
        <ele>-1.3</ele>
        <time>2015-10-10T14:04:26Z</time>
      </trkpt>
      <trkpt lat="47.65529" lon="-3.37603">
        <ele>-1.3</ele>
        <time>2015-10-10T14:04:27Z</time>
      </trkpt>
      <trkpt lat="47.65526" lon="-3.37603">
        <ele>-1.3</ele>
        <time>2015-10-10T14:04:28Z</time>
      </trkpt>
      <trkpt lat="47.65523" lon="-3.37603">
        <ele>-1.3</ele>
        <time>2015-10-10T14:04:29Z</time>
      </trkpt>
      <trkpt lat="47.65521" lon="-3.37604">
        <ele>-1.3</ele>
        <time>2015-10-10T14:04:30Z</time>
      </trkpt>
      <trkpt lat="47.65518" lon="-3.37605">
        <ele>-1.3</ele>
        <time>2015-10-10T14:04:31Z</time>
      </trkpt>
      <trkpt lat="47.65516" lon="-3.37605">
        <ele>-1.3</ele>
        <time>2015-10-10T14:04:32Z</time>
      </trkpt>
      <trkpt lat="47.65514" lon="-3.37606">
        <ele>-1.3</ele>
        <time>2015-10-10T14:04:33Z</time>
      </trkpt>
      <trkpt lat="47.65511" lon="-3.37607">
        <ele>-1.3</ele>
        <time>2015-10-10T14:04:34Z</time>
      </trkpt>
      <trkpt lat="47.65509" lon="-3.37607">
        <ele>-1.3</ele>
        <time>2015-10-10T14:04:35Z</time>
      </trkpt>
      <trkpt lat="47.65506" lon="-3.37608">
        <ele>-1.3</ele>
        <time>2015-10-10T14:04:36Z</time>
      </trkpt>
      <trkpt lat="47.65503" lon="-3.37608">
        <ele>-1.3</ele>
        <time>2015-10-10T14:04:37Z</time>
      </trkpt>
      <trkpt lat="47.65501" lon="-3.37609">
        <ele>-1.3</ele>
        <time>2015-10-10T14:04:38Z</time>
      </trkpt>
      <trkpt lat="47.65498" lon="-3.37609">
        <ele>-1.3</ele>
        <time>2015-10-10T14:04:39Z</time>
      </trkpt>
      <trkpt lat="47.65495" lon="-3.37609">
        <ele>-1.3</ele>
        <time>2015-10-10T14:04:40Z</time>
      </trkpt>
      <trkpt lat="47.65492" lon="-3.3761">
        <ele>-1.3</ele>
        <time>2015-10-10T14:04:41Z</time>
      </trkpt>
      <trkpt lat="47.6549" lon="-3.3761">
        <ele>-1.3</ele>
        <time>2015-10-10T14:04:42Z</time>
      </trkpt>
      <trkpt lat="47.65487" lon="-3.3761">
        <ele>-1.3</ele>
        <time>2015-10-10T14:04:43Z</time>
      </trkpt>
      <trkpt lat="47.65485" lon="-3.3761">
        <ele>-1.3</ele>
        <time>2015-10-10T14:04:44Z</time>
      </trkpt>
      <trkpt lat="47.65482" lon="-3.3761">
        <ele>-1.3</ele>
        <time>2015-10-10T14:04:45Z</time>
      </trkpt>
      <trkpt lat="47.65479" lon="-3.3761">
        <ele>-1.3</ele>
        <time>2015-10-10T14:04:46Z</time>
      </trkpt>
      <trkpt lat="47.65476" lon="-3.3761">
        <ele>-1.3</ele>
        <time>2015-10-10T14:04:47Z</time>
      </trkpt>
      <trkpt lat="47.65473" lon="-3.3761">
        <ele>-1.3</ele>
        <time>2015-10-10T14:04:48Z</time>
      </trkpt>
      <trkpt lat="47.65471" lon="-3.37611">
        <ele>-1.3</ele>
        <time>2015-10-10T14:04:49Z</time>
      </trkpt>
      <trkpt lat="47.65468" lon="-3.37611">
        <ele>-1.3</ele>
        <time>2015-10-10T14:04:50Z</time>
      </trkpt>
      <trkpt lat="47.65466" lon="-3.37612">
        <ele>-1.3</ele>
        <time>2015-10-10T14:04:51Z</time>
      </trkpt>
      <trkpt lat="47.65463" lon="-3.37613">
        <ele>-1.3</ele>
        <time>2015-10-10T14:04:52Z</time>
      </trkpt>
      <trkpt lat="47.6546" lon="-3.37613">
        <ele>-1.3</ele>
        <time>2015-10-10T14:04:53Z</time>
      </trkpt>
      <trkpt lat="47.65457" lon="-3.37613">
        <ele>-1.3</ele>
        <time>2015-10-10T14:04:54Z</time>
      </trkpt>
      <trkpt lat="47.65454" lon="-3.37613">
        <ele>-1.3</ele>
        <time>2015-10-10T14:04:55Z</time>
      </trkpt>
      <trkpt lat="47.65451" lon="-3.37614">
        <ele>-1.3</ele>
        <time>2015-10-10T14:04:56Z</time>
      </trkpt>
      <trkpt lat="47.65449" lon="-3.37614">
        <ele>-1.3</ele>
        <time>2015-10-10T14:04:57Z</time>
      </trkpt>
      <trkpt lat="47.65446" lon="-3.37614">
        <ele>-1.3</ele>
        <time>2015-10-10T14:04:58Z</time>
      </trkpt>
      <trkpt lat="47.65444" lon="-3.37614">
        <ele>-1.3</ele>
        <time>2015-10-10T14:04:59Z</time>
      </trkpt>
      <trkpt lat="47.65441" lon="-3.37615">
        <ele>-1.3</ele>
        <time>2015-10-10T14:05:00Z</time>
      </trkpt>
      <trkpt lat="47.65438" lon="-3.37616">
        <ele>-1.3</ele>
        <time>2015-10-10T14:05:01Z</time>
      </trkpt>
      <trkpt lat="47.65436" lon="-3.37616">
        <ele>-1.3</ele>
        <time>2015-10-10T14:05:02Z</time>
      </trkpt>
      <trkpt lat="47.65433" lon="-3.37616">
        <ele>-1.3</ele>
        <time>2015-10-10T14:05:03Z</time>
      </trkpt>
      <trkpt lat="47.6543" lon="-3.37616">
        <ele>-1.3</ele>
        <time>2015-10-10T14:05:04Z</time>
      </trkpt>
      <trkpt lat="47.65427" lon="-3.37616">
        <ele>-1.3</ele>
        <time>2015-10-10T14:05:05Z</time>
      </trkpt>
      <trkpt lat="47.65425" lon="-3.37616">
        <ele>-1.3</ele>
        <time>2015-10-10T14:05:06Z</time>
      </trkpt>
      <trkpt lat="47.65422" lon="-3.37616">
        <ele>-1.3</ele>
        <time>2015-10-10T14:05:07Z</time>
      </trkpt>
      <trkpt lat="47.65419" lon="-3.37617">
        <ele>-1.3</ele>
        <time>2015-10-10T14:05:08Z</time>
      </trkpt>
      <trkpt lat="47.65417" lon="-3.37617">
        <ele>-1.3</ele>
        <time>2015-10-10T14:05:09Z</time>
      </trkpt>
      <trkpt lat="47.65414" lon="-3.37617">
        <ele>-1.3</ele>
        <time>2015-10-10T14:05:10Z</time>
      </trkpt>
      <trkpt lat="47.65411" lon="-3.37617">
        <ele>-1.3</ele>
        <time>2015-10-10T14:05:11Z</time>
      </trkpt>
      <trkpt lat="47.65408" lon="-3.37618">
        <ele>-1.3</ele>
        <time>2015-10-10T14:05:12Z</time>
      </trkpt>
      <trkpt lat="47.65406" lon="-3.37618">
        <ele>-1.3</ele>
        <time>2015-10-10T14:05:13Z</time>
      </trkpt>
      <trkpt lat="47.65403" lon="-3.37618">
        <ele>-1.3</ele>
        <time>2015-10-10T14:05:14Z</time>
      </trkpt>
      <trkpt lat="47.65401" lon="-3.37618">
        <ele>-1.3</ele>
        <time>2015-10-10T14:05:15Z</time>
      </trkpt>
      <trkpt lat="47.65398" lon="-3.37619">
        <ele>-1.3</ele>
        <time>2015-10-10T14:05:16Z</time>
      </trkpt>
      <trkpt lat="47.65396" lon="-3.37619">
        <ele>-1.3</ele>
        <time>2015-10-10T14:05:17Z</time>
      </trkpt>
      <trkpt lat="47.65393" lon="-3.37619">
        <ele>-1.3</ele>
        <time>2015-10-10T14:05:18Z</time>
      </trkpt>
      <trkpt lat="47.65391" lon="-3.3762">
        <ele>-1.3</ele>
        <time>2015-10-10T14:05:19Z</time>
      </trkpt>
      <trkpt lat="47.65388" lon="-3.3762">
        <ele>-1.3</ele>
        <time>2015-10-10T14:05:20Z</time>
      </trkpt>
      <trkpt lat="47.65385" lon="-3.3762">
        <ele>-1.3</ele>
        <time>2015-10-10T14:05:21Z</time>
      </trkpt>
      <trkpt lat="47.65382" lon="-3.37621">
        <ele>-1.3</ele>
        <time>2015-10-10T14:05:22Z</time>
      </trkpt>
      <trkpt lat="47.6538" lon="-3.37621">
        <ele>-1.3</ele>
        <time>2015-10-10T14:05:23Z</time>
      </trkpt>
      <trkpt lat="47.65377" lon="-3.37621">
        <ele>-1.3</ele>
        <time>2015-10-10T14:05:24Z</time>
      </trkpt>
      <trkpt lat="47.65374" lon="-3.37621">
        <ele>-1.3</ele>
        <time>2015-10-10T14:05:25Z</time>
      </trkpt>
      <trkpt lat="47.65372" lon="-3.37622">
        <ele>-1.3</ele>
        <time>2015-10-10T14:05:26Z</time>
      </trkpt>
      <trkpt lat="47.65369" lon="-3.37622">
        <ele>-1.3</ele>
        <time>2015-10-10T14:05:27Z</time>
      </trkpt>
      <trkpt lat="47.65366" lon="-3.37622">
        <ele>-1.3</ele>
        <time>2015-10-10T14:05:28Z</time>
      </trkpt>
      <trkpt lat="47.65364" lon="-3.37622">
        <ele>-1.3</ele>
        <time>2015-10-10T14:05:29Z</time>
      </trkpt>
      <trkpt lat="47.65361" lon="-3.37622">
        <ele>-1.3</ele>
        <time>2015-10-10T14:05:30Z</time>
      </trkpt>
      <trkpt lat="47.65359" lon="-3.37621">
        <ele>-1.3</ele>
        <time>2015-10-10T14:05:31Z</time>
      </trkpt>
      <trkpt lat="47.65356" lon="-3.37621">
        <ele>-1.3</ele>
        <time>2015-10-10T14:05:32Z</time>
      </trkpt>
      <trkpt lat="47.65353" lon="-3.37622">
        <ele>-1.3</ele>
        <time>2015-10-10T14:05:33Z</time>
      </trkpt>
      <trkpt lat="47.6535" lon="-3.37622">
        <ele>-1.3</ele>
        <time>2015-10-10T14:05:34Z</time>
      </trkpt>
      <trkpt lat="47.65348" lon="-3.37623">
        <ele>-1.3</ele>
        <time>2015-10-10T14:05:35Z</time>
      </trkpt>
      <trkpt lat="47.65345" lon="-3.37624">
        <ele>-1.3</ele>
        <time>2015-10-10T14:05:36Z</time>
      </trkpt>
      <trkpt lat="47.65342" lon="-3.37624">
        <ele>-1.3</ele>
        <time>2015-10-10T14:05:37Z</time>
      </trkpt>
      <trkpt lat="47.65339" lon="-3.37624">
        <ele>-1.3</ele>
        <time>2015-10-10T14:05:38Z</time>
      </trkpt>
      <trkpt lat="47.65336" lon="-3.37624">
        <ele>-1.3</ele>
        <time>2015-10-10T14:05:39Z</time>
      </trkpt>
      <trkpt lat="47.65333" lon="-3.37623">
        <ele>-1.3</ele>
        <time>2015-10-10T14:05:40Z</time>
      </trkpt>
      <trkpt lat="47.6533" lon="-3.37623">
        <ele>-1.3</ele>
        <time>2015-10-10T14:05:41Z</time>
      </trkpt>
      <trkpt lat="47.65328" lon="-3.37622">
        <ele>-1.3</ele>
        <time>2015-10-10T14:05:42Z</time>
      </trkpt>
      <trkpt lat="47.65325" lon="-3.37622">
        <ele>-1.3</ele>
        <time>2015-10-10T14:05:43Z</time>
      </trkpt>
      <trkpt lat="47.65322" lon="-3.37623">
        <ele>-1.3</ele>
        <time>2015-10-10T14:05:44Z</time>
      </trkpt>
      <trkpt lat="47.65319" lon="-3.37623">
        <ele>-1.3</ele>
        <time>2015-10-10T14:05:45Z</time>
      </trkpt>
      <trkpt lat="47.65316" lon="-3.37623">
        <ele>-1.3</ele>
        <time>2015-10-10T14:05:46Z</time>
      </trkpt>
      <trkpt lat="47.65314" lon="-3.37623">
        <ele>-1.3</ele>
        <time>2015-10-10T14:05:47Z</time>
      </trkpt>
      <trkpt lat="47.65311" lon="-3.37623">
        <ele>-1.3</ele>
        <time>2015-10-10T14:05:48Z</time>
      </trkpt>
      <trkpt lat="47.65308" lon="-3.37624">
        <ele>-1.3</ele>
        <time>2015-10-10T14:05:49Z</time>
      </trkpt>
      <trkpt lat="47.65305" lon="-3.37625">
        <ele>-1.3</ele>
        <time>2015-10-10T14:05:50Z</time>
      </trkpt>
      <trkpt lat="47.65303" lon="-3.37626">
        <ele>-1.3</ele>
        <time>2015-10-10T14:05:51Z</time>
      </trkpt>
      <trkpt lat="47.653" lon="-3.37626">
        <ele>-1.3</ele>
        <time>2015-10-10T14:05:52Z</time>
      </trkpt>
      <trkpt lat="47.65297" lon="-3.37627">
        <ele>-1.3</ele>
        <time>2015-10-10T14:05:53Z</time>
      </trkpt>
      <trkpt lat="47.65294" lon="-3.37627">
        <ele>-1.3</ele>
        <time>2015-10-10T14:05:54Z</time>
      </trkpt>
      <trkpt lat="47.65292" lon="-3.37628">
        <ele>-1.3</ele>
        <time>2015-10-10T14:05:55Z</time>
      </trkpt>
      <trkpt lat="47.65289" lon="-3.37628">
        <ele>-1.3</ele>
        <time>2015-10-10T14:05:56Z</time>
      </trkpt>
      <trkpt lat="47.65287" lon="-3.37629">
        <ele>-1.3</ele>
        <time>2015-10-10T14:05:57Z</time>
      </trkpt>
      <trkpt lat="47.65284" lon="-3.3763">
        <ele>-1.3</ele>
        <time>2015-10-10T14:05:58Z</time>
      </trkpt>
      <trkpt lat="47.65282" lon="-3.3763">
        <ele>-1.3</ele>
        <time>2015-10-10T14:05:59Z</time>
      </trkpt>
      <trkpt lat="47.65279" lon="-3.3763">
        <ele>-1.3</ele>
        <time>2015-10-10T14:06:00Z</time>
      </trkpt>
      <trkpt lat="47.65276" lon="-3.3763">
        <ele>-1.3</ele>
        <time>2015-10-10T14:06:01Z</time>
      </trkpt>
      <trkpt lat="47.65274" lon="-3.3763">
        <ele>-1.3</ele>
        <time>2015-10-10T14:06:02Z</time>
      </trkpt>
      <trkpt lat="47.65271" lon="-3.3763">
        <ele>-1.3</ele>
        <time>2015-10-10T14:06:03Z</time>
      </trkpt>
      <trkpt lat="47.65268" lon="-3.3763">
        <ele>-1.3</ele>
        <time>2015-10-10T14:06:04Z</time>
      </trkpt>
      <trkpt lat="47.65265" lon="-3.3763">
        <ele>-1.3</ele>
        <time>2015-10-10T14:06:05Z</time>
      </trkpt>
      <trkpt lat="47.65262" lon="-3.3763">
        <ele>-1.3</ele>
        <time>2015-10-10T14:06:06Z</time>
      </trkpt>
      <trkpt lat="47.65259" lon="-3.3763">
        <ele>-1.3</ele>
        <time>2015-10-10T14:06:07Z</time>
      </trkpt>
      <trkpt lat="47.65257" lon="-3.37631">
        <ele>-1.3</ele>
        <time>2015-10-10T14:06:08Z</time>
      </trkpt>
      <trkpt lat="47.65254" lon="-3.37631">
        <ele>-1.3</ele>
        <time>2015-10-10T14:06:09Z</time>
      </trkpt>
      <trkpt lat="47.65251" lon="-3.37632">
        <ele>-1.3</ele>
        <time>2015-10-10T14:06:10Z</time>
      </trkpt>
      <trkpt lat="47.65249" lon="-3.37633">
        <ele>-1.3</ele>
        <time>2015-10-10T14:06:11Z</time>
      </trkpt>
      <trkpt lat="47.65246" lon="-3.37633">
        <ele>-1.3</ele>
        <time>2015-10-10T14:06:12Z</time>
      </trkpt>
      <trkpt lat="47.65243" lon="-3.37633">
        <ele>-1.3</ele>
        <time>2015-10-10T14:06:13Z</time>
      </trkpt>
      <trkpt lat="47.65241" lon="-3.37632">
        <ele>-1.3</ele>
        <time>2015-10-10T14:06:14Z</time>
      </trkpt>
      <trkpt lat="47.65239" lon="-3.37632">
        <ele>-1.3</ele>
        <time>2015-10-10T14:06:15Z</time>
      </trkpt>
      <trkpt lat="47.65236" lon="-3.37632">
        <ele>-1.3</ele>
        <time>2015-10-10T14:06:16Z</time>
      </trkpt>
      <trkpt lat="47.65233" lon="-3.37632">
        <ele>-1.3</ele>
        <time>2015-10-10T14:06:17Z</time>
      </trkpt>
      <trkpt lat="47.65231" lon="-3.37632">
        <ele>-1.3</ele>
        <time>2015-10-10T14:06:18Z</time>
      </trkpt>
      <trkpt lat="47.65228" lon="-3.37632">
        <ele>-1.3</ele>
        <time>2015-10-10T14:06:19Z</time>
      </trkpt>
      <trkpt lat="47.65225" lon="-3.37632">
        <ele>-1.3</ele>
        <time>2015-10-10T14:06:20Z</time>
      </trkpt>
      <trkpt lat="47.65223" lon="-3.37632">
        <ele>-1.3</ele>
        <time>2015-10-10T14:06:21Z</time>
      </trkpt>
      <trkpt lat="47.6522" lon="-3.37632">
        <ele>-1.3</ele>
        <time>2015-10-10T14:06:22Z</time>
      </trkpt>
      <trkpt lat="47.65217" lon="-3.37632">
        <ele>-1.3</ele>
        <time>2015-10-10T14:06:23Z</time>
      </trkpt>
      <trkpt lat="47.65215" lon="-3.37632">
        <ele>-1.3</ele>
        <time>2015-10-10T14:06:24Z</time>
      </trkpt>
      <trkpt lat="47.65212" lon="-3.37632">
        <ele>-1.3</ele>
        <time>2015-10-10T14:06:25Z</time>
      </trkpt>
      <trkpt lat="47.65209" lon="-3.37632">
        <ele>-1.3</ele>
        <time>2015-10-10T14:06:26Z</time>
      </trkpt>
      <trkpt lat="47.65206" lon="-3.37632">
        <ele>-0.82</ele>
        <time>2015-10-10T14:06:27Z</time>
      </trkpt>
      <trkpt lat="47.65204" lon="-3.37632">
        <ele>-0.82</ele>
        <time>2015-10-10T14:06:28Z</time>
      </trkpt>
      <trkpt lat="47.65201" lon="-3.37632">
        <ele>-0.82</ele>
        <time>2015-10-10T14:06:29Z</time>
      </trkpt>
      <trkpt lat="47.65199" lon="-3.37632">
        <ele>-0.82</ele>
        <time>2015-10-10T14:06:30Z</time>
      </trkpt>
      <trkpt lat="47.65197" lon="-3.37633">
        <ele>-0.82</ele>
        <time>2015-10-10T14:06:31Z</time>
      </trkpt>
      <trkpt lat="47.65194" lon="-3.37634">
        <ele>-0.82</ele>
        <time>2015-10-10T14:06:32Z</time>
      </trkpt>
      <trkpt lat="47.65191" lon="-3.37634">
        <ele>-0.82</ele>
        <time>2015-10-10T14:06:33Z</time>
      </trkpt>
      <trkpt lat="47.65188" lon="-3.37635">
        <ele>-0.82</ele>
        <time>2015-10-10T14:06:34Z</time>
      </trkpt>
      <trkpt lat="47.65185" lon="-3.37636">
        <ele>-0.82</ele>
        <time>2015-10-10T14:06:35Z</time>
      </trkpt>
      <trkpt lat="47.65182" lon="-3.37637">
        <ele>-2.27</ele>
        <time>2015-10-10T14:06:36Z</time>
      </trkpt>
      <trkpt lat="47.65179" lon="-3.37637">
        <ele>-2.27</ele>
        <time>2015-10-10T14:06:37Z</time>
      </trkpt>
      <trkpt lat="47.65176" lon="-3.37637">
        <ele>-2.27</ele>
        <time>2015-10-10T14:06:38Z</time>
      </trkpt>
      <trkpt lat="47.65173" lon="-3.37637">
        <ele>-1.3</ele>
        <time>2015-10-10T14:06:39Z</time>
      </trkpt>
      <trkpt lat="47.65171" lon="-3.37637">
        <ele>-0.82</ele>
        <time>2015-10-10T14:06:40Z</time>
      </trkpt>
      <trkpt lat="47.65165" lon="-3.37637">
        <ele>-0.82</ele>
        <time>2015-10-10T14:06:42Z</time>
      </trkpt>
      <trkpt lat="47.65162" lon="-3.37637">
        <ele>-0.82</ele>
        <time>2015-10-10T14:06:43Z</time>
      </trkpt>
      <trkpt lat="47.6516" lon="-3.37636">
        <ele>-0.82</ele>
        <time>2015-10-10T14:06:44Z</time>
      </trkpt>
      <trkpt lat="47.65157" lon="-3.37636">
        <ele>-0.82</ele>
        <time>2015-10-10T14:06:45Z</time>
      </trkpt>
      <trkpt lat="47.65155" lon="-3.37636">
        <ele>-1.79</ele>
        <time>2015-10-10T14:06:46Z</time>
      </trkpt>
      <trkpt lat="47.65152" lon="-3.37636">
        <ele>-1.79</ele>
        <time>2015-10-10T14:06:47Z</time>
      </trkpt>
      <trkpt lat="47.65149" lon="-3.37636">
        <ele>-1.79</ele>
        <time>2015-10-10T14:06:48Z</time>
      </trkpt>
      <trkpt lat="47.65146" lon="-3.37635">
        <ele>-1.79</ele>
        <time>2015-10-10T14:06:49Z</time>
      </trkpt>
      <trkpt lat="47.65144" lon="-3.37634">
        <ele>-1.79</ele>
        <time>2015-10-10T14:06:50Z</time>
      </trkpt>
      <trkpt lat="47.65141" lon="-3.37634">
        <ele>-1.79</ele>
        <time>2015-10-10T14:06:51Z</time>
      </trkpt>
      <trkpt lat="47.65138" lon="-3.37633">
        <ele>-1.79</ele>
        <time>2015-10-10T14:06:52Z</time>
      </trkpt>
      <trkpt lat="47.65136" lon="-3.37632">
        <ele>-1.79</ele>
        <time>2015-10-10T14:06:53Z</time>
      </trkpt>
      <trkpt lat="47.65133" lon="-3.37631">
        <ele>-1.79</ele>
        <time>2015-10-10T14:06:54Z</time>
      </trkpt>
      <trkpt lat="47.6513" lon="-3.3763">
        <ele>-1.79</ele>
        <time>2015-10-10T14:06:55Z</time>
      </trkpt>
      <trkpt lat="47.65127" lon="-3.37629">
        <ele>-1.79</ele>
        <time>2015-10-10T14:06:56Z</time>
      </trkpt>
      <trkpt lat="47.65124" lon="-3.37628">
        <ele>-1.79</ele>
        <time>2015-10-10T14:06:57Z</time>
      </trkpt>
      <trkpt lat="47.65122" lon="-3.37627">
        <ele>-1.79</ele>
        <time>2015-10-10T14:06:58Z</time>
      </trkpt>
      <trkpt lat="47.65119" lon="-3.37626">
        <ele>-1.79</ele>
        <time>2015-10-10T14:06:59Z</time>
      </trkpt>
      <trkpt lat="47.65116" lon="-3.37625">
        <ele>-1.79</ele>
        <time>2015-10-10T14:07:00Z</time>
      </trkpt>
      <trkpt lat="47.65114" lon="-3.37624">
        <ele>-1.79</ele>
        <time>2015-10-10T14:07:01Z</time>
      </trkpt>
      <trkpt lat="47.65111" lon="-3.37623">
        <ele>-1.79</ele>
        <time>2015-10-10T14:07:02Z</time>
      </trkpt>
      <trkpt lat="47.65109" lon="-3.37621">
        <ele>-1.79</ele>
        <time>2015-10-10T14:07:03Z</time>
      </trkpt>
      <trkpt lat="47.65106" lon="-3.37621">
        <ele>-1.79</ele>
        <time>2015-10-10T14:07:04Z</time>
      </trkpt>
      <trkpt lat="47.65103" lon="-3.37621">
        <ele>-1.79</ele>
        <time>2015-10-10T14:07:05Z</time>
      </trkpt>
      <trkpt lat="47.651" lon="-3.3762">
        <ele>-1.79</ele>
        <time>2015-10-10T14:07:06Z</time>
      </trkpt>
      <trkpt lat="47.65097" lon="-3.3762">
        <ele>-1.79</ele>
        <time>2015-10-10T14:07:07Z</time>
      </trkpt>
      <trkpt lat="47.65095" lon="-3.37619">
        <ele>-2.75</ele>
        <time>2015-10-10T14:07:08Z</time>
      </trkpt>
      <trkpt lat="47.65092" lon="-3.37619">
        <ele>-2.75</ele>
        <time>2015-10-10T14:07:09Z</time>
      </trkpt>
      <trkpt lat="47.65089" lon="-3.37618">
        <ele>-2.75</ele>
        <time>2015-10-10T14:07:10Z</time>
      </trkpt>
      <trkpt lat="47.65087" lon="-3.37617">
        <ele>-1.3</ele>
        <time>2015-10-10T14:07:11Z</time>
      </trkpt>
      <trkpt lat="47.65084" lon="-3.37616">
        <ele>-1.3</ele>
        <time>2015-10-10T14:07:12Z</time>
      </trkpt>
      <trkpt lat="47.65082" lon="-3.37616">
        <ele>-1.3</ele>
        <time>2015-10-10T14:07:13Z</time>
      </trkpt>
      <trkpt lat="47.65079" lon="-3.37615">
        <ele>-1.3</ele>
        <time>2015-10-10T14:07:14Z</time>
      </trkpt>
      <trkpt lat="47.65076" lon="-3.37615">
        <ele>-1.3</ele>
        <time>2015-10-10T14:07:15Z</time>
      </trkpt>
      <trkpt lat="47.65074" lon="-3.37614">
        <ele>-0.82</ele>
        <time>2015-10-10T14:07:16Z</time>
      </trkpt>
      <trkpt lat="47.65071" lon="-3.37614">
        <ele>-0.82</ele>
        <time>2015-10-10T14:07:17Z</time>
      </trkpt>
      <trkpt lat="47.65068" lon="-3.37613">
        <ele>-0.82</ele>
        <time>2015-10-10T14:07:18Z</time>
      </trkpt>
      <trkpt lat="47.65065" lon="-3.37612">
        <ele>-0.82</ele>
        <time>2015-10-10T14:07:19Z</time>
      </trkpt>
      <trkpt lat="47.65062" lon="-3.37611">
        <ele>-0.82</ele>
        <time>2015-10-10T14:07:20Z</time>
      </trkpt>
      <trkpt lat="47.65059" lon="-3.37611">
        <ele>-0.82</ele>
        <time>2015-10-10T14:07:21Z</time>
      </trkpt>
      <trkpt lat="47.65057" lon="-3.3761">
        <ele>-0.82</ele>
        <time>2015-10-10T14:07:22Z</time>
      </trkpt>
      <trkpt lat="47.65054" lon="-3.3761">
        <ele>-0.82</ele>
        <time>2015-10-10T14:07:23Z</time>
      </trkpt>
      <trkpt lat="47.65051" lon="-3.3761">
        <ele>-0.82</ele>
        <time>2015-10-10T14:07:24Z</time>
      </trkpt>
      <trkpt lat="47.65048" lon="-3.3761">
        <ele>-2.27</ele>
        <time>2015-10-10T14:07:25Z</time>
      </trkpt>
      <trkpt lat="47.65045" lon="-3.3761">
        <ele>-2.27</ele>
        <time>2015-10-10T14:07:26Z</time>
      </trkpt>
      <trkpt lat="47.65043" lon="-3.3761">
        <ele>-2.27</ele>
        <time>2015-10-10T14:07:27Z</time>
      </trkpt>
      <trkpt lat="47.6504" lon="-3.37609">
        <ele>-2.27</ele>
        <time>2015-10-10T14:07:28Z</time>
      </trkpt>
      <trkpt lat="47.65037" lon="-3.37609">
        <ele>-2.27</ele>
        <time>2015-10-10T14:07:29Z</time>
      </trkpt>
      <trkpt lat="47.65035" lon="-3.37609">
        <ele>-2.27</ele>
        <time>2015-10-10T14:07:30Z</time>
      </trkpt>
      <trkpt lat="47.65032" lon="-3.37609">
        <ele>-2.27</ele>
        <time>2015-10-10T14:07:31Z</time>
      </trkpt>
      <trkpt lat="47.65029" lon="-3.3761">
        <ele>-2.27</ele>
        <time>2015-10-10T14:07:32Z</time>
      </trkpt>
      <trkpt lat="47.65026" lon="-3.3761">
        <ele>-2.27</ele>
        <time>2015-10-10T14:07:33Z</time>
      </trkpt>
      <trkpt lat="47.65023" lon="-3.3761">
        <ele>-2.27</ele>
        <time>2015-10-10T14:07:34Z</time>
      </trkpt>
      <trkpt lat="47.6502" lon="-3.37609">
        <ele>-2.27</ele>
        <time>2015-10-10T14:07:35Z</time>
      </trkpt>
      <trkpt lat="47.65018" lon="-3.37609">
        <ele>-2.27</ele>
        <time>2015-10-10T14:07:36Z</time>
      </trkpt>
      <trkpt lat="47.65015" lon="-3.37609">
        <ele>-2.27</ele>
        <time>2015-10-10T14:07:37Z</time>
      </trkpt>
      <trkpt lat="47.65012" lon="-3.37609">
        <ele>-2.27</ele>
        <time>2015-10-10T14:07:38Z</time>
      </trkpt>
      <trkpt lat="47.65009" lon="-3.37608">
        <ele>-2.27</ele>
        <time>2015-10-10T14:07:39Z</time>
      </trkpt>
      <trkpt lat="47.65006" lon="-3.37608">
        <ele>-2.27</ele>
        <time>2015-10-10T14:07:40Z</time>
      </trkpt>
      <trkpt lat="47.65003" lon="-3.37607">
        <ele>-2.27</ele>
        <time>2015-10-10T14:07:41Z</time>
      </trkpt>
      <trkpt lat="47.65" lon="-3.37607">
        <ele>-2.27</ele>
        <time>2015-10-10T14:07:42Z</time>
      </trkpt>
      <trkpt lat="47.64998" lon="-3.37608">
        <ele>-1.3</ele>
        <time>2015-10-10T14:07:43Z</time>
      </trkpt>
      <trkpt lat="47.64995" lon="-3.37608">
        <ele>-1.3</ele>
        <time>2015-10-10T14:07:44Z</time>
      </trkpt>
      <trkpt lat="47.64992" lon="-3.37608">
        <ele>-1.3</ele>
        <time>2015-10-10T14:07:45Z</time>
      </trkpt>
      <trkpt lat="47.64989" lon="-3.37608">
        <ele>-1.3</ele>
        <time>2015-10-10T14:07:46Z</time>
      </trkpt>
      <trkpt lat="47.64987" lon="-3.37608">
        <ele>-2.75</ele>
        <time>2015-10-10T14:07:47Z</time>
      </trkpt>
      <trkpt lat="47.64984" lon="-3.37607">
        <ele>-2.75</ele>
        <time>2015-10-10T14:07:48Z</time>
      </trkpt>
      <trkpt lat="47.64981" lon="-3.37607">
        <ele>-2.75</ele>
        <time>2015-10-10T14:07:49Z</time>
      </trkpt>
      <trkpt lat="47.64979" lon="-3.37608">
        <ele>-2.75</ele>
        <time>2015-10-10T14:07:50Z</time>
      </trkpt>
      <trkpt lat="47.64976" lon="-3.37608">
        <ele>-2.75</ele>
        <time>2015-10-10T14:07:51Z</time>
      </trkpt>
      <trkpt lat="47.64973" lon="-3.37607">
        <ele>-2.75</ele>
        <time>2015-10-10T14:07:52Z</time>
      </trkpt>
      <trkpt lat="47.64971" lon="-3.37607">
        <ele>-2.75</ele>
        <time>2015-10-10T14:07:53Z</time>
      </trkpt>
      <trkpt lat="47.64968" lon="-3.37608">
        <ele>-2.75</ele>
        <time>2015-10-10T14:07:54Z</time>
      </trkpt>
      <trkpt lat="47.64966" lon="-3.37608">
        <ele>-2.75</ele>
        <time>2015-10-10T14:07:55Z</time>
      </trkpt>
      <trkpt lat="47.64963" lon="-3.37608">
        <ele>-2.75</ele>
        <time>2015-10-10T14:07:56Z</time>
      </trkpt>
      <trkpt lat="47.6496" lon="-3.37609">
        <ele>-2.75</ele>
        <time>2015-10-10T14:07:57Z</time>
      </trkpt>
      <trkpt lat="47.64958" lon="-3.37609">
        <ele>-2.75</ele>
        <time>2015-10-10T14:07:58Z</time>
      </trkpt>
      <trkpt lat="47.64955" lon="-3.37609">
        <ele>-2.75</ele>
        <time>2015-10-10T14:07:59Z</time>
      </trkpt>
      <trkpt lat="47.64952" lon="-3.3761">
        <ele>-2.75</ele>
        <time>2015-10-10T14:08:00Z</time>
      </trkpt>
      <trkpt lat="47.6495" lon="-3.3761">
        <ele>-2.75</ele>
        <time>2015-10-10T14:08:01Z</time>
      </trkpt>
      <trkpt lat="47.64947" lon="-3.3761">
        <ele>-2.75</ele>
        <time>2015-10-10T14:08:02Z</time>
      </trkpt>
      <trkpt lat="47.64944" lon="-3.3761">
        <ele>-2.75</ele>
        <time>2015-10-10T14:08:03Z</time>
      </trkpt>
      <trkpt lat="47.64942" lon="-3.3761">
        <ele>-2.75</ele>
        <time>2015-10-10T14:08:04Z</time>
      </trkpt>
      <trkpt lat="47.64939" lon="-3.3761">
        <ele>-2.75</ele>
        <time>2015-10-10T14:08:05Z</time>
      </trkpt>
      <trkpt lat="47.64937" lon="-3.3761">
        <ele>-2.75</ele>
        <time>2015-10-10T14:08:06Z</time>
      </trkpt>
      <trkpt lat="47.64934" lon="-3.3761">
        <ele>-2.75</ele>
        <time>2015-10-10T14:08:07Z</time>
      </trkpt>
      <trkpt lat="47.64931" lon="-3.37611">
        <ele>-2.75</ele>
        <time>2015-10-10T14:08:08Z</time>
      </trkpt>
      <trkpt lat="47.64929" lon="-3.37611">
        <ele>-2.75</ele>
        <time>2015-10-10T14:08:09Z</time>
      </trkpt>
      <trkpt lat="47.64926" lon="-3.37612">
        <ele>-2.75</ele>
        <time>2015-10-10T14:08:10Z</time>
      </trkpt>
      <trkpt lat="47.64924" lon="-3.37612">
        <ele>-2.75</ele>
        <time>2015-10-10T14:08:11Z</time>
      </trkpt>
      <trkpt lat="47.64921" lon="-3.37612">
        <ele>-2.75</ele>
        <time>2015-10-10T14:08:12Z</time>
      </trkpt>
      <trkpt lat="47.64918" lon="-3.37612">
        <ele>-2.75</ele>
        <time>2015-10-10T14:08:13Z</time>
      </trkpt>
      <trkpt lat="47.64916" lon="-3.37612">
        <ele>-2.75</ele>
        <time>2015-10-10T14:08:14Z</time>
      </trkpt>
      <trkpt lat="47.64913" lon="-3.37612">
        <ele>-2.75</ele>
        <time>2015-10-10T14:08:15Z</time>
      </trkpt>
      <trkpt lat="47.64911" lon="-3.37613">
        <ele>-2.75</ele>
        <time>2015-10-10T14:08:16Z</time>
      </trkpt>
      <trkpt lat="47.64908" lon="-3.37613">
        <ele>-2.75</ele>
        <time>2015-10-10T14:08:17Z</time>
      </trkpt>
      <trkpt lat="47.64905" lon="-3.37613">
        <ele>-2.75</ele>
        <time>2015-10-10T14:08:18Z</time>
      </trkpt>
      <trkpt lat="47.64903" lon="-3.37613">
        <ele>-2.75</ele>
        <time>2015-10-10T14:08:19Z</time>
      </trkpt>
      <trkpt lat="47.649" lon="-3.37613">
        <ele>-2.75</ele>
        <time>2015-10-10T14:08:20Z</time>
      </trkpt>
      <trkpt lat="47.64898" lon="-3.37613">
        <ele>-2.75</ele>
        <time>2015-10-10T14:08:21Z</time>
      </trkpt>
      <trkpt lat="47.64895" lon="-3.37614">
        <ele>-2.75</ele>
        <time>2015-10-10T14:08:22Z</time>
      </trkpt>
      <trkpt lat="47.64893" lon="-3.37614">
        <ele>-2.75</ele>
        <time>2015-10-10T14:08:23Z</time>
      </trkpt>
      <trkpt lat="47.6489" lon="-3.37614">
        <ele>-2.75</ele>
        <time>2015-10-10T14:08:24Z</time>
      </trkpt>
      <trkpt lat="47.64887" lon="-3.37615">
        <ele>-2.75</ele>
        <time>2015-10-10T14:08:25Z</time>
      </trkpt>
      <trkpt lat="47.64885" lon="-3.37615">
        <ele>-2.75</ele>
        <time>2015-10-10T14:08:26Z</time>
      </trkpt>
      <trkpt lat="47.64882" lon="-3.37616">
        <ele>-2.75</ele>
        <time>2015-10-10T14:08:27Z</time>
      </trkpt>
      <trkpt lat="47.64879" lon="-3.37616">
        <ele>-2.75</ele>
        <time>2015-10-10T14:08:28Z</time>
      </trkpt>
      <trkpt lat="47.64877" lon="-3.37617">
        <ele>-2.75</ele>
        <time>2015-10-10T14:08:29Z</time>
      </trkpt>
      <trkpt lat="47.64874" lon="-3.37618">
        <ele>-2.75</ele>
        <time>2015-10-10T14:08:30Z</time>
      </trkpt>
      <trkpt lat="47.64871" lon="-3.37619">
        <ele>-2.75</ele>
        <time>2015-10-10T14:08:31Z</time>
      </trkpt>
      <trkpt lat="47.64869" lon="-3.3762">
        <ele>-2.75</ele>
        <time>2015-10-10T14:08:32Z</time>
      </trkpt>
      <trkpt lat="47.64866" lon="-3.37621">
        <ele>-2.75</ele>
        <time>2015-10-10T14:08:33Z</time>
      </trkpt>
      <trkpt lat="47.64864" lon="-3.37621">
        <ele>-2.75</ele>
        <time>2015-10-10T14:08:34Z</time>
      </trkpt>
      <trkpt lat="47.64861" lon="-3.37622">
        <ele>-2.75</ele>
        <time>2015-10-10T14:08:35Z</time>
      </trkpt>
      <trkpt lat="47.64859" lon="-3.37622">
        <ele>-2.75</ele>
        <time>2015-10-10T14:08:36Z</time>
      </trkpt>
      <trkpt lat="47.64856" lon="-3.37623">
        <ele>-2.75</ele>
        <time>2015-10-10T14:08:37Z</time>
      </trkpt>
      <trkpt lat="47.64854" lon="-3.37623">
        <ele>-2.75</ele>
        <time>2015-10-10T14:08:38Z</time>
      </trkpt>
      <trkpt lat="47.64851" lon="-3.37623">
        <ele>-2.75</ele>
        <time>2015-10-10T14:08:39Z</time>
      </trkpt>
      <trkpt lat="47.64848" lon="-3.37624">
        <ele>-2.75</ele>
        <time>2015-10-10T14:08:40Z</time>
      </trkpt>
      <trkpt lat="47.64845" lon="-3.37624">
        <ele>-2.75</ele>
        <time>2015-10-10T14:08:41Z</time>
      </trkpt>
      <trkpt lat="47.64843" lon="-3.37625">
        <ele>-2.75</ele>
        <time>2015-10-10T14:08:42Z</time>
      </trkpt>
      <trkpt lat="47.6484" lon="-3.37626">
        <ele>-2.75</ele>
        <time>2015-10-10T14:08:43Z</time>
      </trkpt>
      <trkpt lat="47.64838" lon="-3.37626">
        <ele>-2.75</ele>
        <time>2015-10-10T14:08:44Z</time>
      </trkpt>
      <trkpt lat="47.64835" lon="-3.37627">
        <ele>-2.75</ele>
        <time>2015-10-10T14:08:45Z</time>
      </trkpt>
      <trkpt lat="47.64832" lon="-3.37627">
        <ele>-2.75</ele>
        <time>2015-10-10T14:08:46Z</time>
      </trkpt>
      <trkpt lat="47.6483" lon="-3.37627">
        <ele>-2.75</ele>
        <time>2015-10-10T14:08:47Z</time>
      </trkpt>
      <trkpt lat="47.64827" lon="-3.37628">
        <ele>-2.75</ele>
        <time>2015-10-10T14:08:48Z</time>
      </trkpt>
      <trkpt lat="47.64825" lon="-3.37628">
        <ele>-2.75</ele>
        <time>2015-10-10T14:08:49Z</time>
      </trkpt>
      <trkpt lat="47.64823" lon="-3.37629">
        <ele>-2.75</ele>
        <time>2015-10-10T14:08:50Z</time>
      </trkpt>
      <trkpt lat="47.6482" lon="-3.3763">
        <ele>-2.75</ele>
        <time>2015-10-10T14:08:51Z</time>
      </trkpt>
      <trkpt lat="47.64818" lon="-3.3763">
        <ele>-2.75</ele>
        <time>2015-10-10T14:08:52Z</time>
      </trkpt>
      <trkpt lat="47.64815" lon="-3.3763">
        <ele>-2.75</ele>
        <time>2015-10-10T14:08:53Z</time>
      </trkpt>
      <trkpt lat="47.64813" lon="-3.3763">
        <ele>-2.75</ele>
        <time>2015-10-10T14:08:54Z</time>
      </trkpt>
      <trkpt lat="47.6481" lon="-3.3763">
        <ele>-2.75</ele>
        <time>2015-10-10T14:08:55Z</time>
      </trkpt>
      <trkpt lat="47.64808" lon="-3.3763">
        <ele>-2.75</ele>
        <time>2015-10-10T14:08:56Z</time>
      </trkpt>
      <trkpt lat="47.64805" lon="-3.3763">
        <ele>-2.75</ele>
        <time>2015-10-10T14:08:57Z</time>
      </trkpt>
      <trkpt lat="47.64802" lon="-3.37631">
        <ele>-2.75</ele>
        <time>2015-10-10T14:08:58Z</time>
      </trkpt>
      <trkpt lat="47.648" lon="-3.37631">
        <ele>-2.75</ele>
        <time>2015-10-10T14:08:59Z</time>
      </trkpt>
      <trkpt lat="47.64797" lon="-3.37632">
        <ele>-2.75</ele>
        <time>2015-10-10T14:09:00Z</time>
      </trkpt>
      <trkpt lat="47.64794" lon="-3.37633">
        <ele>-2.75</ele>
        <time>2015-10-10T14:09:01Z</time>
      </trkpt>
      <trkpt lat="47.64791" lon="-3.37634">
        <ele>-2.75</ele>
        <time>2015-10-10T14:09:02Z</time>
      </trkpt>
      <trkpt lat="47.64789" lon="-3.37634">
        <ele>-2.75</ele>
        <time>2015-10-10T14:09:03Z</time>
      </trkpt>
      <trkpt lat="47.64786" lon="-3.37635">
        <ele>-2.75</ele>
        <time>2015-10-10T14:09:04Z</time>
      </trkpt>
      <trkpt lat="47.64784" lon="-3.37636">
        <ele>-2.75</ele>
        <time>2015-10-10T14:09:05Z</time>
      </trkpt>
      <trkpt lat="47.64782" lon="-3.37637">
        <ele>-2.75</ele>
        <time>2015-10-10T14:09:06Z</time>
      </trkpt>
      <trkpt lat="47.64779" lon="-3.37639">
        <ele>-2.75</ele>
        <time>2015-10-10T14:09:07Z</time>
      </trkpt>
      <trkpt lat="47.64776" lon="-3.3764">
        <ele>-2.75</ele>
        <time>2015-10-10T14:09:08Z</time>
      </trkpt>
      <trkpt lat="47.64773" lon="-3.3764">
        <ele>-2.75</ele>
        <time>2015-10-10T14:09:09Z</time>
      </trkpt>
      <trkpt lat="47.64771" lon="-3.37641">
        <ele>-3.71</ele>
        <time>2015-10-10T14:09:10Z</time>
      </trkpt>
      <trkpt lat="47.64768" lon="-3.37643">
        <ele>-3.71</ele>
        <time>2015-10-10T14:09:11Z</time>
      </trkpt>
      <trkpt lat="47.64765" lon="-3.37644">
        <ele>-2.27</ele>
        <time>2015-10-10T14:09:12Z</time>
      </trkpt>
      <trkpt lat="47.64763" lon="-3.37644">
        <ele>-2.27</ele>
        <time>2015-10-10T14:09:13Z</time>
      </trkpt>
      <trkpt lat="47.6476" lon="-3.37644">
        <ele>-2.27</ele>
        <time>2015-10-10T14:09:14Z</time>
      </trkpt>
      <trkpt lat="47.64757" lon="-3.37644">
        <ele>-1.79</ele>
        <time>2015-10-10T14:09:15Z</time>
      </trkpt>
      <trkpt lat="47.64755" lon="-3.37644">
        <ele>-1.79</ele>
        <time>2015-10-10T14:09:16Z</time>
      </trkpt>
      <trkpt lat="47.64752" lon="-3.37644">
        <ele>-1.79</ele>
        <time>2015-10-10T14:09:17Z</time>
      </trkpt>
      <trkpt lat="47.64749" lon="-3.37644">
        <ele>-1.79</ele>
        <time>2015-10-10T14:09:18Z</time>
      </trkpt>
      <trkpt lat="47.64746" lon="-3.37644">
        <ele>-1.79</ele>
        <time>2015-10-10T14:09:19Z</time>
      </trkpt>
      <trkpt lat="47.64743" lon="-3.37644">
        <ele>-2.75</ele>
        <time>2015-10-10T14:09:20Z</time>
      </trkpt>
      <trkpt lat="47.64741" lon="-3.37645">
        <ele>-2.75</ele>
        <time>2015-10-10T14:09:21Z</time>
      </trkpt>
      <trkpt lat="47.64738" lon="-3.37646">
        <ele>-2.75</ele>
        <time>2015-10-10T14:09:22Z</time>
      </trkpt>
      <trkpt lat="47.64735" lon="-3.37646">
        <ele>-2.75</ele>
        <time>2015-10-10T14:09:23Z</time>
      </trkpt>
      <trkpt lat="47.64732" lon="-3.37646">
        <ele>-2.75</ele>
        <time>2015-10-10T14:09:24Z</time>
      </trkpt>
      <trkpt lat="47.6473" lon="-3.37647">
        <ele>-2.75</ele>
        <time>2015-10-10T14:09:25Z</time>
      </trkpt>
      <trkpt lat="47.64727" lon="-3.37647">
        <ele>-2.75</ele>
        <time>2015-10-10T14:09:26Z</time>
      </trkpt>
      <trkpt lat="47.64724" lon="-3.37648">
        <ele>-2.75</ele>
        <time>2015-10-10T14:09:27Z</time>
      </trkpt>
      <trkpt lat="47.64721" lon="-3.37649">
        <ele>-2.75</ele>
        <time>2015-10-10T14:09:28Z</time>
      </trkpt>
      <trkpt lat="47.64719" lon="-3.37649">
        <ele>-2.75</ele>
        <time>2015-10-10T14:09:29Z</time>
      </trkpt>
      <trkpt lat="47.64716" lon="-3.37649">
        <ele>-2.75</ele>
        <time>2015-10-10T14:09:30Z</time>
      </trkpt>
      <trkpt lat="47.64713" lon="-3.3765">
        <ele>-2.75</ele>
        <time>2015-10-10T14:09:31Z</time>
      </trkpt>
      <trkpt lat="47.6471" lon="-3.37651">
        <ele>-2.75</ele>
        <time>2015-10-10T14:09:32Z</time>
      </trkpt>
      <trkpt lat="47.64708" lon="-3.37652">
        <ele>-2.75</ele>
        <time>2015-10-10T14:09:33Z</time>
      </trkpt>
      <trkpt lat="47.64705" lon="-3.37653">
        <ele>-2.75</ele>
        <time>2015-10-10T14:09:34Z</time>
      </trkpt>
      <trkpt lat="47.64703" lon="-3.37653">
        <ele>-2.75</ele>
        <time>2015-10-10T14:09:35Z</time>
      </trkpt>
      <trkpt lat="47.647" lon="-3.37654">
        <ele>-2.75</ele>
        <time>2015-10-10T14:09:36Z</time>
      </trkpt>
      <trkpt lat="47.64698" lon="-3.37655">
        <ele>-2.75</ele>
        <time>2015-10-10T14:09:37Z</time>
      </trkpt>
      <trkpt lat="47.64695" lon="-3.37656">
        <ele>-2.75</ele>
        <time>2015-10-10T14:09:38Z</time>
      </trkpt>
      <trkpt lat="47.64692" lon="-3.37657">
        <ele>-2.75</ele>
        <time>2015-10-10T14:09:39Z</time>
      </trkpt>
      <trkpt lat="47.6469" lon="-3.37658">
        <ele>-2.75</ele>
        <time>2015-10-10T14:09:40Z</time>
      </trkpt>
      <trkpt lat="47.64688" lon="-3.37659">
        <ele>-2.75</ele>
        <time>2015-10-10T14:09:41Z</time>
      </trkpt>
      <trkpt lat="47.64685" lon="-3.3766">
        <ele>-2.75</ele>
        <time>2015-10-10T14:09:42Z</time>
      </trkpt>
      <trkpt lat="47.64683" lon="-3.37661">
        <ele>-2.75</ele>
        <time>2015-10-10T14:09:43Z</time>
      </trkpt>
      <trkpt lat="47.6468" lon="-3.37662">
        <ele>-2.75</ele>
        <time>2015-10-10T14:09:44Z</time>
      </trkpt>
      <trkpt lat="47.64677" lon="-3.37663">
        <ele>-2.75</ele>
        <time>2015-10-10T14:09:45Z</time>
      </trkpt>
      <trkpt lat="47.64675" lon="-3.37664">
        <ele>-2.75</ele>
        <time>2015-10-10T14:09:46Z</time>
      </trkpt>
      <trkpt lat="47.64672" lon="-3.37664">
        <ele>-2.75</ele>
        <time>2015-10-10T14:09:47Z</time>
      </trkpt>
      <trkpt lat="47.6467" lon="-3.37665">
        <ele>-2.75</ele>
        <time>2015-10-10T14:09:48Z</time>
      </trkpt>
      <trkpt lat="47.64668" lon="-3.37666">
        <ele>-2.75</ele>
        <time>2015-10-10T14:09:49Z</time>
      </trkpt>
      <trkpt lat="47.64665" lon="-3.37667">
        <ele>-2.75</ele>
        <time>2015-10-10T14:09:50Z</time>
      </trkpt>
      <trkpt lat="47.64663" lon="-3.37669">
        <ele>-2.75</ele>
        <time>2015-10-10T14:09:51Z</time>
      </trkpt>
      <trkpt lat="47.6466" lon="-3.3767">
        <ele>-2.75</ele>
        <time>2015-10-10T14:09:52Z</time>
      </trkpt>
      <trkpt lat="47.64658" lon="-3.37671">
        <ele>-2.75</ele>
        <time>2015-10-10T14:09:53Z</time>
      </trkpt>
      <trkpt lat="47.64655" lon="-3.37672">
        <ele>-2.75</ele>
        <time>2015-10-10T14:09:54Z</time>
      </trkpt>
      <trkpt lat="47.64652" lon="-3.37673">
        <ele>-2.75</ele>
        <time>2015-10-10T14:09:55Z</time>
      </trkpt>
      <trkpt lat="47.6465" lon="-3.37674">
        <ele>-2.75</ele>
        <time>2015-10-10T14:09:56Z</time>
      </trkpt>
      <trkpt lat="47.64647" lon="-3.37675">
        <ele>-2.75</ele>
        <time>2015-10-10T14:09:57Z</time>
      </trkpt>
      <trkpt lat="47.64645" lon="-3.37676">
        <ele>-2.75</ele>
        <time>2015-10-10T14:09:58Z</time>
      </trkpt>
      <trkpt lat="47.64642" lon="-3.37677">
        <ele>-2.75</ele>
        <time>2015-10-10T14:09:59Z</time>
      </trkpt>
      <trkpt lat="47.6464" lon="-3.37678">
        <ele>-2.75</ele>
        <time>2015-10-10T14:10:00Z</time>
      </trkpt>
      <trkpt lat="47.64638" lon="-3.37679">
        <ele>-2.75</ele>
        <time>2015-10-10T14:10:01Z</time>
      </trkpt>
      <trkpt lat="47.64635" lon="-3.3768">
        <ele>-2.75</ele>
        <time>2015-10-10T14:10:02Z</time>
      </trkpt>
      <trkpt lat="47.64633" lon="-3.37681">
        <ele>-2.75</ele>
        <time>2015-10-10T14:10:03Z</time>
      </trkpt>
      <trkpt lat="47.6463" lon="-3.37682">
        <ele>-2.75</ele>
        <time>2015-10-10T14:10:04Z</time>
      </trkpt>
      <trkpt lat="47.64628" lon="-3.37683">
        <ele>-2.75</ele>
        <time>2015-10-10T14:10:05Z</time>
      </trkpt>
      <trkpt lat="47.64625" lon="-3.37684">
        <ele>-2.75</ele>
        <time>2015-10-10T14:10:06Z</time>
      </trkpt>
      <trkpt lat="47.64623" lon="-3.37685">
        <ele>-3.71</ele>
        <time>2015-10-10T14:10:07Z</time>
      </trkpt>
      <trkpt lat="47.64621" lon="-3.37687">
        <ele>-3.71</ele>
        <time>2015-10-10T14:10:08Z</time>
      </trkpt>
      <trkpt lat="47.64618" lon="-3.37688">
        <ele>-3.71</ele>
        <time>2015-10-10T14:10:09Z</time>
      </trkpt>
      <trkpt lat="47.64615" lon="-3.37689">
        <ele>-3.71</ele>
        <time>2015-10-10T14:10:10Z</time>
      </trkpt>
      <trkpt lat="47.64613" lon="-3.3769">
        <ele>-3.71</ele>
        <time>2015-10-10T14:10:11Z</time>
      </trkpt>
      <trkpt lat="47.6461" lon="-3.37691">
        <ele>-3.71</ele>
        <time>2015-10-10T14:10:12Z</time>
      </trkpt>
      <trkpt lat="47.64607" lon="-3.37692">
        <ele>-3.71</ele>
        <time>2015-10-10T14:10:13Z</time>
      </trkpt>
      <trkpt lat="47.64605" lon="-3.37693">
        <ele>-3.71</ele>
        <time>2015-10-10T14:10:14Z</time>
      </trkpt>
      <trkpt lat="47.64602" lon="-3.37694">
        <ele>-3.71</ele>
        <time>2015-10-10T14:10:15Z</time>
      </trkpt>
      <trkpt lat="47.646" lon="-3.37696">
        <ele>-3.71</ele>
        <time>2015-10-10T14:10:16Z</time>
      </trkpt>
      <trkpt lat="47.64598" lon="-3.37698">
        <ele>-3.71</ele>
        <time>2015-10-10T14:10:17Z</time>
      </trkpt>
      <trkpt lat="47.64596" lon="-3.377">
        <ele>-1.79</ele>
        <time>2015-10-10T14:10:18Z</time>
      </trkpt>
      <trkpt lat="47.64593" lon="-3.37701">
        <ele>-1.79</ele>
        <time>2015-10-10T14:10:19Z</time>
      </trkpt>
      <trkpt lat="47.64591" lon="-3.37702">
        <ele>-1.79</ele>
        <time>2015-10-10T14:10:20Z</time>
      </trkpt>
      <trkpt lat="47.64588" lon="-3.37703">
        <ele>-1.79</ele>
        <time>2015-10-10T14:10:21Z</time>
      </trkpt>
      <trkpt lat="47.64585" lon="-3.37704">
        <ele>-1.79</ele>
        <time>2015-10-10T14:10:22Z</time>
      </trkpt>
      <trkpt lat="47.64583" lon="-3.37705">
        <ele>-3.23</ele>
        <time>2015-10-10T14:10:23Z</time>
      </trkpt>
      <trkpt lat="47.6458" lon="-3.37707">
        <ele>-3.71</ele>
        <time>2015-10-10T14:10:24Z</time>
      </trkpt>
      <trkpt lat="47.64578" lon="-3.37708">
        <ele>-3.71</ele>
        <time>2015-10-10T14:10:25Z</time>
      </trkpt>
      <trkpt lat="47.64575" lon="-3.3771">
        <ele>-3.71</ele>
        <time>2015-10-10T14:10:26Z</time>
      </trkpt>
      <trkpt lat="47.64572" lon="-3.37711">
        <ele>-3.71</ele>
        <time>2015-10-10T14:10:27Z</time>
      </trkpt>
      <trkpt lat="47.6457" lon="-3.37712">
        <ele>-3.71</ele>
        <time>2015-10-10T14:10:28Z</time>
      </trkpt>
      <trkpt lat="47.64568" lon="-3.37712">
        <ele>-2.27</ele>
        <time>2015-10-10T14:10:29Z</time>
      </trkpt>
      <trkpt lat="47.64565" lon="-3.37712">
        <ele>-2.27</ele>
        <time>2015-10-10T14:10:30Z</time>
      </trkpt>
      <trkpt lat="47.64563" lon="-3.37712">
        <ele>-1.79</ele>
        <time>2015-10-10T14:10:31Z</time>
      </trkpt>
      <trkpt lat="47.6456" lon="-3.37712">
        <ele>-1.79</ele>
        <time>2015-10-10T14:10:32Z</time>
      </trkpt>
      <trkpt lat="47.64558" lon="-3.37713">
        <ele>-1.79</ele>
        <time>2015-10-10T14:10:33Z</time>
      </trkpt>
      <trkpt lat="47.64556" lon="-3.37714">
        <ele>-1.79</ele>
        <time>2015-10-10T14:10:34Z</time>
      </trkpt>
      <trkpt lat="47.64553" lon="-3.37714">
        <ele>-1.79</ele>
        <time>2015-10-10T14:10:35Z</time>
      </trkpt>
      <trkpt lat="47.6455" lon="-3.37714">
        <ele>-1.79</ele>
        <time>2015-10-10T14:10:36Z</time>
      </trkpt>
      <trkpt lat="47.64548" lon="-3.37715">
        <ele>-3.23</ele>
        <time>2015-10-10T14:10:37Z</time>
      </trkpt>
      <trkpt lat="47.64545" lon="-3.37715">
        <ele>-3.23</ele>
        <time>2015-10-10T14:10:38Z</time>
      </trkpt>
      <trkpt lat="47.64542" lon="-3.37716">
        <ele>-3.23</ele>
        <time>2015-10-10T14:10:39Z</time>
      </trkpt>
      <trkpt lat="47.64539" lon="-3.37716">
        <ele>-2.75</ele>
        <time>2015-10-10T14:10:40Z</time>
      </trkpt>
      <trkpt lat="47.64536" lon="-3.37716">
        <ele>-2.75</ele>
        <time>2015-10-10T14:10:41Z</time>
      </trkpt>
      <trkpt lat="47.64534" lon="-3.37717">
        <ele>-2.75</ele>
        <time>2015-10-10T14:10:42Z</time>
      </trkpt>
      <trkpt lat="47.64531" lon="-3.37718">
        <ele>-2.75</ele>
        <time>2015-10-10T14:10:43Z</time>
      </trkpt>
      <trkpt lat="47.64529" lon="-3.37719">
        <ele>-2.75</ele>
        <time>2015-10-10T14:10:44Z</time>
      </trkpt>
      <trkpt lat="47.64526" lon="-3.3772">
        <ele>-2.75</ele>
        <time>2015-10-10T14:10:45Z</time>
      </trkpt>
      <trkpt lat="47.64524" lon="-3.3772">
        <ele>-2.75</ele>
        <time>2015-10-10T14:10:46Z</time>
      </trkpt>
      <trkpt lat="47.64521" lon="-3.37721">
        <ele>-2.75</ele>
        <time>2015-10-10T14:10:47Z</time>
      </trkpt>
      <trkpt lat="47.64518" lon="-3.37721">
        <ele>-2.75</ele>
        <time>2015-10-10T14:10:48Z</time>
      </trkpt>
      <trkpt lat="47.64516" lon="-3.37721">
        <ele>-3.23</ele>
        <time>2015-10-10T14:10:49Z</time>
      </trkpt>
      <trkpt lat="47.64513" lon="-3.37722">
        <ele>-3.23</ele>
        <time>2015-10-10T14:10:50Z</time>
      </trkpt>
      <trkpt lat="47.6451" lon="-3.37722">
        <ele>-3.23</ele>
        <time>2015-10-10T14:10:51Z</time>
      </trkpt>
      <trkpt lat="47.64508" lon="-3.37723">
        <ele>-3.23</ele>
        <time>2015-10-10T14:10:52Z</time>
      </trkpt>
      <trkpt lat="47.64505" lon="-3.37724">
        <ele>-3.23</ele>
        <time>2015-10-10T14:10:53Z</time>
      </trkpt>
      <trkpt lat="47.64502" lon="-3.37725">
        <ele>-3.23</ele>
        <time>2015-10-10T14:10:54Z</time>
      </trkpt>
      <trkpt lat="47.645" lon="-3.37726">
        <ele>-3.23</ele>
        <time>2015-10-10T14:10:55Z</time>
      </trkpt>
      <trkpt lat="47.64497" lon="-3.37726">
        <ele>-3.23</ele>
        <time>2015-10-10T14:10:56Z</time>
      </trkpt>
      <trkpt lat="47.64494" lon="-3.37727">
        <ele>-3.23</ele>
        <time>2015-10-10T14:10:57Z</time>
      </trkpt>
      <trkpt lat="47.64492" lon="-3.37727">
        <ele>-3.23</ele>
        <time>2015-10-10T14:10:58Z</time>
      </trkpt>
      <trkpt lat="47.64489" lon="-3.37728">
        <ele>-3.23</ele>
        <time>2015-10-10T14:10:59Z</time>
      </trkpt>
      <trkpt lat="47.64487" lon="-3.37729">
        <ele>-3.23</ele>
        <time>2015-10-10T14:11:00Z</time>
      </trkpt>
      <trkpt lat="47.64484" lon="-3.3773">
        <ele>-3.23</ele>
        <time>2015-10-10T14:11:01Z</time>
      </trkpt>
      <trkpt lat="47.64482" lon="-3.37732">
        <ele>-3.23</ele>
        <time>2015-10-10T14:11:02Z</time>
      </trkpt>
      <trkpt lat="47.64479" lon="-3.37733">
        <ele>-3.23</ele>
        <time>2015-10-10T14:11:03Z</time>
      </trkpt>
      <trkpt lat="47.64477" lon="-3.37734">
        <ele>-3.23</ele>
        <time>2015-10-10T14:11:04Z</time>
      </trkpt>
      <trkpt lat="47.64474" lon="-3.37734">
        <ele>-3.71</ele>
        <time>2015-10-10T14:11:05Z</time>
      </trkpt>
      <trkpt lat="47.64472" lon="-3.37735">
        <ele>-3.23</ele>
        <time>2015-10-10T14:11:06Z</time>
      </trkpt>
      <trkpt lat="47.64469" lon="-3.37735">
        <ele>-3.23</ele>
        <time>2015-10-10T14:11:07Z</time>
      </trkpt>
      <trkpt lat="47.64466" lon="-3.37735">
        <ele>-3.71</ele>
        <time>2015-10-10T14:11:08Z</time>
      </trkpt>
      <trkpt lat="47.64464" lon="-3.37736">
        <ele>-3.71</ele>
        <time>2015-10-10T14:11:09Z</time>
      </trkpt>
      <trkpt lat="47.64461" lon="-3.37737">
        <ele>-3.71</ele>
        <time>2015-10-10T14:11:10Z</time>
      </trkpt>
      <trkpt lat="47.64459" lon="-3.37738">
        <ele>-3.71</ele>
        <time>2015-10-10T14:11:11Z</time>
      </trkpt>
      <trkpt lat="47.64456" lon="-3.37739">
        <ele>-3.23</ele>
        <time>2015-10-10T14:11:12Z</time>
      </trkpt>
      <trkpt lat="47.64453" lon="-3.37739">
        <ele>-3.71</ele>
        <time>2015-10-10T14:11:13Z</time>
      </trkpt>
      <trkpt lat="47.6445" lon="-3.3774">
        <ele>-3.23</ele>
        <time>2015-10-10T14:11:14Z</time>
      </trkpt>
      <trkpt lat="47.64448" lon="-3.37741">
        <ele>-3.23</ele>
        <time>2015-10-10T14:11:15Z</time>
      </trkpt>
      <trkpt lat="47.64445" lon="-3.37741">
        <ele>-3.23</ele>
        <time>2015-10-10T14:11:16Z</time>
      </trkpt>
      <trkpt lat="47.64443" lon="-3.37742">
        <ele>-3.23</ele>
        <time>2015-10-10T14:11:17Z</time>
      </trkpt>
      <trkpt lat="47.6444" lon="-3.37742">
        <ele>-3.23</ele>
        <time>2015-10-10T14:11:18Z</time>
      </trkpt>
      <trkpt lat="47.64438" lon="-3.37742">
        <ele>-3.23</ele>
        <time>2015-10-10T14:11:19Z</time>
      </trkpt>
      <trkpt lat="47.64436" lon="-3.37743">
        <ele>-3.23</ele>
        <time>2015-10-10T14:11:20Z</time>
      </trkpt>
      <trkpt lat="47.64434" lon="-3.37745">
        <ele>-3.23</ele>
        <time>2015-10-10T14:11:21Z</time>
      </trkpt>
      <trkpt lat="47.64431" lon="-3.37746">
        <ele>-3.23</ele>
        <time>2015-10-10T14:11:22Z</time>
      </trkpt>
      <trkpt lat="47.64428" lon="-3.37746">
        <ele>-3.23</ele>
        <time>2015-10-10T14:11:23Z</time>
      </trkpt>
      <trkpt lat="47.64426" lon="-3.37746">
        <ele>-3.23</ele>
        <time>2015-10-10T14:11:24Z</time>
      </trkpt>
      <trkpt lat="47.64423" lon="-3.37747">
        <ele>-3.23</ele>
        <time>2015-10-10T14:11:25Z</time>
      </trkpt>
      <trkpt lat="47.64421" lon="-3.37747">
        <ele>-3.23</ele>
        <time>2015-10-10T14:11:26Z</time>
      </trkpt>
      <trkpt lat="47.64418" lon="-3.37748">
        <ele>-3.23</ele>
        <time>2015-10-10T14:11:27Z</time>
      </trkpt>
      <trkpt lat="47.64415" lon="-3.37748">
        <ele>-3.23</ele>
        <time>2015-10-10T14:11:28Z</time>
      </trkpt>
      <trkpt lat="47.64413" lon="-3.37749">
        <ele>-3.23</ele>
        <time>2015-10-10T14:11:29Z</time>
      </trkpt>
      <trkpt lat="47.6441" lon="-3.37749">
        <ele>-3.23</ele>
        <time>2015-10-10T14:11:30Z</time>
      </trkpt>
      <trkpt lat="47.64408" lon="-3.3775">
        <ele>-3.23</ele>
        <time>2015-10-10T14:11:31Z</time>
      </trkpt>
      <trkpt lat="47.64405" lon="-3.3775">
        <ele>-2.27</ele>
        <time>2015-10-10T14:11:32Z</time>
      </trkpt>
      <trkpt lat="47.64402" lon="-3.3775">
        <ele>-2.27</ele>
        <time>2015-10-10T14:11:33Z</time>
      </trkpt>
      <trkpt lat="47.644" lon="-3.37751">
        <ele>-2.27</ele>
        <time>2015-10-10T14:11:34Z</time>
      </trkpt>
      <trkpt lat="47.64397" lon="-3.37751">
        <ele>-2.27</ele>
        <time>2015-10-10T14:11:35Z</time>
      </trkpt>
      <trkpt lat="47.64394" lon="-3.37752">
        <ele>-2.27</ele>
        <time>2015-10-10T14:11:36Z</time>
      </trkpt>
      <trkpt lat="47.64391" lon="-3.37753">
        <ele>-2.27</ele>
        <time>2015-10-10T14:11:37Z</time>
      </trkpt>
      <trkpt lat="47.64389" lon="-3.37754">
        <ele>-2.27</ele>
        <time>2015-10-10T14:11:38Z</time>
      </trkpt>
      <trkpt lat="47.64386" lon="-3.37755">
        <ele>-2.27</ele>
        <time>2015-10-10T14:11:39Z</time>
      </trkpt>
      <trkpt lat="47.64383" lon="-3.37756">
        <ele>-2.27</ele>
        <time>2015-10-10T14:11:40Z</time>
      </trkpt>
      <trkpt lat="47.6438" lon="-3.37756">
        <ele>-2.27</ele>
        <time>2015-10-10T14:11:41Z</time>
      </trkpt>
      <trkpt lat="47.64377" lon="-3.37756">
        <ele>-2.27</ele>
        <time>2015-10-10T14:11:42Z</time>
      </trkpt>
      <trkpt lat="47.64375" lon="-3.37757">
        <ele>-2.27</ele>
        <time>2015-10-10T14:11:43Z</time>
      </trkpt>
      <trkpt lat="47.64372" lon="-3.37758">
        <ele>-2.27</ele>
        <time>2015-10-10T14:11:44Z</time>
      </trkpt>
      <trkpt lat="47.64369" lon="-3.37758">
        <ele>-2.27</ele>
        <time>2015-10-10T14:11:45Z</time>
      </trkpt>
      <trkpt lat="47.64366" lon="-3.37758">
        <ele>-2.27</ele>
        <time>2015-10-10T14:11:46Z</time>
      </trkpt>
      <trkpt lat="47.64363" lon="-3.37758">
        <ele>-2.27</ele>
        <time>2015-10-10T14:11:47Z</time>
      </trkpt>
      <trkpt lat="47.6436" lon="-3.37759">
        <ele>-2.27</ele>
        <time>2015-10-10T14:11:48Z</time>
      </trkpt>
      <trkpt lat="47.64358" lon="-3.3776">
        <ele>-2.27</ele>
        <time>2015-10-10T14:11:49Z</time>
      </trkpt>
      <trkpt lat="47.64355" lon="-3.3776">
        <ele>-2.27</ele>
        <time>2015-10-10T14:11:50Z</time>
      </trkpt>
      <trkpt lat="47.64352" lon="-3.37761">
        <ele>-2.27</ele>
        <time>2015-10-10T14:11:51Z</time>
      </trkpt>
      <trkpt lat="47.6435" lon="-3.37761">
        <ele>-2.27</ele>
        <time>2015-10-10T14:11:52Z</time>
      </trkpt>
      <trkpt lat="47.64347" lon="-3.37762">
        <ele>-2.27</ele>
        <time>2015-10-10T14:11:53Z</time>
      </trkpt>
      <trkpt lat="47.64344" lon="-3.37762">
        <ele>-2.27</ele>
        <time>2015-10-10T14:11:54Z</time>
      </trkpt>
      <trkpt lat="47.64342" lon="-3.37763">
        <ele>-2.27</ele>
        <time>2015-10-10T14:11:55Z</time>
      </trkpt>
      <trkpt lat="47.64339" lon="-3.37764">
        <ele>-2.27</ele>
        <time>2015-10-10T14:11:56Z</time>
      </trkpt>
      <trkpt lat="47.64336" lon="-3.37765">
        <ele>-2.27</ele>
        <time>2015-10-10T14:11:57Z</time>
      </trkpt>
      <trkpt lat="47.64334" lon="-3.37766">
        <ele>-2.27</ele>
        <time>2015-10-10T14:11:58Z</time>
      </trkpt>
      <trkpt lat="47.64331" lon="-3.37766">
        <ele>-2.27</ele>
        <time>2015-10-10T14:11:59Z</time>
      </trkpt>
      <trkpt lat="47.64328" lon="-3.37766">
        <ele>-2.27</ele>
        <time>2015-10-10T14:12:00Z</time>
      </trkpt>
      <trkpt lat="47.64326" lon="-3.37766">
        <ele>-2.27</ele>
        <time>2015-10-10T14:12:01Z</time>
      </trkpt>
      <trkpt lat="47.64323" lon="-3.37766">
        <ele>-2.27</ele>
        <time>2015-10-10T14:12:02Z</time>
      </trkpt>
      <trkpt lat="47.6432" lon="-3.37766">
        <ele>-2.27</ele>
        <time>2015-10-10T14:12:03Z</time>
      </trkpt>
      <trkpt lat="47.64318" lon="-3.37766">
        <ele>-2.27</ele>
        <time>2015-10-10T14:12:04Z</time>
      </trkpt>
      <trkpt lat="47.64315" lon="-3.37766">
        <ele>-2.27</ele>
        <time>2015-10-10T14:12:05Z</time>
      </trkpt>
      <trkpt lat="47.64312" lon="-3.37766">
        <ele>-2.27</ele>
        <time>2015-10-10T14:12:06Z</time>
      </trkpt>
      <trkpt lat="47.6431" lon="-3.37767">
        <ele>-2.27</ele>
        <time>2015-10-10T14:12:07Z</time>
      </trkpt>
      <trkpt lat="47.64307" lon="-3.37768">
        <ele>-2.27</ele>
        <time>2015-10-10T14:12:08Z</time>
      </trkpt>
      <trkpt lat="47.64305" lon="-3.37769">
        <ele>-2.27</ele>
        <time>2015-10-10T14:12:09Z</time>
      </trkpt>
      <trkpt lat="47.64302" lon="-3.37769">
        <ele>-2.27</ele>
        <time>2015-10-10T14:12:10Z</time>
      </trkpt>
      <trkpt lat="47.64299" lon="-3.37769">
        <ele>-2.27</ele>
        <time>2015-10-10T14:12:11Z</time>
      </trkpt>
      <trkpt lat="47.64297" lon="-3.3777">
        <ele>-2.27</ele>
        <time>2015-10-10T14:12:12Z</time>
      </trkpt>
      <trkpt lat="47.64294" lon="-3.3777">
        <ele>-2.27</ele>
        <time>2015-10-10T14:12:13Z</time>
      </trkpt>
      <trkpt lat="47.64292" lon="-3.37769">
        <ele>-2.27</ele>
        <time>2015-10-10T14:12:14Z</time>
      </trkpt>
      <trkpt lat="47.64289" lon="-3.3777">
        <ele>-2.27</ele>
        <time>2015-10-10T14:12:15Z</time>
      </trkpt>
      <trkpt lat="47.64286" lon="-3.3777">
        <ele>-2.27</ele>
        <time>2015-10-10T14:12:16Z</time>
      </trkpt>
      <trkpt lat="47.64283" lon="-3.3777">
        <ele>-2.27</ele>
        <time>2015-10-10T14:12:17Z</time>
      </trkpt>
      <trkpt lat="47.6428" lon="-3.3777">
        <ele>-2.27</ele>
        <time>2015-10-10T14:12:18Z</time>
      </trkpt>
      <trkpt lat="47.64278" lon="-3.3777">
        <ele>-2.27</ele>
        <time>2015-10-10T14:12:19Z</time>
      </trkpt>
      <trkpt lat="47.64275" lon="-3.37771">
        <ele>-2.27</ele>
        <time>2015-10-10T14:12:20Z</time>
      </trkpt>
      <trkpt lat="47.64272" lon="-3.37772">
        <ele>-2.27</ele>
        <time>2015-10-10T14:12:21Z</time>
      </trkpt>
      <trkpt lat="47.64269" lon="-3.37773">
        <ele>-2.27</ele>
        <time>2015-10-10T14:12:22Z</time>
      </trkpt>
      <trkpt lat="47.64267" lon="-3.37773">
        <ele>-2.27</ele>
        <time>2015-10-10T14:12:23Z</time>
      </trkpt>
      <trkpt lat="47.64264" lon="-3.37773">
        <ele>-2.27</ele>
        <time>2015-10-10T14:12:24Z</time>
      </trkpt>
      <trkpt lat="47.64261" lon="-3.37773">
        <ele>-2.27</ele>
        <time>2015-10-10T14:12:25Z</time>
      </trkpt>
      <trkpt lat="47.64259" lon="-3.37773">
        <ele>-2.27</ele>
        <time>2015-10-10T14:12:26Z</time>
      </trkpt>
      <trkpt lat="47.64256" lon="-3.37773">
        <ele>-2.27</ele>
        <time>2015-10-10T14:12:27Z</time>
      </trkpt>
      <trkpt lat="47.64254" lon="-3.37773">
        <ele>-2.27</ele>
        <time>2015-10-10T14:12:28Z</time>
      </trkpt>
      <trkpt lat="47.64251" lon="-3.37773">
        <ele>-2.27</ele>
        <time>2015-10-10T14:12:29Z</time>
      </trkpt>
      <trkpt lat="47.64248" lon="-3.37773">
        <ele>-2.27</ele>
        <time>2015-10-10T14:12:30Z</time>
      </trkpt>
      <trkpt lat="47.64246" lon="-3.37773">
        <ele>-2.27</ele>
        <time>2015-10-10T14:12:31Z</time>
      </trkpt>
      <trkpt lat="47.64243" lon="-3.37773">
        <ele>-2.27</ele>
        <time>2015-10-10T14:12:32Z</time>
      </trkpt>
      <trkpt lat="47.6424" lon="-3.37773">
        <ele>-2.27</ele>
        <time>2015-10-10T14:12:33Z</time>
      </trkpt>
      <trkpt lat="47.64238" lon="-3.37774">
        <ele>-2.27</ele>
        <time>2015-10-10T14:12:34Z</time>
      </trkpt>
      <trkpt lat="47.64235" lon="-3.37774">
        <ele>-2.27</ele>
        <time>2015-10-10T14:12:35Z</time>
      </trkpt>
      <trkpt lat="47.64232" lon="-3.37774">
        <ele>-2.27</ele>
        <time>2015-10-10T14:12:36Z</time>
      </trkpt>
      <trkpt lat="47.6423" lon="-3.37774">
        <ele>-2.27</ele>
        <time>2015-10-10T14:12:37Z</time>
      </trkpt>
      <trkpt lat="47.64227" lon="-3.37774">
        <ele>-2.27</ele>
        <time>2015-10-10T14:12:38Z</time>
      </trkpt>
      <trkpt lat="47.64224" lon="-3.37774">
        <ele>-2.27</ele>
        <time>2015-10-10T14:12:39Z</time>
      </trkpt>
      <trkpt lat="47.64221" lon="-3.37774">
        <ele>-2.27</ele>
        <time>2015-10-10T14:12:40Z</time>
      </trkpt>
      <trkpt lat="47.64218" lon="-3.37774">
        <ele>-2.27</ele>
        <time>2015-10-10T14:12:41Z</time>
      </trkpt>
      <trkpt lat="47.64215" lon="-3.37774">
        <ele>-2.27</ele>
        <time>2015-10-10T14:12:42Z</time>
      </trkpt>
      <trkpt lat="47.64213" lon="-3.37774">
        <ele>-2.27</ele>
        <time>2015-10-10T14:12:43Z</time>
      </trkpt>
      <trkpt lat="47.6421" lon="-3.37775">
        <ele>-2.27</ele>
        <time>2015-10-10T14:12:44Z</time>
      </trkpt>
      <trkpt lat="47.64207" lon="-3.37775">
        <ele>-2.27</ele>
        <time>2015-10-10T14:12:45Z</time>
      </trkpt>
      <trkpt lat="47.64205" lon="-3.37775">
        <ele>-2.27</ele>
        <time>2015-10-10T14:12:46Z</time>
      </trkpt>
      <trkpt lat="47.64202" lon="-3.37775">
        <ele>-2.27</ele>
        <time>2015-10-10T14:12:47Z</time>
      </trkpt>
      <trkpt lat="47.64199" lon="-3.37775">
        <ele>-2.27</ele>
        <time>2015-10-10T14:12:48Z</time>
      </trkpt>
      <trkpt lat="47.64196" lon="-3.37776">
        <ele>-2.27</ele>
        <time>2015-10-10T14:12:49Z</time>
      </trkpt>
      <trkpt lat="47.64194" lon="-3.37776">
        <ele>-2.27</ele>
        <time>2015-10-10T14:12:50Z</time>
      </trkpt>
      <trkpt lat="47.64191" lon="-3.37776">
        <ele>-2.75</ele>
        <time>2015-10-10T14:12:51Z</time>
      </trkpt>
      <trkpt lat="47.64188" lon="-3.37776">
        <ele>-2.27</ele>
        <time>2015-10-10T14:12:52Z</time>
      </trkpt>
      <trkpt lat="47.64186" lon="-3.37776">
        <ele>-2.75</ele>
        <time>2015-10-10T14:12:53Z</time>
      </trkpt>
      <trkpt lat="47.64183" lon="-3.37777">
        <ele>-2.27</ele>
        <time>2015-10-10T14:12:54Z</time>
      </trkpt>
      <trkpt lat="47.6418" lon="-3.37777">
        <ele>-2.27</ele>
        <time>2015-10-10T14:12:55Z</time>
      </trkpt>
      <trkpt lat="47.64177" lon="-3.37777">
        <ele>-2.27</ele>
        <time>2015-10-10T14:12:56Z</time>
      </trkpt>
      <trkpt lat="47.64175" lon="-3.37777">
        <ele>-2.27</ele>
        <time>2015-10-10T14:12:57Z</time>
      </trkpt>
      <trkpt lat="47.64172" lon="-3.37778">
        <ele>-2.27</ele>
        <time>2015-10-10T14:12:58Z</time>
      </trkpt>
      <trkpt lat="47.64169" lon="-3.37778">
        <ele>-2.27</ele>
        <time>2015-10-10T14:12:59Z</time>
      </trkpt>
      <trkpt lat="47.64166" lon="-3.37779">
        <ele>-2.27</ele>
        <time>2015-10-10T14:13:00Z</time>
      </trkpt>
      <trkpt lat="47.64163" lon="-3.37779">
        <ele>-2.27</ele>
        <time>2015-10-10T14:13:01Z</time>
      </trkpt>
      <trkpt lat="47.6416" lon="-3.37779">
        <ele>-2.27</ele>
        <time>2015-10-10T14:13:02Z</time>
      </trkpt>
      <trkpt lat="47.64157" lon="-3.37779">
        <ele>-2.27</ele>
        <time>2015-10-10T14:13:03Z</time>
      </trkpt>
      <trkpt lat="47.64154" lon="-3.37779">
        <ele>-2.27</ele>
        <time>2015-10-10T14:13:04Z</time>
      </trkpt>
      <trkpt lat="47.64151" lon="-3.37779">
        <ele>-2.27</ele>
        <time>2015-10-10T14:13:05Z</time>
      </trkpt>
      <trkpt lat="47.64149" lon="-3.37779">
        <ele>-2.27</ele>
        <time>2015-10-10T14:13:06Z</time>
      </trkpt>
      <trkpt lat="47.64146" lon="-3.37779">
        <ele>-2.27</ele>
        <time>2015-10-10T14:13:07Z</time>
      </trkpt>
      <trkpt lat="47.64144" lon="-3.37779">
        <ele>-2.27</ele>
        <time>2015-10-10T14:13:08Z</time>
      </trkpt>
      <trkpt lat="47.64141" lon="-3.37779">
        <ele>-2.27</ele>
        <time>2015-10-10T14:13:09Z</time>
      </trkpt>
      <trkpt lat="47.64138" lon="-3.37778">
        <ele>-2.27</ele>
        <time>2015-10-10T14:13:10Z</time>
      </trkpt>
      <trkpt lat="47.64135" lon="-3.37778">
        <ele>-2.27</ele>
        <time>2015-10-10T14:13:11Z</time>
      </trkpt>
      <trkpt lat="47.64132" lon="-3.37779">
        <ele>-2.27</ele>
        <time>2015-10-10T14:13:12Z</time>
      </trkpt>
      <trkpt lat="47.6413" lon="-3.37779">
        <ele>-2.27</ele>
        <time>2015-10-10T14:13:13Z</time>
      </trkpt>
      <trkpt lat="47.64127" lon="-3.3778">
        <ele>-2.27</ele>
        <time>2015-10-10T14:13:14Z</time>
      </trkpt>
      <trkpt lat="47.64124" lon="-3.3778">
        <ele>-2.27</ele>
        <time>2015-10-10T14:13:15Z</time>
      </trkpt>
      <trkpt lat="47.64121" lon="-3.3778">
        <ele>-2.27</ele>
        <time>2015-10-10T14:13:16Z</time>
      </trkpt>
      <trkpt lat="47.64119" lon="-3.3778">
        <ele>-2.27</ele>
        <time>2015-10-10T14:13:17Z</time>
      </trkpt>
      <trkpt lat="47.64116" lon="-3.3778">
        <ele>-2.27</ele>
        <time>2015-10-10T14:13:18Z</time>
      </trkpt>
      <trkpt lat="47.64113" lon="-3.3778">
        <ele>-2.27</ele>
        <time>2015-10-10T14:13:19Z</time>
      </trkpt>
      <trkpt lat="47.64111" lon="-3.37779">
        <ele>-2.27</ele>
        <time>2015-10-10T14:13:20Z</time>
      </trkpt>
      <trkpt lat="47.64108" lon="-3.37779">
        <ele>-2.27</ele>
        <time>2015-10-10T14:13:21Z</time>
      </trkpt>
      <trkpt lat="47.64105" lon="-3.37779">
        <ele>-2.27</ele>
        <time>2015-10-10T14:13:22Z</time>
      </trkpt>
      <trkpt lat="47.64102" lon="-3.37779">
        <ele>-2.27</ele>
        <time>2015-10-10T14:13:23Z</time>
      </trkpt>
      <trkpt lat="47.641" lon="-3.37779">
        <ele>-2.27</ele>
        <time>2015-10-10T14:13:24Z</time>
      </trkpt>
      <trkpt lat="47.64097" lon="-3.37779">
        <ele>-2.27</ele>
        <time>2015-10-10T14:13:25Z</time>
      </trkpt>
      <trkpt lat="47.64094" lon="-3.37778">
        <ele>-2.27</ele>
        <time>2015-10-10T14:13:26Z</time>
      </trkpt>
      <trkpt lat="47.64091" lon="-3.37778">
        <ele>-2.27</ele>
        <time>2015-10-10T14:13:27Z</time>
      </trkpt>
      <trkpt lat="47.64088" lon="-3.37778">
        <ele>-2.27</ele>
        <time>2015-10-10T14:13:28Z</time>
      </trkpt>
      <trkpt lat="47.64086" lon="-3.37778">
        <ele>-2.27</ele>
        <time>2015-10-10T14:13:29Z</time>
      </trkpt>
      <trkpt lat="47.64083" lon="-3.37778">
        <ele>-2.27</ele>
        <time>2015-10-10T14:13:30Z</time>
      </trkpt>
      <trkpt lat="47.6408" lon="-3.37778">
        <ele>-2.27</ele>
        <time>2015-10-10T14:13:31Z</time>
      </trkpt>
      <trkpt lat="47.64077" lon="-3.37778">
        <ele>-2.27</ele>
        <time>2015-10-10T14:13:32Z</time>
      </trkpt>
      <trkpt lat="47.64074" lon="-3.37777">
        <ele>-2.27</ele>
        <time>2015-10-10T14:13:33Z</time>
      </trkpt>
      <trkpt lat="47.64071" lon="-3.37777">
        <ele>-2.27</ele>
        <time>2015-10-10T14:13:34Z</time>
      </trkpt>
      <trkpt lat="47.64069" lon="-3.37776">
        <ele>-2.27</ele>
        <time>2015-10-10T14:13:35Z</time>
      </trkpt>
      <trkpt lat="47.64066" lon="-3.37775">
        <ele>-2.27</ele>
        <time>2015-10-10T14:13:36Z</time>
      </trkpt>
      <trkpt lat="47.64064" lon="-3.37775">
        <ele>-1.79</ele>
        <time>2015-10-10T14:13:37Z</time>
      </trkpt>
      <trkpt lat="47.64061" lon="-3.37775">
        <ele>-2.27</ele>
        <time>2015-10-10T14:13:38Z</time>
      </trkpt>
      <trkpt lat="47.64059" lon="-3.37775">
        <ele>-1.79</ele>
        <time>2015-10-10T14:13:39Z</time>
      </trkpt>
      <trkpt lat="47.64056" lon="-3.37775">
        <ele>-1.79</ele>
        <time>2015-10-10T14:13:40Z</time>
      </trkpt>
      <trkpt lat="47.64053" lon="-3.37775">
        <ele>-2.27</ele>
        <time>2015-10-10T14:13:41Z</time>
      </trkpt>
      <trkpt lat="47.6405" lon="-3.37775">
        <ele>-3.23</ele>
        <time>2015-10-10T14:13:42Z</time>
      </trkpt>
      <trkpt lat="47.64047" lon="-3.37775">
        <ele>-3.71</ele>
        <time>2015-10-10T14:13:43Z</time>
      </trkpt>
      <trkpt lat="47.64045" lon="-3.37775">
        <ele>-3.71</ele>
        <time>2015-10-10T14:13:44Z</time>
      </trkpt>
      <trkpt lat="47.64042" lon="-3.37775">
        <ele>-3.71</ele>
        <time>2015-10-10T14:13:45Z</time>
      </trkpt>
      <trkpt lat="47.64039" lon="-3.37775">
        <ele>-3.71</ele>
        <time>2015-10-10T14:13:46Z</time>
      </trkpt>
      <trkpt lat="47.64036" lon="-3.37775">
        <ele>-3.71</ele>
        <time>2015-10-10T14:13:47Z</time>
      </trkpt>
      <trkpt lat="47.64034" lon="-3.37775">
        <ele>-3.71</ele>
        <time>2015-10-10T14:13:48Z</time>
      </trkpt>
      <trkpt lat="47.64031" lon="-3.37775">
        <ele>-3.71</ele>
        <time>2015-10-10T14:13:49Z</time>
      </trkpt>
      <trkpt lat="47.64029" lon="-3.37776">
        <ele>-2.27</ele>
        <time>2015-10-10T14:13:50Z</time>
      </trkpt>
      <trkpt lat="47.64027" lon="-3.37776">
        <ele>-2.75</ele>
        <time>2015-10-10T14:13:51Z</time>
      </trkpt>
      <trkpt lat="47.64024" lon="-3.37777">
        <ele>-2.75</ele>
        <time>2015-10-10T14:13:52Z</time>
      </trkpt>
      <trkpt lat="47.64022" lon="-3.37777">
        <ele>-2.75</ele>
        <time>2015-10-10T14:13:53Z</time>
      </trkpt>
      <trkpt lat="47.64019" lon="-3.37776">
        <ele>-2.75</ele>
        <time>2015-10-10T14:13:54Z</time>
      </trkpt>
      <trkpt lat="47.64017" lon="-3.37776">
        <ele>-2.75</ele>
        <time>2015-10-10T14:13:55Z</time>
      </trkpt>
      <trkpt lat="47.64014" lon="-3.37776">
        <ele>-3.71</ele>
        <time>2015-10-10T14:13:56Z</time>
      </trkpt>
      <trkpt lat="47.64011" lon="-3.37776">
        <ele>-3.71</ele>
        <time>2015-10-10T14:13:57Z</time>
      </trkpt>
      <trkpt lat="47.64009" lon="-3.37776">
        <ele>-3.71</ele>
        <time>2015-10-10T14:13:58Z</time>
      </trkpt>
      <trkpt lat="47.64006" lon="-3.37776">
        <ele>-3.71</ele>
        <time>2015-10-10T14:13:59Z</time>
      </trkpt>
      <trkpt lat="47.64003" lon="-3.37777">
        <ele>-3.71</ele>
        <time>2015-10-10T14:14:00Z</time>
      </trkpt>
      <trkpt lat="47.64001" lon="-3.37777">
        <ele>-3.71</ele>
        <time>2015-10-10T14:14:01Z</time>
      </trkpt>
      <trkpt lat="47.63998" lon="-3.37777">
        <ele>-2.27</ele>
        <time>2015-10-10T14:14:02Z</time>
      </trkpt>
      <trkpt lat="47.63996" lon="-3.37776">
        <ele>-2.27</ele>
        <time>2015-10-10T14:14:03Z</time>
      </trkpt>
      <trkpt lat="47.63993" lon="-3.37775">
        <ele>-2.27</ele>
        <time>2015-10-10T14:14:04Z</time>
      </trkpt>
      <trkpt lat="47.63991" lon="-3.37775">
        <ele>-2.27</ele>
        <time>2015-10-10T14:14:05Z</time>
      </trkpt>
      <trkpt lat="47.63988" lon="-3.37774">
        <ele>-2.27</ele>
        <time>2015-10-10T14:14:06Z</time>
      </trkpt>
      <trkpt lat="47.63986" lon="-3.37774">
        <ele>-2.27</ele>
        <time>2015-10-10T14:14:07Z</time>
      </trkpt>
      <trkpt lat="47.63983" lon="-3.37774">
        <ele>-2.27</ele>
        <time>2015-10-10T14:14:08Z</time>
      </trkpt>
      <trkpt lat="47.63981" lon="-3.37774">
        <ele>-2.27</ele>
        <time>2015-10-10T14:14:09Z</time>
      </trkpt>
      <trkpt lat="47.63978" lon="-3.37773">
        <ele>-2.27</ele>
        <time>2015-10-10T14:14:10Z</time>
      </trkpt>
      <trkpt lat="47.63975" lon="-3.37773">
        <ele>-2.27</ele>
        <time>2015-10-10T14:14:11Z</time>
      </trkpt>
      <trkpt lat="47.63973" lon="-3.37774">
        <ele>-2.27</ele>
        <time>2015-10-10T14:14:12Z</time>
      </trkpt>
      <trkpt lat="47.6397" lon="-3.37774">
        <ele>-2.27</ele>
        <time>2015-10-10T14:14:13Z</time>
      </trkpt>
      <trkpt lat="47.63968" lon="-3.37774">
        <ele>-2.27</ele>
        <time>2015-10-10T14:14:14Z</time>
      </trkpt>
      <trkpt lat="47.63965" lon="-3.37774">
        <ele>-2.27</ele>
        <time>2015-10-10T14:14:15Z</time>
      </trkpt>
      <trkpt lat="47.63962" lon="-3.37775">
        <ele>-3.71</ele>
        <time>2015-10-10T14:14:16Z</time>
      </trkpt>
      <trkpt lat="47.63959" lon="-3.37775">
        <ele>-3.71</ele>
        <time>2015-10-10T14:14:17Z</time>
      </trkpt>
      <trkpt lat="47.63956" lon="-3.37775">
        <ele>-3.71</ele>
        <time>2015-10-10T14:14:18Z</time>
      </trkpt>
      <trkpt lat="47.63954" lon="-3.37775">
        <ele>-3.71</ele>
        <time>2015-10-10T14:14:19Z</time>
      </trkpt>
      <trkpt lat="47.63952" lon="-3.37775">
        <ele>-3.71</ele>
        <time>2015-10-10T14:14:20Z</time>
      </trkpt>
      <trkpt lat="47.63949" lon="-3.37774">
        <ele>-3.71</ele>
        <time>2015-10-10T14:14:21Z</time>
      </trkpt>
      <trkpt lat="47.63947" lon="-3.37774">
        <ele>-3.71</ele>
        <time>2015-10-10T14:14:22Z</time>
      </trkpt>
      <trkpt lat="47.63945" lon="-3.37773">
        <ele>-2.27</ele>
        <time>2015-10-10T14:14:23Z</time>
      </trkpt>
      <trkpt lat="47.63942" lon="-3.37773">
        <ele>-2.27</ele>
        <time>2015-10-10T14:14:24Z</time>
      </trkpt>
      <trkpt lat="47.6394" lon="-3.37772">
        <ele>-2.27</ele>
        <time>2015-10-10T14:14:25Z</time>
      </trkpt>
      <trkpt lat="47.63937" lon="-3.37772">
        <ele>-2.27</ele>
        <time>2015-10-10T14:14:26Z</time>
      </trkpt>
      <trkpt lat="47.63934" lon="-3.37772">
        <ele>-2.27</ele>
        <time>2015-10-10T14:14:27Z</time>
      </trkpt>
      <trkpt lat="47.63931" lon="-3.37772">
        <ele>-2.27</ele>
        <time>2015-10-10T14:14:28Z</time>
      </trkpt>
      <trkpt lat="47.63929" lon="-3.37772">
        <ele>-2.27</ele>
        <time>2015-10-10T14:14:29Z</time>
      </trkpt>
      <trkpt lat="47.63926" lon="-3.37771">
        <ele>-3.71</ele>
        <time>2015-10-10T14:14:30Z</time>
      </trkpt>
      <trkpt lat="47.63923" lon="-3.37772">
        <ele>-3.71</ele>
        <time>2015-10-10T14:14:31Z</time>
      </trkpt>
      <trkpt lat="47.6392" lon="-3.37771">
        <ele>-3.23</ele>
        <time>2015-10-10T14:14:32Z</time>
      </trkpt>
      <trkpt lat="47.63918" lon="-3.37771">
        <ele>-3.71</ele>
        <time>2015-10-10T14:14:33Z</time>
      </trkpt>
      <trkpt lat="47.63915" lon="-3.37771">
        <ele>-3.71</ele>
        <time>2015-10-10T14:14:34Z</time>
      </trkpt>
      <trkpt lat="47.63913" lon="-3.37771">
        <ele>-2.27</ele>
        <time>2015-10-10T14:14:35Z</time>
      </trkpt>
      <trkpt lat="47.6391" lon="-3.37771">
        <ele>-2.27</ele>
        <time>2015-10-10T14:14:36Z</time>
      </trkpt>
      <trkpt lat="47.63907" lon="-3.37771">
        <ele>-2.27</ele>
        <time>2015-10-10T14:14:37Z</time>
      </trkpt>
      <trkpt lat="47.63904" lon="-3.3777">
        <ele>-1.3</ele>
        <time>2015-10-10T14:14:38Z</time>
      </trkpt>
      <trkpt lat="47.63902" lon="-3.37769">
        <ele>-2.75</ele>
        <time>2015-10-10T14:14:39Z</time>
      </trkpt>
      <trkpt lat="47.63899" lon="-3.37769">
        <ele>-1.79</ele>
        <time>2015-10-10T14:14:40Z</time>
      </trkpt>
      <trkpt lat="47.63896" lon="-3.37768">
        <ele>-1.79</ele>
        <time>2015-10-10T14:14:41Z</time>
      </trkpt>
      <trkpt lat="47.63893" lon="-3.37767">
        <ele>-3.23</ele>
        <time>2015-10-10T14:14:42Z</time>
      </trkpt>
      <trkpt lat="47.63891" lon="-3.37767">
        <ele>-3.23</ele>
        <time>2015-10-10T14:14:43Z</time>
      </trkpt>
      <trkpt lat="47.63887" lon="-3.37767">
        <ele>-3.23</ele>
        <time>2015-10-10T14:14:44Z</time>
      </trkpt>
      <trkpt lat="47.63884" lon="-3.37767">
        <ele>-3.23</ele>
        <time>2015-10-10T14:14:45Z</time>
      </trkpt>
      <trkpt lat="47.63881" lon="-3.37767">
        <ele>-3.23</ele>
        <time>2015-10-10T14:14:46Z</time>
      </trkpt>
      <trkpt lat="47.63879" lon="-3.37766">
        <ele>-3.23</ele>
        <time>2015-10-10T14:14:47Z</time>
      </trkpt>
      <trkpt lat="47.63876" lon="-3.37766">
        <ele>-3.23</ele>
        <time>2015-10-10T14:14:48Z</time>
      </trkpt>
      <trkpt lat="47.63873" lon="-3.37766">
        <ele>-1.79</ele>
        <time>2015-10-10T14:14:49Z</time>
      </trkpt>
      <trkpt lat="47.6387" lon="-3.37765">
        <ele>-1.79</ele>
        <time>2015-10-10T14:14:50Z</time>
      </trkpt>
      <trkpt lat="47.63868" lon="-3.37763">
        <ele>-1.79</ele>
        <time>2015-10-10T14:14:51Z</time>
      </trkpt>
      <trkpt lat="47.63865" lon="-3.37762">
        <ele>-1.79</ele>
        <time>2015-10-10T14:14:52Z</time>
      </trkpt>
      <trkpt lat="47.63863" lon="-3.37762">
        <ele>-1.79</ele>
        <time>2015-10-10T14:14:53Z</time>
      </trkpt>
      <trkpt lat="47.6386" lon="-3.37762">
        <ele>-2.27</ele>
        <time>2015-10-10T14:14:54Z</time>
      </trkpt>
      <trkpt lat="47.63857" lon="-3.37761">
        <ele>-3.71</ele>
        <time>2015-10-10T14:14:55Z</time>
      </trkpt>
      <trkpt lat="47.63855" lon="-3.37761">
        <ele>-3.71</ele>
        <time>2015-10-10T14:14:56Z</time>
      </trkpt>
      <trkpt lat="47.63852" lon="-3.3776">
        <ele>-3.23</ele>
        <time>2015-10-10T14:14:57Z</time>
      </trkpt>
      <trkpt lat="47.63849" lon="-3.3776">
        <ele>-3.23</ele>
        <time>2015-10-10T14:14:58Z</time>
      </trkpt>
      <trkpt lat="47.63847" lon="-3.3776">
        <ele>-3.23</ele>
        <time>2015-10-10T14:14:59Z</time>
      </trkpt>
      <trkpt lat="47.63844" lon="-3.37759">
        <ele>-3.23</ele>
        <time>2015-10-10T14:15:00Z</time>
      </trkpt>
      <trkpt lat="47.63841" lon="-3.37759">
        <ele>-3.23</ele>
        <time>2015-10-10T14:15:01Z</time>
      </trkpt>
      <trkpt lat="47.63839" lon="-3.37759">
        <ele>-3.23</ele>
        <time>2015-10-10T14:15:02Z</time>
      </trkpt>
      <trkpt lat="47.63836" lon="-3.37759">
        <ele>-3.23</ele>
        <time>2015-10-10T14:15:03Z</time>
      </trkpt>
      <trkpt lat="47.63834" lon="-3.37759">
        <ele>-3.23</ele>
        <time>2015-10-10T14:15:04Z</time>
      </trkpt>
      <trkpt lat="47.63831" lon="-3.37759">
        <ele>-3.23</ele>
        <time>2015-10-10T14:15:05Z</time>
      </trkpt>
      <trkpt lat="47.63829" lon="-3.37758">
        <ele>-3.23</ele>
        <time>2015-10-10T14:15:06Z</time>
      </trkpt>
      <trkpt lat="47.63827" lon="-3.37757">
        <ele>-3.23</ele>
        <time>2015-10-10T14:15:07Z</time>
      </trkpt>
      <trkpt lat="47.63825" lon="-3.37755">
        <ele>-3.23</ele>
        <time>2015-10-10T14:15:08Z</time>
      </trkpt>
      <trkpt lat="47.63822" lon="-3.37753">
        <ele>-3.23</ele>
        <time>2015-10-10T14:15:09Z</time>
      </trkpt>
      <trkpt lat="47.6382" lon="-3.37752">
        <ele>-3.23</ele>
        <time>2015-10-10T14:15:10Z</time>
      </trkpt>
      <trkpt lat="47.63818" lon="-3.37751">
        <ele>-3.23</ele>
        <time>2015-10-10T14:15:11Z</time>
      </trkpt>
      <trkpt lat="47.63815" lon="-3.37751">
        <ele>-3.23</ele>
        <time>2015-10-10T14:15:12Z</time>
      </trkpt>
      <trkpt lat="47.63812" lon="-3.3775">
        <ele>-3.23</ele>
        <time>2015-10-10T14:15:13Z</time>
      </trkpt>
      <trkpt lat="47.6381" lon="-3.3775">
        <ele>-3.23</ele>
        <time>2015-10-10T14:15:14Z</time>
      </trkpt>
      <trkpt lat="47.63808" lon="-3.37749">
        <ele>-3.23</ele>
        <time>2015-10-10T14:15:15Z</time>
      </trkpt>
      <trkpt lat="47.63805" lon="-3.37749">
        <ele>-3.23</ele>
        <time>2015-10-10T14:15:16Z</time>
      </trkpt>
      <trkpt lat="47.63802" lon="-3.37749">
        <ele>-3.23</ele>
        <time>2015-10-10T14:15:17Z</time>
      </trkpt>
      <trkpt lat="47.638" lon="-3.37748">
        <ele>-3.23</ele>
        <time>2015-10-10T14:15:18Z</time>
      </trkpt>
      <trkpt lat="47.63797" lon="-3.37748">
        <ele>-3.23</ele>
        <time>2015-10-10T14:15:19Z</time>
      </trkpt>
      <trkpt lat="47.63795" lon="-3.37747">
        <ele>-3.23</ele>
        <time>2015-10-10T14:15:20Z</time>
      </trkpt>
      <trkpt lat="47.63792" lon="-3.37747">
        <ele>-3.23</ele>
        <time>2015-10-10T14:15:21Z</time>
      </trkpt>
      <trkpt lat="47.6379" lon="-3.37748">
        <ele>-3.23</ele>
        <time>2015-10-10T14:15:22Z</time>
      </trkpt>
      <trkpt lat="47.63787" lon="-3.37748">
        <ele>-3.23</ele>
        <time>2015-10-10T14:15:23Z</time>
      </trkpt>
      <trkpt lat="47.63784" lon="-3.37748">
        <ele>-3.23</ele>
        <time>2015-10-10T14:15:24Z</time>
      </trkpt>
      <trkpt lat="47.63782" lon="-3.37748">
        <ele>-3.23</ele>
        <time>2015-10-10T14:15:25Z</time>
      </trkpt>
      <trkpt lat="47.63779" lon="-3.37748">
        <ele>-3.23</ele>
        <time>2015-10-10T14:15:26Z</time>
      </trkpt>
      <trkpt lat="47.63776" lon="-3.37748">
        <ele>-3.23</ele>
        <time>2015-10-10T14:15:27Z</time>
      </trkpt>
      <trkpt lat="47.63774" lon="-3.37748">
        <ele>-3.23</ele>
        <time>2015-10-10T14:15:28Z</time>
      </trkpt>
      <trkpt lat="47.63771" lon="-3.37748">
        <ele>-3.23</ele>
        <time>2015-10-10T14:15:29Z</time>
      </trkpt>
      <trkpt lat="47.63768" lon="-3.37748">
        <ele>-3.23</ele>
        <time>2015-10-10T14:15:30Z</time>
      </trkpt>
      <trkpt lat="47.63765" lon="-3.37748">
        <ele>-3.23</ele>
        <time>2015-10-10T14:15:31Z</time>
      </trkpt>
      <trkpt lat="47.63762" lon="-3.37748">
        <ele>-3.23</ele>
        <time>2015-10-10T14:15:32Z</time>
      </trkpt>
      <trkpt lat="47.63759" lon="-3.37748">
        <ele>-3.23</ele>
        <time>2015-10-10T14:15:33Z</time>
      </trkpt>
      <trkpt lat="47.63756" lon="-3.37748">
        <ele>-3.23</ele>
        <time>2015-10-10T14:15:34Z</time>
      </trkpt>
      <trkpt lat="47.63753" lon="-3.37748">
        <ele>-3.23</ele>
        <time>2015-10-10T14:15:35Z</time>
      </trkpt>
      <trkpt lat="47.6375" lon="-3.37747">
        <ele>-3.23</ele>
        <time>2015-10-10T14:15:36Z</time>
      </trkpt>
      <trkpt lat="47.63748" lon="-3.37747">
        <ele>-2.27</ele>
        <time>2015-10-10T14:15:37Z</time>
      </trkpt>
      <trkpt lat="47.63745" lon="-3.37747">
        <ele>-2.27</ele>
        <time>2015-10-10T14:15:38Z</time>
      </trkpt>
      <trkpt lat="47.63742" lon="-3.37747">
        <ele>-2.27</ele>
        <time>2015-10-10T14:15:39Z</time>
      </trkpt>
      <trkpt lat="47.63739" lon="-3.37747">
        <ele>-2.27</ele>
        <time>2015-10-10T14:15:40Z</time>
      </trkpt>
      <trkpt lat="47.63736" lon="-3.37747">
        <ele>-2.27</ele>
        <time>2015-10-10T14:15:41Z</time>
      </trkpt>
      <trkpt lat="47.63734" lon="-3.37747">
        <ele>-2.27</ele>
        <time>2015-10-10T14:15:42Z</time>
      </trkpt>
      <trkpt lat="47.63731" lon="-3.37746">
        <ele>-2.27</ele>
        <time>2015-10-10T14:15:43Z</time>
      </trkpt>
      <trkpt lat="47.63728" lon="-3.37745">
        <ele>-2.27</ele>
        <time>2015-10-10T14:15:44Z</time>
      </trkpt>
      <trkpt lat="47.63726" lon="-3.37745">
        <ele>-2.27</ele>
        <time>2015-10-10T14:15:45Z</time>
      </trkpt>
      <trkpt lat="47.63723" lon="-3.37744">
        <ele>-2.27</ele>
        <time>2015-10-10T14:15:46Z</time>
      </trkpt>
      <trkpt lat="47.6372" lon="-3.37744">
        <ele>-2.27</ele>
        <time>2015-10-10T14:15:47Z</time>
      </trkpt>
      <trkpt lat="47.63717" lon="-3.37745">
        <ele>-1.79</ele>
        <time>2015-10-10T14:15:48Z</time>
      </trkpt>
      <trkpt lat="47.63714" lon="-3.37745">
        <ele>-1.79</ele>
        <time>2015-10-10T14:15:49Z</time>
      </trkpt>
      <trkpt lat="47.63712" lon="-3.37744">
        <ele>-1.79</ele>
        <time>2015-10-10T14:15:50Z</time>
      </trkpt>
      <trkpt lat="47.63709" lon="-3.37744">
        <ele>-1.79</ele>
        <time>2015-10-10T14:15:51Z</time>
      </trkpt>
      <trkpt lat="47.63706" lon="-3.37743">
        <ele>-1.79</ele>
        <time>2015-10-10T14:15:52Z</time>
      </trkpt>
      <trkpt lat="47.63704" lon="-3.37742">
        <ele>-1.79</ele>
        <time>2015-10-10T14:15:53Z</time>
      </trkpt>
      <trkpt lat="47.63701" lon="-3.37741">
        <ele>-1.79</ele>
        <time>2015-10-10T14:15:54Z</time>
      </trkpt>
      <trkpt lat="47.63698" lon="-3.37741">
        <ele>-1.79</ele>
        <time>2015-10-10T14:15:55Z</time>
      </trkpt>
      <trkpt lat="47.63695" lon="-3.37741">
        <ele>-1.79</ele>
        <time>2015-10-10T14:15:56Z</time>
      </trkpt>
      <trkpt lat="47.63693" lon="-3.37741">
        <ele>-1.79</ele>
        <time>2015-10-10T14:15:57Z</time>
      </trkpt>
      <trkpt lat="47.6369" lon="-3.37742">
        <ele>-3.71</ele>
        <time>2015-10-10T14:15:58Z</time>
      </trkpt>
      <trkpt lat="47.63687" lon="-3.37743">
        <ele>-3.71</ele>
        <time>2015-10-10T14:15:59Z</time>
      </trkpt>
      <trkpt lat="47.63684" lon="-3.37743">
        <ele>-2.27</ele>
        <time>2015-10-10T14:16:00Z</time>
      </trkpt>
      <trkpt lat="47.63681" lon="-3.37743">
        <ele>-2.27</ele>
        <time>2015-10-10T14:16:01Z</time>
      </trkpt>
      <trkpt lat="47.63678" lon="-3.37743">
        <ele>-2.27</ele>
        <time>2015-10-10T14:16:02Z</time>
      </trkpt>
      <trkpt lat="47.63675" lon="-3.37743">
        <ele>-2.27</ele>
        <time>2015-10-10T14:16:03Z</time>
      </trkpt>
      <trkpt lat="47.63672" lon="-3.37743">
        <ele>-2.27</ele>
        <time>2015-10-10T14:16:04Z</time>
      </trkpt>
      <trkpt lat="47.63669" lon="-3.37744">
        <ele>-2.27</ele>
        <time>2015-10-10T14:16:05Z</time>
      </trkpt>
      <trkpt lat="47.63667" lon="-3.37744">
        <ele>-1.3</ele>
        <time>2015-10-10T14:16:06Z</time>
      </trkpt>
      <trkpt lat="47.63664" lon="-3.37743">
        <ele>-2.75</ele>
        <time>2015-10-10T14:16:07Z</time>
      </trkpt>
      <trkpt lat="47.63661" lon="-3.37743">
        <ele>-2.75</ele>
        <time>2015-10-10T14:16:08Z</time>
      </trkpt>
      <trkpt lat="47.63658" lon="-3.37743">
        <ele>-2.75</ele>
        <time>2015-10-10T14:16:09Z</time>
      </trkpt>
      <trkpt lat="47.63655" lon="-3.37743">
        <ele>-2.75</ele>
        <time>2015-10-10T14:16:10Z</time>
      </trkpt>
      <trkpt lat="47.63652" lon="-3.37743">
        <ele>-3.23</ele>
        <time>2015-10-10T14:16:11Z</time>
      </trkpt>
      <trkpt lat="47.63649" lon="-3.37744">
        <ele>-3.23</ele>
        <time>2015-10-10T14:16:12Z</time>
      </trkpt>
      <trkpt lat="47.63646" lon="-3.37744">
        <ele>-3.23</ele>
        <time>2015-10-10T14:16:13Z</time>
      </trkpt>
      <trkpt lat="47.63643" lon="-3.37745">
        <ele>-3.23</ele>
        <time>2015-10-10T14:16:14Z</time>
      </trkpt>
      <trkpt lat="47.6364" lon="-3.37745">
        <ele>-3.23</ele>
        <time>2015-10-10T14:16:15Z</time>
      </trkpt>
      <trkpt lat="47.63637" lon="-3.37744">
        <ele>-1.79</ele>
        <time>2015-10-10T14:16:16Z</time>
      </trkpt>
      <trkpt lat="47.63634" lon="-3.37744">
        <ele>-1.79</ele>
        <time>2015-10-10T14:16:17Z</time>
      </trkpt>
      <trkpt lat="47.63631" lon="-3.37744">
        <ele>-1.79</ele>
        <time>2015-10-10T14:16:18Z</time>
      </trkpt>
      <trkpt lat="47.63628" lon="-3.37744">
        <ele>-1.79</ele>
        <time>2015-10-10T14:16:19Z</time>
      </trkpt>
      <trkpt lat="47.63626" lon="-3.37744">
        <ele>-1.79</ele>
        <time>2015-10-10T14:16:20Z</time>
      </trkpt>
      <trkpt lat="47.63623" lon="-3.37744">
        <ele>-1.79</ele>
        <time>2015-10-10T14:16:21Z</time>
      </trkpt>
      <trkpt lat="47.6362" lon="-3.37745">
        <ele>-1.79</ele>
        <time>2015-10-10T14:16:22Z</time>
      </trkpt>
      <trkpt lat="47.63617" lon="-3.37745">
        <ele>-1.79</ele>
        <time>2015-10-10T14:16:23Z</time>
      </trkpt>
      <trkpt lat="47.63614" lon="-3.37745">
        <ele>-1.79</ele>
        <time>2015-10-10T14:16:24Z</time>
      </trkpt>
      <trkpt lat="47.63611" lon="-3.37745">
        <ele>-3.23</ele>
        <time>2015-10-10T14:16:25Z</time>
      </trkpt>
      <trkpt lat="47.63608" lon="-3.37745">
        <ele>-3.23</ele>
        <time>2015-10-10T14:16:26Z</time>
      </trkpt>
      <trkpt lat="47.63604" lon="-3.37746">
        <ele>-3.23</ele>
        <time>2015-10-10T14:16:27Z</time>
      </trkpt>
      <trkpt lat="47.63601" lon="-3.37746">
        <ele>-3.23</ele>
        <time>2015-10-10T14:16:28Z</time>
      </trkpt>
      <trkpt lat="47.63598" lon="-3.37745">
        <ele>-3.23</ele>
        <time>2015-10-10T14:16:29Z</time>
      </trkpt>
      <trkpt lat="47.63595" lon="-3.37746">
        <ele>-3.23</ele>
        <time>2015-10-10T14:16:30Z</time>
      </trkpt>
      <trkpt lat="47.63593" lon="-3.37746">
        <ele>-3.23</ele>
        <time>2015-10-10T14:16:31Z</time>
      </trkpt>
      <trkpt lat="47.6359" lon="-3.37747">
        <ele>-3.23</ele>
        <time>2015-10-10T14:16:32Z</time>
      </trkpt>
      <trkpt lat="47.63586" lon="-3.37747">
        <ele>-1.79</ele>
        <time>2015-10-10T14:16:33Z</time>
      </trkpt>
      <trkpt lat="47.63584" lon="-3.37747">
        <ele>-1.79</ele>
        <time>2015-10-10T14:16:34Z</time>
      </trkpt>
      <trkpt lat="47.63581" lon="-3.37747">
        <ele>-1.79</ele>
        <time>2015-10-10T14:16:35Z</time>
      </trkpt>
      <trkpt lat="47.63578" lon="-3.37746">
        <ele>-1.79</ele>
        <time>2015-10-10T14:16:36Z</time>
      </trkpt>
      <trkpt lat="47.63575" lon="-3.37746">
        <ele>-1.79</ele>
        <time>2015-10-10T14:16:37Z</time>
      </trkpt>
      <trkpt lat="47.63572" lon="-3.37746">
        <ele>-1.79</ele>
        <time>2015-10-10T14:16:38Z</time>
      </trkpt>
      <trkpt lat="47.63569" lon="-3.37746">
        <ele>-1.79</ele>
        <time>2015-10-10T14:16:39Z</time>
      </trkpt>
      <trkpt lat="47.63566" lon="-3.37747">
        <ele>-1.79</ele>
        <time>2015-10-10T14:16:40Z</time>
      </trkpt>
      <trkpt lat="47.63563" lon="-3.37747">
        <ele>-1.79</ele>
        <time>2015-10-10T14:16:41Z</time>
      </trkpt>
      <trkpt lat="47.63559" lon="-3.37747">
        <ele>-1.79</ele>
        <time>2015-10-10T14:16:42Z</time>
      </trkpt>
      <trkpt lat="47.63556" lon="-3.37747">
        <ele>-1.79</ele>
        <time>2015-10-10T14:16:43Z</time>
      </trkpt>
      <trkpt lat="47.63553" lon="-3.37748">
        <ele>-3.71</ele>
        <time>2015-10-10T14:16:44Z</time>
      </trkpt>
      <trkpt lat="47.63551" lon="-3.37748">
        <ele>-2.27</ele>
        <time>2015-10-10T14:16:45Z</time>
      </trkpt>
      <trkpt lat="47.63548" lon="-3.37749">
        <ele>-2.27</ele>
        <time>2015-10-10T14:16:46Z</time>
      </trkpt>
      <trkpt lat="47.63545" lon="-3.37749">
        <ele>-2.27</ele>
        <time>2015-10-10T14:16:47Z</time>
      </trkpt>
      <trkpt lat="47.63542" lon="-3.37748">
        <ele>-2.27</ele>
        <time>2015-10-10T14:16:48Z</time>
      </trkpt>
      <trkpt lat="47.63539" lon="-3.37746">
        <ele>-2.27</ele>
        <time>2015-10-10T14:16:49Z</time>
      </trkpt>
      <trkpt lat="47.63537" lon="-3.37745">
        <ele>-2.27</ele>
        <time>2015-10-10T14:16:50Z</time>
      </trkpt>
      <trkpt lat="47.63534" lon="-3.37744">
        <ele>-2.27</ele>
        <time>2015-10-10T14:16:51Z</time>
      </trkpt>
      <trkpt lat="47.63532" lon="-3.37743">
        <ele>-3.23</ele>
        <time>2015-10-10T14:16:52Z</time>
      </trkpt>
      <trkpt lat="47.63529" lon="-3.37743">
        <ele>-3.23</ele>
        <time>2015-10-10T14:16:53Z</time>
      </trkpt>
      <trkpt lat="47.63526" lon="-3.37742">
        <ele>-3.23</ele>
        <time>2015-10-10T14:16:54Z</time>
      </trkpt>
      <trkpt lat="47.63523" lon="-3.37742">
        <ele>-3.23</ele>
        <time>2015-10-10T14:16:55Z</time>
      </trkpt>
      <trkpt lat="47.6352" lon="-3.37742">
        <ele>-3.23</ele>
        <time>2015-10-10T14:16:56Z</time>
      </trkpt>
      <trkpt lat="47.63517" lon="-3.37742">
        <ele>-3.23</ele>
        <time>2015-10-10T14:16:57Z</time>
      </trkpt>
      <trkpt lat="47.63514" lon="-3.37742">
        <ele>-3.23</ele>
        <time>2015-10-10T14:16:58Z</time>
      </trkpt>
      <trkpt lat="47.63511" lon="-3.37741">
        <ele>-3.23</ele>
        <time>2015-10-10T14:16:59Z</time>
      </trkpt>
      <trkpt lat="47.63508" lon="-3.37741">
        <ele>-3.23</ele>
        <time>2015-10-10T14:17:00Z</time>
      </trkpt>
      <trkpt lat="47.63506" lon="-3.37741">
        <ele>-2.27</ele>
        <time>2015-10-10T14:17:01Z</time>
      </trkpt>
      <trkpt lat="47.63503" lon="-3.3774">
        <ele>-2.27</ele>
        <time>2015-10-10T14:17:02Z</time>
      </trkpt>
      <trkpt lat="47.63499" lon="-3.37739">
        <ele>-2.27</ele>
        <time>2015-10-10T14:17:03Z</time>
      </trkpt>
      <trkpt lat="47.63497" lon="-3.37739">
        <ele>-2.27</ele>
        <time>2015-10-10T14:17:04Z</time>
      </trkpt>
      <trkpt lat="47.63494" lon="-3.37738">
        <ele>-2.27</ele>
        <time>2015-10-10T14:17:05Z</time>
      </trkpt>
      <trkpt lat="47.63491" lon="-3.37738">
        <ele>-2.27</ele>
        <time>2015-10-10T14:17:06Z</time>
      </trkpt>
      <trkpt lat="47.63488" lon="-3.37738">
        <ele>-2.27</ele>
        <time>2015-10-10T14:17:07Z</time>
      </trkpt>
      <trkpt lat="47.63485" lon="-3.37737">
        <ele>-2.27</ele>
        <time>2015-10-10T14:17:08Z</time>
      </trkpt>
      <trkpt lat="47.63482" lon="-3.37737">
        <ele>-2.27</ele>
        <time>2015-10-10T14:17:09Z</time>
      </trkpt>
      <trkpt lat="47.6348" lon="-3.37736">
        <ele>-2.27</ele>
        <time>2015-10-10T14:17:10Z</time>
      </trkpt>
      <trkpt lat="47.63477" lon="-3.37735">
        <ele>-2.27</ele>
        <time>2015-10-10T14:17:11Z</time>
      </trkpt>
      <trkpt lat="47.63474" lon="-3.37734">
        <ele>-2.27</ele>
        <time>2015-10-10T14:17:12Z</time>
      </trkpt>
      <trkpt lat="47.63471" lon="-3.37734">
        <ele>-2.27</ele>
        <time>2015-10-10T14:17:13Z</time>
      </trkpt>
      <trkpt lat="47.63468" lon="-3.37733">
        <ele>-2.27</ele>
        <time>2015-10-10T14:17:14Z</time>
      </trkpt>
      <trkpt lat="47.63465" lon="-3.37733">
        <ele>-2.27</ele>
        <time>2015-10-10T14:17:15Z</time>
      </trkpt>
      <trkpt lat="47.63463" lon="-3.37732">
        <ele>-2.27</ele>
        <time>2015-10-10T14:17:16Z</time>
      </trkpt>
      <trkpt lat="47.6346" lon="-3.37732">
        <ele>-2.27</ele>
        <time>2015-10-10T14:17:17Z</time>
      </trkpt>
      <trkpt lat="47.63457" lon="-3.37731">
        <ele>-2.27</ele>
        <time>2015-10-10T14:17:18Z</time>
      </trkpt>
      <trkpt lat="47.63455" lon="-3.3773">
        <ele>-2.27</ele>
        <time>2015-10-10T14:17:19Z</time>
      </trkpt>
      <trkpt lat="47.63452" lon="-3.37729">
        <ele>-2.27</ele>
        <time>2015-10-10T14:17:20Z</time>
      </trkpt>
      <trkpt lat="47.63449" lon="-3.37728">
        <ele>-2.27</ele>
        <time>2015-10-10T14:17:21Z</time>
      </trkpt>
      <trkpt lat="47.63446" lon="-3.37727">
        <ele>-2.27</ele>
        <time>2015-10-10T14:17:22Z</time>
      </trkpt>
      <trkpt lat="47.63443" lon="-3.37727">
        <ele>-2.27</ele>
        <time>2015-10-10T14:17:23Z</time>
      </trkpt>
      <trkpt lat="47.6344" lon="-3.37726">
        <ele>-2.27</ele>
        <time>2015-10-10T14:17:24Z</time>
      </trkpt>
      <trkpt lat="47.63437" lon="-3.37725">
        <ele>-2.27</ele>
        <time>2015-10-10T14:17:25Z</time>
      </trkpt>
      <trkpt lat="47.63434" lon="-3.37724">
        <ele>-2.27</ele>
        <time>2015-10-10T14:17:26Z</time>
      </trkpt>
      <trkpt lat="47.63432" lon="-3.37724">
        <ele>-2.27</ele>
        <time>2015-10-10T14:17:27Z</time>
      </trkpt>
      <trkpt lat="47.63429" lon="-3.37723">
        <ele>-2.27</ele>
        <time>2015-10-10T14:17:28Z</time>
      </trkpt>
      <trkpt lat="47.63426" lon="-3.37722">
        <ele>-2.27</ele>
        <time>2015-10-10T14:17:29Z</time>
      </trkpt>
      <trkpt lat="47.63423" lon="-3.37721">
        <ele>-2.27</ele>
        <time>2015-10-10T14:17:30Z</time>
      </trkpt>
      <trkpt lat="47.6342" lon="-3.37721">
        <ele>-2.27</ele>
        <time>2015-10-10T14:17:31Z</time>
      </trkpt>
      <trkpt lat="47.63417" lon="-3.3772">
        <ele>-2.27</ele>
        <time>2015-10-10T14:17:32Z</time>
      </trkpt>
      <trkpt lat="47.63415" lon="-3.37719">
        <ele>-2.27</ele>
        <time>2015-10-10T14:17:33Z</time>
      </trkpt>
      <trkpt lat="47.63412" lon="-3.37718">
        <ele>-2.27</ele>
        <time>2015-10-10T14:17:34Z</time>
      </trkpt>
      <trkpt lat="47.6341" lon="-3.37717">
        <ele>-2.27</ele>
        <time>2015-10-10T14:17:35Z</time>
      </trkpt>
      <trkpt lat="47.63407" lon="-3.37716">
        <ele>-1.79</ele>
        <time>2015-10-10T14:17:36Z</time>
      </trkpt>
      <trkpt lat="47.63405" lon="-3.37716">
        <ele>-3.23</ele>
        <time>2015-10-10T14:17:37Z</time>
      </trkpt>
      <trkpt lat="47.63402" lon="-3.37715">
        <ele>-3.23</ele>
        <time>2015-10-10T14:17:38Z</time>
      </trkpt>
      <trkpt lat="47.63399" lon="-3.37714">
        <ele>-3.23</ele>
        <time>2015-10-10T14:17:39Z</time>
      </trkpt>
      <trkpt lat="47.63396" lon="-3.37713">
        <ele>-1.79</ele>
        <time>2015-10-10T14:17:40Z</time>
      </trkpt>
      <trkpt lat="47.63393" lon="-3.37712">
        <ele>-3.23</ele>
        <time>2015-10-10T14:17:41Z</time>
      </trkpt>
      <trkpt lat="47.63391" lon="-3.37711">
        <ele>-3.23</ele>
        <time>2015-10-10T14:17:42Z</time>
      </trkpt>
      <trkpt lat="47.63388" lon="-3.3771">
        <ele>-3.23</ele>
        <time>2015-10-10T14:17:43Z</time>
      </trkpt>
      <trkpt lat="47.63385" lon="-3.37709">
        <ele>-3.23</ele>
        <time>2015-10-10T14:17:44Z</time>
      </trkpt>
      <trkpt lat="47.63383" lon="-3.37708">
        <ele>-3.23</ele>
        <time>2015-10-10T14:17:45Z</time>
      </trkpt>
      <trkpt lat="47.6338" lon="-3.37708">
        <ele>-3.23</ele>
        <time>2015-10-10T14:17:46Z</time>
      </trkpt>
      <trkpt lat="47.63377" lon="-3.37707">
        <ele>-3.23</ele>
        <time>2015-10-10T14:17:47Z</time>
      </trkpt>
      <trkpt lat="47.63375" lon="-3.37706">
        <ele>-3.23</ele>
        <time>2015-10-10T14:17:48Z</time>
      </trkpt>
      <trkpt lat="47.63372" lon="-3.37706">
        <ele>-1.79</ele>
        <time>2015-10-10T14:17:49Z</time>
      </trkpt>
      <trkpt lat="47.63369" lon="-3.37705">
        <ele>-1.79</ele>
        <time>2015-10-10T14:17:50Z</time>
      </trkpt>
      <trkpt lat="47.63366" lon="-3.37704">
        <ele>-1.79</ele>
        <time>2015-10-10T14:17:51Z</time>
      </trkpt>
      <trkpt lat="47.63364" lon="-3.37704">
        <ele>-2.27</ele>
        <time>2015-10-10T14:17:52Z</time>
      </trkpt>
      <trkpt lat="47.63361" lon="-3.37703">
        <ele>-2.27</ele>
        <time>2015-10-10T14:17:53Z</time>
      </trkpt>
      <trkpt lat="47.63358" lon="-3.37702">
        <ele>-2.27</ele>
        <time>2015-10-10T14:17:54Z</time>
      </trkpt>
      <trkpt lat="47.63355" lon="-3.37701">
        <ele>-2.27</ele>
        <time>2015-10-10T14:17:55Z</time>
      </trkpt>
      <trkpt lat="47.63352" lon="-3.377">
        <ele>-2.27</ele>
        <time>2015-10-10T14:17:56Z</time>
      </trkpt>
      <trkpt lat="47.6335" lon="-3.377">
        <ele>-2.27</ele>
        <time>2015-10-10T14:17:57Z</time>
      </trkpt>
      <trkpt lat="47.63347" lon="-3.37699">
        <ele>-2.27</ele>
        <time>2015-10-10T14:17:58Z</time>
      </trkpt>
      <trkpt lat="47.63344" lon="-3.37699">
        <ele>-2.27</ele>
        <time>2015-10-10T14:17:59Z</time>
      </trkpt>
      <trkpt lat="47.63341" lon="-3.37698">
        <ele>-2.27</ele>
        <time>2015-10-10T14:18:00Z</time>
      </trkpt>
      <trkpt lat="47.63338" lon="-3.37698">
        <ele>-2.27</ele>
        <time>2015-10-10T14:18:01Z</time>
      </trkpt>
      <trkpt lat="47.63336" lon="-3.37697">
        <ele>-2.27</ele>
        <time>2015-10-10T14:18:02Z</time>
      </trkpt>
      <trkpt lat="47.63333" lon="-3.37696">
        <ele>-3.71</ele>
        <time>2015-10-10T14:18:03Z</time>
      </trkpt>
      <trkpt lat="47.6333" lon="-3.37696">
        <ele>-3.71</ele>
        <time>2015-10-10T14:18:04Z</time>
      </trkpt>
      <trkpt lat="47.63327" lon="-3.37696">
        <ele>-3.71</ele>
        <time>2015-10-10T14:18:05Z</time>
      </trkpt>
      <trkpt lat="47.63324" lon="-3.37696">
        <ele>-2.27</ele>
        <time>2015-10-10T14:18:06Z</time>
      </trkpt>
      <trkpt lat="47.63321" lon="-3.37695">
        <ele>-2.27</ele>
        <time>2015-10-10T14:18:07Z</time>
      </trkpt>
      <trkpt lat="47.63318" lon="-3.37695">
        <ele>-2.27</ele>
        <time>2015-10-10T14:18:08Z</time>
      </trkpt>
      <trkpt lat="47.63315" lon="-3.37694">
        <ele>-2.27</ele>
        <time>2015-10-10T14:18:09Z</time>
      </trkpt>
      <trkpt lat="47.63312" lon="-3.37693">
        <ele>-2.27</ele>
        <time>2015-10-10T14:18:10Z</time>
      </trkpt>
      <trkpt lat="47.63309" lon="-3.37692">
        <ele>-1.79</ele>
        <time>2015-10-10T14:18:11Z</time>
      </trkpt>
      <trkpt lat="47.63306" lon="-3.37692">
        <ele>-1.79</ele>
        <time>2015-10-10T14:18:12Z</time>
      </trkpt>
      <trkpt lat="47.63303" lon="-3.37692">
        <ele>-1.79</ele>
        <time>2015-10-10T14:18:13Z</time>
      </trkpt>
      <trkpt lat="47.63301" lon="-3.37691">
        <ele>-1.79</ele>
        <time>2015-10-10T14:18:14Z</time>
      </trkpt>
      <trkpt lat="47.63298" lon="-3.37691">
        <ele>-3.23</ele>
        <time>2015-10-10T14:18:15Z</time>
      </trkpt>
      <trkpt lat="47.63294" lon="-3.3769">
        <ele>-3.23</ele>
        <time>2015-10-10T14:18:16Z</time>
      </trkpt>
      <trkpt lat="47.63292" lon="-3.3769">
        <ele>-3.23</ele>
        <time>2015-10-10T14:18:17Z</time>
      </trkpt>
      <trkpt lat="47.63289" lon="-3.37689">
        <ele>-3.71</ele>
        <time>2015-10-10T14:18:18Z</time>
      </trkpt>
      <trkpt lat="47.63286" lon="-3.37689">
        <ele>-3.71</ele>
        <time>2015-10-10T14:18:19Z</time>
      </trkpt>
      <trkpt lat="47.63283" lon="-3.37689">
        <ele>-3.71</ele>
        <time>2015-10-10T14:18:20Z</time>
      </trkpt>
      <trkpt lat="47.63281" lon="-3.37689">
        <ele>-3.71</ele>
        <time>2015-10-10T14:18:21Z</time>
      </trkpt>
      <trkpt lat="47.63278" lon="-3.37689">
        <ele>-3.71</ele>
        <time>2015-10-10T14:18:22Z</time>
      </trkpt>
      <trkpt lat="47.63275" lon="-3.37688">
        <ele>-3.71</ele>
        <time>2015-10-10T14:18:23Z</time>
      </trkpt>
      <trkpt lat="47.63272" lon="-3.37687">
        <ele>-3.71</ele>
        <time>2015-10-10T14:18:24Z</time>
      </trkpt>
      <trkpt lat="47.63269" lon="-3.37686">
        <ele>-3.71</ele>
        <time>2015-10-10T14:18:25Z</time>
      </trkpt>
      <trkpt lat="47.63266" lon="-3.37685">
        <ele>-3.71</ele>
        <time>2015-10-10T14:18:26Z</time>
      </trkpt>
      <trkpt lat="47.63263" lon="-3.37684">
        <ele>-3.71</ele>
        <time>2015-10-10T14:18:27Z</time>
      </trkpt>
      <trkpt lat="47.63261" lon="-3.37683">
        <ele>-3.71</ele>
        <time>2015-10-10T14:18:28Z</time>
      </trkpt>
      <trkpt lat="47.63258" lon="-3.37682">
        <ele>-3.71</ele>
        <time>2015-10-10T14:18:29Z</time>
      </trkpt>
      <trkpt lat="47.63255" lon="-3.37681">
        <ele>-2.27</ele>
        <time>2015-10-10T14:18:30Z</time>
      </trkpt>
      <trkpt lat="47.63252" lon="-3.37681">
        <ele>-2.27</ele>
        <time>2015-10-10T14:18:31Z</time>
      </trkpt>
      <trkpt lat="47.63249" lon="-3.3768">
        <ele>-2.27</ele>
        <time>2015-10-10T14:18:32Z</time>
      </trkpt>
      <trkpt lat="47.63246" lon="-3.3768">
        <ele>-2.27</ele>
        <time>2015-10-10T14:18:33Z</time>
      </trkpt>
      <trkpt lat="47.63243" lon="-3.37679">
        <ele>-2.27</ele>
        <time>2015-10-10T14:18:34Z</time>
      </trkpt>
      <trkpt lat="47.63241" lon="-3.37677">
        <ele>-2.27</ele>
        <time>2015-10-10T14:18:35Z</time>
      </trkpt>
      <trkpt lat="47.63237" lon="-3.37676">
        <ele>-2.27</ele>
        <time>2015-10-10T14:18:36Z</time>
      </trkpt>
      <trkpt lat="47.63235" lon="-3.37675">
        <ele>-2.27</ele>
        <time>2015-10-10T14:18:37Z</time>
      </trkpt>
      <trkpt lat="47.63232" lon="-3.37675">
        <ele>-2.27</ele>
        <time>2015-10-10T14:18:38Z</time>
      </trkpt>
      <trkpt lat="47.63229" lon="-3.37674">
        <ele>-2.27</ele>
        <time>2015-10-10T14:18:39Z</time>
      </trkpt>
      <trkpt lat="47.63226" lon="-3.37674">
        <ele>-3.71</ele>
        <time>2015-10-10T14:18:40Z</time>
      </trkpt>
      <trkpt lat="47.63223" lon="-3.37673">
        <ele>-2.75</ele>
        <time>2015-10-10T14:18:41Z</time>
      </trkpt>
      <trkpt lat="47.63221" lon="-3.37673">
        <ele>-2.75</ele>
        <time>2015-10-10T14:18:42Z</time>
      </trkpt>
      <trkpt lat="47.63218" lon="-3.37672">
        <ele>-2.75</ele>
        <time>2015-10-10T14:18:43Z</time>
      </trkpt>
      <trkpt lat="47.63215" lon="-3.37671">
        <ele>-2.75</ele>
        <time>2015-10-10T14:18:44Z</time>
      </trkpt>
      <trkpt lat="47.63213" lon="-3.3767">
        <ele>-2.75</ele>
        <time>2015-10-10T14:18:45Z</time>
      </trkpt>
      <trkpt lat="47.6321" lon="-3.37669">
        <ele>-2.75</ele>
        <time>2015-10-10T14:18:46Z</time>
      </trkpt>
      <trkpt lat="47.63207" lon="-3.37669">
        <ele>-2.75</ele>
        <time>2015-10-10T14:18:47Z</time>
      </trkpt>
      <trkpt lat="47.63204" lon="-3.37668">
        <ele>-2.75</ele>
        <time>2015-10-10T14:18:48Z</time>
      </trkpt>
      <trkpt lat="47.63202" lon="-3.37667">
        <ele>-2.75</ele>
        <time>2015-10-10T14:18:49Z</time>
      </trkpt>
      <trkpt lat="47.63199" lon="-3.37666">
        <ele>-2.75</ele>
        <time>2015-10-10T14:18:50Z</time>
      </trkpt>
      <trkpt lat="47.63196" lon="-3.37665">
        <ele>-2.75</ele>
        <time>2015-10-10T14:18:51Z</time>
      </trkpt>
      <trkpt lat="47.63193" lon="-3.37664">
        <ele>-2.75</ele>
        <time>2015-10-10T14:18:52Z</time>
      </trkpt>
      <trkpt lat="47.6319" lon="-3.37663">
        <ele>-2.75</ele>
        <time>2015-10-10T14:18:53Z</time>
      </trkpt>
      <trkpt lat="47.63187" lon="-3.37662">
        <ele>-2.75</ele>
        <time>2015-10-10T14:18:54Z</time>
      </trkpt>
      <trkpt lat="47.63184" lon="-3.37662">
        <ele>-2.75</ele>
        <time>2015-10-10T14:18:55Z</time>
      </trkpt>
      <trkpt lat="47.63182" lon="-3.37661">
        <ele>-2.75</ele>
        <time>2015-10-10T14:18:56Z</time>
      </trkpt>
      <trkpt lat="47.63179" lon="-3.3766">
        <ele>-2.75</ele>
        <time>2015-10-10T14:18:57Z</time>
      </trkpt>
      <trkpt lat="47.63176" lon="-3.37659">
        <ele>-2.75</ele>
        <time>2015-10-10T14:18:58Z</time>
      </trkpt>
      <trkpt lat="47.63174" lon="-3.37657">
        <ele>-2.75</ele>
        <time>2015-10-10T14:18:59Z</time>
      </trkpt>
      <trkpt lat="47.63171" lon="-3.37656">
        <ele>-2.75</ele>
        <time>2015-10-10T14:19:00Z</time>
      </trkpt>
      <trkpt lat="47.63169" lon="-3.37655">
        <ele>-2.75</ele>
        <time>2015-10-10T14:19:01Z</time>
      </trkpt>
      <trkpt lat="47.63166" lon="-3.37655">
        <ele>-2.75</ele>
        <time>2015-10-10T14:19:02Z</time>
      </trkpt>
      <trkpt lat="47.63163" lon="-3.37654">
        <ele>-2.75</ele>
        <time>2015-10-10T14:19:03Z</time>
      </trkpt>
      <trkpt lat="47.63161" lon="-3.37654">
        <ele>-2.75</ele>
        <time>2015-10-10T14:19:04Z</time>
      </trkpt>
      <trkpt lat="47.63159" lon="-3.37654">
        <ele>-2.75</ele>
        <time>2015-10-10T14:19:05Z</time>
      </trkpt>
      <trkpt lat="47.63156" lon="-3.37654">
        <ele>-2.75</ele>
        <time>2015-10-10T14:19:06Z</time>
      </trkpt>
      <trkpt lat="47.63154" lon="-3.37653">
        <ele>-2.75</ele>
        <time>2015-10-10T14:19:07Z</time>
      </trkpt>
      <trkpt lat="47.63151" lon="-3.37652">
        <ele>-4.19</ele>
        <time>2015-10-10T14:19:08Z</time>
      </trkpt>
      <trkpt lat="47.63149" lon="-3.37652">
        <ele>-4.19</ele>
        <time>2015-10-10T14:19:09Z</time>
      </trkpt>
      <trkpt lat="47.63147" lon="-3.37651">
        <ele>-4.19</ele>
        <time>2015-10-10T14:19:10Z</time>
      </trkpt>
      <trkpt lat="47.63144" lon="-3.3765">
        <ele>-4.19</ele>
        <time>2015-10-10T14:19:11Z</time>
      </trkpt>
      <trkpt lat="47.63141" lon="-3.3765">
        <ele>-4.19</ele>
        <time>2015-10-10T14:19:12Z</time>
      </trkpt>
      <trkpt lat="47.63139" lon="-3.3765">
        <ele>-4.19</ele>
        <time>2015-10-10T14:19:13Z</time>
      </trkpt>
      <trkpt lat="47.63136" lon="-3.3765">
        <ele>-2.75</ele>
        <time>2015-10-10T14:19:14Z</time>
      </trkpt>
      <trkpt lat="47.63133" lon="-3.37649">
        <ele>-2.75</ele>
        <time>2015-10-10T14:19:15Z</time>
      </trkpt>
      <trkpt lat="47.6313" lon="-3.37649">
        <ele>-2.75</ele>
        <time>2015-10-10T14:19:16Z</time>
      </trkpt>
      <trkpt lat="47.63128" lon="-3.37648">
        <ele>-2.75</ele>
        <time>2015-10-10T14:19:17Z</time>
      </trkpt>
      <trkpt lat="47.63125" lon="-3.37647">
        <ele>-2.75</ele>
        <time>2015-10-10T14:19:18Z</time>
      </trkpt>
      <trkpt lat="47.63123" lon="-3.37646">
        <ele>-2.75</ele>
        <time>2015-10-10T14:19:19Z</time>
      </trkpt>
      <trkpt lat="47.6312" lon="-3.37646">
        <ele>-2.75</ele>
        <time>2015-10-10T14:19:20Z</time>
      </trkpt>
      <trkpt lat="47.63117" lon="-3.37645">
        <ele>-2.75</ele>
        <time>2015-10-10T14:19:21Z</time>
      </trkpt>
      <trkpt lat="47.63115" lon="-3.37644">
        <ele>-2.75</ele>
        <time>2015-10-10T14:19:22Z</time>
      </trkpt>
      <trkpt lat="47.63112" lon="-3.37644">
        <ele>-2.75</ele>
        <time>2015-10-10T14:19:23Z</time>
      </trkpt>
      <trkpt lat="47.63109" lon="-3.37643">
        <ele>-2.75</ele>
        <time>2015-10-10T14:19:24Z</time>
      </trkpt>
      <trkpt lat="47.63107" lon="-3.37643">
        <ele>-2.75</ele>
        <time>2015-10-10T14:19:25Z</time>
      </trkpt>
      <trkpt lat="47.63104" lon="-3.37643">
        <ele>-2.75</ele>
        <time>2015-10-10T14:19:26Z</time>
      </trkpt>
      <trkpt lat="47.63101" lon="-3.37643">
        <ele>-4.19</ele>
        <time>2015-10-10T14:19:27Z</time>
      </trkpt>
      <trkpt lat="47.63098" lon="-3.37643">
        <ele>-4.19</ele>
        <time>2015-10-10T14:19:28Z</time>
      </trkpt>
      <trkpt lat="47.63096" lon="-3.37642">
        <ele>-4.19</ele>
        <time>2015-10-10T14:19:29Z</time>
      </trkpt>
      <trkpt lat="47.63093" lon="-3.37641">
        <ele>-4.19</ele>
        <time>2015-10-10T14:19:30Z</time>
      </trkpt>
      <trkpt lat="47.6309" lon="-3.3764">
        <ele>-2.75</ele>
        <time>2015-10-10T14:19:31Z</time>
      </trkpt>
      <trkpt lat="47.63087" lon="-3.37639">
        <ele>-2.27</ele>
        <time>2015-10-10T14:19:32Z</time>
      </trkpt>
      <trkpt lat="47.63085" lon="-3.37638">
        <ele>-2.27</ele>
        <time>2015-10-10T14:19:33Z</time>
      </trkpt>
      <trkpt lat="47.63082" lon="-3.37636">
        <ele>-2.27</ele>
        <time>2015-10-10T14:19:34Z</time>
      </trkpt>
      <trkpt lat="47.63079" lon="-3.37635">
        <ele>-2.27</ele>
        <time>2015-10-10T14:19:35Z</time>
      </trkpt>
      <trkpt lat="47.63077" lon="-3.37635">
        <ele>-2.27</ele>
        <time>2015-10-10T14:19:36Z</time>
      </trkpt>
      <trkpt lat="47.63074" lon="-3.37634">
        <ele>-2.27</ele>
        <time>2015-10-10T14:19:37Z</time>
      </trkpt>
      <trkpt lat="47.63071" lon="-3.37634">
        <ele>-2.27</ele>
        <time>2015-10-10T14:19:38Z</time>
      </trkpt>
      <trkpt lat="47.63068" lon="-3.37633">
        <ele>-2.27</ele>
        <time>2015-10-10T14:19:39Z</time>
      </trkpt>
      <trkpt lat="47.63066" lon="-3.37633">
        <ele>-2.27</ele>
        <time>2015-10-10T14:19:40Z</time>
      </trkpt>
      <trkpt lat="47.63063" lon="-3.37632">
        <ele>-3.71</ele>
        <time>2015-10-10T14:19:41Z</time>
      </trkpt>
      <trkpt lat="47.6306" lon="-3.37632">
        <ele>-3.71</ele>
        <time>2015-10-10T14:19:42Z</time>
      </trkpt>
      <trkpt lat="47.63057" lon="-3.37631">
        <ele>-3.23</ele>
        <time>2015-10-10T14:19:43Z</time>
      </trkpt>
      <trkpt lat="47.63054" lon="-3.37631">
        <ele>-3.23</ele>
        <time>2015-10-10T14:19:44Z</time>
      </trkpt>
      <trkpt lat="47.63051" lon="-3.37631">
        <ele>-3.23</ele>
        <time>2015-10-10T14:19:45Z</time>
      </trkpt>
      <trkpt lat="47.63049" lon="-3.37632">
        <ele>-3.23</ele>
        <time>2015-10-10T14:19:46Z</time>
      </trkpt>
      <trkpt lat="47.63046" lon="-3.37632">
        <ele>-3.23</ele>
        <time>2015-10-10T14:19:47Z</time>
      </trkpt>
      <trkpt lat="47.63043" lon="-3.37632">
        <ele>-3.23</ele>
        <time>2015-10-10T14:19:48Z</time>
      </trkpt>
      <trkpt lat="47.6304" lon="-3.37631">
        <ele>-3.23</ele>
        <time>2015-10-10T14:19:49Z</time>
      </trkpt>
      <trkpt lat="47.63038" lon="-3.3763">
        <ele>-3.71</ele>
        <time>2015-10-10T14:19:50Z</time>
      </trkpt>
      <trkpt lat="47.63035" lon="-3.37629">
        <ele>-3.23</ele>
        <time>2015-10-10T14:19:51Z</time>
      </trkpt>
      <trkpt lat="47.63032" lon="-3.37628">
        <ele>-2.27</ele>
        <time>2015-10-10T14:19:52Z</time>
      </trkpt>
      <trkpt lat="47.63029" lon="-3.37628">
        <ele>-2.27</ele>
        <time>2015-10-10T14:19:53Z</time>
      </trkpt>
      <trkpt lat="47.63027" lon="-3.37628">
        <ele>-2.27</ele>
        <time>2015-10-10T14:19:54Z</time>
      </trkpt>
      <trkpt lat="47.63024" lon="-3.37627">
        <ele>-2.27</ele>
        <time>2015-10-10T14:19:55Z</time>
      </trkpt>
      <trkpt lat="47.63021" lon="-3.37627">
        <ele>-2.27</ele>
        <time>2015-10-10T14:19:56Z</time>
      </trkpt>
      <trkpt lat="47.63018" lon="-3.37627">
        <ele>-2.27</ele>
        <time>2015-10-10T14:19:57Z</time>
      </trkpt>
      <trkpt lat="47.63015" lon="-3.37626">
        <ele>-2.27</ele>
        <time>2015-10-10T14:19:58Z</time>
      </trkpt>
      <trkpt lat="47.63012" lon="-3.37626">
        <ele>-2.27</ele>
        <time>2015-10-10T14:19:59Z</time>
      </trkpt>
      <trkpt lat="47.63009" lon="-3.37625">
        <ele>-2.27</ele>
        <time>2015-10-10T14:20:00Z</time>
      </trkpt>
      <trkpt lat="47.63007" lon="-3.37624">
        <ele>-2.27</ele>
        <time>2015-10-10T14:20:01Z</time>
      </trkpt>
      <trkpt lat="47.63004" lon="-3.37623">
        <ele>-3.71</ele>
        <time>2015-10-10T14:20:02Z</time>
      </trkpt>
      <trkpt lat="47.63001" lon="-3.37622">
        <ele>-3.71</ele>
        <time>2015-10-10T14:20:03Z</time>
      </trkpt>
      <trkpt lat="47.62999" lon="-3.37621">
        <ele>-3.71</ele>
        <time>2015-10-10T14:20:04Z</time>
      </trkpt>
      <trkpt lat="47.62996" lon="-3.37621">
        <ele>-3.71</ele>
        <time>2015-10-10T14:20:05Z</time>
      </trkpt>
      <trkpt lat="47.62993" lon="-3.3762">
        <ele>-3.71</ele>
        <time>2015-10-10T14:20:06Z</time>
      </trkpt>
      <trkpt lat="47.62991" lon="-3.3762">
        <ele>-3.71</ele>
        <time>2015-10-10T14:20:07Z</time>
      </trkpt>
      <trkpt lat="47.62988" lon="-3.3762">
        <ele>-3.71</ele>
        <time>2015-10-10T14:20:08Z</time>
      </trkpt>
      <trkpt lat="47.62985" lon="-3.37621">
        <ele>-3.71</ele>
        <time>2015-10-10T14:20:09Z</time>
      </trkpt>
      <trkpt lat="47.62983" lon="-3.37621">
        <ele>-3.71</ele>
        <time>2015-10-10T14:20:10Z</time>
      </trkpt>
      <trkpt lat="47.6298" lon="-3.37621">
        <ele>-3.71</ele>
        <time>2015-10-10T14:20:11Z</time>
      </trkpt>
      <trkpt lat="47.62977" lon="-3.3762">
        <ele>-3.71</ele>
        <time>2015-10-10T14:20:12Z</time>
      </trkpt>
      <trkpt lat="47.62974" lon="-3.3762">
        <ele>-3.71</ele>
        <time>2015-10-10T14:20:13Z</time>
      </trkpt>
      <trkpt lat="47.62971" lon="-3.3762">
        <ele>-3.71</ele>
        <time>2015-10-10T14:20:14Z</time>
      </trkpt>
      <trkpt lat="47.62968" lon="-3.37619">
        <ele>-3.71</ele>
        <time>2015-10-10T14:20:15Z</time>
      </trkpt>
      <trkpt lat="47.62965" lon="-3.37619">
        <ele>-3.71</ele>
        <time>2015-10-10T14:20:16Z</time>
      </trkpt>
      <trkpt lat="47.62962" lon="-3.37618">
        <ele>-3.71</ele>
        <time>2015-10-10T14:20:17Z</time>
      </trkpt>
      <trkpt lat="47.62959" lon="-3.37618">
        <ele>-3.71</ele>
        <time>2015-10-10T14:20:18Z</time>
      </trkpt>
      <trkpt lat="47.62956" lon="-3.37617">
        <ele>-3.71</ele>
        <time>2015-10-10T14:20:19Z</time>
      </trkpt>
      <trkpt lat="47.62953" lon="-3.37616">
        <ele>-3.71</ele>
        <time>2015-10-10T14:20:20Z</time>
      </trkpt>
      <trkpt lat="47.6295" lon="-3.37616">
        <ele>-3.71</ele>
        <time>2015-10-10T14:20:21Z</time>
      </trkpt>
      <trkpt lat="47.62947" lon="-3.37616">
        <ele>-3.71</ele>
        <time>2015-10-10T14:20:22Z</time>
      </trkpt>
      <trkpt lat="47.62944" lon="-3.37616">
        <ele>-3.71</ele>
        <time>2015-10-10T14:20:23Z</time>
      </trkpt>
      <trkpt lat="47.62942" lon="-3.37616">
        <ele>-3.71</ele>
        <time>2015-10-10T14:20:24Z</time>
      </trkpt>
      <trkpt lat="47.62939" lon="-3.37616">
        <ele>-3.71</ele>
        <time>2015-10-10T14:20:25Z</time>
      </trkpt>
      <trkpt lat="47.62936" lon="-3.37616">
        <ele>-3.71</ele>
        <time>2015-10-10T14:20:26Z</time>
      </trkpt>
      <trkpt lat="47.62933" lon="-3.37616">
        <ele>-3.71</ele>
        <time>2015-10-10T14:20:27Z</time>
      </trkpt>
      <trkpt lat="47.6293" lon="-3.37616">
        <ele>-3.71</ele>
        <time>2015-10-10T14:20:28Z</time>
      </trkpt>
      <trkpt lat="47.62927" lon="-3.37616">
        <ele>-3.71</ele>
        <time>2015-10-10T14:20:29Z</time>
      </trkpt>
      <trkpt lat="47.62924" lon="-3.37616">
        <ele>-3.71</ele>
        <time>2015-10-10T14:20:30Z</time>
      </trkpt>
      <trkpt lat="47.62921" lon="-3.37615">
        <ele>-3.71</ele>
        <time>2015-10-10T14:20:31Z</time>
      </trkpt>
      <trkpt lat="47.62918" lon="-3.37615">
        <ele>-3.71</ele>
        <time>2015-10-10T14:20:32Z</time>
      </trkpt>
      <trkpt lat="47.62915" lon="-3.37616">
        <ele>-2.27</ele>
        <time>2015-10-10T14:20:33Z</time>
      </trkpt>
      <trkpt lat="47.62912" lon="-3.37616">
        <ele>-2.27</ele>
        <time>2015-10-10T14:20:34Z</time>
      </trkpt>
      <trkpt lat="47.62909" lon="-3.37615">
        <ele>-2.27</ele>
        <time>2015-10-10T14:20:35Z</time>
      </trkpt>
      <trkpt lat="47.62907" lon="-3.37615">
        <ele>-2.27</ele>
        <time>2015-10-10T14:20:36Z</time>
      </trkpt>
      <trkpt lat="47.62904" lon="-3.37614">
        <ele>-2.27</ele>
        <time>2015-10-10T14:20:37Z</time>
      </trkpt>
      <trkpt lat="47.62902" lon="-3.37613">
        <ele>-2.27</ele>
        <time>2015-10-10T14:20:38Z</time>
      </trkpt>
      <trkpt lat="47.62899" lon="-3.37612">
        <ele>-3.71</ele>
        <time>2015-10-10T14:20:39Z</time>
      </trkpt>
      <trkpt lat="47.62896" lon="-3.37611">
        <ele>-3.71</ele>
        <time>2015-10-10T14:20:40Z</time>
      </trkpt>
      <trkpt lat="47.62893" lon="-3.37611">
        <ele>-3.71</ele>
        <time>2015-10-10T14:20:41Z</time>
      </trkpt>
      <trkpt lat="47.6289" lon="-3.3761">
        <ele>-3.71</ele>
        <time>2015-10-10T14:20:42Z</time>
      </trkpt>
      <trkpt lat="47.62887" lon="-3.37609">
        <ele>-4.19</ele>
        <time>2015-10-10T14:20:43Z</time>
      </trkpt>
      <trkpt lat="47.62885" lon="-3.37608">
        <ele>-4.19</ele>
        <time>2015-10-10T14:20:44Z</time>
      </trkpt>
      <trkpt lat="47.62882" lon="-3.37608">
        <ele>-4.19</ele>
        <time>2015-10-10T14:20:45Z</time>
      </trkpt>
      <trkpt lat="47.62879" lon="-3.37608">
        <ele>-4.19</ele>
        <time>2015-10-10T14:20:46Z</time>
      </trkpt>
      <trkpt lat="47.62876" lon="-3.37607">
        <ele>-2.75</ele>
        <time>2015-10-10T14:20:47Z</time>
      </trkpt>
      <trkpt lat="47.62873" lon="-3.37606">
        <ele>-2.27</ele>
        <time>2015-10-10T14:20:48Z</time>
      </trkpt>
      <trkpt lat="47.62871" lon="-3.37605">
        <ele>-3.71</ele>
        <time>2015-10-10T14:20:49Z</time>
      </trkpt>
      <trkpt lat="47.62868" lon="-3.37605">
        <ele>-3.71</ele>
        <time>2015-10-10T14:20:50Z</time>
      </trkpt>
      <trkpt lat="47.62865" lon="-3.37605">
        <ele>-3.71</ele>
        <time>2015-10-10T14:20:51Z</time>
      </trkpt>
      <trkpt lat="47.62862" lon="-3.37605">
        <ele>-3.71</ele>
        <time>2015-10-10T14:20:52Z</time>
      </trkpt>
      <trkpt lat="47.62859" lon="-3.37604">
        <ele>-2.75</ele>
        <time>2015-10-10T14:20:53Z</time>
      </trkpt>
      <trkpt lat="47.62857" lon="-3.37604">
        <ele>-2.75</ele>
        <time>2015-10-10T14:20:54Z</time>
      </trkpt>
      <trkpt lat="47.62854" lon="-3.37603">
        <ele>-2.27</ele>
        <time>2015-10-10T14:20:55Z</time>
      </trkpt>
      <trkpt lat="47.62851" lon="-3.37603">
        <ele>-2.27</ele>
        <time>2015-10-10T14:20:56Z</time>
      </trkpt>
      <trkpt lat="47.62848" lon="-3.37603">
        <ele>-2.27</ele>
        <time>2015-10-10T14:20:57Z</time>
      </trkpt>
      <trkpt lat="47.62845" lon="-3.37602">
        <ele>-2.75</ele>
        <time>2015-10-10T14:20:58Z</time>
      </trkpt>
      <trkpt lat="47.62843" lon="-3.37601">
        <ele>-3.71</ele>
        <time>2015-10-10T14:20:59Z</time>
      </trkpt>
      <trkpt lat="47.6284" lon="-3.37601">
        <ele>-3.71</ele>
        <time>2015-10-10T14:21:00Z</time>
      </trkpt>
      <trkpt lat="47.62837" lon="-3.376">
        <ele>-3.71</ele>
        <time>2015-10-10T14:21:01Z</time>
      </trkpt>
      <trkpt lat="47.62835" lon="-3.376">
        <ele>-3.71</ele>
        <time>2015-10-10T14:21:02Z</time>
      </trkpt>
      <trkpt lat="47.62832" lon="-3.37599">
        <ele>-3.71</ele>
        <time>2015-10-10T14:21:03Z</time>
      </trkpt>
      <trkpt lat="47.62829" lon="-3.37598">
        <ele>-3.71</ele>
        <time>2015-10-10T14:21:04Z</time>
      </trkpt>
      <trkpt lat="47.62827" lon="-3.37597">
        <ele>-3.71</ele>
        <time>2015-10-10T14:21:05Z</time>
      </trkpt>
      <trkpt lat="47.62824" lon="-3.37596">
        <ele>-3.71</ele>
        <time>2015-10-10T14:21:06Z</time>
      </trkpt>
      <trkpt lat="47.62822" lon="-3.37595">
        <ele>-2.27</ele>
        <time>2015-10-10T14:21:07Z</time>
      </trkpt>
      <trkpt lat="47.62819" lon="-3.37595">
        <ele>-2.27</ele>
        <time>2015-10-10T14:21:08Z</time>
      </trkpt>
      <trkpt lat="47.62816" lon="-3.37595">
        <ele>-2.27</ele>
        <time>2015-10-10T14:21:09Z</time>
      </trkpt>
      <trkpt lat="47.62814" lon="-3.37594">
        <ele>-2.27</ele>
        <time>2015-10-10T14:21:10Z</time>
      </trkpt>
      <trkpt lat="47.62811" lon="-3.37594">
        <ele>-3.71</ele>
        <time>2015-10-10T14:21:11Z</time>
      </trkpt>
      <trkpt lat="47.62808" lon="-3.37593">
        <ele>-3.71</ele>
        <time>2015-10-10T14:21:12Z</time>
      </trkpt>
      <trkpt lat="47.62806" lon="-3.37593">
        <ele>-3.71</ele>
        <time>2015-10-10T14:21:13Z</time>
      </trkpt>
      <trkpt lat="47.62803" lon="-3.37593">
        <ele>-3.71</ele>
        <time>2015-10-10T14:21:14Z</time>
      </trkpt>
      <trkpt lat="47.628" lon="-3.37592">
        <ele>-3.71</ele>
        <time>2015-10-10T14:21:15Z</time>
      </trkpt>
      <trkpt lat="47.62798" lon="-3.37592">
        <ele>-3.71</ele>
        <time>2015-10-10T14:21:16Z</time>
      </trkpt>
      <trkpt lat="47.62795" lon="-3.37591">
        <ele>-3.71</ele>
        <time>2015-10-10T14:21:17Z</time>
      </trkpt>
      <trkpt lat="47.62792" lon="-3.37591">
        <ele>-3.71</ele>
        <time>2015-10-10T14:21:18Z</time>
      </trkpt>
      <trkpt lat="47.6279" lon="-3.3759">
        <ele>-3.71</ele>
        <time>2015-10-10T14:21:19Z</time>
      </trkpt>
      <trkpt lat="47.62787" lon="-3.37589">
        <ele>-3.71</ele>
        <time>2015-10-10T14:21:20Z</time>
      </trkpt>
      <trkpt lat="47.62785" lon="-3.37589">
        <ele>-3.71</ele>
        <time>2015-10-10T14:21:21Z</time>
      </trkpt>
      <trkpt lat="47.62782" lon="-3.37588">
        <ele>-3.71</ele>
        <time>2015-10-10T14:21:22Z</time>
      </trkpt>
      <trkpt lat="47.62779" lon="-3.37587">
        <ele>-3.71</ele>
        <time>2015-10-10T14:21:23Z</time>
      </trkpt>
      <trkpt lat="47.62777" lon="-3.37586">
        <ele>-3.71</ele>
        <time>2015-10-10T14:21:24Z</time>
      </trkpt>
      <trkpt lat="47.62774" lon="-3.37585">
        <ele>-3.71</ele>
        <time>2015-10-10T14:21:25Z</time>
      </trkpt>
      <trkpt lat="47.62771" lon="-3.37585">
        <ele>-3.71</ele>
        <time>2015-10-10T14:21:26Z</time>
      </trkpt>
      <trkpt lat="47.62768" lon="-3.37584">
        <ele>-3.71</ele>
        <time>2015-10-10T14:21:27Z</time>
      </trkpt>
      <trkpt lat="47.62765" lon="-3.37583">
        <ele>-3.71</ele>
        <time>2015-10-10T14:21:28Z</time>
      </trkpt>
      <trkpt lat="47.62762" lon="-3.37583">
        <ele>-3.71</ele>
        <time>2015-10-10T14:21:29Z</time>
      </trkpt>
      <trkpt lat="47.6276" lon="-3.37582">
        <ele>-3.71</ele>
        <time>2015-10-10T14:21:30Z</time>
      </trkpt>
      <trkpt lat="47.62757" lon="-3.37581">
        <ele>-3.71</ele>
        <time>2015-10-10T14:21:31Z</time>
      </trkpt>
      <trkpt lat="47.62754" lon="-3.37581">
        <ele>-3.71</ele>
        <time>2015-10-10T14:21:32Z</time>
      </trkpt>
      <trkpt lat="47.62752" lon="-3.37581">
        <ele>-3.71</ele>
        <time>2015-10-10T14:21:33Z</time>
      </trkpt>
      <trkpt lat="47.62749" lon="-3.37581">
        <ele>-2.27</ele>
        <time>2015-10-10T14:21:34Z</time>
      </trkpt>
      <trkpt lat="47.62747" lon="-3.37581">
        <ele>-2.27</ele>
        <time>2015-10-10T14:21:35Z</time>
      </trkpt>
      <trkpt lat="47.62744" lon="-3.3758">
        <ele>-2.27</ele>
        <time>2015-10-10T14:21:36Z</time>
      </trkpt>
      <trkpt lat="47.62741" lon="-3.3758">
        <ele>-2.27</ele>
        <time>2015-10-10T14:21:37Z</time>
      </trkpt>
      <trkpt lat="47.62738" lon="-3.37579">
        <ele>-2.27</ele>
        <time>2015-10-10T14:21:38Z</time>
      </trkpt>
      <trkpt lat="47.62736" lon="-3.37578">
        <ele>-2.27</ele>
        <time>2015-10-10T14:21:39Z</time>
      </trkpt>
      <trkpt lat="47.62733" lon="-3.37577">
        <ele>-3.71</ele>
        <time>2015-10-10T14:21:40Z</time>
      </trkpt>
      <trkpt lat="47.6273" lon="-3.37577">
        <ele>-3.71</ele>
        <time>2015-10-10T14:21:41Z</time>
      </trkpt>
      <trkpt lat="47.62727" lon="-3.37577">
        <ele>-3.71</ele>
        <time>2015-10-10T14:21:42Z</time>
      </trkpt>
      <trkpt lat="47.62724" lon="-3.37576">
        <ele>-3.71</ele>
        <time>2015-10-10T14:21:43Z</time>
      </trkpt>
      <trkpt lat="47.62722" lon="-3.37576">
        <ele>-3.71</ele>
        <time>2015-10-10T14:21:44Z</time>
      </trkpt>
      <trkpt lat="47.62719" lon="-3.37576">
        <ele>-3.71</ele>
        <time>2015-10-10T14:21:45Z</time>
      </trkpt>
      <trkpt lat="47.62716" lon="-3.37577">
        <ele>-3.71</ele>
        <time>2015-10-10T14:21:46Z</time>
      </trkpt>
      <trkpt lat="47.62713" lon="-3.37576">
        <ele>-2.27</ele>
        <time>2015-10-10T14:21:47Z</time>
      </trkpt>
      <trkpt lat="47.6271" lon="-3.37575">
        <ele>-4.19</ele>
        <time>2015-10-10T14:21:48Z</time>
      </trkpt>
      <trkpt lat="47.62708" lon="-3.37574">
        <ele>-2.27</ele>
        <time>2015-10-10T14:21:49Z</time>
      </trkpt>
      <trkpt lat="47.62705" lon="-3.37573">
        <ele>-2.27</ele>
        <time>2015-10-10T14:21:50Z</time>
      </trkpt>
      <trkpt lat="47.62703" lon="-3.37573">
        <ele>-2.27</ele>
        <time>2015-10-10T14:21:51Z</time>
      </trkpt>
      <trkpt lat="47.627" lon="-3.37572">
        <ele>-2.27</ele>
        <time>2015-10-10T14:21:52Z</time>
      </trkpt>
      <trkpt lat="47.62698" lon="-3.37572">
        <ele>-2.27</ele>
        <time>2015-10-10T14:21:53Z</time>
      </trkpt>
      <trkpt lat="47.62695" lon="-3.37572">
        <ele>-2.27</ele>
        <time>2015-10-10T14:21:54Z</time>
      </trkpt>
      <trkpt lat="47.62692" lon="-3.37572">
        <ele>-3.71</ele>
        <time>2015-10-10T14:21:55Z</time>
      </trkpt>
      <trkpt lat="47.62689" lon="-3.37572">
        <ele>-3.71</ele>
        <time>2015-10-10T14:21:56Z</time>
      </trkpt>
      <trkpt lat="47.62686" lon="-3.37571">
        <ele>-3.71</ele>
        <time>2015-10-10T14:21:57Z</time>
      </trkpt>
      <trkpt lat="47.62683" lon="-3.37571">
        <ele>-3.71</ele>
        <time>2015-10-10T14:21:58Z</time>
      </trkpt>
      <trkpt lat="47.6268" lon="-3.37571">
        <ele>-3.71</ele>
        <time>2015-10-10T14:21:59Z</time>
      </trkpt>
      <trkpt lat="47.62678" lon="-3.37571">
        <ele>-3.71</ele>
        <time>2015-10-10T14:22:00Z</time>
      </trkpt>
      <trkpt lat="47.62675" lon="-3.3757">
        <ele>-3.23</ele>
        <time>2015-10-10T14:22:01Z</time>
      </trkpt>
      <trkpt lat="47.62672" lon="-3.3757">
        <ele>-3.71</ele>
        <time>2015-10-10T14:22:02Z</time>
      </trkpt>
      <trkpt lat="47.62669" lon="-3.3757">
        <ele>-3.71</ele>
        <time>2015-10-10T14:22:03Z</time>
      </trkpt>
      <trkpt lat="47.62666" lon="-3.3757">
        <ele>-3.71</ele>
        <time>2015-10-10T14:22:04Z</time>
      </trkpt>
      <trkpt lat="47.62664" lon="-3.37569">
        <ele>-3.71</ele>
        <time>2015-10-10T14:22:05Z</time>
      </trkpt>
      <trkpt lat="47.62661" lon="-3.3757">
        <ele>-3.23</ele>
        <time>2015-10-10T14:22:06Z</time>
      </trkpt>
      <trkpt lat="47.62658" lon="-3.37569">
        <ele>-3.71</ele>
        <time>2015-10-10T14:22:07Z</time>
      </trkpt>
      <trkpt lat="47.62655" lon="-3.37569">
        <ele>-3.23</ele>
        <time>2015-10-10T14:22:08Z</time>
      </trkpt>
      <trkpt lat="47.62652" lon="-3.37569">
        <ele>-3.71</ele>
        <time>2015-10-10T14:22:09Z</time>
      </trkpt>
      <trkpt lat="47.6265" lon="-3.37569">
        <ele>-3.23</ele>
        <time>2015-10-10T14:22:10Z</time>
      </trkpt>
      <trkpt lat="47.62647" lon="-3.37569">
        <ele>-3.71</ele>
        <time>2015-10-10T14:22:11Z</time>
      </trkpt>
      <trkpt lat="47.62644" lon="-3.37568">
        <ele>-3.23</ele>
        <time>2015-10-10T14:22:12Z</time>
      </trkpt>
      <trkpt lat="47.62641" lon="-3.37568">
        <ele>-3.23</ele>
        <time>2015-10-10T14:22:13Z</time>
      </trkpt>
      <trkpt lat="47.62638" lon="-3.37568">
        <ele>-3.23</ele>
        <time>2015-10-10T14:22:14Z</time>
      </trkpt>
      <trkpt lat="47.62635" lon="-3.37568">
        <ele>-4.19</ele>
        <time>2015-10-10T14:22:15Z</time>
      </trkpt>
      <trkpt lat="47.62632" lon="-3.37568">
        <ele>-2.75</ele>
        <time>2015-10-10T14:22:16Z</time>
      </trkpt>
      <trkpt lat="47.62629" lon="-3.37568">
        <ele>-2.75</ele>
        <time>2015-10-10T14:22:17Z</time>
      </trkpt>
      <trkpt lat="47.62626" lon="-3.37568">
        <ele>-2.75</ele>
        <time>2015-10-10T14:22:18Z</time>
      </trkpt>
      <trkpt lat="47.62624" lon="-3.37567">
        <ele>-2.75</ele>
        <time>2015-10-10T14:22:19Z</time>
      </trkpt>
      <trkpt lat="47.62621" lon="-3.37567">
        <ele>-2.27</ele>
        <time>2015-10-10T14:22:20Z</time>
      </trkpt>
      <trkpt lat="47.62618" lon="-3.37566">
        <ele>-2.27</ele>
        <time>2015-10-10T14:22:21Z</time>
      </trkpt>
      <trkpt lat="47.62616" lon="-3.37566">
        <ele>-2.27</ele>
        <time>2015-10-10T14:22:22Z</time>
      </trkpt>
      <trkpt lat="47.62613" lon="-3.37565">
        <ele>-2.27</ele>
        <time>2015-10-10T14:22:23Z</time>
      </trkpt>
      <trkpt lat="47.62611" lon="-3.37565">
        <ele>-2.27</ele>
        <time>2015-10-10T14:22:24Z</time>
      </trkpt>
      <trkpt lat="47.62608" lon="-3.37565">
        <ele>-2.27</ele>
        <time>2015-10-10T14:22:25Z</time>
      </trkpt>
      <trkpt lat="47.62605" lon="-3.37565">
        <ele>-3.71</ele>
        <time>2015-10-10T14:22:26Z</time>
      </trkpt>
      <trkpt lat="47.62603" lon="-3.37565">
        <ele>-4.19</ele>
        <time>2015-10-10T14:22:27Z</time>
      </trkpt>
      <trkpt lat="47.626" lon="-3.37565">
        <ele>-4.19</ele>
        <time>2015-10-10T14:22:28Z</time>
      </trkpt>
      <trkpt lat="47.62597" lon="-3.37565">
        <ele>-4.19</ele>
        <time>2015-10-10T14:22:29Z</time>
      </trkpt>
      <trkpt lat="47.62594" lon="-3.37566">
        <ele>-4.19</ele>
        <time>2015-10-10T14:22:30Z</time>
      </trkpt>
      <trkpt lat="47.62592" lon="-3.37567">
        <ele>-4.19</ele>
        <time>2015-10-10T14:22:31Z</time>
      </trkpt>
      <trkpt lat="47.62589" lon="-3.37567">
        <ele>-4.19</ele>
        <time>2015-10-10T14:22:32Z</time>
      </trkpt>
      <trkpt lat="47.62586" lon="-3.37567">
        <ele>-4.19</ele>
        <time>2015-10-10T14:22:33Z</time>
      </trkpt>
      <trkpt lat="47.62583" lon="-3.37567">
        <ele>-4.19</ele>
        <time>2015-10-10T14:22:34Z</time>
      </trkpt>
      <trkpt lat="47.62581" lon="-3.37567">
        <ele>-2.27</ele>
        <time>2015-10-10T14:22:35Z</time>
      </trkpt>
      <trkpt lat="47.62578" lon="-3.37566">
        <ele>-2.27</ele>
        <time>2015-10-10T14:22:36Z</time>
      </trkpt>
      <trkpt lat="47.62575" lon="-3.37567">
        <ele>-2.27</ele>
        <time>2015-10-10T14:22:37Z</time>
      </trkpt>
      <trkpt lat="47.62573" lon="-3.37567">
        <ele>-2.27</ele>
        <time>2015-10-10T14:22:38Z</time>
      </trkpt>
      <trkpt lat="47.6257" lon="-3.37567">
        <ele>-2.27</ele>
        <time>2015-10-10T14:22:39Z</time>
      </trkpt>
      <trkpt lat="47.62567" lon="-3.37566">
        <ele>-2.27</ele>
        <time>2015-10-10T14:22:40Z</time>
      </trkpt>
      <trkpt lat="47.62565" lon="-3.37566">
        <ele>-2.27</ele>
        <time>2015-10-10T14:22:41Z</time>
      </trkpt>
      <trkpt lat="47.62562" lon="-3.37566">
        <ele>-2.27</ele>
        <time>2015-10-10T14:22:42Z</time>
      </trkpt>
      <trkpt lat="47.62559" lon="-3.37566">
        <ele>-2.27</ele>
        <time>2015-10-10T14:22:43Z</time>
      </trkpt>
      <trkpt lat="47.62556" lon="-3.37566">
        <ele>-2.27</ele>
        <time>2015-10-10T14:22:44Z</time>
      </trkpt>
      <trkpt lat="47.62553" lon="-3.37566">
        <ele>-3.71</ele>
        <time>2015-10-10T14:22:45Z</time>
      </trkpt>
      <trkpt lat="47.62551" lon="-3.37566">
        <ele>-3.71</ele>
        <time>2015-10-10T14:22:46Z</time>
      </trkpt>
      <trkpt lat="47.62548" lon="-3.37567">
        <ele>-3.71</ele>
        <time>2015-10-10T14:22:47Z</time>
      </trkpt>
      <trkpt lat="47.62545" lon="-3.37566">
        <ele>-3.71</ele>
        <time>2015-10-10T14:22:48Z</time>
      </trkpt>
      <trkpt lat="47.62542" lon="-3.37566">
        <ele>-3.71</ele>
        <time>2015-10-10T14:22:49Z</time>
      </trkpt>
      <trkpt lat="47.62539" lon="-3.37566">
        <ele>-3.71</ele>
        <time>2015-10-10T14:22:50Z</time>
      </trkpt>
      <trkpt lat="47.62536" lon="-3.37566">
        <ele>-2.27</ele>
        <time>2015-10-10T14:22:51Z</time>
      </trkpt>
      <trkpt lat="47.62534" lon="-3.37566">
        <ele>-2.75</ele>
        <time>2015-10-10T14:22:52Z</time>
      </trkpt>
      <trkpt lat="47.62531" lon="-3.37566">
        <ele>-2.75</ele>
        <time>2015-10-10T14:22:53Z</time>
      </trkpt>
      <trkpt lat="47.62529" lon="-3.37566">
        <ele>-2.75</ele>
        <time>2015-10-10T14:22:54Z</time>
      </trkpt>
      <trkpt lat="47.62526" lon="-3.37567">
        <ele>-2.75</ele>
        <time>2015-10-10T14:22:55Z</time>
      </trkpt>
      <trkpt lat="47.62523" lon="-3.37566">
        <ele>-3.71</ele>
        <time>2015-10-10T14:22:56Z</time>
      </trkpt>
      <trkpt lat="47.6252" lon="-3.37566">
        <ele>-3.71</ele>
        <time>2015-10-10T14:22:57Z</time>
      </trkpt>
      <trkpt lat="47.62518" lon="-3.37566">
        <ele>-3.71</ele>
        <time>2015-10-10T14:22:58Z</time>
      </trkpt>
      <trkpt lat="47.62515" lon="-3.37565">
        <ele>-3.71</ele>
        <time>2015-10-10T14:22:59Z</time>
      </trkpt>
      <trkpt lat="47.62512" lon="-3.37565">
        <ele>-3.71</ele>
        <time>2015-10-10T14:23:00Z</time>
      </trkpt>
      <trkpt lat="47.62509" lon="-3.37566">
        <ele>-3.71</ele>
        <time>2015-10-10T14:23:01Z</time>
      </trkpt>
      <trkpt lat="47.62506" lon="-3.37566">
        <ele>-3.71</ele>
        <time>2015-10-10T14:23:02Z</time>
      </trkpt>
      <trkpt lat="47.62503" lon="-3.37567">
        <ele>-3.71</ele>
        <time>2015-10-10T14:23:03Z</time>
      </trkpt>
      <trkpt lat="47.625" lon="-3.37567">
        <ele>-3.71</ele>
        <time>2015-10-10T14:23:04Z</time>
      </trkpt>
      <trkpt lat="47.62498" lon="-3.37568">
        <ele>-3.71</ele>
        <time>2015-10-10T14:23:05Z</time>
      </trkpt>
      <trkpt lat="47.62495" lon="-3.37568">
        <ele>-3.71</ele>
        <time>2015-10-10T14:23:06Z</time>
      </trkpt>
      <trkpt lat="47.62492" lon="-3.37568">
        <ele>-3.71</ele>
        <time>2015-10-10T14:23:07Z</time>
      </trkpt>
      <trkpt lat="47.62489" lon="-3.37568">
        <ele>-2.27</ele>
        <time>2015-10-10T14:23:08Z</time>
      </trkpt>
      <trkpt lat="47.62486" lon="-3.37567">
        <ele>-2.27</ele>
        <time>2015-10-10T14:23:09Z</time>
      </trkpt>
      <trkpt lat="47.62483" lon="-3.37567">
        <ele>-2.27</ele>
        <time>2015-10-10T14:23:10Z</time>
      </trkpt>
      <trkpt lat="47.6248" lon="-3.37566">
        <ele>-2.27</ele>
        <time>2015-10-10T14:23:11Z</time>
      </trkpt>
      <trkpt lat="47.62478" lon="-3.37566">
        <ele>-2.27</ele>
        <time>2015-10-10T14:23:12Z</time>
      </trkpt>
      <trkpt lat="47.62475" lon="-3.37566">
        <ele>-2.27</ele>
        <time>2015-10-10T14:23:13Z</time>
      </trkpt>
      <trkpt lat="47.62471" lon="-3.37567">
        <ele>-3.23</ele>
        <time>2015-10-10T14:23:14Z</time>
      </trkpt>
      <trkpt lat="47.62469" lon="-3.37567">
        <ele>-3.23</ele>
        <time>2015-10-10T14:23:15Z</time>
      </trkpt>
      <trkpt lat="47.62466" lon="-3.37567">
        <ele>-3.23</ele>
        <time>2015-10-10T14:23:16Z</time>
      </trkpt>
      <trkpt lat="47.62463" lon="-3.37567">
        <ele>-3.71</ele>
        <time>2015-10-10T14:23:17Z</time>
      </trkpt>
      <trkpt lat="47.6246" lon="-3.37567">
        <ele>-3.71</ele>
        <time>2015-10-10T14:23:18Z</time>
      </trkpt>
      <trkpt lat="47.62457" lon="-3.37567">
        <ele>-3.71</ele>
        <time>2015-10-10T14:23:19Z</time>
      </trkpt>
      <trkpt lat="47.62454" lon="-3.37567">
        <ele>-3.71</ele>
        <time>2015-10-10T14:23:20Z</time>
      </trkpt>
      <trkpt lat="47.62451" lon="-3.37568">
        <ele>-3.71</ele>
        <time>2015-10-10T14:23:21Z</time>
      </trkpt>
      <trkpt lat="47.62449" lon="-3.37567">
        <ele>-3.71</ele>
        <time>2015-10-10T14:23:22Z</time>
      </trkpt>
      <trkpt lat="47.62446" lon="-3.37567">
        <ele>-1.79</ele>
        <time>2015-10-10T14:23:23Z</time>
      </trkpt>
      <trkpt lat="47.62443" lon="-3.37567">
        <ele>-1.79</ele>
        <time>2015-10-10T14:23:24Z</time>
      </trkpt>
      <trkpt lat="47.6244" lon="-3.37567">
        <ele>-1.79</ele>
        <time>2015-10-10T14:23:25Z</time>
      </trkpt>
      <trkpt lat="47.62437" lon="-3.37567">
        <ele>-1.79</ele>
        <time>2015-10-10T14:23:26Z</time>
      </trkpt>
      <trkpt lat="47.62434" lon="-3.37567">
        <ele>-1.79</ele>
        <time>2015-10-10T14:23:27Z</time>
      </trkpt>
      <trkpt lat="47.62431" lon="-3.37567">
        <ele>-3.23</ele>
        <time>2015-10-10T14:23:28Z</time>
      </trkpt>
      <trkpt lat="47.62428" lon="-3.37566">
        <ele>-3.23</ele>
        <time>2015-10-10T14:23:29Z</time>
      </trkpt>
      <trkpt lat="47.62425" lon="-3.37566">
        <ele>-3.71</ele>
        <time>2015-10-10T14:23:30Z</time>
      </trkpt>
      <trkpt lat="47.62422" lon="-3.37567">
        <ele>-3.71</ele>
        <time>2015-10-10T14:23:31Z</time>
      </trkpt>
      <trkpt lat="47.62419" lon="-3.37568">
        <ele>-3.71</ele>
        <time>2015-10-10T14:23:32Z</time>
      </trkpt>
      <trkpt lat="47.62416" lon="-3.37569">
        <ele>-3.71</ele>
        <time>2015-10-10T14:23:33Z</time>
      </trkpt>
      <trkpt lat="47.62413" lon="-3.3757">
        <ele>-3.71</ele>
        <time>2015-10-10T14:23:34Z</time>
      </trkpt>
      <trkpt lat="47.6241" lon="-3.3757">
        <ele>-3.71</ele>
        <time>2015-10-10T14:23:35Z</time>
      </trkpt>
      <trkpt lat="47.62408" lon="-3.3757">
        <ele>-3.71</ele>
        <time>2015-10-10T14:23:36Z</time>
      </trkpt>
      <trkpt lat="47.62405" lon="-3.37571">
        <ele>-3.71</ele>
        <time>2015-10-10T14:23:37Z</time>
      </trkpt>
      <trkpt lat="47.62402" lon="-3.37571">
        <ele>-2.75</ele>
        <time>2015-10-10T14:23:38Z</time>
      </trkpt>
      <trkpt lat="47.62399" lon="-3.37572">
        <ele>-2.75</ele>
        <time>2015-10-10T14:23:39Z</time>
      </trkpt>
      <trkpt lat="47.62396" lon="-3.37572">
        <ele>-2.75</ele>
        <time>2015-10-10T14:23:40Z</time>
      </trkpt>
      <trkpt lat="47.62393" lon="-3.37571">
        <ele>-2.75</ele>
        <time>2015-10-10T14:23:41Z</time>
      </trkpt>
      <trkpt lat="47.6239" lon="-3.37571">
        <ele>-2.75</ele>
        <time>2015-10-10T14:23:42Z</time>
      </trkpt>
      <trkpt lat="47.62388" lon="-3.3757">
        <ele>-2.75</ele>
        <time>2015-10-10T14:23:43Z</time>
      </trkpt>
      <trkpt lat="47.62385" lon="-3.3757">
        <ele>-2.75</ele>
        <time>2015-10-10T14:23:44Z</time>
      </trkpt>
      <trkpt lat="47.62382" lon="-3.37569">
        <ele>-2.75</ele>
        <time>2015-10-10T14:23:45Z</time>
      </trkpt>
      <trkpt lat="47.62379" lon="-3.37569">
        <ele>-2.75</ele>
        <time>2015-10-10T14:23:46Z</time>
      </trkpt>
      <trkpt lat="47.62376" lon="-3.3757">
        <ele>-2.75</ele>
        <time>2015-10-10T14:23:47Z</time>
      </trkpt>
      <trkpt lat="47.62374" lon="-3.3757">
        <ele>-2.75</ele>
        <time>2015-10-10T14:23:48Z</time>
      </trkpt>
      <trkpt lat="47.62371" lon="-3.37571">
        <ele>-2.75</ele>
        <time>2015-10-10T14:23:49Z</time>
      </trkpt>
      <trkpt lat="47.62368" lon="-3.37572">
        <ele>-2.75</ele>
        <time>2015-10-10T14:23:50Z</time>
      </trkpt>
      <trkpt lat="47.62365" lon="-3.37573">
        <ele>-2.75</ele>
        <time>2015-10-10T14:23:51Z</time>
      </trkpt>
      <trkpt lat="47.62362" lon="-3.37573">
        <ele>-2.75</ele>
        <time>2015-10-10T14:23:52Z</time>
      </trkpt>
      <trkpt lat="47.6236" lon="-3.37572">
        <ele>-2.75</ele>
        <time>2015-10-10T14:23:53Z</time>
      </trkpt>
      <trkpt lat="47.62357" lon="-3.37572">
        <ele>-2.75</ele>
        <time>2015-10-10T14:23:54Z</time>
      </trkpt>
      <trkpt lat="47.62354" lon="-3.37572">
        <ele>-2.75</ele>
        <time>2015-10-10T14:23:55Z</time>
      </trkpt>
      <trkpt lat="47.62351" lon="-3.37572">
        <ele>-2.75</ele>
        <time>2015-10-10T14:23:56Z</time>
      </trkpt>
      <trkpt lat="47.62348" lon="-3.37572">
        <ele>-2.75</ele>
        <time>2015-10-10T14:23:57Z</time>
      </trkpt>
      <trkpt lat="47.62345" lon="-3.37572">
        <ele>-2.75</ele>
        <time>2015-10-10T14:23:58Z</time>
      </trkpt>
      <trkpt lat="47.62342" lon="-3.37572">
        <ele>-2.75</ele>
        <time>2015-10-10T14:23:59Z</time>
      </trkpt>
      <trkpt lat="47.62339" lon="-3.37572">
        <ele>-2.27</ele>
        <time>2015-10-10T14:24:00Z</time>
      </trkpt>
      <trkpt lat="47.62336" lon="-3.37571">
        <ele>-2.27</ele>
        <time>2015-10-10T14:24:01Z</time>
      </trkpt>
      <trkpt lat="47.62334" lon="-3.37571">
        <ele>-3.71</ele>
        <time>2015-10-10T14:24:02Z</time>
      </trkpt>
      <trkpt lat="47.62331" lon="-3.37572">
        <ele>-2.27</ele>
        <time>2015-10-10T14:24:03Z</time>
      </trkpt>
      <trkpt lat="47.62328" lon="-3.37572">
        <ele>-2.27</ele>
        <time>2015-10-10T14:24:04Z</time>
      </trkpt>
      <trkpt lat="47.62324" lon="-3.37572">
        <ele>-2.27</ele>
        <time>2015-10-10T14:24:05Z</time>
      </trkpt>
      <trkpt lat="47.62321" lon="-3.37572">
        <ele>-2.27</ele>
        <time>2015-10-10T14:24:06Z</time>
      </trkpt>
      <trkpt lat="47.62318" lon="-3.37572">
        <ele>-2.27</ele>
        <time>2015-10-10T14:24:07Z</time>
      </trkpt>
      <trkpt lat="47.62316" lon="-3.37572">
        <ele>-2.27</ele>
        <time>2015-10-10T14:24:08Z</time>
      </trkpt>
      <trkpt lat="47.62312" lon="-3.37572">
        <ele>-2.27</ele>
        <time>2015-10-10T14:24:09Z</time>
      </trkpt>
      <trkpt lat="47.6231" lon="-3.37572">
        <ele>-2.27</ele>
        <time>2015-10-10T14:24:10Z</time>
      </trkpt>
      <trkpt lat="47.62307" lon="-3.37572">
        <ele>-2.27</ele>
        <time>2015-10-10T14:24:11Z</time>
      </trkpt>
      <trkpt lat="47.62304" lon="-3.37572">
        <ele>-2.27</ele>
        <time>2015-10-10T14:24:12Z</time>
      </trkpt>
      <trkpt lat="47.623" lon="-3.37572">
        <ele>-2.27</ele>
        <time>2015-10-10T14:24:13Z</time>
      </trkpt>
      <trkpt lat="47.62298" lon="-3.37571">
        <ele>-2.27</ele>
        <time>2015-10-10T14:24:14Z</time>
      </trkpt>
      <trkpt lat="47.62295" lon="-3.37571">
        <ele>-2.27</ele>
        <time>2015-10-10T14:24:15Z</time>
      </trkpt>
      <trkpt lat="47.62292" lon="-3.37571">
        <ele>-2.27</ele>
        <time>2015-10-10T14:24:16Z</time>
      </trkpt>
      <trkpt lat="47.62289" lon="-3.3757">
        <ele>-2.27</ele>
        <time>2015-10-10T14:24:17Z</time>
      </trkpt>
      <trkpt lat="47.62286" lon="-3.37571">
        <ele>-2.27</ele>
        <time>2015-10-10T14:24:18Z</time>
      </trkpt>
      <trkpt lat="47.62283" lon="-3.37571">
        <ele>-2.27</ele>
        <time>2015-10-10T14:24:19Z</time>
      </trkpt>
      <trkpt lat="47.6228" lon="-3.37571">
        <ele>-2.27</ele>
        <time>2015-10-10T14:24:20Z</time>
      </trkpt>
      <trkpt lat="47.62277" lon="-3.37572">
        <ele>-2.27</ele>
        <time>2015-10-10T14:24:21Z</time>
      </trkpt>
      <trkpt lat="47.62274" lon="-3.37572">
        <ele>-2.27</ele>
        <time>2015-10-10T14:24:22Z</time>
      </trkpt>
      <trkpt lat="47.62271" lon="-3.37572">
        <ele>-2.27</ele>
        <time>2015-10-10T14:24:23Z</time>
      </trkpt>
      <trkpt lat="47.62268" lon="-3.37572">
        <ele>-2.27</ele>
        <time>2015-10-10T14:24:24Z</time>
      </trkpt>
      <trkpt lat="47.62266" lon="-3.37572">
        <ele>-2.27</ele>
        <time>2015-10-10T14:24:25Z</time>
      </trkpt>
      <trkpt lat="47.62263" lon="-3.37573">
        <ele>-2.27</ele>
        <time>2015-10-10T14:24:26Z</time>
      </trkpt>
      <trkpt lat="47.6226" lon="-3.37574">
        <ele>-2.27</ele>
        <time>2015-10-10T14:24:27Z</time>
      </trkpt>
      <trkpt lat="47.62258" lon="-3.37575">
        <ele>-2.27</ele>
        <time>2015-10-10T14:24:28Z</time>
      </trkpt>
      <trkpt lat="47.62255" lon="-3.37575">
        <ele>-2.27</ele>
        <time>2015-10-10T14:24:29Z</time>
      </trkpt>
      <trkpt lat="47.62252" lon="-3.37575">
        <ele>-2.27</ele>
        <time>2015-10-10T14:24:30Z</time>
      </trkpt>
      <trkpt lat="47.62249" lon="-3.37576">
        <ele>-2.27</ele>
        <time>2015-10-10T14:24:31Z</time>
      </trkpt>
      <trkpt lat="47.62246" lon="-3.37576">
        <ele>-2.27</ele>
        <time>2015-10-10T14:24:32Z</time>
      </trkpt>
      <trkpt lat="47.62243" lon="-3.37577">
        <ele>-2.27</ele>
        <time>2015-10-10T14:24:33Z</time>
      </trkpt>
      <trkpt lat="47.6224" lon="-3.37577">
        <ele>-2.27</ele>
        <time>2015-10-10T14:24:34Z</time>
      </trkpt>
      <trkpt lat="47.62238" lon="-3.37577">
        <ele>-2.27</ele>
        <time>2015-10-10T14:24:35Z</time>
      </trkpt>
      <trkpt lat="47.62235" lon="-3.37578">
        <ele>-2.27</ele>
        <time>2015-10-10T14:24:36Z</time>
      </trkpt>
      <trkpt lat="47.62232" lon="-3.37579">
        <ele>-2.27</ele>
        <time>2015-10-10T14:24:37Z</time>
      </trkpt>
      <trkpt lat="47.62229" lon="-3.37579">
        <ele>-2.27</ele>
        <time>2015-10-10T14:24:38Z</time>
      </trkpt>
      <trkpt lat="47.62225" lon="-3.3758">
        <ele>-2.27</ele>
        <time>2015-10-10T14:24:39Z</time>
      </trkpt>
      <trkpt lat="47.62223" lon="-3.3758">
        <ele>-2.27</ele>
        <time>2015-10-10T14:24:40Z</time>
      </trkpt>
      <trkpt lat="47.6222" lon="-3.3758">
        <ele>-2.27</ele>
        <time>2015-10-10T14:24:41Z</time>
      </trkpt>
      <trkpt lat="47.62218" lon="-3.37581">
        <ele>-2.27</ele>
        <time>2015-10-10T14:24:42Z</time>
      </trkpt>
      <trkpt lat="47.62215" lon="-3.37581">
        <ele>-2.27</ele>
        <time>2015-10-10T14:24:43Z</time>
      </trkpt>
      <trkpt lat="47.62212" lon="-3.37582">
        <ele>-2.27</ele>
        <time>2015-10-10T14:24:44Z</time>
      </trkpt>
      <trkpt lat="47.62209" lon="-3.37583">
        <ele>-2.27</ele>
        <time>2015-10-10T14:24:45Z</time>
      </trkpt>
      <trkpt lat="47.62206" lon="-3.37583">
        <ele>-2.27</ele>
        <time>2015-10-10T14:24:46Z</time>
      </trkpt>
      <trkpt lat="47.62203" lon="-3.37584">
        <ele>-2.27</ele>
        <time>2015-10-10T14:24:47Z</time>
      </trkpt>
      <trkpt lat="47.622" lon="-3.37584">
        <ele>-2.27</ele>
        <time>2015-10-10T14:24:48Z</time>
      </trkpt>
      <trkpt lat="47.62197" lon="-3.37585">
        <ele>-3.71</ele>
        <time>2015-10-10T14:24:49Z</time>
      </trkpt>
      <trkpt lat="47.62195" lon="-3.37585">
        <ele>-2.27</ele>
        <time>2015-10-10T14:24:50Z</time>
      </trkpt>
      <trkpt lat="47.62192" lon="-3.37585">
        <ele>-2.27</ele>
        <time>2015-10-10T14:24:51Z</time>
      </trkpt>
      <trkpt lat="47.62189" lon="-3.37585">
        <ele>-2.75</ele>
        <time>2015-10-10T14:24:52Z</time>
      </trkpt>
      <trkpt lat="47.62187" lon="-3.37586">
        <ele>-2.75</ele>
        <time>2015-10-10T14:24:53Z</time>
      </trkpt>
      <trkpt lat="47.62184" lon="-3.37586">
        <ele>-2.75</ele>
        <time>2015-10-10T14:24:54Z</time>
      </trkpt>
      <trkpt lat="47.62181" lon="-3.37586">
        <ele>-2.75</ele>
        <time>2015-10-10T14:24:55Z</time>
      </trkpt>
      <trkpt lat="47.62179" lon="-3.37586">
        <ele>-2.27</ele>
        <time>2015-10-10T14:24:56Z</time>
      </trkpt>
      <trkpt lat="47.62176" lon="-3.37587">
        <ele>-2.27</ele>
        <time>2015-10-10T14:24:57Z</time>
      </trkpt>
      <trkpt lat="47.62173" lon="-3.37587">
        <ele>-2.27</ele>
        <time>2015-10-10T14:24:58Z</time>
      </trkpt>
      <trkpt lat="47.6217" lon="-3.37587">
        <ele>-3.71</ele>
        <time>2015-10-10T14:24:59Z</time>
      </trkpt>
      <trkpt lat="47.62167" lon="-3.37588">
        <ele>-3.71</ele>
        <time>2015-10-10T14:25:00Z</time>
      </trkpt>
      <trkpt lat="47.62165" lon="-3.37588">
        <ele>-3.71</ele>
        <time>2015-10-10T14:25:01Z</time>
      </trkpt>
      <trkpt lat="47.62162" lon="-3.37588">
        <ele>-3.71</ele>
        <time>2015-10-10T14:25:02Z</time>
      </trkpt>
      <trkpt lat="47.62159" lon="-3.37589">
        <ele>-3.71</ele>
        <time>2015-10-10T14:25:03Z</time>
      </trkpt>
      <trkpt lat="47.62157" lon="-3.37589">
        <ele>-2.75</ele>
        <time>2015-10-10T14:25:04Z</time>
      </trkpt>
      <trkpt lat="47.62154" lon="-3.37589">
        <ele>-2.75</ele>
        <time>2015-10-10T14:25:05Z</time>
      </trkpt>
      <trkpt lat="47.62151" lon="-3.37589">
        <ele>-1.79</ele>
        <time>2015-10-10T14:25:06Z</time>
      </trkpt>
      <trkpt lat="47.62149" lon="-3.37588">
        <ele>-1.79</ele>
        <time>2015-10-10T14:25:07Z</time>
      </trkpt>
      <trkpt lat="47.62146" lon="-3.37588">
        <ele>-1.79</ele>
        <time>2015-10-10T14:25:08Z</time>
      </trkpt>
      <trkpt lat="47.62144" lon="-3.37587">
        <ele>-1.79</ele>
        <time>2015-10-10T14:25:09Z</time>
      </trkpt>
      <trkpt lat="47.62141" lon="-3.37587">
        <ele>-1.79</ele>
        <time>2015-10-10T14:25:10Z</time>
      </trkpt>
      <trkpt lat="47.62138" lon="-3.37587">
        <ele>-1.79</ele>
        <time>2015-10-10T14:25:11Z</time>
      </trkpt>
      <trkpt lat="47.62135" lon="-3.37587">
        <ele>-1.79</ele>
        <time>2015-10-10T14:25:12Z</time>
      </trkpt>
      <trkpt lat="47.62132" lon="-3.37586">
        <ele>-3.23</ele>
        <time>2015-10-10T14:25:13Z</time>
      </trkpt>
      <trkpt lat="47.62129" lon="-3.37585">
        <ele>-3.23</ele>
        <time>2015-10-10T14:25:14Z</time>
      </trkpt>
      <trkpt lat="47.62126" lon="-3.37585">
        <ele>-3.23</ele>
        <time>2015-10-10T14:25:15Z</time>
      </trkpt>
      <trkpt lat="47.62124" lon="-3.37584">
        <ele>-3.23</ele>
        <time>2015-10-10T14:25:16Z</time>
      </trkpt>
      <trkpt lat="47.62121" lon="-3.37583">
        <ele>-3.23</ele>
        <time>2015-10-10T14:25:17Z</time>
      </trkpt>
      <trkpt lat="47.62118" lon="-3.37583">
        <ele>-3.23</ele>
        <time>2015-10-10T14:25:18Z</time>
      </trkpt>
      <trkpt lat="47.62115" lon="-3.37582">
        <ele>-2.27</ele>
        <time>2015-10-10T14:25:19Z</time>
      </trkpt>
      <trkpt lat="47.62112" lon="-3.37581">
        <ele>-2.27</ele>
        <time>2015-10-10T14:25:20Z</time>
      </trkpt>
      <trkpt lat="47.6211" lon="-3.3758">
        <ele>-2.27</ele>
        <time>2015-10-10T14:25:21Z</time>
      </trkpt>
      <trkpt lat="47.62107" lon="-3.37579">
        <ele>-2.27</ele>
        <time>2015-10-10T14:25:22Z</time>
      </trkpt>
      <trkpt lat="47.62105" lon="-3.37578">
        <ele>-2.27</ele>
        <time>2015-10-10T14:25:23Z</time>
      </trkpt>
      <trkpt lat="47.62102" lon="-3.37577">
        <ele>-2.27</ele>
        <time>2015-10-10T14:25:24Z</time>
      </trkpt>
      <trkpt lat="47.62099" lon="-3.37576">
        <ele>-2.27</ele>
        <time>2015-10-10T14:25:25Z</time>
      </trkpt>
      <trkpt lat="47.62097" lon="-3.37576">
        <ele>-2.27</ele>
        <time>2015-10-10T14:25:26Z</time>
      </trkpt>
      <trkpt lat="47.62094" lon="-3.37575">
        <ele>-2.27</ele>
        <time>2015-10-10T14:25:27Z</time>
      </trkpt>
      <trkpt lat="47.62091" lon="-3.37575">
        <ele>-3.71</ele>
        <time>2015-10-10T14:25:28Z</time>
      </trkpt>
      <trkpt lat="47.62087" lon="-3.37576">
        <ele>-3.71</ele>
        <time>2015-10-10T14:25:29Z</time>
      </trkpt>
      <trkpt lat="47.62085" lon="-3.37576">
        <ele>-3.71</ele>
        <time>2015-10-10T14:25:30Z</time>
      </trkpt>
      <trkpt lat="47.62082" lon="-3.37576">
        <ele>-3.71</ele>
        <time>2015-10-10T14:25:31Z</time>
      </trkpt>
      <trkpt lat="47.62079" lon="-3.37576">
        <ele>-3.71</ele>
        <time>2015-10-10T14:25:32Z</time>
      </trkpt>
      <trkpt lat="47.62076" lon="-3.37576">
        <ele>-3.71</ele>
        <time>2015-10-10T14:25:33Z</time>
      </trkpt>
      <trkpt lat="47.62073" lon="-3.37576">
        <ele>-2.27</ele>
        <time>2015-10-10T14:25:34Z</time>
      </trkpt>
      <trkpt lat="47.62071" lon="-3.37577">
        <ele>-2.27</ele>
        <time>2015-10-10T14:25:35Z</time>
      </trkpt>
      <trkpt lat="47.62068" lon="-3.37577">
        <ele>-2.27</ele>
        <time>2015-10-10T14:25:36Z</time>
      </trkpt>
      <trkpt lat="47.62065" lon="-3.37577">
        <ele>-2.27</ele>
        <time>2015-10-10T14:25:37Z</time>
      </trkpt>
      <trkpt lat="47.62062" lon="-3.37576">
        <ele>-2.27</ele>
        <time>2015-10-10T14:25:38Z</time>
      </trkpt>
      <trkpt lat="47.62059" lon="-3.37575">
        <ele>-2.27</ele>
        <time>2015-10-10T14:25:39Z</time>
      </trkpt>
      <trkpt lat="47.62057" lon="-3.37575">
        <ele>-2.27</ele>
        <time>2015-10-10T14:25:40Z</time>
      </trkpt>
      <trkpt lat="47.62054" lon="-3.37575">
        <ele>-3.71</ele>
        <time>2015-10-10T14:25:41Z</time>
      </trkpt>
      <trkpt lat="47.62051" lon="-3.37574">
        <ele>-3.23</ele>
        <time>2015-10-10T14:25:42Z</time>
      </trkpt>
      <trkpt lat="47.62048" lon="-3.37574">
        <ele>-3.23</ele>
        <time>2015-10-10T14:25:43Z</time>
      </trkpt>
      <trkpt lat="47.62045" lon="-3.37574">
        <ele>-3.71</ele>
        <time>2015-10-10T14:25:44Z</time>
      </trkpt>
      <trkpt lat="47.62043" lon="-3.37574">
        <ele>-3.23</ele>
        <time>2015-10-10T14:25:45Z</time>
      </trkpt>
      <trkpt lat="47.6204" lon="-3.37575">
        <ele>-3.23</ele>
        <time>2015-10-10T14:25:46Z</time>
      </trkpt>
      <trkpt lat="47.62037" lon="-3.37575">
        <ele>-3.23</ele>
        <time>2015-10-10T14:25:47Z</time>
      </trkpt>
      <trkpt lat="47.62035" lon="-3.37575">
        <ele>-3.23</ele>
        <time>2015-10-10T14:25:48Z</time>
      </trkpt>
      <trkpt lat="47.62032" lon="-3.37575">
        <ele>-3.23</ele>
        <time>2015-10-10T14:25:49Z</time>
      </trkpt>
      <trkpt lat="47.62029" lon="-3.37574">
        <ele>-3.23</ele>
        <time>2015-10-10T14:25:50Z</time>
      </trkpt>
      <trkpt lat="47.62027" lon="-3.37573">
        <ele>-3.23</ele>
        <time>2015-10-10T14:25:51Z</time>
      </trkpt>
      <trkpt lat="47.62024" lon="-3.37573">
        <ele>-3.23</ele>
        <time>2015-10-10T14:25:52Z</time>
      </trkpt>
      <trkpt lat="47.62021" lon="-3.37573">
        <ele>-3.23</ele>
        <time>2015-10-10T14:25:53Z</time>
      </trkpt>
      <trkpt lat="47.62018" lon="-3.37573">
        <ele>-3.23</ele>
        <time>2015-10-10T14:25:54Z</time>
      </trkpt>
      <trkpt lat="47.62016" lon="-3.37573">
        <ele>-3.23</ele>
        <time>2015-10-10T14:25:55Z</time>
      </trkpt>
      <trkpt lat="47.62013" lon="-3.37572">
        <ele>-3.23</ele>
        <time>2015-10-10T14:25:56Z</time>
      </trkpt>
      <trkpt lat="47.6201" lon="-3.37572">
        <ele>-3.23</ele>
        <time>2015-10-10T14:25:57Z</time>
      </trkpt>
      <trkpt lat="47.62007" lon="-3.37572">
        <ele>-3.23</ele>
        <time>2015-10-10T14:25:58Z</time>
      </trkpt>
      <trkpt lat="47.62004" lon="-3.37571">
        <ele>-3.23</ele>
        <time>2015-10-10T14:25:59Z</time>
      </trkpt>
      <trkpt lat="47.62002" lon="-3.37571">
        <ele>-3.23</ele>
        <time>2015-10-10T14:26:00Z</time>
      </trkpt>
      <trkpt lat="47.61999" lon="-3.37571">
        <ele>-3.23</ele>
        <time>2015-10-10T14:26:01Z</time>
      </trkpt>
      <trkpt lat="47.61996" lon="-3.37571">
        <ele>-3.23</ele>
        <time>2015-10-10T14:26:02Z</time>
      </trkpt>
      <trkpt lat="47.61993" lon="-3.3757">
        <ele>-1.79</ele>
        <time>2015-10-10T14:26:03Z</time>
      </trkpt>
      <trkpt lat="47.61991" lon="-3.37569">
        <ele>-1.79</ele>
        <time>2015-10-10T14:26:04Z</time>
      </trkpt>
      <trkpt lat="47.61989" lon="-3.37568">
        <ele>-1.79</ele>
        <time>2015-10-10T14:26:05Z</time>
      </trkpt>
      <trkpt lat="47.61986" lon="-3.37567">
        <ele>-1.79</ele>
        <time>2015-10-10T14:26:06Z</time>
      </trkpt>
      <trkpt lat="47.61983" lon="-3.37567">
        <ele>-1.79</ele>
        <time>2015-10-10T14:26:07Z</time>
      </trkpt>
      <trkpt lat="47.61981" lon="-3.37567">
        <ele>-1.79</ele>
        <time>2015-10-10T14:26:08Z</time>
      </trkpt>
      <trkpt lat="47.61978" lon="-3.37567">
        <ele>-3.23</ele>
        <time>2015-10-10T14:26:09Z</time>
      </trkpt>
      <trkpt lat="47.61975" lon="-3.37567">
        <ele>-3.23</ele>
        <time>2015-10-10T14:26:10Z</time>
      </trkpt>
      <trkpt lat="47.61972" lon="-3.37568">
        <ele>-3.23</ele>
        <time>2015-10-10T14:26:11Z</time>
      </trkpt>
      <trkpt lat="47.61969" lon="-3.37568">
        <ele>-3.23</ele>
        <time>2015-10-10T14:26:12Z</time>
      </trkpt>
      <trkpt lat="47.61966" lon="-3.37568">
        <ele>-3.23</ele>
        <time>2015-10-10T14:26:13Z</time>
      </trkpt>
      <trkpt lat="47.61963" lon="-3.37568">
        <ele>-3.23</ele>
        <time>2015-10-10T14:26:14Z</time>
      </trkpt>
      <trkpt lat="47.6196" lon="-3.37568">
        <ele>-3.23</ele>
        <time>2015-10-10T14:26:15Z</time>
      </trkpt>
      <trkpt lat="47.61958" lon="-3.37568">
        <ele>-3.23</ele>
        <time>2015-10-10T14:26:16Z</time>
      </trkpt>
      <trkpt lat="47.61955" lon="-3.37568">
        <ele>-1.79</ele>
        <time>2015-10-10T14:26:17Z</time>
      </trkpt>
      <trkpt lat="47.61953" lon="-3.37567">
        <ele>-1.79</ele>
        <time>2015-10-10T14:26:18Z</time>
      </trkpt>
      <trkpt lat="47.6195" lon="-3.37567">
        <ele>-1.79</ele>
        <time>2015-10-10T14:26:19Z</time>
      </trkpt>
      <trkpt lat="47.61947" lon="-3.37566">
        <ele>-1.79</ele>
        <time>2015-10-10T14:26:20Z</time>
      </trkpt>
      <trkpt lat="47.61945" lon="-3.37565">
        <ele>-1.79</ele>
        <time>2015-10-10T14:26:21Z</time>
      </trkpt>
      <trkpt lat="47.61942" lon="-3.37565">
        <ele>-3.23</ele>
        <time>2015-10-10T14:26:22Z</time>
      </trkpt>
      <trkpt lat="47.61939" lon="-3.37565">
        <ele>-3.23</ele>
        <time>2015-10-10T14:26:23Z</time>
      </trkpt>
      <trkpt lat="47.61936" lon="-3.37565">
        <ele>-3.23</ele>
        <time>2015-10-10T14:26:24Z</time>
      </trkpt>
      <trkpt lat="47.61933" lon="-3.37565">
        <ele>-3.23</ele>
        <time>2015-10-10T14:26:25Z</time>
      </trkpt>
      <trkpt lat="47.6193" lon="-3.37565">
        <ele>-3.23</ele>
        <time>2015-10-10T14:26:26Z</time>
      </trkpt>
      <trkpt lat="47.61928" lon="-3.37565">
        <ele>-3.23</ele>
        <time>2015-10-10T14:26:27Z</time>
      </trkpt>
      <trkpt lat="47.61925" lon="-3.37564">
        <ele>-3.23</ele>
        <time>2015-10-10T14:26:28Z</time>
      </trkpt>
      <trkpt lat="47.61922" lon="-3.37564">
        <ele>-3.23</ele>
        <time>2015-10-10T14:26:29Z</time>
      </trkpt>
      <trkpt lat="47.61919" lon="-3.37563">
        <ele>-3.23</ele>
        <time>2015-10-10T14:26:30Z</time>
      </trkpt>
      <trkpt lat="47.61916" lon="-3.37563">
        <ele>-3.23</ele>
        <time>2015-10-10T14:26:31Z</time>
      </trkpt>
      <trkpt lat="47.61913" lon="-3.37562">
        <ele>-3.23</ele>
        <time>2015-10-10T14:26:32Z</time>
      </trkpt>
      <trkpt lat="47.61911" lon="-3.37562">
        <ele>-3.23</ele>
        <time>2015-10-10T14:26:33Z</time>
      </trkpt>
      <trkpt lat="47.61908" lon="-3.37562">
        <ele>-3.23</ele>
        <time>2015-10-10T14:26:34Z</time>
      </trkpt>
      <trkpt lat="47.61905" lon="-3.37561">
        <ele>-3.23</ele>
        <time>2015-10-10T14:26:35Z</time>
      </trkpt>
      <trkpt lat="47.61903" lon="-3.37561">
        <ele>-3.23</ele>
        <time>2015-10-10T14:26:36Z</time>
      </trkpt>
      <trkpt lat="47.619" lon="-3.3756">
        <ele>-3.23</ele>
        <time>2015-10-10T14:26:37Z</time>
      </trkpt>
      <trkpt lat="47.61897" lon="-3.37559">
        <ele>-3.23</ele>
        <time>2015-10-10T14:26:38Z</time>
      </trkpt>
      <trkpt lat="47.61894" lon="-3.37559">
        <ele>-2.27</ele>
        <time>2015-10-10T14:26:39Z</time>
      </trkpt>
      <trkpt lat="47.61891" lon="-3.37558">
        <ele>-2.27</ele>
        <time>2015-10-10T14:26:40Z</time>
      </trkpt>
      <trkpt lat="47.61889" lon="-3.37558">
        <ele>-2.27</ele>
        <time>2015-10-10T14:26:41Z</time>
      </trkpt>
      <trkpt lat="47.61886" lon="-3.37558">
        <ele>-2.27</ele>
        <time>2015-10-10T14:26:42Z</time>
      </trkpt>
      <trkpt lat="47.61883" lon="-3.37559">
        <ele>-2.27</ele>
        <time>2015-10-10T14:26:43Z</time>
      </trkpt>
      <trkpt lat="47.6188" lon="-3.37559">
        <ele>-3.71</ele>
        <time>2015-10-10T14:26:44Z</time>
      </trkpt>
      <trkpt lat="47.61878" lon="-3.37558">
        <ele>-3.71</ele>
        <time>2015-10-10T14:26:45Z</time>
      </trkpt>
      <trkpt lat="47.61875" lon="-3.37558">
        <ele>-3.71</ele>
        <time>2015-10-10T14:26:46Z</time>
      </trkpt>
      <trkpt lat="47.61872" lon="-3.37557">
        <ele>-3.71</ele>
        <time>2015-10-10T14:26:47Z</time>
      </trkpt>
      <trkpt lat="47.61869" lon="-3.37556">
        <ele>-2.27</ele>
        <time>2015-10-10T14:26:48Z</time>
      </trkpt>
      <trkpt lat="47.61866" lon="-3.37555">
        <ele>-2.27</ele>
        <time>2015-10-10T14:26:49Z</time>
      </trkpt>
      <trkpt lat="47.61864" lon="-3.37554">
        <ele>-1.3</ele>
        <time>2015-10-10T14:26:50Z</time>
      </trkpt>
      <trkpt lat="47.61861" lon="-3.37553">
        <ele>-1.3</ele>
        <time>2015-10-10T14:26:51Z</time>
      </trkpt>
      <trkpt lat="47.61859" lon="-3.37552">
        <ele>-1.3</ele>
        <time>2015-10-10T14:26:52Z</time>
      </trkpt>
      <trkpt lat="47.61856" lon="-3.37551">
        <ele>-1.3</ele>
        <time>2015-10-10T14:26:53Z</time>
      </trkpt>
      <trkpt lat="47.61854" lon="-3.3755">
        <ele>-3.23</ele>
        <time>2015-10-10T14:26:54Z</time>
      </trkpt>
      <trkpt lat="47.61851" lon="-3.37549">
        <ele>-2.75</ele>
        <time>2015-10-10T14:26:55Z</time>
      </trkpt>
      <trkpt lat="47.61848" lon="-3.37548">
        <ele>-3.71</ele>
        <time>2015-10-10T14:26:56Z</time>
      </trkpt>
      <trkpt lat="47.61845" lon="-3.37548">
        <ele>-3.71</ele>
        <time>2015-10-10T14:26:57Z</time>
      </trkpt>
      <trkpt lat="47.61842" lon="-3.37548">
        <ele>-3.71</ele>
        <time>2015-10-10T14:26:58Z</time>
      </trkpt>
      <trkpt lat="47.61839" lon="-3.37547">
        <ele>-3.71</ele>
        <time>2015-10-10T14:26:59Z</time>
      </trkpt>
      <trkpt lat="47.61837" lon="-3.37546">
        <ele>-3.71</ele>
        <time>2015-10-10T14:27:00Z</time>
      </trkpt>
      <trkpt lat="47.61834" lon="-3.37545">
        <ele>-1.79</ele>
        <time>2015-10-10T14:27:01Z</time>
      </trkpt>
      <trkpt lat="47.61831" lon="-3.37544">
        <ele>-1.79</ele>
        <time>2015-10-10T14:27:02Z</time>
      </trkpt>
      <trkpt lat="47.61829" lon="-3.37542">
        <ele>-1.79</ele>
        <time>2015-10-10T14:27:03Z</time>
      </trkpt>
      <trkpt lat="47.61826" lon="-3.37541">
        <ele>-1.79</ele>
        <time>2015-10-10T14:27:04Z</time>
      </trkpt>
      <trkpt lat="47.61824" lon="-3.3754">
        <ele>-1.79</ele>
        <time>2015-10-10T14:27:05Z</time>
      </trkpt>
      <trkpt lat="47.61822" lon="-3.37539">
        <ele>-1.79</ele>
        <time>2015-10-10T14:27:06Z</time>
      </trkpt>
      <trkpt lat="47.61819" lon="-3.37537">
        <ele>-1.79</ele>
        <time>2015-10-10T14:27:07Z</time>
      </trkpt>
      <trkpt lat="47.61817" lon="-3.37536">
        <ele>-1.79</ele>
        <time>2015-10-10T14:27:08Z</time>
      </trkpt>
      <trkpt lat="47.61814" lon="-3.37536">
        <ele>-3.23</ele>
        <time>2015-10-10T14:27:09Z</time>
      </trkpt>
      <trkpt lat="47.61812" lon="-3.37535">
        <ele>-3.23</ele>
        <time>2015-10-10T14:27:10Z</time>
      </trkpt>
      <trkpt lat="47.61809" lon="-3.37535">
        <ele>-3.23</ele>
        <time>2015-10-10T14:27:11Z</time>
      </trkpt>
      <trkpt lat="47.61807" lon="-3.37535">
        <ele>-3.23</ele>
        <time>2015-10-10T14:27:12Z</time>
      </trkpt>
      <trkpt lat="47.61804" lon="-3.37535">
        <ele>-3.23</ele>
        <time>2015-10-10T14:27:13Z</time>
      </trkpt>
      <trkpt lat="47.61801" lon="-3.37535">
        <ele>-3.23</ele>
        <time>2015-10-10T14:27:14Z</time>
      </trkpt>
      <trkpt lat="47.61799" lon="-3.37534">
        <ele>-3.23</ele>
        <time>2015-10-10T14:27:15Z</time>
      </trkpt>
      <trkpt lat="47.61796" lon="-3.37533">
        <ele>-3.23</ele>
        <time>2015-10-10T14:27:16Z</time>
      </trkpt>
      <trkpt lat="47.61793" lon="-3.37532">
        <ele>-3.23</ele>
        <time>2015-10-10T14:27:17Z</time>
      </trkpt>
      <trkpt lat="47.6179" lon="-3.37531">
        <ele>-3.23</ele>
        <time>2015-10-10T14:27:18Z</time>
      </trkpt>
      <trkpt lat="47.61788" lon="-3.37531">
        <ele>-3.23</ele>
        <time>2015-10-10T14:27:19Z</time>
      </trkpt>
      <trkpt lat="47.61785" lon="-3.37531">
        <ele>-3.23</ele>
        <time>2015-10-10T14:27:20Z</time>
      </trkpt>
      <trkpt lat="47.61783" lon="-3.3753">
        <ele>-2.27</ele>
        <time>2015-10-10T14:27:21Z</time>
      </trkpt>
      <trkpt lat="47.6178" lon="-3.37529">
        <ele>-2.27</ele>
        <time>2015-10-10T14:27:22Z</time>
      </trkpt>
      <trkpt lat="47.61778" lon="-3.37529">
        <ele>-2.27</ele>
        <time>2015-10-10T14:27:23Z</time>
      </trkpt>
      <trkpt lat="47.61775" lon="-3.37528">
        <ele>-2.27</ele>
        <time>2015-10-10T14:27:24Z</time>
      </trkpt>
      <trkpt lat="47.61772" lon="-3.37527">
        <ele>-2.27</ele>
        <time>2015-10-10T14:27:25Z</time>
      </trkpt>
      <trkpt lat="47.6177" lon="-3.37527">
        <ele>-3.23</ele>
        <time>2015-10-10T14:27:26Z</time>
      </trkpt>
      <trkpt lat="47.61767" lon="-3.37526">
        <ele>-3.23</ele>
        <time>2015-10-10T14:27:27Z</time>
      </trkpt>
      <trkpt lat="47.61764" lon="-3.37526">
        <ele>-2.27</ele>
        <time>2015-10-10T14:27:28Z</time>
      </trkpt>
      <trkpt lat="47.61762" lon="-3.37526">
        <ele>-3.71</ele>
        <time>2015-10-10T14:27:29Z</time>
      </trkpt>
      <trkpt lat="47.61759" lon="-3.37525">
        <ele>-3.71</ele>
        <time>2015-10-10T14:27:30Z</time>
      </trkpt>
      <trkpt lat="47.61756" lon="-3.37525">
        <ele>-3.71</ele>
        <time>2015-10-10T14:27:31Z</time>
      </trkpt>
      <trkpt lat="47.61753" lon="-3.37525">
        <ele>-3.71</ele>
        <time>2015-10-10T14:27:32Z</time>
      </trkpt>
      <trkpt lat="47.6175" lon="-3.37525">
        <ele>-3.71</ele>
        <time>2015-10-10T14:27:33Z</time>
      </trkpt>
      <trkpt lat="47.61748" lon="-3.37524">
        <ele>-2.27</ele>
        <time>2015-10-10T14:27:34Z</time>
      </trkpt>
      <trkpt lat="47.61745" lon="-3.37523">
        <ele>-2.75</ele>
        <time>2015-10-10T14:27:35Z</time>
      </trkpt>
      <trkpt lat="47.61743" lon="-3.37522">
        <ele>-2.27</ele>
        <time>2015-10-10T14:27:36Z</time>
      </trkpt>
      <trkpt lat="47.61741" lon="-3.37522">
        <ele>-2.75</ele>
        <time>2015-10-10T14:27:37Z</time>
      </trkpt>
      <trkpt lat="47.61738" lon="-3.37521">
        <ele>-1.79</ele>
        <time>2015-10-10T14:27:38Z</time>
      </trkpt>
      <trkpt lat="47.61735" lon="-3.3752">
        <ele>-2.27</ele>
        <time>2015-10-10T14:27:39Z</time>
      </trkpt>
      <trkpt lat="47.61733" lon="-3.37519">
        <ele>-1.79</ele>
        <time>2015-10-10T14:27:40Z</time>
      </trkpt>
      <trkpt lat="47.6173" lon="-3.37518">
        <ele>-1.79</ele>
        <time>2015-10-10T14:27:41Z</time>
      </trkpt>
      <trkpt lat="47.61728" lon="-3.37517">
        <ele>-1.79</ele>
        <time>2015-10-10T14:27:42Z</time>
      </trkpt>
      <trkpt lat="47.61725" lon="-3.37516">
        <ele>-1.79</ele>
        <time>2015-10-10T14:27:43Z</time>
      </trkpt>
      <trkpt lat="47.61723" lon="-3.37516">
        <ele>-1.79</ele>
        <time>2015-10-10T14:27:44Z</time>
      </trkpt>
      <trkpt lat="47.6172" lon="-3.37515">
        <ele>-1.79</ele>
        <time>2015-10-10T14:27:45Z</time>
      </trkpt>
      <trkpt lat="47.61718" lon="-3.37515">
        <ele>-3.23</ele>
        <time>2015-10-10T14:27:46Z</time>
      </trkpt>
      <trkpt lat="47.61715" lon="-3.37514">
        <ele>-3.23</ele>
        <time>2015-10-10T14:27:47Z</time>
      </trkpt>
      <trkpt lat="47.61712" lon="-3.37514">
        <ele>-3.23</ele>
        <time>2015-10-10T14:27:48Z</time>
      </trkpt>
      <trkpt lat="47.61709" lon="-3.37513">
        <ele>-3.23</ele>
        <time>2015-10-10T14:27:49Z</time>
      </trkpt>
      <trkpt lat="47.61707" lon="-3.37512">
        <ele>-3.23</ele>
        <time>2015-10-10T14:27:50Z</time>
      </trkpt>
      <trkpt lat="47.61704" lon="-3.37512">
        <ele>-3.23</ele>
        <time>2015-10-10T14:27:51Z</time>
      </trkpt>
      <trkpt lat="47.61701" lon="-3.37512">
        <ele>-3.23</ele>
        <time>2015-10-10T14:27:52Z</time>
      </trkpt>
      <trkpt lat="47.61698" lon="-3.37511">
        <ele>-3.23</ele>
        <time>2015-10-10T14:27:53Z</time>
      </trkpt>
      <trkpt lat="47.61696" lon="-3.3751">
        <ele>-3.23</ele>
        <time>2015-10-10T14:27:54Z</time>
      </trkpt>
      <trkpt lat="47.61693" lon="-3.3751">
        <ele>-3.23</ele>
        <time>2015-10-10T14:27:55Z</time>
      </trkpt>
      <trkpt lat="47.61691" lon="-3.37509">
        <ele>-1.79</ele>
        <time>2015-10-10T14:27:56Z</time>
      </trkpt>
      <trkpt lat="47.61688" lon="-3.37509">
        <ele>-1.79</ele>
        <time>2015-10-10T14:27:57Z</time>
      </trkpt>
      <trkpt lat="47.61685" lon="-3.37508">
        <ele>-1.79</ele>
        <time>2015-10-10T14:27:58Z</time>
      </trkpt>
      <trkpt lat="47.61683" lon="-3.37507">
        <ele>-1.79</ele>
        <time>2015-10-10T14:27:59Z</time>
      </trkpt>
      <trkpt lat="47.6168" lon="-3.37506">
        <ele>-1.79</ele>
        <time>2015-10-10T14:28:00Z</time>
      </trkpt>
      <trkpt lat="47.61677" lon="-3.37505">
        <ele>-1.79</ele>
        <time>2015-10-10T14:28:01Z</time>
      </trkpt>
      <trkpt lat="47.61675" lon="-3.37505">
        <ele>-3.71</ele>
        <time>2015-10-10T14:28:02Z</time>
      </trkpt>
      <trkpt lat="47.61672" lon="-3.37505">
        <ele>-3.71</ele>
        <time>2015-10-10T14:28:03Z</time>
      </trkpt>
      <trkpt lat="47.61669" lon="-3.37504">
        <ele>-3.71</ele>
        <time>2015-10-10T14:28:04Z</time>
      </trkpt>
      <trkpt lat="47.61666" lon="-3.37504">
        <ele>-3.71</ele>
        <time>2015-10-10T14:28:05Z</time>
      </trkpt>
      <trkpt lat="47.61664" lon="-3.37503">
        <ele>-3.71</ele>
        <time>2015-10-10T14:28:06Z</time>
      </trkpt>
      <trkpt lat="47.61661" lon="-3.37503">
        <ele>-3.71</ele>
        <time>2015-10-10T14:28:07Z</time>
      </trkpt>
      <trkpt lat="47.61658" lon="-3.37502">
        <ele>-3.71</ele>
        <time>2015-10-10T14:28:08Z</time>
      </trkpt>
      <trkpt lat="47.61655" lon="-3.37502">
        <ele>-3.71</ele>
        <time>2015-10-10T14:28:09Z</time>
      </trkpt>
      <trkpt lat="47.61652" lon="-3.37501">
        <ele>-3.71</ele>
        <time>2015-10-10T14:28:10Z</time>
      </trkpt>
      <trkpt lat="47.6165" lon="-3.375">
        <ele>-3.71</ele>
        <time>2015-10-10T14:28:11Z</time>
      </trkpt>
      <trkpt lat="47.61647" lon="-3.375">
        <ele>-2.27</ele>
        <time>2015-10-10T14:28:12Z</time>
      </trkpt>
      <trkpt lat="47.61644" lon="-3.37499">
        <ele>-2.27</ele>
        <time>2015-10-10T14:28:13Z</time>
      </trkpt>
      <trkpt lat="47.61642" lon="-3.37498">
        <ele>-2.27</ele>
        <time>2015-10-10T14:28:14Z</time>
      </trkpt>
      <trkpt lat="47.61639" lon="-3.37498">
        <ele>-2.27</ele>
        <time>2015-10-10T14:28:15Z</time>
      </trkpt>
      <trkpt lat="47.61636" lon="-3.37497">
        <ele>-2.27</ele>
        <time>2015-10-10T14:28:16Z</time>
      </trkpt>
      <trkpt lat="47.61633" lon="-3.37497">
        <ele>-2.27</ele>
        <time>2015-10-10T14:28:17Z</time>
      </trkpt>
      <trkpt lat="47.61631" lon="-3.37496">
        <ele>-2.27</ele>
        <time>2015-10-10T14:28:18Z</time>
      </trkpt>
      <trkpt lat="47.61628" lon="-3.37496">
        <ele>-2.27</ele>
        <time>2015-10-10T14:28:19Z</time>
      </trkpt>
      <trkpt lat="47.61625" lon="-3.37496">
        <ele>-2.27</ele>
        <time>2015-10-10T14:28:20Z</time>
      </trkpt>
      <trkpt lat="47.61622" lon="-3.37496">
        <ele>-2.27</ele>
        <time>2015-10-10T14:28:21Z</time>
      </trkpt>
      <trkpt lat="47.61619" lon="-3.37496">
        <ele>-3.71</ele>
        <time>2015-10-10T14:28:22Z</time>
      </trkpt>
      <trkpt lat="47.61616" lon="-3.37497">
        <ele>-3.71</ele>
        <time>2015-10-10T14:28:23Z</time>
      </trkpt>
      <trkpt lat="47.61613" lon="-3.37498">
        <ele>-3.71</ele>
        <time>2015-10-10T14:28:24Z</time>
      </trkpt>
      <trkpt lat="47.6161" lon="-3.37498">
        <ele>-2.27</ele>
        <time>2015-10-10T14:28:25Z</time>
      </trkpt>
      <trkpt lat="47.61607" lon="-3.37498">
        <ele>-2.27</ele>
        <time>2015-10-10T14:28:26Z</time>
      </trkpt>
      <trkpt lat="47.61604" lon="-3.37498">
        <ele>-2.27</ele>
        <time>2015-10-10T14:28:27Z</time>
      </trkpt>
      <trkpt lat="47.61602" lon="-3.37498">
        <ele>-2.27</ele>
        <time>2015-10-10T14:28:28Z</time>
      </trkpt>
      <trkpt lat="47.61599" lon="-3.37498">
        <ele>-2.27</ele>
        <time>2015-10-10T14:28:29Z</time>
      </trkpt>
      <trkpt lat="47.61596" lon="-3.37498">
        <ele>-2.27</ele>
        <time>2015-10-10T14:28:30Z</time>
      </trkpt>
      <trkpt lat="47.61593" lon="-3.37498">
        <ele>-2.27</ele>
        <time>2015-10-10T14:28:31Z</time>
      </trkpt>
      <trkpt lat="47.61591" lon="-3.37498">
        <ele>-2.27</ele>
        <time>2015-10-10T14:28:32Z</time>
      </trkpt>
      <trkpt lat="47.61588" lon="-3.37497">
        <ele>-2.75</ele>
        <time>2015-10-10T14:28:33Z</time>
      </trkpt>
      <trkpt lat="47.61585" lon="-3.37497">
        <ele>-2.75</ele>
        <time>2015-10-10T14:28:34Z</time>
      </trkpt>
      <trkpt lat="47.61582" lon="-3.37497">
        <ele>-2.75</ele>
        <time>2015-10-10T14:28:35Z</time>
      </trkpt>
      <trkpt lat="47.6158" lon="-3.37497">
        <ele>-2.27</ele>
        <time>2015-10-10T14:28:36Z</time>
      </trkpt>
      <trkpt lat="47.61577" lon="-3.37497">
        <ele>-2.27</ele>
        <time>2015-10-10T14:28:37Z</time>
      </trkpt>
      <trkpt lat="47.61574" lon="-3.37497">
        <ele>-2.27</ele>
        <time>2015-10-10T14:28:38Z</time>
      </trkpt>
      <trkpt lat="47.61571" lon="-3.37497">
        <ele>-2.27</ele>
        <time>2015-10-10T14:28:39Z</time>
      </trkpt>
      <trkpt lat="47.61568" lon="-3.37497">
        <ele>-2.27</ele>
        <time>2015-10-10T14:28:40Z</time>
      </trkpt>
      <trkpt lat="47.61565" lon="-3.37497">
        <ele>-2.27</ele>
        <time>2015-10-10T14:28:41Z</time>
      </trkpt>
      <trkpt lat="47.61562" lon="-3.37498">
        <ele>-2.27</ele>
        <time>2015-10-10T14:28:42Z</time>
      </trkpt>
      <trkpt lat="47.61559" lon="-3.37498">
        <ele>-2.27</ele>
        <time>2015-10-10T14:28:43Z</time>
      </trkpt>
      <trkpt lat="47.61556" lon="-3.37498">
        <ele>-2.27</ele>
        <time>2015-10-10T14:28:44Z</time>
      </trkpt>
      <trkpt lat="47.61554" lon="-3.37498">
        <ele>-2.27</ele>
        <time>2015-10-10T14:28:45Z</time>
      </trkpt>
      <trkpt lat="47.61551" lon="-3.37498">
        <ele>-2.27</ele>
        <time>2015-10-10T14:28:46Z</time>
      </trkpt>
      <trkpt lat="47.61548" lon="-3.37498">
        <ele>-2.27</ele>
        <time>2015-10-10T14:28:47Z</time>
      </trkpt>
      <trkpt lat="47.61545" lon="-3.37497">
        <ele>-2.27</ele>
        <time>2015-10-10T14:28:48Z</time>
      </trkpt>
      <trkpt lat="47.61542" lon="-3.37497">
        <ele>-2.27</ele>
        <time>2015-10-10T14:28:49Z</time>
      </trkpt>
      <trkpt lat="47.6154" lon="-3.37497">
        <ele>-2.27</ele>
        <time>2015-10-10T14:28:50Z</time>
      </trkpt>
      <trkpt lat="47.61537" lon="-3.37497">
        <ele>-2.27</ele>
        <time>2015-10-10T14:28:51Z</time>
      </trkpt>
      <trkpt lat="47.61534" lon="-3.37497">
        <ele>-2.27</ele>
        <time>2015-10-10T14:28:52Z</time>
      </trkpt>
      <trkpt lat="47.61531" lon="-3.37497">
        <ele>-2.27</ele>
        <time>2015-10-10T14:28:53Z</time>
      </trkpt>
      <trkpt lat="47.61528" lon="-3.37497">
        <ele>-2.27</ele>
        <time>2015-10-10T14:28:54Z</time>
      </trkpt>
      <trkpt lat="47.61525" lon="-3.37497">
        <ele>-2.27</ele>
        <time>2015-10-10T14:28:55Z</time>
      </trkpt>
      <trkpt lat="47.61523" lon="-3.37497">
        <ele>-2.27</ele>
        <time>2015-10-10T14:28:56Z</time>
      </trkpt>
      <trkpt lat="47.6152" lon="-3.37496">
        <ele>-2.27</ele>
        <time>2015-10-10T14:28:57Z</time>
      </trkpt>
      <trkpt lat="47.61517" lon="-3.37496">
        <ele>-2.27</ele>
        <time>2015-10-10T14:28:58Z</time>
      </trkpt>
      <trkpt lat="47.61514" lon="-3.37496">
        <ele>-1.79</ele>
        <time>2015-10-10T14:28:59Z</time>
      </trkpt>
      <trkpt lat="47.61511" lon="-3.37495">
        <ele>-1.79</ele>
        <time>2015-10-10T14:29:00Z</time>
      </trkpt>
      <trkpt lat="47.61509" lon="-3.37494">
        <ele>-1.79</ele>
        <time>2015-10-10T14:29:01Z</time>
      </trkpt>
      <trkpt lat="47.61507" lon="-3.37494">
        <ele>-1.79</ele>
        <time>2015-10-10T14:29:02Z</time>
      </trkpt>
      <trkpt lat="47.61504" lon="-3.37493">
        <ele>-1.79</ele>
        <time>2015-10-10T14:29:03Z</time>
      </trkpt>
      <trkpt lat="47.61501" lon="-3.37493">
        <ele>-1.79</ele>
        <time>2015-10-10T14:29:04Z</time>
      </trkpt>
      <trkpt lat="47.61498" lon="-3.37493">
        <ele>-1.79</ele>
        <time>2015-10-10T14:29:05Z</time>
      </trkpt>
      <trkpt lat="47.61495" lon="-3.37493">
        <ele>-1.79</ele>
        <time>2015-10-10T14:29:06Z</time>
      </trkpt>
      <trkpt lat="47.61492" lon="-3.37494">
        <ele>-1.79</ele>
        <time>2015-10-10T14:29:07Z</time>
      </trkpt>
      <trkpt lat="47.61489" lon="-3.37494">
        <ele>-3.23</ele>
        <time>2015-10-10T14:29:08Z</time>
      </trkpt>
      <trkpt lat="47.61486" lon="-3.37493">
        <ele>-1.79</ele>
        <time>2015-10-10T14:29:09Z</time>
      </trkpt>
      <trkpt lat="47.61483" lon="-3.37493">
        <ele>-1.79</ele>
        <time>2015-10-10T14:29:10Z</time>
      </trkpt>
      <trkpt lat="47.6148" lon="-3.37492">
        <ele>-3.23</ele>
        <time>2015-10-10T14:29:11Z</time>
      </trkpt>
      <trkpt lat="47.61478" lon="-3.37492">
        <ele>-3.23</ele>
        <time>2015-10-10T14:29:12Z</time>
      </trkpt>
      <trkpt lat="47.61475" lon="-3.37491">
        <ele>-3.23</ele>
        <time>2015-10-10T14:29:13Z</time>
      </trkpt>
      <trkpt lat="47.61472" lon="-3.3749">
        <ele>-1.79</ele>
        <time>2015-10-10T14:29:14Z</time>
      </trkpt>
      <trkpt lat="47.61469" lon="-3.3749">
        <ele>-1.79</ele>
        <time>2015-10-10T14:29:15Z</time>
      </trkpt>
      <trkpt lat="47.61466" lon="-3.37489">
        <ele>-1.3</ele>
        <time>2015-10-10T14:29:16Z</time>
      </trkpt>
      <trkpt lat="47.61464" lon="-3.37488">
        <ele>-1.3</ele>
        <time>2015-10-10T14:29:17Z</time>
      </trkpt>
      <trkpt lat="47.61461" lon="-3.37489">
        <ele>-2.75</ele>
        <time>2015-10-10T14:29:18Z</time>
      </trkpt>
      <trkpt lat="47.61458" lon="-3.37489">
        <ele>-2.75</ele>
        <time>2015-10-10T14:29:19Z</time>
      </trkpt>
      <trkpt lat="47.61455" lon="-3.3749">
        <ele>-2.75</ele>
        <time>2015-10-10T14:29:20Z</time>
      </trkpt>
      <trkpt lat="47.61452" lon="-3.3749">
        <ele>-2.75</ele>
        <time>2015-10-10T14:29:21Z</time>
      </trkpt>
      <trkpt lat="47.61449" lon="-3.3749">
        <ele>-2.75</ele>
        <time>2015-10-10T14:29:22Z</time>
      </trkpt>
      <trkpt lat="47.61446" lon="-3.37489">
        <ele>-3.23</ele>
        <time>2015-10-10T14:29:23Z</time>
      </trkpt>
      <trkpt lat="47.61443" lon="-3.37489">
        <ele>-3.23</ele>
        <time>2015-10-10T14:29:24Z</time>
      </trkpt>
      <trkpt lat="47.6144" lon="-3.37489">
        <ele>-3.71</ele>
        <time>2015-10-10T14:29:25Z</time>
      </trkpt>
      <trkpt lat="47.61437" lon="-3.37488">
        <ele>-3.71</ele>
        <time>2015-10-10T14:29:26Z</time>
      </trkpt>
      <trkpt lat="47.61434" lon="-3.37488">
        <ele>-3.23</ele>
        <time>2015-10-10T14:29:27Z</time>
      </trkpt>
      <trkpt lat="47.61431" lon="-3.37487">
        <ele>-3.71</ele>
        <time>2015-10-10T14:29:28Z</time>
      </trkpt>
      <trkpt lat="47.61428" lon="-3.37487">
        <ele>-3.71</ele>
        <time>2015-10-10T14:29:29Z</time>
      </trkpt>
      <trkpt lat="47.61426" lon="-3.37485">
        <ele>-1.3</ele>
        <time>2015-10-10T14:29:30Z</time>
      </trkpt>
      <trkpt lat="47.61423" lon="-3.37484">
        <ele>-1.3</ele>
        <time>2015-10-10T14:29:31Z</time>
      </trkpt>
      <trkpt lat="47.61421" lon="-3.37483">
        <ele>-1.3</ele>
        <time>2015-10-10T14:29:32Z</time>
      </trkpt>
      <trkpt lat="47.61419" lon="-3.37482">
        <ele>-2.27</ele>
        <time>2015-10-10T14:29:33Z</time>
      </trkpt>
      <trkpt lat="47.61416" lon="-3.37481">
        <ele>-2.27</ele>
        <time>2015-10-10T14:29:34Z</time>
      </trkpt>
      <trkpt lat="47.61413" lon="-3.37481">
        <ele>-3.23</ele>
        <time>2015-10-10T14:29:35Z</time>
      </trkpt>
      <trkpt lat="47.61409" lon="-3.37481">
        <ele>-3.23</ele>
        <time>2015-10-10T14:29:36Z</time>
      </trkpt>
      <trkpt lat="47.61406" lon="-3.3748">
        <ele>-3.23</ele>
        <time>2015-10-10T14:29:37Z</time>
      </trkpt>
      <trkpt lat="47.61403" lon="-3.37479">
        <ele>-3.23</ele>
        <time>2015-10-10T14:29:38Z</time>
      </trkpt>
      <trkpt lat="47.61401" lon="-3.37479">
        <ele>-3.71</ele>
        <time>2015-10-10T14:29:39Z</time>
      </trkpt>
      <trkpt lat="47.61397" lon="-3.37478">
        <ele>-2.27</ele>
        <time>2015-10-10T14:29:40Z</time>
      </trkpt>
      <trkpt lat="47.61395" lon="-3.37478">
        <ele>-2.27</ele>
        <time>2015-10-10T14:29:41Z</time>
      </trkpt>
      <trkpt lat="47.61392" lon="-3.37478">
        <ele>-2.27</ele>
        <time>2015-10-10T14:29:42Z</time>
      </trkpt>
      <trkpt lat="47.61389" lon="-3.37478">
        <ele>-2.27</ele>
        <time>2015-10-10T14:29:43Z</time>
      </trkpt>
      <trkpt lat="47.61387" lon="-3.37477">
        <ele>-1.79</ele>
        <time>2015-10-10T14:29:44Z</time>
      </trkpt>
      <trkpt lat="47.61384" lon="-3.37477">
        <ele>-1.79</ele>
        <time>2015-10-10T14:29:45Z</time>
      </trkpt>
      <trkpt lat="47.61381" lon="-3.37476">
        <ele>-0.82</ele>
        <time>2015-10-10T14:29:46Z</time>
      </trkpt>
      <trkpt lat="47.61379" lon="-3.37475">
        <ele>-0.82</ele>
        <time>2015-10-10T14:29:47Z</time>
      </trkpt>
      <trkpt lat="47.61376" lon="-3.37473">
        <ele>-0.82</ele>
        <time>2015-10-10T14:29:48Z</time>
      </trkpt>
      <trkpt lat="47.61373" lon="-3.37472">
        <ele>-0.82</ele>
        <time>2015-10-10T14:29:49Z</time>
      </trkpt>
      <trkpt lat="47.61371" lon="-3.3747">
        <ele>-2.75</ele>
        <time>2015-10-10T14:29:50Z</time>
      </trkpt>
      <trkpt lat="47.61368" lon="-3.37469">
        <ele>-2.75</ele>
        <time>2015-10-10T14:29:51Z</time>
      </trkpt>
      <trkpt lat="47.61365" lon="-3.37469">
        <ele>-2.75</ele>
        <time>2015-10-10T14:29:52Z</time>
      </trkpt>
      <trkpt lat="47.61362" lon="-3.37468">
        <ele>-3.71</ele>
        <time>2015-10-10T14:29:53Z</time>
      </trkpt>
      <trkpt lat="47.6136" lon="-3.37467">
        <ele>-3.71</ele>
        <time>2015-10-10T14:29:54Z</time>
      </trkpt>
      <trkpt lat="47.61357" lon="-3.37466">
        <ele>-3.71</ele>
        <time>2015-10-10T14:29:55Z</time>
      </trkpt>
      <trkpt lat="47.61354" lon="-3.37465">
        <ele>-1.79</ele>
        <time>2015-10-10T14:29:56Z</time>
      </trkpt>
      <trkpt lat="47.61351" lon="-3.37465">
        <ele>-1.79</ele>
        <time>2015-10-10T14:29:57Z</time>
      </trkpt>
      <trkpt lat="47.61349" lon="-3.37464">
        <ele>-1.79</ele>
        <time>2015-10-10T14:29:58Z</time>
      </trkpt>
      <trkpt lat="47.61346" lon="-3.37463">
        <ele>-1.79</ele>
        <time>2015-10-10T14:29:59Z</time>
      </trkpt>
      <trkpt lat="47.61343" lon="-3.37462">
        <ele>-0.82</ele>
        <time>2015-10-10T14:30:00Z</time>
      </trkpt>
      <trkpt lat="47.61341" lon="-3.37461">
        <ele>-0.82</ele>
        <time>2015-10-10T14:30:01Z</time>
      </trkpt>
      <trkpt lat="47.61338" lon="-3.3746">
        <ele>-0.82</ele>
        <time>2015-10-10T14:30:02Z</time>
      </trkpt>
      <trkpt lat="47.61335" lon="-3.37458">
        <ele>-0.82</ele>
        <time>2015-10-10T14:30:03Z</time>
      </trkpt>
      <trkpt lat="47.61332" lon="-3.37457">
        <ele>-0.82</ele>
        <time>2015-10-10T14:30:04Z</time>
      </trkpt>
      <trkpt lat="47.61329" lon="-3.37455">
        <ele>-2.75</ele>
        <time>2015-10-10T14:30:05Z</time>
      </trkpt>
      <trkpt lat="47.61326" lon="-3.37454">
        <ele>-2.75</ele>
        <time>2015-10-10T14:30:06Z</time>
      </trkpt>
      <trkpt lat="47.61324" lon="-3.37453">
        <ele>-2.75</ele>
        <time>2015-10-10T14:30:07Z</time>
      </trkpt>
      <trkpt lat="47.61321" lon="-3.37452">
        <ele>-4.19</ele>
        <time>2015-10-10T14:30:08Z</time>
      </trkpt>
      <trkpt lat="47.61318" lon="-3.37451">
        <ele>-4.19</ele>
        <time>2015-10-10T14:30:09Z</time>
      </trkpt>
      <trkpt lat="47.61315" lon="-3.37451">
        <ele>-4.19</ele>
        <time>2015-10-10T14:30:10Z</time>
      </trkpt>
      <trkpt lat="47.61312" lon="-3.37451">
        <ele>-4.19</ele>
        <time>2015-10-10T14:30:11Z</time>
      </trkpt>
      <trkpt lat="47.61309" lon="-3.3745">
        <ele>-4.19</ele>
        <time>2015-10-10T14:30:12Z</time>
      </trkpt>
      <trkpt lat="47.61307" lon="-3.37449">
        <ele>-2.27</ele>
        <time>2015-10-10T14:30:13Z</time>
      </trkpt>
      <trkpt lat="47.61304" lon="-3.37449">
        <ele>-2.27</ele>
        <time>2015-10-10T14:30:14Z</time>
      </trkpt>
      <trkpt lat="47.61302" lon="-3.37448">
        <ele>-1.3</ele>
        <time>2015-10-10T14:30:15Z</time>
      </trkpt>
      <trkpt lat="47.61299" lon="-3.37447">
        <ele>-0.82</ele>
        <time>2015-10-10T14:30:16Z</time>
      </trkpt>
      <trkpt lat="47.61297" lon="-3.37446">
        <ele>-0.82</ele>
        <time>2015-10-10T14:30:17Z</time>
      </trkpt>
      <trkpt lat="47.61294" lon="-3.37445">
        <ele>-0.82</ele>
        <time>2015-10-10T14:30:18Z</time>
      </trkpt>
      <trkpt lat="47.61291" lon="-3.37443">
        <ele>-2.75</ele>
        <time>2015-10-10T14:30:19Z</time>
      </trkpt>
      <trkpt lat="47.61288" lon="-3.37442">
        <ele>-2.75</ele>
        <time>2015-10-10T14:30:20Z</time>
      </trkpt>
      <trkpt lat="47.61285" lon="-3.37442">
        <ele>-4.19</ele>
        <time>2015-10-10T14:30:21Z</time>
      </trkpt>
      <trkpt lat="47.61282" lon="-3.37441">
        <ele>-4.19</ele>
        <time>2015-10-10T14:30:22Z</time>
      </trkpt>
      <trkpt lat="47.61279" lon="-3.37441">
        <ele>-4.19</ele>
        <time>2015-10-10T14:30:23Z</time>
      </trkpt>
      <trkpt lat="47.61277" lon="-3.37442">
        <ele>-4.19</ele>
        <time>2015-10-10T14:30:24Z</time>
      </trkpt>
      <trkpt lat="47.61274" lon="-3.37443">
        <ele>-2.75</ele>
        <time>2015-10-10T14:30:25Z</time>
      </trkpt>
      <trkpt lat="47.61271" lon="-3.37443">
        <ele>-2.75</ele>
        <time>2015-10-10T14:30:26Z</time>
      </trkpt>
      <trkpt lat="47.61268" lon="-3.37443">
        <ele>-2.75</ele>
        <time>2015-10-10T14:30:27Z</time>
      </trkpt>
      <trkpt lat="47.61265" lon="-3.37442">
        <ele>-2.75</ele>
        <time>2015-10-10T14:30:28Z</time>
      </trkpt>
      <trkpt lat="47.61262" lon="-3.37441">
        <ele>-1.79</ele>
        <time>2015-10-10T14:30:29Z</time>
      </trkpt>
      <trkpt lat="47.6126" lon="-3.3744">
        <ele>-1.79</ele>
        <time>2015-10-10T14:30:30Z</time>
      </trkpt>
      <trkpt lat="47.61257" lon="-3.37439">
        <ele>0.14</ele>
        <time>2015-10-10T14:30:31Z</time>
      </trkpt>
      <trkpt lat="47.61254" lon="-3.37438">
        <ele>-1.3</ele>
        <time>2015-10-10T14:30:32Z</time>
      </trkpt>
      <trkpt lat="47.61252" lon="-3.37437">
        <ele>-1.3</ele>
        <time>2015-10-10T14:30:33Z</time>
      </trkpt>
      <trkpt lat="47.61249" lon="-3.37436">
        <ele>-1.3</ele>
        <time>2015-10-10T14:30:34Z</time>
      </trkpt>
      <trkpt lat="47.61246" lon="-3.37435">
        <ele>-2.27</ele>
        <time>2015-10-10T14:30:35Z</time>
      </trkpt>
      <trkpt lat="47.61243" lon="-3.37434">
        <ele>-2.27</ele>
        <time>2015-10-10T14:30:36Z</time>
      </trkpt>
      <trkpt lat="47.6124" lon="-3.37434">
        <ele>-3.23</ele>
        <time>2015-10-10T14:30:37Z</time>
      </trkpt>
      <trkpt lat="47.61237" lon="-3.37433">
        <ele>-3.23</ele>
        <time>2015-10-10T14:30:38Z</time>
      </trkpt>
      <trkpt lat="47.61234" lon="-3.37433">
        <ele>-3.23</ele>
        <time>2015-10-10T14:30:39Z</time>
      </trkpt>
      <trkpt lat="47.61231" lon="-3.37433">
        <ele>-3.71</ele>
        <time>2015-10-10T14:30:40Z</time>
      </trkpt>
      <trkpt lat="47.61228" lon="-3.37433">
        <ele>-3.71</ele>
        <time>2015-10-10T14:30:41Z</time>
      </trkpt>
      <trkpt lat="47.61225" lon="-3.37434">
        <ele>-3.71</ele>
        <time>2015-10-10T14:30:42Z</time>
      </trkpt>
      <trkpt lat="47.61223" lon="-3.37434">
        <ele>-3.71</ele>
        <time>2015-10-10T14:30:43Z</time>
      </trkpt>
      <trkpt lat="47.6122" lon="-3.37434">
        <ele>-1.79</ele>
        <time>2015-10-10T14:30:44Z</time>
      </trkpt>
      <trkpt lat="47.61217" lon="-3.37434">
        <ele>-1.3</ele>
        <time>2015-10-10T14:30:45Z</time>
      </trkpt>
      <trkpt lat="47.61214" lon="-3.37433">
        <ele>-1.3</ele>
        <time>2015-10-10T14:30:46Z</time>
      </trkpt>
      <trkpt lat="47.61212" lon="-3.37432">
        <ele>-0.82</ele>
        <time>2015-10-10T14:30:47Z</time>
      </trkpt>
      <trkpt lat="47.61209" lon="-3.37431">
        <ele>-0.82</ele>
        <time>2015-10-10T14:30:48Z</time>
      </trkpt>
      <trkpt lat="47.61207" lon="-3.3743">
        <ele>-0.82</ele>
        <time>2015-10-10T14:30:49Z</time>
      </trkpt>
      <trkpt lat="47.61204" lon="-3.37429">
        <ele>-0.82</ele>
        <time>2015-10-10T14:30:50Z</time>
      </trkpt>
      <trkpt lat="47.612" lon="-3.37428">
        <ele>-2.27</ele>
        <time>2015-10-10T14:30:51Z</time>
      </trkpt>
      <trkpt lat="47.61197" lon="-3.37427">
        <ele>-2.27</ele>
        <time>2015-10-10T14:30:52Z</time>
      </trkpt>
      <trkpt lat="47.61194" lon="-3.37427">
        <ele>-2.27</ele>
        <time>2015-10-10T14:30:53Z</time>
      </trkpt>
      <trkpt lat="47.61191" lon="-3.37427">
        <ele>-3.23</ele>
        <time>2015-10-10T14:30:54Z</time>
      </trkpt>
      <trkpt lat="47.61188" lon="-3.37427">
        <ele>-3.23</ele>
        <time>2015-10-10T14:30:55Z</time>
      </trkpt>
      <trkpt lat="47.61185" lon="-3.37428">
        <ele>-3.23</ele>
        <time>2015-10-10T14:30:56Z</time>
      </trkpt>
      <trkpt lat="47.61181" lon="-3.37427">
        <ele>-3.23</ele>
        <time>2015-10-10T14:30:57Z</time>
      </trkpt>
      <trkpt lat="47.61178" lon="-3.37427">
        <ele>-3.23</ele>
        <time>2015-10-10T14:30:58Z</time>
      </trkpt>
      <trkpt lat="47.61176" lon="-3.37427">
        <ele>-3.23</ele>
        <time>2015-10-10T14:30:59Z</time>
      </trkpt>
      <trkpt lat="47.61172" lon="-3.37426">
        <ele>-1.3</ele>
        <time>2015-10-10T14:31:00Z</time>
      </trkpt>
      <trkpt lat="47.6117" lon="-3.37425">
        <ele>-1.3</ele>
        <time>2015-10-10T14:31:01Z</time>
      </trkpt>
      <trkpt lat="47.61167" lon="-3.37424">
        <ele>-0.34</ele>
        <time>2015-10-10T14:31:02Z</time>
      </trkpt>
      <trkpt lat="47.61165" lon="-3.37422">
        <ele>-1.3</ele>
        <time>2015-10-10T14:31:03Z</time>
      </trkpt>
      <trkpt lat="47.61162" lon="-3.37421">
        <ele>-1.3</ele>
        <time>2015-10-10T14:31:04Z</time>
      </trkpt>
      <trkpt lat="47.61159" lon="-3.37419">
        <ele>-2.75</ele>
        <time>2015-10-10T14:31:05Z</time>
      </trkpt>
      <trkpt lat="47.61157" lon="-3.37417">
        <ele>-2.75</ele>
        <time>2015-10-10T14:31:06Z</time>
      </trkpt>
      <trkpt lat="47.61154" lon="-3.37416">
        <ele>-2.75</ele>
        <time>2015-10-10T14:31:07Z</time>
      </trkpt>
      <trkpt lat="47.61151" lon="-3.37416">
        <ele>-2.75</ele>
        <time>2015-10-10T14:31:08Z</time>
      </trkpt>
      <trkpt lat="47.61147" lon="-3.37416">
        <ele>-2.75</ele>
        <time>2015-10-10T14:31:09Z</time>
      </trkpt>
      <trkpt lat="47.61145" lon="-3.37415">
        <ele>-3.23</ele>
        <time>2015-10-10T14:31:10Z</time>
      </trkpt>
      <trkpt lat="47.61142" lon="-3.37415">
        <ele>-3.23</ele>
        <time>2015-10-10T14:31:11Z</time>
      </trkpt>
      <trkpt lat="47.61139" lon="-3.37415">
        <ele>-3.23</ele>
        <time>2015-10-10T14:31:12Z</time>
      </trkpt>
      <trkpt lat="47.61136" lon="-3.37415">
        <ele>-1.79</ele>
        <time>2015-10-10T14:31:13Z</time>
      </trkpt>
      <trkpt lat="47.61133" lon="-3.37415">
        <ele>-1.79</ele>
        <time>2015-10-10T14:31:14Z</time>
      </trkpt>
      <trkpt lat="47.6113" lon="-3.37414">
        <ele>-1.79</ele>
        <time>2015-10-10T14:31:15Z</time>
      </trkpt>
      <trkpt lat="47.61127" lon="-3.37413">
        <ele>-1.79</ele>
        <time>2015-10-10T14:31:16Z</time>
      </trkpt>
      <trkpt lat="47.61124" lon="-3.37412">
        <ele>-1.79</ele>
        <time>2015-10-10T14:31:17Z</time>
      </trkpt>
      <trkpt lat="47.61121" lon="-3.37412">
        <ele>-1.79</ele>
        <time>2015-10-10T14:31:18Z</time>
      </trkpt>
      <trkpt lat="47.61118" lon="-3.37412">
        <ele>-1.79</ele>
        <time>2015-10-10T14:31:19Z</time>
      </trkpt>
      <trkpt lat="47.61115" lon="-3.37412">
        <ele>-1.3</ele>
        <time>2015-10-10T14:31:20Z</time>
      </trkpt>
      <trkpt lat="47.61112" lon="-3.37412">
        <ele>-1.3</ele>
        <time>2015-10-10T14:31:21Z</time>
      </trkpt>
      <trkpt lat="47.61109" lon="-3.37412">
        <ele>-1.79</ele>
        <time>2015-10-10T14:31:22Z</time>
      </trkpt>
      <trkpt lat="47.61106" lon="-3.37411">
        <ele>-1.3</ele>
        <time>2015-10-10T14:31:23Z</time>
      </trkpt>
      <trkpt lat="47.61103" lon="-3.3741">
        <ele>-1.79</ele>
        <time>2015-10-10T14:31:24Z</time>
      </trkpt>
      <trkpt lat="47.61101" lon="-3.3741">
        <ele>-1.79</ele>
        <time>2015-10-10T14:31:25Z</time>
      </trkpt>
      <trkpt lat="47.61098" lon="-3.37409">
        <ele>-1.79</ele>
        <time>2015-10-10T14:31:26Z</time>
      </trkpt>
      <trkpt lat="47.61095" lon="-3.37409">
        <ele>-2.75</ele>
        <time>2015-10-10T14:31:27Z</time>
      </trkpt>
      <trkpt lat="47.61092" lon="-3.37409">
        <ele>-3.71</ele>
        <time>2015-10-10T14:31:28Z</time>
      </trkpt>
      <trkpt lat="47.61089" lon="-3.37409">
        <ele>-3.23</ele>
        <time>2015-10-10T14:31:29Z</time>
      </trkpt>
      <trkpt lat="47.61086" lon="-3.37409">
        <ele>-3.23</ele>
        <time>2015-10-10T14:31:30Z</time>
      </trkpt>
      <trkpt lat="47.61083" lon="-3.37409">
        <ele>-3.23</ele>
        <time>2015-10-10T14:31:31Z</time>
      </trkpt>
      <trkpt lat="47.6108" lon="-3.37408">
        <ele>-1.79</ele>
        <time>2015-10-10T14:31:32Z</time>
      </trkpt>
      <trkpt lat="47.61077" lon="-3.37408">
        <ele>-1.79</ele>
        <time>2015-10-10T14:31:33Z</time>
      </trkpt>
      <trkpt lat="47.61075" lon="-3.37408">
        <ele>-1.79</ele>
        <time>2015-10-10T14:31:34Z</time>
      </trkpt>
      <trkpt lat="47.61072" lon="-3.37407">
        <ele>-1.79</ele>
        <time>2015-10-10T14:31:35Z</time>
      </trkpt>
      <trkpt lat="47.61069" lon="-3.37407">
        <ele>-1.79</ele>
        <time>2015-10-10T14:31:36Z</time>
      </trkpt>
      <trkpt lat="47.61066" lon="-3.37407">
        <ele>-1.79</ele>
        <time>2015-10-10T14:31:37Z</time>
      </trkpt>
      <trkpt lat="47.61063" lon="-3.37407">
        <ele>-1.79</ele>
        <time>2015-10-10T14:31:38Z</time>
      </trkpt>
      <trkpt lat="47.6106" lon="-3.37408">
        <ele>-1.79</ele>
        <time>2015-10-10T14:31:39Z</time>
      </trkpt>
      <trkpt lat="47.61057" lon="-3.37408">
        <ele>-2.75</ele>
        <time>2015-10-10T14:31:40Z</time>
      </trkpt>
      <trkpt lat="47.61054" lon="-3.37408">
        <ele>-2.75</ele>
        <time>2015-10-10T14:31:41Z</time>
      </trkpt>
      <trkpt lat="47.6105" lon="-3.37408">
        <ele>-2.75</ele>
        <time>2015-10-10T14:31:42Z</time>
      </trkpt>
      <trkpt lat="47.61047" lon="-3.37409">
        <ele>-2.75</ele>
        <time>2015-10-10T14:31:43Z</time>
      </trkpt>
      <trkpt lat="47.61044" lon="-3.37408">
        <ele>-2.75</ele>
        <time>2015-10-10T14:31:44Z</time>
      </trkpt>
      <trkpt lat="47.61041" lon="-3.37408">
        <ele>-2.75</ele>
        <time>2015-10-10T14:31:45Z</time>
      </trkpt>
      <trkpt lat="47.61039" lon="-3.37407">
        <ele>-1.79</ele>
        <time>2015-10-10T14:31:46Z</time>
      </trkpt>
      <trkpt lat="47.61036" lon="-3.37406">
        <ele>-1.79</ele>
        <time>2015-10-10T14:31:47Z</time>
      </trkpt>
      <trkpt lat="47.61033" lon="-3.37405">
        <ele>-1.79</ele>
        <time>2015-10-10T14:31:48Z</time>
      </trkpt>
      <trkpt lat="47.6103" lon="-3.37404">
        <ele>-1.79</ele>
        <time>2015-10-10T14:31:49Z</time>
      </trkpt>
      <trkpt lat="47.61027" lon="-3.37403">
        <ele>-1.79</ele>
        <time>2015-10-10T14:31:50Z</time>
      </trkpt>
      <trkpt lat="47.61024" lon="-3.37402">
        <ele>-1.79</ele>
        <time>2015-10-10T14:31:51Z</time>
      </trkpt>
      <trkpt lat="47.61021" lon="-3.37401">
        <ele>-1.79</ele>
        <time>2015-10-10T14:31:52Z</time>
      </trkpt>
      <trkpt lat="47.61019" lon="-3.37401">
        <ele>-3.23</ele>
        <time>2015-10-10T14:31:53Z</time>
      </trkpt>
      <trkpt lat="47.61016" lon="-3.37401">
        <ele>-3.23</ele>
        <time>2015-10-10T14:31:54Z</time>
      </trkpt>
      <trkpt lat="47.61013" lon="-3.37402">
        <ele>-3.23</ele>
        <time>2015-10-10T14:31:55Z</time>
      </trkpt>
      <trkpt lat="47.6101" lon="-3.37402">
        <ele>-3.23</ele>
        <time>2015-10-10T14:31:56Z</time>
      </trkpt>
      <trkpt lat="47.61007" lon="-3.37402">
        <ele>-3.71</ele>
        <time>2015-10-10T14:31:57Z</time>
      </trkpt>
      <trkpt lat="47.61004" lon="-3.37402">
        <ele>-1.3</ele>
        <time>2015-10-10T14:31:58Z</time>
      </trkpt>
      <trkpt lat="47.61001" lon="-3.37402">
        <ele>-1.79</ele>
        <time>2015-10-10T14:31:59Z</time>
      </trkpt>
      <trkpt lat="47.60998" lon="-3.37401">
        <ele>-1.79</ele>
        <time>2015-10-10T14:32:00Z</time>
      </trkpt>
      <trkpt lat="47.60995" lon="-3.374">
        <ele>-1.79</ele>
        <time>2015-10-10T14:32:01Z</time>
      </trkpt>
      <trkpt lat="47.60992" lon="-3.37399">
        <ele>-1.3</ele>
        <time>2015-10-10T14:32:02Z</time>
      </trkpt>
      <trkpt lat="47.60989" lon="-3.37399">
        <ele>-1.3</ele>
        <time>2015-10-10T14:32:03Z</time>
      </trkpt>
      <trkpt lat="47.60986" lon="-3.37398">
        <ele>-1.3</ele>
        <time>2015-10-10T14:32:04Z</time>
      </trkpt>
      <trkpt lat="47.60983" lon="-3.37397">
        <ele>-1.3</ele>
        <time>2015-10-10T14:32:05Z</time>
      </trkpt>
      <trkpt lat="47.6098" lon="-3.37396">
        <ele>-1.3</ele>
        <time>2015-10-10T14:32:06Z</time>
      </trkpt>
      <trkpt lat="47.60977" lon="-3.37395">
        <ele>-2.75</ele>
        <time>2015-10-10T14:32:07Z</time>
      </trkpt>
      <trkpt lat="47.60974" lon="-3.37394">
        <ele>-3.23</ele>
        <time>2015-10-10T14:32:08Z</time>
      </trkpt>
      <trkpt lat="47.60971" lon="-3.37393">
        <ele>-3.23</ele>
        <time>2015-10-10T14:32:09Z</time>
      </trkpt>
      <trkpt lat="47.60968" lon="-3.37394">
        <ele>-3.23</ele>
        <time>2015-10-10T14:32:10Z</time>
      </trkpt>
      <trkpt lat="47.60965" lon="-3.37394">
        <ele>-3.23</ele>
        <time>2015-10-10T14:32:11Z</time>
      </trkpt>
      <trkpt lat="47.60962" lon="-3.37394">
        <ele>-3.23</ele>
        <time>2015-10-10T14:32:12Z</time>
      </trkpt>
      <trkpt lat="47.60959" lon="-3.37394">
        <ele>-3.23</ele>
        <time>2015-10-10T14:32:13Z</time>
      </trkpt>
      <trkpt lat="47.60956" lon="-3.37395">
        <ele>-3.23</ele>
        <time>2015-10-10T14:32:14Z</time>
      </trkpt>
      <trkpt lat="47.60953" lon="-3.37395">
        <ele>-3.23</ele>
        <time>2015-10-10T14:32:15Z</time>
      </trkpt>
      <trkpt lat="47.60951" lon="-3.37395">
        <ele>-1.79</ele>
        <time>2015-10-10T14:32:16Z</time>
      </trkpt>
      <trkpt lat="47.60948" lon="-3.37396">
        <ele>-1.79</ele>
        <time>2015-10-10T14:32:17Z</time>
      </trkpt>
      <trkpt lat="47.60945" lon="-3.37396">
        <ele>-1.79</ele>
        <time>2015-10-10T14:32:18Z</time>
      </trkpt>
      <trkpt lat="47.60942" lon="-3.37396">
        <ele>-1.79</ele>
        <time>2015-10-10T14:32:19Z</time>
      </trkpt>
      <trkpt lat="47.6094" lon="-3.37396">
        <ele>-1.79</ele>
        <time>2015-10-10T14:32:20Z</time>
      </trkpt>
      <trkpt lat="47.60937" lon="-3.37397">
        <ele>-1.79</ele>
        <time>2015-10-10T14:32:21Z</time>
      </trkpt>
      <trkpt lat="47.60934" lon="-3.37397">
        <ele>-1.79</ele>
        <time>2015-10-10T14:32:22Z</time>
      </trkpt>
      <trkpt lat="47.60931" lon="-3.37398">
        <ele>-3.23</ele>
        <time>2015-10-10T14:32:23Z</time>
      </trkpt>
      <trkpt lat="47.60928" lon="-3.37399">
        <ele>-3.23</ele>
        <time>2015-10-10T14:32:24Z</time>
      </trkpt>
      <trkpt lat="47.60925" lon="-3.374">
        <ele>-3.23</ele>
        <time>2015-10-10T14:32:25Z</time>
      </trkpt>
      <trkpt lat="47.60922" lon="-3.37401">
        <ele>-3.23</ele>
        <time>2015-10-10T14:32:26Z</time>
      </trkpt>
      <trkpt lat="47.60918" lon="-3.37401">
        <ele>-3.23</ele>
        <time>2015-10-10T14:32:27Z</time>
      </trkpt>
      <trkpt lat="47.60915" lon="-3.37401">
        <ele>-3.23</ele>
        <time>2015-10-10T14:32:28Z</time>
      </trkpt>
      <trkpt lat="47.60913" lon="-3.374">
        <ele>-1.79</ele>
        <time>2015-10-10T14:32:29Z</time>
      </trkpt>
      <trkpt lat="47.6091" lon="-3.37399">
        <ele>-0.82</ele>
        <time>2015-10-10T14:32:30Z</time>
      </trkpt>
      <trkpt lat="47.60907" lon="-3.37398">
        <ele>-0.82</ele>
        <time>2015-10-10T14:32:31Z</time>
      </trkpt>
      <trkpt lat="47.60904" lon="-3.37397">
        <ele>-0.82</ele>
        <time>2015-10-10T14:32:32Z</time>
      </trkpt>
      <trkpt lat="47.60901" lon="-3.37396">
        <ele>-0.82</ele>
        <time>2015-10-10T14:32:33Z</time>
      </trkpt>
      <trkpt lat="47.60899" lon="-3.37395">
        <ele>-2.27</ele>
        <time>2015-10-10T14:32:34Z</time>
      </trkpt>
      <trkpt lat="47.60896" lon="-3.37395">
        <ele>-2.75</ele>
        <time>2015-10-10T14:32:35Z</time>
      </trkpt>
      <trkpt lat="47.60893" lon="-3.37396">
        <ele>-2.75</ele>
        <time>2015-10-10T14:32:36Z</time>
      </trkpt>
      <trkpt lat="47.6089" lon="-3.37397">
        <ele>-2.75</ele>
        <time>2015-10-10T14:32:37Z</time>
      </trkpt>
      <trkpt lat="47.60887" lon="-3.37398">
        <ele>-3.23</ele>
        <time>2015-10-10T14:32:38Z</time>
      </trkpt>
      <trkpt lat="47.60884" lon="-3.37398">
        <ele>-3.23</ele>
        <time>2015-10-10T14:32:39Z</time>
      </trkpt>
      <trkpt lat="47.60881" lon="-3.37399">
        <ele>-3.23</ele>
        <time>2015-10-10T14:32:40Z</time>
      </trkpt>
      <trkpt lat="47.60878" lon="-3.37398">
        <ele>-3.23</ele>
        <time>2015-10-10T14:32:41Z</time>
      </trkpt>
      <trkpt lat="47.60875" lon="-3.37399">
        <ele>-3.23</ele>
        <time>2015-10-10T14:32:42Z</time>
      </trkpt>
      <trkpt lat="47.60872" lon="-3.37398">
        <ele>-3.23</ele>
        <time>2015-10-10T14:32:43Z</time>
      </trkpt>
      <trkpt lat="47.60869" lon="-3.37398">
        <ele>-3.23</ele>
        <time>2015-10-10T14:32:44Z</time>
      </trkpt>
      <trkpt lat="47.60866" lon="-3.37398">
        <ele>-3.23</ele>
        <time>2015-10-10T14:32:45Z</time>
      </trkpt>
      <trkpt lat="47.60863" lon="-3.37398">
        <ele>-0.82</ele>
        <time>2015-10-10T14:32:46Z</time>
      </trkpt>
      <trkpt lat="47.6086" lon="-3.37398">
        <ele>-0.82</ele>
        <time>2015-10-10T14:32:47Z</time>
      </trkpt>
      <trkpt lat="47.60858" lon="-3.37398">
        <ele>-0.34</ele>
        <time>2015-10-10T14:32:48Z</time>
      </trkpt>
      <trkpt lat="47.60855" lon="-3.37397">
        <ele>-0.34</ele>
        <time>2015-10-10T14:32:49Z</time>
      </trkpt>
      <trkpt lat="47.60852" lon="-3.37396">
        <ele>-0.34</ele>
        <time>2015-10-10T14:32:50Z</time>
      </trkpt>
      <trkpt lat="47.60849" lon="-3.37395">
        <ele>-2.75</ele>
        <time>2015-10-10T14:32:51Z</time>
      </trkpt>
      <trkpt lat="47.60847" lon="-3.37394">
        <ele>-2.75</ele>
        <time>2015-10-10T14:32:52Z</time>
      </trkpt>
      <trkpt lat="47.60844" lon="-3.37393">
        <ele>-2.75</ele>
        <time>2015-10-10T14:32:53Z</time>
      </trkpt>
      <trkpt lat="47.60841" lon="-3.37392">
        <ele>-4.19</ele>
        <time>2015-10-10T14:32:54Z</time>
      </trkpt>
      <trkpt lat="47.60838" lon="-3.37392">
        <ele>-4.19</ele>
        <time>2015-10-10T14:32:55Z</time>
      </trkpt>
      <trkpt lat="47.60835" lon="-3.37392">
        <ele>-4.19</ele>
        <time>2015-10-10T14:32:56Z</time>
      </trkpt>
      <trkpt lat="47.60832" lon="-3.37392">
        <ele>-2.75</ele>
        <time>2015-10-10T14:32:57Z</time>
      </trkpt>
      <trkpt lat="47.6083" lon="-3.37392">
        <ele>-2.75</ele>
        <time>2015-10-10T14:32:58Z</time>
      </trkpt>
      <trkpt lat="47.60827" lon="-3.37392">
        <ele>-2.75</ele>
        <time>2015-10-10T14:32:59Z</time>
      </trkpt>
      <trkpt lat="47.60824" lon="-3.37392">
        <ele>-2.75</ele>
        <time>2015-10-10T14:33:00Z</time>
      </trkpt>
      <trkpt lat="47.60821" lon="-3.37391">
        <ele>-1.79</ele>
        <time>2015-10-10T14:33:01Z</time>
      </trkpt>
      <trkpt lat="47.60818" lon="-3.37391">
        <ele>-1.79</ele>
        <time>2015-10-10T14:33:02Z</time>
      </trkpt>
      <trkpt lat="47.60815" lon="-3.3739">
        <ele>-0.82</ele>
        <time>2015-10-10T14:33:03Z</time>
      </trkpt>
      <trkpt lat="47.60813" lon="-3.37389">
        <ele>-0.82</ele>
        <time>2015-10-10T14:33:04Z</time>
      </trkpt>
      <trkpt lat="47.6081" lon="-3.37388">
        <ele>-0.82</ele>
        <time>2015-10-10T14:33:05Z</time>
      </trkpt>
      <trkpt lat="47.60807" lon="-3.37387">
        <ele>-0.82</ele>
        <time>2015-10-10T14:33:06Z</time>
      </trkpt>
      <trkpt lat="47.60804" lon="-3.37387">
        <ele>-0.82</ele>
        <time>2015-10-10T14:33:07Z</time>
      </trkpt>
      <trkpt lat="47.60802" lon="-3.37386">
        <ele>-2.27</ele>
        <time>2015-10-10T14:33:08Z</time>
      </trkpt>
      <trkpt lat="47.60799" lon="-3.37386">
        <ele>-3.23</ele>
        <time>2015-10-10T14:33:09Z</time>
      </trkpt>
      <trkpt lat="47.60796" lon="-3.37385">
        <ele>-2.75</ele>
        <time>2015-10-10T14:33:10Z</time>
      </trkpt>
      <trkpt lat="47.60793" lon="-3.37386">
        <ele>-3.23</ele>
        <time>2015-10-10T14:33:11Z</time>
      </trkpt>
      <trkpt lat="47.6079" lon="-3.37386">
        <ele>-2.75</ele>
        <time>2015-10-10T14:33:12Z</time>
      </trkpt>
      <trkpt lat="47.60787" lon="-3.37385">
        <ele>-3.23</ele>
        <time>2015-10-10T14:33:13Z</time>
      </trkpt>
      <trkpt lat="47.60784" lon="-3.37385">
        <ele>-3.23</ele>
        <time>2015-10-10T14:33:14Z</time>
      </trkpt>
      <trkpt lat="47.60781" lon="-3.37384">
        <ele>-3.23</ele>
        <time>2015-10-10T14:33:15Z</time>
      </trkpt>
      <trkpt lat="47.60778" lon="-3.37384">
        <ele>-1.79</ele>
        <time>2015-10-10T14:33:16Z</time>
      </trkpt>
      <trkpt lat="47.60775" lon="-3.37384">
        <ele>-1.79</ele>
        <time>2015-10-10T14:33:17Z</time>
      </trkpt>
      <trkpt lat="47.60772" lon="-3.37383">
        <ele>-1.3</ele>
        <time>2015-10-10T14:33:18Z</time>
      </trkpt>
      <trkpt lat="47.60769" lon="-3.37382">
        <ele>-0.34</ele>
        <time>2015-10-10T14:33:19Z</time>
      </trkpt>
      <trkpt lat="47.60766" lon="-3.37381">
        <ele>-1.79</ele>
        <time>2015-10-10T14:33:20Z</time>
      </trkpt>
      <trkpt lat="47.60764" lon="-3.37379">
        <ele>-1.79</ele>
        <time>2015-10-10T14:33:21Z</time>
      </trkpt>
      <trkpt lat="47.60761" lon="-3.37378">
        <ele>-1.79</ele>
        <time>2015-10-10T14:33:22Z</time>
      </trkpt>
      <trkpt lat="47.60758" lon="-3.37377">
        <ele>-2.27</ele>
        <time>2015-10-10T14:33:23Z</time>
      </trkpt>
      <trkpt lat="47.60755" lon="-3.37376">
        <ele>-2.75</ele>
        <time>2015-10-10T14:33:24Z</time>
      </trkpt>
      <trkpt lat="47.60752" lon="-3.37375">
        <ele>-2.75</ele>
        <time>2015-10-10T14:33:25Z</time>
      </trkpt>
      <trkpt lat="47.60749" lon="-3.37375">
        <ele>-2.75</ele>
        <time>2015-10-10T14:33:26Z</time>
      </trkpt>
      <trkpt lat="47.60747" lon="-3.37374">
        <ele>-2.75</ele>
        <time>2015-10-10T14:33:27Z</time>
      </trkpt>
      <trkpt lat="47.60744" lon="-3.37373">
        <ele>-2.75</ele>
        <time>2015-10-10T14:33:28Z</time>
      </trkpt>
      <trkpt lat="47.60741" lon="-3.37373">
        <ele>-2.75</ele>
        <time>2015-10-10T14:33:29Z</time>
      </trkpt>
      <trkpt lat="47.60738" lon="-3.37372">
        <ele>-2.75</ele>
        <time>2015-10-10T14:33:30Z</time>
      </trkpt>
      <trkpt lat="47.60735" lon="-3.37371">
        <ele>-3.23</ele>
        <time>2015-10-10T14:33:31Z</time>
      </trkpt>
      <trkpt lat="47.60732" lon="-3.3737">
        <ele>-1.79</ele>
        <time>2015-10-10T14:33:32Z</time>
      </trkpt>
      <trkpt lat="47.60729" lon="-3.37369">
        <ele>-1.79</ele>
        <time>2015-10-10T14:33:33Z</time>
      </trkpt>
      <trkpt lat="47.60726" lon="-3.37369">
        <ele>-1.79</ele>
        <time>2015-10-10T14:33:34Z</time>
      </trkpt>
      <trkpt lat="47.60723" lon="-3.37369">
        <ele>-1.79</ele>
        <time>2015-10-10T14:33:35Z</time>
      </trkpt>
      <trkpt lat="47.6072" lon="-3.37368">
        <ele>-1.79</ele>
        <time>2015-10-10T14:33:36Z</time>
      </trkpt>
      <trkpt lat="47.60717" lon="-3.37367">
        <ele>-1.3</ele>
        <time>2015-10-10T14:33:37Z</time>
      </trkpt>
      <trkpt lat="47.60715" lon="-3.37366">
        <ele>-0.82</ele>
        <time>2015-10-10T14:33:38Z</time>
      </trkpt>
      <trkpt lat="47.60712" lon="-3.37366">
        <ele>-2.75</ele>
        <time>2015-10-10T14:33:39Z</time>
      </trkpt>
      <trkpt lat="47.60709" lon="-3.37365">
        <ele>-2.75</ele>
        <time>2015-10-10T14:33:40Z</time>
      </trkpt>
      <trkpt lat="47.60706" lon="-3.37365">
        <ele>-2.75</ele>
        <time>2015-10-10T14:33:41Z</time>
      </trkpt>
      <trkpt lat="47.60703" lon="-3.37364">
        <ele>-2.75</ele>
        <time>2015-10-10T14:33:42Z</time>
      </trkpt>
      <trkpt lat="47.607" lon="-3.37365">
        <ele>-2.75</ele>
        <time>2015-10-10T14:33:43Z</time>
      </trkpt>
      <trkpt lat="47.60696" lon="-3.37365">
        <ele>-2.75</ele>
        <time>2015-10-10T14:33:44Z</time>
      </trkpt>
      <trkpt lat="47.60693" lon="-3.37365">
        <ele>-2.75</ele>
        <time>2015-10-10T14:33:45Z</time>
      </trkpt>
      <trkpt lat="47.6069" lon="-3.37365">
        <ele>-2.75</ele>
        <time>2015-10-10T14:33:46Z</time>
      </trkpt>
      <trkpt lat="47.60687" lon="-3.37364">
        <ele>-2.75</ele>
        <time>2015-10-10T14:33:47Z</time>
      </trkpt>
      <trkpt lat="47.60684" lon="-3.37364">
        <ele>-2.75</ele>
        <time>2015-10-10T14:33:48Z</time>
      </trkpt>
      <trkpt lat="47.60681" lon="-3.37363">
        <ele>-1.3</ele>
        <time>2015-10-10T14:33:49Z</time>
      </trkpt>
      <trkpt lat="47.60678" lon="-3.37362">
        <ele>-1.3</ele>
        <time>2015-10-10T14:33:50Z</time>
      </trkpt>
      <trkpt lat="47.60676" lon="-3.3736">
        <ele>-1.3</ele>
        <time>2015-10-10T14:33:51Z</time>
      </trkpt>
      <trkpt lat="47.60673" lon="-3.37359">
        <ele>-1.3</ele>
        <time>2015-10-10T14:33:52Z</time>
      </trkpt>
      <trkpt lat="47.6067" lon="-3.37359">
        <ele>-1.3</ele>
        <time>2015-10-10T14:33:53Z</time>
      </trkpt>
      <trkpt lat="47.60668" lon="-3.37358">
        <ele>-1.3</ele>
        <time>2015-10-10T14:33:54Z</time>
      </trkpt>
      <trkpt lat="47.60665" lon="-3.37358">
        <ele>-1.3</ele>
        <time>2015-10-10T14:33:55Z</time>
      </trkpt>
      <trkpt lat="47.60662" lon="-3.37358">
        <ele>-1.3</ele>
        <time>2015-10-10T14:33:56Z</time>
      </trkpt>
      <trkpt lat="47.60659" lon="-3.37357">
        <ele>-1.3</ele>
        <time>2015-10-10T14:33:57Z</time>
      </trkpt>
      <trkpt lat="47.60656" lon="-3.37356">
        <ele>-1.3</ele>
        <time>2015-10-10T14:33:58Z</time>
      </trkpt>
      <trkpt lat="47.60653" lon="-3.37356">
        <ele>-3.23</ele>
        <time>2015-10-10T14:33:59Z</time>
      </trkpt>
      <trkpt lat="47.60649" lon="-3.37356">
        <ele>-3.23</ele>
        <time>2015-10-10T14:34:00Z</time>
      </trkpt>
      <trkpt lat="47.60646" lon="-3.37356">
        <ele>-3.23</ele>
        <time>2015-10-10T14:34:01Z</time>
      </trkpt>
      <trkpt lat="47.60643" lon="-3.37356">
        <ele>-3.23</ele>
        <time>2015-10-10T14:34:02Z</time>
      </trkpt>
      <trkpt lat="47.6064" lon="-3.37355">
        <ele>-2.27</ele>
        <time>2015-10-10T14:34:03Z</time>
      </trkpt>
      <trkpt lat="47.60637" lon="-3.37354">
        <ele>-1.3</ele>
        <time>2015-10-10T14:34:04Z</time>
      </trkpt>
      <trkpt lat="47.60634" lon="-3.37353">
        <ele>-1.3</ele>
        <time>2015-10-10T14:34:05Z</time>
      </trkpt>
      <trkpt lat="47.60632" lon="-3.37352">
        <ele>-1.3</ele>
        <time>2015-10-10T14:34:06Z</time>
      </trkpt>
      <trkpt lat="47.60629" lon="-3.37351">
        <ele>-1.3</ele>
        <time>2015-10-10T14:34:07Z</time>
      </trkpt>
      <trkpt lat="47.60627" lon="-3.37351">
        <ele>-1.3</ele>
        <time>2015-10-10T14:34:08Z</time>
      </trkpt>
      <trkpt lat="47.60624" lon="-3.3735">
        <ele>-1.3</ele>
        <time>2015-10-10T14:34:09Z</time>
      </trkpt>
      <trkpt lat="47.60621" lon="-3.37349">
        <ele>-1.3</ele>
        <time>2015-10-10T14:34:10Z</time>
      </trkpt>
      <trkpt lat="47.60618" lon="-3.37349">
        <ele>-1.3</ele>
        <time>2015-10-10T14:34:11Z</time>
      </trkpt>
      <trkpt lat="47.60615" lon="-3.37349">
        <ele>-2.75</ele>
        <time>2015-10-10T14:34:12Z</time>
      </trkpt>
      <trkpt lat="47.60612" lon="-3.37348">
        <ele>-2.75</ele>
        <time>2015-10-10T14:34:13Z</time>
      </trkpt>
      <trkpt lat="47.60609" lon="-3.37348">
        <ele>-3.23</ele>
        <time>2015-10-10T14:34:14Z</time>
      </trkpt>
      <trkpt lat="47.60606" lon="-3.37348">
        <ele>-3.23</ele>
        <time>2015-10-10T14:34:15Z</time>
      </trkpt>
      <trkpt lat="47.60603" lon="-3.37348">
        <ele>-3.23</ele>
        <time>2015-10-10T14:34:16Z</time>
      </trkpt>
      <trkpt lat="47.60599" lon="-3.37348">
        <ele>-3.23</ele>
        <time>2015-10-10T14:34:17Z</time>
      </trkpt>
      <trkpt lat="47.60596" lon="-3.37347">
        <ele>-3.23</ele>
        <time>2015-10-10T14:34:18Z</time>
      </trkpt>
      <trkpt lat="47.60593" lon="-3.37347">
        <ele>-1.79</ele>
        <time>2015-10-10T14:34:19Z</time>
      </trkpt>
      <trkpt lat="47.60591" lon="-3.37347">
        <ele>-1.79</ele>
        <time>2015-10-10T14:34:20Z</time>
      </trkpt>
      <trkpt lat="47.60588" lon="-3.37346">
        <ele>-0.82</ele>
        <time>2015-10-10T14:34:21Z</time>
      </trkpt>
      <trkpt lat="47.60585" lon="-3.37345">
        <ele>-0.82</ele>
        <time>2015-10-10T14:34:22Z</time>
      </trkpt>
      <trkpt lat="47.60582" lon="-3.37344">
        <ele>-0.82</ele>
        <time>2015-10-10T14:34:23Z</time>
      </trkpt>
      <trkpt lat="47.6058" lon="-3.37343">
        <ele>-0.82</ele>
        <time>2015-10-10T14:34:24Z</time>
      </trkpt>
      <trkpt lat="47.60577" lon="-3.37342">
        <ele>-0.82</ele>
        <time>2015-10-10T14:34:25Z</time>
      </trkpt>
      <trkpt lat="47.60574" lon="-3.37341">
        <ele>-0.82</ele>
        <time>2015-10-10T14:34:26Z</time>
      </trkpt>
      <trkpt lat="47.60571" lon="-3.37341">
        <ele>-2.27</ele>
        <time>2015-10-10T14:34:27Z</time>
      </trkpt>
      <trkpt lat="47.60568" lon="-3.37341">
        <ele>-3.71</ele>
        <time>2015-10-10T14:34:28Z</time>
      </trkpt>
      <trkpt lat="47.60564" lon="-3.37342">
        <ele>-3.71</ele>
        <time>2015-10-10T14:34:29Z</time>
      </trkpt>
      <trkpt lat="47.60561" lon="-3.37342">
        <ele>-3.71</ele>
        <time>2015-10-10T14:34:30Z</time>
      </trkpt>
      <trkpt lat="47.60558" lon="-3.37343">
        <ele>-4.19</ele>
        <time>2015-10-10T14:34:31Z</time>
      </trkpt>
      <trkpt lat="47.60554" lon="-3.37344">
        <ele>-2.27</ele>
        <time>2015-10-10T14:34:32Z</time>
      </trkpt>
      <trkpt lat="47.60552" lon="-3.37344">
        <ele>-2.27</ele>
        <time>2015-10-10T14:34:33Z</time>
      </trkpt>
      <trkpt lat="47.60549" lon="-3.37344">
        <ele>-1.79</ele>
        <time>2015-10-10T14:34:34Z</time>
      </trkpt>
      <trkpt lat="47.60546" lon="-3.37343">
        <ele>0.14</ele>
        <time>2015-10-10T14:34:35Z</time>
      </trkpt>
      <trkpt lat="47.60543" lon="-3.37342">
        <ele>-0.34</ele>
        <time>2015-10-10T14:34:36Z</time>
      </trkpt>
      <trkpt lat="47.60541" lon="-3.37341">
        <ele>-0.34</ele>
        <time>2015-10-10T14:34:37Z</time>
      </trkpt>
      <trkpt lat="47.60538" lon="-3.37339">
        <ele>-0.34</ele>
        <time>2015-10-10T14:34:38Z</time>
      </trkpt>
      <trkpt lat="47.60536" lon="-3.37338">
        <ele>-0.34</ele>
        <time>2015-10-10T14:34:39Z</time>
      </trkpt>
      <trkpt lat="47.60533" lon="-3.37338">
        <ele>-1.3</ele>
        <time>2015-10-10T14:34:40Z</time>
      </trkpt>
      <trkpt lat="47.6053" lon="-3.37337">
        <ele>-1.79</ele>
        <time>2015-10-10T14:34:41Z</time>
      </trkpt>
      <trkpt lat="47.60526" lon="-3.37336">
        <ele>-3.23</ele>
        <time>2015-10-10T14:34:42Z</time>
      </trkpt>
      <trkpt lat="47.60523" lon="-3.37337">
        <ele>-3.23</ele>
        <time>2015-10-10T14:34:43Z</time>
      </trkpt>
      <trkpt lat="47.6052" lon="-3.37338">
        <ele>-3.23</ele>
        <time>2015-10-10T14:34:44Z</time>
      </trkpt>
      <trkpt lat="47.60516" lon="-3.37339">
        <ele>-3.71</ele>
        <time>2015-10-10T14:34:45Z</time>
      </trkpt>
      <trkpt lat="47.60513" lon="-3.3734">
        <ele>-3.71</ele>
        <time>2015-10-10T14:34:46Z</time>
      </trkpt>
      <trkpt lat="47.6051" lon="-3.37341">
        <ele>-3.71</ele>
        <time>2015-10-10T14:34:47Z</time>
      </trkpt>
      <trkpt lat="47.60507" lon="-3.37341">
        <ele>-3.71</ele>
        <time>2015-10-10T14:34:48Z</time>
      </trkpt>
      <trkpt lat="47.60504" lon="-3.3734">
        <ele>-2.27</ele>
        <time>2015-10-10T14:34:49Z</time>
      </trkpt>
      <trkpt lat="47.60502" lon="-3.37339">
        <ele>-1.79</ele>
        <time>2015-10-10T14:34:50Z</time>
      </trkpt>
      <trkpt lat="47.60499" lon="-3.37338">
        <ele>-0.82</ele>
        <time>2015-10-10T14:34:51Z</time>
      </trkpt>
      <trkpt lat="47.60496" lon="-3.37338">
        <ele>-0.82</ele>
        <time>2015-10-10T14:34:52Z</time>
      </trkpt>
      <trkpt lat="47.60493" lon="-3.37337">
        <ele>-0.82</ele>
        <time>2015-10-10T14:34:53Z</time>
      </trkpt>
      <trkpt lat="47.6049" lon="-3.37336">
        <ele>-0.82</ele>
        <time>2015-10-10T14:34:54Z</time>
      </trkpt>
      <trkpt lat="47.60487" lon="-3.37336">
        <ele>-3.23</ele>
        <time>2015-10-10T14:34:55Z</time>
      </trkpt>
      <trkpt lat="47.60484" lon="-3.37336">
        <ele>-1.3</ele>
        <time>2015-10-10T14:34:56Z</time>
      </trkpt>
      <trkpt lat="47.60481" lon="-3.37336">
        <ele>-1.3</ele>
        <time>2015-10-10T14:34:57Z</time>
      </trkpt>
      <trkpt lat="47.60478" lon="-3.37337">
        <ele>-2.75</ele>
        <time>2015-10-10T14:34:58Z</time>
      </trkpt>
      <trkpt lat="47.60475" lon="-3.37338">
        <ele>-3.71</ele>
        <time>2015-10-10T14:34:59Z</time>
      </trkpt>
      <trkpt lat="47.60471" lon="-3.37338">
        <ele>-3.71</ele>
        <time>2015-10-10T14:35:00Z</time>
      </trkpt>
      <trkpt lat="47.60468" lon="-3.37339">
        <ele>-3.71</ele>
        <time>2015-10-10T14:35:01Z</time>
      </trkpt>
      <trkpt lat="47.60465" lon="-3.37339">
        <ele>-3.71</ele>
        <time>2015-10-10T14:35:02Z</time>
      </trkpt>
      <trkpt lat="47.60462" lon="-3.3734">
        <ele>-2.27</ele>
        <time>2015-10-10T14:35:03Z</time>
      </trkpt>
      <trkpt lat="47.60459" lon="-3.3734">
        <ele>-2.27</ele>
        <time>2015-10-10T14:35:04Z</time>
      </trkpt>
      <trkpt lat="47.60456" lon="-3.37341">
        <ele>-0.82</ele>
        <time>2015-10-10T14:35:05Z</time>
      </trkpt>
      <trkpt lat="47.60454" lon="-3.37341">
        <ele>0.14</ele>
        <time>2015-10-10T14:35:06Z</time>
      </trkpt>
      <trkpt lat="47.60451" lon="-3.37341">
        <ele>0.14</ele>
        <time>2015-10-10T14:35:07Z</time>
      </trkpt>
      <trkpt lat="47.60449" lon="-3.37341">
        <ele>-1.3</ele>
        <time>2015-10-10T14:35:08Z</time>
      </trkpt>
      <trkpt lat="47.60446" lon="-3.37342">
        <ele>-1.79</ele>
        <time>2015-10-10T14:35:09Z</time>
      </trkpt>
      <trkpt lat="47.60443" lon="-3.37343">
        <ele>-2.75</ele>
        <time>2015-10-10T14:35:10Z</time>
      </trkpt>
      <trkpt lat="47.6044" lon="-3.37344">
        <ele>-3.23</ele>
        <time>2015-10-10T14:35:11Z</time>
      </trkpt>
      <trkpt lat="47.60437" lon="-3.37346">
        <ele>-3.71</ele>
        <time>2015-10-10T14:35:12Z</time>
      </trkpt>
      <trkpt lat="47.60434" lon="-3.37347">
        <ele>-3.71</ele>
        <time>2015-10-10T14:35:13Z</time>
      </trkpt>
      <trkpt lat="47.6043" lon="-3.37348">
        <ele>-3.71</ele>
        <time>2015-10-10T14:35:14Z</time>
      </trkpt>
      <trkpt lat="47.60427" lon="-3.37348">
        <ele>-3.71</ele>
        <time>2015-10-10T14:35:15Z</time>
      </trkpt>
      <trkpt lat="47.60424" lon="-3.37348">
        <ele>-3.71</ele>
        <time>2015-10-10T14:35:16Z</time>
      </trkpt>
      <trkpt lat="47.60421" lon="-3.37349">
        <ele>-2.27</ele>
        <time>2015-10-10T14:35:17Z</time>
      </trkpt>
      <trkpt lat="47.60418" lon="-3.37349">
        <ele>-1.79</ele>
        <time>2015-10-10T14:35:18Z</time>
      </trkpt>
      <trkpt lat="47.60416" lon="-3.37349">
        <ele>-0.34</ele>
        <time>2015-10-10T14:35:19Z</time>
      </trkpt>
      <trkpt lat="47.60413" lon="-3.37349">
        <ele>-0.34</ele>
        <time>2015-10-10T14:35:20Z</time>
      </trkpt>
      <trkpt lat="47.6041" lon="-3.37348">
        <ele>-0.34</ele>
        <time>2015-10-10T14:35:21Z</time>
      </trkpt>
      <trkpt lat="47.60407" lon="-3.37347">
        <ele>-0.34</ele>
        <time>2015-10-10T14:35:22Z</time>
      </trkpt>
      <trkpt lat="47.60405" lon="-3.37346">
        <ele>-2.75</ele>
        <time>2015-10-10T14:35:23Z</time>
      </trkpt>
      <trkpt lat="47.60402" lon="-3.37346">
        <ele>-2.75</ele>
        <time>2015-10-10T14:35:24Z</time>
      </trkpt>
      <trkpt lat="47.60399" lon="-3.37346">
        <ele>-2.75</ele>
        <time>2015-10-10T14:35:25Z</time>
      </trkpt>
      <trkpt lat="47.60396" lon="-3.37346">
        <ele>-3.71</ele>
        <time>2015-10-10T14:35:26Z</time>
      </trkpt>
      <trkpt lat="47.60393" lon="-3.37347">
        <ele>-3.71</ele>
        <time>2015-10-10T14:35:27Z</time>
      </trkpt>
      <trkpt lat="47.6039" lon="-3.37348">
        <ele>-3.71</ele>
        <time>2015-10-10T14:35:28Z</time>
      </trkpt>
      <trkpt lat="47.60387" lon="-3.37349">
        <ele>-3.71</ele>
        <time>2015-10-10T14:35:29Z</time>
      </trkpt>
      <trkpt lat="47.60384" lon="-3.3735">
        <ele>-3.71</ele>
        <time>2015-10-10T14:35:30Z</time>
      </trkpt>
      <trkpt lat="47.60381" lon="-3.37351">
        <ele>-3.71</ele>
        <time>2015-10-10T14:35:31Z</time>
      </trkpt>
      <trkpt lat="47.60378" lon="-3.37351">
        <ele>-3.71</ele>
        <time>2015-10-10T14:35:32Z</time>
      </trkpt>
      <trkpt lat="47.60375" lon="-3.37351">
        <ele>-1.79</ele>
        <time>2015-10-10T14:35:33Z</time>
      </trkpt>
      <trkpt lat="47.60372" lon="-3.3735">
        <ele>-1.3</ele>
        <time>2015-10-10T14:35:34Z</time>
      </trkpt>
      <trkpt lat="47.6037" lon="-3.3735">
        <ele>-0.82</ele>
        <time>2015-10-10T14:35:35Z</time>
      </trkpt>
      <trkpt lat="47.60367" lon="-3.3735">
        <ele>-0.82</ele>
        <time>2015-10-10T14:35:36Z</time>
      </trkpt>
      <trkpt lat="47.60364" lon="-3.3735">
        <ele>-1.3</ele>
        <time>2015-10-10T14:35:37Z</time>
      </trkpt>
      <trkpt lat="47.60361" lon="-3.3735">
        <ele>-1.3</ele>
        <time>2015-10-10T14:35:38Z</time>
      </trkpt>
      <trkpt lat="47.60358" lon="-3.3735">
        <ele>-2.27</ele>
        <time>2015-10-10T14:35:39Z</time>
      </trkpt>
      <trkpt lat="47.60355" lon="-3.3735">
        <ele>-2.27</ele>
        <time>2015-10-10T14:35:40Z</time>
      </trkpt>
      <trkpt lat="47.60352" lon="-3.3735">
        <ele>-3.71</ele>
        <time>2015-10-10T14:35:41Z</time>
      </trkpt>
      <trkpt lat="47.60349" lon="-3.37351">
        <ele>-3.71</ele>
        <time>2015-10-10T14:35:42Z</time>
      </trkpt>
      <trkpt lat="47.60346" lon="-3.37352">
        <ele>-3.71</ele>
        <time>2015-10-10T14:35:43Z</time>
      </trkpt>
      <trkpt lat="47.60344" lon="-3.37352">
        <ele>-3.71</ele>
        <time>2015-10-10T14:35:44Z</time>
      </trkpt>
      <trkpt lat="47.60342" lon="-3.3735">
        <ele>-3.71</ele>
        <time>2015-10-10T14:35:45Z</time>
      </trkpt>
      <trkpt lat="47.6034" lon="-3.37349">
        <ele>-3.71</ele>
        <time>2015-10-10T14:35:46Z</time>
      </trkpt>
      <trkpt lat="47.6034" lon="-3.37346">
        <ele>-2.27</ele>
        <time>2015-10-10T14:35:47Z</time>
      </trkpt>
      <trkpt lat="47.6034" lon="-3.37344">
        <ele>-2.27</ele>
        <time>2015-10-10T14:35:48Z</time>
      </trkpt>
      <trkpt lat="47.60341" lon="-3.37343">
        <ele>-2.27</ele>
        <time>2015-10-10T14:35:49Z</time>
      </trkpt>
      <trkpt lat="47.60342" lon="-3.37342">
        <ele>-1.79</ele>
        <time>2015-10-10T14:35:50Z</time>
      </trkpt>
      <trkpt lat="47.60343" lon="-3.37342">
        <ele>-1.79</ele>
        <time>2015-10-10T14:35:51Z</time>
      </trkpt>
      <trkpt lat="47.60345" lon="-3.37341">
        <ele>-1.79</ele>
        <time>2015-10-10T14:35:52Z</time>
      </trkpt>
      <trkpt lat="47.60347" lon="-3.37341">
        <ele>-1.79</ele>
        <time>2015-10-10T14:35:53Z</time>
      </trkpt>
      <trkpt lat="47.60348" lon="-3.37341">
        <ele>-1.79</ele>
        <time>2015-10-10T14:35:54Z</time>
      </trkpt>
      <trkpt lat="47.6035" lon="-3.37341">
        <ele>-1.79</ele>
        <time>2015-10-10T14:35:55Z</time>
      </trkpt>
      <trkpt lat="47.60352" lon="-3.37341">
        <ele>-1.79</ele>
        <time>2015-10-10T14:35:56Z</time>
      </trkpt>
      <trkpt lat="47.60354" lon="-3.3734">
        <ele>-1.79</ele>
        <time>2015-10-10T14:35:57Z</time>
      </trkpt>
      <trkpt lat="47.60355" lon="-3.37339">
        <ele>-1.79</ele>
        <time>2015-10-10T14:35:58Z</time>
      </trkpt>
      <trkpt lat="47.60357" lon="-3.37339">
        <ele>-1.79</ele>
        <time>2015-10-10T14:35:59Z</time>
      </trkpt>
      <trkpt lat="47.60359" lon="-3.37338">
        <ele>-1.79</ele>
        <time>2015-10-10T14:36:00Z</time>
      </trkpt>
      <trkpt lat="47.60361" lon="-3.37337">
        <ele>-1.79</ele>
        <time>2015-10-10T14:36:01Z</time>
      </trkpt>
      <trkpt lat="47.60362" lon="-3.37337">
        <ele>-1.79</ele>
        <time>2015-10-10T14:36:02Z</time>
      </trkpt>
      <trkpt lat="47.60365" lon="-3.37337">
        <ele>-3.23</ele>
        <time>2015-10-10T14:36:03Z</time>
      </trkpt>
      <trkpt lat="47.60367" lon="-3.37337">
        <ele>-3.23</ele>
        <time>2015-10-10T14:36:04Z</time>
      </trkpt>
      <trkpt lat="47.60368" lon="-3.37336">
        <ele>-3.23</ele>
        <time>2015-10-10T14:36:05Z</time>
      </trkpt>
      <trkpt lat="47.60371" lon="-3.37335">
        <ele>-3.23</ele>
        <time>2015-10-10T14:36:06Z</time>
      </trkpt>
      <trkpt lat="47.60373" lon="-3.37334">
        <ele>-3.23</ele>
        <time>2015-10-10T14:36:07Z</time>
      </trkpt>
      <trkpt lat="47.60374" lon="-3.37333">
        <ele>-3.23</ele>
        <time>2015-10-10T14:36:08Z</time>
      </trkpt>
      <trkpt lat="47.60377" lon="-3.37332">
        <ele>-3.23</ele>
        <time>2015-10-10T14:36:09Z</time>
      </trkpt>
      <trkpt lat="47.60379" lon="-3.3733">
        <ele>-3.23</ele>
        <time>2015-10-10T14:36:10Z</time>
      </trkpt>
      <trkpt lat="47.60381" lon="-3.37329">
        <ele>-1.79</ele>
        <time>2015-10-10T14:36:11Z</time>
      </trkpt>
      <trkpt lat="47.60383" lon="-3.37328">
        <ele>-1.79</ele>
        <time>2015-10-10T14:36:12Z</time>
      </trkpt>
      <trkpt lat="47.60386" lon="-3.37326">
        <ele>-0.82</ele>
        <time>2015-10-10T14:36:13Z</time>
      </trkpt>
      <trkpt lat="47.60388" lon="-3.37325">
        <ele>-0.82</ele>
        <time>2015-10-10T14:36:14Z</time>
      </trkpt>
      <trkpt lat="47.60391" lon="-3.37324">
        <ele>-0.82</ele>
        <time>2015-10-10T14:36:15Z</time>
      </trkpt>
      <trkpt lat="47.60393" lon="-3.37323">
        <ele>-0.82</ele>
        <time>2015-10-10T14:36:16Z</time>
      </trkpt>
      <trkpt lat="47.60396" lon="-3.37322">
        <ele>-0.82</ele>
        <time>2015-10-10T14:36:17Z</time>
      </trkpt>
      <trkpt lat="47.60398" lon="-3.37321">
        <ele>-0.82</ele>
        <time>2015-10-10T14:36:18Z</time>
      </trkpt>
      <trkpt lat="47.60401" lon="-3.37319">
        <ele>-2.27</ele>
        <time>2015-10-10T14:36:19Z</time>
      </trkpt>
      <trkpt lat="47.60403" lon="-3.37319">
        <ele>-2.27</ele>
        <time>2015-10-10T14:36:20Z</time>
      </trkpt>
      <trkpt lat="47.60406" lon="-3.37318">
        <ele>-2.27</ele>
        <time>2015-10-10T14:36:21Z</time>
      </trkpt>
      <trkpt lat="47.60408" lon="-3.37318">
        <ele>-2.75</ele>
        <time>2015-10-10T14:36:22Z</time>
      </trkpt>
      <trkpt lat="47.6041" lon="-3.37317">
        <ele>-2.75</ele>
        <time>2015-10-10T14:36:23Z</time>
      </trkpt>
      <trkpt lat="47.60412" lon="-3.37316">
        <ele>-3.71</ele>
        <time>2015-10-10T14:36:24Z</time>
      </trkpt>
      <trkpt lat="47.60415" lon="-3.37316">
        <ele>-3.71</ele>
        <time>2015-10-10T14:36:25Z</time>
      </trkpt>
      <trkpt lat="47.60417" lon="-3.37315">
        <ele>-3.71</ele>
        <time>2015-10-10T14:36:26Z</time>
      </trkpt>
      <trkpt lat="47.60418" lon="-3.37314">
        <ele>-3.71</ele>
        <time>2015-10-10T14:36:27Z</time>
      </trkpt>
      <trkpt lat="47.60421" lon="-3.37313">
        <ele>-3.71</ele>
        <time>2015-10-10T14:36:28Z</time>
      </trkpt>
      <trkpt lat="47.60423" lon="-3.37312">
        <ele>-3.71</ele>
        <time>2015-10-10T14:36:29Z</time>
      </trkpt>
      <trkpt lat="47.60425" lon="-3.37311">
        <ele>-3.71</ele>
        <time>2015-10-10T14:36:30Z</time>
      </trkpt>
      <trkpt lat="47.60428" lon="-3.37309">
        <ele>-2.27</ele>
        <time>2015-10-10T14:36:31Z</time>
      </trkpt>
      <trkpt lat="47.6043" lon="-3.37309">
        <ele>-2.27</ele>
        <time>2015-10-10T14:36:32Z</time>
      </trkpt>
      <trkpt lat="47.60433" lon="-3.37309">
        <ele>-2.27</ele>
        <time>2015-10-10T14:36:33Z</time>
      </trkpt>
      <trkpt lat="47.60435" lon="-3.37308">
        <ele>-1.3</ele>
        <time>2015-10-10T14:36:34Z</time>
      </trkpt>
      <trkpt lat="47.60438" lon="-3.37307">
        <ele>-1.3</ele>
        <time>2015-10-10T14:36:35Z</time>
      </trkpt>
      <trkpt lat="47.6044" lon="-3.37306">
        <ele>-1.3</ele>
        <time>2015-10-10T14:36:36Z</time>
      </trkpt>
      <trkpt lat="47.60443" lon="-3.37305">
        <ele>-1.3</ele>
        <time>2015-10-10T14:36:37Z</time>
      </trkpt>
      <trkpt lat="47.60446" lon="-3.37303">
        <ele>-0.82</ele>
        <time>2015-10-10T14:36:38Z</time>
      </trkpt>
      <trkpt lat="47.60449" lon="-3.37303">
        <ele>-0.82</ele>
        <time>2015-10-10T14:36:39Z</time>
      </trkpt>
      <trkpt lat="47.60451" lon="-3.37303">
        <ele>-0.82</ele>
        <time>2015-10-10T14:36:40Z</time>
      </trkpt>
      <trkpt lat="47.60454" lon="-3.37301">
        <ele>-0.82</ele>
        <time>2015-10-10T14:36:41Z</time>
      </trkpt>
      <trkpt lat="47.60456" lon="-3.373">
        <ele>-0.82</ele>
        <time>2015-10-10T14:36:42Z</time>
      </trkpt>
      <trkpt lat="47.60459" lon="-3.37298">
        <ele>-2.27</ele>
        <time>2015-10-10T14:36:43Z</time>
      </trkpt>
      <trkpt lat="47.60461" lon="-3.37297">
        <ele>-2.27</ele>
        <time>2015-10-10T14:36:44Z</time>
      </trkpt>
      <trkpt lat="47.60464" lon="-3.37296">
        <ele>-2.27</ele>
        <time>2015-10-10T14:36:45Z</time>
      </trkpt>
      <trkpt lat="47.60466" lon="-3.37295">
        <ele>-2.27</ele>
        <time>2015-10-10T14:36:46Z</time>
      </trkpt>
      <trkpt lat="47.60468" lon="-3.37295">
        <ele>-2.75</ele>
        <time>2015-10-10T14:36:47Z</time>
      </trkpt>
      <trkpt lat="47.60471" lon="-3.37295">
        <ele>-2.75</ele>
        <time>2015-10-10T14:36:48Z</time>
      </trkpt>
      <trkpt lat="47.60474" lon="-3.37295">
        <ele>-2.75</ele>
        <time>2015-10-10T14:36:49Z</time>
      </trkpt>
      <trkpt lat="47.60476" lon="-3.37294">
        <ele>-2.75</ele>
        <time>2015-10-10T14:36:50Z</time>
      </trkpt>
      <trkpt lat="47.60478" lon="-3.37293">
        <ele>-2.75</ele>
        <time>2015-10-10T14:36:51Z</time>
      </trkpt>
      <trkpt lat="47.60481" lon="-3.37292">
        <ele>-2.75</ele>
        <time>2015-10-10T14:36:52Z</time>
      </trkpt>
      <trkpt lat="47.60483" lon="-3.37291">
        <ele>-2.75</ele>
        <time>2015-10-10T14:36:53Z</time>
      </trkpt>
      <trkpt lat="47.60485" lon="-3.3729">
        <ele>-2.75</ele>
        <time>2015-10-10T14:36:54Z</time>
      </trkpt>
      <trkpt lat="47.60488" lon="-3.37289">
        <ele>-2.75</ele>
        <time>2015-10-10T14:36:55Z</time>
      </trkpt>
      <trkpt lat="47.6049" lon="-3.37288">
        <ele>-2.75</ele>
        <time>2015-10-10T14:36:56Z</time>
      </trkpt>
      <trkpt lat="47.60492" lon="-3.37286">
        <ele>-2.75</ele>
        <time>2015-10-10T14:36:57Z</time>
      </trkpt>
      <trkpt lat="47.60494" lon="-3.37284">
        <ele>-2.75</ele>
        <time>2015-10-10T14:36:58Z</time>
      </trkpt>
      <trkpt lat="47.60497" lon="-3.37282">
        <ele>-1.79</ele>
        <time>2015-10-10T14:36:59Z</time>
      </trkpt>
      <trkpt lat="47.60499" lon="-3.37281">
        <ele>-1.79</ele>
        <time>2015-10-10T14:37:00Z</time>
      </trkpt>
      <trkpt lat="47.60502" lon="-3.37279">
        <ele>-1.79</ele>
        <time>2015-10-10T14:37:01Z</time>
      </trkpt>
      <trkpt lat="47.60504" lon="-3.37278">
        <ele>-1.79</ele>
        <time>2015-10-10T14:37:02Z</time>
      </trkpt>
      <trkpt lat="47.60507" lon="-3.37277">
        <ele>-1.79</ele>
        <time>2015-10-10T14:37:03Z</time>
      </trkpt>
      <trkpt lat="47.6051" lon="-3.37276">
        <ele>-1.79</ele>
        <time>2015-10-10T14:37:04Z</time>
      </trkpt>
      <trkpt lat="47.60513" lon="-3.37275">
        <ele>-1.79</ele>
        <time>2015-10-10T14:37:05Z</time>
      </trkpt>
      <trkpt lat="47.60515" lon="-3.37274">
        <ele>-1.79</ele>
        <time>2015-10-10T14:37:06Z</time>
      </trkpt>
      <trkpt lat="47.60517" lon="-3.37274">
        <ele>-3.23</ele>
        <time>2015-10-10T14:37:07Z</time>
      </trkpt>
      <trkpt lat="47.6052" lon="-3.37274">
        <ele>-3.23</ele>
        <time>2015-10-10T14:37:08Z</time>
      </trkpt>
      <trkpt lat="47.60522" lon="-3.37274">
        <ele>-3.23</ele>
        <time>2015-10-10T14:37:09Z</time>
      </trkpt>
      <trkpt lat="47.60525" lon="-3.37273">
        <ele>-3.23</ele>
        <time>2015-10-10T14:37:10Z</time>
      </trkpt>
      <trkpt lat="47.60527" lon="-3.37272">
        <ele>-2.27</ele>
        <time>2015-10-10T14:37:11Z</time>
      </trkpt>
      <trkpt lat="47.60529" lon="-3.3727">
        <ele>-2.27</ele>
        <time>2015-10-10T14:37:12Z</time>
      </trkpt>
      <trkpt lat="47.60531" lon="-3.37269">
        <ele>-2.27</ele>
        <time>2015-10-10T14:37:13Z</time>
      </trkpt>
      <trkpt lat="47.60533" lon="-3.37268">
        <ele>-2.27</ele>
        <time>2015-10-10T14:37:14Z</time>
      </trkpt>
      <trkpt lat="47.60535" lon="-3.37268">
        <ele>-2.27</ele>
        <time>2015-10-10T14:37:15Z</time>
      </trkpt>
      <trkpt lat="47.60537" lon="-3.37267">
        <ele>-2.27</ele>
        <time>2015-10-10T14:37:16Z</time>
      </trkpt>
      <trkpt lat="47.60539" lon="-3.37265">
        <ele>-2.27</ele>
        <time>2015-10-10T14:37:17Z</time>
      </trkpt>
      <trkpt lat="47.60541" lon="-3.37264">
        <ele>-2.27</ele>
        <time>2015-10-10T14:37:18Z</time>
      </trkpt>
      <trkpt lat="47.60544" lon="-3.37263">
        <ele>-2.27</ele>
        <time>2015-10-10T14:37:19Z</time>
      </trkpt>
      <trkpt lat="47.60546" lon="-3.37262">
        <ele>-2.27</ele>
        <time>2015-10-10T14:37:20Z</time>
      </trkpt>
      <trkpt lat="47.60548" lon="-3.37261">
        <ele>-2.27</ele>
        <time>2015-10-10T14:37:21Z</time>
      </trkpt>
      <trkpt lat="47.60551" lon="-3.37261">
        <ele>-2.27</ele>
        <time>2015-10-10T14:37:22Z</time>
      </trkpt>
      <trkpt lat="47.60553" lon="-3.3726">
        <ele>-2.27</ele>
        <time>2015-10-10T14:37:23Z</time>
      </trkpt>
      <trkpt lat="47.60555" lon="-3.37259">
        <ele>-2.27</ele>
        <time>2015-10-10T14:37:24Z</time>
      </trkpt>
      <trkpt lat="47.60558" lon="-3.37259">
        <ele>-1.79</ele>
        <time>2015-10-10T14:37:25Z</time>
      </trkpt>
      <trkpt lat="47.6056" lon="-3.37258">
        <ele>-1.3</ele>
        <time>2015-10-10T14:37:26Z</time>
      </trkpt>
      <trkpt lat="47.60563" lon="-3.37257">
        <ele>-1.3</ele>
        <time>2015-10-10T14:37:27Z</time>
      </trkpt>
      <trkpt lat="47.60565" lon="-3.37256">
        <ele>-1.3</ele>
        <time>2015-10-10T14:37:28Z</time>
      </trkpt>
      <trkpt lat="47.60568" lon="-3.37255">
        <ele>-1.3</ele>
        <time>2015-10-10T14:37:29Z</time>
      </trkpt>
      <trkpt lat="47.6057" lon="-3.37254">
        <ele>-1.3</ele>
        <time>2015-10-10T14:37:30Z</time>
      </trkpt>
      <trkpt lat="47.60572" lon="-3.37253">
        <ele>-1.3</ele>
        <time>2015-10-10T14:37:31Z</time>
      </trkpt>
      <trkpt lat="47.60575" lon="-3.37253">
        <ele>-1.3</ele>
        <time>2015-10-10T14:37:32Z</time>
      </trkpt>
      <trkpt lat="47.60577" lon="-3.37252">
        <ele>-1.3</ele>
        <time>2015-10-10T14:37:33Z</time>
      </trkpt>
      <trkpt lat="47.6058" lon="-3.37252">
        <ele>-1.3</ele>
        <time>2015-10-10T14:37:34Z</time>
      </trkpt>
      <trkpt lat="47.60582" lon="-3.37251">
        <ele>-1.3</ele>
        <time>2015-10-10T14:37:35Z</time>
      </trkpt>
      <trkpt lat="47.60584" lon="-3.3725">
        <ele>-1.3</ele>
        <time>2015-10-10T14:37:36Z</time>
      </trkpt>
      <trkpt lat="47.60586" lon="-3.37248">
        <ele>-1.3</ele>
        <time>2015-10-10T14:37:37Z</time>
      </trkpt>
      <trkpt lat="47.60588" lon="-3.37247">
        <ele>-2.75</ele>
        <time>2015-10-10T14:37:38Z</time>
      </trkpt>
      <trkpt lat="47.60591" lon="-3.37246">
        <ele>-2.75</ele>
        <time>2015-10-10T14:37:39Z</time>
      </trkpt>
      <trkpt lat="47.60593" lon="-3.37245">
        <ele>-2.75</ele>
        <time>2015-10-10T14:37:40Z</time>
      </trkpt>
      <trkpt lat="47.60596" lon="-3.37244">
        <ele>-2.75</ele>
        <time>2015-10-10T14:37:41Z</time>
      </trkpt>
      <trkpt lat="47.60598" lon="-3.37243">
        <ele>-2.75</ele>
        <time>2015-10-10T14:37:42Z</time>
      </trkpt>
      <trkpt lat="47.606" lon="-3.37241">
        <ele>-2.75</ele>
        <time>2015-10-10T14:37:43Z</time>
      </trkpt>
      <trkpt lat="47.60603" lon="-3.37241">
        <ele>-2.75</ele>
        <time>2015-10-10T14:37:44Z</time>
      </trkpt>
      <trkpt lat="47.60606" lon="-3.3724">
        <ele>-1.3</ele>
        <time>2015-10-10T14:37:45Z</time>
      </trkpt>
      <trkpt lat="47.60608" lon="-3.3724">
        <ele>-1.3</ele>
        <time>2015-10-10T14:37:46Z</time>
      </trkpt>
      <trkpt lat="47.60611" lon="-3.37238">
        <ele>-1.3</ele>
        <time>2015-10-10T14:37:47Z</time>
      </trkpt>
      <trkpt lat="47.60614" lon="-3.37237">
        <ele>-1.3</ele>
        <time>2015-10-10T14:37:48Z</time>
      </trkpt>
      <trkpt lat="47.60616" lon="-3.37237">
        <ele>-1.3</ele>
        <time>2015-10-10T14:37:49Z</time>
      </trkpt>
      <trkpt lat="47.60619" lon="-3.37236">
        <ele>-1.3</ele>
        <time>2015-10-10T14:37:50Z</time>
      </trkpt>
      <trkpt lat="47.60622" lon="-3.37235">
        <ele>-1.3</ele>
        <time>2015-10-10T14:37:51Z</time>
      </trkpt>
      <trkpt lat="47.60624" lon="-3.37234">
        <ele>-1.3</ele>
        <time>2015-10-10T14:37:52Z</time>
      </trkpt>
      <trkpt lat="47.60627" lon="-3.37232">
        <ele>-1.3</ele>
        <time>2015-10-10T14:37:53Z</time>
      </trkpt>
      <trkpt lat="47.60629" lon="-3.37231">
        <ele>-1.3</ele>
        <time>2015-10-10T14:37:54Z</time>
      </trkpt>
      <trkpt lat="47.60632" lon="-3.3723">
        <ele>-1.3</ele>
        <time>2015-10-10T14:37:55Z</time>
      </trkpt>
      <trkpt lat="47.60634" lon="-3.37229">
        <ele>-1.3</ele>
        <time>2015-10-10T14:37:56Z</time>
      </trkpt>
      <trkpt lat="47.60636" lon="-3.37227">
        <ele>-1.3</ele>
        <time>2015-10-10T14:37:57Z</time>
      </trkpt>
      <trkpt lat="47.60639" lon="-3.37226">
        <ele>-1.3</ele>
        <time>2015-10-10T14:37:58Z</time>
      </trkpt>
      <trkpt lat="47.60641" lon="-3.37225">
        <ele>-1.3</ele>
        <time>2015-10-10T14:37:59Z</time>
      </trkpt>
      <trkpt lat="47.60643" lon="-3.37224">
        <ele>-1.3</ele>
        <time>2015-10-10T14:38:00Z</time>
      </trkpt>
      <trkpt lat="47.60645" lon="-3.37222">
        <ele>-1.3</ele>
        <time>2015-10-10T14:38:01Z</time>
      </trkpt>
      <trkpt lat="47.60647" lon="-3.37221">
        <ele>-1.3</ele>
        <time>2015-10-10T14:38:02Z</time>
      </trkpt>
      <trkpt lat="47.6065" lon="-3.37221">
        <ele>-1.3</ele>
        <time>2015-10-10T14:38:03Z</time>
      </trkpt>
      <trkpt lat="47.60652" lon="-3.3722">
        <ele>-1.3</ele>
        <time>2015-10-10T14:38:04Z</time>
      </trkpt>
      <trkpt lat="47.60654" lon="-3.37219">
        <ele>-1.3</ele>
        <time>2015-10-10T14:38:05Z</time>
      </trkpt>
      <trkpt lat="47.60657" lon="-3.37218">
        <ele>-1.3</ele>
        <time>2015-10-10T14:38:06Z</time>
      </trkpt>
      <trkpt lat="47.60659" lon="-3.37217">
        <ele>-1.3</ele>
        <time>2015-10-10T14:38:07Z</time>
      </trkpt>
      <trkpt lat="47.60662" lon="-3.37216">
        <ele>-1.3</ele>
        <time>2015-10-10T14:38:08Z</time>
      </trkpt>
      <trkpt lat="47.60664" lon="-3.37215">
        <ele>-1.3</ele>
        <time>2015-10-10T14:38:09Z</time>
      </trkpt>
      <trkpt lat="47.60667" lon="-3.37214">
        <ele>-1.3</ele>
        <time>2015-10-10T14:38:10Z</time>
      </trkpt>
      <trkpt lat="47.6067" lon="-3.37213">
        <ele>-1.3</ele>
        <time>2015-10-10T14:38:11Z</time>
      </trkpt>
      <trkpt lat="47.60672" lon="-3.37211">
        <ele>-1.3</ele>
        <time>2015-10-10T14:38:12Z</time>
      </trkpt>
      <trkpt lat="47.60675" lon="-3.37211">
        <ele>-1.3</ele>
        <time>2015-10-10T14:38:13Z</time>
      </trkpt>
      <trkpt lat="47.60678" lon="-3.37209">
        <ele>-1.3</ele>
        <time>2015-10-10T14:38:14Z</time>
      </trkpt>
      <trkpt lat="47.60681" lon="-3.37208">
        <ele>-1.3</ele>
        <time>2015-10-10T14:38:15Z</time>
      </trkpt>
      <trkpt lat="47.60684" lon="-3.37206">
        <ele>-1.3</ele>
        <time>2015-10-10T14:38:16Z</time>
      </trkpt>
      <trkpt lat="47.60686" lon="-3.37204">
        <ele>-1.3</ele>
        <time>2015-10-10T14:38:17Z</time>
      </trkpt>
      <trkpt lat="47.60688" lon="-3.37202">
        <ele>-1.3</ele>
        <time>2015-10-10T14:38:18Z</time>
      </trkpt>
      <trkpt lat="47.6069" lon="-3.37201">
        <ele>-1.3</ele>
        <time>2015-10-10T14:38:19Z</time>
      </trkpt>
      <trkpt lat="47.60692" lon="-3.37199">
        <ele>-2.75</ele>
        <time>2015-10-10T14:38:20Z</time>
      </trkpt>
      <trkpt lat="47.60694" lon="-3.37198">
        <ele>-2.75</ele>
        <time>2015-10-10T14:38:21Z</time>
      </trkpt>
      <trkpt lat="47.60696" lon="-3.37197">
        <ele>-2.75</ele>
        <time>2015-10-10T14:38:22Z</time>
      </trkpt>
      <trkpt lat="47.60698" lon="-3.37195">
        <ele>-2.75</ele>
        <time>2015-10-10T14:38:23Z</time>
      </trkpt>
      <trkpt lat="47.607" lon="-3.37194">
        <ele>-2.75</ele>
        <time>2015-10-10T14:38:24Z</time>
      </trkpt>
      <trkpt lat="47.60702" lon="-3.37194">
        <ele>-2.75</ele>
        <time>2015-10-10T14:38:25Z</time>
      </trkpt>
      <trkpt lat="47.60704" lon="-3.37192">
        <ele>-2.75</ele>
        <time>2015-10-10T14:38:26Z</time>
      </trkpt>
      <trkpt lat="47.60706" lon="-3.37191">
        <ele>-2.75</ele>
        <time>2015-10-10T14:38:27Z</time>
      </trkpt>
      <trkpt lat="47.60708" lon="-3.37189">
        <ele>-2.75</ele>
        <time>2015-10-10T14:38:28Z</time>
      </trkpt>
      <trkpt lat="47.6071" lon="-3.37188">
        <ele>-2.75</ele>
        <time>2015-10-10T14:38:29Z</time>
      </trkpt>
      <trkpt lat="47.60713" lon="-3.37187">
        <ele>-1.3</ele>
        <time>2015-10-10T14:38:30Z</time>
      </trkpt>
      <trkpt lat="47.60715" lon="-3.37185">
        <ele>-1.3</ele>
        <time>2015-10-10T14:38:31Z</time>
      </trkpt>
      <trkpt lat="47.60718" lon="-3.37184">
        <ele>-1.79</ele>
        <time>2015-10-10T14:38:32Z</time>
      </trkpt>
      <trkpt lat="47.6072" lon="-3.37183">
        <ele>-1.3</ele>
        <time>2015-10-10T14:38:33Z</time>
      </trkpt>
      <trkpt lat="47.60722" lon="-3.37182">
        <ele>-1.3</ele>
        <time>2015-10-10T14:38:34Z</time>
      </trkpt>
      <trkpt lat="47.60725" lon="-3.37182">
        <ele>-1.3</ele>
        <time>2015-10-10T14:38:35Z</time>
      </trkpt>
      <trkpt lat="47.60728" lon="-3.3718">
        <ele>-1.3</ele>
        <time>2015-10-10T14:38:36Z</time>
      </trkpt>
      <trkpt lat="47.6073" lon="-3.37178">
        <ele>-1.3</ele>
        <time>2015-10-10T14:38:37Z</time>
      </trkpt>
      <trkpt lat="47.60733" lon="-3.37177">
        <ele>-1.3</ele>
        <time>2015-10-10T14:38:38Z</time>
      </trkpt>
      <trkpt lat="47.60735" lon="-3.37176">
        <ele>-1.3</ele>
        <time>2015-10-10T14:38:39Z</time>
      </trkpt>
      <trkpt lat="47.60737" lon="-3.37175">
        <ele>-1.3</ele>
        <time>2015-10-10T14:38:40Z</time>
      </trkpt>
      <trkpt lat="47.60739" lon="-3.37174">
        <ele>-1.3</ele>
        <time>2015-10-10T14:38:41Z</time>
      </trkpt>
      <trkpt lat="47.60741" lon="-3.37172">
        <ele>-1.79</ele>
        <time>2015-10-10T14:38:42Z</time>
      </trkpt>
      <trkpt lat="47.60744" lon="-3.37171">
        <ele>-1.79</ele>
        <time>2015-10-10T14:38:43Z</time>
      </trkpt>
      <trkpt lat="47.60746" lon="-3.3717">
        <ele>-1.3</ele>
        <time>2015-10-10T14:38:44Z</time>
      </trkpt>
      <trkpt lat="47.60748" lon="-3.37169">
        <ele>-1.79</ele>
        <time>2015-10-10T14:38:45Z</time>
      </trkpt>
      <trkpt lat="47.60751" lon="-3.37168">
        <ele>-1.79</ele>
        <time>2015-10-10T14:38:46Z</time>
      </trkpt>
      <trkpt lat="47.60753" lon="-3.37167">
        <ele>-1.79</ele>
        <time>2015-10-10T14:38:47Z</time>
      </trkpt>
      <trkpt lat="47.60756" lon="-3.37166">
        <ele>-1.79</ele>
        <time>2015-10-10T14:38:48Z</time>
      </trkpt>
      <trkpt lat="47.60758" lon="-3.37164">
        <ele>-1.79</ele>
        <time>2015-10-10T14:38:49Z</time>
      </trkpt>
      <trkpt lat="47.6076" lon="-3.37163">
        <ele>-1.79</ele>
        <time>2015-10-10T14:38:50Z</time>
      </trkpt>
      <trkpt lat="47.60762" lon="-3.37162">
        <ele>-1.79</ele>
        <time>2015-10-10T14:38:51Z</time>
      </trkpt>
      <trkpt lat="47.60765" lon="-3.37161">
        <ele>-1.79</ele>
        <time>2015-10-10T14:38:52Z</time>
      </trkpt>
      <trkpt lat="47.60767" lon="-3.37161">
        <ele>-1.79</ele>
        <time>2015-10-10T14:38:53Z</time>
      </trkpt>
      <trkpt lat="47.6077" lon="-3.37159">
        <ele>-1.79</ele>
        <time>2015-10-10T14:38:54Z</time>
      </trkpt>
      <trkpt lat="47.60772" lon="-3.37158">
        <ele>-2.75</ele>
        <time>2015-10-10T14:38:55Z</time>
      </trkpt>
      <trkpt lat="47.60774" lon="-3.37156">
        <ele>-2.75</ele>
        <time>2015-10-10T14:38:56Z</time>
      </trkpt>
      <trkpt lat="47.60776" lon="-3.37155">
        <ele>-3.23</ele>
        <time>2015-10-10T14:38:57Z</time>
      </trkpt>
      <trkpt lat="47.60779" lon="-3.37154">
        <ele>-3.23</ele>
        <time>2015-10-10T14:38:58Z</time>
      </trkpt>
      <trkpt lat="47.60781" lon="-3.37153">
        <ele>-3.23</ele>
        <time>2015-10-10T14:38:59Z</time>
      </trkpt>
      <trkpt lat="47.60783" lon="-3.37152">
        <ele>-3.23</ele>
        <time>2015-10-10T14:39:00Z</time>
      </trkpt>
      <trkpt lat="47.60786" lon="-3.37151">
        <ele>-3.23</ele>
        <time>2015-10-10T14:39:01Z</time>
      </trkpt>
      <trkpt lat="47.60789" lon="-3.3715">
        <ele>-1.79</ele>
        <time>2015-10-10T14:39:02Z</time>
      </trkpt>
      <trkpt lat="47.60791" lon="-3.37149">
        <ele>-1.3</ele>
        <time>2015-10-10T14:39:03Z</time>
      </trkpt>
      <trkpt lat="47.60794" lon="-3.37148">
        <ele>-1.3</ele>
        <time>2015-10-10T14:39:04Z</time>
      </trkpt>
      <trkpt lat="47.60796" lon="-3.37146">
        <ele>-1.3</ele>
        <time>2015-10-10T14:39:05Z</time>
      </trkpt>
      <trkpt lat="47.60798" lon="-3.37145">
        <ele>-0.82</ele>
        <time>2015-10-10T14:39:06Z</time>
      </trkpt>
      <trkpt lat="47.60801" lon="-3.37143">
        <ele>-0.82</ele>
        <time>2015-10-10T14:39:07Z</time>
      </trkpt>
      <trkpt lat="47.60803" lon="-3.37142">
        <ele>-0.82</ele>
        <time>2015-10-10T14:39:08Z</time>
      </trkpt>
      <trkpt lat="47.60805" lon="-3.3714">
        <ele>-0.82</ele>
        <time>2015-10-10T14:39:09Z</time>
      </trkpt>
      <trkpt lat="47.60807" lon="-3.37138">
        <ele>-2.75</ele>
        <time>2015-10-10T14:39:10Z</time>
      </trkpt>
      <trkpt lat="47.60809" lon="-3.37136">
        <ele>-2.75</ele>
        <time>2015-10-10T14:39:11Z</time>
      </trkpt>
      <trkpt lat="47.60811" lon="-3.37135">
        <ele>-2.75</ele>
        <time>2015-10-10T14:39:12Z</time>
      </trkpt>
      <trkpt lat="47.60813" lon="-3.37133">
        <ele>-3.71</ele>
        <time>2015-10-10T14:39:13Z</time>
      </trkpt>
      <trkpt lat="47.60815" lon="-3.37132">
        <ele>-3.23</ele>
        <time>2015-10-10T14:39:14Z</time>
      </trkpt>
      <trkpt lat="47.60818" lon="-3.37131">
        <ele>-3.71</ele>
        <time>2015-10-10T14:39:15Z</time>
      </trkpt>
      <trkpt lat="47.6082" lon="-3.3713">
        <ele>-3.23</ele>
        <time>2015-10-10T14:39:16Z</time>
      </trkpt>
      <trkpt lat="47.60822" lon="-3.37129">
        <ele>-3.23</ele>
        <time>2015-10-10T14:39:17Z</time>
      </trkpt>
      <trkpt lat="47.60825" lon="-3.37128">
        <ele>-3.23</ele>
        <time>2015-10-10T14:39:18Z</time>
      </trkpt>
      <trkpt lat="47.60827" lon="-3.37127">
        <ele>-3.23</ele>
        <time>2015-10-10T14:39:19Z</time>
      </trkpt>
      <trkpt lat="47.6083" lon="-3.37126">
        <ele>-1.79</ele>
        <time>2015-10-10T14:39:20Z</time>
      </trkpt>
      <trkpt lat="47.60833" lon="-3.37125">
        <ele>-1.3</ele>
        <time>2015-10-10T14:39:21Z</time>
      </trkpt>
      <trkpt lat="47.60836" lon="-3.37124">
        <ele>-1.3</ele>
        <time>2015-10-10T14:39:22Z</time>
      </trkpt>
      <trkpt lat="47.60839" lon="-3.37123">
        <ele>-1.3</ele>
        <time>2015-10-10T14:39:23Z</time>
      </trkpt>
      <trkpt lat="47.60842" lon="-3.37121">
        <ele>-1.3</ele>
        <time>2015-10-10T14:39:24Z</time>
      </trkpt>
      <trkpt lat="47.60844" lon="-3.3712">
        <ele>-1.3</ele>
        <time>2015-10-10T14:39:25Z</time>
      </trkpt>
      <trkpt lat="47.60847" lon="-3.37119">
        <ele>-0.82</ele>
        <time>2015-10-10T14:39:26Z</time>
      </trkpt>
      <trkpt lat="47.6085" lon="-3.37119">
        <ele>-0.82</ele>
        <time>2015-10-10T14:39:27Z</time>
      </trkpt>
      <trkpt lat="47.60853" lon="-3.37118">
        <ele>-0.82</ele>
        <time>2015-10-10T14:39:28Z</time>
      </trkpt>
      <trkpt lat="47.60855" lon="-3.37118">
        <ele>-0.82</ele>
        <time>2015-10-10T14:39:29Z</time>
      </trkpt>
      <trkpt lat="47.60858" lon="-3.37117">
        <ele>-0.82</ele>
        <time>2015-10-10T14:39:30Z</time>
      </trkpt>
      <trkpt lat="47.6086" lon="-3.37117">
        <ele>-2.27</ele>
        <time>2015-10-10T14:39:31Z</time>
      </trkpt>
      <trkpt lat="47.60863" lon="-3.37117">
        <ele>-2.27</ele>
        <time>2015-10-10T14:39:32Z</time>
      </trkpt>
      <trkpt lat="47.60866" lon="-3.37117">
        <ele>-2.27</ele>
        <time>2015-10-10T14:39:33Z</time>
      </trkpt>
      <trkpt lat="47.60869" lon="-3.37116">
        <ele>-2.27</ele>
        <time>2015-10-10T14:39:34Z</time>
      </trkpt>
      <trkpt lat="47.60871" lon="-3.37115">
        <ele>-2.75</ele>
        <time>2015-10-10T14:39:35Z</time>
      </trkpt>
      <trkpt lat="47.60874" lon="-3.37115">
        <ele>-3.71</ele>
        <time>2015-10-10T14:39:36Z</time>
      </trkpt>
      <trkpt lat="47.60876" lon="-3.37114">
        <ele>-3.71</ele>
        <time>2015-10-10T14:39:37Z</time>
      </trkpt>
      <trkpt lat="47.60878" lon="-3.37113">
        <ele>-3.71</ele>
        <time>2015-10-10T14:39:38Z</time>
      </trkpt>
      <trkpt lat="47.60881" lon="-3.37112">
        <ele>-3.71</ele>
        <time>2015-10-10T14:39:39Z</time>
      </trkpt>
      <trkpt lat="47.60884" lon="-3.37112">
        <ele>-3.71</ele>
        <time>2015-10-10T14:39:40Z</time>
      </trkpt>
      <trkpt lat="47.60887" lon="-3.37111">
        <ele>-3.71</ele>
        <time>2015-10-10T14:39:41Z</time>
      </trkpt>
      <trkpt lat="47.6089" lon="-3.37111">
        <ele>-2.27</ele>
        <time>2015-10-10T14:39:42Z</time>
      </trkpt>
      <trkpt lat="47.60892" lon="-3.3711">
        <ele>-1.79</ele>
        <time>2015-10-10T14:39:43Z</time>
      </trkpt>
      <trkpt lat="47.60895" lon="-3.3711">
        <ele>-1.79</ele>
        <time>2015-10-10T14:39:44Z</time>
      </trkpt>
      <trkpt lat="47.60898" lon="-3.3711">
        <ele>-1.79</ele>
        <time>2015-10-10T14:39:45Z</time>
      </trkpt>
      <trkpt lat="47.609" lon="-3.37111">
        <ele>-1.79</ele>
        <time>2015-10-10T14:39:46Z</time>
      </trkpt>
      <trkpt lat="47.60903" lon="-3.37112">
        <ele>-1.79</ele>
        <time>2015-10-10T14:39:47Z</time>
      </trkpt>
      <trkpt lat="47.60906" lon="-3.37111">
        <ele>-1.3</ele>
        <time>2015-10-10T14:39:48Z</time>
      </trkpt>
      <trkpt lat="47.60909" lon="-3.37111">
        <ele>-1.3</ele>
        <time>2015-10-10T14:39:49Z</time>
      </trkpt>
      <trkpt lat="47.60912" lon="-3.3711">
        <ele>-1.3</ele>
        <time>2015-10-10T14:39:50Z</time>
      </trkpt>
      <trkpt lat="47.60915" lon="-3.3711">
        <ele>-1.3</ele>
        <time>2015-10-10T14:39:51Z</time>
      </trkpt>
      <trkpt lat="47.60917" lon="-3.3711">
        <ele>-2.27</ele>
        <time>2015-10-10T14:39:52Z</time>
      </trkpt>
      <trkpt lat="47.6092" lon="-3.37109">
        <ele>-2.27</ele>
        <time>2015-10-10T14:39:53Z</time>
      </trkpt>
      <trkpt lat="47.60923" lon="-3.37109">
        <ele>-2.75</ele>
        <time>2015-10-10T14:39:54Z</time>
      </trkpt>
      <trkpt lat="47.60926" lon="-3.37109">
        <ele>-2.75</ele>
        <time>2015-10-10T14:39:55Z</time>
      </trkpt>
      <trkpt lat="47.60928" lon="-3.37109">
        <ele>-2.75</ele>
        <time>2015-10-10T14:39:56Z</time>
      </trkpt>
      <trkpt lat="47.60931" lon="-3.37108">
        <ele>-2.75</ele>
        <time>2015-10-10T14:39:57Z</time>
      </trkpt>
      <trkpt lat="47.60933" lon="-3.37108">
        <ele>-2.75</ele>
        <time>2015-10-10T14:39:58Z</time>
      </trkpt>
      <trkpt lat="47.60936" lon="-3.37108">
        <ele>-2.75</ele>
        <time>2015-10-10T14:39:59Z</time>
      </trkpt>
      <trkpt lat="47.60938" lon="-3.37108">
        <ele>-2.75</ele>
        <time>2015-10-10T14:40:00Z</time>
      </trkpt>
      <trkpt lat="47.60941" lon="-3.37108">
        <ele>-2.75</ele>
        <time>2015-10-10T14:40:01Z</time>
      </trkpt>
      <trkpt lat="47.60943" lon="-3.37107">
        <ele>-2.75</ele>
        <time>2015-10-10T14:40:02Z</time>
      </trkpt>
      <trkpt lat="47.60946" lon="-3.37106">
        <ele>-2.75</ele>
        <time>2015-10-10T14:40:03Z</time>
      </trkpt>
      <trkpt lat="47.60948" lon="-3.37105">
        <ele>-2.75</ele>
        <time>2015-10-10T14:40:04Z</time>
      </trkpt>
      <trkpt lat="47.60951" lon="-3.37104">
        <ele>-2.75</ele>
        <time>2015-10-10T14:40:05Z</time>
      </trkpt>
      <trkpt lat="47.60953" lon="-3.37104">
        <ele>-1.3</ele>
        <time>2015-10-10T14:40:06Z</time>
      </trkpt>
      <trkpt lat="47.60956" lon="-3.37103">
        <ele>-1.3</ele>
        <time>2015-10-10T14:40:07Z</time>
      </trkpt>
      <trkpt lat="47.60959" lon="-3.37101">
        <ele>-0.82</ele>
        <time>2015-10-10T14:40:08Z</time>
      </trkpt>
      <trkpt lat="47.60962" lon="-3.371">
        <ele>-0.82</ele>
        <time>2015-10-10T14:40:09Z</time>
      </trkpt>
      <trkpt lat="47.60964" lon="-3.37098">
        <ele>-0.82</ele>
        <time>2015-10-10T14:40:10Z</time>
      </trkpt>
      <trkpt lat="47.60967" lon="-3.37097">
        <ele>-0.82</ele>
        <time>2015-10-10T14:40:11Z</time>
      </trkpt>
      <trkpt lat="47.60969" lon="-3.37096">
        <ele>-0.82</ele>
        <time>2015-10-10T14:40:12Z</time>
      </trkpt>
      <trkpt lat="47.60971" lon="-3.37095">
        <ele>-0.82</ele>
        <time>2015-10-10T14:40:13Z</time>
      </trkpt>
      <trkpt lat="47.60974" lon="-3.37094">
        <ele>-2.27</ele>
        <time>2015-10-10T14:40:14Z</time>
      </trkpt>
      <trkpt lat="47.60976" lon="-3.37093">
        <ele>-2.27</ele>
        <time>2015-10-10T14:40:15Z</time>
      </trkpt>
      <trkpt lat="47.60978" lon="-3.37091">
        <ele>-2.75</ele>
        <time>2015-10-10T14:40:16Z</time>
      </trkpt>
      <trkpt lat="47.60981" lon="-3.3709">
        <ele>-2.75</ele>
        <time>2015-10-10T14:40:17Z</time>
      </trkpt>
      <trkpt lat="47.60983" lon="-3.37089">
        <ele>-2.75</ele>
        <time>2015-10-10T14:40:18Z</time>
      </trkpt>
      <trkpt lat="47.60985" lon="-3.37089">
        <ele>-2.75</ele>
        <time>2015-10-10T14:40:19Z</time>
      </trkpt>
      <trkpt lat="47.60988" lon="-3.37088">
        <ele>-2.75</ele>
        <time>2015-10-10T14:40:20Z</time>
      </trkpt>
      <trkpt lat="47.6099" lon="-3.37087">
        <ele>-2.75</ele>
        <time>2015-10-10T14:40:21Z</time>
      </trkpt>
      <trkpt lat="47.60993" lon="-3.37087">
        <ele>-2.75</ele>
        <time>2015-10-10T14:40:22Z</time>
      </trkpt>
      <trkpt lat="47.60995" lon="-3.37086">
        <ele>-2.75</ele>
        <time>2015-10-10T14:40:23Z</time>
      </trkpt>
      <trkpt lat="47.60998" lon="-3.37084">
        <ele>-2.75</ele>
        <time>2015-10-10T14:40:24Z</time>
      </trkpt>
      <trkpt lat="47.61" lon="-3.37083">
        <ele>-2.75</ele>
        <time>2015-10-10T14:40:25Z</time>
      </trkpt>
      <trkpt lat="47.61003" lon="-3.37082">
        <ele>-2.75</ele>
        <time>2015-10-10T14:40:26Z</time>
      </trkpt>
      <trkpt lat="47.61006" lon="-3.37082">
        <ele>-2.75</ele>
        <time>2015-10-10T14:40:27Z</time>
      </trkpt>
      <trkpt lat="47.61008" lon="-3.37081">
        <ele>-2.75</ele>
        <time>2015-10-10T14:40:28Z</time>
      </trkpt>
      <trkpt lat="47.6101" lon="-3.37079">
        <ele>-2.75</ele>
        <time>2015-10-10T14:40:29Z</time>
      </trkpt>
      <trkpt lat="47.61013" lon="-3.37078">
        <ele>-2.75</ele>
        <time>2015-10-10T14:40:30Z</time>
      </trkpt>
      <trkpt lat="47.61015" lon="-3.37077">
        <ele>-2.75</ele>
        <time>2015-10-10T14:40:31Z</time>
      </trkpt>
      <trkpt lat="47.61018" lon="-3.37076">
        <ele>-1.79</ele>
        <time>2015-10-10T14:40:32Z</time>
      </trkpt>
      <trkpt lat="47.6102" lon="-3.37075">
        <ele>-1.79</ele>
        <time>2015-10-10T14:40:33Z</time>
      </trkpt>
      <trkpt lat="47.61023" lon="-3.37074">
        <ele>-1.79</ele>
        <time>2015-10-10T14:40:34Z</time>
      </trkpt>
      <trkpt lat="47.61025" lon="-3.37073">
        <ele>-1.79</ele>
        <time>2015-10-10T14:40:35Z</time>
      </trkpt>
      <trkpt lat="47.61028" lon="-3.37072">
        <ele>-1.79</ele>
        <time>2015-10-10T14:40:36Z</time>
      </trkpt>
      <trkpt lat="47.6103" lon="-3.37071">
        <ele>-1.79</ele>
        <time>2015-10-10T14:40:37Z</time>
      </trkpt>
      <trkpt lat="47.61033" lon="-3.37071">
        <ele>-1.79</ele>
        <time>2015-10-10T14:40:38Z</time>
      </trkpt>
      <trkpt lat="47.61035" lon="-3.3707">
        <ele>-1.79</ele>
        <time>2015-10-10T14:40:39Z</time>
      </trkpt>
      <trkpt lat="47.61038" lon="-3.37069">
        <ele>-1.79</ele>
        <time>2015-10-10T14:40:40Z</time>
      </trkpt>
      <trkpt lat="47.6104" lon="-3.37067">
        <ele>-1.79</ele>
        <time>2015-10-10T14:40:41Z</time>
      </trkpt>
      <trkpt lat="47.61042" lon="-3.37067">
        <ele>-1.79</ele>
        <time>2015-10-10T14:40:42Z</time>
      </trkpt>
      <trkpt lat="47.61045" lon="-3.37066">
        <ele>-1.79</ele>
        <time>2015-10-10T14:40:43Z</time>
      </trkpt>
      <trkpt lat="47.61047" lon="-3.37065">
        <ele>-1.79</ele>
        <time>2015-10-10T14:40:44Z</time>
      </trkpt>
      <trkpt lat="47.6105" lon="-3.37064">
        <ele>-1.79</ele>
        <time>2015-10-10T14:40:45Z</time>
      </trkpt>
      <trkpt lat="47.61052" lon="-3.37062">
        <ele>-1.79</ele>
        <time>2015-10-10T14:40:46Z</time>
      </trkpt>
      <trkpt lat="47.61054" lon="-3.37061">
        <ele>-1.79</ele>
        <time>2015-10-10T14:40:47Z</time>
      </trkpt>
      <trkpt lat="47.61056" lon="-3.3706">
        <ele>-1.79</ele>
        <time>2015-10-10T14:40:48Z</time>
      </trkpt>
      <trkpt lat="47.61059" lon="-3.37059">
        <ele>-1.79</ele>
        <time>2015-10-10T14:40:49Z</time>
      </trkpt>
      <trkpt lat="47.61062" lon="-3.37057">
        <ele>-1.79</ele>
        <time>2015-10-10T14:40:50Z</time>
      </trkpt>
      <trkpt lat="47.61064" lon="-3.37056">
        <ele>-1.79</ele>
        <time>2015-10-10T14:40:51Z</time>
      </trkpt>
      <trkpt lat="47.61066" lon="-3.37055">
        <ele>-1.79</ele>
        <time>2015-10-10T14:40:52Z</time>
      </trkpt>
      <trkpt lat="47.61069" lon="-3.37054">
        <ele>-1.79</ele>
        <time>2015-10-10T14:40:53Z</time>
      </trkpt>
      <trkpt lat="47.61072" lon="-3.37053">
        <ele>-1.79</ele>
        <time>2015-10-10T14:40:54Z</time>
      </trkpt>
      <trkpt lat="47.61074" lon="-3.37051">
        <ele>-1.79</ele>
        <time>2015-10-10T14:40:55Z</time>
      </trkpt>
      <trkpt lat="47.61077" lon="-3.3705">
        <ele>-1.3</ele>
        <time>2015-10-10T14:40:56Z</time>
      </trkpt>
      <trkpt lat="47.61079" lon="-3.37048">
        <ele>-1.3</ele>
        <time>2015-10-10T14:40:57Z</time>
      </trkpt>
      <trkpt lat="47.61082" lon="-3.37047">
        <ele>-1.3</ele>
        <time>2015-10-10T14:40:58Z</time>
      </trkpt>
      <trkpt lat="47.61085" lon="-3.37046">
        <ele>-1.3</ele>
        <time>2015-10-10T14:40:59Z</time>
      </trkpt>
      <trkpt lat="47.61087" lon="-3.37045">
        <ele>-1.3</ele>
        <time>2015-10-10T14:41:00Z</time>
      </trkpt>
      <trkpt lat="47.6109" lon="-3.37043">
        <ele>-1.3</ele>
        <time>2015-10-10T14:41:01Z</time>
      </trkpt>
      <trkpt lat="47.61092" lon="-3.37042">
        <ele>-2.75</ele>
        <time>2015-10-10T14:41:02Z</time>
      </trkpt>
      <trkpt lat="47.61094" lon="-3.37041">
        <ele>-3.23</ele>
        <time>2015-10-10T14:41:03Z</time>
      </trkpt>
      <trkpt lat="47.61096" lon="-3.3704">
        <ele>-2.75</ele>
        <time>2015-10-10T14:41:04Z</time>
      </trkpt>
      <trkpt lat="47.61098" lon="-3.37039">
        <ele>-3.23</ele>
        <time>2015-10-10T14:41:05Z</time>
      </trkpt>
      <trkpt lat="47.61101" lon="-3.37038">
        <ele>-3.23</ele>
        <time>2015-10-10T14:41:06Z</time>
      </trkpt>
      <trkpt lat="47.61103" lon="-3.37036">
        <ele>-3.23</ele>
        <time>2015-10-10T14:41:07Z</time>
      </trkpt>
      <trkpt lat="47.61105" lon="-3.37035">
        <ele>-3.23</ele>
        <time>2015-10-10T14:41:08Z</time>
      </trkpt>
      <trkpt lat="47.61107" lon="-3.37035">
        <ele>-3.23</ele>
        <time>2015-10-10T14:41:09Z</time>
      </trkpt>
      <trkpt lat="47.6111" lon="-3.37034">
        <ele>-3.23</ele>
        <time>2015-10-10T14:41:10Z</time>
      </trkpt>
      <trkpt lat="47.61112" lon="-3.37032">
        <ele>-3.23</ele>
        <time>2015-10-10T14:41:11Z</time>
      </trkpt>
      <trkpt lat="47.61115" lon="-3.37032">
        <ele>-3.23</ele>
        <time>2015-10-10T14:41:12Z</time>
      </trkpt>
      <trkpt lat="47.61117" lon="-3.37031">
        <ele>-1.79</ele>
        <time>2015-10-10T14:41:13Z</time>
      </trkpt>
      <trkpt lat="47.6112" lon="-3.37029">
        <ele>-1.79</ele>
        <time>2015-10-10T14:41:14Z</time>
      </trkpt>
      <trkpt lat="47.61122" lon="-3.37028">
        <ele>-1.79</ele>
        <time>2015-10-10T14:41:15Z</time>
      </trkpt>
      <trkpt lat="47.61125" lon="-3.37027">
        <ele>-1.3</ele>
        <time>2015-10-10T14:41:16Z</time>
      </trkpt>
      <trkpt lat="47.61128" lon="-3.37025">
        <ele>-1.3</ele>
        <time>2015-10-10T14:41:17Z</time>
      </trkpt>
      <trkpt lat="47.6113" lon="-3.37023">
        <ele>-1.3</ele>
        <time>2015-10-10T14:41:18Z</time>
      </trkpt>
      <trkpt lat="47.61132" lon="-3.37022">
        <ele>-1.3</ele>
        <time>2015-10-10T14:41:19Z</time>
      </trkpt>
      <trkpt lat="47.61134" lon="-3.37021">
        <ele>-2.27</ele>
        <time>2015-10-10T14:41:20Z</time>
      </trkpt>
      <trkpt lat="47.61137" lon="-3.37019">
        <ele>-2.27</ele>
        <time>2015-10-10T14:41:21Z</time>
      </trkpt>
      <trkpt lat="47.61139" lon="-3.37018">
        <ele>-2.75</ele>
        <time>2015-10-10T14:41:22Z</time>
      </trkpt>
      <trkpt lat="47.61142" lon="-3.37017">
        <ele>-2.75</ele>
        <time>2015-10-10T14:41:23Z</time>
      </trkpt>
      <trkpt lat="47.61144" lon="-3.37016">
        <ele>-2.75</ele>
        <time>2015-10-10T14:41:24Z</time>
      </trkpt>
      <trkpt lat="47.61146" lon="-3.37014">
        <ele>-2.75</ele>
        <time>2015-10-10T14:41:25Z</time>
      </trkpt>
      <trkpt lat="47.61148" lon="-3.37014">
        <ele>-2.75</ele>
        <time>2015-10-10T14:41:26Z</time>
      </trkpt>
      <trkpt lat="47.61151" lon="-3.37013">
        <ele>-2.75</ele>
        <time>2015-10-10T14:41:27Z</time>
      </trkpt>
      <trkpt lat="47.61153" lon="-3.37012">
        <ele>-2.75</ele>
        <time>2015-10-10T14:41:28Z</time>
      </trkpt>
      <trkpt lat="47.61155" lon="-3.37011">
        <ele>-2.75</ele>
        <time>2015-10-10T14:41:29Z</time>
      </trkpt>
      <trkpt lat="47.61158" lon="-3.3701">
        <ele>-1.3</ele>
        <time>2015-10-10T14:41:30Z</time>
      </trkpt>
      <trkpt lat="47.61161" lon="-3.37009">
        <ele>-1.3</ele>
        <time>2015-10-10T14:41:31Z</time>
      </trkpt>
      <trkpt lat="47.61163" lon="-3.37007">
        <ele>-1.3</ele>
        <time>2015-10-10T14:41:32Z</time>
      </trkpt>
      <trkpt lat="47.61166" lon="-3.37006">
        <ele>-1.3</ele>
        <time>2015-10-10T14:41:33Z</time>
      </trkpt>
      <trkpt lat="47.61169" lon="-3.37005">
        <ele>-1.3</ele>
        <time>2015-10-10T14:41:34Z</time>
      </trkpt>
      <trkpt lat="47.61171" lon="-3.37003">
        <ele>-1.3</ele>
        <time>2015-10-10T14:41:35Z</time>
      </trkpt>
      <trkpt lat="47.61174" lon="-3.37002">
        <ele>-1.3</ele>
        <time>2015-10-10T14:41:36Z</time>
      </trkpt>
      <trkpt lat="47.61176" lon="-3.37">
        <ele>-2.75</ele>
        <time>2015-10-10T14:41:37Z</time>
      </trkpt>
      <trkpt lat="47.61178" lon="-3.36998">
        <ele>-2.75</ele>
        <time>2015-10-10T14:41:38Z</time>
      </trkpt>
      <trkpt lat="47.61181" lon="-3.36998">
        <ele>-2.75</ele>
        <time>2015-10-10T14:41:39Z</time>
      </trkpt>
      <trkpt lat="47.61183" lon="-3.36997">
        <ele>-2.75</ele>
        <time>2015-10-10T14:41:40Z</time>
      </trkpt>
      <trkpt lat="47.61186" lon="-3.36996">
        <ele>-2.75</ele>
        <time>2015-10-10T14:41:41Z</time>
      </trkpt>
      <trkpt lat="47.61188" lon="-3.36995">
        <ele>-2.75</ele>
        <time>2015-10-10T14:41:42Z</time>
      </trkpt>
      <trkpt lat="47.6119" lon="-3.36993">
        <ele>-2.75</ele>
        <time>2015-10-10T14:41:43Z</time>
      </trkpt>
      <trkpt lat="47.61192" lon="-3.36992">
        <ele>-2.75</ele>
        <time>2015-10-10T14:41:44Z</time>
      </trkpt>
      <trkpt lat="47.61194" lon="-3.36991">
        <ele>-2.75</ele>
        <time>2015-10-10T14:41:45Z</time>
      </trkpt>
      <trkpt lat="47.61197" lon="-3.3699">
        <ele>-2.75</ele>
        <time>2015-10-10T14:41:46Z</time>
      </trkpt>
      <trkpt lat="47.612" lon="-3.36989">
        <ele>-2.75</ele>
        <time>2015-10-10T14:41:47Z</time>
      </trkpt>
      <trkpt lat="47.61202" lon="-3.36988">
        <ele>-2.75</ele>
        <time>2015-10-10T14:41:48Z</time>
      </trkpt>
      <trkpt lat="47.61204" lon="-3.36986">
        <ele>-2.75</ele>
        <time>2015-10-10T14:41:49Z</time>
      </trkpt>
      <trkpt lat="47.61207" lon="-3.36985">
        <ele>-2.75</ele>
        <time>2015-10-10T14:41:50Z</time>
      </trkpt>
      <trkpt lat="47.61209" lon="-3.36984">
        <ele>-2.75</ele>
        <time>2015-10-10T14:41:51Z</time>
      </trkpt>
      <trkpt lat="47.61212" lon="-3.36983">
        <ele>-2.75</ele>
        <time>2015-10-10T14:41:52Z</time>
      </trkpt>
      <trkpt lat="47.61214" lon="-3.36983">
        <ele>-2.75</ele>
        <time>2015-10-10T14:41:53Z</time>
      </trkpt>
      <trkpt lat="47.61217" lon="-3.36982">
        <ele>-2.75</ele>
        <time>2015-10-10T14:41:54Z</time>
      </trkpt>
      <trkpt lat="47.61219" lon="-3.36981">
        <ele>-2.75</ele>
        <time>2015-10-10T14:41:55Z</time>
      </trkpt>
      <trkpt lat="47.61221" lon="-3.3698">
        <ele>-2.75</ele>
        <time>2015-10-10T14:41:56Z</time>
      </trkpt>
      <trkpt lat="47.61224" lon="-3.3698">
        <ele>-2.75</ele>
        <time>2015-10-10T14:41:57Z</time>
      </trkpt>
      <trkpt lat="47.61227" lon="-3.36978">
        <ele>-2.75</ele>
        <time>2015-10-10T14:41:58Z</time>
      </trkpt>
      <trkpt lat="47.61229" lon="-3.36977">
        <ele>-2.75</ele>
        <time>2015-10-10T14:41:59Z</time>
      </trkpt>
      <trkpt lat="47.61231" lon="-3.36976">
        <ele>-2.75</ele>
        <time>2015-10-10T14:42:00Z</time>
      </trkpt>
      <trkpt lat="47.61233" lon="-3.36975">
        <ele>-2.75</ele>
        <time>2015-10-10T14:42:01Z</time>
      </trkpt>
      <trkpt lat="47.61236" lon="-3.36974">
        <ele>-2.75</ele>
        <time>2015-10-10T14:42:02Z</time>
      </trkpt>
      <trkpt lat="47.61238" lon="-3.36973">
        <ele>-2.75</ele>
        <time>2015-10-10T14:42:03Z</time>
      </trkpt>
      <trkpt lat="47.6124" lon="-3.36973">
        <ele>-2.75</ele>
        <time>2015-10-10T14:42:04Z</time>
      </trkpt>
      <trkpt lat="47.61243" lon="-3.36972">
        <ele>-2.75</ele>
        <time>2015-10-10T14:42:05Z</time>
      </trkpt>
      <trkpt lat="47.61246" lon="-3.36971">
        <ele>-2.75</ele>
        <time>2015-10-10T14:42:06Z</time>
      </trkpt>
      <trkpt lat="47.61248" lon="-3.3697">
        <ele>-2.75</ele>
        <time>2015-10-10T14:42:07Z</time>
      </trkpt>
      <trkpt lat="47.61251" lon="-3.3697">
        <ele>-1.79</ele>
        <time>2015-10-10T14:42:08Z</time>
      </trkpt>
      <trkpt lat="47.61253" lon="-3.3697">
        <ele>-1.79</ele>
        <time>2015-10-10T14:42:09Z</time>
      </trkpt>
      <trkpt lat="47.61256" lon="-3.36969">
        <ele>-1.79</ele>
        <time>2015-10-10T14:42:10Z</time>
      </trkpt>
      <trkpt lat="47.61259" lon="-3.36969">
        <ele>-1.79</ele>
        <time>2015-10-10T14:42:11Z</time>
      </trkpt>
      <trkpt lat="47.61261" lon="-3.36968">
        <ele>-1.79</ele>
        <time>2015-10-10T14:42:12Z</time>
      </trkpt>
      <trkpt lat="47.61263" lon="-3.36967">
        <ele>-1.79</ele>
        <time>2015-10-10T14:42:13Z</time>
      </trkpt>
      <trkpt lat="47.61265" lon="-3.36966">
        <ele>-1.79</ele>
        <time>2015-10-10T14:42:14Z</time>
      </trkpt>
      <trkpt lat="47.61268" lon="-3.36965">
        <ele>-1.79</ele>
        <time>2015-10-10T14:42:15Z</time>
      </trkpt>
      <trkpt lat="47.6127" lon="-3.36964">
        <ele>-1.79</ele>
        <time>2015-10-10T14:42:16Z</time>
      </trkpt>
      <trkpt lat="47.61273" lon="-3.36963">
        <ele>-1.79</ele>
        <time>2015-10-10T14:42:17Z</time>
      </trkpt>
      <trkpt lat="47.61275" lon="-3.36962">
        <ele>-1.79</ele>
        <time>2015-10-10T14:42:18Z</time>
      </trkpt>
      <trkpt lat="47.61277" lon="-3.36961">
        <ele>-1.79</ele>
        <time>2015-10-10T14:42:19Z</time>
      </trkpt>
      <trkpt lat="47.6128" lon="-3.3696">
        <ele>-1.79</ele>
        <time>2015-10-10T14:42:20Z</time>
      </trkpt>
      <trkpt lat="47.61282" lon="-3.3696">
        <ele>-1.79</ele>
        <time>2015-10-10T14:42:21Z</time>
      </trkpt>
      <trkpt lat="47.61284" lon="-3.36959">
        <ele>-1.79</ele>
        <time>2015-10-10T14:42:22Z</time>
      </trkpt>
      <trkpt lat="47.61287" lon="-3.36958">
        <ele>-1.79</ele>
        <time>2015-10-10T14:42:23Z</time>
      </trkpt>
      <trkpt lat="47.61289" lon="-3.36957">
        <ele>-1.79</ele>
        <time>2015-10-10T14:42:24Z</time>
      </trkpt>
      <trkpt lat="47.61292" lon="-3.36956">
        <ele>-1.79</ele>
        <time>2015-10-10T14:42:25Z</time>
      </trkpt>
      <trkpt lat="47.61294" lon="-3.36955">
        <ele>-1.79</ele>
        <time>2015-10-10T14:42:26Z</time>
      </trkpt>
      <trkpt lat="47.61296" lon="-3.36954">
        <ele>-1.79</ele>
        <time>2015-10-10T14:42:27Z</time>
      </trkpt>
      <trkpt lat="47.61299" lon="-3.36953">
        <ele>-1.79</ele>
        <time>2015-10-10T14:42:28Z</time>
      </trkpt>
      <trkpt lat="47.61301" lon="-3.36952">
        <ele>-1.79</ele>
        <time>2015-10-10T14:42:29Z</time>
      </trkpt>
      <trkpt lat="47.61304" lon="-3.36951">
        <ele>-1.79</ele>
        <time>2015-10-10T14:42:30Z</time>
      </trkpt>
      <trkpt lat="47.61306" lon="-3.3695">
        <ele>-1.79</ele>
        <time>2015-10-10T14:42:31Z</time>
      </trkpt>
      <trkpt lat="47.61308" lon="-3.36949">
        <ele>-1.79</ele>
        <time>2015-10-10T14:42:32Z</time>
      </trkpt>
      <trkpt lat="47.61311" lon="-3.36948">
        <ele>-1.79</ele>
        <time>2015-10-10T14:42:33Z</time>
      </trkpt>
      <trkpt lat="47.61314" lon="-3.36948">
        <ele>-1.79</ele>
        <time>2015-10-10T14:42:34Z</time>
      </trkpt>
      <trkpt lat="47.61316" lon="-3.36947">
        <ele>-1.79</ele>
        <time>2015-10-10T14:42:35Z</time>
      </trkpt>
      <trkpt lat="47.61319" lon="-3.36945">
        <ele>-1.79</ele>
        <time>2015-10-10T14:42:36Z</time>
      </trkpt>
      <trkpt lat="47.61321" lon="-3.36944">
        <ele>-1.79</ele>
        <time>2015-10-10T14:42:37Z</time>
      </trkpt>
      <trkpt lat="47.61324" lon="-3.36943">
        <ele>-1.79</ele>
        <time>2015-10-10T14:42:38Z</time>
      </trkpt>
      <trkpt lat="47.61327" lon="-3.36941">
        <ele>-1.79</ele>
        <time>2015-10-10T14:42:39Z</time>
      </trkpt>
      <trkpt lat="47.61329" lon="-3.3694">
        <ele>-1.79</ele>
        <time>2015-10-10T14:42:40Z</time>
      </trkpt>
      <trkpt lat="47.61332" lon="-3.36939">
        <ele>-1.79</ele>
        <time>2015-10-10T14:42:41Z</time>
      </trkpt>
      <trkpt lat="47.61334" lon="-3.36938">
        <ele>-1.79</ele>
        <time>2015-10-10T14:42:42Z</time>
      </trkpt>
      <trkpt lat="47.61337" lon="-3.36937">
        <ele>-1.79</ele>
        <time>2015-10-10T14:42:43Z</time>
      </trkpt>
      <trkpt lat="47.61339" lon="-3.36936">
        <ele>-1.79</ele>
        <time>2015-10-10T14:42:44Z</time>
      </trkpt>
      <trkpt lat="47.61341" lon="-3.36936">
        <ele>-1.79</ele>
        <time>2015-10-10T14:42:45Z</time>
      </trkpt>
      <trkpt lat="47.61344" lon="-3.36935">
        <ele>-1.79</ele>
        <time>2015-10-10T14:42:46Z</time>
      </trkpt>
      <trkpt lat="47.61346" lon="-3.36934">
        <ele>-1.79</ele>
        <time>2015-10-10T14:42:47Z</time>
      </trkpt>
      <trkpt lat="47.61348" lon="-3.36932">
        <ele>-1.79</ele>
        <time>2015-10-10T14:42:48Z</time>
      </trkpt>
      <trkpt lat="47.61351" lon="-3.36931">
        <ele>-1.79</ele>
        <time>2015-10-10T14:42:49Z</time>
      </trkpt>
      <trkpt lat="47.61354" lon="-3.3693">
        <ele>-1.79</ele>
        <time>2015-10-10T14:42:50Z</time>
      </trkpt>
      <trkpt lat="47.61357" lon="-3.36928">
        <ele>-1.79</ele>
        <time>2015-10-10T14:42:51Z</time>
      </trkpt>
      <trkpt lat="47.6136" lon="-3.36926">
        <ele>-1.79</ele>
        <time>2015-10-10T14:42:52Z</time>
      </trkpt>
      <trkpt lat="47.61362" lon="-3.36925">
        <ele>-1.79</ele>
        <time>2015-10-10T14:42:53Z</time>
      </trkpt>
      <trkpt lat="47.61365" lon="-3.36924">
        <ele>-1.79</ele>
        <time>2015-10-10T14:42:54Z</time>
      </trkpt>
      <trkpt lat="47.61368" lon="-3.36923">
        <ele>-1.79</ele>
        <time>2015-10-10T14:42:55Z</time>
      </trkpt>
      <trkpt lat="47.6137" lon="-3.36923">
        <ele>-1.79</ele>
        <time>2015-10-10T14:42:56Z</time>
      </trkpt>
      <trkpt lat="47.61373" lon="-3.36922">
        <ele>-1.79</ele>
        <time>2015-10-10T14:42:57Z</time>
      </trkpt>
      <trkpt lat="47.61375" lon="-3.36922">
        <ele>-1.79</ele>
        <time>2015-10-10T14:42:58Z</time>
      </trkpt>
      <trkpt lat="47.61377" lon="-3.3692">
        <ele>-1.79</ele>
        <time>2015-10-10T14:42:59Z</time>
      </trkpt>
      <trkpt lat="47.61379" lon="-3.3692">
        <ele>-1.79</ele>
        <time>2015-10-10T14:43:00Z</time>
      </trkpt>
      <trkpt lat="47.61382" lon="-3.36919">
        <ele>-1.79</ele>
        <time>2015-10-10T14:43:01Z</time>
      </trkpt>
      <trkpt lat="47.61384" lon="-3.36918">
        <ele>-1.79</ele>
        <time>2015-10-10T14:43:02Z</time>
      </trkpt>
      <trkpt lat="47.61386" lon="-3.36917">
        <ele>-1.79</ele>
        <time>2015-10-10T14:43:03Z</time>
      </trkpt>
      <trkpt lat="47.61389" lon="-3.36917">
        <ele>-1.79</ele>
        <time>2015-10-10T14:43:04Z</time>
      </trkpt>
      <trkpt lat="47.61392" lon="-3.36916">
        <ele>-1.79</ele>
        <time>2015-10-10T14:43:05Z</time>
      </trkpt>
      <trkpt lat="47.61394" lon="-3.36915">
        <ele>-1.79</ele>
        <time>2015-10-10T14:43:06Z</time>
      </trkpt>
      <trkpt lat="47.61397" lon="-3.36913">
        <ele>-1.79</ele>
        <time>2015-10-10T14:43:07Z</time>
      </trkpt>
      <trkpt lat="47.614" lon="-3.36913">
        <ele>-1.79</ele>
        <time>2015-10-10T14:43:08Z</time>
      </trkpt>
      <trkpt lat="47.61402" lon="-3.36912">
        <ele>-1.79</ele>
        <time>2015-10-10T14:43:09Z</time>
      </trkpt>
      <trkpt lat="47.61405" lon="-3.36911">
        <ele>-1.79</ele>
        <time>2015-10-10T14:43:10Z</time>
      </trkpt>
      <trkpt lat="47.61408" lon="-3.36909">
        <ele>-1.79</ele>
        <time>2015-10-10T14:43:11Z</time>
      </trkpt>
      <trkpt lat="47.6141" lon="-3.36908">
        <ele>-1.79</ele>
        <time>2015-10-10T14:43:12Z</time>
      </trkpt>
      <trkpt lat="47.61413" lon="-3.36907">
        <ele>-1.79</ele>
        <time>2015-10-10T14:43:13Z</time>
      </trkpt>
      <trkpt lat="47.61415" lon="-3.36906">
        <ele>-1.79</ele>
        <time>2015-10-10T14:43:14Z</time>
      </trkpt>
      <trkpt lat="47.61418" lon="-3.36905">
        <ele>-1.79</ele>
        <time>2015-10-10T14:43:15Z</time>
      </trkpt>
      <trkpt lat="47.6142" lon="-3.36904">
        <ele>-1.79</ele>
        <time>2015-10-10T14:43:16Z</time>
      </trkpt>
      <trkpt lat="47.61423" lon="-3.36903">
        <ele>-1.79</ele>
        <time>2015-10-10T14:43:17Z</time>
      </trkpt>
      <trkpt lat="47.61425" lon="-3.36902">
        <ele>-1.79</ele>
        <time>2015-10-10T14:43:18Z</time>
      </trkpt>
      <trkpt lat="47.61428" lon="-3.369">
        <ele>-1.79</ele>
        <time>2015-10-10T14:43:19Z</time>
      </trkpt>
      <trkpt lat="47.6143" lon="-3.36899">
        <ele>-1.79</ele>
        <time>2015-10-10T14:43:20Z</time>
      </trkpt>
      <trkpt lat="47.61433" lon="-3.36898">
        <ele>-1.79</ele>
        <time>2015-10-10T14:43:21Z</time>
      </trkpt>
      <trkpt lat="47.61435" lon="-3.36897">
        <ele>-1.79</ele>
        <time>2015-10-10T14:43:22Z</time>
      </trkpt>
      <trkpt lat="47.61438" lon="-3.36896">
        <ele>-1.79</ele>
        <time>2015-10-10T14:43:23Z</time>
      </trkpt>
      <trkpt lat="47.6144" lon="-3.36896">
        <ele>-1.79</ele>
        <time>2015-10-10T14:43:24Z</time>
      </trkpt>
      <trkpt lat="47.61443" lon="-3.36895">
        <ele>-1.79</ele>
        <time>2015-10-10T14:43:25Z</time>
      </trkpt>
      <trkpt lat="47.61445" lon="-3.36895">
        <ele>-1.79</ele>
        <time>2015-10-10T14:43:26Z</time>
      </trkpt>
      <trkpt lat="47.61448" lon="-3.36894">
        <ele>-1.79</ele>
        <time>2015-10-10T14:43:27Z</time>
      </trkpt>
      <trkpt lat="47.6145" lon="-3.36893">
        <ele>-1.79</ele>
        <time>2015-10-10T14:43:28Z</time>
      </trkpt>
      <trkpt lat="47.61452" lon="-3.36892">
        <ele>-1.79</ele>
        <time>2015-10-10T14:43:29Z</time>
      </trkpt>
      <trkpt lat="47.61455" lon="-3.36891">
        <ele>-1.79</ele>
        <time>2015-10-10T14:43:30Z</time>
      </trkpt>
      <trkpt lat="47.61457" lon="-3.36891">
        <ele>-1.79</ele>
        <time>2015-10-10T14:43:31Z</time>
      </trkpt>
      <trkpt lat="47.6146" lon="-3.3689">
        <ele>-3.23</ele>
        <time>2015-10-10T14:43:32Z</time>
      </trkpt>
      <trkpt lat="47.61462" lon="-3.36889">
        <ele>-3.23</ele>
        <time>2015-10-10T14:43:33Z</time>
      </trkpt>
      <trkpt lat="47.61464" lon="-3.36888">
        <ele>-2.75</ele>
        <time>2015-10-10T14:43:34Z</time>
      </trkpt>
      <trkpt lat="47.61467" lon="-3.36888">
        <ele>-3.23</ele>
        <time>2015-10-10T14:43:35Z</time>
      </trkpt>
      <trkpt lat="47.61469" lon="-3.36887">
        <ele>-3.23</ele>
        <time>2015-10-10T14:43:36Z</time>
      </trkpt>
      <trkpt lat="47.61471" lon="-3.36886">
        <ele>-3.23</ele>
        <time>2015-10-10T14:43:37Z</time>
      </trkpt>
      <trkpt lat="47.61474" lon="-3.36885">
        <ele>-3.23</ele>
        <time>2015-10-10T14:43:38Z</time>
      </trkpt>
      <trkpt lat="47.61476" lon="-3.36884">
        <ele>-1.79</ele>
        <time>2015-10-10T14:43:39Z</time>
      </trkpt>
      <trkpt lat="47.61479" lon="-3.36883">
        <ele>-1.79</ele>
        <time>2015-10-10T14:43:40Z</time>
      </trkpt>
      <trkpt lat="47.61481" lon="-3.36881">
        <ele>-1.79</ele>
        <time>2015-10-10T14:43:41Z</time>
      </trkpt>
      <trkpt lat="47.61484" lon="-3.36881">
        <ele>-1.79</ele>
        <time>2015-10-10T14:43:42Z</time>
      </trkpt>
      <trkpt lat="47.61487" lon="-3.3688">
        <ele>-1.79</ele>
        <time>2015-10-10T14:43:43Z</time>
      </trkpt>
      <trkpt lat="47.61489" lon="-3.36879">
        <ele>-1.79</ele>
        <time>2015-10-10T14:43:44Z</time>
      </trkpt>
      <trkpt lat="47.61491" lon="-3.36877">
        <ele>-1.79</ele>
        <time>2015-10-10T14:43:45Z</time>
      </trkpt>
      <trkpt lat="47.61494" lon="-3.36876">
        <ele>-1.79</ele>
        <time>2015-10-10T14:43:46Z</time>
      </trkpt>
      <trkpt lat="47.61496" lon="-3.36875">
        <ele>-1.79</ele>
        <time>2015-10-10T14:43:47Z</time>
      </trkpt>
      <trkpt lat="47.61499" lon="-3.36876">
        <ele>-1.79</ele>
        <time>2015-10-10T14:43:48Z</time>
      </trkpt>
      <trkpt lat="47.61501" lon="-3.36876">
        <ele>-1.79</ele>
        <time>2015-10-10T14:43:49Z</time>
      </trkpt>
      <trkpt lat="47.61503" lon="-3.36875">
        <ele>-1.79</ele>
        <time>2015-10-10T14:43:50Z</time>
      </trkpt>
      <trkpt lat="47.61506" lon="-3.36874">
        <ele>-3.71</ele>
        <time>2015-10-10T14:43:51Z</time>
      </trkpt>
      <trkpt lat="47.61508" lon="-3.36874">
        <ele>-3.71</ele>
        <time>2015-10-10T14:43:52Z</time>
      </trkpt>
      <trkpt lat="47.6151" lon="-3.36873">
        <ele>-3.71</ele>
        <time>2015-10-10T14:43:53Z</time>
      </trkpt>
      <trkpt lat="47.61513" lon="-3.36872">
        <ele>-3.71</ele>
        <time>2015-10-10T14:43:54Z</time>
      </trkpt>
      <trkpt lat="47.61515" lon="-3.36871">
        <ele>-3.71</ele>
        <time>2015-10-10T14:43:55Z</time>
      </trkpt>
      <trkpt lat="47.61518" lon="-3.3687">
        <ele>-3.71</ele>
        <time>2015-10-10T14:43:56Z</time>
      </trkpt>
      <trkpt lat="47.6152" lon="-3.36869">
        <ele>-3.71</ele>
        <time>2015-10-10T14:43:57Z</time>
      </trkpt>
      <trkpt lat="47.61523" lon="-3.36868">
        <ele>-3.71</ele>
        <time>2015-10-10T14:43:58Z</time>
      </trkpt>
      <trkpt lat="47.61525" lon="-3.36867">
        <ele>-2.27</ele>
        <time>2015-10-10T14:43:59Z</time>
      </trkpt>
      <trkpt lat="47.61528" lon="-3.36866">
        <ele>-2.27</ele>
        <time>2015-10-10T14:44:00Z</time>
      </trkpt>
      <trkpt lat="47.6153" lon="-3.36865">
        <ele>-1.79</ele>
        <time>2015-10-10T14:44:01Z</time>
      </trkpt>
      <trkpt lat="47.61533" lon="-3.36864">
        <ele>-1.79</ele>
        <time>2015-10-10T14:44:02Z</time>
      </trkpt>
      <trkpt lat="47.61536" lon="-3.36862">
        <ele>-1.79</ele>
        <time>2015-10-10T14:44:03Z</time>
      </trkpt>
      <trkpt lat="47.61538" lon="-3.36861">
        <ele>-1.3</ele>
        <time>2015-10-10T14:44:04Z</time>
      </trkpt>
      <trkpt lat="47.61541" lon="-3.3686">
        <ele>-1.79</ele>
        <time>2015-10-10T14:44:05Z</time>
      </trkpt>
      <trkpt lat="47.61543" lon="-3.36859">
        <ele>-1.79</ele>
        <time>2015-10-10T14:44:06Z</time>
      </trkpt>
      <trkpt lat="47.61545" lon="-3.36858">
        <ele>-1.79</ele>
        <time>2015-10-10T14:44:07Z</time>
      </trkpt>
      <trkpt lat="47.61548" lon="-3.36857">
        <ele>-3.23</ele>
        <time>2015-10-10T14:44:08Z</time>
      </trkpt>
      <trkpt lat="47.6155" lon="-3.36857">
        <ele>-3.23</ele>
        <time>2015-10-10T14:44:09Z</time>
      </trkpt>
      <trkpt lat="47.61552" lon="-3.36856">
        <ele>-3.23</ele>
        <time>2015-10-10T14:44:10Z</time>
      </trkpt>
      <trkpt lat="47.61555" lon="-3.36855">
        <ele>-3.23</ele>
        <time>2015-10-10T14:44:11Z</time>
      </trkpt>
      <trkpt lat="47.61557" lon="-3.36854">
        <ele>-3.23</ele>
        <time>2015-10-10T14:44:12Z</time>
      </trkpt>
      <trkpt lat="47.61559" lon="-3.36853">
        <ele>-3.23</ele>
        <time>2015-10-10T14:44:13Z</time>
      </trkpt>
      <trkpt lat="47.61561" lon="-3.36853">
        <ele>-3.23</ele>
        <time>2015-10-10T14:44:14Z</time>
      </trkpt>
      <trkpt lat="47.61563" lon="-3.36852">
        <ele>-3.23</ele>
        <time>2015-10-10T14:44:15Z</time>
      </trkpt>
      <trkpt lat="47.61565" lon="-3.36851">
        <ele>-3.23</ele>
        <time>2015-10-10T14:44:16Z</time>
      </trkpt>
      <trkpt lat="47.61568" lon="-3.36851">
        <ele>-3.23</ele>
        <time>2015-10-10T14:44:17Z</time>
      </trkpt>
      <trkpt lat="47.6157" lon="-3.36849">
        <ele>-3.23</ele>
        <time>2015-10-10T14:44:18Z</time>
      </trkpt>
      <trkpt lat="47.61572" lon="-3.36847">
        <ele>-3.23</ele>
        <time>2015-10-10T14:44:19Z</time>
      </trkpt>
      <trkpt lat="47.61575" lon="-3.36846">
        <ele>-3.23</ele>
        <time>2015-10-10T14:44:20Z</time>
      </trkpt>
      <trkpt lat="47.61577" lon="-3.36845">
        <ele>-1.79</ele>
        <time>2015-10-10T14:44:21Z</time>
      </trkpt>
      <trkpt lat="47.6158" lon="-3.36845">
        <ele>-1.79</ele>
        <time>2015-10-10T14:44:22Z</time>
      </trkpt>
      <trkpt lat="47.61583" lon="-3.36844">
        <ele>-1.79</ele>
        <time>2015-10-10T14:44:23Z</time>
      </trkpt>
      <trkpt lat="47.61586" lon="-3.36844">
        <ele>-1.79</ele>
        <time>2015-10-10T14:44:24Z</time>
      </trkpt>
      <trkpt lat="47.61588" lon="-3.36843">
        <ele>-1.79</ele>
        <time>2015-10-10T14:44:25Z</time>
      </trkpt>
      <trkpt lat="47.6159" lon="-3.36842">
        <ele>-1.79</ele>
        <time>2015-10-10T14:44:26Z</time>
      </trkpt>
      <trkpt lat="47.61593" lon="-3.36841">
        <ele>-1.79</ele>
        <time>2015-10-10T14:44:27Z</time>
      </trkpt>
      <trkpt lat="47.61595" lon="-3.3684">
        <ele>-1.79</ele>
        <time>2015-10-10T14:44:28Z</time>
      </trkpt>
      <trkpt lat="47.61597" lon="-3.3684">
        <ele>-1.79</ele>
        <time>2015-10-10T14:44:29Z</time>
      </trkpt>
      <trkpt lat="47.616" lon="-3.36839">
        <ele>-1.79</ele>
        <time>2015-10-10T14:44:30Z</time>
      </trkpt>
      <trkpt lat="47.61602" lon="-3.36838">
        <ele>-1.79</ele>
        <time>2015-10-10T14:44:31Z</time>
      </trkpt>
      <trkpt lat="47.61604" lon="-3.36837">
        <ele>-1.79</ele>
        <time>2015-10-10T14:44:32Z</time>
      </trkpt>
      <trkpt lat="47.61606" lon="-3.36836">
        <ele>-3.23</ele>
        <time>2015-10-10T14:44:33Z</time>
      </trkpt>
      <trkpt lat="47.61608" lon="-3.36836">
        <ele>-3.23</ele>
        <time>2015-10-10T14:44:34Z</time>
      </trkpt>
      <trkpt lat="47.61611" lon="-3.36835">
        <ele>-3.23</ele>
        <time>2015-10-10T14:44:35Z</time>
      </trkpt>
      <trkpt lat="47.61613" lon="-3.36835">
        <ele>-3.23</ele>
        <time>2015-10-10T14:44:36Z</time>
      </trkpt>
      <trkpt lat="47.61616" lon="-3.36833">
        <ele>-3.23</ele>
        <time>2015-10-10T14:44:37Z</time>
      </trkpt>
      <trkpt lat="47.61618" lon="-3.36832">
        <ele>-3.23</ele>
        <time>2015-10-10T14:44:38Z</time>
      </trkpt>
      <trkpt lat="47.6162" lon="-3.3683">
        <ele>-3.23</ele>
        <time>2015-10-10T14:44:39Z</time>
      </trkpt>
      <trkpt lat="47.61623" lon="-3.36829">
        <ele>-1.79</ele>
        <time>2015-10-10T14:44:40Z</time>
      </trkpt>
      <trkpt lat="47.61626" lon="-3.36829">
        <ele>-1.3</ele>
        <time>2015-10-10T14:44:41Z</time>
      </trkpt>
      <trkpt lat="47.61628" lon="-3.36828">
        <ele>-1.3</ele>
        <time>2015-10-10T14:44:42Z</time>
      </trkpt>
      <trkpt lat="47.61631" lon="-3.36827">
        <ele>-1.3</ele>
        <time>2015-10-10T14:44:43Z</time>
      </trkpt>
      <trkpt lat="47.61633" lon="-3.36826">
        <ele>-1.3</ele>
        <time>2015-10-10T14:44:44Z</time>
      </trkpt>
      <trkpt lat="47.61636" lon="-3.36824">
        <ele>-1.3</ele>
        <time>2015-10-10T14:44:45Z</time>
      </trkpt>
      <trkpt lat="47.61638" lon="-3.36823">
        <ele>-1.3</ele>
        <time>2015-10-10T14:44:46Z</time>
      </trkpt>
      <trkpt lat="47.61641" lon="-3.36822">
        <ele>-1.3</ele>
        <time>2015-10-10T14:44:47Z</time>
      </trkpt>
      <trkpt lat="47.61644" lon="-3.36822">
        <ele>-1.3</ele>
        <time>2015-10-10T14:44:48Z</time>
      </trkpt>
      <trkpt lat="47.61646" lon="-3.36821">
        <ele>-1.3</ele>
        <time>2015-10-10T14:44:49Z</time>
      </trkpt>
      <trkpt lat="47.61648" lon="-3.3682">
        <ele>-2.75</ele>
        <time>2015-10-10T14:44:50Z</time>
      </trkpt>
      <trkpt lat="47.61651" lon="-3.36819">
        <ele>-2.75</ele>
        <time>2015-10-10T14:44:51Z</time>
      </trkpt>
      <trkpt lat="47.61654" lon="-3.36819">
        <ele>-2.75</ele>
        <time>2015-10-10T14:44:52Z</time>
      </trkpt>
      <trkpt lat="47.61656" lon="-3.36818">
        <ele>-3.23</ele>
        <time>2015-10-10T14:44:53Z</time>
      </trkpt>
      <trkpt lat="47.61659" lon="-3.36817">
        <ele>-3.23</ele>
        <time>2015-10-10T14:44:54Z</time>
      </trkpt>
      <trkpt lat="47.61661" lon="-3.36816">
        <ele>-3.23</ele>
        <time>2015-10-10T14:44:55Z</time>
      </trkpt>
      <trkpt lat="47.61663" lon="-3.36815">
        <ele>-3.23</ele>
        <time>2015-10-10T14:44:56Z</time>
      </trkpt>
      <trkpt lat="47.61666" lon="-3.36814">
        <ele>-2.27</ele>
        <time>2015-10-10T14:44:57Z</time>
      </trkpt>
      <trkpt lat="47.61669" lon="-3.36813">
        <ele>-2.27</ele>
        <time>2015-10-10T14:44:58Z</time>
      </trkpt>
      <trkpt lat="47.61672" lon="-3.36811">
        <ele>-2.27</ele>
        <time>2015-10-10T14:44:59Z</time>
      </trkpt>
      <trkpt lat="47.61674" lon="-3.3681">
        <ele>-1.3</ele>
        <time>2015-10-10T14:45:00Z</time>
      </trkpt>
      <trkpt lat="47.61677" lon="-3.36809">
        <ele>-1.3</ele>
        <time>2015-10-10T14:45:01Z</time>
      </trkpt>
      <trkpt lat="47.61679" lon="-3.36807">
        <ele>-1.3</ele>
        <time>2015-10-10T14:45:02Z</time>
      </trkpt>
      <trkpt lat="47.61682" lon="-3.36806">
        <ele>-1.3</ele>
        <time>2015-10-10T14:45:03Z</time>
      </trkpt>
      <trkpt lat="47.61685" lon="-3.36805">
        <ele>-1.3</ele>
        <time>2015-10-10T14:45:04Z</time>
      </trkpt>
      <trkpt lat="47.61687" lon="-3.36804">
        <ele>-1.3</ele>
        <time>2015-10-10T14:45:05Z</time>
      </trkpt>
      <trkpt lat="47.6169" lon="-3.36803">
        <ele>-2.75</ele>
        <time>2015-10-10T14:45:06Z</time>
      </trkpt>
      <trkpt lat="47.61692" lon="-3.36802">
        <ele>-2.75</ele>
        <time>2015-10-10T14:45:07Z</time>
      </trkpt>
      <trkpt lat="47.61695" lon="-3.36801">
        <ele>-2.75</ele>
        <time>2015-10-10T14:45:08Z</time>
      </trkpt>
      <trkpt lat="47.61697" lon="-3.368">
        <ele>-2.75</ele>
        <time>2015-10-10T14:45:09Z</time>
      </trkpt>
      <trkpt lat="47.617" lon="-3.36799">
        <ele>-2.75</ele>
        <time>2015-10-10T14:45:10Z</time>
      </trkpt>
      <trkpt lat="47.61703" lon="-3.36798">
        <ele>-2.75</ele>
        <time>2015-10-10T14:45:11Z</time>
      </trkpt>
      <trkpt lat="47.61705" lon="-3.36796">
        <ele>-2.75</ele>
        <time>2015-10-10T14:45:12Z</time>
      </trkpt>
      <trkpt lat="47.61707" lon="-3.36795">
        <ele>-2.75</ele>
        <time>2015-10-10T14:45:13Z</time>
      </trkpt>
      <trkpt lat="47.6171" lon="-3.36795">
        <ele>-3.23</ele>
        <time>2015-10-10T14:45:14Z</time>
      </trkpt>
      <trkpt lat="47.61712" lon="-3.36795">
        <ele>-3.23</ele>
        <time>2015-10-10T14:45:15Z</time>
      </trkpt>
      <trkpt lat="47.61715" lon="-3.36795">
        <ele>-3.23</ele>
        <time>2015-10-10T14:45:16Z</time>
      </trkpt>
      <trkpt lat="47.61717" lon="-3.36796">
        <ele>-3.23</ele>
        <time>2015-10-10T14:45:17Z</time>
      </trkpt>
      <trkpt lat="47.6172" lon="-3.36796">
        <ele>-3.23</ele>
        <time>2015-10-10T14:45:18Z</time>
      </trkpt>
      <trkpt lat="47.61722" lon="-3.36795">
        <ele>-3.23</ele>
        <time>2015-10-10T14:45:19Z</time>
      </trkpt>
      <trkpt lat="47.61724" lon="-3.36795">
        <ele>-3.23</ele>
        <time>2015-10-10T14:45:20Z</time>
      </trkpt>
      <trkpt lat="47.61726" lon="-3.36794">
        <ele>-3.23</ele>
        <time>2015-10-10T14:45:21Z</time>
      </trkpt>
      <trkpt lat="47.61729" lon="-3.36794">
        <ele>-3.23</ele>
        <time>2015-10-10T14:45:22Z</time>
      </trkpt>
      <trkpt lat="47.61732" lon="-3.36793">
        <ele>-3.23</ele>
        <time>2015-10-10T14:45:23Z</time>
      </trkpt>
      <trkpt lat="47.61735" lon="-3.36793">
        <ele>-1.79</ele>
        <time>2015-10-10T14:45:24Z</time>
      </trkpt>
      <trkpt lat="47.61738" lon="-3.36793">
        <ele>-1.79</ele>
        <time>2015-10-10T14:45:25Z</time>
      </trkpt>
      <trkpt lat="47.61741" lon="-3.36792">
        <ele>-1.79</ele>
        <time>2015-10-10T14:45:26Z</time>
      </trkpt>
      <trkpt lat="47.61743" lon="-3.36792">
        <ele>-1.3</ele>
        <time>2015-10-10T14:45:27Z</time>
      </trkpt>
      <trkpt lat="47.61747" lon="-3.36792">
        <ele>-1.3</ele>
        <time>2015-10-10T14:45:28Z</time>
      </trkpt>
      <trkpt lat="47.6175" lon="-3.36792">
        <ele>-1.3</ele>
        <time>2015-10-10T14:45:29Z</time>
      </trkpt>
      <trkpt lat="47.61753" lon="-3.36791">
        <ele>-1.3</ele>
        <time>2015-10-10T14:45:30Z</time>
      </trkpt>
      <trkpt lat="47.61755" lon="-3.3679">
        <ele>-1.3</ele>
        <time>2015-10-10T14:45:31Z</time>
      </trkpt>
      <trkpt lat="47.61758" lon="-3.36789">
        <ele>-1.3</ele>
        <time>2015-10-10T14:45:32Z</time>
      </trkpt>
      <trkpt lat="47.6176" lon="-3.36789">
        <ele>-1.3</ele>
        <time>2015-10-10T14:45:33Z</time>
      </trkpt>
      <trkpt lat="47.61763" lon="-3.36788">
        <ele>-1.3</ele>
        <time>2015-10-10T14:45:34Z</time>
      </trkpt>
      <trkpt lat="47.61765" lon="-3.36789">
        <ele>-2.27</ele>
        <time>2015-10-10T14:45:35Z</time>
      </trkpt>
      <trkpt lat="47.61768" lon="-3.36789">
        <ele>-2.27</ele>
        <time>2015-10-10T14:45:36Z</time>
      </trkpt>
      <trkpt lat="47.61771" lon="-3.36788">
        <ele>-2.27</ele>
        <time>2015-10-10T14:45:37Z</time>
      </trkpt>
      <trkpt lat="47.61773" lon="-3.36788">
        <ele>-2.75</ele>
        <time>2015-10-10T14:45:38Z</time>
      </trkpt>
      <trkpt lat="47.61775" lon="-3.36788">
        <ele>-2.75</ele>
        <time>2015-10-10T14:45:39Z</time>
      </trkpt>
      <trkpt lat="47.61778" lon="-3.36788">
        <ele>-2.75</ele>
        <time>2015-10-10T14:45:40Z</time>
      </trkpt>
      <trkpt lat="47.6178" lon="-3.36789">
        <ele>-3.23</ele>
        <time>2015-10-10T14:45:41Z</time>
      </trkpt>
      <trkpt lat="47.61783" lon="-3.36789">
        <ele>-3.23</ele>
        <time>2015-10-10T14:45:42Z</time>
      </trkpt>
      <trkpt lat="47.61785" lon="-3.36789">
        <ele>-3.23</ele>
        <time>2015-10-10T14:45:43Z</time>
      </trkpt>
      <trkpt lat="47.61788" lon="-3.36788">
        <ele>-3.23</ele>
        <time>2015-10-10T14:45:44Z</time>
      </trkpt>
      <trkpt lat="47.61791" lon="-3.36788">
        <ele>-1.79</ele>
        <time>2015-10-10T14:45:45Z</time>
      </trkpt>
      <trkpt lat="47.61794" lon="-3.36787">
        <ele>-1.3</ele>
        <time>2015-10-10T14:45:46Z</time>
      </trkpt>
      <trkpt lat="47.61797" lon="-3.36785">
        <ele>-1.3</ele>
        <time>2015-10-10T14:45:47Z</time>
      </trkpt>
      <trkpt lat="47.61799" lon="-3.36785">
        <ele>-1.3</ele>
        <time>2015-10-10T14:45:48Z</time>
      </trkpt>
      <trkpt lat="47.61802" lon="-3.36785">
        <ele>-1.3</ele>
        <time>2015-10-10T14:45:49Z</time>
      </trkpt>
      <trkpt lat="47.61805" lon="-3.36785">
        <ele>-1.3</ele>
        <time>2015-10-10T14:45:50Z</time>
      </trkpt>
      <trkpt lat="47.61808" lon="-3.36785">
        <ele>-1.3</ele>
        <time>2015-10-10T14:45:51Z</time>
      </trkpt>
      <trkpt lat="47.61811" lon="-3.36785">
        <ele>-1.3</ele>
        <time>2015-10-10T14:45:52Z</time>
      </trkpt>
      <trkpt lat="47.61814" lon="-3.36784">
        <ele>-1.3</ele>
        <time>2015-10-10T14:45:53Z</time>
      </trkpt>
      <trkpt lat="47.61817" lon="-3.36784">
        <ele>-1.3</ele>
        <time>2015-10-10T14:45:54Z</time>
      </trkpt>
      <trkpt lat="47.6182" lon="-3.36784">
        <ele>-1.3</ele>
        <time>2015-10-10T14:45:55Z</time>
      </trkpt>
      <trkpt lat="47.61822" lon="-3.36784">
        <ele>-2.27</ele>
        <time>2015-10-10T14:45:56Z</time>
      </trkpt>
      <trkpt lat="47.61825" lon="-3.36784">
        <ele>-2.27</ele>
        <time>2015-10-10T14:45:57Z</time>
      </trkpt>
      <trkpt lat="47.61827" lon="-3.36784">
        <ele>-3.23</ele>
        <time>2015-10-10T14:45:58Z</time>
      </trkpt>
      <trkpt lat="47.6183" lon="-3.36785">
        <ele>-2.75</ele>
        <time>2015-10-10T14:45:59Z</time>
      </trkpt>
      <trkpt lat="47.61832" lon="-3.36785">
        <ele>-3.23</ele>
        <time>2015-10-10T14:46:00Z</time>
      </trkpt>
      <trkpt lat="47.61835" lon="-3.36785">
        <ele>-2.75</ele>
        <time>2015-10-10T14:46:01Z</time>
      </trkpt>
      <trkpt lat="47.61838" lon="-3.36785">
        <ele>-2.75</ele>
        <time>2015-10-10T14:46:02Z</time>
      </trkpt>
      <trkpt lat="47.61841" lon="-3.36785">
        <ele>-2.75</ele>
        <time>2015-10-10T14:46:03Z</time>
      </trkpt>
      <trkpt lat="47.61844" lon="-3.36785">
        <ele>-3.23</ele>
        <time>2015-10-10T14:46:04Z</time>
      </trkpt>
      <trkpt lat="47.61846" lon="-3.36784">
        <ele>-3.23</ele>
        <time>2015-10-10T14:46:05Z</time>
      </trkpt>
      <trkpt lat="47.61848" lon="-3.36784">
        <ele>-3.23</ele>
        <time>2015-10-10T14:46:06Z</time>
      </trkpt>
      <trkpt lat="47.61851" lon="-3.36784">
        <ele>-3.23</ele>
        <time>2015-10-10T14:46:07Z</time>
      </trkpt>
      <trkpt lat="47.61854" lon="-3.36785">
        <ele>-1.3</ele>
        <time>2015-10-10T14:46:08Z</time>
      </trkpt>
      <trkpt lat="47.61857" lon="-3.36785">
        <ele>-0.82</ele>
        <time>2015-10-10T14:46:09Z</time>
      </trkpt>
      <trkpt lat="47.6186" lon="-3.36783">
        <ele>-0.82</ele>
        <time>2015-10-10T14:46:10Z</time>
      </trkpt>
      <trkpt lat="47.61863" lon="-3.36783">
        <ele>-0.82</ele>
        <time>2015-10-10T14:46:11Z</time>
      </trkpt>
      <trkpt lat="47.61866" lon="-3.36782">
        <ele>-0.82</ele>
        <time>2015-10-10T14:46:12Z</time>
      </trkpt>
      <trkpt lat="47.61869" lon="-3.36782">
        <ele>-1.79</ele>
        <time>2015-10-10T14:46:13Z</time>
      </trkpt>
      <trkpt lat="47.61871" lon="-3.36781">
        <ele>-2.75</ele>
        <time>2015-10-10T14:46:14Z</time>
      </trkpt>
      <trkpt lat="47.61874" lon="-3.3678">
        <ele>-2.75</ele>
        <time>2015-10-10T14:46:15Z</time>
      </trkpt>
      <trkpt lat="47.61877" lon="-3.3678">
        <ele>-2.75</ele>
        <time>2015-10-10T14:46:16Z</time>
      </trkpt>
      <trkpt lat="47.6188" lon="-3.36779">
        <ele>-2.75</ele>
        <time>2015-10-10T14:46:17Z</time>
      </trkpt>
      <trkpt lat="47.61882" lon="-3.36779">
        <ele>-2.75</ele>
        <time>2015-10-10T14:46:18Z</time>
      </trkpt>
      <trkpt lat="47.61885" lon="-3.3678">
        <ele>-2.75</ele>
        <time>2015-10-10T14:46:19Z</time>
      </trkpt>
      <trkpt lat="47.61888" lon="-3.36779">
        <ele>-2.75</ele>
        <time>2015-10-10T14:46:20Z</time>
      </trkpt>
      <trkpt lat="47.6189" lon="-3.36779">
        <ele>-2.75</ele>
        <time>2015-10-10T14:46:21Z</time>
      </trkpt>
      <trkpt lat="47.61893" lon="-3.36778">
        <ele>-2.75</ele>
        <time>2015-10-10T14:46:22Z</time>
      </trkpt>
      <trkpt lat="47.61896" lon="-3.36778">
        <ele>-2.75</ele>
        <time>2015-10-10T14:46:23Z</time>
      </trkpt>
      <trkpt lat="47.61898" lon="-3.36778">
        <ele>-2.27</ele>
        <time>2015-10-10T14:46:24Z</time>
      </trkpt>
      <trkpt lat="47.61901" lon="-3.36778">
        <ele>-2.75</ele>
        <time>2015-10-10T14:46:25Z</time>
      </trkpt>
      <trkpt lat="47.61903" lon="-3.36778">
        <ele>-2.75</ele>
        <time>2015-10-10T14:46:26Z</time>
      </trkpt>
      <trkpt lat="47.61906" lon="-3.36778">
        <ele>-2.75</ele>
        <time>2015-10-10T14:46:27Z</time>
      </trkpt>
      <trkpt lat="47.61909" lon="-3.36778">
        <ele>-2.75</ele>
        <time>2015-10-10T14:46:28Z</time>
      </trkpt>
      <trkpt lat="47.61911" lon="-3.36777">
        <ele>-2.75</ele>
        <time>2015-10-10T14:46:29Z</time>
      </trkpt>
      <trkpt lat="47.61914" lon="-3.36776">
        <ele>-2.75</ele>
        <time>2015-10-10T14:46:30Z</time>
      </trkpt>
      <trkpt lat="47.61917" lon="-3.36775">
        <ele>-2.75</ele>
        <time>2015-10-10T14:46:31Z</time>
      </trkpt>
      <trkpt lat="47.6192" lon="-3.36775">
        <ele>-2.75</ele>
        <time>2015-10-10T14:46:32Z</time>
      </trkpt>
      <trkpt lat="47.61922" lon="-3.36775">
        <ele>-1.3</ele>
        <time>2015-10-10T14:46:33Z</time>
      </trkpt>
      <trkpt lat="47.61925" lon="-3.36775">
        <ele>-1.3</ele>
        <time>2015-10-10T14:46:34Z</time>
      </trkpt>
      <trkpt lat="47.61928" lon="-3.36775">
        <ele>-1.3</ele>
        <time>2015-10-10T14:46:35Z</time>
      </trkpt>
      <trkpt lat="47.61931" lon="-3.36775">
        <ele>-1.3</ele>
        <time>2015-10-10T14:46:36Z</time>
      </trkpt>
      <trkpt lat="47.61934" lon="-3.36775">
        <ele>-1.3</ele>
        <time>2015-10-10T14:46:37Z</time>
      </trkpt>
      <trkpt lat="47.61937" lon="-3.36775">
        <ele>-1.3</ele>
        <time>2015-10-10T14:46:38Z</time>
      </trkpt>
      <trkpt lat="47.6194" lon="-3.36775">
        <ele>-1.3</ele>
        <time>2015-10-10T14:46:39Z</time>
      </trkpt>
      <trkpt lat="47.61943" lon="-3.36775">
        <ele>-1.3</ele>
        <time>2015-10-10T14:46:40Z</time>
      </trkpt>
      <trkpt lat="47.61945" lon="-3.36775">
        <ele>-1.3</ele>
        <time>2015-10-10T14:46:41Z</time>
      </trkpt>
      <trkpt lat="47.61948" lon="-3.36775">
        <ele>-1.3</ele>
        <time>2015-10-10T14:46:42Z</time>
      </trkpt>
      <trkpt lat="47.61951" lon="-3.36775">
        <ele>-2.75</ele>
        <time>2015-10-10T14:46:43Z</time>
      </trkpt>
      <trkpt lat="47.61953" lon="-3.36776">
        <ele>-2.75</ele>
        <time>2015-10-10T14:46:44Z</time>
      </trkpt>
      <trkpt lat="47.61956" lon="-3.36776">
        <ele>-2.75</ele>
        <time>2015-10-10T14:46:45Z</time>
      </trkpt>
      <trkpt lat="47.61959" lon="-3.36777">
        <ele>-2.75</ele>
        <time>2015-10-10T14:46:46Z</time>
      </trkpt>
      <trkpt lat="47.61961" lon="-3.36777">
        <ele>-2.75</ele>
        <time>2015-10-10T14:46:47Z</time>
      </trkpt>
      <trkpt lat="47.61964" lon="-3.36778">
        <ele>-2.75</ele>
        <time>2015-10-10T14:46:48Z</time>
      </trkpt>
      <trkpt lat="47.61967" lon="-3.36779">
        <ele>-3.23</ele>
        <time>2015-10-10T14:46:49Z</time>
      </trkpt>
      <trkpt lat="47.61969" lon="-3.36779">
        <ele>-2.75</ele>
        <time>2015-10-10T14:46:50Z</time>
      </trkpt>
      <trkpt lat="47.61972" lon="-3.3678">
        <ele>-2.75</ele>
        <time>2015-10-10T14:46:51Z</time>
      </trkpt>
      <trkpt lat="47.61975" lon="-3.36781">
        <ele>-2.75</ele>
        <time>2015-10-10T14:46:52Z</time>
      </trkpt>
      <trkpt lat="47.61977" lon="-3.3678">
        <ele>-2.75</ele>
        <time>2015-10-10T14:46:53Z</time>
      </trkpt>
      <trkpt lat="47.6198" lon="-3.36779">
        <ele>-1.79</ele>
        <time>2015-10-10T14:46:54Z</time>
      </trkpt>
      <trkpt lat="47.61982" lon="-3.36778">
        <ele>-1.79</ele>
        <time>2015-10-10T14:46:55Z</time>
      </trkpt>
      <trkpt lat="47.61985" lon="-3.36777">
        <ele>-1.79</ele>
        <time>2015-10-10T14:46:56Z</time>
      </trkpt>
      <trkpt lat="47.61988" lon="-3.36776">
        <ele>-1.79</ele>
        <time>2015-10-10T14:46:57Z</time>
      </trkpt>
      <trkpt lat="47.61991" lon="-3.36776">
        <ele>-1.79</ele>
        <time>2015-10-10T14:46:58Z</time>
      </trkpt>
      <trkpt lat="47.61994" lon="-3.36776">
        <ele>-1.79</ele>
        <time>2015-10-10T14:46:59Z</time>
      </trkpt>
      <trkpt lat="47.61996" lon="-3.36775">
        <ele>-1.79</ele>
        <time>2015-10-10T14:47:00Z</time>
      </trkpt>
      <trkpt lat="47.61999" lon="-3.36775">
        <ele>-1.79</ele>
        <time>2015-10-10T14:47:01Z</time>
      </trkpt>
      <trkpt lat="47.62002" lon="-3.36775">
        <ele>-1.79</ele>
        <time>2015-10-10T14:47:02Z</time>
      </trkpt>
      <trkpt lat="47.62005" lon="-3.36776">
        <ele>-1.79</ele>
        <time>2015-10-10T14:47:03Z</time>
      </trkpt>
      <trkpt lat="47.62008" lon="-3.36777">
        <ele>-1.79</ele>
        <time>2015-10-10T14:47:04Z</time>
      </trkpt>
      <trkpt lat="47.6201" lon="-3.36777">
        <ele>-1.79</ele>
        <time>2015-10-10T14:47:05Z</time>
      </trkpt>
      <trkpt lat="47.62013" lon="-3.36777">
        <ele>-2.75</ele>
        <time>2015-10-10T14:47:06Z</time>
      </trkpt>
      <trkpt lat="47.62015" lon="-3.36777">
        <ele>-2.75</ele>
        <time>2015-10-10T14:47:07Z</time>
      </trkpt>
      <trkpt lat="47.62018" lon="-3.36778">
        <ele>-2.75</ele>
        <time>2015-10-10T14:47:08Z</time>
      </trkpt>
      <trkpt lat="47.62021" lon="-3.36778">
        <ele>-2.75</ele>
        <time>2015-10-10T14:47:09Z</time>
      </trkpt>
      <trkpt lat="47.62024" lon="-3.36779">
        <ele>-1.79</ele>
        <time>2015-10-10T14:47:10Z</time>
      </trkpt>
      <trkpt lat="47.62027" lon="-3.36778">
        <ele>-1.79</ele>
        <time>2015-10-10T14:47:11Z</time>
      </trkpt>
      <trkpt lat="47.62029" lon="-3.36777">
        <ele>-1.79</ele>
        <time>2015-10-10T14:47:12Z</time>
      </trkpt>
      <trkpt lat="47.62032" lon="-3.36777">
        <ele>-1.79</ele>
        <time>2015-10-10T14:47:13Z</time>
      </trkpt>
      <trkpt lat="47.62035" lon="-3.36778">
        <ele>-1.79</ele>
        <time>2015-10-10T14:47:14Z</time>
      </trkpt>
      <trkpt lat="47.62038" lon="-3.36778">
        <ele>-1.79</ele>
        <time>2015-10-10T14:47:15Z</time>
      </trkpt>
      <trkpt lat="47.62041" lon="-3.36779">
        <ele>-1.79</ele>
        <time>2015-10-10T14:47:16Z</time>
      </trkpt>
      <trkpt lat="47.62044" lon="-3.36779">
        <ele>-1.79</ele>
        <time>2015-10-10T14:47:17Z</time>
      </trkpt>
      <trkpt lat="47.62047" lon="-3.3678">
        <ele>-1.79</ele>
        <time>2015-10-10T14:47:18Z</time>
      </trkpt>
      <trkpt lat="47.62049" lon="-3.3678">
        <ele>-1.79</ele>
        <time>2015-10-10T14:47:19Z</time>
      </trkpt>
      <trkpt lat="47.62052" lon="-3.36781">
        <ele>-1.79</ele>
        <time>2015-10-10T14:47:20Z</time>
      </trkpt>
      <trkpt lat="47.62055" lon="-3.36781">
        <ele>-1.79</ele>
        <time>2015-10-10T14:47:21Z</time>
      </trkpt>
      <trkpt lat="47.62058" lon="-3.36782">
        <ele>-1.79</ele>
        <time>2015-10-10T14:47:22Z</time>
      </trkpt>
      <trkpt lat="47.6206" lon="-3.36782">
        <ele>-1.79</ele>
        <time>2015-10-10T14:47:23Z</time>
      </trkpt>
      <trkpt lat="47.62063" lon="-3.36782">
        <ele>-1.79</ele>
        <time>2015-10-10T14:47:24Z</time>
      </trkpt>
      <trkpt lat="47.62065" lon="-3.36783">
        <ele>-1.79</ele>
        <time>2015-10-10T14:47:25Z</time>
      </trkpt>
      <trkpt lat="47.62068" lon="-3.36783">
        <ele>-1.79</ele>
        <time>2015-10-10T14:47:26Z</time>
      </trkpt>
      <trkpt lat="47.62071" lon="-3.36784">
        <ele>-1.79</ele>
        <time>2015-10-10T14:47:27Z</time>
      </trkpt>
      <trkpt lat="47.62074" lon="-3.36784">
        <ele>-1.79</ele>
        <time>2015-10-10T14:47:28Z</time>
      </trkpt>
      <trkpt lat="47.62078" lon="-3.36785">
        <ele>-1.79</ele>
        <time>2015-10-10T14:47:29Z</time>
      </trkpt>
      <trkpt lat="47.6208" lon="-3.36784">
        <ele>-1.79</ele>
        <time>2015-10-10T14:47:30Z</time>
      </trkpt>
      <trkpt lat="47.62083" lon="-3.36784">
        <ele>-1.79</ele>
        <time>2015-10-10T14:47:31Z</time>
      </trkpt>
      <trkpt lat="47.62085" lon="-3.36784">
        <ele>-1.79</ele>
        <time>2015-10-10T14:47:32Z</time>
      </trkpt>
      <trkpt lat="47.62088" lon="-3.36785">
        <ele>-1.79</ele>
        <time>2015-10-10T14:47:33Z</time>
      </trkpt>
      <trkpt lat="47.62091" lon="-3.36786">
        <ele>-1.79</ele>
        <time>2015-10-10T14:47:34Z</time>
      </trkpt>
      <trkpt lat="47.62094" lon="-3.36786">
        <ele>-1.79</ele>
        <time>2015-10-10T14:47:35Z</time>
      </trkpt>
      <trkpt lat="47.62097" lon="-3.36786">
        <ele>-1.79</ele>
        <time>2015-10-10T14:47:36Z</time>
      </trkpt>
      <trkpt lat="47.621" lon="-3.36786">
        <ele>-1.79</ele>
        <time>2015-10-10T14:47:37Z</time>
      </trkpt>
      <trkpt lat="47.62103" lon="-3.36786">
        <ele>-1.79</ele>
        <time>2015-10-10T14:47:38Z</time>
      </trkpt>
      <trkpt lat="47.62105" lon="-3.36786">
        <ele>-1.79</ele>
        <time>2015-10-10T14:47:39Z</time>
      </trkpt>
      <trkpt lat="47.62108" lon="-3.36786">
        <ele>-1.79</ele>
        <time>2015-10-10T14:47:40Z</time>
      </trkpt>
      <trkpt lat="47.62111" lon="-3.36787">
        <ele>-1.79</ele>
        <time>2015-10-10T14:47:41Z</time>
      </trkpt>
      <trkpt lat="47.62114" lon="-3.36788">
        <ele>-1.79</ele>
        <time>2015-10-10T14:47:42Z</time>
      </trkpt>
      <trkpt lat="47.62117" lon="-3.36789">
        <ele>-1.79</ele>
        <time>2015-10-10T14:47:43Z</time>
      </trkpt>
      <trkpt lat="47.6212" lon="-3.3679">
        <ele>-1.79</ele>
        <time>2015-10-10T14:47:44Z</time>
      </trkpt>
      <trkpt lat="47.62123" lon="-3.3679">
        <ele>-1.79</ele>
        <time>2015-10-10T14:47:45Z</time>
      </trkpt>
      <trkpt lat="47.62126" lon="-3.3679">
        <ele>-1.79</ele>
        <time>2015-10-10T14:47:46Z</time>
      </trkpt>
      <trkpt lat="47.62128" lon="-3.3679">
        <ele>-1.79</ele>
        <time>2015-10-10T14:47:47Z</time>
      </trkpt>
      <trkpt lat="47.62131" lon="-3.3679">
        <ele>-1.79</ele>
        <time>2015-10-10T14:47:48Z</time>
      </trkpt>
      <trkpt lat="47.62134" lon="-3.36791">
        <ele>-1.79</ele>
        <time>2015-10-10T14:47:49Z</time>
      </trkpt>
      <trkpt lat="47.62137" lon="-3.36791">
        <ele>-1.79</ele>
        <time>2015-10-10T14:47:50Z</time>
      </trkpt>
      <trkpt lat="47.6214" lon="-3.36791">
        <ele>-1.79</ele>
        <time>2015-10-10T14:47:51Z</time>
      </trkpt>
      <trkpt lat="47.62143" lon="-3.3679">
        <ele>-1.79</ele>
        <time>2015-10-10T14:47:52Z</time>
      </trkpt>
      <trkpt lat="47.62146" lon="-3.3679">
        <ele>-1.3</ele>
        <time>2015-10-10T14:47:53Z</time>
      </trkpt>
      <trkpt lat="47.62149" lon="-3.36789">
        <ele>-1.3</ele>
        <time>2015-10-10T14:47:54Z</time>
      </trkpt>
      <trkpt lat="47.62152" lon="-3.36789">
        <ele>-1.3</ele>
        <time>2015-10-10T14:47:55Z</time>
      </trkpt>
      <trkpt lat="47.62155" lon="-3.36789">
        <ele>-1.3</ele>
        <time>2015-10-10T14:47:56Z</time>
      </trkpt>
      <trkpt lat="47.62157" lon="-3.36788">
        <ele>-1.3</ele>
        <time>2015-10-10T14:47:57Z</time>
      </trkpt>
      <trkpt lat="47.6216" lon="-3.36788">
        <ele>-1.3</ele>
        <time>2015-10-10T14:47:58Z</time>
      </trkpt>
      <trkpt lat="47.62163" lon="-3.36789">
        <ele>-1.3</ele>
        <time>2015-10-10T14:47:59Z</time>
      </trkpt>
      <trkpt lat="47.62166" lon="-3.36789">
        <ele>-1.3</ele>
        <time>2015-10-10T14:48:00Z</time>
      </trkpt>
      <trkpt lat="47.62169" lon="-3.36789">
        <ele>-2.75</ele>
        <time>2015-10-10T14:48:01Z</time>
      </trkpt>
      <trkpt lat="47.62172" lon="-3.36789">
        <ele>-3.23</ele>
        <time>2015-10-10T14:48:02Z</time>
      </trkpt>
      <trkpt lat="47.62174" lon="-3.36789">
        <ele>-3.23</ele>
        <time>2015-10-10T14:48:03Z</time>
      </trkpt>
      <trkpt lat="47.62176" lon="-3.3679">
        <ele>-3.71</ele>
        <time>2015-10-10T14:48:04Z</time>
      </trkpt>
      <trkpt lat="47.62179" lon="-3.36791">
        <ele>-3.71</ele>
        <time>2015-10-10T14:48:05Z</time>
      </trkpt>
      <trkpt lat="47.62181" lon="-3.36791">
        <ele>-3.71</ele>
        <time>2015-10-10T14:48:06Z</time>
      </trkpt>
      <trkpt lat="47.62184" lon="-3.36792">
        <ele>-3.71</ele>
        <time>2015-10-10T14:48:07Z</time>
      </trkpt>
      <trkpt lat="47.62187" lon="-3.36792">
        <ele>-3.71</ele>
        <time>2015-10-10T14:48:08Z</time>
      </trkpt>
      <trkpt lat="47.6219" lon="-3.36793">
        <ele>-2.27</ele>
        <time>2015-10-10T14:48:09Z</time>
      </trkpt>
      <trkpt lat="47.62192" lon="-3.36792">
        <ele>-2.27</ele>
        <time>2015-10-10T14:48:10Z</time>
      </trkpt>
      <trkpt lat="47.62195" lon="-3.36792">
        <ele>-1.79</ele>
        <time>2015-10-10T14:48:11Z</time>
      </trkpt>
      <trkpt lat="47.62197" lon="-3.36792">
        <ele>-1.79</ele>
        <time>2015-10-10T14:48:12Z</time>
      </trkpt>
      <trkpt lat="47.622" lon="-3.36792">
        <ele>-1.79</ele>
        <time>2015-10-10T14:48:13Z</time>
      </trkpt>
      <trkpt lat="47.62204" lon="-3.36792">
        <ele>-1.79</ele>
        <time>2015-10-10T14:48:14Z</time>
      </trkpt>
      <trkpt lat="47.62207" lon="-3.36791">
        <ele>-1.79</ele>
        <time>2015-10-10T14:48:15Z</time>
      </trkpt>
      <trkpt lat="47.62209" lon="-3.36791">
        <ele>-1.79</ele>
        <time>2015-10-10T14:48:16Z</time>
      </trkpt>
      <trkpt lat="47.62212" lon="-3.3679">
        <ele>-1.79</ele>
        <time>2015-10-10T14:48:17Z</time>
      </trkpt>
      <trkpt lat="47.62215" lon="-3.36791">
        <ele>-3.23</ele>
        <time>2015-10-10T14:48:18Z</time>
      </trkpt>
      <trkpt lat="47.62217" lon="-3.36791">
        <ele>-3.23</ele>
        <time>2015-10-10T14:48:19Z</time>
      </trkpt>
      <trkpt lat="47.6222" lon="-3.36792">
        <ele>-3.23</ele>
        <time>2015-10-10T14:48:20Z</time>
      </trkpt>
      <trkpt lat="47.62222" lon="-3.36792">
        <ele>-2.75</ele>
        <time>2015-10-10T14:48:21Z</time>
      </trkpt>
      <trkpt lat="47.62225" lon="-3.36792">
        <ele>-2.75</ele>
        <time>2015-10-10T14:48:22Z</time>
      </trkpt>
      <trkpt lat="47.62228" lon="-3.36793">
        <ele>-2.75</ele>
        <time>2015-10-10T14:48:23Z</time>
      </trkpt>
      <trkpt lat="47.6223" lon="-3.36794">
        <ele>-2.75</ele>
        <time>2015-10-10T14:48:24Z</time>
      </trkpt>
      <trkpt lat="47.62233" lon="-3.36794">
        <ele>-2.75</ele>
        <time>2015-10-10T14:48:25Z</time>
      </trkpt>
      <trkpt lat="47.62236" lon="-3.36794">
        <ele>-2.75</ele>
        <time>2015-10-10T14:48:26Z</time>
      </trkpt>
      <trkpt lat="47.62238" lon="-3.36793">
        <ele>-3.23</ele>
        <time>2015-10-10T14:48:27Z</time>
      </trkpt>
      <trkpt lat="47.62241" lon="-3.36794">
        <ele>-3.23</ele>
        <time>2015-10-10T14:48:28Z</time>
      </trkpt>
      <trkpt lat="47.62244" lon="-3.36794">
        <ele>-3.23</ele>
        <time>2015-10-10T14:48:29Z</time>
      </trkpt>
      <trkpt lat="47.62247" lon="-3.36794">
        <ele>-1.79</ele>
        <time>2015-10-10T14:48:30Z</time>
      </trkpt>
      <trkpt lat="47.6225" lon="-3.36794">
        <ele>-1.79</ele>
        <time>2015-10-10T14:48:31Z</time>
      </trkpt>
      <trkpt lat="47.62253" lon="-3.36793">
        <ele>-1.79</ele>
        <time>2015-10-10T14:48:32Z</time>
      </trkpt>
      <trkpt lat="47.62255" lon="-3.36792">
        <ele>-1.79</ele>
        <time>2015-10-10T14:48:33Z</time>
      </trkpt>
      <trkpt lat="47.62258" lon="-3.36792">
        <ele>-1.3</ele>
        <time>2015-10-10T14:48:34Z</time>
      </trkpt>
      <trkpt lat="47.62261" lon="-3.36792">
        <ele>-0.82</ele>
        <time>2015-10-10T14:48:35Z</time>
      </trkpt>
      <trkpt lat="47.62264" lon="-3.36792">
        <ele>-1.3</ele>
        <time>2015-10-10T14:48:36Z</time>
      </trkpt>
      <trkpt lat="47.62267" lon="-3.36792">
        <ele>-2.75</ele>
        <time>2015-10-10T14:48:37Z</time>
      </trkpt>
      <trkpt lat="47.62269" lon="-3.36791">
        <ele>-2.75</ele>
        <time>2015-10-10T14:48:38Z</time>
      </trkpt>
      <trkpt lat="47.62272" lon="-3.36791">
        <ele>-2.75</ele>
        <time>2015-10-10T14:48:39Z</time>
      </trkpt>
      <trkpt lat="47.62274" lon="-3.36791">
        <ele>-2.75</ele>
        <time>2015-10-10T14:48:40Z</time>
      </trkpt>
      <trkpt lat="47.62277" lon="-3.36791">
        <ele>-2.75</ele>
        <time>2015-10-10T14:48:41Z</time>
      </trkpt>
      <trkpt lat="47.6228" lon="-3.36791">
        <ele>-2.75</ele>
        <time>2015-10-10T14:48:42Z</time>
      </trkpt>
      <trkpt lat="47.62283" lon="-3.36791">
        <ele>-2.75</ele>
        <time>2015-10-10T14:48:43Z</time>
      </trkpt>
      <trkpt lat="47.62285" lon="-3.36791">
        <ele>-2.75</ele>
        <time>2015-10-10T14:48:44Z</time>
      </trkpt>
      <trkpt lat="47.62289" lon="-3.36792">
        <ele>-2.75</ele>
        <time>2015-10-10T14:48:45Z</time>
      </trkpt>
      <trkpt lat="47.62292" lon="-3.36792">
        <ele>-2.75</ele>
        <time>2015-10-10T14:48:46Z</time>
      </trkpt>
      <trkpt lat="47.62294" lon="-3.36792">
        <ele>-2.75</ele>
        <time>2015-10-10T14:48:47Z</time>
      </trkpt>
      <trkpt lat="47.62297" lon="-3.36792">
        <ele>-2.75</ele>
        <time>2015-10-10T14:48:48Z</time>
      </trkpt>
      <trkpt lat="47.62299" lon="-3.36791">
        <ele>-2.75</ele>
        <time>2015-10-10T14:48:49Z</time>
      </trkpt>
      <trkpt lat="47.62302" lon="-3.36791">
        <ele>-2.75</ele>
        <time>2015-10-10T14:48:50Z</time>
      </trkpt>
      <trkpt lat="47.62305" lon="-3.36791">
        <ele>-2.75</ele>
        <time>2015-10-10T14:48:51Z</time>
      </trkpt>
      <trkpt lat="47.62308" lon="-3.36791">
        <ele>-2.75</ele>
        <time>2015-10-10T14:48:52Z</time>
      </trkpt>
      <trkpt lat="47.62311" lon="-3.36791">
        <ele>-2.75</ele>
        <time>2015-10-10T14:48:53Z</time>
      </trkpt>
      <trkpt lat="47.62313" lon="-3.3679">
        <ele>-2.75</ele>
        <time>2015-10-10T14:48:54Z</time>
      </trkpt>
      <trkpt lat="47.62316" lon="-3.3679">
        <ele>-2.75</ele>
        <time>2015-10-10T14:48:55Z</time>
      </trkpt>
      <trkpt lat="47.62319" lon="-3.36791">
        <ele>-2.27</ele>
        <time>2015-10-10T14:48:56Z</time>
      </trkpt>
      <trkpt lat="47.62322" lon="-3.36791">
        <ele>-2.75</ele>
        <time>2015-10-10T14:48:57Z</time>
      </trkpt>
      <trkpt lat="47.62325" lon="-3.3679">
        <ele>-2.75</ele>
        <time>2015-10-10T14:48:58Z</time>
      </trkpt>
      <trkpt lat="47.62327" lon="-3.36789">
        <ele>-2.27</ele>
        <time>2015-10-10T14:48:59Z</time>
      </trkpt>
      <trkpt lat="47.6233" lon="-3.36789">
        <ele>-2.27</ele>
        <time>2015-10-10T14:49:00Z</time>
      </trkpt>
      <trkpt lat="47.62333" lon="-3.36788">
        <ele>-2.27</ele>
        <time>2015-10-10T14:49:01Z</time>
      </trkpt>
      <trkpt lat="47.62335" lon="-3.36787">
        <ele>-2.27</ele>
        <time>2015-10-10T14:49:02Z</time>
      </trkpt>
      <trkpt lat="47.62338" lon="-3.36787">
        <ele>-2.75</ele>
        <time>2015-10-10T14:49:03Z</time>
      </trkpt>
      <trkpt lat="47.62341" lon="-3.36787">
        <ele>-2.75</ele>
        <time>2015-10-10T14:49:04Z</time>
      </trkpt>
      <trkpt lat="47.62344" lon="-3.36787">
        <ele>-2.75</ele>
        <time>2015-10-10T14:49:05Z</time>
      </trkpt>
      <trkpt lat="47.62347" lon="-3.36787">
        <ele>-2.75</ele>
        <time>2015-10-10T14:49:06Z</time>
      </trkpt>
      <trkpt lat="47.6235" lon="-3.36788">
        <ele>-2.75</ele>
        <time>2015-10-10T14:49:07Z</time>
      </trkpt>
      <trkpt lat="47.62352" lon="-3.36788">
        <ele>-2.75</ele>
        <time>2015-10-10T14:49:08Z</time>
      </trkpt>
      <trkpt lat="47.62355" lon="-3.36789">
        <ele>-2.75</ele>
        <time>2015-10-10T14:49:09Z</time>
      </trkpt>
      <trkpt lat="47.62358" lon="-3.3679">
        <ele>-2.75</ele>
        <time>2015-10-10T14:49:10Z</time>
      </trkpt>
      <trkpt lat="47.62361" lon="-3.36789">
        <ele>-2.75</ele>
        <time>2015-10-10T14:49:11Z</time>
      </trkpt>
      <trkpt lat="47.62363" lon="-3.36789">
        <ele>-2.75</ele>
        <time>2015-10-10T14:49:12Z</time>
      </trkpt>
      <trkpt lat="47.62366" lon="-3.3679">
        <ele>-2.75</ele>
        <time>2015-10-10T14:49:13Z</time>
      </trkpt>
      <trkpt lat="47.62369" lon="-3.3679">
        <ele>-2.75</ele>
        <time>2015-10-10T14:49:14Z</time>
      </trkpt>
      <trkpt lat="47.62372" lon="-3.36791">
        <ele>-2.75</ele>
        <time>2015-10-10T14:49:15Z</time>
      </trkpt>
      <trkpt lat="47.62375" lon="-3.36791">
        <ele>-2.27</ele>
        <time>2015-10-10T14:49:16Z</time>
      </trkpt>
      <trkpt lat="47.62377" lon="-3.36791">
        <ele>-2.27</ele>
        <time>2015-10-10T14:49:17Z</time>
      </trkpt>
      <trkpt lat="47.6238" lon="-3.36792">
        <ele>-2.75</ele>
        <time>2015-10-10T14:49:18Z</time>
      </trkpt>
      <trkpt lat="47.62383" lon="-3.36793">
        <ele>-2.75</ele>
        <time>2015-10-10T14:49:19Z</time>
      </trkpt>
      <trkpt lat="47.62385" lon="-3.36795">
        <ele>-2.75</ele>
        <time>2015-10-10T14:49:20Z</time>
      </trkpt>
      <trkpt lat="47.62388" lon="-3.36796">
        <ele>-2.27</ele>
        <time>2015-10-10T14:49:21Z</time>
      </trkpt>
      <trkpt lat="47.62391" lon="-3.36796">
        <ele>-2.27</ele>
        <time>2015-10-10T14:49:22Z</time>
      </trkpt>
      <trkpt lat="47.62393" lon="-3.36796">
        <ele>-2.27</ele>
        <time>2015-10-10T14:49:23Z</time>
      </trkpt>
      <trkpt lat="47.62396" lon="-3.36796">
        <ele>-2.27</ele>
        <time>2015-10-10T14:49:24Z</time>
      </trkpt>
      <trkpt lat="47.62399" lon="-3.36797">
        <ele>-2.27</ele>
        <time>2015-10-10T14:49:25Z</time>
      </trkpt>
      <trkpt lat="47.62402" lon="-3.36797">
        <ele>-2.27</ele>
        <time>2015-10-10T14:49:26Z</time>
      </trkpt>
      <trkpt lat="47.62404" lon="-3.36797">
        <ele>-2.75</ele>
        <time>2015-10-10T14:49:27Z</time>
      </trkpt>
      <trkpt lat="47.62407" lon="-3.36797">
        <ele>-2.75</ele>
        <time>2015-10-10T14:49:28Z</time>
      </trkpt>
      <trkpt lat="47.62409" lon="-3.36797">
        <ele>-2.75</ele>
        <time>2015-10-10T14:49:29Z</time>
      </trkpt>
      <trkpt lat="47.62412" lon="-3.36798">
        <ele>-2.75</ele>
        <time>2015-10-10T14:49:30Z</time>
      </trkpt>
      <trkpt lat="47.62414" lon="-3.36798">
        <ele>-2.27</ele>
        <time>2015-10-10T14:49:31Z</time>
      </trkpt>
      <trkpt lat="47.62417" lon="-3.36798">
        <ele>-2.27</ele>
        <time>2015-10-10T14:49:32Z</time>
      </trkpt>
      <trkpt lat="47.6242" lon="-3.36798">
        <ele>-2.75</ele>
        <time>2015-10-10T14:49:33Z</time>
      </trkpt>
      <trkpt lat="47.62422" lon="-3.36798">
        <ele>-2.75</ele>
        <time>2015-10-10T14:49:34Z</time>
      </trkpt>
      <trkpt lat="47.62425" lon="-3.36798">
        <ele>-2.75</ele>
        <time>2015-10-10T14:49:35Z</time>
      </trkpt>
      <trkpt lat="47.62428" lon="-3.36798">
        <ele>-2.75</ele>
        <time>2015-10-10T14:49:36Z</time>
      </trkpt>
      <trkpt lat="47.6243" lon="-3.36798">
        <ele>-2.75</ele>
        <time>2015-10-10T14:49:37Z</time>
      </trkpt>
      <trkpt lat="47.62433" lon="-3.36799">
        <ele>-2.75</ele>
        <time>2015-10-10T14:49:38Z</time>
      </trkpt>
      <trkpt lat="47.62435" lon="-3.36799">
        <ele>-2.75</ele>
        <time>2015-10-10T14:49:39Z</time>
      </trkpt>
      <trkpt lat="47.62438" lon="-3.36799">
        <ele>-2.75</ele>
        <time>2015-10-10T14:49:40Z</time>
      </trkpt>
      <trkpt lat="47.62441" lon="-3.36799">
        <ele>-2.75</ele>
        <time>2015-10-10T14:49:41Z</time>
      </trkpt>
      <trkpt lat="47.62443" lon="-3.36799">
        <ele>-2.75</ele>
        <time>2015-10-10T14:49:42Z</time>
      </trkpt>
      <trkpt lat="47.62446" lon="-3.36799">
        <ele>-2.75</ele>
        <time>2015-10-10T14:49:43Z</time>
      </trkpt>
      <trkpt lat="47.62448" lon="-3.368">
        <ele>-2.75</ele>
        <time>2015-10-10T14:49:44Z</time>
      </trkpt>
      <trkpt lat="47.62451" lon="-3.368">
        <ele>-2.75</ele>
        <time>2015-10-10T14:49:45Z</time>
      </trkpt>
      <trkpt lat="47.62454" lon="-3.368">
        <ele>-2.75</ele>
        <time>2015-10-10T14:49:46Z</time>
      </trkpt>
      <trkpt lat="47.62457" lon="-3.368">
        <ele>-1.79</ele>
        <time>2015-10-10T14:49:47Z</time>
      </trkpt>
      <trkpt lat="47.62459" lon="-3.368">
        <ele>-1.79</ele>
        <time>2015-10-10T14:49:48Z</time>
      </trkpt>
      <trkpt lat="47.62462" lon="-3.368">
        <ele>-1.79</ele>
        <time>2015-10-10T14:49:49Z</time>
      </trkpt>
      <trkpt lat="47.62465" lon="-3.368">
        <ele>-1.79</ele>
        <time>2015-10-10T14:49:50Z</time>
      </trkpt>
      <trkpt lat="47.62468" lon="-3.36801">
        <ele>-1.79</ele>
        <time>2015-10-10T14:49:51Z</time>
      </trkpt>
      <trkpt lat="47.62471" lon="-3.36801">
        <ele>-1.79</ele>
        <time>2015-10-10T14:49:52Z</time>
      </trkpt>
      <trkpt lat="47.62474" lon="-3.36801">
        <ele>-1.79</ele>
        <time>2015-10-10T14:49:53Z</time>
      </trkpt>
      <trkpt lat="47.62476" lon="-3.36801">
        <ele>-1.79</ele>
        <time>2015-10-10T14:49:54Z</time>
      </trkpt>
      <trkpt lat="47.62479" lon="-3.36801">
        <ele>-1.79</ele>
        <time>2015-10-10T14:49:55Z</time>
      </trkpt>
      <trkpt lat="47.62482" lon="-3.36801">
        <ele>-1.79</ele>
        <time>2015-10-10T14:49:56Z</time>
      </trkpt>
      <trkpt lat="47.62485" lon="-3.36801">
        <ele>-1.79</ele>
        <time>2015-10-10T14:49:57Z</time>
      </trkpt>
      <trkpt lat="47.62488" lon="-3.368">
        <ele>-1.79</ele>
        <time>2015-10-10T14:49:58Z</time>
      </trkpt>
      <trkpt lat="47.6249" lon="-3.368">
        <ele>-1.79</ele>
        <time>2015-10-10T14:49:59Z</time>
      </trkpt>
      <trkpt lat="47.62493" lon="-3.36799">
        <ele>-1.79</ele>
        <time>2015-10-10T14:50:00Z</time>
      </trkpt>
      <trkpt lat="47.62496" lon="-3.36798">
        <ele>-1.79</ele>
        <time>2015-10-10T14:50:01Z</time>
      </trkpt>
      <trkpt lat="47.62498" lon="-3.36797">
        <ele>-1.79</ele>
        <time>2015-10-10T14:50:02Z</time>
      </trkpt>
      <trkpt lat="47.62502" lon="-3.36797">
        <ele>-1.79</ele>
        <time>2015-10-10T14:50:03Z</time>
      </trkpt>
      <trkpt lat="47.62505" lon="-3.36797">
        <ele>-1.79</ele>
        <time>2015-10-10T14:50:04Z</time>
      </trkpt>
      <trkpt lat="47.62507" lon="-3.36796">
        <ele>-1.79</ele>
        <time>2015-10-10T14:50:05Z</time>
      </trkpt>
      <trkpt lat="47.6251" lon="-3.36796">
        <ele>-1.79</ele>
        <time>2015-10-10T14:50:06Z</time>
      </trkpt>
      <trkpt lat="47.62513" lon="-3.36796">
        <ele>-1.79</ele>
        <time>2015-10-10T14:50:07Z</time>
      </trkpt>
      <trkpt lat="47.62516" lon="-3.36796">
        <ele>-1.79</ele>
        <time>2015-10-10T14:50:08Z</time>
      </trkpt>
      <trkpt lat="47.62518" lon="-3.36796">
        <ele>-1.79</ele>
        <time>2015-10-10T14:50:09Z</time>
      </trkpt>
      <trkpt lat="47.62522" lon="-3.36796">
        <ele>-1.79</ele>
        <time>2015-10-10T14:50:10Z</time>
      </trkpt>
      <trkpt lat="47.62524" lon="-3.36796">
        <ele>-1.79</ele>
        <time>2015-10-10T14:50:11Z</time>
      </trkpt>
      <trkpt lat="47.62527" lon="-3.36797">
        <ele>-1.79</ele>
        <time>2015-10-10T14:50:12Z</time>
      </trkpt>
      <trkpt lat="47.62529" lon="-3.36796">
        <ele>-1.79</ele>
        <time>2015-10-10T14:50:13Z</time>
      </trkpt>
      <trkpt lat="47.62532" lon="-3.36795">
        <ele>-1.79</ele>
        <time>2015-10-10T14:50:14Z</time>
      </trkpt>
      <trkpt lat="47.62534" lon="-3.36794">
        <ele>-1.79</ele>
        <time>2015-10-10T14:50:15Z</time>
      </trkpt>
      <trkpt lat="47.62537" lon="-3.36794">
        <ele>-1.79</ele>
        <time>2015-10-10T14:50:16Z</time>
      </trkpt>
      <trkpt lat="47.6254" lon="-3.36793">
        <ele>-1.79</ele>
        <time>2015-10-10T14:50:17Z</time>
      </trkpt>
      <trkpt lat="47.62543" lon="-3.36792">
        <ele>-1.79</ele>
        <time>2015-10-10T14:50:18Z</time>
      </trkpt>
      <trkpt lat="47.62545" lon="-3.36791">
        <ele>-1.79</ele>
        <time>2015-10-10T14:50:19Z</time>
      </trkpt>
      <trkpt lat="47.62548" lon="-3.36789">
        <ele>-1.79</ele>
        <time>2015-10-10T14:50:20Z</time>
      </trkpt>
      <trkpt lat="47.6255" lon="-3.36788">
        <ele>-2.75</ele>
        <time>2015-10-10T14:50:21Z</time>
      </trkpt>
      <trkpt lat="47.62553" lon="-3.36787">
        <ele>-2.75</ele>
        <time>2015-10-10T14:50:22Z</time>
      </trkpt>
      <trkpt lat="47.62555" lon="-3.36786">
        <ele>-2.75</ele>
        <time>2015-10-10T14:50:23Z</time>
      </trkpt>
      <trkpt lat="47.62558" lon="-3.36785">
        <ele>-2.75</ele>
        <time>2015-10-10T14:50:24Z</time>
      </trkpt>
      <trkpt lat="47.62561" lon="-3.36786">
        <ele>-2.75</ele>
        <time>2015-10-10T14:50:25Z</time>
      </trkpt>
      <trkpt lat="47.62564" lon="-3.36787">
        <ele>-2.75</ele>
        <time>2015-10-10T14:50:26Z</time>
      </trkpt>
      <trkpt lat="47.62567" lon="-3.36787">
        <ele>-2.75</ele>
        <time>2015-10-10T14:50:27Z</time>
      </trkpt>
      <trkpt lat="47.6257" lon="-3.36787">
        <ele>-1.79</ele>
        <time>2015-10-10T14:50:28Z</time>
      </trkpt>
      <trkpt lat="47.62573" lon="-3.36787">
        <ele>-1.79</ele>
        <time>2015-10-10T14:50:29Z</time>
      </trkpt>
      <trkpt lat="47.62576" lon="-3.36787">
        <ele>-1.79</ele>
        <time>2015-10-10T14:50:30Z</time>
      </trkpt>
      <trkpt lat="47.62578" lon="-3.36786">
        <ele>-1.79</ele>
        <time>2015-10-10T14:50:31Z</time>
      </trkpt>
      <trkpt lat="47.62581" lon="-3.36785">
        <ele>-1.79</ele>
        <time>2015-10-10T14:50:32Z</time>
      </trkpt>
      <trkpt lat="47.62584" lon="-3.36785">
        <ele>-1.79</ele>
        <time>2015-10-10T14:50:33Z</time>
      </trkpt>
      <trkpt lat="47.62587" lon="-3.36784">
        <ele>-1.79</ele>
        <time>2015-10-10T14:50:34Z</time>
      </trkpt>
      <trkpt lat="47.6259" lon="-3.36784">
        <ele>-1.79</ele>
        <time>2015-10-10T14:50:35Z</time>
      </trkpt>
      <trkpt lat="47.62592" lon="-3.36784">
        <ele>-1.79</ele>
        <time>2015-10-10T14:50:36Z</time>
      </trkpt>
      <trkpt lat="47.62595" lon="-3.36785">
        <ele>-2.75</ele>
        <time>2015-10-10T14:50:37Z</time>
      </trkpt>
      <trkpt lat="47.62598" lon="-3.36785">
        <ele>-2.75</ele>
        <time>2015-10-10T14:50:38Z</time>
      </trkpt>
      <trkpt lat="47.62601" lon="-3.36785">
        <ele>-2.75</ele>
        <time>2015-10-10T14:50:39Z</time>
      </trkpt>
      <trkpt lat="47.62604" lon="-3.36785">
        <ele>-2.75</ele>
        <time>2015-10-10T14:50:40Z</time>
      </trkpt>
      <trkpt lat="47.62607" lon="-3.36785">
        <ele>-2.75</ele>
        <time>2015-10-10T14:50:41Z</time>
      </trkpt>
      <trkpt lat="47.6261" lon="-3.36785">
        <ele>-2.75</ele>
        <time>2015-10-10T14:50:42Z</time>
      </trkpt>
      <trkpt lat="47.62613" lon="-3.36784">
        <ele>-2.75</ele>
        <time>2015-10-10T14:50:43Z</time>
      </trkpt>
      <trkpt lat="47.62615" lon="-3.36783">
        <ele>-2.75</ele>
        <time>2015-10-10T14:50:44Z</time>
      </trkpt>
      <trkpt lat="47.62618" lon="-3.36783">
        <ele>-2.75</ele>
        <time>2015-10-10T14:50:45Z</time>
      </trkpt>
      <trkpt lat="47.62621" lon="-3.36782">
        <ele>-1.79</ele>
        <time>2015-10-10T14:50:46Z</time>
      </trkpt>
      <trkpt lat="47.62623" lon="-3.36781">
        <ele>-1.79</ele>
        <time>2015-10-10T14:50:47Z</time>
      </trkpt>
      <trkpt lat="47.62626" lon="-3.36781">
        <ele>-1.79</ele>
        <time>2015-10-10T14:50:48Z</time>
      </trkpt>
      <trkpt lat="47.62629" lon="-3.3678">
        <ele>-1.79</ele>
        <time>2015-10-10T14:50:49Z</time>
      </trkpt>
      <trkpt lat="47.62632" lon="-3.36781">
        <ele>-1.79</ele>
        <time>2015-10-10T14:50:50Z</time>
      </trkpt>
      <trkpt lat="47.62635" lon="-3.36781">
        <ele>-1.79</ele>
        <time>2015-10-10T14:50:51Z</time>
      </trkpt>
      <trkpt lat="47.62638" lon="-3.36781">
        <ele>-1.79</ele>
        <time>2015-10-10T14:50:52Z</time>
      </trkpt>
      <trkpt lat="47.6264" lon="-3.36781">
        <ele>-3.23</ele>
        <time>2015-10-10T14:50:53Z</time>
      </trkpt>
      <trkpt lat="47.62643" lon="-3.36781">
        <ele>-2.75</ele>
        <time>2015-10-10T14:50:54Z</time>
      </trkpt>
      <trkpt lat="47.62645" lon="-3.36781">
        <ele>-2.75</ele>
        <time>2015-10-10T14:50:55Z</time>
      </trkpt>
      <trkpt lat="47.62648" lon="-3.36781">
        <ele>-2.75</ele>
        <time>2015-10-10T14:50:56Z</time>
      </trkpt>
      <trkpt lat="47.62651" lon="-3.36781">
        <ele>-2.75</ele>
        <time>2015-10-10T14:50:57Z</time>
      </trkpt>
      <trkpt lat="47.62654" lon="-3.36781">
        <ele>-2.75</ele>
        <time>2015-10-10T14:50:58Z</time>
      </trkpt>
      <trkpt lat="47.62657" lon="-3.3678">
        <ele>-2.75</ele>
        <time>2015-10-10T14:50:59Z</time>
      </trkpt>
      <trkpt lat="47.6266" lon="-3.3678">
        <ele>-3.23</ele>
        <time>2015-10-10T14:51:00Z</time>
      </trkpt>
      <trkpt lat="47.62662" lon="-3.3678">
        <ele>-3.23</ele>
        <time>2015-10-10T14:51:01Z</time>
      </trkpt>
      <trkpt lat="47.62665" lon="-3.3678">
        <ele>-3.23</ele>
        <time>2015-10-10T14:51:02Z</time>
      </trkpt>
      <trkpt lat="47.62667" lon="-3.3678">
        <ele>-3.23</ele>
        <time>2015-10-10T14:51:03Z</time>
      </trkpt>
      <trkpt lat="47.6267" lon="-3.36781">
        <ele>-3.23</ele>
        <time>2015-10-10T14:51:04Z</time>
      </trkpt>
      <trkpt lat="47.62673" lon="-3.36782">
        <ele>-3.23</ele>
        <time>2015-10-10T14:51:05Z</time>
      </trkpt>
      <trkpt lat="47.62676" lon="-3.36782">
        <ele>-3.23</ele>
        <time>2015-10-10T14:51:06Z</time>
      </trkpt>
      <trkpt lat="47.62679" lon="-3.36782">
        <ele>-2.75</ele>
        <time>2015-10-10T14:51:07Z</time>
      </trkpt>
      <trkpt lat="47.62682" lon="-3.36781">
        <ele>-1.3</ele>
        <time>2015-10-10T14:51:08Z</time>
      </trkpt>
      <trkpt lat="47.62684" lon="-3.3678">
        <ele>-1.3</ele>
        <time>2015-10-10T14:51:09Z</time>
      </trkpt>
      <trkpt lat="47.62687" lon="-3.3678">
        <ele>-1.3</ele>
        <time>2015-10-10T14:51:10Z</time>
      </trkpt>
      <trkpt lat="47.6269" lon="-3.36779">
        <ele>-1.3</ele>
        <time>2015-10-10T14:51:11Z</time>
      </trkpt>
      <trkpt lat="47.62693" lon="-3.36779">
        <ele>-1.3</ele>
        <time>2015-10-10T14:51:12Z</time>
      </trkpt>
      <trkpt lat="47.62695" lon="-3.36778">
        <ele>-1.3</ele>
        <time>2015-10-10T14:51:13Z</time>
      </trkpt>
      <trkpt lat="47.62698" lon="-3.36778">
        <ele>-1.3</ele>
        <time>2015-10-10T14:51:14Z</time>
      </trkpt>
      <trkpt lat="47.62701" lon="-3.36778">
        <ele>-1.3</ele>
        <time>2015-10-10T14:51:15Z</time>
      </trkpt>
      <trkpt lat="47.62704" lon="-3.36777">
        <ele>-1.3</ele>
        <time>2015-10-10T14:51:16Z</time>
      </trkpt>
      <trkpt lat="47.62706" lon="-3.36777">
        <ele>-1.3</ele>
        <time>2015-10-10T14:51:17Z</time>
      </trkpt>
      <trkpt lat="47.62709" lon="-3.36776">
        <ele>-1.3</ele>
        <time>2015-10-10T14:51:18Z</time>
      </trkpt>
      <trkpt lat="47.62712" lon="-3.36776">
        <ele>-1.3</ele>
        <time>2015-10-10T14:51:19Z</time>
      </trkpt>
      <trkpt lat="47.62714" lon="-3.36775">
        <ele>-1.3</ele>
        <time>2015-10-10T14:51:20Z</time>
      </trkpt>
      <trkpt lat="47.62717" lon="-3.36774">
        <ele>-1.3</ele>
        <time>2015-10-10T14:51:21Z</time>
      </trkpt>
      <trkpt lat="47.6272" lon="-3.36774">
        <ele>-1.3</ele>
        <time>2015-10-10T14:51:22Z</time>
      </trkpt>
      <trkpt lat="47.62722" lon="-3.36774">
        <ele>-2.75</ele>
        <time>2015-10-10T14:51:23Z</time>
      </trkpt>
      <trkpt lat="47.62725" lon="-3.36775">
        <ele>-2.75</ele>
        <time>2015-10-10T14:51:24Z</time>
      </trkpt>
      <trkpt lat="47.62728" lon="-3.36775">
        <ele>-2.75</ele>
        <time>2015-10-10T14:51:25Z</time>
      </trkpt>
      <trkpt lat="47.62731" lon="-3.36774">
        <ele>-2.75</ele>
        <time>2015-10-10T14:51:26Z</time>
      </trkpt>
      <trkpt lat="47.62734" lon="-3.36773">
        <ele>-2.75</ele>
        <time>2015-10-10T14:51:27Z</time>
      </trkpt>
      <trkpt lat="47.62737" lon="-3.36772">
        <ele>-2.75</ele>
        <time>2015-10-10T14:51:28Z</time>
      </trkpt>
      <trkpt lat="47.62739" lon="-3.36771">
        <ele>-1.3</ele>
        <time>2015-10-10T14:51:29Z</time>
      </trkpt>
      <trkpt lat="47.62743" lon="-3.36769">
        <ele>-1.3</ele>
        <time>2015-10-10T14:51:30Z</time>
      </trkpt>
      <trkpt lat="47.62746" lon="-3.36768">
        <ele>-1.3</ele>
        <time>2015-10-10T14:51:31Z</time>
      </trkpt>
      <trkpt lat="47.62749" lon="-3.36767">
        <ele>-1.3</ele>
        <time>2015-10-10T14:51:32Z</time>
      </trkpt>
      <trkpt lat="47.62751" lon="-3.36765">
        <ele>-1.3</ele>
        <time>2015-10-10T14:51:33Z</time>
      </trkpt>
      <trkpt lat="47.62754" lon="-3.36764">
        <ele>-1.3</ele>
        <time>2015-10-10T14:51:34Z</time>
      </trkpt>
      <trkpt lat="47.62756" lon="-3.36763">
        <ele>-1.3</ele>
        <time>2015-10-10T14:51:35Z</time>
      </trkpt>
      <trkpt lat="47.62759" lon="-3.36763">
        <ele>-2.75</ele>
        <time>2015-10-10T14:51:36Z</time>
      </trkpt>
      <trkpt lat="47.62762" lon="-3.36763">
        <ele>-2.75</ele>
        <time>2015-10-10T14:51:37Z</time>
      </trkpt>
      <trkpt lat="47.62765" lon="-3.36764">
        <ele>-2.75</ele>
        <time>2015-10-10T14:51:38Z</time>
      </trkpt>
      <trkpt lat="47.62767" lon="-3.36764">
        <ele>-2.75</ele>
        <time>2015-10-10T14:51:39Z</time>
      </trkpt>
      <trkpt lat="47.6277" lon="-3.36763">
        <ele>-3.23</ele>
        <time>2015-10-10T14:51:40Z</time>
      </trkpt>
      <trkpt lat="47.62772" lon="-3.36764">
        <ele>-3.23</ele>
        <time>2015-10-10T14:51:41Z</time>
      </trkpt>
      <trkpt lat="47.62775" lon="-3.36764">
        <ele>-3.23</ele>
        <time>2015-10-10T14:51:42Z</time>
      </trkpt>
      <trkpt lat="47.62778" lon="-3.36764">
        <ele>-3.23</ele>
        <time>2015-10-10T14:51:43Z</time>
      </trkpt>
      <trkpt lat="47.62781" lon="-3.36764">
        <ele>-3.23</ele>
        <time>2015-10-10T14:51:44Z</time>
      </trkpt>
      <trkpt lat="47.62783" lon="-3.36764">
        <ele>-1.79</ele>
        <time>2015-10-10T14:51:45Z</time>
      </trkpt>
      <trkpt lat="47.62786" lon="-3.36763">
        <ele>-1.79</ele>
        <time>2015-10-10T14:51:46Z</time>
      </trkpt>
      <trkpt lat="47.62789" lon="-3.36763">
        <ele>-1.79</ele>
        <time>2015-10-10T14:51:47Z</time>
      </trkpt>
      <trkpt lat="47.62792" lon="-3.36762">
        <ele>-1.3</ele>
        <time>2015-10-10T14:51:48Z</time>
      </trkpt>
      <trkpt lat="47.62795" lon="-3.36761">
        <ele>-1.3</ele>
        <time>2015-10-10T14:51:49Z</time>
      </trkpt>
      <trkpt lat="47.62797" lon="-3.3676">
        <ele>-1.3</ele>
        <time>2015-10-10T14:51:50Z</time>
      </trkpt>
      <trkpt lat="47.628" lon="-3.36759">
        <ele>-1.3</ele>
        <time>2015-10-10T14:51:51Z</time>
      </trkpt>
      <trkpt lat="47.62803" lon="-3.36758">
        <ele>-1.3</ele>
        <time>2015-10-10T14:51:52Z</time>
      </trkpt>
      <trkpt lat="47.62805" lon="-3.36758">
        <ele>-1.3</ele>
        <time>2015-10-10T14:51:53Z</time>
      </trkpt>
      <trkpt lat="47.62808" lon="-3.36757">
        <ele>-1.3</ele>
        <time>2015-10-10T14:51:54Z</time>
      </trkpt>
      <trkpt lat="47.62811" lon="-3.36756">
        <ele>-1.3</ele>
        <time>2015-10-10T14:51:55Z</time>
      </trkpt>
      <trkpt lat="47.62813" lon="-3.36755">
        <ele>-2.75</ele>
        <time>2015-10-10T14:51:56Z</time>
      </trkpt>
      <trkpt lat="47.62816" lon="-3.36754">
        <ele>-2.75</ele>
        <time>2015-10-10T14:51:57Z</time>
      </trkpt>
      <trkpt lat="47.62818" lon="-3.36753">
        <ele>-3.23</ele>
        <time>2015-10-10T14:51:58Z</time>
      </trkpt>
      <trkpt lat="47.62821" lon="-3.36753">
        <ele>-3.23</ele>
        <time>2015-10-10T14:51:59Z</time>
      </trkpt>
      <trkpt lat="47.62824" lon="-3.36753">
        <ele>-3.23</ele>
        <time>2015-10-10T14:52:00Z</time>
      </trkpt>
      <trkpt lat="47.62827" lon="-3.36752">
        <ele>-3.23</ele>
        <time>2015-10-10T14:52:01Z</time>
      </trkpt>
      <trkpt lat="47.6283" lon="-3.36752">
        <ele>-3.23</ele>
        <time>2015-10-10T14:52:02Z</time>
      </trkpt>
      <trkpt lat="47.62832" lon="-3.36752">
        <ele>-3.23</ele>
        <time>2015-10-10T14:52:03Z</time>
      </trkpt>
      <trkpt lat="47.62835" lon="-3.36752">
        <ele>-3.23</ele>
        <time>2015-10-10T14:52:04Z</time>
      </trkpt>
      <trkpt lat="47.62838" lon="-3.36752">
        <ele>-3.23</ele>
        <time>2015-10-10T14:52:05Z</time>
      </trkpt>
      <trkpt lat="47.6284" lon="-3.36752">
        <ele>-1.79</ele>
        <time>2015-10-10T14:52:06Z</time>
      </trkpt>
      <trkpt lat="47.62843" lon="-3.36751">
        <ele>-1.79</ele>
        <time>2015-10-10T14:52:07Z</time>
      </trkpt>
      <trkpt lat="47.62846" lon="-3.36751">
        <ele>-1.79</ele>
        <time>2015-10-10T14:52:08Z</time>
      </trkpt>
      <trkpt lat="47.62849" lon="-3.36751">
        <ele>-0.82</ele>
        <time>2015-10-10T14:52:09Z</time>
      </trkpt>
      <trkpt lat="47.62852" lon="-3.3675">
        <ele>-0.82</ele>
        <time>2015-10-10T14:52:10Z</time>
      </trkpt>
      <trkpt lat="47.62855" lon="-3.36749">
        <ele>-1.3</ele>
        <time>2015-10-10T14:52:11Z</time>
      </trkpt>
      <trkpt lat="47.62857" lon="-3.36748">
        <ele>-0.82</ele>
        <time>2015-10-10T14:52:12Z</time>
      </trkpt>
      <trkpt lat="47.6286" lon="-3.36747">
        <ele>-0.82</ele>
        <time>2015-10-10T14:52:13Z</time>
      </trkpt>
      <trkpt lat="47.62863" lon="-3.36746">
        <ele>-0.82</ele>
        <time>2015-10-10T14:52:14Z</time>
      </trkpt>
      <trkpt lat="47.62865" lon="-3.36746">
        <ele>-2.27</ele>
        <time>2015-10-10T14:52:15Z</time>
      </trkpt>
      <trkpt lat="47.62868" lon="-3.36747">
        <ele>-2.27</ele>
        <time>2015-10-10T14:52:16Z</time>
      </trkpt>
      <trkpt lat="47.62871" lon="-3.36747">
        <ele>-2.27</ele>
        <time>2015-10-10T14:52:17Z</time>
      </trkpt>
      <trkpt lat="47.62874" lon="-3.36747">
        <ele>-2.27</ele>
        <time>2015-10-10T14:52:18Z</time>
      </trkpt>
      <trkpt lat="47.62876" lon="-3.36747">
        <ele>-3.23</ele>
        <time>2015-10-10T14:52:19Z</time>
      </trkpt>
      <trkpt lat="47.62879" lon="-3.36747">
        <ele>-3.23</ele>
        <time>2015-10-10T14:52:20Z</time>
      </trkpt>
      <trkpt lat="47.62882" lon="-3.36747">
        <ele>-3.23</ele>
        <time>2015-10-10T14:52:21Z</time>
      </trkpt>
      <trkpt lat="47.62884" lon="-3.36747">
        <ele>-3.23</ele>
        <time>2015-10-10T14:52:22Z</time>
      </trkpt>
      <trkpt lat="47.62887" lon="-3.36746">
        <ele>-3.23</ele>
        <time>2015-10-10T14:52:23Z</time>
      </trkpt>
      <trkpt lat="47.6289" lon="-3.36746">
        <ele>-1.79</ele>
        <time>2015-10-10T14:52:24Z</time>
      </trkpt>
      <trkpt lat="47.62893" lon="-3.36745">
        <ele>-1.79</ele>
        <time>2015-10-10T14:52:25Z</time>
      </trkpt>
      <trkpt lat="47.62896" lon="-3.36745">
        <ele>-1.79</ele>
        <time>2015-10-10T14:52:26Z</time>
      </trkpt>
      <trkpt lat="47.62899" lon="-3.36745">
        <ele>-1.79</ele>
        <time>2015-10-10T14:52:27Z</time>
      </trkpt>
      <trkpt lat="47.62902" lon="-3.36746">
        <ele>-1.3</ele>
        <time>2015-10-10T14:52:28Z</time>
      </trkpt>
      <trkpt lat="47.62905" lon="-3.36746">
        <ele>-1.3</ele>
        <time>2015-10-10T14:52:29Z</time>
      </trkpt>
      <trkpt lat="47.62908" lon="-3.36746">
        <ele>-1.3</ele>
        <time>2015-10-10T14:52:30Z</time>
      </trkpt>
      <trkpt lat="47.62911" lon="-3.36746">
        <ele>-1.3</ele>
        <time>2015-10-10T14:52:31Z</time>
      </trkpt>
      <trkpt lat="47.62913" lon="-3.36745">
        <ele>-1.3</ele>
        <time>2015-10-10T14:52:32Z</time>
      </trkpt>
      <trkpt lat="47.62916" lon="-3.36746">
        <ele>-1.3</ele>
        <time>2015-10-10T14:52:33Z</time>
      </trkpt>
      <trkpt lat="47.62919" lon="-3.36746">
        <ele>-1.3</ele>
        <time>2015-10-10T14:52:34Z</time>
      </trkpt>
      <trkpt lat="47.62922" lon="-3.36746">
        <ele>-1.3</ele>
        <time>2015-10-10T14:52:35Z</time>
      </trkpt>
      <trkpt lat="47.62924" lon="-3.36746">
        <ele>-2.75</ele>
        <time>2015-10-10T14:52:36Z</time>
      </trkpt>
      <trkpt lat="47.62927" lon="-3.36746">
        <ele>-2.75</ele>
        <time>2015-10-10T14:52:37Z</time>
      </trkpt>
      <trkpt lat="47.6293" lon="-3.36746">
        <ele>-2.75</ele>
        <time>2015-10-10T14:52:38Z</time>
      </trkpt>
      <trkpt lat="47.62932" lon="-3.36746">
        <ele>-2.75</ele>
        <time>2015-10-10T14:52:39Z</time>
      </trkpt>
      <trkpt lat="47.62935" lon="-3.36745">
        <ele>-2.75</ele>
        <time>2015-10-10T14:52:40Z</time>
      </trkpt>
      <trkpt lat="47.62937" lon="-3.36745">
        <ele>-2.75</ele>
        <time>2015-10-10T14:52:41Z</time>
      </trkpt>
      <trkpt lat="47.6294" lon="-3.36746">
        <ele>-2.75</ele>
        <time>2015-10-10T14:52:42Z</time>
      </trkpt>
      <trkpt lat="47.62943" lon="-3.36747">
        <ele>-2.75</ele>
        <time>2015-10-10T14:52:43Z</time>
      </trkpt>
      <trkpt lat="47.62945" lon="-3.36749">
        <ele>-2.75</ele>
        <time>2015-10-10T14:52:44Z</time>
      </trkpt>
      <trkpt lat="47.62948" lon="-3.36749">
        <ele>-2.75</ele>
        <time>2015-10-10T14:52:45Z</time>
      </trkpt>
      <trkpt lat="47.62951" lon="-3.36749">
        <ele>-2.75</ele>
        <time>2015-10-10T14:52:46Z</time>
      </trkpt>
      <trkpt lat="47.62954" lon="-3.36749">
        <ele>-2.75</ele>
        <time>2015-10-10T14:52:47Z</time>
      </trkpt>
      <trkpt lat="47.62957" lon="-3.36749">
        <ele>-2.75</ele>
        <time>2015-10-10T14:52:48Z</time>
      </trkpt>
      <trkpt lat="47.6296" lon="-3.3675">
        <ele>-2.75</ele>
        <time>2015-10-10T14:52:49Z</time>
      </trkpt>
      <trkpt lat="47.62962" lon="-3.3675">
        <ele>-2.75</ele>
        <time>2015-10-10T14:52:50Z</time>
      </trkpt>
      <trkpt lat="47.62965" lon="-3.36749">
        <ele>-2.75</ele>
        <time>2015-10-10T14:52:51Z</time>
      </trkpt>
      <trkpt lat="47.62969" lon="-3.36749">
        <ele>-2.75</ele>
        <time>2015-10-10T14:52:52Z</time>
      </trkpt>
      <trkpt lat="47.62971" lon="-3.36749">
        <ele>-1.79</ele>
        <time>2015-10-10T14:52:53Z</time>
      </trkpt>
      <trkpt lat="47.62974" lon="-3.36748">
        <ele>-1.79</ele>
        <time>2015-10-10T14:52:54Z</time>
      </trkpt>
      <trkpt lat="47.62977" lon="-3.36748">
        <ele>-1.79</ele>
        <time>2015-10-10T14:52:55Z</time>
      </trkpt>
      <trkpt lat="47.62979" lon="-3.36748">
        <ele>-1.79</ele>
        <time>2015-10-10T14:52:56Z</time>
      </trkpt>
      <trkpt lat="47.62982" lon="-3.36748">
        <ele>-1.79</ele>
        <time>2015-10-10T14:52:57Z</time>
      </trkpt>
      <trkpt lat="47.62985" lon="-3.36749">
        <ele>-1.79</ele>
        <time>2015-10-10T14:52:58Z</time>
      </trkpt>
      <trkpt lat="47.62988" lon="-3.36749">
        <ele>-1.79</ele>
        <time>2015-10-10T14:52:59Z</time>
      </trkpt>
      <trkpt lat="47.6299" lon="-3.36749">
        <ele>-2.75</ele>
        <time>2015-10-10T14:53:00Z</time>
      </trkpt>
      <trkpt lat="47.62993" lon="-3.36749">
        <ele>-2.75</ele>
        <time>2015-10-10T14:53:01Z</time>
      </trkpt>
      <trkpt lat="47.62995" lon="-3.3675">
        <ele>-2.75</ele>
        <time>2015-10-10T14:53:02Z</time>
      </trkpt>
      <trkpt lat="47.62998" lon="-3.3675">
        <ele>-2.75</ele>
        <time>2015-10-10T14:53:03Z</time>
      </trkpt>
      <trkpt lat="47.63001" lon="-3.3675">
        <ele>-2.75</ele>
        <time>2015-10-10T14:53:04Z</time>
      </trkpt>
      <trkpt lat="47.63003" lon="-3.36751">
        <ele>-2.75</ele>
        <time>2015-10-10T14:53:05Z</time>
      </trkpt>
      <trkpt lat="47.63006" lon="-3.3675">
        <ele>-2.75</ele>
        <time>2015-10-10T14:53:06Z</time>
      </trkpt>
      <trkpt lat="47.63009" lon="-3.3675">
        <ele>-2.75</ele>
        <time>2015-10-10T14:53:07Z</time>
      </trkpt>
      <trkpt lat="47.63011" lon="-3.3675">
        <ele>-2.75</ele>
        <time>2015-10-10T14:53:08Z</time>
      </trkpt>
      <trkpt lat="47.63014" lon="-3.36751">
        <ele>-2.75</ele>
        <time>2015-10-10T14:53:09Z</time>
      </trkpt>
      <trkpt lat="47.63017" lon="-3.36751">
        <ele>-2.75</ele>
        <time>2015-10-10T14:53:10Z</time>
      </trkpt>
      <trkpt lat="47.63019" lon="-3.36751">
        <ele>-2.75</ele>
        <time>2015-10-10T14:53:11Z</time>
      </trkpt>
      <trkpt lat="47.63022" lon="-3.36751">
        <ele>-2.75</ele>
        <time>2015-10-10T14:53:12Z</time>
      </trkpt>
      <trkpt lat="47.63025" lon="-3.36752">
        <ele>-2.75</ele>
        <time>2015-10-10T14:53:13Z</time>
      </trkpt>
      <trkpt lat="47.63029" lon="-3.36752">
        <ele>-2.75</ele>
        <time>2015-10-10T14:53:14Z</time>
      </trkpt>
      <trkpt lat="47.63032" lon="-3.36752">
        <ele>-1.79</ele>
        <time>2015-10-10T14:53:15Z</time>
      </trkpt>
      <trkpt lat="47.63035" lon="-3.36753">
        <ele>-1.79</ele>
        <time>2015-10-10T14:53:16Z</time>
      </trkpt>
      <trkpt lat="47.63038" lon="-3.36754">
        <ele>-1.79</ele>
        <time>2015-10-10T14:53:17Z</time>
      </trkpt>
      <trkpt lat="47.6304" lon="-3.36754">
        <ele>-1.79</ele>
        <time>2015-10-10T14:53:18Z</time>
      </trkpt>
      <trkpt lat="47.63043" lon="-3.36754">
        <ele>-1.79</ele>
        <time>2015-10-10T14:53:19Z</time>
      </trkpt>
      <trkpt lat="47.63045" lon="-3.36755">
        <ele>-1.79</ele>
        <time>2015-10-10T14:53:20Z</time>
      </trkpt>
      <trkpt lat="47.63048" lon="-3.36756">
        <ele>-1.79</ele>
        <time>2015-10-10T14:53:21Z</time>
      </trkpt>
      <trkpt lat="47.63051" lon="-3.36757">
        <ele>-1.79</ele>
        <time>2015-10-10T14:53:22Z</time>
      </trkpt>
      <trkpt lat="47.63053" lon="-3.36758">
        <ele>-3.23</ele>
        <time>2015-10-10T14:53:23Z</time>
      </trkpt>
      <trkpt lat="47.63055" lon="-3.36759">
        <ele>-3.23</ele>
        <time>2015-10-10T14:53:24Z</time>
      </trkpt>
      <trkpt lat="47.63057" lon="-3.3676">
        <ele>-3.23</ele>
        <time>2015-10-10T14:53:25Z</time>
      </trkpt>
      <trkpt lat="47.63059" lon="-3.36761">
        <ele>-3.23</ele>
        <time>2015-10-10T14:53:26Z</time>
      </trkpt>
      <trkpt lat="47.63062" lon="-3.36763">
        <ele>-3.23</ele>
        <time>2015-10-10T14:53:27Z</time>
      </trkpt>
      <trkpt lat="47.63065" lon="-3.36764">
        <ele>-1.79</ele>
        <time>2015-10-10T14:53:28Z</time>
      </trkpt>
      <trkpt lat="47.63068" lon="-3.36765">
        <ele>-1.3</ele>
        <time>2015-10-10T14:53:29Z</time>
      </trkpt>
      <trkpt lat="47.6307" lon="-3.36764">
        <ele>-1.3</ele>
        <time>2015-10-10T14:53:30Z</time>
      </trkpt>
      <trkpt lat="47.63073" lon="-3.36764">
        <ele>-1.3</ele>
        <time>2015-10-10T14:53:31Z</time>
      </trkpt>
      <trkpt lat="47.63076" lon="-3.36764">
        <ele>-1.3</ele>
        <time>2015-10-10T14:53:32Z</time>
      </trkpt>
      <trkpt lat="47.63078" lon="-3.36764">
        <ele>-1.3</ele>
        <time>2015-10-10T14:53:33Z</time>
      </trkpt>
      <trkpt lat="47.63081" lon="-3.36764">
        <ele>-1.3</ele>
        <time>2015-10-10T14:53:34Z</time>
      </trkpt>
      <trkpt lat="47.63084" lon="-3.36764">
        <ele>-1.3</ele>
        <time>2015-10-10T14:53:35Z</time>
      </trkpt>
      <trkpt lat="47.63087" lon="-3.36764">
        <ele>-1.3</ele>
        <time>2015-10-10T14:53:36Z</time>
      </trkpt>
      <trkpt lat="47.6309" lon="-3.36763">
        <ele>-1.3</ele>
        <time>2015-10-10T14:53:37Z</time>
      </trkpt>
      <trkpt lat="47.63092" lon="-3.36763">
        <ele>-1.3</ele>
        <time>2015-10-10T14:53:38Z</time>
      </trkpt>
      <trkpt lat="47.63095" lon="-3.36763">
        <ele>-2.75</ele>
        <time>2015-10-10T14:53:39Z</time>
      </trkpt>
      <trkpt lat="47.63097" lon="-3.36764">
        <ele>-2.75</ele>
        <time>2015-10-10T14:53:40Z</time>
      </trkpt>
      <trkpt lat="47.631" lon="-3.36764">
        <ele>-3.23</ele>
        <time>2015-10-10T14:53:41Z</time>
      </trkpt>
      <trkpt lat="47.63102" lon="-3.36765">
        <ele>-3.23</ele>
        <time>2015-10-10T14:53:42Z</time>
      </trkpt>
      <trkpt lat="47.63105" lon="-3.36767">
        <ele>-3.23</ele>
        <time>2015-10-10T14:53:43Z</time>
      </trkpt>
      <trkpt lat="47.63108" lon="-3.36768">
        <ele>-3.23</ele>
        <time>2015-10-10T14:53:44Z</time>
      </trkpt>
      <trkpt lat="47.6311" lon="-3.36769">
        <ele>-3.23</ele>
        <time>2015-10-10T14:53:45Z</time>
      </trkpt>
      <trkpt lat="47.63113" lon="-3.3677">
        <ele>-3.23</ele>
        <time>2015-10-10T14:53:46Z</time>
      </trkpt>
      <trkpt lat="47.63115" lon="-3.36771">
        <ele>-3.23</ele>
        <time>2015-10-10T14:53:47Z</time>
      </trkpt>
      <trkpt lat="47.63118" lon="-3.36772">
        <ele>-1.79</ele>
        <time>2015-10-10T14:53:48Z</time>
      </trkpt>
      <trkpt lat="47.6312" lon="-3.36772">
        <ele>-1.3</ele>
        <time>2015-10-10T14:53:49Z</time>
      </trkpt>
      <trkpt lat="47.63123" lon="-3.36773">
        <ele>-1.79</ele>
        <time>2015-10-10T14:53:50Z</time>
      </trkpt>
      <trkpt lat="47.63126" lon="-3.36773">
        <ele>-1.79</ele>
        <time>2015-10-10T14:53:51Z</time>
      </trkpt>
      <trkpt lat="47.63128" lon="-3.36773">
        <ele>-1.79</ele>
        <time>2015-10-10T14:53:52Z</time>
      </trkpt>
      <trkpt lat="47.63131" lon="-3.36773">
        <ele>-1.79</ele>
        <time>2015-10-10T14:53:53Z</time>
      </trkpt>
      <trkpt lat="47.63133" lon="-3.36774">
        <ele>-1.79</ele>
        <time>2015-10-10T14:53:54Z</time>
      </trkpt>
      <trkpt lat="47.63137" lon="-3.36775">
        <ele>-1.79</ele>
        <time>2015-10-10T14:53:55Z</time>
      </trkpt>
      <trkpt lat="47.6314" lon="-3.36775">
        <ele>-1.79</ele>
        <time>2015-10-10T14:53:56Z</time>
      </trkpt>
      <trkpt lat="47.63142" lon="-3.36775">
        <ele>-1.79</ele>
        <time>2015-10-10T14:53:57Z</time>
      </trkpt>
      <trkpt lat="47.63145" lon="-3.36776">
        <ele>-3.23</ele>
        <time>2015-10-10T14:53:58Z</time>
      </trkpt>
      <trkpt lat="47.63147" lon="-3.36776">
        <ele>-3.23</ele>
        <time>2015-10-10T14:53:59Z</time>
      </trkpt>
      <trkpt lat="47.6315" lon="-3.36777">
        <ele>-3.23</ele>
        <time>2015-10-10T14:54:00Z</time>
      </trkpt>
      <trkpt lat="47.63153" lon="-3.36777">
        <ele>-3.23</ele>
        <time>2015-10-10T14:54:01Z</time>
      </trkpt>
      <trkpt lat="47.63156" lon="-3.36777">
        <ele>-3.23</ele>
        <time>2015-10-10T14:54:02Z</time>
      </trkpt>
      <trkpt lat="47.63159" lon="-3.36777">
        <ele>-3.23</ele>
        <time>2015-10-10T14:54:03Z</time>
      </trkpt>
      <trkpt lat="47.63161" lon="-3.36778">
        <ele>-3.23</ele>
        <time>2015-10-10T14:54:04Z</time>
      </trkpt>
      <trkpt lat="47.63164" lon="-3.36778">
        <ele>-3.23</ele>
        <time>2015-10-10T14:54:05Z</time>
      </trkpt>
      <trkpt lat="47.63166" lon="-3.36779">
        <ele>-3.23</ele>
        <time>2015-10-10T14:54:06Z</time>
      </trkpt>
      <trkpt lat="47.63169" lon="-3.3678">
        <ele>-3.23</ele>
        <time>2015-10-10T14:54:07Z</time>
      </trkpt>
      <trkpt lat="47.63171" lon="-3.3678">
        <ele>-3.23</ele>
        <time>2015-10-10T14:54:08Z</time>
      </trkpt>
      <trkpt lat="47.63174" lon="-3.3678">
        <ele>-3.23</ele>
        <time>2015-10-10T14:54:09Z</time>
      </trkpt>
      <trkpt lat="47.63177" lon="-3.36781">
        <ele>-3.23</ele>
        <time>2015-10-10T14:54:10Z</time>
      </trkpt>
      <trkpt lat="47.6318" lon="-3.36781">
        <ele>-3.23</ele>
        <time>2015-10-10T14:54:11Z</time>
      </trkpt>
      <trkpt lat="47.63183" lon="-3.36781">
        <ele>-3.23</ele>
        <time>2015-10-10T14:54:12Z</time>
      </trkpt>
      <trkpt lat="47.63185" lon="-3.36781">
        <ele>-3.23</ele>
        <time>2015-10-10T14:54:13Z</time>
      </trkpt>
      <trkpt lat="47.63188" lon="-3.36781">
        <ele>-3.23</ele>
        <time>2015-10-10T14:54:14Z</time>
      </trkpt>
      <trkpt lat="47.6319" lon="-3.36781">
        <ele>-3.23</ele>
        <time>2015-10-10T14:54:15Z</time>
      </trkpt>
      <trkpt lat="47.63193" lon="-3.36782">
        <ele>-3.23</ele>
        <time>2015-10-10T14:54:16Z</time>
      </trkpt>
      <trkpt lat="47.63196" lon="-3.36782">
        <ele>-3.23</ele>
        <time>2015-10-10T14:54:17Z</time>
      </trkpt>
      <trkpt lat="47.63199" lon="-3.36783">
        <ele>-3.23</ele>
        <time>2015-10-10T14:54:18Z</time>
      </trkpt>
      <trkpt lat="47.63201" lon="-3.36783">
        <ele>-3.23</ele>
        <time>2015-10-10T14:54:19Z</time>
      </trkpt>
      <trkpt lat="47.63203" lon="-3.36783">
        <ele>-3.23</ele>
        <time>2015-10-10T14:54:20Z</time>
      </trkpt>
      <trkpt lat="47.63206" lon="-3.36783">
        <ele>-3.23</ele>
        <time>2015-10-10T14:54:21Z</time>
      </trkpt>
      <trkpt lat="47.63209" lon="-3.36783">
        <ele>-3.23</ele>
        <time>2015-10-10T14:54:22Z</time>
      </trkpt>
      <trkpt lat="47.63211" lon="-3.36783">
        <ele>-3.23</ele>
        <time>2015-10-10T14:54:23Z</time>
      </trkpt>
      <trkpt lat="47.63214" lon="-3.36784">
        <ele>-3.23</ele>
        <time>2015-10-10T14:54:24Z</time>
      </trkpt>
      <trkpt lat="47.63216" lon="-3.36784">
        <ele>-1.79</ele>
        <time>2015-10-10T14:54:25Z</time>
      </trkpt>
      <trkpt lat="47.63219" lon="-3.36783">
        <ele>-1.79</ele>
        <time>2015-10-10T14:54:26Z</time>
      </trkpt>
      <trkpt lat="47.63222" lon="-3.36783">
        <ele>-1.79</ele>
        <time>2015-10-10T14:54:27Z</time>
      </trkpt>
      <trkpt lat="47.63225" lon="-3.36783">
        <ele>-1.79</ele>
        <time>2015-10-10T14:54:28Z</time>
      </trkpt>
      <trkpt lat="47.63227" lon="-3.36782">
        <ele>-1.79</ele>
        <time>2015-10-10T14:54:29Z</time>
      </trkpt>
      <trkpt lat="47.6323" lon="-3.36782">
        <ele>-1.79</ele>
        <time>2015-10-10T14:54:30Z</time>
      </trkpt>
      <trkpt lat="47.63232" lon="-3.36781">
        <ele>-1.79</ele>
        <time>2015-10-10T14:54:31Z</time>
      </trkpt>
      <trkpt lat="47.63235" lon="-3.36781">
        <ele>-1.79</ele>
        <time>2015-10-10T14:54:32Z</time>
      </trkpt>
      <trkpt lat="47.63238" lon="-3.36781">
        <ele>-1.79</ele>
        <time>2015-10-10T14:54:33Z</time>
      </trkpt>
      <trkpt lat="47.63241" lon="-3.36781">
        <ele>-1.79</ele>
        <time>2015-10-10T14:54:34Z</time>
      </trkpt>
      <trkpt lat="47.63244" lon="-3.3678">
        <ele>-1.79</ele>
        <time>2015-10-10T14:54:35Z</time>
      </trkpt>
      <trkpt lat="47.63246" lon="-3.36779">
        <ele>-1.79</ele>
        <time>2015-10-10T14:54:36Z</time>
      </trkpt>
      <trkpt lat="47.63248" lon="-3.36779">
        <ele>-1.79</ele>
        <time>2015-10-10T14:54:37Z</time>
      </trkpt>
      <trkpt lat="47.63251" lon="-3.36779">
        <ele>-1.79</ele>
        <time>2015-10-10T14:54:38Z</time>
      </trkpt>
      <trkpt lat="47.63253" lon="-3.36779">
        <ele>-1.79</ele>
        <time>2015-10-10T14:54:39Z</time>
      </trkpt>
      <trkpt lat="47.63256" lon="-3.36779">
        <ele>-1.79</ele>
        <time>2015-10-10T14:54:40Z</time>
      </trkpt>
      <trkpt lat="47.63259" lon="-3.36779">
        <ele>-1.79</ele>
        <time>2015-10-10T14:54:41Z</time>
      </trkpt>
      <trkpt lat="47.63262" lon="-3.36779">
        <ele>-1.79</ele>
        <time>2015-10-10T14:54:42Z</time>
      </trkpt>
      <trkpt lat="47.63265" lon="-3.36779">
        <ele>-1.79</ele>
        <time>2015-10-10T14:54:43Z</time>
      </trkpt>
      <trkpt lat="47.63268" lon="-3.36779">
        <ele>-1.79</ele>
        <time>2015-10-10T14:54:44Z</time>
      </trkpt>
      <trkpt lat="47.6327" lon="-3.36779">
        <ele>-1.79</ele>
        <time>2015-10-10T14:54:45Z</time>
      </trkpt>
      <trkpt lat="47.63273" lon="-3.36779">
        <ele>-1.79</ele>
        <time>2015-10-10T14:54:46Z</time>
      </trkpt>
      <trkpt lat="47.63276" lon="-3.36779">
        <ele>-1.79</ele>
        <time>2015-10-10T14:54:47Z</time>
      </trkpt>
      <trkpt lat="47.63279" lon="-3.36778">
        <ele>-1.79</ele>
        <time>2015-10-10T14:54:48Z</time>
      </trkpt>
      <trkpt lat="47.63282" lon="-3.36778">
        <ele>-1.3</ele>
        <time>2015-10-10T14:54:49Z</time>
      </trkpt>
      <trkpt lat="47.63285" lon="-3.36778">
        <ele>-1.3</ele>
        <time>2015-10-10T14:54:50Z</time>
      </trkpt>
      <trkpt lat="47.63288" lon="-3.36778">
        <ele>-1.3</ele>
        <time>2015-10-10T14:54:51Z</time>
      </trkpt>
      <trkpt lat="47.63291" lon="-3.36779">
        <ele>-1.3</ele>
        <time>2015-10-10T14:54:52Z</time>
      </trkpt>
      <trkpt lat="47.63294" lon="-3.36779">
        <ele>-1.3</ele>
        <time>2015-10-10T14:54:53Z</time>
      </trkpt>
      <trkpt lat="47.63296" lon="-3.36779">
        <ele>-1.3</ele>
        <time>2015-10-10T14:54:54Z</time>
      </trkpt>
      <trkpt lat="47.63299" lon="-3.36779">
        <ele>-2.75</ele>
        <time>2015-10-10T14:54:55Z</time>
      </trkpt>
      <trkpt lat="47.63302" lon="-3.36779">
        <ele>-2.75</ele>
        <time>2015-10-10T14:54:56Z</time>
      </trkpt>
      <trkpt lat="47.63304" lon="-3.3678">
        <ele>-2.75</ele>
        <time>2015-10-10T14:54:57Z</time>
      </trkpt>
      <trkpt lat="47.63307" lon="-3.3678">
        <ele>-2.75</ele>
        <time>2015-10-10T14:54:58Z</time>
      </trkpt>
      <trkpt lat="47.6331" lon="-3.36781">
        <ele>-2.75</ele>
        <time>2015-10-10T14:54:59Z</time>
      </trkpt>
      <trkpt lat="47.63312" lon="-3.36781">
        <ele>-3.23</ele>
        <time>2015-10-10T14:55:00Z</time>
      </trkpt>
      <trkpt lat="47.63315" lon="-3.36781">
        <ele>-3.23</ele>
        <time>2015-10-10T14:55:01Z</time>
      </trkpt>
      <trkpt lat="47.63317" lon="-3.36782">
        <ele>-3.23</ele>
        <time>2015-10-10T14:55:02Z</time>
      </trkpt>
      <trkpt lat="47.6332" lon="-3.36783">
        <ele>-3.23</ele>
        <time>2015-10-10T14:55:03Z</time>
      </trkpt>
      <trkpt lat="47.63323" lon="-3.36783">
        <ele>-3.23</ele>
        <time>2015-10-10T14:55:04Z</time>
      </trkpt>
      <trkpt lat="47.63326" lon="-3.36783">
        <ele>-3.23</ele>
        <time>2015-10-10T14:55:05Z</time>
      </trkpt>
      <trkpt lat="47.63329" lon="-3.36783">
        <ele>-2.27</ele>
        <time>2015-10-10T14:55:06Z</time>
      </trkpt>
      <trkpt lat="47.63332" lon="-3.36783">
        <ele>-2.27</ele>
        <time>2015-10-10T14:55:07Z</time>
      </trkpt>
      <trkpt lat="47.63335" lon="-3.36784">
        <ele>-2.27</ele>
        <time>2015-10-10T14:55:08Z</time>
      </trkpt>
      <trkpt lat="47.63338" lon="-3.36784">
        <ele>-1.3</ele>
        <time>2015-10-10T14:55:09Z</time>
      </trkpt>
      <trkpt lat="47.6334" lon="-3.36784">
        <ele>-1.3</ele>
        <time>2015-10-10T14:55:10Z</time>
      </trkpt>
      <trkpt lat="47.63344" lon="-3.36784">
        <ele>-1.3</ele>
        <time>2015-10-10T14:55:11Z</time>
      </trkpt>
      <trkpt lat="47.63346" lon="-3.36785">
        <ele>-1.3</ele>
        <time>2015-10-10T14:55:12Z</time>
      </trkpt>
      <trkpt lat="47.63349" lon="-3.36785">
        <ele>-1.3</ele>
        <time>2015-10-10T14:55:13Z</time>
      </trkpt>
      <trkpt lat="47.63351" lon="-3.36786">
        <ele>-1.3</ele>
        <time>2015-10-10T14:55:14Z</time>
      </trkpt>
      <trkpt lat="47.63354" lon="-3.36786">
        <ele>-2.75</ele>
        <time>2015-10-10T14:55:15Z</time>
      </trkpt>
      <trkpt lat="47.63356" lon="-3.36787">
        <ele>-2.75</ele>
        <time>2015-10-10T14:55:16Z</time>
      </trkpt>
      <trkpt lat="47.63359" lon="-3.36788">
        <ele>-2.75</ele>
        <time>2015-10-10T14:55:17Z</time>
      </trkpt>
      <trkpt lat="47.63361" lon="-3.36788">
        <ele>-3.71</ele>
        <time>2015-10-10T14:55:18Z</time>
      </trkpt>
      <trkpt lat="47.63364" lon="-3.36789">
        <ele>-3.71</ele>
        <time>2015-10-10T14:55:19Z</time>
      </trkpt>
      <trkpt lat="47.63367" lon="-3.36789">
        <ele>-3.71</ele>
        <time>2015-10-10T14:55:20Z</time>
      </trkpt>
      <trkpt lat="47.63369" lon="-3.3679">
        <ele>-3.71</ele>
        <time>2015-10-10T14:55:21Z</time>
      </trkpt>
      <trkpt lat="47.63371" lon="-3.3679">
        <ele>-3.71</ele>
        <time>2015-10-10T14:55:22Z</time>
      </trkpt>
      <trkpt lat="47.63373" lon="-3.36792">
        <ele>-3.71</ele>
        <time>2015-10-10T14:55:23Z</time>
      </trkpt>
      <trkpt lat="47.63376" lon="-3.36794">
        <ele>-3.71</ele>
        <time>2015-10-10T14:55:24Z</time>
      </trkpt>
      <trkpt lat="47.63378" lon="-3.36795">
        <ele>-2.27</ele>
        <time>2015-10-10T14:55:25Z</time>
      </trkpt>
      <trkpt lat="47.63381" lon="-3.36795">
        <ele>-2.27</ele>
        <time>2015-10-10T14:55:26Z</time>
      </trkpt>
      <trkpt lat="47.63383" lon="-3.36795">
        <ele>-1.79</ele>
        <time>2015-10-10T14:55:27Z</time>
      </trkpt>
      <trkpt lat="47.63386" lon="-3.36796">
        <ele>-1.79</ele>
        <time>2015-10-10T14:55:28Z</time>
      </trkpt>
      <trkpt lat="47.63389" lon="-3.36796">
        <ele>-1.79</ele>
        <time>2015-10-10T14:55:29Z</time>
      </trkpt>
      <trkpt lat="47.63392" lon="-3.36796">
        <ele>-1.79</ele>
        <time>2015-10-10T14:55:30Z</time>
      </trkpt>
      <trkpt lat="47.63395" lon="-3.36796">
        <ele>-1.79</ele>
        <time>2015-10-10T14:55:31Z</time>
      </trkpt>
      <trkpt lat="47.63398" lon="-3.36796">
        <ele>-1.79</ele>
        <time>2015-10-10T14:55:32Z</time>
      </trkpt>
      <trkpt lat="47.634" lon="-3.36796">
        <ele>-1.79</ele>
        <time>2015-10-10T14:55:33Z</time>
      </trkpt>
      <trkpt lat="47.63403" lon="-3.36797">
        <ele>-1.79</ele>
        <time>2015-10-10T14:55:34Z</time>
      </trkpt>
      <trkpt lat="47.63405" lon="-3.36798">
        <ele>-2.75</ele>
        <time>2015-10-10T14:55:35Z</time>
      </trkpt>
      <trkpt lat="47.63408" lon="-3.36799">
        <ele>-2.75</ele>
        <time>2015-10-10T14:55:36Z</time>
      </trkpt>
      <trkpt lat="47.63412" lon="-3.36799">
        <ele>-2.75</ele>
        <time>2015-10-10T14:55:37Z</time>
      </trkpt>
      <trkpt lat="47.63414" lon="-3.368">
        <ele>-2.75</ele>
        <time>2015-10-10T14:55:38Z</time>
      </trkpt>
      <trkpt lat="47.63417" lon="-3.368">
        <ele>-2.75</ele>
        <time>2015-10-10T14:55:39Z</time>
      </trkpt>
      <trkpt lat="47.63419" lon="-3.36801">
        <ele>-2.75</ele>
        <time>2015-10-10T14:55:40Z</time>
      </trkpt>
      <trkpt lat="47.63421" lon="-3.36803">
        <ele>-2.75</ele>
        <time>2015-10-10T14:55:41Z</time>
      </trkpt>
      <trkpt lat="47.63423" lon="-3.36805">
        <ele>-2.75</ele>
        <time>2015-10-10T14:55:42Z</time>
      </trkpt>
      <trkpt lat="47.63426" lon="-3.36806">
        <ele>-2.75</ele>
        <time>2015-10-10T14:55:43Z</time>
      </trkpt>
      <trkpt lat="47.63429" lon="-3.36807">
        <ele>-2.75</ele>
        <time>2015-10-10T14:55:44Z</time>
      </trkpt>
      <trkpt lat="47.63431" lon="-3.36808">
        <ele>-2.75</ele>
        <time>2015-10-10T14:55:45Z</time>
      </trkpt>
      <trkpt lat="47.63433" lon="-3.36809">
        <ele>-2.75</ele>
        <time>2015-10-10T14:55:46Z</time>
      </trkpt>
      <trkpt lat="47.63435" lon="-3.3681">
        <ele>-2.75</ele>
        <time>2015-10-10T14:55:47Z</time>
      </trkpt>
      <trkpt lat="47.63438" lon="-3.36812">
        <ele>-2.75</ele>
        <time>2015-10-10T14:55:48Z</time>
      </trkpt>
      <trkpt lat="47.6344" lon="-3.36813">
        <ele>-2.75</ele>
        <time>2015-10-10T14:55:49Z</time>
      </trkpt>
      <trkpt lat="47.63443" lon="-3.36814">
        <ele>-2.75</ele>
        <time>2015-10-10T14:55:50Z</time>
      </trkpt>
      <trkpt lat="47.63446" lon="-3.36815">
        <ele>-1.79</ele>
        <time>2015-10-10T14:55:51Z</time>
      </trkpt>
      <trkpt lat="47.63448" lon="-3.36816">
        <ele>-1.79</ele>
        <time>2015-10-10T14:55:52Z</time>
      </trkpt>
      <trkpt lat="47.6345" lon="-3.36817">
        <ele>-1.79</ele>
        <time>2015-10-10T14:55:53Z</time>
      </trkpt>
      <trkpt lat="47.63453" lon="-3.36817">
        <ele>-2.75</ele>
        <time>2015-10-10T14:55:54Z</time>
      </trkpt>
      <trkpt lat="47.63455" lon="-3.36818">
        <ele>-2.75</ele>
        <time>2015-10-10T14:55:55Z</time>
      </trkpt>
      <trkpt lat="47.63458" lon="-3.36818">
        <ele>-2.75</ele>
        <time>2015-10-10T14:55:56Z</time>
      </trkpt>
      <trkpt lat="47.63461" lon="-3.36819">
        <ele>-2.75</ele>
        <time>2015-10-10T14:55:57Z</time>
      </trkpt>
      <trkpt lat="47.63463" lon="-3.36819">
        <ele>-2.75</ele>
        <time>2015-10-10T14:55:58Z</time>
      </trkpt>
      <trkpt lat="47.63466" lon="-3.3682">
        <ele>-2.75</ele>
        <time>2015-10-10T14:55:59Z</time>
      </trkpt>
      <trkpt lat="47.63469" lon="-3.3682">
        <ele>-2.75</ele>
        <time>2015-10-10T14:56:00Z</time>
      </trkpt>
      <trkpt lat="47.63471" lon="-3.3682">
        <ele>-2.75</ele>
        <time>2015-10-10T14:56:01Z</time>
      </trkpt>
      <trkpt lat="47.63474" lon="-3.3682">
        <ele>-2.75</ele>
        <time>2015-10-10T14:56:02Z</time>
      </trkpt>
      <trkpt lat="47.63476" lon="-3.3682">
        <ele>-2.75</ele>
        <time>2015-10-10T14:56:03Z</time>
      </trkpt>
      <trkpt lat="47.63479" lon="-3.36819">
        <ele>-2.75</ele>
        <time>2015-10-10T14:56:04Z</time>
      </trkpt>
      <trkpt lat="47.63482" lon="-3.36818">
        <ele>-2.75</ele>
        <time>2015-10-10T14:56:05Z</time>
      </trkpt>
      <trkpt lat="47.63484" lon="-3.36818">
        <ele>-2.75</ele>
        <time>2015-10-10T14:56:06Z</time>
      </trkpt>
      <trkpt lat="47.63487" lon="-3.36818">
        <ele>-2.75</ele>
        <time>2015-10-10T14:56:07Z</time>
      </trkpt>
      <trkpt lat="47.6349" lon="-3.36818">
        <ele>-1.79</ele>
        <time>2015-10-10T14:56:08Z</time>
      </trkpt>
      <trkpt lat="47.63493" lon="-3.36818">
        <ele>-1.79</ele>
        <time>2015-10-10T14:56:09Z</time>
      </trkpt>
      <trkpt lat="47.63496" lon="-3.36817">
        <ele>-1.79</ele>
        <time>2015-10-10T14:56:10Z</time>
      </trkpt>
      <trkpt lat="47.63499" lon="-3.36817">
        <ele>-1.79</ele>
        <time>2015-10-10T14:56:11Z</time>
      </trkpt>
      <trkpt lat="47.63501" lon="-3.36817">
        <ele>-1.79</ele>
        <time>2015-10-10T14:56:12Z</time>
      </trkpt>
      <trkpt lat="47.63504" lon="-3.36816">
        <ele>-1.79</ele>
        <time>2015-10-10T14:56:13Z</time>
      </trkpt>
      <trkpt lat="47.63507" lon="-3.36815">
        <ele>-1.79</ele>
        <time>2015-10-10T14:56:14Z</time>
      </trkpt>
      <trkpt lat="47.63509" lon="-3.36815">
        <ele>-1.79</ele>
        <time>2015-10-10T14:56:15Z</time>
      </trkpt>
      <trkpt lat="47.63512" lon="-3.36815">
        <ele>-1.79</ele>
        <time>2015-10-10T14:56:16Z</time>
      </trkpt>
      <trkpt lat="47.63515" lon="-3.36815">
        <ele>-1.79</ele>
        <time>2015-10-10T14:56:17Z</time>
      </trkpt>
      <trkpt lat="47.63517" lon="-3.36815">
        <ele>-1.79</ele>
        <time>2015-10-10T14:56:18Z</time>
      </trkpt>
      <trkpt lat="47.6352" lon="-3.36816">
        <ele>-1.79</ele>
        <time>2015-10-10T14:56:19Z</time>
      </trkpt>
      <trkpt lat="47.63523" lon="-3.36816">
        <ele>-3.23</ele>
        <time>2015-10-10T14:56:20Z</time>
      </trkpt>
      <trkpt lat="47.63526" lon="-3.36816">
        <ele>-3.23</ele>
        <time>2015-10-10T14:56:21Z</time>
      </trkpt>
      <trkpt lat="47.63528" lon="-3.36816">
        <ele>-3.23</ele>
        <time>2015-10-10T14:56:22Z</time>
      </trkpt>
      <trkpt lat="47.6353" lon="-3.36816">
        <ele>-3.23</ele>
        <time>2015-10-10T14:56:23Z</time>
      </trkpt>
      <trkpt lat="47.63533" lon="-3.36817">
        <ele>-3.23</ele>
        <time>2015-10-10T14:56:24Z</time>
      </trkpt>
      <trkpt lat="47.63535" lon="-3.36817">
        <ele>-3.23</ele>
        <time>2015-10-10T14:56:25Z</time>
      </trkpt>
      <trkpt lat="47.63538" lon="-3.36817">
        <ele>-3.23</ele>
        <time>2015-10-10T14:56:26Z</time>
      </trkpt>
      <trkpt lat="47.63541" lon="-3.36818">
        <ele>-3.23</ele>
        <time>2015-10-10T14:56:27Z</time>
      </trkpt>
      <trkpt lat="47.63544" lon="-3.36818">
        <ele>-1.79</ele>
        <time>2015-10-10T14:56:28Z</time>
      </trkpt>
      <trkpt lat="47.63547" lon="-3.36818">
        <ele>-1.79</ele>
        <time>2015-10-10T14:56:29Z</time>
      </trkpt>
      <trkpt lat="47.6355" lon="-3.36818">
        <ele>-1.79</ele>
        <time>2015-10-10T14:56:30Z</time>
      </trkpt>
      <trkpt lat="47.63552" lon="-3.36817">
        <ele>-1.79</ele>
        <time>2015-10-10T14:56:31Z</time>
      </trkpt>
      <trkpt lat="47.63555" lon="-3.36817">
        <ele>-1.3</ele>
        <time>2015-10-10T14:56:32Z</time>
      </trkpt>
      <trkpt lat="47.63558" lon="-3.36816">
        <ele>-1.3</ele>
        <time>2015-10-10T14:56:33Z</time>
      </trkpt>
      <trkpt lat="47.63561" lon="-3.36816">
        <ele>-1.3</ele>
        <time>2015-10-10T14:56:34Z</time>
      </trkpt>
      <trkpt lat="47.63564" lon="-3.36815">
        <ele>-1.3</ele>
        <time>2015-10-10T14:56:35Z</time>
      </trkpt>
      <trkpt lat="47.63566" lon="-3.36814">
        <ele>-3.23</ele>
        <time>2015-10-10T14:56:36Z</time>
      </trkpt>
      <trkpt lat="47.63569" lon="-3.36814">
        <ele>-3.23</ele>
        <time>2015-10-10T14:56:37Z</time>
      </trkpt>
      <trkpt lat="47.63571" lon="-3.36814">
        <ele>-3.23</ele>
        <time>2015-10-10T14:56:38Z</time>
      </trkpt>
      <trkpt lat="47.63574" lon="-3.36815">
        <ele>-3.23</ele>
        <time>2015-10-10T14:56:39Z</time>
      </trkpt>
      <trkpt lat="47.63577" lon="-3.36815">
        <ele>-3.23</ele>
        <time>2015-10-10T14:56:40Z</time>
      </trkpt>
      <trkpt lat="47.6358" lon="-3.36815">
        <ele>-3.23</ele>
        <time>2015-10-10T14:56:41Z</time>
      </trkpt>
      <trkpt lat="47.63582" lon="-3.36815">
        <ele>-3.23</ele>
        <time>2015-10-10T14:56:42Z</time>
      </trkpt>
      <trkpt lat="47.63585" lon="-3.36815">
        <ele>-3.23</ele>
        <time>2015-10-10T14:56:43Z</time>
      </trkpt>
      <trkpt lat="47.63588" lon="-3.36815">
        <ele>-3.23</ele>
        <time>2015-10-10T14:56:44Z</time>
      </trkpt>
      <trkpt lat="47.63591" lon="-3.36815">
        <ele>-2.27</ele>
        <time>2015-10-10T14:56:45Z</time>
      </trkpt>
      <trkpt lat="47.63594" lon="-3.36815">
        <ele>-2.27</ele>
        <time>2015-10-10T14:56:46Z</time>
      </trkpt>
      <trkpt lat="47.63596" lon="-3.36814">
        <ele>-2.27</ele>
        <time>2015-10-10T14:56:47Z</time>
      </trkpt>
      <trkpt lat="47.63599" lon="-3.36814">
        <ele>-2.27</ele>
        <time>2015-10-10T14:56:48Z</time>
      </trkpt>
      <trkpt lat="47.63601" lon="-3.36813">
        <ele>-1.79</ele>
        <time>2015-10-10T14:56:49Z</time>
      </trkpt>
      <trkpt lat="47.63604" lon="-3.36813">
        <ele>-1.79</ele>
        <time>2015-10-10T14:56:50Z</time>
      </trkpt>
      <trkpt lat="47.63607" lon="-3.36812">
        <ele>-1.79</ele>
        <time>2015-10-10T14:56:51Z</time>
      </trkpt>
      <trkpt lat="47.6361" lon="-3.36811">
        <ele>-1.79</ele>
        <time>2015-10-10T14:56:52Z</time>
      </trkpt>
      <trkpt lat="47.63612" lon="-3.3681">
        <ele>-1.79</ele>
        <time>2015-10-10T14:56:53Z</time>
      </trkpt>
      <trkpt lat="47.63615" lon="-3.36808">
        <ele>-1.79</ele>
        <time>2015-10-10T14:56:54Z</time>
      </trkpt>
      <trkpt lat="47.63618" lon="-3.36807">
        <ele>-1.79</ele>
        <time>2015-10-10T14:56:55Z</time>
      </trkpt>
      <trkpt lat="47.63621" lon="-3.36807">
        <ele>-1.79</ele>
        <time>2015-10-10T14:56:56Z</time>
      </trkpt>
      <trkpt lat="47.63624" lon="-3.36807">
        <ele>-1.79</ele>
        <time>2015-10-10T14:56:57Z</time>
      </trkpt>
      <trkpt lat="47.63627" lon="-3.36807">
        <ele>-1.79</ele>
        <time>2015-10-10T14:56:58Z</time>
      </trkpt>
      <trkpt lat="47.6363" lon="-3.36807">
        <ele>-1.79</ele>
        <time>2015-10-10T14:56:59Z</time>
      </trkpt>
      <trkpt lat="47.63633" lon="-3.36806">
        <ele>-1.79</ele>
        <time>2015-10-10T14:57:00Z</time>
      </trkpt>
      <trkpt lat="47.63636" lon="-3.36806">
        <ele>-1.79</ele>
        <time>2015-10-10T14:57:01Z</time>
      </trkpt>
      <trkpt lat="47.63638" lon="-3.36806">
        <ele>-1.79</ele>
        <time>2015-10-10T14:57:02Z</time>
      </trkpt>
      <trkpt lat="47.63641" lon="-3.36807">
        <ele>-1.79</ele>
        <time>2015-10-10T14:57:03Z</time>
      </trkpt>
      <trkpt lat="47.63643" lon="-3.36808">
        <ele>-1.79</ele>
        <time>2015-10-10T14:57:04Z</time>
      </trkpt>
      <trkpt lat="47.63646" lon="-3.3681">
        <ele>-1.79</ele>
        <time>2015-10-10T14:57:05Z</time>
      </trkpt>
      <trkpt lat="47.63649" lon="-3.3681">
        <ele>-1.79</ele>
        <time>2015-10-10T14:57:06Z</time>
      </trkpt>
      <trkpt lat="47.63652" lon="-3.3681">
        <ele>-1.79</ele>
        <time>2015-10-10T14:57:07Z</time>
      </trkpt>
      <trkpt lat="47.63654" lon="-3.3681">
        <ele>-1.79</ele>
        <time>2015-10-10T14:57:08Z</time>
      </trkpt>
      <trkpt lat="47.63657" lon="-3.3681">
        <ele>-3.23</ele>
        <time>2015-10-10T14:57:09Z</time>
      </trkpt>
      <trkpt lat="47.63659" lon="-3.3681">
        <ele>-3.23</ele>
        <time>2015-10-10T14:57:10Z</time>
      </trkpt>
      <trkpt lat="47.63662" lon="-3.36811">
        <ele>-3.23</ele>
        <time>2015-10-10T14:57:11Z</time>
      </trkpt>
      <trkpt lat="47.63665" lon="-3.36811">
        <ele>-3.23</ele>
        <time>2015-10-10T14:57:12Z</time>
      </trkpt>
      <trkpt lat="47.63668" lon="-3.36811">
        <ele>-3.23</ele>
        <time>2015-10-10T14:57:13Z</time>
      </trkpt>
      <trkpt lat="47.63671" lon="-3.36812">
        <ele>-3.23</ele>
        <time>2015-10-10T14:57:14Z</time>
      </trkpt>
      <trkpt lat="47.63673" lon="-3.36813">
        <ele>-3.23</ele>
        <time>2015-10-10T14:57:15Z</time>
      </trkpt>
      <trkpt lat="47.63676" lon="-3.36813">
        <ele>-1.79</ele>
        <time>2015-10-10T14:57:16Z</time>
      </trkpt>
      <trkpt lat="47.63679" lon="-3.36814">
        <ele>-1.79</ele>
        <time>2015-10-10T14:57:17Z</time>
      </trkpt>
      <trkpt lat="47.63681" lon="-3.36814">
        <ele>-1.79</ele>
        <time>2015-10-10T14:57:18Z</time>
      </trkpt>
      <trkpt lat="47.63684" lon="-3.36814">
        <ele>-1.3</ele>
        <time>2015-10-10T14:57:19Z</time>
      </trkpt>
      <trkpt lat="47.63687" lon="-3.36815">
        <ele>-1.3</ele>
        <time>2015-10-10T14:57:20Z</time>
      </trkpt>
      <trkpt lat="47.6369" lon="-3.36816">
        <ele>-1.3</ele>
        <time>2015-10-10T14:57:21Z</time>
      </trkpt>
      <trkpt lat="47.63692" lon="-3.36817">
        <ele>-1.3</ele>
        <time>2015-10-10T14:57:22Z</time>
      </trkpt>
      <trkpt lat="47.63695" lon="-3.36818">
        <ele>-1.3</ele>
        <time>2015-10-10T14:57:23Z</time>
      </trkpt>
      <trkpt lat="47.63698" lon="-3.36819">
        <ele>-2.75</ele>
        <time>2015-10-10T14:57:24Z</time>
      </trkpt>
      <trkpt lat="47.637" lon="-3.36819">
        <ele>-3.23</ele>
        <time>2015-10-10T14:57:25Z</time>
      </trkpt>
      <trkpt lat="47.63703" lon="-3.36818">
        <ele>-3.23</ele>
        <time>2015-10-10T14:57:26Z</time>
      </trkpt>
      <trkpt lat="47.63705" lon="-3.36817">
        <ele>-3.23</ele>
        <time>2015-10-10T14:57:27Z</time>
      </trkpt>
      <trkpt lat="47.63708" lon="-3.36816">
        <ele>-3.23</ele>
        <time>2015-10-10T14:57:28Z</time>
      </trkpt>
      <trkpt lat="47.63711" lon="-3.36816">
        <ele>-3.23</ele>
        <time>2015-10-10T14:57:29Z</time>
      </trkpt>
      <trkpt lat="47.63713" lon="-3.36816">
        <ele>-3.23</ele>
        <time>2015-10-10T14:57:30Z</time>
      </trkpt>
      <trkpt lat="47.63716" lon="-3.36815">
        <ele>-3.23</ele>
        <time>2015-10-10T14:57:31Z</time>
      </trkpt>
      <trkpt lat="47.63718" lon="-3.36815">
        <ele>-3.23</ele>
        <time>2015-10-10T14:57:32Z</time>
      </trkpt>
      <trkpt lat="47.63721" lon="-3.36815">
        <ele>-3.23</ele>
        <time>2015-10-10T14:57:33Z</time>
      </trkpt>
      <trkpt lat="47.63724" lon="-3.36815">
        <ele>-3.23</ele>
        <time>2015-10-10T14:57:34Z</time>
      </trkpt>
      <trkpt lat="47.63727" lon="-3.36815">
        <ele>-3.23</ele>
        <time>2015-10-10T14:57:35Z</time>
      </trkpt>
      <trkpt lat="47.6373" lon="-3.36815">
        <ele>-3.23</ele>
        <time>2015-10-10T14:57:36Z</time>
      </trkpt>
      <trkpt lat="47.63732" lon="-3.36814">
        <ele>-3.23</ele>
        <time>2015-10-10T14:57:37Z</time>
      </trkpt>
      <trkpt lat="47.63735" lon="-3.36814">
        <ele>-3.23</ele>
        <time>2015-10-10T14:57:38Z</time>
      </trkpt>
      <trkpt lat="47.63738" lon="-3.36815">
        <ele>-3.23</ele>
        <time>2015-10-10T14:57:39Z</time>
      </trkpt>
      <trkpt lat="47.63741" lon="-3.36816">
        <ele>-3.23</ele>
        <time>2015-10-10T14:57:40Z</time>
      </trkpt>
      <trkpt lat="47.63744" lon="-3.36816">
        <ele>-3.23</ele>
        <time>2015-10-10T14:57:41Z</time>
      </trkpt>
      <trkpt lat="47.63747" lon="-3.36816">
        <ele>-3.23</ele>
        <time>2015-10-10T14:57:42Z</time>
      </trkpt>
      <trkpt lat="47.6375" lon="-3.36816">
        <ele>-3.23</ele>
        <time>2015-10-10T14:57:43Z</time>
      </trkpt>
      <trkpt lat="47.63753" lon="-3.36816">
        <ele>-3.23</ele>
        <time>2015-10-10T14:57:44Z</time>
      </trkpt>
      <trkpt lat="47.63756" lon="-3.36816">
        <ele>-3.23</ele>
        <time>2015-10-10T14:57:45Z</time>
      </trkpt>
      <trkpt lat="47.63758" lon="-3.36817">
        <ele>-3.23</ele>
        <time>2015-10-10T14:57:46Z</time>
      </trkpt>
      <trkpt lat="47.63761" lon="-3.36817">
        <ele>-3.23</ele>
        <time>2015-10-10T14:57:47Z</time>
      </trkpt>
      <trkpt lat="47.63763" lon="-3.36817">
        <ele>-3.23</ele>
        <time>2015-10-10T14:57:48Z</time>
      </trkpt>
      <trkpt lat="47.63766" lon="-3.36817">
        <ele>-3.23</ele>
        <time>2015-10-10T14:57:49Z</time>
      </trkpt>
      <trkpt lat="47.63769" lon="-3.36817">
        <ele>-3.23</ele>
        <time>2015-10-10T14:57:50Z</time>
      </trkpt>
      <trkpt lat="47.63771" lon="-3.36817">
        <ele>-3.23</ele>
        <time>2015-10-10T14:57:51Z</time>
      </trkpt>
      <trkpt lat="47.63774" lon="-3.36817">
        <ele>-3.23</ele>
        <time>2015-10-10T14:57:52Z</time>
      </trkpt>
      <trkpt lat="47.63777" lon="-3.36817">
        <ele>-3.23</ele>
        <time>2015-10-10T14:57:53Z</time>
      </trkpt>
      <trkpt lat="47.63779" lon="-3.36817">
        <ele>-3.23</ele>
        <time>2015-10-10T14:57:54Z</time>
      </trkpt>
      <trkpt lat="47.63782" lon="-3.36816">
        <ele>-3.23</ele>
        <time>2015-10-10T14:57:55Z</time>
      </trkpt>
      <trkpt lat="47.63785" lon="-3.36816">
        <ele>-3.23</ele>
        <time>2015-10-10T14:57:56Z</time>
      </trkpt>
      <trkpt lat="47.63787" lon="-3.36817">
        <ele>-3.23</ele>
        <time>2015-10-10T14:57:57Z</time>
      </trkpt>
      <trkpt lat="47.6379" lon="-3.36817">
        <ele>-3.23</ele>
        <time>2015-10-10T14:57:58Z</time>
      </trkpt>
      <trkpt lat="47.63793" lon="-3.36817">
        <ele>-3.23</ele>
        <time>2015-10-10T14:57:59Z</time>
      </trkpt>
      <trkpt lat="47.63796" lon="-3.36816">
        <ele>-3.23</ele>
        <time>2015-10-10T14:58:00Z</time>
      </trkpt>
      <trkpt lat="47.63798" lon="-3.36816">
        <ele>-3.23</ele>
        <time>2015-10-10T14:58:01Z</time>
      </trkpt>
      <trkpt lat="47.63801" lon="-3.36816">
        <ele>-3.23</ele>
        <time>2015-10-10T14:58:02Z</time>
      </trkpt>
      <trkpt lat="47.63804" lon="-3.36817">
        <ele>-3.23</ele>
        <time>2015-10-10T14:58:03Z</time>
      </trkpt>
      <trkpt lat="47.63806" lon="-3.36817">
        <ele>-3.23</ele>
        <time>2015-10-10T14:58:04Z</time>
      </trkpt>
      <trkpt lat="47.63809" lon="-3.36818">
        <ele>-3.23</ele>
        <time>2015-10-10T14:58:05Z</time>
      </trkpt>
      <trkpt lat="47.63812" lon="-3.36819">
        <ele>-3.23</ele>
        <time>2015-10-10T14:58:06Z</time>
      </trkpt>
      <trkpt lat="47.63815" lon="-3.3682">
        <ele>-3.23</ele>
        <time>2015-10-10T14:58:07Z</time>
      </trkpt>
      <trkpt lat="47.63817" lon="-3.36821">
        <ele>-3.23</ele>
        <time>2015-10-10T14:58:08Z</time>
      </trkpt>
      <trkpt lat="47.6382" lon="-3.36822">
        <ele>-3.23</ele>
        <time>2015-10-10T14:58:09Z</time>
      </trkpt>
      <trkpt lat="47.63823" lon="-3.36823">
        <ele>-3.23</ele>
        <time>2015-10-10T14:58:10Z</time>
      </trkpt>
      <trkpt lat="47.63825" lon="-3.36824">
        <ele>-3.23</ele>
        <time>2015-10-10T14:58:11Z</time>
      </trkpt>
      <trkpt lat="47.63828" lon="-3.36824">
        <ele>-3.23</ele>
        <time>2015-10-10T14:58:12Z</time>
      </trkpt>
      <trkpt lat="47.6383" lon="-3.36826">
        <ele>-3.71</ele>
        <time>2015-10-10T14:58:13Z</time>
      </trkpt>
      <trkpt lat="47.63832" lon="-3.36827">
        <ele>-3.71</ele>
        <time>2015-10-10T14:58:14Z</time>
      </trkpt>
      <trkpt lat="47.63835" lon="-3.36829">
        <ele>-3.71</ele>
        <time>2015-10-10T14:58:15Z</time>
      </trkpt>
      <trkpt lat="47.63837" lon="-3.3683">
        <ele>-3.23</ele>
        <time>2015-10-10T14:58:16Z</time>
      </trkpt>
      <trkpt lat="47.63839" lon="-3.36831">
        <ele>-3.23</ele>
        <time>2015-10-10T14:58:17Z</time>
      </trkpt>
      <trkpt lat="47.63842" lon="-3.36832">
        <ele>-3.23</ele>
        <time>2015-10-10T14:58:18Z</time>
      </trkpt>
      <trkpt lat="47.63844" lon="-3.36834">
        <ele>-3.23</ele>
        <time>2015-10-10T14:58:19Z</time>
      </trkpt>
      <trkpt lat="47.63846" lon="-3.36835">
        <ele>-3.23</ele>
        <time>2015-10-10T14:58:20Z</time>
      </trkpt>
      <trkpt lat="47.63849" lon="-3.36836">
        <ele>-3.23</ele>
        <time>2015-10-10T14:58:21Z</time>
      </trkpt>
      <trkpt lat="47.63851" lon="-3.36837">
        <ele>-3.23</ele>
        <time>2015-10-10T14:58:22Z</time>
      </trkpt>
      <trkpt lat="47.63853" lon="-3.36837">
        <ele>-3.23</ele>
        <time>2015-10-10T14:58:23Z</time>
      </trkpt>
      <trkpt lat="47.63856" lon="-3.36838">
        <ele>-2.27</ele>
        <time>2015-10-10T14:58:24Z</time>
      </trkpt>
      <trkpt lat="47.63858" lon="-3.36839">
        <ele>-2.27</ele>
        <time>2015-10-10T14:58:25Z</time>
      </trkpt>
      <trkpt lat="47.63861" lon="-3.3684">
        <ele>-2.27</ele>
        <time>2015-10-10T14:58:26Z</time>
      </trkpt>
      <trkpt lat="47.63864" lon="-3.3684">
        <ele>-2.27</ele>
        <time>2015-10-10T14:58:27Z</time>
      </trkpt>
      <trkpt lat="47.63867" lon="-3.36841">
        <ele>-1.79</ele>
        <time>2015-10-10T14:58:28Z</time>
      </trkpt>
      <trkpt lat="47.63869" lon="-3.36841">
        <ele>-1.79</ele>
        <time>2015-10-10T14:58:29Z</time>
      </trkpt>
      <trkpt lat="47.63872" lon="-3.36842">
        <ele>-1.79</ele>
        <time>2015-10-10T14:58:30Z</time>
      </trkpt>
      <trkpt lat="47.63875" lon="-3.36842">
        <ele>-1.79</ele>
        <time>2015-10-10T14:58:31Z</time>
      </trkpt>
      <trkpt lat="47.63877" lon="-3.36842">
        <ele>-1.79</ele>
        <time>2015-10-10T14:58:32Z</time>
      </trkpt>
      <trkpt lat="47.6388" lon="-3.36843">
        <ele>-1.79</ele>
        <time>2015-10-10T14:58:33Z</time>
      </trkpt>
      <trkpt lat="47.63883" lon="-3.36844">
        <ele>-1.79</ele>
        <time>2015-10-10T14:58:34Z</time>
      </trkpt>
      <trkpt lat="47.63886" lon="-3.36844">
        <ele>-1.79</ele>
        <time>2015-10-10T14:58:35Z</time>
      </trkpt>
      <trkpt lat="47.63888" lon="-3.36844">
        <ele>-1.79</ele>
        <time>2015-10-10T14:58:36Z</time>
      </trkpt>
      <trkpt lat="47.63891" lon="-3.36844">
        <ele>-1.79</ele>
        <time>2015-10-10T14:58:37Z</time>
      </trkpt>
      <trkpt lat="47.63893" lon="-3.36845">
        <ele>-1.79</ele>
        <time>2015-10-10T14:58:38Z</time>
      </trkpt>
      <trkpt lat="47.63896" lon="-3.36846">
        <ele>-3.23</ele>
        <time>2015-10-10T14:58:39Z</time>
      </trkpt>
      <trkpt lat="47.63899" lon="-3.36847">
        <ele>-3.23</ele>
        <time>2015-10-10T14:58:40Z</time>
      </trkpt>
      <trkpt lat="47.63901" lon="-3.36847">
        <ele>-3.23</ele>
        <time>2015-10-10T14:58:41Z</time>
      </trkpt>
      <trkpt lat="47.63904" lon="-3.36847">
        <ele>-3.23</ele>
        <time>2015-10-10T14:58:42Z</time>
      </trkpt>
      <trkpt lat="47.63906" lon="-3.36847">
        <ele>-3.23</ele>
        <time>2015-10-10T14:58:43Z</time>
      </trkpt>
      <trkpt lat="47.63909" lon="-3.36847">
        <ele>-3.23</ele>
        <time>2015-10-10T14:58:44Z</time>
      </trkpt>
      <trkpt lat="47.63912" lon="-3.36848">
        <ele>-3.23</ele>
        <time>2015-10-10T14:58:45Z</time>
      </trkpt>
      <trkpt lat="47.63915" lon="-3.36848">
        <ele>-3.23</ele>
        <time>2015-10-10T14:58:46Z</time>
      </trkpt>
      <trkpt lat="47.63918" lon="-3.36848">
        <ele>-3.23</ele>
        <time>2015-10-10T14:58:47Z</time>
      </trkpt>
      <trkpt lat="47.6392" lon="-3.36848">
        <ele>-3.23</ele>
        <time>2015-10-10T14:58:48Z</time>
      </trkpt>
      <trkpt lat="47.63923" lon="-3.36848">
        <ele>-3.23</ele>
        <time>2015-10-10T14:58:49Z</time>
      </trkpt>
      <trkpt lat="47.63925" lon="-3.36847">
        <ele>-3.23</ele>
        <time>2015-10-10T14:58:50Z</time>
      </trkpt>
      <trkpt lat="47.63928" lon="-3.36848">
        <ele>-3.23</ele>
        <time>2015-10-10T14:58:51Z</time>
      </trkpt>
      <trkpt lat="47.63931" lon="-3.36848">
        <ele>-3.23</ele>
        <time>2015-10-10T14:58:52Z</time>
      </trkpt>
      <trkpt lat="47.63933" lon="-3.36848">
        <ele>-3.23</ele>
        <time>2015-10-10T14:58:53Z</time>
      </trkpt>
      <trkpt lat="47.63936" lon="-3.36848">
        <ele>-3.23</ele>
        <time>2015-10-10T14:58:54Z</time>
      </trkpt>
      <trkpt lat="47.63938" lon="-3.36848">
        <ele>-3.23</ele>
        <time>2015-10-10T14:58:55Z</time>
      </trkpt>
      <trkpt lat="47.63941" lon="-3.36847">
        <ele>-2.27</ele>
        <time>2015-10-10T14:58:56Z</time>
      </trkpt>
      <trkpt lat="47.63944" lon="-3.36846">
        <ele>-2.27</ele>
        <time>2015-10-10T14:58:57Z</time>
      </trkpt>
      <trkpt lat="47.63946" lon="-3.36846">
        <ele>-2.27</ele>
        <time>2015-10-10T14:58:58Z</time>
      </trkpt>
      <trkpt lat="47.63949" lon="-3.36845">
        <ele>-2.27</ele>
        <time>2015-10-10T14:58:59Z</time>
      </trkpt>
      <trkpt lat="47.63952" lon="-3.36845">
        <ele>-2.27</ele>
        <time>2015-10-10T14:59:00Z</time>
      </trkpt>
      <trkpt lat="47.63955" lon="-3.36845">
        <ele>-2.27</ele>
        <time>2015-10-10T14:59:01Z</time>
      </trkpt>
      <trkpt lat="47.63958" lon="-3.36845">
        <ele>-2.27</ele>
        <time>2015-10-10T14:59:02Z</time>
      </trkpt>
      <trkpt lat="47.63961" lon="-3.36845">
        <ele>-2.27</ele>
        <time>2015-10-10T14:59:03Z</time>
      </trkpt>
      <trkpt lat="47.63963" lon="-3.36845">
        <ele>-2.27</ele>
        <time>2015-10-10T14:59:04Z</time>
      </trkpt>
      <trkpt lat="47.63966" lon="-3.36845">
        <ele>-2.27</ele>
        <time>2015-10-10T14:59:05Z</time>
      </trkpt>
      <trkpt lat="47.63969" lon="-3.36846">
        <ele>-2.27</ele>
        <time>2015-10-10T14:59:06Z</time>
      </trkpt>
      <trkpt lat="47.63972" lon="-3.36846">
        <ele>-2.27</ele>
        <time>2015-10-10T14:59:07Z</time>
      </trkpt>
      <trkpt lat="47.63975" lon="-3.36845">
        <ele>-2.27</ele>
        <time>2015-10-10T14:59:08Z</time>
      </trkpt>
      <trkpt lat="47.63978" lon="-3.36844">
        <ele>-2.27</ele>
        <time>2015-10-10T14:59:09Z</time>
      </trkpt>
      <trkpt lat="47.6398" lon="-3.36844">
        <ele>-2.27</ele>
        <time>2015-10-10T14:59:10Z</time>
      </trkpt>
      <trkpt lat="47.63983" lon="-3.36844">
        <ele>-2.27</ele>
        <time>2015-10-10T14:59:11Z</time>
      </trkpt>
      <trkpt lat="47.63985" lon="-3.36844">
        <ele>-2.27</ele>
        <time>2015-10-10T14:59:12Z</time>
      </trkpt>
      <trkpt lat="47.63988" lon="-3.36844">
        <ele>-2.27</ele>
        <time>2015-10-10T14:59:13Z</time>
      </trkpt>
      <trkpt lat="47.63991" lon="-3.36845">
        <ele>-2.27</ele>
        <time>2015-10-10T14:59:14Z</time>
      </trkpt>
      <trkpt lat="47.63994" lon="-3.36845">
        <ele>-2.27</ele>
        <time>2015-10-10T14:59:15Z</time>
      </trkpt>
      <trkpt lat="47.63996" lon="-3.36844">
        <ele>-2.27</ele>
        <time>2015-10-10T14:59:16Z</time>
      </trkpt>
      <trkpt lat="47.63999" lon="-3.36843">
        <ele>-2.27</ele>
        <time>2015-10-10T14:59:17Z</time>
      </trkpt>
      <trkpt lat="47.64002" lon="-3.36843">
        <ele>-2.27</ele>
        <time>2015-10-10T14:59:18Z</time>
      </trkpt>
      <trkpt lat="47.64005" lon="-3.36842">
        <ele>-2.27</ele>
        <time>2015-10-10T14:59:19Z</time>
      </trkpt>
      <trkpt lat="47.64007" lon="-3.36841">
        <ele>-2.27</ele>
        <time>2015-10-10T14:59:20Z</time>
      </trkpt>
      <trkpt lat="47.6401" lon="-3.3684">
        <ele>-2.27</ele>
        <time>2015-10-10T14:59:21Z</time>
      </trkpt>
      <trkpt lat="47.64013" lon="-3.36839">
        <ele>-2.27</ele>
        <time>2015-10-10T14:59:22Z</time>
      </trkpt>
      <trkpt lat="47.64015" lon="-3.36837">
        <ele>-1.79</ele>
        <time>2015-10-10T14:59:23Z</time>
      </trkpt>
      <trkpt lat="47.64018" lon="-3.36836">
        <ele>-1.79</ele>
        <time>2015-10-10T14:59:24Z</time>
      </trkpt>
      <trkpt lat="47.64021" lon="-3.36835">
        <ele>-1.79</ele>
        <time>2015-10-10T14:59:25Z</time>
      </trkpt>
      <trkpt lat="47.64024" lon="-3.36834">
        <ele>-1.79</ele>
        <time>2015-10-10T14:59:26Z</time>
      </trkpt>
      <trkpt lat="47.64027" lon="-3.36832">
        <ele>-1.79</ele>
        <time>2015-10-10T14:59:27Z</time>
      </trkpt>
      <trkpt lat="47.64029" lon="-3.3683">
        <ele>-1.79</ele>
        <time>2015-10-10T14:59:28Z</time>
      </trkpt>
      <trkpt lat="47.64031" lon="-3.36829">
        <ele>-1.79</ele>
        <time>2015-10-10T14:59:29Z</time>
      </trkpt>
      <trkpt lat="47.64034" lon="-3.36827">
        <ele>-3.23</ele>
        <time>2015-10-10T14:59:30Z</time>
      </trkpt>
      <trkpt lat="47.64036" lon="-3.36827">
        <ele>-3.23</ele>
        <time>2015-10-10T14:59:31Z</time>
      </trkpt>
      <trkpt lat="47.64039" lon="-3.36826">
        <ele>-3.23</ele>
        <time>2015-10-10T14:59:32Z</time>
      </trkpt>
      <trkpt lat="47.64041" lon="-3.36826">
        <ele>-3.23</ele>
        <time>2015-10-10T14:59:33Z</time>
      </trkpt>
      <trkpt lat="47.64044" lon="-3.36825">
        <ele>-3.23</ele>
        <time>2015-10-10T14:59:34Z</time>
      </trkpt>
      <trkpt lat="47.64047" lon="-3.36824">
        <ele>-3.23</ele>
        <time>2015-10-10T14:59:35Z</time>
      </trkpt>
      <trkpt lat="47.64049" lon="-3.36823">
        <ele>-3.23</ele>
        <time>2015-10-10T14:59:36Z</time>
      </trkpt>
      <trkpt lat="47.64052" lon="-3.36823">
        <ele>-1.79</ele>
        <time>2015-10-10T14:59:37Z</time>
      </trkpt>
      <trkpt lat="47.64055" lon="-3.36822">
        <ele>-1.79</ele>
        <time>2015-10-10T14:59:38Z</time>
      </trkpt>
      <trkpt lat="47.64058" lon="-3.36821">
        <ele>-1.79</ele>
        <time>2015-10-10T14:59:39Z</time>
      </trkpt>
      <trkpt lat="47.6406" lon="-3.3682">
        <ele>-1.79</ele>
        <time>2015-10-10T14:59:40Z</time>
      </trkpt>
      <trkpt lat="47.64063" lon="-3.36818">
        <ele>-1.79</ele>
        <time>2015-10-10T14:59:41Z</time>
      </trkpt>
      <trkpt lat="47.64066" lon="-3.36818">
        <ele>-1.79</ele>
        <time>2015-10-10T14:59:42Z</time>
      </trkpt>
      <trkpt lat="47.64068" lon="-3.36817">
        <ele>-1.79</ele>
        <time>2015-10-10T14:59:43Z</time>
      </trkpt>
      <trkpt lat="47.64071" lon="-3.36815">
        <ele>-1.79</ele>
        <time>2015-10-10T14:59:44Z</time>
      </trkpt>
      <trkpt lat="47.64074" lon="-3.36814">
        <ele>-1.79</ele>
        <time>2015-10-10T14:59:45Z</time>
      </trkpt>
      <trkpt lat="47.64076" lon="-3.36813">
        <ele>-1.79</ele>
        <time>2015-10-10T14:59:46Z</time>
      </trkpt>
      <trkpt lat="47.64079" lon="-3.36812">
        <ele>-1.79</ele>
        <time>2015-10-10T14:59:47Z</time>
      </trkpt>
      <trkpt lat="47.64082" lon="-3.36811">
        <ele>-1.79</ele>
        <time>2015-10-10T14:59:48Z</time>
      </trkpt>
      <trkpt lat="47.64084" lon="-3.3681">
        <ele>-1.79</ele>
        <time>2015-10-10T14:59:49Z</time>
      </trkpt>
      <trkpt lat="47.64087" lon="-3.36809">
        <ele>-1.79</ele>
        <time>2015-10-10T14:59:50Z</time>
      </trkpt>
      <trkpt lat="47.64089" lon="-3.36807">
        <ele>-1.79</ele>
        <time>2015-10-10T14:59:51Z</time>
      </trkpt>
      <trkpt lat="47.64092" lon="-3.36806">
        <ele>-1.79</ele>
        <time>2015-10-10T14:59:52Z</time>
      </trkpt>
      <trkpt lat="47.64094" lon="-3.36805">
        <ele>-1.79</ele>
        <time>2015-10-10T14:59:53Z</time>
      </trkpt>
      <trkpt lat="47.64097" lon="-3.36804">
        <ele>-1.79</ele>
        <time>2015-10-10T14:59:54Z</time>
      </trkpt>
      <trkpt lat="47.64099" lon="-3.36802">
        <ele>-1.79</ele>
        <time>2015-10-10T14:59:55Z</time>
      </trkpt>
      <trkpt lat="47.64101" lon="-3.36801">
        <ele>-2.27</ele>
        <time>2015-10-10T14:59:56Z</time>
      </trkpt>
      <trkpt lat="47.64104" lon="-3.368">
        <ele>-1.79</ele>
        <time>2015-10-10T14:59:57Z</time>
      </trkpt>
      <trkpt lat="47.64106" lon="-3.36798">
        <ele>-1.79</ele>
        <time>2015-10-10T14:59:58Z</time>
      </trkpt>
      <trkpt lat="47.64109" lon="-3.36797">
        <ele>-1.79</ele>
        <time>2015-10-10T14:59:59Z</time>
      </trkpt>
      <trkpt lat="47.64111" lon="-3.36796">
        <ele>-1.79</ele>
        <time>2015-10-10T15:00:00Z</time>
      </trkpt>
      <trkpt lat="47.64113" lon="-3.36794">
        <ele>-3.23</ele>
        <time>2015-10-10T15:00:01Z</time>
      </trkpt>
      <trkpt lat="47.64116" lon="-3.36793">
        <ele>-3.23</ele>
        <time>2015-10-10T15:00:02Z</time>
      </trkpt>
      <trkpt lat="47.64118" lon="-3.36793">
        <ele>-3.23</ele>
        <time>2015-10-10T15:00:03Z</time>
      </trkpt>
      <trkpt lat="47.64121" lon="-3.36792">
        <ele>-3.23</ele>
        <time>2015-10-10T15:00:04Z</time>
      </trkpt>
      <trkpt lat="47.64123" lon="-3.36791">
        <ele>-1.79</ele>
        <time>2015-10-10T15:00:05Z</time>
      </trkpt>
      <trkpt lat="47.64126" lon="-3.3679">
        <ele>-1.79</ele>
        <time>2015-10-10T15:00:06Z</time>
      </trkpt>
      <trkpt lat="47.64128" lon="-3.36788">
        <ele>-1.79</ele>
        <time>2015-10-10T15:00:07Z</time>
      </trkpt>
      <trkpt lat="47.64131" lon="-3.36786">
        <ele>-1.79</ele>
        <time>2015-10-10T15:00:08Z</time>
      </trkpt>
      <trkpt lat="47.64133" lon="-3.36785">
        <ele>-1.79</ele>
        <time>2015-10-10T15:00:09Z</time>
      </trkpt>
      <trkpt lat="47.64136" lon="-3.36783">
        <ele>-1.79</ele>
        <time>2015-10-10T15:00:10Z</time>
      </trkpt>
      <trkpt lat="47.64139" lon="-3.36782">
        <ele>-1.79</ele>
        <time>2015-10-10T15:00:11Z</time>
      </trkpt>
      <trkpt lat="47.64141" lon="-3.3678">
        <ele>-1.79</ele>
        <time>2015-10-10T15:00:12Z</time>
      </trkpt>
      <trkpt lat="47.64143" lon="-3.36778">
        <ele>-1.79</ele>
        <time>2015-10-10T15:00:13Z</time>
      </trkpt>
      <trkpt lat="47.64145" lon="-3.36777">
        <ele>-1.79</ele>
        <time>2015-10-10T15:00:14Z</time>
      </trkpt>
      <trkpt lat="47.64148" lon="-3.36776">
        <ele>-1.79</ele>
        <time>2015-10-10T15:00:15Z</time>
      </trkpt>
      <trkpt lat="47.6415" lon="-3.36775">
        <ele>-1.79</ele>
        <time>2015-10-10T15:00:16Z</time>
      </trkpt>
      <trkpt lat="47.64152" lon="-3.36774">
        <ele>-3.23</ele>
        <time>2015-10-10T15:00:17Z</time>
      </trkpt>
      <trkpt lat="47.64155" lon="-3.36774">
        <ele>-3.23</ele>
        <time>2015-10-10T15:00:18Z</time>
      </trkpt>
      <trkpt lat="47.64157" lon="-3.36773">
        <ele>-3.23</ele>
        <time>2015-10-10T15:00:19Z</time>
      </trkpt>
      <trkpt lat="47.6416" lon="-3.36772">
        <ele>-3.23</ele>
        <time>2015-10-10T15:00:20Z</time>
      </trkpt>
      <trkpt lat="47.64162" lon="-3.3677">
        <ele>-3.23</ele>
        <time>2015-10-10T15:00:21Z</time>
      </trkpt>
      <trkpt lat="47.64164" lon="-3.36769">
        <ele>-3.23</ele>
        <time>2015-10-10T15:00:22Z</time>
      </trkpt>
      <trkpt lat="47.64167" lon="-3.36768">
        <ele>-3.23</ele>
        <time>2015-10-10T15:00:23Z</time>
      </trkpt>
      <trkpt lat="47.64169" lon="-3.36768">
        <ele>-3.23</ele>
        <time>2015-10-10T15:00:24Z</time>
      </trkpt>
      <trkpt lat="47.64172" lon="-3.36766">
        <ele>-3.23</ele>
        <time>2015-10-10T15:00:25Z</time>
      </trkpt>
      <trkpt lat="47.64174" lon="-3.36765">
        <ele>-2.27</ele>
        <time>2015-10-10T15:00:26Z</time>
      </trkpt>
      <trkpt lat="47.64177" lon="-3.36763">
        <ele>-2.27</ele>
        <time>2015-10-10T15:00:27Z</time>
      </trkpt>
      <trkpt lat="47.64179" lon="-3.36762">
        <ele>-2.27</ele>
        <time>2015-10-10T15:00:28Z</time>
      </trkpt>
      <trkpt lat="47.64181" lon="-3.3676">
        <ele>-2.27</ele>
        <time>2015-10-10T15:00:29Z</time>
      </trkpt>
      <trkpt lat="47.64184" lon="-3.36759">
        <ele>-2.27</ele>
        <time>2015-10-10T15:00:30Z</time>
      </trkpt>
      <trkpt lat="47.64187" lon="-3.36758">
        <ele>-2.27</ele>
        <time>2015-10-10T15:00:31Z</time>
      </trkpt>
      <trkpt lat="47.64189" lon="-3.36757">
        <ele>-2.27</ele>
        <time>2015-10-10T15:00:32Z</time>
      </trkpt>
      <trkpt lat="47.64192" lon="-3.36756">
        <ele>-2.27</ele>
        <time>2015-10-10T15:00:33Z</time>
      </trkpt>
      <trkpt lat="47.64195" lon="-3.36756">
        <ele>-2.27</ele>
        <time>2015-10-10T15:00:34Z</time>
      </trkpt>
      <trkpt lat="47.64198" lon="-3.36755">
        <ele>-2.27</ele>
        <time>2015-10-10T15:00:35Z</time>
      </trkpt>
      <trkpt lat="47.64201" lon="-3.36754">
        <ele>-2.27</ele>
        <time>2015-10-10T15:00:36Z</time>
      </trkpt>
      <trkpt lat="47.64203" lon="-3.36753">
        <ele>-2.27</ele>
        <time>2015-10-10T15:00:37Z</time>
      </trkpt>
      <trkpt lat="47.64206" lon="-3.36751">
        <ele>-2.27</ele>
        <time>2015-10-10T15:00:38Z</time>
      </trkpt>
      <trkpt lat="47.64208" lon="-3.3675">
        <ele>-2.27</ele>
        <time>2015-10-10T15:00:39Z</time>
      </trkpt>
      <trkpt lat="47.64211" lon="-3.36749">
        <ele>-2.27</ele>
        <time>2015-10-10T15:00:40Z</time>
      </trkpt>
      <trkpt lat="47.64213" lon="-3.36748">
        <ele>-2.27</ele>
        <time>2015-10-10T15:00:41Z</time>
      </trkpt>
      <trkpt lat="47.64215" lon="-3.36747">
        <ele>-2.27</ele>
        <time>2015-10-10T15:00:42Z</time>
      </trkpt>
      <trkpt lat="47.64218" lon="-3.36746">
        <ele>-3.71</ele>
        <time>2015-10-10T15:00:43Z</time>
      </trkpt>
      <trkpt lat="47.6422" lon="-3.36745">
        <ele>-3.71</ele>
        <time>2015-10-10T15:00:44Z</time>
      </trkpt>
      <trkpt lat="47.64222" lon="-3.36744">
        <ele>-3.71</ele>
        <time>2015-10-10T15:00:45Z</time>
      </trkpt>
      <trkpt lat="47.64225" lon="-3.36743">
        <ele>-3.71</ele>
        <time>2015-10-10T15:00:46Z</time>
      </trkpt>
      <trkpt lat="47.64227" lon="-3.36743">
        <ele>-3.71</ele>
        <time>2015-10-10T15:00:47Z</time>
      </trkpt>
      <trkpt lat="47.6423" lon="-3.36742">
        <ele>-3.71</ele>
        <time>2015-10-10T15:00:48Z</time>
      </trkpt>
      <trkpt lat="47.64232" lon="-3.36741">
        <ele>-3.71</ele>
        <time>2015-10-10T15:00:49Z</time>
      </trkpt>
      <trkpt lat="47.64235" lon="-3.36739">
        <ele>-3.71</ele>
        <time>2015-10-10T15:00:50Z</time>
      </trkpt>
      <trkpt lat="47.64238" lon="-3.36738">
        <ele>-3.71</ele>
        <time>2015-10-10T15:00:51Z</time>
      </trkpt>
      <trkpt lat="47.6424" lon="-3.36737">
        <ele>-3.71</ele>
        <time>2015-10-10T15:00:52Z</time>
      </trkpt>
      <trkpt lat="47.64243" lon="-3.36736">
        <ele>-3.71</ele>
        <time>2015-10-10T15:00:53Z</time>
      </trkpt>
      <trkpt lat="47.64245" lon="-3.36735">
        <ele>-3.71</ele>
        <time>2015-10-10T15:00:54Z</time>
      </trkpt>
      <trkpt lat="47.64248" lon="-3.36734">
        <ele>-2.27</ele>
        <time>2015-10-10T15:00:55Z</time>
      </trkpt>
      <trkpt lat="47.64251" lon="-3.36733">
        <ele>-2.27</ele>
        <time>2015-10-10T15:00:56Z</time>
      </trkpt>
      <trkpt lat="47.64253" lon="-3.36732">
        <ele>-2.27</ele>
        <time>2015-10-10T15:00:57Z</time>
      </trkpt>
      <trkpt lat="47.64256" lon="-3.36731">
        <ele>-2.27</ele>
        <time>2015-10-10T15:00:58Z</time>
      </trkpt>
      <trkpt lat="47.64259" lon="-3.3673">
        <ele>-2.27</ele>
        <time>2015-10-10T15:00:59Z</time>
      </trkpt>
      <trkpt lat="47.64262" lon="-3.36729">
        <ele>-2.27</ele>
        <time>2015-10-10T15:01:00Z</time>
      </trkpt>
      <trkpt lat="47.64264" lon="-3.36728">
        <ele>-2.27</ele>
        <time>2015-10-10T15:01:01Z</time>
      </trkpt>
      <trkpt lat="47.64267" lon="-3.36727">
        <ele>-4.19</ele>
        <time>2015-10-10T15:01:02Z</time>
      </trkpt>
      <trkpt lat="47.6427" lon="-3.36726">
        <ele>-4.67</ele>
        <time>2015-10-10T15:01:03Z</time>
      </trkpt>
      <trkpt lat="47.64272" lon="-3.36726">
        <ele>-4.67</ele>
        <time>2015-10-10T15:01:04Z</time>
      </trkpt>
      <trkpt lat="47.64275" lon="-3.36727">
        <ele>-4.67</ele>
        <time>2015-10-10T15:01:05Z</time>
      </trkpt>
      <trkpt lat="47.64277" lon="-3.36726">
        <ele>-4.67</ele>
        <time>2015-10-10T15:01:06Z</time>
      </trkpt>
      <trkpt lat="47.6428" lon="-3.36726">
        <ele>-4.67</ele>
        <time>2015-10-10T15:01:07Z</time>
      </trkpt>
      <trkpt lat="47.64282" lon="-3.36725">
        <ele>-3.23</ele>
        <time>2015-10-10T15:01:08Z</time>
      </trkpt>
      <trkpt lat="47.64285" lon="-3.36724">
        <ele>-3.23</ele>
        <time>2015-10-10T15:01:09Z</time>
      </trkpt>
      <trkpt lat="47.64287" lon="-3.36724">
        <ele>-3.23</ele>
        <time>2015-10-10T15:01:10Z</time>
      </trkpt>
      <trkpt lat="47.64289" lon="-3.36723">
        <ele>-2.75</ele>
        <time>2015-10-10T15:01:11Z</time>
      </trkpt>
      <trkpt lat="47.64292" lon="-3.36722">
        <ele>-2.75</ele>
        <time>2015-10-10T15:01:12Z</time>
      </trkpt>
      <trkpt lat="47.64294" lon="-3.36721">
        <ele>-2.75</ele>
        <time>2015-10-10T15:01:13Z</time>
      </trkpt>
      <trkpt lat="47.64297" lon="-3.3672">
        <ele>-2.75</ele>
        <time>2015-10-10T15:01:14Z</time>
      </trkpt>
      <trkpt lat="47.643" lon="-3.3672">
        <ele>-2.75</ele>
        <time>2015-10-10T15:01:15Z</time>
      </trkpt>
      <trkpt lat="47.64303" lon="-3.36719">
        <ele>-2.75</ele>
        <time>2015-10-10T15:01:16Z</time>
      </trkpt>
      <trkpt lat="47.64306" lon="-3.36719">
        <ele>-2.75</ele>
        <time>2015-10-10T15:01:17Z</time>
      </trkpt>
      <trkpt lat="47.64309" lon="-3.36719">
        <ele>-2.75</ele>
        <time>2015-10-10T15:01:18Z</time>
      </trkpt>
      <trkpt lat="47.64312" lon="-3.36719">
        <ele>-2.75</ele>
        <time>2015-10-10T15:01:19Z</time>
      </trkpt>
      <trkpt lat="47.64315" lon="-3.36719">
        <ele>-2.75</ele>
        <time>2015-10-10T15:01:20Z</time>
      </trkpt>
      <trkpt lat="47.64318" lon="-3.36719">
        <ele>-2.75</ele>
        <time>2015-10-10T15:01:21Z</time>
      </trkpt>
      <trkpt lat="47.64321" lon="-3.36718">
        <ele>-2.75</ele>
        <time>2015-10-10T15:01:22Z</time>
      </trkpt>
      <trkpt lat="47.64323" lon="-3.36718">
        <ele>-2.75</ele>
        <time>2015-10-10T15:01:23Z</time>
      </trkpt>
      <trkpt lat="47.64326" lon="-3.36718">
        <ele>-2.75</ele>
        <time>2015-10-10T15:01:24Z</time>
      </trkpt>
      <trkpt lat="47.64328" lon="-3.36719">
        <ele>-2.75</ele>
        <time>2015-10-10T15:01:25Z</time>
      </trkpt>
      <trkpt lat="47.64331" lon="-3.36719">
        <ele>-4.19</ele>
        <time>2015-10-10T15:01:26Z</time>
      </trkpt>
      <trkpt lat="47.64333" lon="-3.36719">
        <ele>-3.71</ele>
        <time>2015-10-10T15:01:27Z</time>
      </trkpt>
      <trkpt lat="47.64335" lon="-3.36719">
        <ele>-4.19</ele>
        <time>2015-10-10T15:01:28Z</time>
      </trkpt>
      <trkpt lat="47.64338" lon="-3.36719">
        <ele>-4.19</ele>
        <time>2015-10-10T15:01:29Z</time>
      </trkpt>
      <trkpt lat="47.6434" lon="-3.36719">
        <ele>-4.19</ele>
        <time>2015-10-10T15:01:30Z</time>
      </trkpt>
      <trkpt lat="47.64343" lon="-3.36719">
        <ele>-4.19</ele>
        <time>2015-10-10T15:01:31Z</time>
      </trkpt>
      <trkpt lat="47.64345" lon="-3.36719">
        <ele>-4.19</ele>
        <time>2015-10-10T15:01:32Z</time>
      </trkpt>
      <trkpt lat="47.64348" lon="-3.3672">
        <ele>-4.19</ele>
        <time>2015-10-10T15:01:33Z</time>
      </trkpt>
      <trkpt lat="47.64351" lon="-3.36721">
        <ele>-4.19</ele>
        <time>2015-10-10T15:01:34Z</time>
      </trkpt>
      <trkpt lat="47.64353" lon="-3.36721">
        <ele>-4.19</ele>
        <time>2015-10-10T15:01:35Z</time>
      </trkpt>
      <trkpt lat="47.64356" lon="-3.36721">
        <ele>-3.71</ele>
        <time>2015-10-10T15:01:36Z</time>
      </trkpt>
      <trkpt lat="47.64359" lon="-3.36722">
        <ele>-3.71</ele>
        <time>2015-10-10T15:01:37Z</time>
      </trkpt>
      <trkpt lat="47.64362" lon="-3.36722">
        <ele>-3.71</ele>
        <time>2015-10-10T15:01:38Z</time>
      </trkpt>
      <trkpt lat="47.64364" lon="-3.36723">
        <ele>-2.75</ele>
        <time>2015-10-10T15:01:39Z</time>
      </trkpt>
      <trkpt lat="47.64367" lon="-3.36724">
        <ele>-2.75</ele>
        <time>2015-10-10T15:01:40Z</time>
      </trkpt>
      <trkpt lat="47.64369" lon="-3.36725">
        <ele>-2.75</ele>
        <time>2015-10-10T15:01:41Z</time>
      </trkpt>
      <trkpt lat="47.64372" lon="-3.36726">
        <ele>-2.75</ele>
        <time>2015-10-10T15:01:42Z</time>
      </trkpt>
      <trkpt lat="47.64375" lon="-3.36726">
        <ele>-2.27</ele>
        <time>2015-10-10T15:01:43Z</time>
      </trkpt>
      <trkpt lat="47.64378" lon="-3.36727">
        <ele>-2.27</ele>
        <time>2015-10-10T15:01:44Z</time>
      </trkpt>
      <trkpt lat="47.64381" lon="-3.36727">
        <ele>-2.27</ele>
        <time>2015-10-10T15:01:45Z</time>
      </trkpt>
      <trkpt lat="47.64383" lon="-3.36728">
        <ele>-3.23</ele>
        <time>2015-10-10T15:01:46Z</time>
      </trkpt>
      <trkpt lat="47.64385" lon="-3.36728">
        <ele>-3.23</ele>
        <time>2015-10-10T15:01:47Z</time>
      </trkpt>
      <trkpt lat="47.64387" lon="-3.3673">
        <ele>-3.71</ele>
        <time>2015-10-10T15:01:48Z</time>
      </trkpt>
      <trkpt lat="47.6439" lon="-3.36732">
        <ele>-3.71</ele>
        <time>2015-10-10T15:01:49Z</time>
      </trkpt>
      <trkpt lat="47.64392" lon="-3.36733">
        <ele>-3.71</ele>
        <time>2015-10-10T15:01:50Z</time>
      </trkpt>
      <trkpt lat="47.64395" lon="-3.36734">
        <ele>-3.71</ele>
        <time>2015-10-10T15:01:51Z</time>
      </trkpt>
      <trkpt lat="47.64397" lon="-3.36734">
        <ele>-3.71</ele>
        <time>2015-10-10T15:01:52Z</time>
      </trkpt>
      <trkpt lat="47.644" lon="-3.36736">
        <ele>-3.71</ele>
        <time>2015-10-10T15:01:53Z</time>
      </trkpt>
      <trkpt lat="47.64402" lon="-3.36737">
        <ele>-3.71</ele>
        <time>2015-10-10T15:01:54Z</time>
      </trkpt>
      <trkpt lat="47.64404" lon="-3.36738">
        <ele>-3.71</ele>
        <time>2015-10-10T15:01:55Z</time>
      </trkpt>
      <trkpt lat="47.64407" lon="-3.36739">
        <ele>-3.71</ele>
        <time>2015-10-10T15:01:56Z</time>
      </trkpt>
      <trkpt lat="47.64409" lon="-3.36741">
        <ele>-2.75</ele>
        <time>2015-10-10T15:01:57Z</time>
      </trkpt>
      <trkpt lat="47.64412" lon="-3.36742">
        <ele>-2.27</ele>
        <time>2015-10-10T15:01:58Z</time>
      </trkpt>
      <trkpt lat="47.64415" lon="-3.36743">
        <ele>-2.27</ele>
        <time>2015-10-10T15:01:59Z</time>
      </trkpt>
      <trkpt lat="47.64417" lon="-3.36744">
        <ele>-2.27</ele>
        <time>2015-10-10T15:02:00Z</time>
      </trkpt>
      <trkpt lat="47.6442" lon="-3.36745">
        <ele>-2.27</ele>
        <time>2015-10-10T15:02:01Z</time>
      </trkpt>
      <trkpt lat="47.64423" lon="-3.36745">
        <ele>-2.27</ele>
        <time>2015-10-10T15:02:02Z</time>
      </trkpt>
      <trkpt lat="47.64426" lon="-3.36746">
        <ele>-2.27</ele>
        <time>2015-10-10T15:02:03Z</time>
      </trkpt>
      <trkpt lat="47.64428" lon="-3.36747">
        <ele>-2.27</ele>
        <time>2015-10-10T15:02:04Z</time>
      </trkpt>
      <trkpt lat="47.64431" lon="-3.36749">
        <ele>-2.27</ele>
        <time>2015-10-10T15:02:05Z</time>
      </trkpt>
      <trkpt lat="47.64434" lon="-3.3675">
        <ele>-2.27</ele>
        <time>2015-10-10T15:02:06Z</time>
      </trkpt>
      <trkpt lat="47.64436" lon="-3.36751">
        <ele>-2.27</ele>
        <time>2015-10-10T15:02:07Z</time>
      </trkpt>
      <trkpt lat="47.64439" lon="-3.36752">
        <ele>-2.27</ele>
        <time>2015-10-10T15:02:08Z</time>
      </trkpt>
      <trkpt lat="47.64441" lon="-3.36753">
        <ele>-3.71</ele>
        <time>2015-10-10T15:02:09Z</time>
      </trkpt>
      <trkpt lat="47.64443" lon="-3.36755">
        <ele>-3.71</ele>
        <time>2015-10-10T15:02:10Z</time>
      </trkpt>
      <trkpt lat="47.64446" lon="-3.36757">
        <ele>-3.71</ele>
        <time>2015-10-10T15:02:11Z</time>
      </trkpt>
      <trkpt lat="47.64449" lon="-3.36758">
        <ele>-3.23</ele>
        <time>2015-10-10T15:02:12Z</time>
      </trkpt>
      <trkpt lat="47.64451" lon="-3.36759">
        <ele>-3.23</ele>
        <time>2015-10-10T15:02:13Z</time>
      </trkpt>
      <trkpt lat="47.64454" lon="-3.3676">
        <ele>-3.23</ele>
        <time>2015-10-10T15:02:14Z</time>
      </trkpt>
      <trkpt lat="47.64456" lon="-3.36761">
        <ele>-3.71</ele>
        <time>2015-10-10T15:02:15Z</time>
      </trkpt>
      <trkpt lat="47.64458" lon="-3.36762">
        <ele>-3.71</ele>
        <time>2015-10-10T15:02:16Z</time>
      </trkpt>
      <trkpt lat="47.64461" lon="-3.36764">
        <ele>-3.71</ele>
        <time>2015-10-10T15:02:17Z</time>
      </trkpt>
      <trkpt lat="47.64463" lon="-3.36765">
        <ele>-3.71</ele>
        <time>2015-10-10T15:02:18Z</time>
      </trkpt>
      <trkpt lat="47.64466" lon="-3.36766">
        <ele>-3.71</ele>
        <time>2015-10-10T15:02:19Z</time>
      </trkpt>
      <trkpt lat="47.64468" lon="-3.36766">
        <ele>-3.71</ele>
        <time>2015-10-10T15:02:20Z</time>
      </trkpt>
      <trkpt lat="47.64471" lon="-3.36767">
        <ele>-3.71</ele>
        <time>2015-10-10T15:02:21Z</time>
      </trkpt>
      <trkpt lat="47.64473" lon="-3.36768">
        <ele>-3.71</ele>
        <time>2015-10-10T15:02:22Z</time>
      </trkpt>
      <trkpt lat="47.64476" lon="-3.36769">
        <ele>-3.71</ele>
        <time>2015-10-10T15:02:23Z</time>
      </trkpt>
      <trkpt lat="47.64478" lon="-3.3677">
        <ele>-3.23</ele>
        <time>2015-10-10T15:02:24Z</time>
      </trkpt>
      <trkpt lat="47.64481" lon="-3.3677">
        <ele>-3.23</ele>
        <time>2015-10-10T15:02:25Z</time>
      </trkpt>
      <trkpt lat="47.64484" lon="-3.3677">
        <ele>-3.23</ele>
        <time>2015-10-10T15:02:26Z</time>
      </trkpt>
      <trkpt lat="47.64486" lon="-3.36771">
        <ele>-3.71</ele>
        <time>2015-10-10T15:02:27Z</time>
      </trkpt>
      <trkpt lat="47.64489" lon="-3.3677">
        <ele>-3.71</ele>
        <time>2015-10-10T15:02:28Z</time>
      </trkpt>
      <trkpt lat="47.64491" lon="-3.3677">
        <ele>-3.71</ele>
        <time>2015-10-10T15:02:29Z</time>
      </trkpt>
      <trkpt lat="47.64494" lon="-3.3677">
        <ele>-3.71</ele>
        <time>2015-10-10T15:02:30Z</time>
      </trkpt>
      <trkpt lat="47.64497" lon="-3.36769">
        <ele>-3.71</ele>
        <time>2015-10-10T15:02:31Z</time>
      </trkpt>
      <trkpt lat="47.645" lon="-3.36769">
        <ele>-3.71</ele>
        <time>2015-10-10T15:02:32Z</time>
      </trkpt>
      <trkpt lat="47.64502" lon="-3.36769">
        <ele>-3.71</ele>
        <time>2015-10-10T15:02:33Z</time>
      </trkpt>
      <trkpt lat="47.64505" lon="-3.36769">
        <ele>-3.71</ele>
        <time>2015-10-10T15:02:34Z</time>
      </trkpt>
      <trkpt lat="47.64507" lon="-3.3677">
        <ele>-3.71</ele>
        <time>2015-10-10T15:02:35Z</time>
      </trkpt>
      <trkpt lat="47.6451" lon="-3.36771">
        <ele>-3.71</ele>
        <time>2015-10-10T15:02:36Z</time>
      </trkpt>
      <trkpt lat="47.64513" lon="-3.36772">
        <ele>-3.71</ele>
        <time>2015-10-10T15:02:37Z</time>
      </trkpt>
      <trkpt lat="47.64515" lon="-3.36772">
        <ele>-3.23</ele>
        <time>2015-10-10T15:02:38Z</time>
      </trkpt>
      <trkpt lat="47.64518" lon="-3.36773">
        <ele>-3.23</ele>
        <time>2015-10-10T15:02:39Z</time>
      </trkpt>
      <trkpt lat="47.64521" lon="-3.36774">
        <ele>-3.23</ele>
        <time>2015-10-10T15:02:40Z</time>
      </trkpt>
      <trkpt lat="47.64523" lon="-3.36775">
        <ele>-3.23</ele>
        <time>2015-10-10T15:02:41Z</time>
      </trkpt>
      <trkpt lat="47.64526" lon="-3.36776">
        <ele>-3.23</ele>
        <time>2015-10-10T15:02:42Z</time>
      </trkpt>
      <trkpt lat="47.64529" lon="-3.36776">
        <ele>-3.23</ele>
        <time>2015-10-10T15:02:43Z</time>
      </trkpt>
      <trkpt lat="47.64532" lon="-3.36777">
        <ele>-3.23</ele>
        <time>2015-10-10T15:02:44Z</time>
      </trkpt>
      <trkpt lat="47.64535" lon="-3.36778">
        <ele>-3.23</ele>
        <time>2015-10-10T15:02:45Z</time>
      </trkpt>
      <trkpt lat="47.64537" lon="-3.36779">
        <ele>-2.27</ele>
        <time>2015-10-10T15:02:46Z</time>
      </trkpt>
      <trkpt lat="47.6454" lon="-3.36779">
        <ele>-2.27</ele>
        <time>2015-10-10T15:02:47Z</time>
      </trkpt>
      <trkpt lat="47.64543" lon="-3.3678">
        <ele>-2.27</ele>
        <time>2015-10-10T15:02:48Z</time>
      </trkpt>
      <trkpt lat="47.64546" lon="-3.36779">
        <ele>-2.27</ele>
        <time>2015-10-10T15:02:49Z</time>
      </trkpt>
      <trkpt lat="47.64548" lon="-3.36778">
        <ele>-2.27</ele>
        <time>2015-10-10T15:02:50Z</time>
      </trkpt>
      <trkpt lat="47.6455" lon="-3.36777">
        <ele>-2.27</ele>
        <time>2015-10-10T15:02:51Z</time>
      </trkpt>
      <trkpt lat="47.64553" lon="-3.36775">
        <ele>-2.27</ele>
        <time>2015-10-10T15:02:52Z</time>
      </trkpt>
      <trkpt lat="47.64556" lon="-3.36774">
        <ele>-2.27</ele>
        <time>2015-10-10T15:02:53Z</time>
      </trkpt>
      <trkpt lat="47.64558" lon="-3.36773">
        <ele>-2.27</ele>
        <time>2015-10-10T15:02:54Z</time>
      </trkpt>
      <trkpt lat="47.64561" lon="-3.36773">
        <ele>-2.27</ele>
        <time>2015-10-10T15:02:55Z</time>
      </trkpt>
      <trkpt lat="47.64564" lon="-3.36772">
        <ele>-3.23</ele>
        <time>2015-10-10T15:02:56Z</time>
      </trkpt>
      <trkpt lat="47.64567" lon="-3.36772">
        <ele>-3.71</ele>
        <time>2015-10-10T15:02:57Z</time>
      </trkpt>
      <trkpt lat="47.64569" lon="-3.36772">
        <ele>-3.71</ele>
        <time>2015-10-10T15:02:58Z</time>
      </trkpt>
      <trkpt lat="47.64572" lon="-3.36772">
        <ele>-3.23</ele>
        <time>2015-10-10T15:02:59Z</time>
      </trkpt>
      <trkpt lat="47.64575" lon="-3.36772">
        <ele>-3.23</ele>
        <time>2015-10-10T15:03:00Z</time>
      </trkpt>
      <trkpt lat="47.64578" lon="-3.36772">
        <ele>-3.23</ele>
        <time>2015-10-10T15:03:01Z</time>
      </trkpt>
      <trkpt lat="47.64581" lon="-3.36772">
        <ele>-3.71</ele>
        <time>2015-10-10T15:03:02Z</time>
      </trkpt>
      <trkpt lat="47.64584" lon="-3.36772">
        <ele>-3.71</ele>
        <time>2015-10-10T15:03:03Z</time>
      </trkpt>
      <trkpt lat="47.64587" lon="-3.36771">
        <ele>-3.71</ele>
        <time>2015-10-10T15:03:04Z</time>
      </trkpt>
      <trkpt lat="47.64589" lon="-3.36771">
        <ele>-3.71</ele>
        <time>2015-10-10T15:03:05Z</time>
      </trkpt>
      <trkpt lat="47.64592" lon="-3.36771">
        <ele>-3.71</ele>
        <time>2015-10-10T15:03:06Z</time>
      </trkpt>
      <trkpt lat="47.64595" lon="-3.36772">
        <ele>-3.71</ele>
        <time>2015-10-10T15:03:07Z</time>
      </trkpt>
      <trkpt lat="47.64598" lon="-3.36772">
        <ele>-3.71</ele>
        <time>2015-10-10T15:03:08Z</time>
      </trkpt>
      <trkpt lat="47.646" lon="-3.36773">
        <ele>-3.71</ele>
        <time>2015-10-10T15:03:09Z</time>
      </trkpt>
      <trkpt lat="47.64603" lon="-3.36773">
        <ele>-3.71</ele>
        <time>2015-10-10T15:03:10Z</time>
      </trkpt>
      <trkpt lat="47.64606" lon="-3.36773">
        <ele>-3.71</ele>
        <time>2015-10-10T15:03:11Z</time>
      </trkpt>
      <trkpt lat="47.64609" lon="-3.36773">
        <ele>-3.71</ele>
        <time>2015-10-10T15:03:12Z</time>
      </trkpt>
      <trkpt lat="47.64612" lon="-3.36772">
        <ele>-3.71</ele>
        <time>2015-10-10T15:03:13Z</time>
      </trkpt>
      <trkpt lat="47.64615" lon="-3.36773">
        <ele>-3.71</ele>
        <time>2015-10-10T15:03:14Z</time>
      </trkpt>
      <trkpt lat="47.64618" lon="-3.36774">
        <ele>-3.71</ele>
        <time>2015-10-10T15:03:15Z</time>
      </trkpt>
      <trkpt lat="47.64621" lon="-3.36774">
        <ele>-3.71</ele>
        <time>2015-10-10T15:03:16Z</time>
      </trkpt>
      <trkpt lat="47.64624" lon="-3.36775">
        <ele>-3.71</ele>
        <time>2015-10-10T15:03:17Z</time>
      </trkpt>
      <trkpt lat="47.64627" lon="-3.36775">
        <ele>-3.71</ele>
        <time>2015-10-10T15:03:18Z</time>
      </trkpt>
      <trkpt lat="47.6463" lon="-3.36775">
        <ele>-3.71</ele>
        <time>2015-10-10T15:03:19Z</time>
      </trkpt>
      <trkpt lat="47.64632" lon="-3.36776">
        <ele>-3.71</ele>
        <time>2015-10-10T15:03:20Z</time>
      </trkpt>
      <trkpt lat="47.64635" lon="-3.36776">
        <ele>-3.71</ele>
        <time>2015-10-10T15:03:21Z</time>
      </trkpt>
      <trkpt lat="47.64637" lon="-3.36776">
        <ele>-3.71</ele>
        <time>2015-10-10T15:03:22Z</time>
      </trkpt>
      <trkpt lat="47.6464" lon="-3.36777">
        <ele>-3.71</ele>
        <time>2015-10-10T15:03:23Z</time>
      </trkpt>
      <trkpt lat="47.64642" lon="-3.36778">
        <ele>-3.71</ele>
        <time>2015-10-10T15:03:24Z</time>
      </trkpt>
      <trkpt lat="47.64645" lon="-3.3678">
        <ele>-3.71</ele>
        <time>2015-10-10T15:03:25Z</time>
      </trkpt>
      <trkpt lat="47.64648" lon="-3.36781">
        <ele>-3.71</ele>
        <time>2015-10-10T15:03:26Z</time>
      </trkpt>
      <trkpt lat="47.64651" lon="-3.36781">
        <ele>-3.71</ele>
        <time>2015-10-10T15:03:27Z</time>
      </trkpt>
      <trkpt lat="47.64654" lon="-3.36782">
        <ele>-3.71</ele>
        <time>2015-10-10T15:03:28Z</time>
      </trkpt>
      <trkpt lat="47.64656" lon="-3.36783">
        <ele>-3.71</ele>
        <time>2015-10-10T15:03:29Z</time>
      </trkpt>
      <trkpt lat="47.64659" lon="-3.36784">
        <ele>-3.71</ele>
        <time>2015-10-10T15:03:30Z</time>
      </trkpt>
      <trkpt lat="47.64662" lon="-3.36784">
        <ele>-3.71</ele>
        <time>2015-10-10T15:03:31Z</time>
      </trkpt>
      <trkpt lat="47.64664" lon="-3.36785">
        <ele>-3.71</ele>
        <time>2015-10-10T15:03:32Z</time>
      </trkpt>
      <trkpt lat="47.64667" lon="-3.36786">
        <ele>-3.71</ele>
        <time>2015-10-10T15:03:33Z</time>
      </trkpt>
      <trkpt lat="47.64669" lon="-3.36787">
        <ele>-3.71</ele>
        <time>2015-10-10T15:03:34Z</time>
      </trkpt>
      <trkpt lat="47.64672" lon="-3.36787">
        <ele>-3.71</ele>
        <time>2015-10-10T15:03:35Z</time>
      </trkpt>
      <trkpt lat="47.64674" lon="-3.36788">
        <ele>-3.71</ele>
        <time>2015-10-10T15:03:36Z</time>
      </trkpt>
      <trkpt lat="47.64676" lon="-3.36789">
        <ele>-3.23</ele>
        <time>2015-10-10T15:03:37Z</time>
      </trkpt>
      <trkpt lat="47.64678" lon="-3.36791">
        <ele>-3.71</ele>
        <time>2015-10-10T15:03:38Z</time>
      </trkpt>
      <trkpt lat="47.64681" lon="-3.36792">
        <ele>-3.71</ele>
        <time>2015-10-10T15:03:39Z</time>
      </trkpt>
      <trkpt lat="47.64684" lon="-3.36792">
        <ele>-3.23</ele>
        <time>2015-10-10T15:03:40Z</time>
      </trkpt>
      <trkpt lat="47.64687" lon="-3.36793">
        <ele>-3.71</ele>
        <time>2015-10-10T15:03:41Z</time>
      </trkpt>
      <trkpt lat="47.64689" lon="-3.36794">
        <ele>-3.71</ele>
        <time>2015-10-10T15:03:42Z</time>
      </trkpt>
      <trkpt lat="47.64691" lon="-3.36795">
        <ele>-3.71</ele>
        <time>2015-10-10T15:03:43Z</time>
      </trkpt>
      <trkpt lat="47.64694" lon="-3.36796">
        <ele>-3.71</ele>
        <time>2015-10-10T15:03:44Z</time>
      </trkpt>
      <trkpt lat="47.64697" lon="-3.36796">
        <ele>-3.71</ele>
        <time>2015-10-10T15:03:45Z</time>
      </trkpt>
      <trkpt lat="47.647" lon="-3.36797">
        <ele>-3.71</ele>
        <time>2015-10-10T15:03:46Z</time>
      </trkpt>
      <trkpt lat="47.64702" lon="-3.36798">
        <ele>-3.23</ele>
        <time>2015-10-10T15:03:47Z</time>
      </trkpt>
      <trkpt lat="47.64705" lon="-3.36798">
        <ele>-3.23</ele>
        <time>2015-10-10T15:03:48Z</time>
      </trkpt>
      <trkpt lat="47.64708" lon="-3.36799">
        <ele>-3.23</ele>
        <time>2015-10-10T15:03:49Z</time>
      </trkpt>
      <trkpt lat="47.6471" lon="-3.368">
        <ele>-3.23</ele>
        <time>2015-10-10T15:03:50Z</time>
      </trkpt>
      <trkpt lat="47.64713" lon="-3.368">
        <ele>-3.23</ele>
        <time>2015-10-10T15:03:51Z</time>
      </trkpt>
      <trkpt lat="47.64715" lon="-3.368">
        <ele>-3.23</ele>
        <time>2015-10-10T15:03:52Z</time>
      </trkpt>
      <trkpt lat="47.64718" lon="-3.368">
        <ele>-3.23</ele>
        <time>2015-10-10T15:03:53Z</time>
      </trkpt>
      <trkpt lat="47.6472" lon="-3.36801">
        <ele>-3.23</ele>
        <time>2015-10-10T15:03:54Z</time>
      </trkpt>
      <trkpt lat="47.64723" lon="-3.36801">
        <ele>-3.23</ele>
        <time>2015-10-10T15:03:55Z</time>
      </trkpt>
      <trkpt lat="47.64726" lon="-3.36802">
        <ele>-3.23</ele>
        <time>2015-10-10T15:03:56Z</time>
      </trkpt>
      <trkpt lat="47.64728" lon="-3.36802">
        <ele>-3.23</ele>
        <time>2015-10-10T15:03:57Z</time>
      </trkpt>
      <trkpt lat="47.64731" lon="-3.36802">
        <ele>-3.23</ele>
        <time>2015-10-10T15:03:58Z</time>
      </trkpt>
      <trkpt lat="47.64733" lon="-3.36802">
        <ele>-3.23</ele>
        <time>2015-10-10T15:03:59Z</time>
      </trkpt>
      <trkpt lat="47.64736" lon="-3.36803">
        <ele>-3.23</ele>
        <time>2015-10-10T15:04:00Z</time>
      </trkpt>
      <trkpt lat="47.64739" lon="-3.36803">
        <ele>-3.23</ele>
        <time>2015-10-10T15:04:01Z</time>
      </trkpt>
      <trkpt lat="47.64741" lon="-3.36803">
        <ele>-3.23</ele>
        <time>2015-10-10T15:04:02Z</time>
      </trkpt>
      <trkpt lat="47.64744" lon="-3.36803">
        <ele>-3.23</ele>
        <time>2015-10-10T15:04:03Z</time>
      </trkpt>
      <trkpt lat="47.64747" lon="-3.36803">
        <ele>-3.23</ele>
        <time>2015-10-10T15:04:04Z</time>
      </trkpt>
      <trkpt lat="47.64749" lon="-3.36803">
        <ele>-3.23</ele>
        <time>2015-10-10T15:04:05Z</time>
      </trkpt>
      <trkpt lat="47.64752" lon="-3.36804">
        <ele>-3.23</ele>
        <time>2015-10-10T15:04:06Z</time>
      </trkpt>
      <trkpt lat="47.64755" lon="-3.36804">
        <ele>-3.71</ele>
        <time>2015-10-10T15:04:07Z</time>
      </trkpt>
      <trkpt lat="47.64757" lon="-3.36805">
        <ele>-3.71</ele>
        <time>2015-10-10T15:04:08Z</time>
      </trkpt>
      <trkpt lat="47.6476" lon="-3.36806">
        <ele>-3.71</ele>
        <time>2015-10-10T15:04:09Z</time>
      </trkpt>
      <trkpt lat="47.64763" lon="-3.36806">
        <ele>-2.27</ele>
        <time>2015-10-10T15:04:10Z</time>
      </trkpt>
      <trkpt lat="47.64766" lon="-3.36806">
        <ele>-2.27</ele>
        <time>2015-10-10T15:04:11Z</time>
      </trkpt>
      <trkpt lat="47.64769" lon="-3.36805">
        <ele>-2.27</ele>
        <time>2015-10-10T15:04:12Z</time>
      </trkpt>
      <trkpt lat="47.64771" lon="-3.36805">
        <ele>-2.27</ele>
        <time>2015-10-10T15:04:13Z</time>
      </trkpt>
      <trkpt lat="47.64774" lon="-3.36805">
        <ele>-2.27</ele>
        <time>2015-10-10T15:04:14Z</time>
      </trkpt>
      <trkpt lat="47.64777" lon="-3.36805">
        <ele>-3.71</ele>
        <time>2015-10-10T15:04:15Z</time>
      </trkpt>
      <trkpt lat="47.6478" lon="-3.36805">
        <ele>-3.71</ele>
        <time>2015-10-10T15:04:16Z</time>
      </trkpt>
      <trkpt lat="47.64782" lon="-3.36806">
        <ele>-3.71</ele>
        <time>2015-10-10T15:04:17Z</time>
      </trkpt>
      <trkpt lat="47.64785" lon="-3.36807">
        <ele>-3.71</ele>
        <time>2015-10-10T15:04:18Z</time>
      </trkpt>
      <trkpt lat="47.64788" lon="-3.36808">
        <ele>-3.71</ele>
        <time>2015-10-10T15:04:19Z</time>
      </trkpt>
      <trkpt lat="47.6479" lon="-3.36808">
        <ele>-3.71</ele>
        <time>2015-10-10T15:04:20Z</time>
      </trkpt>
      <trkpt lat="47.64793" lon="-3.36808">
        <ele>-3.71</ele>
        <time>2015-10-10T15:04:21Z</time>
      </trkpt>
      <trkpt lat="47.64795" lon="-3.36809">
        <ele>-3.71</ele>
        <time>2015-10-10T15:04:22Z</time>
      </trkpt>
      <trkpt lat="47.64798" lon="-3.36809">
        <ele>-3.71</ele>
        <time>2015-10-10T15:04:23Z</time>
      </trkpt>
      <trkpt lat="47.64801" lon="-3.3681">
        <ele>-3.71</ele>
        <time>2015-10-10T15:04:24Z</time>
      </trkpt>
      <trkpt lat="47.64803" lon="-3.3681">
        <ele>-3.71</ele>
        <time>2015-10-10T15:04:25Z</time>
      </trkpt>
      <trkpt lat="47.64806" lon="-3.3681">
        <ele>-3.71</ele>
        <time>2015-10-10T15:04:26Z</time>
      </trkpt>
      <trkpt lat="47.64809" lon="-3.36811">
        <ele>-3.71</ele>
        <time>2015-10-10T15:04:27Z</time>
      </trkpt>
      <trkpt lat="47.64811" lon="-3.36811">
        <ele>-3.71</ele>
        <time>2015-10-10T15:04:28Z</time>
      </trkpt>
      <trkpt lat="47.64814" lon="-3.36811">
        <ele>-3.71</ele>
        <time>2015-10-10T15:04:29Z</time>
      </trkpt>
      <trkpt lat="47.64816" lon="-3.36811">
        <ele>-3.71</ele>
        <time>2015-10-10T15:04:30Z</time>
      </trkpt>
      <trkpt lat="47.64819" lon="-3.36811">
        <ele>-3.71</ele>
        <time>2015-10-10T15:04:31Z</time>
      </trkpt>
      <trkpt lat="47.64823" lon="-3.36812">
        <ele>-3.71</ele>
        <time>2015-10-10T15:04:32Z</time>
      </trkpt>
      <trkpt lat="47.64826" lon="-3.36813">
        <ele>-3.71</ele>
        <time>2015-10-10T15:04:33Z</time>
      </trkpt>
      <trkpt lat="47.64829" lon="-3.36813">
        <ele>-3.71</ele>
        <time>2015-10-10T15:04:34Z</time>
      </trkpt>
      <trkpt lat="47.64831" lon="-3.36813">
        <ele>-3.71</ele>
        <time>2015-10-10T15:04:35Z</time>
      </trkpt>
      <trkpt lat="47.64834" lon="-3.36814">
        <ele>-3.71</ele>
        <time>2015-10-10T15:04:36Z</time>
      </trkpt>
      <trkpt lat="47.64837" lon="-3.36814">
        <ele>-3.71</ele>
        <time>2015-10-10T15:04:37Z</time>
      </trkpt>
      <trkpt lat="47.6484" lon="-3.36815">
        <ele>-3.71</ele>
        <time>2015-10-10T15:04:38Z</time>
      </trkpt>
      <trkpt lat="47.64842" lon="-3.36814">
        <ele>-3.71</ele>
        <time>2015-10-10T15:04:39Z</time>
      </trkpt>
      <trkpt lat="47.64845" lon="-3.36814">
        <ele>-3.71</ele>
        <time>2015-10-10T15:04:40Z</time>
      </trkpt>
      <trkpt lat="47.64848" lon="-3.36813">
        <ele>-3.71</ele>
        <time>2015-10-10T15:04:41Z</time>
      </trkpt>
      <trkpt lat="47.6485" lon="-3.36812">
        <ele>-3.71</ele>
        <time>2015-10-10T15:04:42Z</time>
      </trkpt>
      <trkpt lat="47.64853" lon="-3.36812">
        <ele>-3.71</ele>
        <time>2015-10-10T15:04:43Z</time>
      </trkpt>
      <trkpt lat="47.64856" lon="-3.36812">
        <ele>-3.71</ele>
        <time>2015-10-10T15:04:44Z</time>
      </trkpt>
      <trkpt lat="47.64858" lon="-3.36812">
        <ele>-3.71</ele>
        <time>2015-10-10T15:04:45Z</time>
      </trkpt>
      <trkpt lat="47.64861" lon="-3.36812">
        <ele>-3.71</ele>
        <time>2015-10-10T15:04:46Z</time>
      </trkpt>
      <trkpt lat="47.64863" lon="-3.36811">
        <ele>-3.71</ele>
        <time>2015-10-10T15:04:47Z</time>
      </trkpt>
      <trkpt lat="47.64866" lon="-3.36811">
        <ele>-3.71</ele>
        <time>2015-10-10T15:04:48Z</time>
      </trkpt>
      <trkpt lat="47.64868" lon="-3.36811">
        <ele>-3.71</ele>
        <time>2015-10-10T15:04:49Z</time>
      </trkpt>
      <trkpt lat="47.64871" lon="-3.36811">
        <ele>-3.71</ele>
        <time>2015-10-10T15:04:50Z</time>
      </trkpt>
      <trkpt lat="47.64874" lon="-3.36812">
        <ele>-3.71</ele>
        <time>2015-10-10T15:04:51Z</time>
      </trkpt>
      <trkpt lat="47.64877" lon="-3.36812">
        <ele>-3.71</ele>
        <time>2015-10-10T15:04:52Z</time>
      </trkpt>
      <trkpt lat="47.6488" lon="-3.36812">
        <ele>-3.71</ele>
        <time>2015-10-10T15:04:53Z</time>
      </trkpt>
      <trkpt lat="47.64882" lon="-3.36811">
        <ele>-3.71</ele>
        <time>2015-10-10T15:04:54Z</time>
      </trkpt>
      <trkpt lat="47.64885" lon="-3.36811">
        <ele>-3.71</ele>
        <time>2015-10-10T15:04:55Z</time>
      </trkpt>
      <trkpt lat="47.64887" lon="-3.36811">
        <ele>-3.71</ele>
        <time>2015-10-10T15:04:56Z</time>
      </trkpt>
      <trkpt lat="47.6489" lon="-3.36811">
        <ele>-3.71</ele>
        <time>2015-10-10T15:04:57Z</time>
      </trkpt>
      <trkpt lat="47.64893" lon="-3.36811">
        <ele>-3.71</ele>
        <time>2015-10-10T15:04:58Z</time>
      </trkpt>
      <trkpt lat="47.64896" lon="-3.3681">
        <ele>-3.71</ele>
        <time>2015-10-10T15:04:59Z</time>
      </trkpt>
      <trkpt lat="47.64898" lon="-3.36809">
        <ele>-3.71</ele>
        <time>2015-10-10T15:05:00Z</time>
      </trkpt>
      <trkpt lat="47.64901" lon="-3.36808">
        <ele>-3.71</ele>
        <time>2015-10-10T15:05:01Z</time>
      </trkpt>
      <trkpt lat="47.64903" lon="-3.36808">
        <ele>-3.71</ele>
        <time>2015-10-10T15:05:02Z</time>
      </trkpt>
      <trkpt lat="47.64906" lon="-3.36808">
        <ele>-3.71</ele>
        <time>2015-10-10T15:05:03Z</time>
      </trkpt>
      <trkpt lat="47.64909" lon="-3.36809">
        <ele>-3.71</ele>
        <time>2015-10-10T15:05:04Z</time>
      </trkpt>
      <trkpt lat="47.64912" lon="-3.36809">
        <ele>-3.71</ele>
        <time>2015-10-10T15:05:05Z</time>
      </trkpt>
      <trkpt lat="47.64915" lon="-3.36808">
        <ele>-3.71</ele>
        <time>2015-10-10T15:05:06Z</time>
      </trkpt>
      <trkpt lat="47.64917" lon="-3.36808">
        <ele>-3.71</ele>
        <time>2015-10-10T15:05:07Z</time>
      </trkpt>
      <trkpt lat="47.6492" lon="-3.36808">
        <ele>-3.71</ele>
        <time>2015-10-10T15:05:08Z</time>
      </trkpt>
      <trkpt lat="47.64923" lon="-3.36808">
        <ele>-3.71</ele>
        <time>2015-10-10T15:05:09Z</time>
      </trkpt>
      <trkpt lat="47.64926" lon="-3.36807">
        <ele>-3.71</ele>
        <time>2015-10-10T15:05:10Z</time>
      </trkpt>
      <trkpt lat="47.64928" lon="-3.36807">
        <ele>-3.71</ele>
        <time>2015-10-10T15:05:11Z</time>
      </trkpt>
      <trkpt lat="47.6493" lon="-3.36808">
        <ele>-3.71</ele>
        <time>2015-10-10T15:05:12Z</time>
      </trkpt>
      <trkpt lat="47.64933" lon="-3.36809">
        <ele>-3.71</ele>
        <time>2015-10-10T15:05:13Z</time>
      </trkpt>
      <trkpt lat="47.64936" lon="-3.3681">
        <ele>-3.71</ele>
        <time>2015-10-10T15:05:14Z</time>
      </trkpt>
      <trkpt lat="47.64939" lon="-3.3681">
        <ele>-3.71</ele>
        <time>2015-10-10T15:05:15Z</time>
      </trkpt>
      <trkpt lat="47.64942" lon="-3.36809">
        <ele>-3.71</ele>
        <time>2015-10-10T15:05:16Z</time>
      </trkpt>
      <trkpt lat="47.64945" lon="-3.36809">
        <ele>-3.71</ele>
        <time>2015-10-10T15:05:17Z</time>
      </trkpt>
      <trkpt lat="47.64948" lon="-3.36808">
        <ele>-3.71</ele>
        <time>2015-10-10T15:05:18Z</time>
      </trkpt>
      <trkpt lat="47.6495" lon="-3.36808">
        <ele>-2.27</ele>
        <time>2015-10-10T15:05:19Z</time>
      </trkpt>
      <trkpt lat="47.64953" lon="-3.36808">
        <ele>-2.27</ele>
        <time>2015-10-10T15:05:20Z</time>
      </trkpt>
      <trkpt lat="47.64956" lon="-3.36808">
        <ele>-2.75</ele>
        <time>2015-10-10T15:05:21Z</time>
      </trkpt>
      <trkpt lat="47.64959" lon="-3.36808">
        <ele>-2.75</ele>
        <time>2015-10-10T15:05:22Z</time>
      </trkpt>
      <trkpt lat="47.64962" lon="-3.36809">
        <ele>-2.75</ele>
        <time>2015-10-10T15:05:23Z</time>
      </trkpt>
      <trkpt lat="47.64965" lon="-3.36809">
        <ele>-2.75</ele>
        <time>2015-10-10T15:05:24Z</time>
      </trkpt>
      <trkpt lat="47.64967" lon="-3.36808">
        <ele>-2.75</ele>
        <time>2015-10-10T15:05:25Z</time>
      </trkpt>
      <trkpt lat="47.6497" lon="-3.36807">
        <ele>-2.75</ele>
        <time>2015-10-10T15:05:26Z</time>
      </trkpt>
      <trkpt lat="47.64973" lon="-3.36808">
        <ele>-2.75</ele>
        <time>2015-10-10T15:05:27Z</time>
      </trkpt>
      <trkpt lat="47.64976" lon="-3.36808">
        <ele>-2.75</ele>
        <time>2015-10-10T15:05:28Z</time>
      </trkpt>
      <trkpt lat="47.64979" lon="-3.36808">
        <ele>-2.75</ele>
        <time>2015-10-10T15:05:29Z</time>
      </trkpt>
      <trkpt lat="47.64981" lon="-3.36809">
        <ele>-2.75</ele>
        <time>2015-10-10T15:05:30Z</time>
      </trkpt>
      <trkpt lat="47.64984" lon="-3.36809">
        <ele>-2.75</ele>
        <time>2015-10-10T15:05:31Z</time>
      </trkpt>
      <trkpt lat="47.64987" lon="-3.3681">
        <ele>-2.75</ele>
        <time>2015-10-10T15:05:32Z</time>
      </trkpt>
      <trkpt lat="47.6499" lon="-3.36811">
        <ele>-2.75</ele>
        <time>2015-10-10T15:05:33Z</time>
      </trkpt>
      <trkpt lat="47.64993" lon="-3.36811">
        <ele>-2.27</ele>
        <time>2015-10-10T15:05:34Z</time>
      </trkpt>
      <trkpt lat="47.64996" lon="-3.3681">
        <ele>-2.75</ele>
        <time>2015-10-10T15:05:35Z</time>
      </trkpt>
      <trkpt lat="47.64998" lon="-3.36809">
        <ele>-2.75</ele>
        <time>2015-10-10T15:05:36Z</time>
      </trkpt>
      <trkpt lat="47.65001" lon="-3.36809">
        <ele>-4.19</ele>
        <time>2015-10-10T15:05:37Z</time>
      </trkpt>
      <trkpt lat="47.65003" lon="-3.3681">
        <ele>-4.19</ele>
        <time>2015-10-10T15:05:38Z</time>
      </trkpt>
      <trkpt lat="47.65007" lon="-3.3681">
        <ele>-4.19</ele>
        <time>2015-10-10T15:05:39Z</time>
      </trkpt>
      <trkpt lat="47.6501" lon="-3.3681">
        <ele>-4.19</ele>
        <time>2015-10-10T15:05:40Z</time>
      </trkpt>
      <trkpt lat="47.65012" lon="-3.3681">
        <ele>-4.19</ele>
        <time>2015-10-10T15:05:41Z</time>
      </trkpt>
      <trkpt lat="47.65015" lon="-3.3681">
        <ele>-4.19</ele>
        <time>2015-10-10T15:05:42Z</time>
      </trkpt>
      <trkpt lat="47.65017" lon="-3.36811">
        <ele>-4.19</ele>
        <time>2015-10-10T15:05:43Z</time>
      </trkpt>
      <trkpt lat="47.6502" lon="-3.36811">
        <ele>-2.75</ele>
        <time>2015-10-10T15:05:44Z</time>
      </trkpt>
      <trkpt lat="47.65024" lon="-3.36812">
        <ele>-2.75</ele>
        <time>2015-10-10T15:05:45Z</time>
      </trkpt>
      <trkpt lat="47.65026" lon="-3.36812">
        <ele>-2.75</ele>
        <time>2015-10-10T15:05:46Z</time>
      </trkpt>
      <trkpt lat="47.65029" lon="-3.36811">
        <ele>-2.75</ele>
        <time>2015-10-10T15:05:47Z</time>
      </trkpt>
      <trkpt lat="47.65031" lon="-3.36811">
        <ele>-2.75</ele>
        <time>2015-10-10T15:05:48Z</time>
      </trkpt>
      <trkpt lat="47.65034" lon="-3.36811">
        <ele>-2.75</ele>
        <time>2015-10-10T15:05:49Z</time>
      </trkpt>
      <trkpt lat="47.65038" lon="-3.36811">
        <ele>-2.75</ele>
        <time>2015-10-10T15:05:50Z</time>
      </trkpt>
      <trkpt lat="47.6504" lon="-3.36811">
        <ele>-2.75</ele>
        <time>2015-10-10T15:05:51Z</time>
      </trkpt>
      <trkpt lat="47.65044" lon="-3.36811">
        <ele>-2.75</ele>
        <time>2015-10-10T15:05:52Z</time>
      </trkpt>
      <trkpt lat="47.65046" lon="-3.36811">
        <ele>-2.75</ele>
        <time>2015-10-10T15:05:53Z</time>
      </trkpt>
      <trkpt lat="47.65049" lon="-3.3681">
        <ele>-2.75</ele>
        <time>2015-10-10T15:05:54Z</time>
      </trkpt>
      <trkpt lat="47.65051" lon="-3.3681">
        <ele>-2.75</ele>
        <time>2015-10-10T15:05:55Z</time>
      </trkpt>
      <trkpt lat="47.65054" lon="-3.36811">
        <ele>-2.75</ele>
        <time>2015-10-10T15:05:56Z</time>
      </trkpt>
      <trkpt lat="47.65057" lon="-3.36811">
        <ele>-2.75</ele>
        <time>2015-10-10T15:05:57Z</time>
      </trkpt>
      <trkpt lat="47.65059" lon="-3.36811">
        <ele>-2.75</ele>
        <time>2015-10-10T15:05:58Z</time>
      </trkpt>
      <trkpt lat="47.65062" lon="-3.3681">
        <ele>-2.75</ele>
        <time>2015-10-10T15:05:59Z</time>
      </trkpt>
      <trkpt lat="47.65065" lon="-3.36811">
        <ele>-2.75</ele>
        <time>2015-10-10T15:06:00Z</time>
      </trkpt>
      <trkpt lat="47.65068" lon="-3.36811">
        <ele>-2.75</ele>
        <time>2015-10-10T15:06:01Z</time>
      </trkpt>
      <trkpt lat="47.6507" lon="-3.36812">
        <ele>-2.75</ele>
        <time>2015-10-10T15:06:02Z</time>
      </trkpt>
      <trkpt lat="47.65073" lon="-3.36813">
        <ele>-2.75</ele>
        <time>2015-10-10T15:06:03Z</time>
      </trkpt>
      <trkpt lat="47.65075" lon="-3.36814">
        <ele>-2.75</ele>
        <time>2015-10-10T15:06:04Z</time>
      </trkpt>
      <trkpt lat="47.65078" lon="-3.36814">
        <ele>-2.75</ele>
        <time>2015-10-10T15:06:05Z</time>
      </trkpt>
      <trkpt lat="47.65081" lon="-3.36814">
        <ele>-2.75</ele>
        <time>2015-10-10T15:06:06Z</time>
      </trkpt>
      <trkpt lat="47.65083" lon="-3.36814">
        <ele>-2.75</ele>
        <time>2015-10-10T15:06:07Z</time>
      </trkpt>
      <trkpt lat="47.65086" lon="-3.36815">
        <ele>-2.75</ele>
        <time>2015-10-10T15:06:08Z</time>
      </trkpt>
      <trkpt lat="47.65089" lon="-3.36815">
        <ele>-2.75</ele>
        <time>2015-10-10T15:06:09Z</time>
      </trkpt>
      <trkpt lat="47.65092" lon="-3.36815">
        <ele>-2.75</ele>
        <time>2015-10-10T15:06:10Z</time>
      </trkpt>
      <trkpt lat="47.65095" lon="-3.36816">
        <ele>-2.75</ele>
        <time>2015-10-10T15:06:11Z</time>
      </trkpt>
      <trkpt lat="47.65098" lon="-3.36816">
        <ele>-2.75</ele>
        <time>2015-10-10T15:06:12Z</time>
      </trkpt>
      <trkpt lat="47.651" lon="-3.36816">
        <ele>-2.75</ele>
        <time>2015-10-10T15:06:13Z</time>
      </trkpt>
      <trkpt lat="47.65103" lon="-3.36817">
        <ele>-2.75</ele>
        <time>2015-10-10T15:06:14Z</time>
      </trkpt>
      <trkpt lat="47.65105" lon="-3.36817">
        <ele>-2.75</ele>
        <time>2015-10-10T15:06:15Z</time>
      </trkpt>
      <trkpt lat="47.65108" lon="-3.36817">
        <ele>-2.75</ele>
        <time>2015-10-10T15:06:16Z</time>
      </trkpt>
      <trkpt lat="47.65111" lon="-3.36818">
        <ele>-2.75</ele>
        <time>2015-10-10T15:06:17Z</time>
      </trkpt>
      <trkpt lat="47.65113" lon="-3.36818">
        <ele>-2.75</ele>
        <time>2015-10-10T15:06:18Z</time>
      </trkpt>
      <trkpt lat="47.65116" lon="-3.36818">
        <ele>-2.75</ele>
        <time>2015-10-10T15:06:19Z</time>
      </trkpt>
      <trkpt lat="47.65119" lon="-3.36818">
        <ele>-2.75</ele>
        <time>2015-10-10T15:06:20Z</time>
      </trkpt>
      <trkpt lat="47.65122" lon="-3.36818">
        <ele>-2.75</ele>
        <time>2015-10-10T15:06:21Z</time>
      </trkpt>
      <trkpt lat="47.65125" lon="-3.36818">
        <ele>-2.75</ele>
        <time>2015-10-10T15:06:22Z</time>
      </trkpt>
      <trkpt lat="47.65128" lon="-3.36818">
        <ele>-2.75</ele>
        <time>2015-10-10T15:06:23Z</time>
      </trkpt>
      <trkpt lat="47.65131" lon="-3.36819">
        <ele>-2.75</ele>
        <time>2015-10-10T15:06:24Z</time>
      </trkpt>
      <trkpt lat="47.65134" lon="-3.36819">
        <ele>-2.75</ele>
        <time>2015-10-10T15:06:25Z</time>
      </trkpt>
      <trkpt lat="47.65137" lon="-3.3682">
        <ele>-2.75</ele>
        <time>2015-10-10T15:06:26Z</time>
      </trkpt>
      <trkpt lat="47.6514" lon="-3.36819">
        <ele>-2.75</ele>
        <time>2015-10-10T15:06:27Z</time>
      </trkpt>
      <trkpt lat="47.65142" lon="-3.36819">
        <ele>-4.19</ele>
        <time>2015-10-10T15:06:28Z</time>
      </trkpt>
      <trkpt lat="47.65145" lon="-3.3682">
        <ele>-4.19</ele>
        <time>2015-10-10T15:06:29Z</time>
      </trkpt>
      <trkpt lat="47.65147" lon="-3.3682">
        <ele>-4.19</ele>
        <time>2015-10-10T15:06:30Z</time>
      </trkpt>
      <trkpt lat="47.6515" lon="-3.36821">
        <ele>-4.19</ele>
        <time>2015-10-10T15:06:31Z</time>
      </trkpt>
      <trkpt lat="47.65152" lon="-3.36821">
        <ele>-4.19</ele>
        <time>2015-10-10T15:06:32Z</time>
      </trkpt>
      <trkpt lat="47.65155" lon="-3.36822">
        <ele>-4.19</ele>
        <time>2015-10-10T15:06:33Z</time>
      </trkpt>
      <trkpt lat="47.65158" lon="-3.36822">
        <ele>-4.19</ele>
        <time>2015-10-10T15:06:34Z</time>
      </trkpt>
      <trkpt lat="47.65161" lon="-3.36822">
        <ele>-2.75</ele>
        <time>2015-10-10T15:06:35Z</time>
      </trkpt>
      <trkpt lat="47.65164" lon="-3.36822">
        <ele>-3.23</ele>
        <time>2015-10-10T15:06:36Z</time>
      </trkpt>
      <trkpt lat="47.65166" lon="-3.36823">
        <ele>-3.23</ele>
        <time>2015-10-10T15:06:37Z</time>
      </trkpt>
      <trkpt lat="47.65169" lon="-3.36823">
        <ele>-3.23</ele>
        <time>2015-10-10T15:06:38Z</time>
      </trkpt>
      <trkpt lat="47.65172" lon="-3.36823">
        <ele>-3.23</ele>
        <time>2015-10-10T15:06:39Z</time>
      </trkpt>
      <trkpt lat="47.65174" lon="-3.36823">
        <ele>-3.23</ele>
        <time>2015-10-10T15:06:40Z</time>
      </trkpt>
      <trkpt lat="47.65177" lon="-3.36823">
        <ele>-3.23</ele>
        <time>2015-10-10T15:06:41Z</time>
      </trkpt>
      <trkpt lat="47.65181" lon="-3.36824">
        <ele>-3.23</ele>
        <time>2015-10-10T15:06:42Z</time>
      </trkpt>
      <trkpt lat="47.65183" lon="-3.36824">
        <ele>-3.23</ele>
        <time>2015-10-10T15:06:43Z</time>
      </trkpt>
      <trkpt lat="47.65186" lon="-3.36823">
        <ele>-3.23</ele>
        <time>2015-10-10T15:06:44Z</time>
      </trkpt>
      <trkpt lat="47.65188" lon="-3.36823">
        <ele>-3.23</ele>
        <time>2015-10-10T15:06:45Z</time>
      </trkpt>
      <trkpt lat="47.65191" lon="-3.36823">
        <ele>-2.75</ele>
        <time>2015-10-10T15:06:46Z</time>
      </trkpt>
      <trkpt lat="47.65193" lon="-3.36823">
        <ele>-2.75</ele>
        <time>2015-10-10T15:06:47Z</time>
      </trkpt>
      <trkpt lat="47.65196" lon="-3.36823">
        <ele>-3.23</ele>
        <time>2015-10-10T15:06:48Z</time>
      </trkpt>
      <trkpt lat="47.65199" lon="-3.36823">
        <ele>-3.23</ele>
        <time>2015-10-10T15:06:49Z</time>
      </trkpt>
      <trkpt lat="47.65201" lon="-3.36823">
        <ele>-3.23</ele>
        <time>2015-10-10T15:06:50Z</time>
      </trkpt>
      <trkpt lat="47.65204" lon="-3.36823">
        <ele>-3.23</ele>
        <time>2015-10-10T15:06:51Z</time>
      </trkpt>
      <trkpt lat="47.65206" lon="-3.36824">
        <ele>-3.23</ele>
        <time>2015-10-10T15:06:52Z</time>
      </trkpt>
      <trkpt lat="47.65209" lon="-3.36824">
        <ele>-3.23</ele>
        <time>2015-10-10T15:06:53Z</time>
      </trkpt>
      <trkpt lat="47.65211" lon="-3.36825">
        <ele>-3.23</ele>
        <time>2015-10-10T15:06:54Z</time>
      </trkpt>
      <trkpt lat="47.65214" lon="-3.36825">
        <ele>-3.23</ele>
        <time>2015-10-10T15:06:55Z</time>
      </trkpt>
      <trkpt lat="47.65217" lon="-3.36826">
        <ele>-3.23</ele>
        <time>2015-10-10T15:06:56Z</time>
      </trkpt>
      <trkpt lat="47.6522" lon="-3.36827">
        <ele>-3.23</ele>
        <time>2015-10-10T15:06:57Z</time>
      </trkpt>
      <trkpt lat="47.65222" lon="-3.36827">
        <ele>-2.75</ele>
        <time>2015-10-10T15:06:58Z</time>
      </trkpt>
      <trkpt lat="47.65225" lon="-3.36827">
        <ele>-3.23</ele>
        <time>2015-10-10T15:06:59Z</time>
      </trkpt>
      <trkpt lat="47.65228" lon="-3.36827">
        <ele>-3.23</ele>
        <time>2015-10-10T15:07:00Z</time>
      </trkpt>
      <trkpt lat="47.65231" lon="-3.36828">
        <ele>-3.23</ele>
        <time>2015-10-10T15:07:01Z</time>
      </trkpt>
      <trkpt lat="47.65234" lon="-3.36829">
        <ele>-3.23</ele>
        <time>2015-10-10T15:07:02Z</time>
      </trkpt>
      <trkpt lat="47.65237" lon="-3.36829">
        <ele>-3.23</ele>
        <time>2015-10-10T15:07:03Z</time>
      </trkpt>
      <trkpt lat="47.65239" lon="-3.36829">
        <ele>-3.23</ele>
        <time>2015-10-10T15:07:04Z</time>
      </trkpt>
      <trkpt lat="47.65242" lon="-3.36829">
        <ele>-3.23</ele>
        <time>2015-10-10T15:07:05Z</time>
      </trkpt>
      <trkpt lat="47.65245" lon="-3.3683">
        <ele>-3.23</ele>
        <time>2015-10-10T15:07:06Z</time>
      </trkpt>
      <trkpt lat="47.65248" lon="-3.3683">
        <ele>-3.23</ele>
        <time>2015-10-10T15:07:07Z</time>
      </trkpt>
      <trkpt lat="47.6525" lon="-3.36829">
        <ele>-3.23</ele>
        <time>2015-10-10T15:07:08Z</time>
      </trkpt>
      <trkpt lat="47.65253" lon="-3.36829">
        <ele>-3.23</ele>
        <time>2015-10-10T15:07:09Z</time>
      </trkpt>
      <trkpt lat="47.65255" lon="-3.36829">
        <ele>-3.23</ele>
        <time>2015-10-10T15:07:10Z</time>
      </trkpt>
      <trkpt lat="47.65258" lon="-3.36829">
        <ele>-3.23</ele>
        <time>2015-10-10T15:07:11Z</time>
      </trkpt>
      <trkpt lat="47.65261" lon="-3.3683">
        <ele>-3.23</ele>
        <time>2015-10-10T15:07:12Z</time>
      </trkpt>
      <trkpt lat="47.65263" lon="-3.3683">
        <ele>-3.23</ele>
        <time>2015-10-10T15:07:13Z</time>
      </trkpt>
      <trkpt lat="47.65266" lon="-3.3683">
        <ele>-3.23</ele>
        <time>2015-10-10T15:07:14Z</time>
      </trkpt>
      <trkpt lat="47.65268" lon="-3.3683">
        <ele>-3.23</ele>
        <time>2015-10-10T15:07:15Z</time>
      </trkpt>
      <trkpt lat="47.65271" lon="-3.3683">
        <ele>-3.23</ele>
        <time>2015-10-10T15:07:16Z</time>
      </trkpt>
      <trkpt lat="47.65274" lon="-3.3683">
        <ele>-3.23</ele>
        <time>2015-10-10T15:07:17Z</time>
      </trkpt>
      <trkpt lat="47.65277" lon="-3.3683">
        <ele>-3.23</ele>
        <time>2015-10-10T15:07:18Z</time>
      </trkpt>
      <trkpt lat="47.65279" lon="-3.3683">
        <ele>-3.23</ele>
        <time>2015-10-10T15:07:19Z</time>
      </trkpt>
      <trkpt lat="47.65282" lon="-3.3683">
        <ele>-2.75</ele>
        <time>2015-10-10T15:07:20Z</time>
      </trkpt>
      <trkpt lat="47.65285" lon="-3.36829">
        <ele>-2.75</ele>
        <time>2015-10-10T15:07:21Z</time>
      </trkpt>
      <trkpt lat="47.65288" lon="-3.36829">
        <ele>-2.75</ele>
        <time>2015-10-10T15:07:22Z</time>
      </trkpt>
      <trkpt lat="47.65291" lon="-3.36829">
        <ele>-2.75</ele>
        <time>2015-10-10T15:07:23Z</time>
      </trkpt>
      <trkpt lat="47.65294" lon="-3.36829">
        <ele>-2.75</ele>
        <time>2015-10-10T15:07:24Z</time>
      </trkpt>
      <trkpt lat="47.65297" lon="-3.36828">
        <ele>-2.75</ele>
        <time>2015-10-10T15:07:25Z</time>
      </trkpt>
      <trkpt lat="47.653" lon="-3.36828">
        <ele>-2.75</ele>
        <time>2015-10-10T15:07:26Z</time>
      </trkpt>
      <trkpt lat="47.65303" lon="-3.36827">
        <ele>-2.75</ele>
        <time>2015-10-10T15:07:27Z</time>
      </trkpt>
      <trkpt lat="47.65305" lon="-3.36827">
        <ele>-2.75</ele>
        <time>2015-10-10T15:07:28Z</time>
      </trkpt>
      <trkpt lat="47.65308" lon="-3.36827">
        <ele>-2.75</ele>
        <time>2015-10-10T15:07:29Z</time>
      </trkpt>
      <trkpt lat="47.65311" lon="-3.36827">
        <ele>-2.75</ele>
        <time>2015-10-10T15:07:30Z</time>
      </trkpt>
      <trkpt lat="47.65314" lon="-3.36827">
        <ele>-4.19</ele>
        <time>2015-10-10T15:07:31Z</time>
      </trkpt>
      <trkpt lat="47.65317" lon="-3.36828">
        <ele>-4.19</ele>
        <time>2015-10-10T15:07:32Z</time>
      </trkpt>
      <trkpt lat="47.65319" lon="-3.36829">
        <ele>-4.19</ele>
        <time>2015-10-10T15:07:33Z</time>
      </trkpt>
      <trkpt lat="47.65322" lon="-3.3683">
        <ele>-4.19</ele>
        <time>2015-10-10T15:07:34Z</time>
      </trkpt>
      <trkpt lat="47.65325" lon="-3.3683">
        <ele>-4.19</ele>
        <time>2015-10-10T15:07:35Z</time>
      </trkpt>
      <trkpt lat="47.65327" lon="-3.36831">
        <ele>-4.19</ele>
        <time>2015-10-10T15:07:36Z</time>
      </trkpt>
      <trkpt lat="47.6533" lon="-3.36831">
        <ele>-4.19</ele>
        <time>2015-10-10T15:07:37Z</time>
      </trkpt>
      <trkpt lat="47.65332" lon="-3.36832">
        <ele>-4.19</ele>
        <time>2015-10-10T15:07:38Z</time>
      </trkpt>
      <trkpt lat="47.65335" lon="-3.36833">
        <ele>-4.19</ele>
        <time>2015-10-10T15:07:39Z</time>
      </trkpt>
      <trkpt lat="47.65338" lon="-3.36834">
        <ele>-4.19</ele>
        <time>2015-10-10T15:07:40Z</time>
      </trkpt>
      <trkpt lat="47.6534" lon="-3.36834">
        <ele>-4.19</ele>
        <time>2015-10-10T15:07:41Z</time>
      </trkpt>
      <trkpt lat="47.65343" lon="-3.36834">
        <ele>-4.19</ele>
        <time>2015-10-10T15:07:42Z</time>
      </trkpt>
      <trkpt lat="47.65346" lon="-3.36834">
        <ele>-4.19</ele>
        <time>2015-10-10T15:07:43Z</time>
      </trkpt>
      <trkpt lat="47.65349" lon="-3.36835">
        <ele>-4.19</ele>
        <time>2015-10-10T15:07:44Z</time>
      </trkpt>
      <trkpt lat="47.65352" lon="-3.36835">
        <ele>-4.19</ele>
        <time>2015-10-10T15:07:45Z</time>
      </trkpt>
      <trkpt lat="47.65354" lon="-3.36835">
        <ele>-4.19</ele>
        <time>2015-10-10T15:07:46Z</time>
      </trkpt>
      <trkpt lat="47.65357" lon="-3.36834">
        <ele>-4.19</ele>
        <time>2015-10-10T15:07:47Z</time>
      </trkpt>
      <trkpt lat="47.6536" lon="-3.36835">
        <ele>-4.19</ele>
        <time>2015-10-10T15:07:48Z</time>
      </trkpt>
      <trkpt lat="47.65362" lon="-3.36834">
        <ele>-4.19</ele>
        <time>2015-10-10T15:07:49Z</time>
      </trkpt>
      <trkpt lat="47.65365" lon="-3.36834">
        <ele>-2.27</ele>
        <time>2015-10-10T15:07:50Z</time>
      </trkpt>
      <trkpt lat="47.65368" lon="-3.36834">
        <ele>-2.75</ele>
        <time>2015-10-10T15:07:51Z</time>
      </trkpt>
      <trkpt lat="47.65371" lon="-3.36835">
        <ele>-2.75</ele>
        <time>2015-10-10T15:07:52Z</time>
      </trkpt>
      <trkpt lat="47.65374" lon="-3.36835">
        <ele>-2.75</ele>
        <time>2015-10-10T15:07:53Z</time>
      </trkpt>
      <trkpt lat="47.65376" lon="-3.36835">
        <ele>-3.71</ele>
        <time>2015-10-10T15:07:54Z</time>
      </trkpt>
      <trkpt lat="47.65379" lon="-3.36835">
        <ele>-4.19</ele>
        <time>2015-10-10T15:07:55Z</time>
      </trkpt>
      <trkpt lat="47.65382" lon="-3.36835">
        <ele>-4.19</ele>
        <time>2015-10-10T15:07:56Z</time>
      </trkpt>
      <trkpt lat="47.65384" lon="-3.36835">
        <ele>-4.19</ele>
        <time>2015-10-10T15:07:57Z</time>
      </trkpt>
      <trkpt lat="47.65387" lon="-3.36834">
        <ele>-4.19</ele>
        <time>2015-10-10T15:07:58Z</time>
      </trkpt>
      <trkpt lat="47.65389" lon="-3.36834">
        <ele>-4.19</ele>
        <time>2015-10-10T15:07:59Z</time>
      </trkpt>
      <trkpt lat="47.65392" lon="-3.36834">
        <ele>-4.19</ele>
        <time>2015-10-10T15:08:00Z</time>
      </trkpt>
      <trkpt lat="47.65394" lon="-3.36834">
        <ele>-4.19</ele>
        <time>2015-10-10T15:08:01Z</time>
      </trkpt>
      <trkpt lat="47.65397" lon="-3.36834">
        <ele>-4.19</ele>
        <time>2015-10-10T15:08:02Z</time>
      </trkpt>
      <trkpt lat="47.654" lon="-3.36834">
        <ele>-4.19</ele>
        <time>2015-10-10T15:08:03Z</time>
      </trkpt>
      <trkpt lat="47.65403" lon="-3.36834">
        <ele>-4.19</ele>
        <time>2015-10-10T15:08:04Z</time>
      </trkpt>
      <trkpt lat="47.65406" lon="-3.36834">
        <ele>-4.19</ele>
        <time>2015-10-10T15:08:05Z</time>
      </trkpt>
      <trkpt lat="47.65409" lon="-3.36834">
        <ele>-4.19</ele>
        <time>2015-10-10T15:08:06Z</time>
      </trkpt>
      <trkpt lat="47.65411" lon="-3.36834">
        <ele>-3.23</ele>
        <time>2015-10-10T15:08:07Z</time>
      </trkpt>
      <trkpt lat="47.65415" lon="-3.36834">
        <ele>-3.23</ele>
        <time>2015-10-10T15:08:08Z</time>
      </trkpt>
      <trkpt lat="47.65418" lon="-3.36834">
        <ele>-3.23</ele>
        <time>2015-10-10T15:08:09Z</time>
      </trkpt>
      <trkpt lat="47.65421" lon="-3.36834">
        <ele>-3.23</ele>
        <time>2015-10-10T15:08:10Z</time>
      </trkpt>
      <trkpt lat="47.65424" lon="-3.36833">
        <ele>-3.23</ele>
        <time>2015-10-10T15:08:11Z</time>
      </trkpt>
      <trkpt lat="47.65426" lon="-3.36833">
        <ele>-3.23</ele>
        <time>2015-10-10T15:08:12Z</time>
      </trkpt>
      <trkpt lat="47.65429" lon="-3.36833">
        <ele>-3.23</ele>
        <time>2015-10-10T15:08:13Z</time>
      </trkpt>
      <trkpt lat="47.65432" lon="-3.36833">
        <ele>-3.23</ele>
        <time>2015-10-10T15:08:14Z</time>
      </trkpt>
      <trkpt lat="47.65435" lon="-3.36833">
        <ele>-3.23</ele>
        <time>2015-10-10T15:08:15Z</time>
      </trkpt>
      <trkpt lat="47.65437" lon="-3.36832">
        <ele>-3.23</ele>
        <time>2015-10-10T15:08:16Z</time>
      </trkpt>
      <trkpt lat="47.6544" lon="-3.36831">
        <ele>-3.23</ele>
        <time>2015-10-10T15:08:17Z</time>
      </trkpt>
      <trkpt lat="47.65443" lon="-3.36831">
        <ele>-3.23</ele>
        <time>2015-10-10T15:08:18Z</time>
      </trkpt>
      <trkpt lat="47.65445" lon="-3.3683">
        <ele>-3.23</ele>
        <time>2015-10-10T15:08:19Z</time>
      </trkpt>
      <trkpt lat="47.65448" lon="-3.3683">
        <ele>-3.23</ele>
        <time>2015-10-10T15:08:20Z</time>
      </trkpt>
      <trkpt lat="47.65451" lon="-3.36831">
        <ele>-3.23</ele>
        <time>2015-10-10T15:08:21Z</time>
      </trkpt>
      <trkpt lat="47.65454" lon="-3.36831">
        <ele>-3.23</ele>
        <time>2015-10-10T15:08:22Z</time>
      </trkpt>
      <trkpt lat="47.65456" lon="-3.36831">
        <ele>-3.23</ele>
        <time>2015-10-10T15:08:23Z</time>
      </trkpt>
      <trkpt lat="47.65459" lon="-3.3683">
        <ele>-3.23</ele>
        <time>2015-10-10T15:08:24Z</time>
      </trkpt>
      <trkpt lat="47.65462" lon="-3.3683">
        <ele>-3.23</ele>
        <time>2015-10-10T15:08:25Z</time>
      </trkpt>
      <trkpt lat="47.65465" lon="-3.3683">
        <ele>-3.23</ele>
        <time>2015-10-10T15:08:26Z</time>
      </trkpt>
      <trkpt lat="47.65468" lon="-3.3683">
        <ele>-3.23</ele>
        <time>2015-10-10T15:08:27Z</time>
      </trkpt>
      <trkpt lat="47.65471" lon="-3.3683">
        <ele>-3.23</ele>
        <time>2015-10-10T15:08:28Z</time>
      </trkpt>
      <trkpt lat="47.65474" lon="-3.3683">
        <ele>-2.75</ele>
        <time>2015-10-10T15:08:29Z</time>
      </trkpt>
      <trkpt lat="47.65476" lon="-3.36829">
        <ele>-2.75</ele>
        <time>2015-10-10T15:08:30Z</time>
      </trkpt>
      <trkpt lat="47.65479" lon="-3.36828">
        <ele>-2.75</ele>
        <time>2015-10-10T15:08:31Z</time>
      </trkpt>
      <trkpt lat="47.65482" lon="-3.36828">
        <ele>-2.75</ele>
        <time>2015-10-10T15:08:32Z</time>
      </trkpt>
      <trkpt lat="47.65485" lon="-3.36828">
        <ele>-2.75</ele>
        <time>2015-10-10T15:08:33Z</time>
      </trkpt>
      <trkpt lat="47.65488" lon="-3.36828">
        <ele>-2.75</ele>
        <time>2015-10-10T15:08:34Z</time>
      </trkpt>
      <trkpt lat="47.6549" lon="-3.36828">
        <ele>-2.75</ele>
        <time>2015-10-10T15:08:35Z</time>
      </trkpt>
      <trkpt lat="47.65493" lon="-3.36828">
        <ele>-2.75</ele>
        <time>2015-10-10T15:08:36Z</time>
      </trkpt>
      <trkpt lat="47.65496" lon="-3.36829">
        <ele>-2.75</ele>
        <time>2015-10-10T15:08:37Z</time>
      </trkpt>
      <trkpt lat="47.65499" lon="-3.3683">
        <ele>-2.75</ele>
        <time>2015-10-10T15:08:38Z</time>
      </trkpt>
      <trkpt lat="47.65502" lon="-3.3683">
        <ele>-2.75</ele>
        <time>2015-10-10T15:08:39Z</time>
      </trkpt>
      <trkpt lat="47.65504" lon="-3.3683">
        <ele>-2.75</ele>
        <time>2015-10-10T15:08:40Z</time>
      </trkpt>
      <trkpt lat="47.65507" lon="-3.36831">
        <ele>-4.19</ele>
        <time>2015-10-10T15:08:41Z</time>
      </trkpt>
      <trkpt lat="47.6551" lon="-3.36831">
        <ele>-4.19</ele>
        <time>2015-10-10T15:08:42Z</time>
      </trkpt>
      <trkpt lat="47.65512" lon="-3.36832">
        <ele>-4.19</ele>
        <time>2015-10-10T15:08:43Z</time>
      </trkpt>
      <trkpt lat="47.65515" lon="-3.36832">
        <ele>-3.23</ele>
        <time>2015-10-10T15:08:44Z</time>
      </trkpt>
      <trkpt lat="47.65518" lon="-3.36832">
        <ele>-3.23</ele>
        <time>2015-10-10T15:08:45Z</time>
      </trkpt>
      <trkpt lat="47.65521" lon="-3.36832">
        <ele>-3.23</ele>
        <time>2015-10-10T15:08:46Z</time>
      </trkpt>
      <trkpt lat="47.65523" lon="-3.36831">
        <ele>-3.23</ele>
        <time>2015-10-10T15:08:47Z</time>
      </trkpt>
      <trkpt lat="47.65526" lon="-3.36831">
        <ele>-3.23</ele>
        <time>2015-10-10T15:08:48Z</time>
      </trkpt>
      <trkpt lat="47.65529" lon="-3.36831">
        <ele>-3.23</ele>
        <time>2015-10-10T15:08:49Z</time>
      </trkpt>
      <trkpt lat="47.65531" lon="-3.3683">
        <ele>-3.23</ele>
        <time>2015-10-10T15:08:50Z</time>
      </trkpt>
      <trkpt lat="47.65534" lon="-3.36831">
        <ele>-3.23</ele>
        <time>2015-10-10T15:08:51Z</time>
      </trkpt>
      <trkpt lat="47.65537" lon="-3.36831">
        <ele>-3.23</ele>
        <time>2015-10-10T15:08:52Z</time>
      </trkpt>
      <trkpt lat="47.6554" lon="-3.36832">
        <ele>-2.75</ele>
        <time>2015-10-10T15:08:53Z</time>
      </trkpt>
      <trkpt lat="47.65543" lon="-3.36832">
        <ele>-3.23</ele>
        <time>2015-10-10T15:08:54Z</time>
      </trkpt>
      <trkpt lat="47.65545" lon="-3.36832">
        <ele>-3.23</ele>
        <time>2015-10-10T15:08:55Z</time>
      </trkpt>
      <trkpt lat="47.65548" lon="-3.36833">
        <ele>-3.23</ele>
        <time>2015-10-10T15:08:56Z</time>
      </trkpt>
      <trkpt lat="47.6555" lon="-3.36833">
        <ele>-2.75</ele>
        <time>2015-10-10T15:08:57Z</time>
      </trkpt>
      <trkpt lat="47.65553" lon="-3.36833">
        <ele>-2.75</ele>
        <time>2015-10-10T15:08:58Z</time>
      </trkpt>
      <trkpt lat="47.65556" lon="-3.36833">
        <ele>-2.75</ele>
        <time>2015-10-10T15:08:59Z</time>
      </trkpt>
      <trkpt lat="47.65558" lon="-3.36833">
        <ele>-3.23</ele>
        <time>2015-10-10T15:09:00Z</time>
      </trkpt>
      <trkpt lat="47.65561" lon="-3.36833">
        <ele>-3.23</ele>
        <time>2015-10-10T15:09:01Z</time>
      </trkpt>
      <trkpt lat="47.65564" lon="-3.36834">
        <ele>-3.23</ele>
        <time>2015-10-10T15:09:02Z</time>
      </trkpt>
      <trkpt lat="47.65566" lon="-3.36834">
        <ele>-3.23</ele>
        <time>2015-10-10T15:09:03Z</time>
      </trkpt>
      <trkpt lat="47.65569" lon="-3.36835">
        <ele>-3.23</ele>
        <time>2015-10-10T15:09:04Z</time>
      </trkpt>
      <trkpt lat="47.65571" lon="-3.36835">
        <ele>-3.23</ele>
        <time>2015-10-10T15:09:05Z</time>
      </trkpt>
      <trkpt lat="47.65574" lon="-3.36836">
        <ele>-3.23</ele>
        <time>2015-10-10T15:09:06Z</time>
      </trkpt>
      <trkpt lat="47.65577" lon="-3.36836">
        <ele>-3.23</ele>
        <time>2015-10-10T15:09:07Z</time>
      </trkpt>
      <trkpt lat="47.65579" lon="-3.36836">
        <ele>-3.23</ele>
        <time>2015-10-10T15:09:08Z</time>
      </trkpt>
      <trkpt lat="47.65582" lon="-3.36837">
        <ele>-3.23</ele>
        <time>2015-10-10T15:09:09Z</time>
      </trkpt>
      <trkpt lat="47.65585" lon="-3.36838">
        <ele>-3.23</ele>
        <time>2015-10-10T15:09:10Z</time>
      </trkpt>
      <trkpt lat="47.65587" lon="-3.36838">
        <ele>-3.23</ele>
        <time>2015-10-10T15:09:11Z</time>
      </trkpt>
      <trkpt lat="47.6559" lon="-3.36839">
        <ele>-3.23</ele>
        <time>2015-10-10T15:09:12Z</time>
      </trkpt>
      <trkpt lat="47.65593" lon="-3.36839">
        <ele>-3.23</ele>
        <time>2015-10-10T15:09:13Z</time>
      </trkpt>
      <trkpt lat="47.65595" lon="-3.36839">
        <ele>-3.23</ele>
        <time>2015-10-10T15:09:14Z</time>
      </trkpt>
      <trkpt lat="47.65598" lon="-3.36839">
        <ele>-3.23</ele>
        <time>2015-10-10T15:09:15Z</time>
      </trkpt>
      <trkpt lat="47.65601" lon="-3.36839">
        <ele>-3.23</ele>
        <time>2015-10-10T15:09:16Z</time>
      </trkpt>
      <trkpt lat="47.65603" lon="-3.36839">
        <ele>-3.23</ele>
        <time>2015-10-10T15:09:17Z</time>
      </trkpt>
      <trkpt lat="47.65606" lon="-3.3684">
        <ele>-3.23</ele>
        <time>2015-10-10T15:09:18Z</time>
      </trkpt>
      <trkpt lat="47.65609" lon="-3.36841">
        <ele>-3.23</ele>
        <time>2015-10-10T15:09:19Z</time>
      </trkpt>
      <trkpt lat="47.65612" lon="-3.36841">
        <ele>-3.23</ele>
        <time>2015-10-10T15:09:20Z</time>
      </trkpt>
      <trkpt lat="47.65614" lon="-3.36841">
        <ele>-3.23</ele>
        <time>2015-10-10T15:09:21Z</time>
      </trkpt>
      <trkpt lat="47.65617" lon="-3.36841">
        <ele>-3.23</ele>
        <time>2015-10-10T15:09:22Z</time>
      </trkpt>
      <trkpt lat="47.65619" lon="-3.36841">
        <ele>-3.23</ele>
        <time>2015-10-10T15:09:23Z</time>
      </trkpt>
      <trkpt lat="47.65622" lon="-3.36842">
        <ele>-3.23</ele>
        <time>2015-10-10T15:09:24Z</time>
      </trkpt>
      <trkpt lat="47.65625" lon="-3.36842">
        <ele>-3.23</ele>
        <time>2015-10-10T15:09:25Z</time>
      </trkpt>
      <trkpt lat="47.65627" lon="-3.36843">
        <ele>-3.23</ele>
        <time>2015-10-10T15:09:26Z</time>
      </trkpt>
      <trkpt lat="47.6563" lon="-3.36843">
        <ele>-3.23</ele>
        <time>2015-10-10T15:09:27Z</time>
      </trkpt>
      <trkpt lat="47.65633" lon="-3.36844">
        <ele>-3.23</ele>
        <time>2015-10-10T15:09:28Z</time>
      </trkpt>
      <trkpt lat="47.65635" lon="-3.36843">
        <ele>-3.23</ele>
        <time>2015-10-10T15:09:29Z</time>
      </trkpt>
      <trkpt lat="47.65638" lon="-3.36843">
        <ele>-3.23</ele>
        <time>2015-10-10T15:09:30Z</time>
      </trkpt>
      <trkpt lat="47.6564" lon="-3.36843">
        <ele>-3.23</ele>
        <time>2015-10-10T15:09:31Z</time>
      </trkpt>
      <trkpt lat="47.65643" lon="-3.36843">
        <ele>-2.75</ele>
        <time>2015-10-10T15:09:32Z</time>
      </trkpt>
      <trkpt lat="47.65646" lon="-3.36843">
        <ele>-2.75</ele>
        <time>2015-10-10T15:09:33Z</time>
      </trkpt>
      <trkpt lat="47.65649" lon="-3.36843">
        <ele>-2.75</ele>
        <time>2015-10-10T15:09:34Z</time>
      </trkpt>
      <trkpt lat="47.65652" lon="-3.36843">
        <ele>-2.75</ele>
        <time>2015-10-10T15:09:35Z</time>
      </trkpt>
      <trkpt lat="47.65655" lon="-3.36842">
        <ele>-2.75</ele>
        <time>2015-10-10T15:09:36Z</time>
      </trkpt>
      <trkpt lat="47.65657" lon="-3.36842">
        <ele>-2.75</ele>
        <time>2015-10-10T15:09:37Z</time>
      </trkpt>
      <trkpt lat="47.6566" lon="-3.36842">
        <ele>-2.75</ele>
        <time>2015-10-10T15:09:38Z</time>
      </trkpt>
      <trkpt lat="47.65663" lon="-3.36842">
        <ele>-2.75</ele>
        <time>2015-10-10T15:09:39Z</time>
      </trkpt>
      <trkpt lat="47.65666" lon="-3.36842">
        <ele>-2.75</ele>
        <time>2015-10-10T15:09:40Z</time>
      </trkpt>
      <trkpt lat="47.65669" lon="-3.36842">
        <ele>-2.75</ele>
        <time>2015-10-10T15:09:41Z</time>
      </trkpt>
      <trkpt lat="47.65672" lon="-3.36841">
        <ele>-2.75</ele>
        <time>2015-10-10T15:09:42Z</time>
      </trkpt>
      <trkpt lat="47.65674" lon="-3.36841">
        <ele>-2.75</ele>
        <time>2015-10-10T15:09:43Z</time>
      </trkpt>
      <trkpt lat="47.65677" lon="-3.36841">
        <ele>-2.75</ele>
        <time>2015-10-10T15:09:44Z</time>
      </trkpt>
      <trkpt lat="47.65679" lon="-3.36841">
        <ele>-2.75</ele>
        <time>2015-10-10T15:09:45Z</time>
      </trkpt>
      <trkpt lat="47.65682" lon="-3.36842">
        <ele>-2.75</ele>
        <time>2015-10-10T15:09:46Z</time>
      </trkpt>
      <trkpt lat="47.65685" lon="-3.36842">
        <ele>-2.75</ele>
        <time>2015-10-10T15:09:47Z</time>
      </trkpt>
      <trkpt lat="47.65688" lon="-3.36843">
        <ele>-2.75</ele>
        <time>2015-10-10T15:09:48Z</time>
      </trkpt>
      <trkpt lat="47.65691" lon="-3.36844">
        <ele>-2.75</ele>
        <time>2015-10-10T15:09:49Z</time>
      </trkpt>
      <trkpt lat="47.65694" lon="-3.36844">
        <ele>-2.75</ele>
        <time>2015-10-10T15:09:50Z</time>
      </trkpt>
      <trkpt lat="47.65697" lon="-3.36844">
        <ele>-2.75</ele>
        <time>2015-10-10T15:09:51Z</time>
      </trkpt>
      <trkpt lat="47.657" lon="-3.36844">
        <ele>-2.75</ele>
        <time>2015-10-10T15:09:52Z</time>
      </trkpt>
      <trkpt lat="47.65702" lon="-3.36845">
        <ele>-2.75</ele>
        <time>2015-10-10T15:09:53Z</time>
      </trkpt>
      <trkpt lat="47.65705" lon="-3.36845">
        <ele>-2.75</ele>
        <time>2015-10-10T15:09:54Z</time>
      </trkpt>
      <trkpt lat="47.65708" lon="-3.36845">
        <ele>-2.27</ele>
        <time>2015-10-10T15:09:55Z</time>
      </trkpt>
      <trkpt lat="47.65711" lon="-3.36845">
        <ele>-2.75</ele>
        <time>2015-10-10T15:09:56Z</time>
      </trkpt>
      <trkpt lat="47.65714" lon="-3.36845">
        <ele>-2.75</ele>
        <time>2015-10-10T15:09:57Z</time>
      </trkpt>
      <trkpt lat="47.65717" lon="-3.36845">
        <ele>-2.75</ele>
        <time>2015-10-10T15:09:58Z</time>
      </trkpt>
      <trkpt lat="47.6572" lon="-3.36845">
        <ele>-2.75</ele>
        <time>2015-10-10T15:09:59Z</time>
      </trkpt>
      <trkpt lat="47.65723" lon="-3.36845">
        <ele>-2.75</ele>
        <time>2015-10-10T15:10:00Z</time>
      </trkpt>
      <trkpt lat="47.65725" lon="-3.36845">
        <ele>-3.71</ele>
        <time>2015-10-10T15:10:01Z</time>
      </trkpt>
      <trkpt lat="47.65728" lon="-3.36845">
        <ele>-3.71</ele>
        <time>2015-10-10T15:10:02Z</time>
      </trkpt>
      <trkpt lat="47.6573" lon="-3.36845">
        <ele>-3.71</ele>
        <time>2015-10-10T15:10:03Z</time>
      </trkpt>
      <trkpt lat="47.65733" lon="-3.36846">
        <ele>-3.71</ele>
        <time>2015-10-10T15:10:04Z</time>
      </trkpt>
      <trkpt lat="47.65736" lon="-3.36846">
        <ele>-3.71</ele>
        <time>2015-10-10T15:10:05Z</time>
      </trkpt>
      <trkpt lat="47.65739" lon="-3.36847">
        <ele>-3.71</ele>
        <time>2015-10-10T15:10:06Z</time>
      </trkpt>
      <trkpt lat="47.65742" lon="-3.36846">
        <ele>-3.71</ele>
        <time>2015-10-10T15:10:07Z</time>
      </trkpt>
      <trkpt lat="47.65745" lon="-3.36846">
        <ele>-3.71</ele>
        <time>2015-10-10T15:10:08Z</time>
      </trkpt>
      <trkpt lat="47.65748" lon="-3.36846">
        <ele>-3.71</ele>
        <time>2015-10-10T15:10:09Z</time>
      </trkpt>
      <trkpt lat="47.6575" lon="-3.36846">
        <ele>-3.71</ele>
        <time>2015-10-10T15:10:10Z</time>
      </trkpt>
      <trkpt lat="47.65753" lon="-3.36846">
        <ele>-3.71</ele>
        <time>2015-10-10T15:10:11Z</time>
      </trkpt>
      <trkpt lat="47.65756" lon="-3.36847">
        <ele>-3.71</ele>
        <time>2015-10-10T15:10:12Z</time>
      </trkpt>
      <trkpt lat="47.65759" lon="-3.36848">
        <ele>-3.71</ele>
        <time>2015-10-10T15:10:13Z</time>
      </trkpt>
      <trkpt lat="47.65761" lon="-3.36848">
        <ele>-3.71</ele>
        <time>2015-10-10T15:10:14Z</time>
      </trkpt>
      <trkpt lat="47.65764" lon="-3.36847">
        <ele>-3.71</ele>
        <time>2015-10-10T15:10:15Z</time>
      </trkpt>
      <trkpt lat="47.65767" lon="-3.36848">
        <ele>-3.71</ele>
        <time>2015-10-10T15:10:16Z</time>
      </trkpt>
      <trkpt lat="47.6577" lon="-3.36848">
        <ele>-3.71</ele>
        <time>2015-10-10T15:10:17Z</time>
      </trkpt>
      <trkpt lat="47.65773" lon="-3.36848">
        <ele>-3.71</ele>
        <time>2015-10-10T15:10:18Z</time>
      </trkpt>
      <trkpt lat="47.65775" lon="-3.36848">
        <ele>-3.71</ele>
        <time>2015-10-10T15:10:19Z</time>
      </trkpt>
      <trkpt lat="47.65778" lon="-3.36849">
        <ele>-3.71</ele>
        <time>2015-10-10T15:10:20Z</time>
      </trkpt>
      <trkpt lat="47.65781" lon="-3.36849">
        <ele>-3.71</ele>
        <time>2015-10-10T15:10:21Z</time>
      </trkpt>
      <trkpt lat="47.65784" lon="-3.3685">
        <ele>-3.71</ele>
        <time>2015-10-10T15:10:22Z</time>
      </trkpt>
      <trkpt lat="47.65786" lon="-3.36849">
        <ele>-3.71</ele>
        <time>2015-10-10T15:10:23Z</time>
      </trkpt>
      <trkpt lat="47.65789" lon="-3.36849">
        <ele>-3.71</ele>
        <time>2015-10-10T15:10:24Z</time>
      </trkpt>
      <trkpt lat="47.65792" lon="-3.36849">
        <ele>-3.71</ele>
        <time>2015-10-10T15:10:25Z</time>
      </trkpt>
      <trkpt lat="47.65795" lon="-3.3685">
        <ele>-3.71</ele>
        <time>2015-10-10T15:10:26Z</time>
      </trkpt>
      <trkpt lat="47.65797" lon="-3.36849">
        <ele>-3.71</ele>
        <time>2015-10-10T15:10:27Z</time>
      </trkpt>
      <trkpt lat="47.658" lon="-3.36849">
        <ele>-3.71</ele>
        <time>2015-10-10T15:10:28Z</time>
      </trkpt>
      <trkpt lat="47.65803" lon="-3.36849">
        <ele>-3.71</ele>
        <time>2015-10-10T15:10:29Z</time>
      </trkpt>
      <trkpt lat="47.65806" lon="-3.3685">
        <ele>-3.71</ele>
        <time>2015-10-10T15:10:30Z</time>
      </trkpt>
      <trkpt lat="47.65809" lon="-3.3685">
        <ele>-3.71</ele>
        <time>2015-10-10T15:10:31Z</time>
      </trkpt>
      <trkpt lat="47.65812" lon="-3.3685">
        <ele>-3.71</ele>
        <time>2015-10-10T15:10:32Z</time>
      </trkpt>
      <trkpt lat="47.65815" lon="-3.3685">
        <ele>-3.71</ele>
        <time>2015-10-10T15:10:33Z</time>
      </trkpt>
      <trkpt lat="47.65817" lon="-3.3685">
        <ele>-3.71</ele>
        <time>2015-10-10T15:10:34Z</time>
      </trkpt>
      <trkpt lat="47.6582" lon="-3.3685">
        <ele>-3.71</ele>
        <time>2015-10-10T15:10:35Z</time>
      </trkpt>
      <trkpt lat="47.65823" lon="-3.36851">
        <ele>-3.71</ele>
        <time>2015-10-10T15:10:36Z</time>
      </trkpt>
      <trkpt lat="47.65826" lon="-3.36851">
        <ele>-3.71</ele>
        <time>2015-10-10T15:10:37Z</time>
      </trkpt>
      <trkpt lat="47.65829" lon="-3.36851">
        <ele>-3.71</ele>
        <time>2015-10-10T15:10:38Z</time>
      </trkpt>
      <trkpt lat="47.65831" lon="-3.36851">
        <ele>-3.71</ele>
        <time>2015-10-10T15:10:39Z</time>
      </trkpt>
      <trkpt lat="47.65834" lon="-3.36851">
        <ele>-3.71</ele>
        <time>2015-10-10T15:10:40Z</time>
      </trkpt>
      <trkpt lat="47.65837" lon="-3.36852">
        <ele>-3.71</ele>
        <time>2015-10-10T15:10:41Z</time>
      </trkpt>
      <trkpt lat="47.65839" lon="-3.36852">
        <ele>-3.71</ele>
        <time>2015-10-10T15:10:42Z</time>
      </trkpt>
      <trkpt lat="47.65842" lon="-3.36852">
        <ele>-3.71</ele>
        <time>2015-10-10T15:10:43Z</time>
      </trkpt>
      <trkpt lat="47.65845" lon="-3.36852">
        <ele>-3.71</ele>
        <time>2015-10-10T15:10:44Z</time>
      </trkpt>
      <trkpt lat="47.65848" lon="-3.36852">
        <ele>-3.71</ele>
        <time>2015-10-10T15:10:45Z</time>
      </trkpt>
      <trkpt lat="47.65851" lon="-3.36853">
        <ele>-3.71</ele>
        <time>2015-10-10T15:10:46Z</time>
      </trkpt>
      <trkpt lat="47.65854" lon="-3.36853">
        <ele>-2.75</ele>
        <time>2015-10-10T15:10:47Z</time>
      </trkpt>
      <trkpt lat="47.65857" lon="-3.36854">
        <ele>-2.75</ele>
        <time>2015-10-10T15:10:48Z</time>
      </trkpt>
      <trkpt lat="47.65859" lon="-3.36854">
        <ele>-2.75</ele>
        <time>2015-10-10T15:10:49Z</time>
      </trkpt>
      <trkpt lat="47.65862" lon="-3.36855">
        <ele>-2.75</ele>
        <time>2015-10-10T15:10:50Z</time>
      </trkpt>
      <trkpt lat="47.65865" lon="-3.36856">
        <ele>-2.27</ele>
        <time>2015-10-10T15:10:51Z</time>
      </trkpt>
      <trkpt lat="47.65868" lon="-3.36855">
        <ele>-2.27</ele>
        <time>2015-10-10T15:10:52Z</time>
      </trkpt>
      <trkpt lat="47.65871" lon="-3.36855">
        <ele>-2.27</ele>
        <time>2015-10-10T15:10:53Z</time>
      </trkpt>
      <trkpt lat="47.65874" lon="-3.36854">
        <ele>-2.27</ele>
        <time>2015-10-10T15:10:54Z</time>
      </trkpt>
      <trkpt lat="47.65877" lon="-3.36854">
        <ele>-2.27</ele>
        <time>2015-10-10T15:10:55Z</time>
      </trkpt>
      <trkpt lat="47.6588" lon="-3.36854">
        <ele>-2.27</ele>
        <time>2015-10-10T15:10:56Z</time>
      </trkpt>
      <trkpt lat="47.65882" lon="-3.36854">
        <ele>-2.27</ele>
        <time>2015-10-10T15:10:57Z</time>
      </trkpt>
      <trkpt lat="47.65885" lon="-3.36854">
        <ele>-2.27</ele>
        <time>2015-10-10T15:10:58Z</time>
      </trkpt>
      <trkpt lat="47.65888" lon="-3.36855">
        <ele>-3.23</ele>
        <time>2015-10-10T15:10:59Z</time>
      </trkpt>
      <trkpt lat="47.6589" lon="-3.36855">
        <ele>-3.23</ele>
        <time>2015-10-10T15:11:00Z</time>
      </trkpt>
      <trkpt lat="47.65893" lon="-3.36854">
        <ele>-3.23</ele>
        <time>2015-10-10T15:11:01Z</time>
      </trkpt>
      <trkpt lat="47.65896" lon="-3.36854">
        <ele>-3.23</ele>
        <time>2015-10-10T15:11:02Z</time>
      </trkpt>
      <trkpt lat="47.65898" lon="-3.36854">
        <ele>-3.23</ele>
        <time>2015-10-10T15:11:03Z</time>
      </trkpt>
      <trkpt lat="47.65901" lon="-3.36854">
        <ele>-3.23</ele>
        <time>2015-10-10T15:11:04Z</time>
      </trkpt>
      <trkpt lat="47.65904" lon="-3.36853">
        <ele>-3.23</ele>
        <time>2015-10-10T15:11:05Z</time>
      </trkpt>
      <trkpt lat="47.65907" lon="-3.36852">
        <ele>-3.23</ele>
        <time>2015-10-10T15:11:06Z</time>
      </trkpt>
      <trkpt lat="47.65909" lon="-3.36852">
        <ele>-3.23</ele>
        <time>2015-10-10T15:11:07Z</time>
      </trkpt>
      <trkpt lat="47.65912" lon="-3.36851">
        <ele>-3.23</ele>
        <time>2015-10-10T15:11:08Z</time>
      </trkpt>
      <trkpt lat="47.65915" lon="-3.36851">
        <ele>-3.23</ele>
        <time>2015-10-10T15:11:09Z</time>
      </trkpt>
      <trkpt lat="47.65918" lon="-3.36852">
        <ele>-3.23</ele>
        <time>2015-10-10T15:11:10Z</time>
      </trkpt>
      <trkpt lat="47.65921" lon="-3.36852">
        <ele>-3.23</ele>
        <time>2015-10-10T15:11:11Z</time>
      </trkpt>
      <trkpt lat="47.65924" lon="-3.36853">
        <ele>-3.23</ele>
        <time>2015-10-10T15:11:12Z</time>
      </trkpt>
      <trkpt lat="47.65927" lon="-3.36853">
        <ele>-3.23</ele>
        <time>2015-10-10T15:11:13Z</time>
      </trkpt>
      <trkpt lat="47.6593" lon="-3.36853">
        <ele>-3.23</ele>
        <time>2015-10-10T15:11:14Z</time>
      </trkpt>
      <trkpt lat="47.65932" lon="-3.36853">
        <ele>-3.23</ele>
        <time>2015-10-10T15:11:15Z</time>
      </trkpt>
      <trkpt lat="47.65935" lon="-3.36853">
        <ele>-3.23</ele>
        <time>2015-10-10T15:11:16Z</time>
      </trkpt>
      <trkpt lat="47.65938" lon="-3.36853">
        <ele>-3.23</ele>
        <time>2015-10-10T15:11:17Z</time>
      </trkpt>
      <trkpt lat="47.6594" lon="-3.36854">
        <ele>-3.23</ele>
        <time>2015-10-10T15:11:18Z</time>
      </trkpt>
      <trkpt lat="47.65943" lon="-3.36855">
        <ele>-3.23</ele>
        <time>2015-10-10T15:11:19Z</time>
      </trkpt>
      <trkpt lat="47.65946" lon="-3.36856">
        <ele>-3.23</ele>
        <time>2015-10-10T15:11:20Z</time>
      </trkpt>
      <trkpt lat="47.65949" lon="-3.36858">
        <ele>-2.27</ele>
        <time>2015-10-10T15:11:21Z</time>
      </trkpt>
      <trkpt lat="47.65952" lon="-3.36858">
        <ele>-2.27</ele>
        <time>2015-10-10T15:11:22Z</time>
      </trkpt>
      <trkpt lat="47.65954" lon="-3.36858">
        <ele>-2.27</ele>
        <time>2015-10-10T15:11:23Z</time>
      </trkpt>
      <trkpt lat="47.65957" lon="-3.36857">
        <ele>-2.27</ele>
        <time>2015-10-10T15:11:24Z</time>
      </trkpt>
      <trkpt lat="47.65959" lon="-3.36857">
        <ele>-2.27</ele>
        <time>2015-10-10T15:11:25Z</time>
      </trkpt>
      <trkpt lat="47.65962" lon="-3.36857">
        <ele>-2.27</ele>
        <time>2015-10-10T15:11:26Z</time>
      </trkpt>
      <trkpt lat="47.65965" lon="-3.36857">
        <ele>-2.27</ele>
        <time>2015-10-10T15:11:27Z</time>
      </trkpt>
      <trkpt lat="47.65968" lon="-3.36857">
        <ele>-2.27</ele>
        <time>2015-10-10T15:11:28Z</time>
      </trkpt>
      <trkpt lat="47.65971" lon="-3.36857">
        <ele>-2.27</ele>
        <time>2015-10-10T15:11:29Z</time>
      </trkpt>
      <trkpt lat="47.65973" lon="-3.36856">
        <ele>-2.27</ele>
        <time>2015-10-10T15:11:30Z</time>
      </trkpt>
      <trkpt lat="47.65976" lon="-3.36856">
        <ele>-2.27</ele>
        <time>2015-10-10T15:11:31Z</time>
      </trkpt>
      <trkpt lat="47.65979" lon="-3.36855">
        <ele>-2.27</ele>
        <time>2015-10-10T15:11:32Z</time>
      </trkpt>
      <trkpt lat="47.65981" lon="-3.36855">
        <ele>-2.27</ele>
        <time>2015-10-10T15:11:33Z</time>
      </trkpt>
      <trkpt lat="47.65984" lon="-3.36855">
        <ele>-2.27</ele>
        <time>2015-10-10T15:11:34Z</time>
      </trkpt>
      <trkpt lat="47.65987" lon="-3.36854">
        <ele>-2.27</ele>
        <time>2015-10-10T15:11:35Z</time>
      </trkpt>
      <trkpt lat="47.6599" lon="-3.36854">
        <ele>-2.27</ele>
        <time>2015-10-10T15:11:36Z</time>
      </trkpt>
      <trkpt lat="47.65993" lon="-3.36853">
        <ele>-2.27</ele>
        <time>2015-10-10T15:11:37Z</time>
      </trkpt>
      <trkpt lat="47.65996" lon="-3.36853">
        <ele>-2.27</ele>
        <time>2015-10-10T15:11:38Z</time>
      </trkpt>
      <trkpt lat="47.65998" lon="-3.36854">
        <ele>-2.27</ele>
        <time>2015-10-10T15:11:39Z</time>
      </trkpt>
      <trkpt lat="47.66001" lon="-3.36854">
        <ele>-2.27</ele>
        <time>2015-10-10T15:11:40Z</time>
      </trkpt>
      <trkpt lat="47.66005" lon="-3.36854">
        <ele>-2.27</ele>
        <time>2015-10-10T15:11:41Z</time>
      </trkpt>
      <trkpt lat="47.66008" lon="-3.36854">
        <ele>-2.27</ele>
        <time>2015-10-10T15:11:42Z</time>
      </trkpt>
      <trkpt lat="47.6601" lon="-3.36854">
        <ele>-2.27</ele>
        <time>2015-10-10T15:11:43Z</time>
      </trkpt>
      <trkpt lat="47.66013" lon="-3.36855">
        <ele>-2.27</ele>
        <time>2015-10-10T15:11:44Z</time>
      </trkpt>
      <trkpt lat="47.66016" lon="-3.36855">
        <ele>-2.27</ele>
        <time>2015-10-10T15:11:45Z</time>
      </trkpt>
      <trkpt lat="47.66019" lon="-3.36855">
        <ele>-2.27</ele>
        <time>2015-10-10T15:11:46Z</time>
      </trkpt>
      <trkpt lat="47.66021" lon="-3.36855">
        <ele>-2.27</ele>
        <time>2015-10-10T15:11:47Z</time>
      </trkpt>
      <trkpt lat="47.66024" lon="-3.36855">
        <ele>-2.27</ele>
        <time>2015-10-10T15:11:48Z</time>
      </trkpt>
      <trkpt lat="47.66027" lon="-3.36855">
        <ele>-2.27</ele>
        <time>2015-10-10T15:11:49Z</time>
      </trkpt>
      <trkpt lat="47.6603" lon="-3.36855">
        <ele>-2.27</ele>
        <time>2015-10-10T15:11:50Z</time>
      </trkpt>
      <trkpt lat="47.66032" lon="-3.36855">
        <ele>-2.27</ele>
        <time>2015-10-10T15:11:51Z</time>
      </trkpt>
      <trkpt lat="47.66035" lon="-3.36854">
        <ele>-2.27</ele>
        <time>2015-10-10T15:11:52Z</time>
      </trkpt>
      <trkpt lat="47.66038" lon="-3.36855">
        <ele>-2.27</ele>
        <time>2015-10-10T15:11:53Z</time>
      </trkpt>
      <trkpt lat="47.66041" lon="-3.36855">
        <ele>-2.27</ele>
        <time>2015-10-10T15:11:54Z</time>
      </trkpt>
      <trkpt lat="47.66043" lon="-3.36855">
        <ele>-2.27</ele>
        <time>2015-10-10T15:11:55Z</time>
      </trkpt>
      <trkpt lat="47.66046" lon="-3.36855">
        <ele>-2.27</ele>
        <time>2015-10-10T15:11:56Z</time>
      </trkpt>
      <trkpt lat="47.66049" lon="-3.36856">
        <ele>-2.27</ele>
        <time>2015-10-10T15:11:57Z</time>
      </trkpt>
      <trkpt lat="47.66052" lon="-3.36856">
        <ele>-2.27</ele>
        <time>2015-10-10T15:11:58Z</time>
      </trkpt>
      <trkpt lat="47.66055" lon="-3.36856">
        <ele>-2.27</ele>
        <time>2015-10-10T15:11:59Z</time>
      </trkpt>
      <trkpt lat="47.66057" lon="-3.36857">
        <ele>-2.27</ele>
        <time>2015-10-10T15:12:00Z</time>
      </trkpt>
      <trkpt lat="47.6606" lon="-3.36857">
        <ele>-2.27</ele>
        <time>2015-10-10T15:12:01Z</time>
      </trkpt>
      <trkpt lat="47.66063" lon="-3.36857">
        <ele>-2.27</ele>
        <time>2015-10-10T15:12:02Z</time>
      </trkpt>
      <trkpt lat="47.66066" lon="-3.36856">
        <ele>-2.27</ele>
        <time>2015-10-10T15:12:03Z</time>
      </trkpt>
      <trkpt lat="47.66068" lon="-3.36856">
        <ele>-2.27</ele>
        <time>2015-10-10T15:12:04Z</time>
      </trkpt>
      <trkpt lat="47.66071" lon="-3.36856">
        <ele>-2.27</ele>
        <time>2015-10-10T15:12:05Z</time>
      </trkpt>
      <trkpt lat="47.66074" lon="-3.36857">
        <ele>-2.27</ele>
        <time>2015-10-10T15:12:06Z</time>
      </trkpt>
      <trkpt lat="47.66077" lon="-3.36857">
        <ele>-2.27</ele>
        <time>2015-10-10T15:12:07Z</time>
      </trkpt>
      <trkpt lat="47.66079" lon="-3.36857">
        <ele>-2.27</ele>
        <time>2015-10-10T15:12:08Z</time>
      </trkpt>
      <trkpt lat="47.66082" lon="-3.36857">
        <ele>-2.27</ele>
        <time>2015-10-10T15:12:09Z</time>
      </trkpt>
      <trkpt lat="47.66085" lon="-3.36858">
        <ele>-2.27</ele>
        <time>2015-10-10T15:12:10Z</time>
      </trkpt>
      <trkpt lat="47.66088" lon="-3.3686">
        <ele>-2.27</ele>
        <time>2015-10-10T15:12:11Z</time>
      </trkpt>
      <trkpt lat="47.6609" lon="-3.36861">
        <ele>-2.27</ele>
        <time>2015-10-10T15:12:12Z</time>
      </trkpt>
      <trkpt lat="47.66093" lon="-3.36861">
        <ele>-2.27</ele>
        <time>2015-10-10T15:12:13Z</time>
      </trkpt>
      <trkpt lat="47.66096" lon="-3.36862">
        <ele>-2.27</ele>
        <time>2015-10-10T15:12:14Z</time>
      </trkpt>
      <trkpt lat="47.66098" lon="-3.36863">
        <ele>-2.27</ele>
        <time>2015-10-10T15:12:15Z</time>
      </trkpt>
      <trkpt lat="47.66101" lon="-3.36863">
        <ele>-2.27</ele>
        <time>2015-10-10T15:12:16Z</time>
      </trkpt>
      <trkpt lat="47.66104" lon="-3.36863">
        <ele>-2.27</ele>
        <time>2015-10-10T15:12:17Z</time>
      </trkpt>
      <trkpt lat="47.66107" lon="-3.36863">
        <ele>-2.27</ele>
        <time>2015-10-10T15:12:18Z</time>
      </trkpt>
      <trkpt lat="47.66109" lon="-3.36863">
        <ele>-2.27</ele>
        <time>2015-10-10T15:12:19Z</time>
      </trkpt>
      <trkpt lat="47.66112" lon="-3.36863">
        <ele>-3.23</ele>
        <time>2015-10-10T15:12:20Z</time>
      </trkpt>
      <trkpt lat="47.66114" lon="-3.36864">
        <ele>-3.23</ele>
        <time>2015-10-10T15:12:21Z</time>
      </trkpt>
      <trkpt lat="47.66117" lon="-3.36864">
        <ele>-3.23</ele>
        <time>2015-10-10T15:12:22Z</time>
      </trkpt>
      <trkpt lat="47.6612" lon="-3.36865">
        <ele>-3.23</ele>
        <time>2015-10-10T15:12:23Z</time>
      </trkpt>
      <trkpt lat="47.66123" lon="-3.36865">
        <ele>-3.23</ele>
        <time>2015-10-10T15:12:24Z</time>
      </trkpt>
      <trkpt lat="47.66126" lon="-3.36865">
        <ele>-3.23</ele>
        <time>2015-10-10T15:12:25Z</time>
      </trkpt>
      <trkpt lat="47.66129" lon="-3.36865">
        <ele>-3.23</ele>
        <time>2015-10-10T15:12:26Z</time>
      </trkpt>
      <trkpt lat="47.66131" lon="-3.36865">
        <ele>-3.23</ele>
        <time>2015-10-10T15:12:27Z</time>
      </trkpt>
      <trkpt lat="47.66134" lon="-3.36866">
        <ele>-3.23</ele>
        <time>2015-10-10T15:12:28Z</time>
      </trkpt>
      <trkpt lat="47.66137" lon="-3.36866">
        <ele>-3.23</ele>
        <time>2015-10-10T15:12:29Z</time>
      </trkpt>
      <trkpt lat="47.6614" lon="-3.36867">
        <ele>-3.23</ele>
        <time>2015-10-10T15:12:30Z</time>
      </trkpt>
      <trkpt lat="47.66142" lon="-3.36868">
        <ele>-3.23</ele>
        <time>2015-10-10T15:12:31Z</time>
      </trkpt>
      <trkpt lat="47.66145" lon="-3.36868">
        <ele>-3.23</ele>
        <time>2015-10-10T15:12:32Z</time>
      </trkpt>
      <trkpt lat="47.66148" lon="-3.36868">
        <ele>-3.23</ele>
        <time>2015-10-10T15:12:33Z</time>
      </trkpt>
      <trkpt lat="47.66151" lon="-3.36868">
        <ele>-3.23</ele>
        <time>2015-10-10T15:12:34Z</time>
      </trkpt>
      <trkpt lat="47.66154" lon="-3.36869">
        <ele>-3.23</ele>
        <time>2015-10-10T15:12:35Z</time>
      </trkpt>
      <trkpt lat="47.66156" lon="-3.36869">
        <ele>-3.23</ele>
        <time>2015-10-10T15:12:36Z</time>
      </trkpt>
      <trkpt lat="47.66159" lon="-3.36869">
        <ele>-3.23</ele>
        <time>2015-10-10T15:12:37Z</time>
      </trkpt>
      <trkpt lat="47.66162" lon="-3.36869">
        <ele>-3.23</ele>
        <time>2015-10-10T15:12:38Z</time>
      </trkpt>
      <trkpt lat="47.66165" lon="-3.36869">
        <ele>-3.23</ele>
        <time>2015-10-10T15:12:39Z</time>
      </trkpt>
      <trkpt lat="47.66168" lon="-3.36868">
        <ele>-3.23</ele>
        <time>2015-10-10T15:12:40Z</time>
      </trkpt>
      <trkpt lat="47.66171" lon="-3.36868">
        <ele>-3.23</ele>
        <time>2015-10-10T15:12:41Z</time>
      </trkpt>
      <trkpt lat="47.66173" lon="-3.36867">
        <ele>-3.23</ele>
        <time>2015-10-10T15:12:42Z</time>
      </trkpt>
      <trkpt lat="47.66176" lon="-3.36867">
        <ele>-3.23</ele>
        <time>2015-10-10T15:12:43Z</time>
      </trkpt>
      <trkpt lat="47.66179" lon="-3.36868">
        <ele>-3.23</ele>
        <time>2015-10-10T15:12:44Z</time>
      </trkpt>
      <trkpt lat="47.66181" lon="-3.36869">
        <ele>-3.23</ele>
        <time>2015-10-10T15:12:45Z</time>
      </trkpt>
      <trkpt lat="47.66184" lon="-3.3687">
        <ele>-3.23</ele>
        <time>2015-10-10T15:12:46Z</time>
      </trkpt>
      <trkpt lat="47.66187" lon="-3.36871">
        <ele>-3.23</ele>
        <time>2015-10-10T15:12:47Z</time>
      </trkpt>
      <trkpt lat="47.6619" lon="-3.36871">
        <ele>-3.23</ele>
        <time>2015-10-10T15:12:48Z</time>
      </trkpt>
      <trkpt lat="47.66193" lon="-3.36872">
        <ele>-3.23</ele>
        <time>2015-10-10T15:12:49Z</time>
      </trkpt>
      <trkpt lat="47.66195" lon="-3.36872">
        <ele>-3.23</ele>
        <time>2015-10-10T15:12:50Z</time>
      </trkpt>
      <trkpt lat="47.66199" lon="-3.36873">
        <ele>-3.23</ele>
        <time>2015-10-10T15:12:51Z</time>
      </trkpt>
      <trkpt lat="47.66201" lon="-3.36874">
        <ele>-3.23</ele>
        <time>2015-10-10T15:12:52Z</time>
      </trkpt>
      <trkpt lat="47.66204" lon="-3.36874">
        <ele>-3.23</ele>
        <time>2015-10-10T15:12:53Z</time>
      </trkpt>
      <trkpt lat="47.66207" lon="-3.36875">
        <ele>-3.23</ele>
        <time>2015-10-10T15:12:54Z</time>
      </trkpt>
      <trkpt lat="47.66209" lon="-3.36875">
        <ele>-3.23</ele>
        <time>2015-10-10T15:12:55Z</time>
      </trkpt>
      <trkpt lat="47.66212" lon="-3.36875">
        <ele>-3.23</ele>
        <time>2015-10-10T15:12:56Z</time>
      </trkpt>
      <trkpt lat="47.66215" lon="-3.36875">
        <ele>-3.23</ele>
        <time>2015-10-10T15:12:57Z</time>
      </trkpt>
      <trkpt lat="47.66217" lon="-3.36875">
        <ele>-3.23</ele>
        <time>2015-10-10T15:12:58Z</time>
      </trkpt>
      <trkpt lat="47.6622" lon="-3.36875">
        <ele>-3.23</ele>
        <time>2015-10-10T15:12:59Z</time>
      </trkpt>
      <trkpt lat="47.66223" lon="-3.36876">
        <ele>-3.23</ele>
        <time>2015-10-10T15:13:00Z</time>
      </trkpt>
      <trkpt lat="47.66226" lon="-3.36877">
        <ele>-3.23</ele>
        <time>2015-10-10T15:13:01Z</time>
      </trkpt>
      <trkpt lat="47.66229" lon="-3.36877">
        <ele>-3.23</ele>
        <time>2015-10-10T15:13:02Z</time>
      </trkpt>
      <trkpt lat="47.66231" lon="-3.36876">
        <ele>-3.23</ele>
        <time>2015-10-10T15:13:03Z</time>
      </trkpt>
      <trkpt lat="47.66234" lon="-3.36876">
        <ele>-3.23</ele>
        <time>2015-10-10T15:13:04Z</time>
      </trkpt>
      <trkpt lat="47.66237" lon="-3.36876">
        <ele>-3.23</ele>
        <time>2015-10-10T15:13:05Z</time>
      </trkpt>
      <trkpt lat="47.66239" lon="-3.36876">
        <ele>-3.23</ele>
        <time>2015-10-10T15:13:06Z</time>
      </trkpt>
      <trkpt lat="47.66242" lon="-3.36875">
        <ele>-3.23</ele>
        <time>2015-10-10T15:13:07Z</time>
      </trkpt>
      <trkpt lat="47.66245" lon="-3.36875">
        <ele>-3.23</ele>
        <time>2015-10-10T15:13:08Z</time>
      </trkpt>
      <trkpt lat="47.66247" lon="-3.36874">
        <ele>-3.23</ele>
        <time>2015-10-10T15:13:09Z</time>
      </trkpt>
      <trkpt lat="47.6625" lon="-3.36874">
        <ele>-3.23</ele>
        <time>2015-10-10T15:13:10Z</time>
      </trkpt>
      <trkpt lat="47.66253" lon="-3.36874">
        <ele>-3.23</ele>
        <time>2015-10-10T15:13:11Z</time>
      </trkpt>
      <trkpt lat="47.66256" lon="-3.36874">
        <ele>-3.23</ele>
        <time>2015-10-10T15:13:12Z</time>
      </trkpt>
      <trkpt lat="47.66259" lon="-3.36874">
        <ele>-3.23</ele>
        <time>2015-10-10T15:13:13Z</time>
      </trkpt>
      <trkpt lat="47.66262" lon="-3.36873">
        <ele>-3.23</ele>
        <time>2015-10-10T15:13:14Z</time>
      </trkpt>
      <trkpt lat="47.66264" lon="-3.36872">
        <ele>-3.23</ele>
        <time>2015-10-10T15:13:15Z</time>
      </trkpt>
      <trkpt lat="47.66267" lon="-3.36872">
        <ele>-3.23</ele>
        <time>2015-10-10T15:13:16Z</time>
      </trkpt>
      <trkpt lat="47.6627" lon="-3.36871">
        <ele>-2.27</ele>
        <time>2015-10-10T15:13:17Z</time>
      </trkpt>
      <trkpt lat="47.66273" lon="-3.36871">
        <ele>-2.27</ele>
        <time>2015-10-10T15:13:18Z</time>
      </trkpt>
      <trkpt lat="47.66276" lon="-3.36871">
        <ele>-2.27</ele>
        <time>2015-10-10T15:13:19Z</time>
      </trkpt>
      <trkpt lat="47.66279" lon="-3.36871">
        <ele>-2.27</ele>
        <time>2015-10-10T15:13:20Z</time>
      </trkpt>
      <trkpt lat="47.66282" lon="-3.36872">
        <ele>-2.27</ele>
        <time>2015-10-10T15:13:21Z</time>
      </trkpt>
      <trkpt lat="47.66284" lon="-3.36872">
        <ele>-2.27</ele>
        <time>2015-10-10T15:13:22Z</time>
      </trkpt>
      <trkpt lat="47.66287" lon="-3.36872">
        <ele>-2.27</ele>
        <time>2015-10-10T15:13:23Z</time>
      </trkpt>
      <trkpt lat="47.6629" lon="-3.36873">
        <ele>-2.27</ele>
        <time>2015-10-10T15:13:24Z</time>
      </trkpt>
      <trkpt lat="47.66293" lon="-3.36874">
        <ele>-2.27</ele>
        <time>2015-10-10T15:13:25Z</time>
      </trkpt>
      <trkpt lat="47.66296" lon="-3.36874">
        <ele>-2.27</ele>
        <time>2015-10-10T15:13:26Z</time>
      </trkpt>
      <trkpt lat="47.66299" lon="-3.36875">
        <ele>-2.27</ele>
        <time>2015-10-10T15:13:27Z</time>
      </trkpt>
      <trkpt lat="47.66301" lon="-3.36876">
        <ele>-2.27</ele>
        <time>2015-10-10T15:13:28Z</time>
      </trkpt>
      <trkpt lat="47.66304" lon="-3.36876">
        <ele>-2.27</ele>
        <time>2015-10-10T15:13:29Z</time>
      </trkpt>
      <trkpt lat="47.66306" lon="-3.36877">
        <ele>-2.27</ele>
        <time>2015-10-10T15:13:30Z</time>
      </trkpt>
      <trkpt lat="47.66309" lon="-3.36877">
        <ele>-2.27</ele>
        <time>2015-10-10T15:13:31Z</time>
      </trkpt>
      <trkpt lat="47.66312" lon="-3.36877">
        <ele>-2.27</ele>
        <time>2015-10-10T15:13:32Z</time>
      </trkpt>
      <trkpt lat="47.66315" lon="-3.36877">
        <ele>-1.79</ele>
        <time>2015-10-10T15:13:33Z</time>
      </trkpt>
      <trkpt lat="47.66318" lon="-3.36876">
        <ele>-1.79</ele>
        <time>2015-10-10T15:13:34Z</time>
      </trkpt>
      <trkpt lat="47.6632" lon="-3.36876">
        <ele>-1.79</ele>
        <time>2015-10-10T15:13:35Z</time>
      </trkpt>
      <trkpt lat="47.66323" lon="-3.36877">
        <ele>-2.27</ele>
        <time>2015-10-10T15:13:36Z</time>
      </trkpt>
      <trkpt lat="47.66326" lon="-3.36877">
        <ele>-1.79</ele>
        <time>2015-10-10T15:13:37Z</time>
      </trkpt>
      <trkpt lat="47.66329" lon="-3.36878">
        <ele>-2.27</ele>
        <time>2015-10-10T15:13:38Z</time>
      </trkpt>
      <trkpt lat="47.66333" lon="-3.36878">
        <ele>-1.3</ele>
        <time>2015-10-10T15:13:39Z</time>
      </trkpt>
      <trkpt lat="47.66336" lon="-3.36879">
        <ele>-1.3</ele>
        <time>2015-10-10T15:13:40Z</time>
      </trkpt>
      <trkpt lat="47.66339" lon="-3.3688">
        <ele>-1.3</ele>
        <time>2015-10-10T15:13:41Z</time>
      </trkpt>
      <trkpt lat="47.66341" lon="-3.3688">
        <ele>-1.3</ele>
        <time>2015-10-10T15:13:42Z</time>
      </trkpt>
      <trkpt lat="47.66344" lon="-3.3688">
        <ele>-2.75</ele>
        <time>2015-10-10T15:13:43Z</time>
      </trkpt>
      <trkpt lat="47.66347" lon="-3.3688">
        <ele>-3.23</ele>
        <time>2015-10-10T15:13:44Z</time>
      </trkpt>
      <trkpt lat="47.6635" lon="-3.3688">
        <ele>-3.23</ele>
        <time>2015-10-10T15:13:45Z</time>
      </trkpt>
      <trkpt lat="47.66353" lon="-3.36881">
        <ele>-3.23</ele>
        <time>2015-10-10T15:13:46Z</time>
      </trkpt>
      <trkpt lat="47.66356" lon="-3.36881">
        <ele>-3.23</ele>
        <time>2015-10-10T15:13:47Z</time>
      </trkpt>
      <trkpt lat="47.66359" lon="-3.36882">
        <ele>-3.23</ele>
        <time>2015-10-10T15:13:48Z</time>
      </trkpt>
      <trkpt lat="47.66361" lon="-3.36882">
        <ele>-3.23</ele>
        <time>2015-10-10T15:13:49Z</time>
      </trkpt>
      <trkpt lat="47.66364" lon="-3.36882">
        <ele>-3.23</ele>
        <time>2015-10-10T15:13:50Z</time>
      </trkpt>
      <trkpt lat="47.66366" lon="-3.36883">
        <ele>-3.23</ele>
        <time>2015-10-10T15:13:51Z</time>
      </trkpt>
      <trkpt lat="47.66369" lon="-3.36884">
        <ele>-3.23</ele>
        <time>2015-10-10T15:13:52Z</time>
      </trkpt>
      <trkpt lat="47.66371" lon="-3.36884">
        <ele>-3.23</ele>
        <time>2015-10-10T15:13:53Z</time>
      </trkpt>
      <trkpt lat="47.66374" lon="-3.36884">
        <ele>-3.23</ele>
        <time>2015-10-10T15:13:54Z</time>
      </trkpt>
      <trkpt lat="47.66377" lon="-3.36884">
        <ele>-3.23</ele>
        <time>2015-10-10T15:13:55Z</time>
      </trkpt>
      <trkpt lat="47.6638" lon="-3.36884">
        <ele>-3.23</ele>
        <time>2015-10-10T15:13:56Z</time>
      </trkpt>
      <trkpt lat="47.66383" lon="-3.36885">
        <ele>-3.23</ele>
        <time>2015-10-10T15:13:57Z</time>
      </trkpt>
      <trkpt lat="47.66386" lon="-3.36885">
        <ele>-3.23</ele>
        <time>2015-10-10T15:13:58Z</time>
      </trkpt>
      <trkpt lat="47.66388" lon="-3.36886">
        <ele>-3.23</ele>
        <time>2015-10-10T15:13:59Z</time>
      </trkpt>
      <trkpt lat="47.6639" lon="-3.36887">
        <ele>-3.23</ele>
        <time>2015-10-10T15:14:00Z</time>
      </trkpt>
      <trkpt lat="47.66393" lon="-3.36889">
        <ele>-3.23</ele>
        <time>2015-10-10T15:14:01Z</time>
      </trkpt>
      <trkpt lat="47.66396" lon="-3.3689">
        <ele>-3.23</ele>
        <time>2015-10-10T15:14:02Z</time>
      </trkpt>
      <trkpt lat="47.66399" lon="-3.3689">
        <ele>-3.23</ele>
        <time>2015-10-10T15:14:03Z</time>
      </trkpt>
      <trkpt lat="47.66402" lon="-3.36891">
        <ele>-3.23</ele>
        <time>2015-10-10T15:14:04Z</time>
      </trkpt>
      <trkpt lat="47.66404" lon="-3.36891">
        <ele>-3.23</ele>
        <time>2015-10-10T15:14:05Z</time>
      </trkpt>
      <trkpt lat="47.66407" lon="-3.36891">
        <ele>-3.23</ele>
        <time>2015-10-10T15:14:06Z</time>
      </trkpt>
      <trkpt lat="47.6641" lon="-3.36891">
        <ele>-3.23</ele>
        <time>2015-10-10T15:14:07Z</time>
      </trkpt>
      <trkpt lat="47.66412" lon="-3.36891">
        <ele>-3.23</ele>
        <time>2015-10-10T15:14:08Z</time>
      </trkpt>
      <trkpt lat="47.66415" lon="-3.36892">
        <ele>-3.23</ele>
        <time>2015-10-10T15:14:09Z</time>
      </trkpt>
      <trkpt lat="47.66418" lon="-3.36892">
        <ele>-3.23</ele>
        <time>2015-10-10T15:14:10Z</time>
      </trkpt>
      <trkpt lat="47.6642" lon="-3.36893">
        <ele>-3.23</ele>
        <time>2015-10-10T15:14:11Z</time>
      </trkpt>
      <trkpt lat="47.66423" lon="-3.36893">
        <ele>-3.23</ele>
        <time>2015-10-10T15:14:12Z</time>
      </trkpt>
      <trkpt lat="47.66426" lon="-3.36894">
        <ele>-3.23</ele>
        <time>2015-10-10T15:14:13Z</time>
      </trkpt>
      <trkpt lat="47.66428" lon="-3.36894">
        <ele>-3.23</ele>
        <time>2015-10-10T15:14:14Z</time>
      </trkpt>
      <trkpt lat="47.66431" lon="-3.36895">
        <ele>-3.23</ele>
        <time>2015-10-10T15:14:15Z</time>
      </trkpt>
      <trkpt lat="47.66434" lon="-3.36895">
        <ele>-3.23</ele>
        <time>2015-10-10T15:14:16Z</time>
      </trkpt>
      <trkpt lat="47.66436" lon="-3.36896">
        <ele>-3.23</ele>
        <time>2015-10-10T15:14:17Z</time>
      </trkpt>
      <trkpt lat="47.66439" lon="-3.36896">
        <ele>-3.23</ele>
        <time>2015-10-10T15:14:18Z</time>
      </trkpt>
      <trkpt lat="47.66442" lon="-3.36897">
        <ele>-3.23</ele>
        <time>2015-10-10T15:14:19Z</time>
      </trkpt>
      <trkpt lat="47.66445" lon="-3.36897">
        <ele>-3.23</ele>
        <time>2015-10-10T15:14:20Z</time>
      </trkpt>
      <trkpt lat="47.66447" lon="-3.36897">
        <ele>-3.23</ele>
        <time>2015-10-10T15:14:21Z</time>
      </trkpt>
      <trkpt lat="47.6645" lon="-3.36897">
        <ele>-3.23</ele>
        <time>2015-10-10T15:14:22Z</time>
      </trkpt>
      <trkpt lat="47.66453" lon="-3.36897">
        <ele>-3.23</ele>
        <time>2015-10-10T15:14:23Z</time>
      </trkpt>
      <trkpt lat="47.66456" lon="-3.36897">
        <ele>-3.23</ele>
        <time>2015-10-10T15:14:24Z</time>
      </trkpt>
      <trkpt lat="47.66458" lon="-3.36897">
        <ele>-3.23</ele>
        <time>2015-10-10T15:14:25Z</time>
      </trkpt>
      <trkpt lat="47.66461" lon="-3.36897">
        <ele>-3.23</ele>
        <time>2015-10-10T15:14:26Z</time>
      </trkpt>
      <trkpt lat="47.66464" lon="-3.36897">
        <ele>-3.23</ele>
        <time>2015-10-10T15:14:27Z</time>
      </trkpt>
      <trkpt lat="47.66467" lon="-3.36896">
        <ele>-3.23</ele>
        <time>2015-10-10T15:14:28Z</time>
      </trkpt>
      <trkpt lat="47.6647" lon="-3.36896">
        <ele>-3.23</ele>
        <time>2015-10-10T15:14:29Z</time>
      </trkpt>
      <trkpt lat="47.66473" lon="-3.36897">
        <ele>-3.23</ele>
        <time>2015-10-10T15:14:30Z</time>
      </trkpt>
      <trkpt lat="47.66475" lon="-3.36897">
        <ele>-3.23</ele>
        <time>2015-10-10T15:14:31Z</time>
      </trkpt>
      <trkpt lat="47.66478" lon="-3.36897">
        <ele>-3.23</ele>
        <time>2015-10-10T15:14:32Z</time>
      </trkpt>
      <trkpt lat="47.66481" lon="-3.36898">
        <ele>-3.23</ele>
        <time>2015-10-10T15:14:33Z</time>
      </trkpt>
      <trkpt lat="47.66483" lon="-3.36898">
        <ele>-3.23</ele>
        <time>2015-10-10T15:14:34Z</time>
      </trkpt>
      <trkpt lat="47.66486" lon="-3.36898">
        <ele>-3.23</ele>
        <time>2015-10-10T15:14:35Z</time>
      </trkpt>
      <trkpt lat="47.66489" lon="-3.36899">
        <ele>-3.23</ele>
        <time>2015-10-10T15:14:36Z</time>
      </trkpt>
      <trkpt lat="47.66492" lon="-3.36899">
        <ele>-3.23</ele>
        <time>2015-10-10T15:14:37Z</time>
      </trkpt>
      <trkpt lat="47.66494" lon="-3.36899">
        <ele>-3.23</ele>
        <time>2015-10-10T15:14:38Z</time>
      </trkpt>
      <trkpt lat="47.66497" lon="-3.369">
        <ele>-3.23</ele>
        <time>2015-10-10T15:14:39Z</time>
      </trkpt>
      <trkpt lat="47.665" lon="-3.369">
        <ele>-3.23</ele>
        <time>2015-10-10T15:14:40Z</time>
      </trkpt>
      <trkpt lat="47.66502" lon="-3.369">
        <ele>-3.23</ele>
        <time>2015-10-10T15:14:41Z</time>
      </trkpt>
      <trkpt lat="47.66505" lon="-3.369">
        <ele>-3.23</ele>
        <time>2015-10-10T15:14:42Z</time>
      </trkpt>
      <trkpt lat="47.66508" lon="-3.369">
        <ele>-3.23</ele>
        <time>2015-10-10T15:14:43Z</time>
      </trkpt>
      <trkpt lat="47.66511" lon="-3.369">
        <ele>-3.23</ele>
        <time>2015-10-10T15:14:44Z</time>
      </trkpt>
      <trkpt lat="47.66513" lon="-3.36901">
        <ele>-3.23</ele>
        <time>2015-10-10T15:14:45Z</time>
      </trkpt>
      <trkpt lat="47.66516" lon="-3.369">
        <ele>-3.23</ele>
        <time>2015-10-10T15:14:46Z</time>
      </trkpt>
      <trkpt lat="47.66519" lon="-3.369">
        <ele>-3.23</ele>
        <time>2015-10-10T15:14:47Z</time>
      </trkpt>
      <trkpt lat="47.66522" lon="-3.36901">
        <ele>-3.23</ele>
        <time>2015-10-10T15:14:48Z</time>
      </trkpt>
      <trkpt lat="47.66524" lon="-3.36901">
        <ele>-3.23</ele>
        <time>2015-10-10T15:14:49Z</time>
      </trkpt>
      <trkpt lat="47.66527" lon="-3.36902">
        <ele>-3.23</ele>
        <time>2015-10-10T15:14:50Z</time>
      </trkpt>
      <trkpt lat="47.6653" lon="-3.36902">
        <ele>-3.23</ele>
        <time>2015-10-10T15:14:51Z</time>
      </trkpt>
      <trkpt lat="47.66533" lon="-3.36902">
        <ele>-3.23</ele>
        <time>2015-10-10T15:14:52Z</time>
      </trkpt>
      <trkpt lat="47.66536" lon="-3.36902">
        <ele>-3.23</ele>
        <time>2015-10-10T15:14:53Z</time>
      </trkpt>
      <trkpt lat="47.66539" lon="-3.36902">
        <ele>-3.23</ele>
        <time>2015-10-10T15:14:54Z</time>
      </trkpt>
      <trkpt lat="47.66542" lon="-3.36902">
        <ele>-3.23</ele>
        <time>2015-10-10T15:14:55Z</time>
      </trkpt>
      <trkpt lat="47.66544" lon="-3.36903">
        <ele>-3.23</ele>
        <time>2015-10-10T15:14:56Z</time>
      </trkpt>
      <trkpt lat="47.66547" lon="-3.36903">
        <ele>-3.23</ele>
        <time>2015-10-10T15:14:57Z</time>
      </trkpt>
      <trkpt lat="47.6655" lon="-3.36903">
        <ele>-3.23</ele>
        <time>2015-10-10T15:14:58Z</time>
      </trkpt>
      <trkpt lat="47.66552" lon="-3.36902">
        <ele>-3.23</ele>
        <time>2015-10-10T15:14:59Z</time>
      </trkpt>
      <trkpt lat="47.66555" lon="-3.36903">
        <ele>-3.23</ele>
        <time>2015-10-10T15:15:00Z</time>
      </trkpt>
      <trkpt lat="47.66557" lon="-3.36903">
        <ele>-3.23</ele>
        <time>2015-10-10T15:15:01Z</time>
      </trkpt>
      <trkpt lat="47.6656" lon="-3.36903">
        <ele>-3.23</ele>
        <time>2015-10-10T15:15:02Z</time>
      </trkpt>
      <trkpt lat="47.66563" lon="-3.36903">
        <ele>-3.23</ele>
        <time>2015-10-10T15:15:03Z</time>
      </trkpt>
      <trkpt lat="47.66565" lon="-3.36904">
        <ele>-3.23</ele>
        <time>2015-10-10T15:15:04Z</time>
      </trkpt>
      <trkpt lat="47.66568" lon="-3.36904">
        <ele>-3.23</ele>
        <time>2015-10-10T15:15:05Z</time>
      </trkpt>
      <trkpt lat="47.66571" lon="-3.36904">
        <ele>-2.27</ele>
        <time>2015-10-10T15:15:06Z</time>
      </trkpt>
      <trkpt lat="47.66573" lon="-3.36904">
        <ele>-2.27</ele>
        <time>2015-10-10T15:15:07Z</time>
      </trkpt>
      <trkpt lat="47.66576" lon="-3.36904">
        <ele>-2.27</ele>
        <time>2015-10-10T15:15:08Z</time>
      </trkpt>
      <trkpt lat="47.66579" lon="-3.36904">
        <ele>-2.27</ele>
        <time>2015-10-10T15:15:09Z</time>
      </trkpt>
      <trkpt lat="47.66582" lon="-3.36904">
        <ele>-2.27</ele>
        <time>2015-10-10T15:15:10Z</time>
      </trkpt>
      <trkpt lat="47.66585" lon="-3.36904">
        <ele>-2.27</ele>
        <time>2015-10-10T15:15:11Z</time>
      </trkpt>
      <trkpt lat="47.66587" lon="-3.36904">
        <ele>-2.27</ele>
        <time>2015-10-10T15:15:12Z</time>
      </trkpt>
      <trkpt lat="47.6659" lon="-3.36905">
        <ele>-2.27</ele>
        <time>2015-10-10T15:15:13Z</time>
      </trkpt>
      <trkpt lat="47.66593" lon="-3.36905">
        <ele>-3.23</ele>
        <time>2015-10-10T15:15:14Z</time>
      </trkpt>
      <trkpt lat="47.66595" lon="-3.36906">
        <ele>-3.23</ele>
        <time>2015-10-10T15:15:15Z</time>
      </trkpt>
      <trkpt lat="47.66598" lon="-3.36907">
        <ele>-3.23</ele>
        <time>2015-10-10T15:15:16Z</time>
      </trkpt>
      <trkpt lat="47.66601" lon="-3.36907">
        <ele>-3.23</ele>
        <time>2015-10-10T15:15:17Z</time>
      </trkpt>
      <trkpt lat="47.66603" lon="-3.36908">
        <ele>-3.23</ele>
        <time>2015-10-10T15:15:18Z</time>
      </trkpt>
      <trkpt lat="47.66605" lon="-3.36908">
        <ele>-3.23</ele>
        <time>2015-10-10T15:15:19Z</time>
      </trkpt>
      <trkpt lat="47.66608" lon="-3.36908">
        <ele>-3.23</ele>
        <time>2015-10-10T15:15:20Z</time>
      </trkpt>
      <trkpt lat="47.6661" lon="-3.36909">
        <ele>-3.23</ele>
        <time>2015-10-10T15:15:21Z</time>
      </trkpt>
      <trkpt lat="47.66613" lon="-3.36909">
        <ele>-3.23</ele>
        <time>2015-10-10T15:15:22Z</time>
      </trkpt>
      <trkpt lat="47.66616" lon="-3.36909">
        <ele>-3.23</ele>
        <time>2015-10-10T15:15:23Z</time>
      </trkpt>
      <trkpt lat="47.66619" lon="-3.36909">
        <ele>-3.23</ele>
        <time>2015-10-10T15:15:24Z</time>
      </trkpt>
      <trkpt lat="47.66622" lon="-3.3691">
        <ele>-3.23</ele>
        <time>2015-10-10T15:15:25Z</time>
      </trkpt>
      <trkpt lat="47.66624" lon="-3.3691">
        <ele>-3.23</ele>
        <time>2015-10-10T15:15:26Z</time>
      </trkpt>
      <trkpt lat="47.66627" lon="-3.36909">
        <ele>-3.23</ele>
        <time>2015-10-10T15:15:27Z</time>
      </trkpt>
      <trkpt lat="47.66629" lon="-3.3691">
        <ele>-3.23</ele>
        <time>2015-10-10T15:15:28Z</time>
      </trkpt>
      <trkpt lat="47.66632" lon="-3.3691">
        <ele>-3.23</ele>
        <time>2015-10-10T15:15:29Z</time>
      </trkpt>
      <trkpt lat="47.66635" lon="-3.36911">
        <ele>-3.23</ele>
        <time>2015-10-10T15:15:30Z</time>
      </trkpt>
      <trkpt lat="47.66637" lon="-3.36911">
        <ele>-3.23</ele>
        <time>2015-10-10T15:15:31Z</time>
      </trkpt>
      <trkpt lat="47.6664" lon="-3.36912">
        <ele>-3.23</ele>
        <time>2015-10-10T15:15:32Z</time>
      </trkpt>
      <trkpt lat="47.66642" lon="-3.36912">
        <ele>-3.23</ele>
        <time>2015-10-10T15:15:33Z</time>
      </trkpt>
      <trkpt lat="47.66644" lon="-3.36913">
        <ele>-3.23</ele>
        <time>2015-10-10T15:15:34Z</time>
      </trkpt>
      <trkpt lat="47.66647" lon="-3.36914">
        <ele>-3.23</ele>
        <time>2015-10-10T15:15:35Z</time>
      </trkpt>
      <trkpt lat="47.6665" lon="-3.36914">
        <ele>-3.23</ele>
        <time>2015-10-10T15:15:36Z</time>
      </trkpt>
      <trkpt lat="47.66652" lon="-3.36914">
        <ele>-3.23</ele>
        <time>2015-10-10T15:15:37Z</time>
      </trkpt>
      <trkpt lat="47.66655" lon="-3.36914">
        <ele>-3.23</ele>
        <time>2015-10-10T15:15:38Z</time>
      </trkpt>
      <trkpt lat="47.66658" lon="-3.36914">
        <ele>-3.23</ele>
        <time>2015-10-10T15:15:39Z</time>
      </trkpt>
      <trkpt lat="47.6666" lon="-3.36914">
        <ele>-3.23</ele>
        <time>2015-10-10T15:15:40Z</time>
      </trkpt>
      <trkpt lat="47.66663" lon="-3.36915">
        <ele>-2.27</ele>
        <time>2015-10-10T15:15:41Z</time>
      </trkpt>
      <trkpt lat="47.66666" lon="-3.36915">
        <ele>-2.27</ele>
        <time>2015-10-10T15:15:42Z</time>
      </trkpt>
      <trkpt lat="47.66669" lon="-3.36914">
        <ele>-2.27</ele>
        <time>2015-10-10T15:15:43Z</time>
      </trkpt>
      <trkpt lat="47.66672" lon="-3.36914">
        <ele>-2.27</ele>
        <time>2015-10-10T15:15:44Z</time>
      </trkpt>
      <trkpt lat="47.66674" lon="-3.36913">
        <ele>-2.27</ele>
        <time>2015-10-10T15:15:45Z</time>
      </trkpt>
      <trkpt lat="47.66677" lon="-3.36913">
        <ele>-2.27</ele>
        <time>2015-10-10T15:15:46Z</time>
      </trkpt>
      <trkpt lat="47.6668" lon="-3.36914">
        <ele>-2.27</ele>
        <time>2015-10-10T15:15:47Z</time>
      </trkpt>
      <trkpt lat="47.66683" lon="-3.36914">
        <ele>-2.27</ele>
        <time>2015-10-10T15:15:48Z</time>
      </trkpt>
      <trkpt lat="47.66685" lon="-3.36914">
        <ele>-2.27</ele>
        <time>2015-10-10T15:15:49Z</time>
      </trkpt>
      <trkpt lat="47.66687" lon="-3.36915">
        <ele>-3.23</ele>
        <time>2015-10-10T15:15:50Z</time>
      </trkpt>
      <trkpt lat="47.6669" lon="-3.36915">
        <ele>-3.23</ele>
        <time>2015-10-10T15:15:51Z</time>
      </trkpt>
      <trkpt lat="47.66693" lon="-3.36916">
        <ele>-3.23</ele>
        <time>2015-10-10T15:15:52Z</time>
      </trkpt>
      <trkpt lat="47.66695" lon="-3.36915">
        <ele>-3.23</ele>
        <time>2015-10-10T15:15:53Z</time>
      </trkpt>
      <trkpt lat="47.66698" lon="-3.36915">
        <ele>-3.23</ele>
        <time>2015-10-10T15:15:54Z</time>
      </trkpt>
      <trkpt lat="47.66701" lon="-3.36916">
        <ele>-3.23</ele>
        <time>2015-10-10T15:15:55Z</time>
      </trkpt>
      <trkpt lat="47.66703" lon="-3.36916">
        <ele>-3.23</ele>
        <time>2015-10-10T15:15:56Z</time>
      </trkpt>
      <trkpt lat="47.66706" lon="-3.36916">
        <ele>-3.23</ele>
        <time>2015-10-10T15:15:57Z</time>
      </trkpt>
      <trkpt lat="47.66709" lon="-3.36916">
        <ele>-3.23</ele>
        <time>2015-10-10T15:15:58Z</time>
      </trkpt>
      <trkpt lat="47.66711" lon="-3.36916">
        <ele>-3.23</ele>
        <time>2015-10-10T15:15:59Z</time>
      </trkpt>
      <trkpt lat="47.66714" lon="-3.36917">
        <ele>-2.27</ele>
        <time>2015-10-10T15:16:00Z</time>
      </trkpt>
      <trkpt lat="47.66717" lon="-3.36917">
        <ele>-2.27</ele>
        <time>2015-10-10T15:16:01Z</time>
      </trkpt>
      <trkpt lat="47.6672" lon="-3.36918">
        <ele>-2.27</ele>
        <time>2015-10-10T15:16:02Z</time>
      </trkpt>
      <trkpt lat="47.66723" lon="-3.36918">
        <ele>-2.27</ele>
        <time>2015-10-10T15:16:03Z</time>
      </trkpt>
      <trkpt lat="47.66725" lon="-3.36917">
        <ele>-2.27</ele>
        <time>2015-10-10T15:16:04Z</time>
      </trkpt>
      <trkpt lat="47.66728" lon="-3.36917">
        <ele>-2.27</ele>
        <time>2015-10-10T15:16:05Z</time>
      </trkpt>
      <trkpt lat="47.66731" lon="-3.36917">
        <ele>-2.27</ele>
        <time>2015-10-10T15:16:06Z</time>
      </trkpt>
      <trkpt lat="47.66734" lon="-3.36918">
        <ele>-2.27</ele>
        <time>2015-10-10T15:16:07Z</time>
      </trkpt>
      <trkpt lat="47.66737" lon="-3.36918">
        <ele>-2.27</ele>
        <time>2015-10-10T15:16:08Z</time>
      </trkpt>
      <trkpt lat="47.6674" lon="-3.36918">
        <ele>-2.27</ele>
        <time>2015-10-10T15:16:09Z</time>
      </trkpt>
      <trkpt lat="47.66742" lon="-3.36918">
        <ele>-2.27</ele>
        <time>2015-10-10T15:16:10Z</time>
      </trkpt>
      <trkpt lat="47.66745" lon="-3.36918">
        <ele>-2.27</ele>
        <time>2015-10-10T15:16:11Z</time>
      </trkpt>
      <trkpt lat="47.66748" lon="-3.36918">
        <ele>-2.27</ele>
        <time>2015-10-10T15:16:12Z</time>
      </trkpt>
      <trkpt lat="47.6675" lon="-3.36918">
        <ele>-2.27</ele>
        <time>2015-10-10T15:16:13Z</time>
      </trkpt>
      <trkpt lat="47.66753" lon="-3.36918">
        <ele>-2.27</ele>
        <time>2015-10-10T15:16:14Z</time>
      </trkpt>
      <trkpt lat="47.66756" lon="-3.36918">
        <ele>-2.27</ele>
        <time>2015-10-10T15:16:15Z</time>
      </trkpt>
      <trkpt lat="47.66758" lon="-3.36918">
        <ele>-2.27</ele>
        <time>2015-10-10T15:16:16Z</time>
      </trkpt>
      <trkpt lat="47.66761" lon="-3.36917">
        <ele>-2.27</ele>
        <time>2015-10-10T15:16:17Z</time>
      </trkpt>
      <trkpt lat="47.66763" lon="-3.36918">
        <ele>-2.27</ele>
        <time>2015-10-10T15:16:18Z</time>
      </trkpt>
      <trkpt lat="47.66766" lon="-3.36918">
        <ele>-2.27</ele>
        <time>2015-10-10T15:16:19Z</time>
      </trkpt>
      <trkpt lat="47.66769" lon="-3.36918">
        <ele>-2.27</ele>
        <time>2015-10-10T15:16:20Z</time>
      </trkpt>
      <trkpt lat="47.66772" lon="-3.36919">
        <ele>-2.27</ele>
        <time>2015-10-10T15:16:21Z</time>
      </trkpt>
      <trkpt lat="47.66774" lon="-3.36919">
        <ele>-2.27</ele>
        <time>2015-10-10T15:16:22Z</time>
      </trkpt>
      <trkpt lat="47.66777" lon="-3.3692">
        <ele>-2.27</ele>
        <time>2015-10-10T15:16:23Z</time>
      </trkpt>
      <trkpt lat="47.6678" lon="-3.36921">
        <ele>-2.27</ele>
        <time>2015-10-10T15:16:24Z</time>
      </trkpt>
      <trkpt lat="47.66782" lon="-3.36922">
        <ele>-2.27</ele>
        <time>2015-10-10T15:16:25Z</time>
      </trkpt>
      <trkpt lat="47.66785" lon="-3.36922">
        <ele>-2.27</ele>
        <time>2015-10-10T15:16:26Z</time>
      </trkpt>
      <trkpt lat="47.66788" lon="-3.36922">
        <ele>-2.27</ele>
        <time>2015-10-10T15:16:27Z</time>
      </trkpt>
      <trkpt lat="47.66791" lon="-3.36922">
        <ele>-2.27</ele>
        <time>2015-10-10T15:16:28Z</time>
      </trkpt>
      <trkpt lat="47.66794" lon="-3.36922">
        <ele>-2.27</ele>
        <time>2015-10-10T15:16:29Z</time>
      </trkpt>
      <trkpt lat="47.66796" lon="-3.36922">
        <ele>-2.27</ele>
        <time>2015-10-10T15:16:30Z</time>
      </trkpt>
      <trkpt lat="47.66799" lon="-3.36922">
        <ele>-2.27</ele>
        <time>2015-10-10T15:16:31Z</time>
      </trkpt>
      <trkpt lat="47.66802" lon="-3.36922">
        <ele>-2.27</ele>
        <time>2015-10-10T15:16:32Z</time>
      </trkpt>
      <trkpt lat="47.66805" lon="-3.36923">
        <ele>-1.79</ele>
        <time>2015-10-10T15:16:33Z</time>
      </trkpt>
      <trkpt lat="47.66807" lon="-3.36922">
        <ele>-1.79</ele>
        <time>2015-10-10T15:16:34Z</time>
      </trkpt>
      <trkpt lat="47.6681" lon="-3.36922">
        <ele>-1.79</ele>
        <time>2015-10-10T15:16:35Z</time>
      </trkpt>
      <trkpt lat="47.66812" lon="-3.36922">
        <ele>-1.79</ele>
        <time>2015-10-10T15:16:36Z</time>
      </trkpt>
      <trkpt lat="47.66815" lon="-3.36921">
        <ele>-2.75</ele>
        <time>2015-10-10T15:16:37Z</time>
      </trkpt>
      <trkpt lat="47.66818" lon="-3.36922">
        <ele>-3.71</ele>
        <time>2015-10-10T15:16:38Z</time>
      </trkpt>
      <trkpt lat="47.6682" lon="-3.36922">
        <ele>-3.71</ele>
        <time>2015-10-10T15:16:39Z</time>
      </trkpt>
      <trkpt lat="47.66822" lon="-3.36923">
        <ele>-3.71</ele>
        <time>2015-10-10T15:16:40Z</time>
      </trkpt>
      <trkpt lat="47.66825" lon="-3.36923">
        <ele>-3.23</ele>
        <time>2015-10-10T15:16:41Z</time>
      </trkpt>
      <trkpt lat="47.66827" lon="-3.36924">
        <ele>-3.23</ele>
        <time>2015-10-10T15:16:42Z</time>
      </trkpt>
      <trkpt lat="47.6683" lon="-3.36925">
        <ele>-3.23</ele>
        <time>2015-10-10T15:16:43Z</time>
      </trkpt>
      <trkpt lat="47.66833" lon="-3.36925">
        <ele>-3.23</ele>
        <time>2015-10-10T15:16:44Z</time>
      </trkpt>
      <trkpt lat="47.66836" lon="-3.36925">
        <ele>-3.23</ele>
        <time>2015-10-10T15:16:45Z</time>
      </trkpt>
      <trkpt lat="47.66838" lon="-3.36925">
        <ele>-3.23</ele>
        <time>2015-10-10T15:16:46Z</time>
      </trkpt>
      <trkpt lat="47.66841" lon="-3.36925">
        <ele>-3.23</ele>
        <time>2015-10-10T15:16:47Z</time>
      </trkpt>
      <trkpt lat="47.66844" lon="-3.36924">
        <ele>-3.23</ele>
        <time>2015-10-10T15:16:48Z</time>
      </trkpt>
      <trkpt lat="47.66847" lon="-3.36924">
        <ele>-3.23</ele>
        <time>2015-10-10T15:16:49Z</time>
      </trkpt>
      <trkpt lat="47.6685" lon="-3.36924">
        <ele>-1.79</ele>
        <time>2015-10-10T15:16:50Z</time>
      </trkpt>
      <trkpt lat="47.66853" lon="-3.36924">
        <ele>-1.79</ele>
        <time>2015-10-10T15:16:51Z</time>
      </trkpt>
      <trkpt lat="47.66856" lon="-3.36925">
        <ele>-1.79</ele>
        <time>2015-10-10T15:16:52Z</time>
      </trkpt>
      <trkpt lat="47.66859" lon="-3.36925">
        <ele>-1.79</ele>
        <time>2015-10-10T15:16:53Z</time>
      </trkpt>
      <trkpt lat="47.66861" lon="-3.36925">
        <ele>-1.79</ele>
        <time>2015-10-10T15:16:54Z</time>
      </trkpt>
      <trkpt lat="47.66864" lon="-3.36924">
        <ele>-1.79</ele>
        <time>2015-10-10T15:16:55Z</time>
      </trkpt>
      <trkpt lat="47.66867" lon="-3.36924">
        <ele>-1.79</ele>
        <time>2015-10-10T15:16:56Z</time>
      </trkpt>
      <trkpt lat="47.6687" lon="-3.36925">
        <ele>-1.79</ele>
        <time>2015-10-10T15:16:57Z</time>
      </trkpt>
      <trkpt lat="47.66873" lon="-3.36925">
        <ele>-1.79</ele>
        <time>2015-10-10T15:16:58Z</time>
      </trkpt>
      <trkpt lat="47.66875" lon="-3.36925">
        <ele>-3.23</ele>
        <time>2015-10-10T15:16:59Z</time>
      </trkpt>
      <trkpt lat="47.66878" lon="-3.36925">
        <ele>-3.23</ele>
        <time>2015-10-10T15:17:00Z</time>
      </trkpt>
      <trkpt lat="47.6688" lon="-3.36925">
        <ele>-2.75</ele>
        <time>2015-10-10T15:17:01Z</time>
      </trkpt>
      <trkpt lat="47.66883" lon="-3.36926">
        <ele>-2.75</ele>
        <time>2015-10-10T15:17:02Z</time>
      </trkpt>
      <trkpt lat="47.66885" lon="-3.36926">
        <ele>-3.23</ele>
        <time>2015-10-10T15:17:03Z</time>
      </trkpt>
      <trkpt lat="47.66887" lon="-3.36926">
        <ele>-2.75</ele>
        <time>2015-10-10T15:17:04Z</time>
      </trkpt>
      <trkpt lat="47.6689" lon="-3.36926">
        <ele>-2.75</ele>
        <time>2015-10-10T15:17:05Z</time>
      </trkpt>
      <trkpt lat="47.66893" lon="-3.36926">
        <ele>-2.75</ele>
        <time>2015-10-10T15:17:06Z</time>
      </trkpt>
      <trkpt lat="47.66895" lon="-3.36926">
        <ele>-2.75</ele>
        <time>2015-10-10T15:17:07Z</time>
      </trkpt>
      <trkpt lat="47.66898" lon="-3.36926">
        <ele>-2.75</ele>
        <time>2015-10-10T15:17:08Z</time>
      </trkpt>
      <trkpt lat="47.66901" lon="-3.36926">
        <ele>-2.75</ele>
        <time>2015-10-10T15:17:09Z</time>
      </trkpt>
      <trkpt lat="47.66904" lon="-3.36925">
        <ele>-2.75</ele>
        <time>2015-10-10T15:17:10Z</time>
      </trkpt>
      <trkpt lat="47.66906" lon="-3.36925">
        <ele>-2.75</ele>
        <time>2015-10-10T15:17:11Z</time>
      </trkpt>
      <trkpt lat="47.66909" lon="-3.36924">
        <ele>-2.75</ele>
        <time>2015-10-10T15:17:12Z</time>
      </trkpt>
      <trkpt lat="47.66912" lon="-3.36924">
        <ele>-2.75</ele>
        <time>2015-10-10T15:17:13Z</time>
      </trkpt>
      <trkpt lat="47.66915" lon="-3.36925">
        <ele>-2.75</ele>
        <time>2015-10-10T15:17:14Z</time>
      </trkpt>
      <trkpt lat="47.66918" lon="-3.36925">
        <ele>-2.75</ele>
        <time>2015-10-10T15:17:15Z</time>
      </trkpt>
      <trkpt lat="47.66921" lon="-3.36925">
        <ele>-2.75</ele>
        <time>2015-10-10T15:17:16Z</time>
      </trkpt>
      <trkpt lat="47.66924" lon="-3.36924">
        <ele>-2.75</ele>
        <time>2015-10-10T15:17:17Z</time>
      </trkpt>
      <trkpt lat="47.66926" lon="-3.36924">
        <ele>-3.23</ele>
        <time>2015-10-10T15:17:18Z</time>
      </trkpt>
      <trkpt lat="47.66929" lon="-3.36924">
        <ele>-3.23</ele>
        <time>2015-10-10T15:17:19Z</time>
      </trkpt>
      <trkpt lat="47.66932" lon="-3.36925">
        <ele>-3.23</ele>
        <time>2015-10-10T15:17:20Z</time>
      </trkpt>
      <trkpt lat="47.66934" lon="-3.36925">
        <ele>-3.23</ele>
        <time>2015-10-10T15:17:21Z</time>
      </trkpt>
      <trkpt lat="47.66937" lon="-3.36925">
        <ele>-3.23</ele>
        <time>2015-10-10T15:17:22Z</time>
      </trkpt>
      <trkpt lat="47.6694" lon="-3.36926">
        <ele>-3.23</ele>
        <time>2015-10-10T15:17:23Z</time>
      </trkpt>
      <trkpt lat="47.66942" lon="-3.36926">
        <ele>-3.23</ele>
        <time>2015-10-10T15:17:24Z</time>
      </trkpt>
      <trkpt lat="47.66945" lon="-3.36926">
        <ele>-3.23</ele>
        <time>2015-10-10T15:17:25Z</time>
      </trkpt>
      <trkpt lat="47.66947" lon="-3.36926">
        <ele>-3.23</ele>
        <time>2015-10-10T15:17:26Z</time>
      </trkpt>
      <trkpt lat="47.6695" lon="-3.36926">
        <ele>-3.23</ele>
        <time>2015-10-10T15:17:27Z</time>
      </trkpt>
      <trkpt lat="47.66953" lon="-3.36927">
        <ele>-3.23</ele>
        <time>2015-10-10T15:17:28Z</time>
      </trkpt>
      <trkpt lat="47.66955" lon="-3.36927">
        <ele>-3.23</ele>
        <time>2015-10-10T15:17:29Z</time>
      </trkpt>
      <trkpt lat="47.66958" lon="-3.36926">
        <ele>-3.23</ele>
        <time>2015-10-10T15:17:30Z</time>
      </trkpt>
      <trkpt lat="47.66961" lon="-3.36926">
        <ele>-3.23</ele>
        <time>2015-10-10T15:17:31Z</time>
      </trkpt>
      <trkpt lat="47.66963" lon="-3.36926">
        <ele>-3.23</ele>
        <time>2015-10-10T15:17:32Z</time>
      </trkpt>
      <trkpt lat="47.66966" lon="-3.36927">
        <ele>-3.23</ele>
        <time>2015-10-10T15:17:33Z</time>
      </trkpt>
      <trkpt lat="47.66969" lon="-3.36927">
        <ele>-3.23</ele>
        <time>2015-10-10T15:17:34Z</time>
      </trkpt>
      <trkpt lat="47.66972" lon="-3.36927">
        <ele>-3.23</ele>
        <time>2015-10-10T15:17:35Z</time>
      </trkpt>
      <trkpt lat="47.66975" lon="-3.36927">
        <ele>-3.23</ele>
        <time>2015-10-10T15:17:36Z</time>
      </trkpt>
      <trkpt lat="47.66977" lon="-3.36927">
        <ele>-3.23</ele>
        <time>2015-10-10T15:17:37Z</time>
      </trkpt>
      <trkpt lat="47.6698" lon="-3.36926">
        <ele>-3.23</ele>
        <time>2015-10-10T15:17:38Z</time>
      </trkpt>
      <trkpt lat="47.66983" lon="-3.36926">
        <ele>-3.23</ele>
        <time>2015-10-10T15:17:39Z</time>
      </trkpt>
      <trkpt lat="47.66986" lon="-3.36927">
        <ele>-3.23</ele>
        <time>2015-10-10T15:17:40Z</time>
      </trkpt>
      <trkpt lat="47.66988" lon="-3.36927">
        <ele>-1.79</ele>
        <time>2015-10-10T15:17:41Z</time>
      </trkpt>
      <trkpt lat="47.66991" lon="-3.36927">
        <ele>-2.27</ele>
        <time>2015-10-10T15:17:42Z</time>
      </trkpt>
      <trkpt lat="47.66994" lon="-3.36927">
        <ele>-1.79</ele>
        <time>2015-10-10T15:17:43Z</time>
      </trkpt>
      <trkpt lat="47.66996" lon="-3.36928">
        <ele>-2.27</ele>
        <time>2015-10-10T15:17:44Z</time>
      </trkpt>
      <trkpt lat="47.66999" lon="-3.36928">
        <ele>-2.27</ele>
        <time>2015-10-10T15:17:45Z</time>
      </trkpt>
      <trkpt lat="47.67001" lon="-3.36929">
        <ele>-2.27</ele>
        <time>2015-10-10T15:17:46Z</time>
      </trkpt>
      <trkpt lat="47.67003" lon="-3.36929">
        <ele>-2.27</ele>
        <time>2015-10-10T15:17:47Z</time>
      </trkpt>
      <trkpt lat="47.67006" lon="-3.36929">
        <ele>-2.27</ele>
        <time>2015-10-10T15:17:48Z</time>
      </trkpt>
      <trkpt lat="47.67008" lon="-3.36929">
        <ele>-2.27</ele>
        <time>2015-10-10T15:17:49Z</time>
      </trkpt>
      <trkpt lat="47.67011" lon="-3.36929">
        <ele>-2.27</ele>
        <time>2015-10-10T15:17:50Z</time>
      </trkpt>
      <trkpt lat="47.67013" lon="-3.36928">
        <ele>-2.27</ele>
        <time>2015-10-10T15:17:51Z</time>
      </trkpt>
      <trkpt lat="47.67016" lon="-3.36928">
        <ele>-2.27</ele>
        <time>2015-10-10T15:17:52Z</time>
      </trkpt>
      <trkpt lat="47.67018" lon="-3.36928">
        <ele>-2.27</ele>
        <time>2015-10-10T15:17:53Z</time>
      </trkpt>
      <trkpt lat="47.67021" lon="-3.36928">
        <ele>-2.27</ele>
        <time>2015-10-10T15:17:54Z</time>
      </trkpt>
      <trkpt lat="47.67024" lon="-3.36927">
        <ele>-2.27</ele>
        <time>2015-10-10T15:17:55Z</time>
      </trkpt>
      <trkpt lat="47.67027" lon="-3.36927">
        <ele>-2.27</ele>
        <time>2015-10-10T15:17:56Z</time>
      </trkpt>
      <trkpt lat="47.6703" lon="-3.36926">
        <ele>-1.79</ele>
        <time>2015-10-10T15:17:57Z</time>
      </trkpt>
      <trkpt lat="47.67032" lon="-3.36926">
        <ele>-1.79</ele>
        <time>2015-10-10T15:17:58Z</time>
      </trkpt>
      <trkpt lat="47.67035" lon="-3.36926">
        <ele>-1.79</ele>
        <time>2015-10-10T15:17:59Z</time>
      </trkpt>
      <trkpt lat="47.67038" lon="-3.36927">
        <ele>-1.79</ele>
        <time>2015-10-10T15:18:00Z</time>
      </trkpt>
      <trkpt lat="47.67041" lon="-3.36927">
        <ele>-1.3</ele>
        <time>2015-10-10T15:18:01Z</time>
      </trkpt>
      <trkpt lat="47.67044" lon="-3.36927">
        <ele>-1.3</ele>
        <time>2015-10-10T15:18:02Z</time>
      </trkpt>
      <trkpt lat="47.67046" lon="-3.36927">
        <ele>-1.3</ele>
        <time>2015-10-10T15:18:03Z</time>
      </trkpt>
      <trkpt lat="47.67049" lon="-3.36928">
        <ele>-1.3</ele>
        <time>2015-10-10T15:18:04Z</time>
      </trkpt>
      <trkpt lat="47.67052" lon="-3.36929">
        <ele>-1.3</ele>
        <time>2015-10-10T15:18:05Z</time>
      </trkpt>
      <trkpt lat="47.67054" lon="-3.3693">
        <ele>-1.3</ele>
        <time>2015-10-10T15:18:06Z</time>
      </trkpt>
      <trkpt lat="47.67057" lon="-3.3693">
        <ele>-1.3</ele>
        <time>2015-10-10T15:18:07Z</time>
      </trkpt>
      <trkpt lat="47.6706" lon="-3.3693">
        <ele>-1.3</ele>
        <time>2015-10-10T15:18:08Z</time>
      </trkpt>
      <trkpt lat="47.67063" lon="-3.36929">
        <ele>-1.3</ele>
        <time>2015-10-10T15:18:09Z</time>
      </trkpt>
      <trkpt lat="47.67065" lon="-3.3693">
        <ele>-1.3</ele>
        <time>2015-10-10T15:18:10Z</time>
      </trkpt>
      <trkpt lat="47.67068" lon="-3.3693">
        <ele>-1.3</ele>
        <time>2015-10-10T15:18:11Z</time>
      </trkpt>
      <trkpt lat="47.67071" lon="-3.3693">
        <ele>-1.3</ele>
        <time>2015-10-10T15:18:12Z</time>
      </trkpt>
      <trkpt lat="47.67074" lon="-3.3693">
        <ele>-1.3</ele>
        <time>2015-10-10T15:18:13Z</time>
      </trkpt>
      <trkpt lat="47.67077" lon="-3.3693">
        <ele>-1.3</ele>
        <time>2015-10-10T15:18:14Z</time>
      </trkpt>
      <trkpt lat="47.67079" lon="-3.3693">
        <ele>-1.3</ele>
        <time>2015-10-10T15:18:15Z</time>
      </trkpt>
      <trkpt lat="47.67082" lon="-3.3693">
        <ele>-1.3</ele>
        <time>2015-10-10T15:18:16Z</time>
      </trkpt>
      <trkpt lat="47.67085" lon="-3.3693">
        <ele>-1.3</ele>
        <time>2015-10-10T15:18:17Z</time>
      </trkpt>
      <trkpt lat="47.67088" lon="-3.36929">
        <ele>-1.3</ele>
        <time>2015-10-10T15:18:18Z</time>
      </trkpt>
      <trkpt lat="47.67091" lon="-3.36928">
        <ele>-1.3</ele>
        <time>2015-10-10T15:18:19Z</time>
      </trkpt>
      <trkpt lat="47.67094" lon="-3.36927">
        <ele>-1.3</ele>
        <time>2015-10-10T15:18:20Z</time>
      </trkpt>
      <trkpt lat="47.67097" lon="-3.36927">
        <ele>-1.3</ele>
        <time>2015-10-10T15:18:21Z</time>
      </trkpt>
      <trkpt lat="47.67099" lon="-3.36926">
        <ele>-1.3</ele>
        <time>2015-10-10T15:18:22Z</time>
      </trkpt>
      <trkpt lat="47.67102" lon="-3.36927">
        <ele>-1.3</ele>
        <time>2015-10-10T15:18:23Z</time>
      </trkpt>
      <trkpt lat="47.67105" lon="-3.36927">
        <ele>-1.3</ele>
        <time>2015-10-10T15:18:24Z</time>
      </trkpt>
      <trkpt lat="47.67108" lon="-3.36927">
        <ele>-1.3</ele>
        <time>2015-10-10T15:18:25Z</time>
      </trkpt>
      <trkpt lat="47.67111" lon="-3.36927">
        <ele>-1.3</ele>
        <time>2015-10-10T15:18:26Z</time>
      </trkpt>
      <trkpt lat="47.67113" lon="-3.36927">
        <ele>-2.75</ele>
        <time>2015-10-10T15:18:27Z</time>
      </trkpt>
      <trkpt lat="47.67116" lon="-3.36927">
        <ele>-2.75</ele>
        <time>2015-10-10T15:18:28Z</time>
      </trkpt>
      <trkpt lat="47.67118" lon="-3.36927">
        <ele>-2.75</ele>
        <time>2015-10-10T15:18:29Z</time>
      </trkpt>
      <trkpt lat="47.67121" lon="-3.36927">
        <ele>-2.75</ele>
        <time>2015-10-10T15:18:30Z</time>
      </trkpt>
      <trkpt lat="47.67124" lon="-3.36927">
        <ele>-2.75</ele>
        <time>2015-10-10T15:18:31Z</time>
      </trkpt>
      <trkpt lat="47.67127" lon="-3.36928">
        <ele>-2.75</ele>
        <time>2015-10-10T15:18:32Z</time>
      </trkpt>
      <trkpt lat="47.67129" lon="-3.36928">
        <ele>-2.75</ele>
        <time>2015-10-10T15:18:33Z</time>
      </trkpt>
      <trkpt lat="47.67132" lon="-3.36929">
        <ele>-2.75</ele>
        <time>2015-10-10T15:18:34Z</time>
      </trkpt>
      <trkpt lat="47.67134" lon="-3.36929">
        <ele>-2.75</ele>
        <time>2015-10-10T15:18:35Z</time>
      </trkpt>
      <trkpt lat="47.67137" lon="-3.36929">
        <ele>-2.75</ele>
        <time>2015-10-10T15:18:36Z</time>
      </trkpt>
      <trkpt lat="47.6714" lon="-3.36928">
        <ele>-2.75</ele>
        <time>2015-10-10T15:18:37Z</time>
      </trkpt>
      <trkpt lat="47.67142" lon="-3.36927">
        <ele>-1.3</ele>
        <time>2015-10-10T15:18:38Z</time>
      </trkpt>
      <trkpt lat="47.67145" lon="-3.36926">
        <ele>-1.3</ele>
        <time>2015-10-10T15:18:39Z</time>
      </trkpt>
      <trkpt lat="47.67148" lon="-3.36926">
        <ele>-1.3</ele>
        <time>2015-10-10T15:18:40Z</time>
      </trkpt>
      <trkpt lat="47.67151" lon="-3.36925">
        <ele>-1.3</ele>
        <time>2015-10-10T15:18:41Z</time>
      </trkpt>
      <trkpt lat="47.67153" lon="-3.36925">
        <ele>-1.3</ele>
        <time>2015-10-10T15:18:42Z</time>
      </trkpt>
      <trkpt lat="47.67156" lon="-3.36925">
        <ele>-1.3</ele>
        <time>2015-10-10T15:18:43Z</time>
      </trkpt>
      <trkpt lat="47.67159" lon="-3.36925">
        <ele>-1.3</ele>
        <time>2015-10-10T15:18:44Z</time>
      </trkpt>
      <trkpt lat="47.67162" lon="-3.36925">
        <ele>-1.3</ele>
        <time>2015-10-10T15:18:45Z</time>
      </trkpt>
      <trkpt lat="47.67165" lon="-3.36924">
        <ele>-1.3</ele>
        <time>2015-10-10T15:18:46Z</time>
      </trkpt>
      <trkpt lat="47.67167" lon="-3.36924">
        <ele>-1.3</ele>
        <time>2015-10-10T15:18:47Z</time>
      </trkpt>
      <trkpt lat="47.6717" lon="-3.36924">
        <ele>-1.3</ele>
        <time>2015-10-10T15:18:48Z</time>
      </trkpt>
      <trkpt lat="47.67173" lon="-3.36923">
        <ele>-1.3</ele>
        <time>2015-10-10T15:18:49Z</time>
      </trkpt>
      <trkpt lat="47.67176" lon="-3.36923">
        <ele>-1.3</ele>
        <time>2015-10-10T15:18:50Z</time>
      </trkpt>
      <trkpt lat="47.67179" lon="-3.36922">
        <ele>-1.3</ele>
        <time>2015-10-10T15:18:51Z</time>
      </trkpt>
      <trkpt lat="47.67181" lon="-3.36922">
        <ele>-1.3</ele>
        <time>2015-10-10T15:18:52Z</time>
      </trkpt>
      <trkpt lat="47.67184" lon="-3.36922">
        <ele>-1.3</ele>
        <time>2015-10-10T15:18:53Z</time>
      </trkpt>
      <trkpt lat="47.67187" lon="-3.36922">
        <ele>-1.3</ele>
        <time>2015-10-10T15:18:54Z</time>
      </trkpt>
      <trkpt lat="47.6719" lon="-3.36922">
        <ele>-1.3</ele>
        <time>2015-10-10T15:18:55Z</time>
      </trkpt>
      <trkpt lat="47.67192" lon="-3.36922">
        <ele>-1.3</ele>
        <time>2015-10-10T15:18:56Z</time>
      </trkpt>
      <trkpt lat="47.67196" lon="-3.36922">
        <ele>-1.3</ele>
        <time>2015-10-10T15:18:57Z</time>
      </trkpt>
      <trkpt lat="47.67199" lon="-3.36922">
        <ele>-1.3</ele>
        <time>2015-10-10T15:18:58Z</time>
      </trkpt>
      <trkpt lat="47.67201" lon="-3.36922">
        <ele>-1.3</ele>
        <time>2015-10-10T15:18:59Z</time>
      </trkpt>
      <trkpt lat="47.67204" lon="-3.36922">
        <ele>-1.3</ele>
        <time>2015-10-10T15:19:00Z</time>
      </trkpt>
      <trkpt lat="47.67207" lon="-3.36922">
        <ele>-1.3</ele>
        <time>2015-10-10T15:19:01Z</time>
      </trkpt>
      <trkpt lat="47.6721" lon="-3.36922">
        <ele>-1.3</ele>
        <time>2015-10-10T15:19:02Z</time>
      </trkpt>
      <trkpt lat="47.67213" lon="-3.36922">
        <ele>-1.3</ele>
        <time>2015-10-10T15:19:03Z</time>
      </trkpt>
      <trkpt lat="47.67216" lon="-3.36921">
        <ele>-1.3</ele>
        <time>2015-10-10T15:19:04Z</time>
      </trkpt>
      <trkpt lat="47.67218" lon="-3.36921">
        <ele>-1.3</ele>
        <time>2015-10-10T15:19:05Z</time>
      </trkpt>
      <trkpt lat="47.67221" lon="-3.36921">
        <ele>-1.3</ele>
        <time>2015-10-10T15:19:06Z</time>
      </trkpt>
      <trkpt lat="47.67224" lon="-3.36921">
        <ele>-1.3</ele>
        <time>2015-10-10T15:19:07Z</time>
      </trkpt>
      <trkpt lat="47.67227" lon="-3.36921">
        <ele>-1.3</ele>
        <time>2015-10-10T15:19:08Z</time>
      </trkpt>
      <trkpt lat="47.67229" lon="-3.36921">
        <ele>-1.3</ele>
        <time>2015-10-10T15:19:09Z</time>
      </trkpt>
      <trkpt lat="47.67232" lon="-3.36922">
        <ele>-1.3</ele>
        <time>2015-10-10T15:19:10Z</time>
      </trkpt>
      <trkpt lat="47.67235" lon="-3.36922">
        <ele>-1.3</ele>
        <time>2015-10-10T15:19:11Z</time>
      </trkpt>
      <trkpt lat="47.67237" lon="-3.36923">
        <ele>-1.3</ele>
        <time>2015-10-10T15:19:12Z</time>
      </trkpt>
      <trkpt lat="47.6724" lon="-3.36923">
        <ele>-1.3</ele>
        <time>2015-10-10T15:19:13Z</time>
      </trkpt>
      <trkpt lat="47.67243" lon="-3.36923">
        <ele>-1.3</ele>
        <time>2015-10-10T15:19:14Z</time>
      </trkpt>
      <trkpt lat="47.67246" lon="-3.36922">
        <ele>-1.3</ele>
        <time>2015-10-10T15:19:15Z</time>
      </trkpt>
      <trkpt lat="47.67248" lon="-3.36922">
        <ele>-1.3</ele>
        <time>2015-10-10T15:19:16Z</time>
      </trkpt>
      <trkpt lat="47.67251" lon="-3.36921">
        <ele>-1.3</ele>
        <time>2015-10-10T15:19:17Z</time>
      </trkpt>
      <trkpt lat="47.67254" lon="-3.3692">
        <ele>-1.3</ele>
        <time>2015-10-10T15:19:18Z</time>
      </trkpt>
      <trkpt lat="47.67257" lon="-3.3692">
        <ele>-1.3</ele>
        <time>2015-10-10T15:19:19Z</time>
      </trkpt>
      <trkpt lat="47.6726" lon="-3.3692">
        <ele>-1.3</ele>
        <time>2015-10-10T15:19:20Z</time>
      </trkpt>
      <trkpt lat="47.67262" lon="-3.36919">
        <ele>-1.3</ele>
        <time>2015-10-10T15:19:21Z</time>
      </trkpt>
      <trkpt lat="47.67265" lon="-3.36919">
        <ele>-1.3</ele>
        <time>2015-10-10T15:19:22Z</time>
      </trkpt>
      <trkpt lat="47.67268" lon="-3.3692">
        <ele>-1.3</ele>
        <time>2015-10-10T15:19:23Z</time>
      </trkpt>
      <trkpt lat="47.67271" lon="-3.3692">
        <ele>-1.3</ele>
        <time>2015-10-10T15:19:24Z</time>
      </trkpt>
      <trkpt lat="47.67274" lon="-3.3692">
        <ele>-1.3</ele>
        <time>2015-10-10T15:19:25Z</time>
      </trkpt>
      <trkpt lat="47.67277" lon="-3.3692">
        <ele>-1.3</ele>
        <time>2015-10-10T15:19:26Z</time>
      </trkpt>
      <trkpt lat="47.67279" lon="-3.36919">
        <ele>-0.82</ele>
        <time>2015-10-10T15:19:27Z</time>
      </trkpt>
      <trkpt lat="47.67282" lon="-3.3692">
        <ele>-0.82</ele>
        <time>2015-10-10T15:19:28Z</time>
      </trkpt>
      <trkpt lat="47.67285" lon="-3.36919">
        <ele>-0.82</ele>
        <time>2015-10-10T15:19:29Z</time>
      </trkpt>
      <trkpt lat="47.67288" lon="-3.36917">
        <ele>-2.27</ele>
        <time>2015-10-10T15:19:30Z</time>
      </trkpt>
      <trkpt lat="47.6729" lon="-3.36916">
        <ele>-2.27</ele>
        <time>2015-10-10T15:19:31Z</time>
      </trkpt>
      <trkpt lat="47.67293" lon="-3.36917">
        <ele>-2.27</ele>
        <time>2015-10-10T15:19:32Z</time>
      </trkpt>
      <trkpt lat="47.67296" lon="-3.36917">
        <ele>-2.27</ele>
        <time>2015-10-10T15:19:33Z</time>
      </trkpt>
      <trkpt lat="47.67298" lon="-3.36916">
        <ele>-2.27</ele>
        <time>2015-10-10T15:19:34Z</time>
      </trkpt>
      <trkpt lat="47.67301" lon="-3.36915">
        <ele>-2.27</ele>
        <time>2015-10-10T15:19:35Z</time>
      </trkpt>
      <trkpt lat="47.67303" lon="-3.36914">
        <ele>-2.27</ele>
        <time>2015-10-10T15:19:36Z</time>
      </trkpt>
      <trkpt lat="47.67306" lon="-3.36914">
        <ele>-2.27</ele>
        <time>2015-10-10T15:19:37Z</time>
      </trkpt>
      <trkpt lat="47.67309" lon="-3.36914">
        <ele>-2.27</ele>
        <time>2015-10-10T15:19:38Z</time>
      </trkpt>
      <trkpt lat="47.67311" lon="-3.36914">
        <ele>-2.27</ele>
        <time>2015-10-10T15:19:39Z</time>
      </trkpt>
      <trkpt lat="47.67314" lon="-3.36914">
        <ele>-2.27</ele>
        <time>2015-10-10T15:19:40Z</time>
      </trkpt>
      <trkpt lat="47.67317" lon="-3.36915">
        <ele>-2.27</ele>
        <time>2015-10-10T15:19:41Z</time>
      </trkpt>
      <trkpt lat="47.67319" lon="-3.36916">
        <ele>-2.27</ele>
        <time>2015-10-10T15:19:42Z</time>
      </trkpt>
      <trkpt lat="47.67322" lon="-3.36916">
        <ele>-2.27</ele>
        <time>2015-10-10T15:19:43Z</time>
      </trkpt>
      <trkpt lat="47.67325" lon="-3.36916">
        <ele>-2.27</ele>
        <time>2015-10-10T15:19:44Z</time>
      </trkpt>
      <trkpt lat="47.67327" lon="-3.36916">
        <ele>-2.27</ele>
        <time>2015-10-10T15:19:45Z</time>
      </trkpt>
      <trkpt lat="47.6733" lon="-3.36917">
        <ele>-2.27</ele>
        <time>2015-10-10T15:19:46Z</time>
      </trkpt>
      <trkpt lat="47.67333" lon="-3.36917">
        <ele>-2.27</ele>
        <time>2015-10-10T15:19:47Z</time>
      </trkpt>
      <trkpt lat="47.67336" lon="-3.36917">
        <ele>-2.27</ele>
        <time>2015-10-10T15:19:48Z</time>
      </trkpt>
      <trkpt lat="47.67339" lon="-3.36917">
        <ele>-2.27</ele>
        <time>2015-10-10T15:19:49Z</time>
      </trkpt>
      <trkpt lat="47.67341" lon="-3.36917">
        <ele>-2.27</ele>
        <time>2015-10-10T15:19:50Z</time>
      </trkpt>
      <trkpt lat="47.67344" lon="-3.36918">
        <ele>-2.27</ele>
        <time>2015-10-10T15:19:51Z</time>
      </trkpt>
      <trkpt lat="47.67347" lon="-3.36918">
        <ele>-2.27</ele>
        <time>2015-10-10T15:19:52Z</time>
      </trkpt>
      <trkpt lat="47.67349" lon="-3.36918">
        <ele>-0.82</ele>
        <time>2015-10-10T15:19:53Z</time>
      </trkpt>
      <trkpt lat="47.67352" lon="-3.36918">
        <ele>-0.82</ele>
        <time>2015-10-10T15:19:54Z</time>
      </trkpt>
      <trkpt lat="47.67354" lon="-3.36918">
        <ele>-0.82</ele>
        <time>2015-10-10T15:19:55Z</time>
      </trkpt>
      <trkpt lat="47.67358" lon="-3.36918">
        <ele>-0.82</ele>
        <time>2015-10-10T15:19:56Z</time>
      </trkpt>
      <trkpt lat="47.6736" lon="-3.36918">
        <ele>-0.82</ele>
        <time>2015-10-10T15:19:57Z</time>
      </trkpt>
      <trkpt lat="47.67363" lon="-3.36918">
        <ele>-0.82</ele>
        <time>2015-10-10T15:19:58Z</time>
      </trkpt>
      <trkpt lat="47.67366" lon="-3.36918">
        <ele>-0.82</ele>
        <time>2015-10-10T15:19:59Z</time>
      </trkpt>
      <trkpt lat="47.67368" lon="-3.36918">
        <ele>-0.82</ele>
        <time>2015-10-10T15:20:00Z</time>
      </trkpt>
      <trkpt lat="47.67371" lon="-3.36918">
        <ele>-0.82</ele>
        <time>2015-10-10T15:20:01Z</time>
      </trkpt>
      <trkpt lat="47.67374" lon="-3.36918">
        <ele>-0.82</ele>
        <time>2015-10-10T15:20:02Z</time>
      </trkpt>
      <trkpt lat="47.67377" lon="-3.36918">
        <ele>-0.82</ele>
        <time>2015-10-10T15:20:03Z</time>
      </trkpt>
      <trkpt lat="47.6738" lon="-3.36918">
        <ele>-0.82</ele>
        <time>2015-10-10T15:20:04Z</time>
      </trkpt>
      <trkpt lat="47.67383" lon="-3.36917">
        <ele>-0.82</ele>
        <time>2015-10-10T15:20:05Z</time>
      </trkpt>
      <trkpt lat="47.67386" lon="-3.36917">
        <ele>-0.82</ele>
        <time>2015-10-10T15:20:06Z</time>
      </trkpt>
      <trkpt lat="47.67389" lon="-3.36917">
        <ele>-0.82</ele>
        <time>2015-10-10T15:20:07Z</time>
      </trkpt>
      <trkpt lat="47.67392" lon="-3.36917">
        <ele>-0.82</ele>
        <time>2015-10-10T15:20:08Z</time>
      </trkpt>
      <trkpt lat="47.67395" lon="-3.36917">
        <ele>-0.82</ele>
        <time>2015-10-10T15:20:09Z</time>
      </trkpt>
      <trkpt lat="47.67398" lon="-3.36917">
        <ele>-0.82</ele>
        <time>2015-10-10T15:20:10Z</time>
      </trkpt>
      <trkpt lat="47.67401" lon="-3.36917">
        <ele>-0.82</ele>
        <time>2015-10-10T15:20:11Z</time>
      </trkpt>
      <trkpt lat="47.67404" lon="-3.36917">
        <ele>-0.82</ele>
        <time>2015-10-10T15:20:12Z</time>
      </trkpt>
      <trkpt lat="47.67406" lon="-3.36917">
        <ele>-0.82</ele>
        <time>2015-10-10T15:20:13Z</time>
      </trkpt>
      <trkpt lat="47.67409" lon="-3.36917">
        <ele>-0.82</ele>
        <time>2015-10-10T15:20:14Z</time>
      </trkpt>
      <trkpt lat="47.67412" lon="-3.36917">
        <ele>-2.75</ele>
        <time>2015-10-10T15:20:15Z</time>
      </trkpt>
      <trkpt lat="47.67414" lon="-3.36918">
        <ele>-2.75</ele>
        <time>2015-10-10T15:20:16Z</time>
      </trkpt>
      <trkpt lat="47.67417" lon="-3.36918">
        <ele>-2.75</ele>
        <time>2015-10-10T15:20:17Z</time>
      </trkpt>
      <trkpt lat="47.6742" lon="-3.36918">
        <ele>-2.75</ele>
        <time>2015-10-10T15:20:18Z</time>
      </trkpt>
      <trkpt lat="47.67422" lon="-3.36918">
        <ele>-2.75</ele>
        <time>2015-10-10T15:20:19Z</time>
      </trkpt>
      <trkpt lat="47.67425" lon="-3.36918">
        <ele>-2.27</ele>
        <time>2015-10-10T15:20:20Z</time>
      </trkpt>
      <trkpt lat="47.67427" lon="-3.36918">
        <ele>-2.27</ele>
        <time>2015-10-10T15:20:21Z</time>
      </trkpt>
      <trkpt lat="47.6743" lon="-3.36918">
        <ele>-2.27</ele>
        <time>2015-10-10T15:20:22Z</time>
      </trkpt>
      <trkpt lat="47.67432" lon="-3.36919">
        <ele>-2.75</ele>
        <time>2015-10-10T15:20:23Z</time>
      </trkpt>
      <trkpt lat="47.67435" lon="-3.36918">
        <ele>-2.75</ele>
        <time>2015-10-10T15:20:24Z</time>
      </trkpt>
      <trkpt lat="47.67438" lon="-3.36918">
        <ele>-2.75</ele>
        <time>2015-10-10T15:20:25Z</time>
      </trkpt>
      <trkpt lat="47.67441" lon="-3.36918">
        <ele>-2.75</ele>
        <time>2015-10-10T15:20:26Z</time>
      </trkpt>
      <trkpt lat="47.67444" lon="-3.36918">
        <ele>-2.75</ele>
        <time>2015-10-10T15:20:27Z</time>
      </trkpt>
      <trkpt lat="47.67447" lon="-3.36919">
        <ele>-2.75</ele>
        <time>2015-10-10T15:20:28Z</time>
      </trkpt>
      <trkpt lat="47.6745" lon="-3.36919">
        <ele>-2.75</ele>
        <time>2015-10-10T15:20:29Z</time>
      </trkpt>
      <trkpt lat="47.67452" lon="-3.36919">
        <ele>-2.75</ele>
        <time>2015-10-10T15:20:30Z</time>
      </trkpt>
      <trkpt lat="47.67455" lon="-3.36919">
        <ele>-2.75</ele>
        <time>2015-10-10T15:20:31Z</time>
      </trkpt>
      <trkpt lat="47.67458" lon="-3.36919">
        <ele>-2.27</ele>
        <time>2015-10-10T15:20:32Z</time>
      </trkpt>
      <trkpt lat="47.67461" lon="-3.3692">
        <ele>-2.75</ele>
        <time>2015-10-10T15:20:33Z</time>
      </trkpt>
      <trkpt lat="47.67464" lon="-3.3692">
        <ele>-2.27</ele>
        <time>2015-10-10T15:20:34Z</time>
      </trkpt>
      <trkpt lat="47.67467" lon="-3.3692">
        <ele>-2.27</ele>
        <time>2015-10-10T15:20:35Z</time>
      </trkpt>
      <trkpt lat="47.6747" lon="-3.3692">
        <ele>-2.75</ele>
        <time>2015-10-10T15:20:36Z</time>
      </trkpt>
      <trkpt lat="47.67473" lon="-3.3692">
        <ele>-1.3</ele>
        <time>2015-10-10T15:20:37Z</time>
      </trkpt>
      <trkpt lat="47.67476" lon="-3.36921">
        <ele>-1.3</ele>
        <time>2015-10-10T15:20:38Z</time>
      </trkpt>
      <trkpt lat="47.67479" lon="-3.36921">
        <ele>-1.3</ele>
        <time>2015-10-10T15:20:39Z</time>
      </trkpt>
      <trkpt lat="47.67482" lon="-3.36921">
        <ele>-1.3</ele>
        <time>2015-10-10T15:20:40Z</time>
      </trkpt>
      <trkpt lat="47.67485" lon="-3.36922">
        <ele>0.14</ele>
        <time>2015-10-10T15:20:41Z</time>
      </trkpt>
      <trkpt lat="47.67488" lon="-3.36922">
        <ele>-2.75</ele>
        <time>2015-10-10T15:20:42Z</time>
      </trkpt>
      <trkpt lat="47.6749" lon="-3.36922">
        <ele>-4.19</ele>
        <time>2015-10-10T15:20:43Z</time>
      </trkpt>
      <trkpt lat="47.67493" lon="-3.36922">
        <ele>-1.3</ele>
        <time>2015-10-10T15:20:44Z</time>
      </trkpt>
      <trkpt lat="47.67496" lon="-3.36923">
        <ele>-1.3</ele>
        <time>2015-10-10T15:20:45Z</time>
      </trkpt>
      <trkpt lat="47.67498" lon="-3.36923">
        <ele>-1.3</ele>
        <time>2015-10-10T15:20:46Z</time>
      </trkpt>
      <trkpt lat="47.67501" lon="-3.36923">
        <ele>-1.3</ele>
        <time>2015-10-10T15:20:47Z</time>
      </trkpt>
      <trkpt lat="47.67504" lon="-3.36923">
        <ele>-2.75</ele>
        <time>2015-10-10T15:20:48Z</time>
      </trkpt>
      <trkpt lat="47.67507" lon="-3.36923">
        <ele>-2.75</ele>
        <time>2015-10-10T15:20:49Z</time>
      </trkpt>
      <trkpt lat="47.67509" lon="-3.36923">
        <ele>-2.75</ele>
        <time>2015-10-10T15:20:50Z</time>
      </trkpt>
      <trkpt lat="47.67512" lon="-3.36923">
        <ele>-2.75</ele>
        <time>2015-10-10T15:20:51Z</time>
      </trkpt>
      <trkpt lat="47.67515" lon="-3.36923">
        <ele>-2.75</ele>
        <time>2015-10-10T15:20:52Z</time>
      </trkpt>
      <trkpt lat="47.67518" lon="-3.36922">
        <ele>-1.3</ele>
        <time>2015-10-10T15:20:53Z</time>
      </trkpt>
      <trkpt lat="47.67521" lon="-3.36922">
        <ele>-1.3</ele>
        <time>2015-10-10T15:20:54Z</time>
      </trkpt>
      <trkpt lat="47.67524" lon="-3.36922">
        <ele>-1.3</ele>
        <time>2015-10-10T15:20:55Z</time>
      </trkpt>
      <trkpt lat="47.67527" lon="-3.36922">
        <ele>-1.3</ele>
        <time>2015-10-10T15:20:56Z</time>
      </trkpt>
      <trkpt lat="47.6753" lon="-3.36922">
        <ele>-1.3</ele>
        <time>2015-10-10T15:20:57Z</time>
      </trkpt>
      <trkpt lat="47.67532" lon="-3.36922">
        <ele>-1.3</ele>
        <time>2015-10-10T15:20:58Z</time>
      </trkpt>
      <trkpt lat="47.67535" lon="-3.36922">
        <ele>-1.3</ele>
        <time>2015-10-10T15:20:59Z</time>
      </trkpt>
      <trkpt lat="47.67538" lon="-3.36922">
        <ele>-1.3</ele>
        <time>2015-10-10T15:21:00Z</time>
      </trkpt>
      <trkpt lat="47.67541" lon="-3.36923">
        <ele>-1.3</ele>
        <time>2015-10-10T15:21:01Z</time>
      </trkpt>
      <trkpt lat="47.67544" lon="-3.36924">
        <ele>-1.3</ele>
        <time>2015-10-10T15:21:02Z</time>
      </trkpt>
      <trkpt lat="47.67547" lon="-3.36924">
        <ele>-1.3</ele>
        <time>2015-10-10T15:21:03Z</time>
      </trkpt>
      <trkpt lat="47.6755" lon="-3.36924">
        <ele>-1.3</ele>
        <time>2015-10-10T15:21:04Z</time>
      </trkpt>
      <trkpt lat="47.67553" lon="-3.36923">
        <ele>-2.75</ele>
        <time>2015-10-10T15:21:05Z</time>
      </trkpt>
      <trkpt lat="47.67555" lon="-3.36924">
        <ele>-2.75</ele>
        <time>2015-10-10T15:21:06Z</time>
      </trkpt>
      <trkpt lat="47.67558" lon="-3.36924">
        <ele>-2.75</ele>
        <time>2015-10-10T15:21:07Z</time>
      </trkpt>
      <trkpt lat="47.67562" lon="-3.36924">
        <ele>-2.75</ele>
        <time>2015-10-10T15:21:08Z</time>
      </trkpt>
      <trkpt lat="47.67563" lon="-3.36925">
        <ele>-0.34</ele>
        <time>2015-10-10T15:21:09Z</time>
      </trkpt>
      <trkpt lat="47.67567" lon="-3.36925">
        <ele>-0.34</ele>
        <time>2015-10-10T15:21:10Z</time>
      </trkpt>
      <trkpt lat="47.67569" lon="-3.36925">
        <ele>-0.34</ele>
        <time>2015-10-10T15:21:11Z</time>
      </trkpt>
      <trkpt lat="47.67572" lon="-3.36924">
        <ele>-0.34</ele>
        <time>2015-10-10T15:21:12Z</time>
      </trkpt>
      <trkpt lat="47.67574" lon="-3.36924">
        <ele>-0.34</ele>
        <time>2015-10-10T15:21:13Z</time>
      </trkpt>
      <trkpt lat="47.67577" lon="-3.36924">
        <ele>-0.34</ele>
        <time>2015-10-10T15:21:14Z</time>
      </trkpt>
      <trkpt lat="47.6758" lon="-3.36923">
        <ele>-0.34</ele>
        <time>2015-10-10T15:21:15Z</time>
      </trkpt>
      <trkpt lat="47.67583" lon="-3.36924">
        <ele>-0.34</ele>
        <time>2015-10-10T15:21:16Z</time>
      </trkpt>
      <trkpt lat="47.67586" lon="-3.36924">
        <ele>-0.34</ele>
        <time>2015-10-10T15:21:17Z</time>
      </trkpt>
      <trkpt lat="47.67589" lon="-3.36925">
        <ele>-0.34</ele>
        <time>2015-10-10T15:21:18Z</time>
      </trkpt>
      <trkpt lat="47.67592" lon="-3.36925">
        <ele>-0.34</ele>
        <time>2015-10-10T15:21:19Z</time>
      </trkpt>
      <trkpt lat="47.67595" lon="-3.36926">
        <ele>-0.34</ele>
        <time>2015-10-10T15:21:20Z</time>
      </trkpt>
      <trkpt lat="47.67599" lon="-3.36927">
        <ele>-0.34</ele>
        <time>2015-10-10T15:21:21Z</time>
      </trkpt>
      <trkpt lat="47.67601" lon="-3.36927">
        <ele>-0.34</ele>
        <time>2015-10-10T15:21:22Z</time>
      </trkpt>
      <trkpt lat="47.67604" lon="-3.36928">
        <ele>-0.34</ele>
        <time>2015-10-10T15:21:23Z</time>
      </trkpt>
      <trkpt lat="47.67607" lon="-3.36928">
        <ele>-0.34</ele>
        <time>2015-10-10T15:21:24Z</time>
      </trkpt>
      <trkpt lat="47.6761" lon="-3.36929">
        <ele>-0.34</ele>
        <time>2015-10-10T15:21:25Z</time>
      </trkpt>
      <trkpt lat="47.67613" lon="-3.36929">
        <ele>-0.34</ele>
        <time>2015-10-10T15:21:26Z</time>
      </trkpt>
      <trkpt lat="47.67616" lon="-3.3693">
        <ele>-1.79</ele>
        <time>2015-10-10T15:21:27Z</time>
      </trkpt>
      <trkpt lat="47.67618" lon="-3.3693">
        <ele>-1.79</ele>
        <time>2015-10-10T15:21:28Z</time>
      </trkpt>
      <trkpt lat="47.67621" lon="-3.36931">
        <ele>-1.79</ele>
        <time>2015-10-10T15:21:29Z</time>
      </trkpt>
      <trkpt lat="47.67623" lon="-3.36931">
        <ele>-1.79</ele>
        <time>2015-10-10T15:21:30Z</time>
      </trkpt>
      <trkpt lat="47.67626" lon="-3.36932">
        <ele>-1.79</ele>
        <time>2015-10-10T15:21:31Z</time>
      </trkpt>
      <trkpt lat="47.67629" lon="-3.36933">
        <ele>-1.79</ele>
        <time>2015-10-10T15:21:32Z</time>
      </trkpt>
      <trkpt lat="47.67632" lon="-3.36934">
        <ele>-1.79</ele>
        <time>2015-10-10T15:21:33Z</time>
      </trkpt>
      <trkpt lat="47.67635" lon="-3.36934">
        <ele>-1.79</ele>
        <time>2015-10-10T15:21:34Z</time>
      </trkpt>
      <trkpt lat="47.67638" lon="-3.36935">
        <ele>-1.79</ele>
        <time>2015-10-10T15:21:35Z</time>
      </trkpt>
      <trkpt lat="47.6764" lon="-3.36936">
        <ele>-1.79</ele>
        <time>2015-10-10T15:21:36Z</time>
      </trkpt>
      <trkpt lat="47.67643" lon="-3.36937">
        <ele>-1.79</ele>
        <time>2015-10-10T15:21:37Z</time>
      </trkpt>
      <trkpt lat="47.67646" lon="-3.36937">
        <ele>-1.79</ele>
        <time>2015-10-10T15:21:38Z</time>
      </trkpt>
      <trkpt lat="47.67649" lon="-3.36938">
        <ele>-1.79</ele>
        <time>2015-10-10T15:21:39Z</time>
      </trkpt>
      <trkpt lat="47.67652" lon="-3.36938">
        <ele>-1.79</ele>
        <time>2015-10-10T15:21:40Z</time>
      </trkpt>
      <trkpt lat="47.67655" lon="-3.3694">
        <ele>-0.34</ele>
        <time>2015-10-10T15:21:41Z</time>
      </trkpt>
      <trkpt lat="47.67657" lon="-3.36941">
        <ele>-0.34</ele>
        <time>2015-10-10T15:21:42Z</time>
      </trkpt>
      <trkpt lat="47.6766" lon="-3.36943">
        <ele>-1.3</ele>
        <time>2015-10-10T15:21:43Z</time>
      </trkpt>
      <trkpt lat="47.67663" lon="-3.36945">
        <ele>-1.3</ele>
        <time>2015-10-10T15:21:44Z</time>
      </trkpt>
      <trkpt lat="47.67666" lon="-3.36946">
        <ele>-1.3</ele>
        <time>2015-10-10T15:21:45Z</time>
      </trkpt>
      <trkpt lat="47.67669" lon="-3.36947">
        <ele>-1.3</ele>
        <time>2015-10-10T15:21:46Z</time>
      </trkpt>
      <trkpt lat="47.67671" lon="-3.36949">
        <ele>-2.27</ele>
        <time>2015-10-10T15:21:47Z</time>
      </trkpt>
      <trkpt lat="47.67674" lon="-3.3695">
        <ele>-2.27</ele>
        <time>2015-10-10T15:21:48Z</time>
      </trkpt>
      <trkpt lat="47.67676" lon="-3.36952">
        <ele>-2.27</ele>
        <time>2015-10-10T15:21:49Z</time>
      </trkpt>
      <trkpt lat="47.67679" lon="-3.36953">
        <ele>-2.27</ele>
        <time>2015-10-10T15:21:50Z</time>
      </trkpt>
      <trkpt lat="47.67681" lon="-3.36954">
        <ele>-2.27</ele>
        <time>2015-10-10T15:21:51Z</time>
      </trkpt>
      <trkpt lat="47.67684" lon="-3.36955">
        <ele>-2.27</ele>
        <time>2015-10-10T15:21:52Z</time>
      </trkpt>
      <trkpt lat="47.67686" lon="-3.36955">
        <ele>-2.27</ele>
        <time>2015-10-10T15:21:53Z</time>
      </trkpt>
      <trkpt lat="47.67689" lon="-3.36955">
        <ele>-0.82</ele>
        <time>2015-10-10T15:21:54Z</time>
      </trkpt>
      <trkpt lat="47.67691" lon="-3.36954">
        <ele>-0.82</ele>
        <time>2015-10-10T15:21:55Z</time>
      </trkpt>
      <trkpt lat="47.67694" lon="-3.36954">
        <ele>-0.82</ele>
        <time>2015-10-10T15:21:56Z</time>
      </trkpt>
      <trkpt lat="47.67697" lon="-3.36954">
        <ele>-0.82</ele>
        <time>2015-10-10T15:21:57Z</time>
      </trkpt>
      <trkpt lat="47.677" lon="-3.36954">
        <ele>-0.82</ele>
        <time>2015-10-10T15:21:58Z</time>
      </trkpt>
      <trkpt lat="47.67702" lon="-3.36954">
        <ele>-0.82</ele>
        <time>2015-10-10T15:21:59Z</time>
      </trkpt>
      <trkpt lat="47.67705" lon="-3.36954">
        <ele>-0.82</ele>
        <time>2015-10-10T15:22:00Z</time>
      </trkpt>
      <trkpt lat="47.67708" lon="-3.36954">
        <ele>-0.82</ele>
        <time>2015-10-10T15:22:01Z</time>
      </trkpt>
      <trkpt lat="47.67711" lon="-3.36955">
        <ele>-0.82</ele>
        <time>2015-10-10T15:22:02Z</time>
      </trkpt>
      <trkpt lat="47.67714" lon="-3.36955">
        <ele>-0.82</ele>
        <time>2015-10-10T15:22:03Z</time>
      </trkpt>
      <trkpt lat="47.67717" lon="-3.36956">
        <ele>-0.82</ele>
        <time>2015-10-10T15:22:04Z</time>
      </trkpt>
      <trkpt lat="47.6772" lon="-3.36957">
        <ele>-0.82</ele>
        <time>2015-10-10T15:22:05Z</time>
      </trkpt>
      <trkpt lat="47.67723" lon="-3.36957">
        <ele>-0.82</ele>
        <time>2015-10-10T15:22:06Z</time>
      </trkpt>
      <trkpt lat="47.67727" lon="-3.36958">
        <ele>-0.82</ele>
        <time>2015-10-10T15:22:07Z</time>
      </trkpt>
      <trkpt lat="47.67729" lon="-3.36958">
        <ele>-2.27</ele>
        <time>2015-10-10T15:22:08Z</time>
      </trkpt>
      <trkpt lat="47.67731" lon="-3.36959">
        <ele>-0.34</ele>
        <time>2015-10-10T15:22:09Z</time>
      </trkpt>
      <trkpt lat="47.67734" lon="-3.3696">
        <ele>-0.34</ele>
        <time>2015-10-10T15:22:10Z</time>
      </trkpt>
      <trkpt lat="47.67738" lon="-3.36961">
        <ele>-0.34</ele>
        <time>2015-10-10T15:22:11Z</time>
      </trkpt>
      <trkpt lat="47.6774" lon="-3.36962">
        <ele>-1.79</ele>
        <time>2015-10-10T15:22:12Z</time>
      </trkpt>
      <trkpt lat="47.67744" lon="-3.36964">
        <ele>-1.79</ele>
        <time>2015-10-10T15:22:13Z</time>
      </trkpt>
      <trkpt lat="47.67746" lon="-3.36965">
        <ele>-1.79</ele>
        <time>2015-10-10T15:22:14Z</time>
      </trkpt>
      <trkpt lat="47.67748" lon="-3.36966">
        <ele>-1.79</ele>
        <time>2015-10-10T15:22:15Z</time>
      </trkpt>
      <trkpt lat="47.67751" lon="-3.36968">
        <ele>-1.79</ele>
        <time>2015-10-10T15:22:16Z</time>
      </trkpt>
      <trkpt lat="47.67753" lon="-3.3697">
        <ele>-1.79</ele>
        <time>2015-10-10T15:22:17Z</time>
      </trkpt>
      <trkpt lat="47.67756" lon="-3.36972">
        <ele>-1.79</ele>
        <time>2015-10-10T15:22:18Z</time>
      </trkpt>
      <trkpt lat="47.67758" lon="-3.36974">
        <ele>-1.79</ele>
        <time>2015-10-10T15:22:19Z</time>
      </trkpt>
      <trkpt lat="47.67761" lon="-3.36975">
        <ele>-1.79</ele>
        <time>2015-10-10T15:22:20Z</time>
      </trkpt>
      <trkpt lat="47.67763" lon="-3.36977">
        <ele>-1.79</ele>
        <time>2015-10-10T15:22:21Z</time>
      </trkpt>
      <trkpt lat="47.67766" lon="-3.36979">
        <ele>-2.27</ele>
        <time>2015-10-10T15:22:22Z</time>
      </trkpt>
      <trkpt lat="47.67768" lon="-3.36981">
        <ele>-2.27</ele>
        <time>2015-10-10T15:22:23Z</time>
      </trkpt>
      <trkpt lat="47.6777" lon="-3.36983">
        <ele>-2.27</ele>
        <time>2015-10-10T15:22:24Z</time>
      </trkpt>
      <trkpt lat="47.67772" lon="-3.36985">
        <ele>-2.27</ele>
        <time>2015-10-10T15:22:25Z</time>
      </trkpt>
      <trkpt lat="47.67775" lon="-3.36986">
        <ele>-0.82</ele>
        <time>2015-10-10T15:22:26Z</time>
      </trkpt>
      <trkpt lat="47.67778" lon="-3.36986">
        <ele>-0.82</ele>
        <time>2015-10-10T15:22:27Z</time>
      </trkpt>
      <trkpt lat="47.67781" lon="-3.36986">
        <ele>-0.82</ele>
        <time>2015-10-10T15:22:28Z</time>
      </trkpt>
      <trkpt lat="47.67784" lon="-3.36986">
        <ele>-0.82</ele>
        <time>2015-10-10T15:22:29Z</time>
      </trkpt>
      <trkpt lat="47.67787" lon="-3.36986">
        <ele>-0.82</ele>
        <time>2015-10-10T15:22:30Z</time>
      </trkpt>
      <trkpt lat="47.6779" lon="-3.36985">
        <ele>-0.82</ele>
        <time>2015-10-10T15:22:31Z</time>
      </trkpt>
      <trkpt lat="47.67793" lon="-3.36985">
        <ele>-0.82</ele>
        <time>2015-10-10T15:22:32Z</time>
      </trkpt>
      <trkpt lat="47.67795" lon="-3.36985">
        <ele>-0.82</ele>
        <time>2015-10-10T15:22:33Z</time>
      </trkpt>
      <trkpt lat="47.67798" lon="-3.36985">
        <ele>-2.27</ele>
        <time>2015-10-10T15:22:34Z</time>
      </trkpt>
      <trkpt lat="47.67801" lon="-3.36985">
        <ele>-2.27</ele>
        <time>2015-10-10T15:22:35Z</time>
      </trkpt>
      <trkpt lat="47.67803" lon="-3.36984">
        <ele>-2.27</ele>
        <time>2015-10-10T15:22:36Z</time>
      </trkpt>
      <trkpt lat="47.67806" lon="-3.36984">
        <ele>-2.27</ele>
        <time>2015-10-10T15:22:37Z</time>
      </trkpt>
      <trkpt lat="47.67809" lon="-3.36984">
        <ele>-2.27</ele>
        <time>2015-10-10T15:22:38Z</time>
      </trkpt>
      <trkpt lat="47.67812" lon="-3.36984">
        <ele>-2.27</ele>
        <time>2015-10-10T15:22:39Z</time>
      </trkpt>
      <trkpt lat="47.67814" lon="-3.36984">
        <ele>-2.75</ele>
        <time>2015-10-10T15:22:40Z</time>
      </trkpt>
      <trkpt lat="47.67817" lon="-3.36984">
        <ele>-2.75</ele>
        <time>2015-10-10T15:22:41Z</time>
      </trkpt>
      <trkpt lat="47.67819" lon="-3.36985">
        <ele>-2.75</ele>
        <time>2015-10-10T15:22:42Z</time>
      </trkpt>
      <trkpt lat="47.67822" lon="-3.36987">
        <ele>-2.75</ele>
        <time>2015-10-10T15:22:43Z</time>
      </trkpt>
      <trkpt lat="47.67825" lon="-3.36987">
        <ele>-1.79</ele>
        <time>2015-10-10T15:22:44Z</time>
      </trkpt>
      <trkpt lat="47.67828" lon="-3.36988">
        <ele>-0.82</ele>
        <time>2015-10-10T15:22:45Z</time>
      </trkpt>
      <trkpt lat="47.67831" lon="-3.3699">
        <ele>-0.82</ele>
        <time>2015-10-10T15:22:46Z</time>
      </trkpt>
      <trkpt lat="47.67833" lon="-3.36991">
        <ele>-0.34</ele>
        <time>2015-10-10T15:22:47Z</time>
      </trkpt>
      <trkpt lat="47.67836" lon="-3.36992">
        <ele>-0.82</ele>
        <time>2015-10-10T15:22:48Z</time>
      </trkpt>
      <trkpt lat="47.67839" lon="-3.36992">
        <ele>-0.82</ele>
        <time>2015-10-10T15:22:49Z</time>
      </trkpt>
      <trkpt lat="47.67842" lon="-3.36993">
        <ele>-0.82</ele>
        <time>2015-10-10T15:22:50Z</time>
      </trkpt>
      <trkpt lat="47.67845" lon="-3.36993">
        <ele>-0.82</ele>
        <time>2015-10-10T15:22:51Z</time>
      </trkpt>
      <trkpt lat="47.67848" lon="-3.36994">
        <ele>-0.82</ele>
        <time>2015-10-10T15:22:52Z</time>
      </trkpt>
      <trkpt lat="47.67851" lon="-3.36995">
        <ele>-0.82</ele>
        <time>2015-10-10T15:22:53Z</time>
      </trkpt>
      <trkpt lat="47.67854" lon="-3.36994">
        <ele>-0.82</ele>
        <time>2015-10-10T15:22:54Z</time>
      </trkpt>
      <trkpt lat="47.67857" lon="-3.36994">
        <ele>-0.82</ele>
        <time>2015-10-10T15:22:55Z</time>
      </trkpt>
      <trkpt lat="47.6786" lon="-3.36993">
        <ele>-0.82</ele>
        <time>2015-10-10T15:22:56Z</time>
      </trkpt>
      <trkpt lat="47.67863" lon="-3.36994">
        <ele>-0.82</ele>
        <time>2015-10-10T15:22:57Z</time>
      </trkpt>
      <trkpt lat="47.67865" lon="-3.36994">
        <ele>-0.82</ele>
        <time>2015-10-10T15:22:58Z</time>
      </trkpt>
      <trkpt lat="47.67869" lon="-3.36995">
        <ele>-0.82</ele>
        <time>2015-10-10T15:22:59Z</time>
      </trkpt>
      <trkpt lat="47.67872" lon="-3.36995">
        <ele>-0.82</ele>
        <time>2015-10-10T15:23:00Z</time>
      </trkpt>
      <trkpt lat="47.67875" lon="-3.36995">
        <ele>-0.82</ele>
        <time>2015-10-10T15:23:01Z</time>
      </trkpt>
      <trkpt lat="47.67877" lon="-3.36995">
        <ele>-0.82</ele>
        <time>2015-10-10T15:23:02Z</time>
      </trkpt>
      <trkpt lat="47.6788" lon="-3.36995">
        <ele>-1.79</ele>
        <time>2015-10-10T15:23:03Z</time>
      </trkpt>
      <trkpt lat="47.67882" lon="-3.36995">
        <ele>-1.79</ele>
        <time>2015-10-10T15:23:04Z</time>
      </trkpt>
      <trkpt lat="47.67885" lon="-3.36996">
        <ele>-1.79</ele>
        <time>2015-10-10T15:23:05Z</time>
      </trkpt>
      <trkpt lat="47.67888" lon="-3.36996">
        <ele>-1.79</ele>
        <time>2015-10-10T15:23:06Z</time>
      </trkpt>
      <trkpt lat="47.6789" lon="-3.36995">
        <ele>-1.79</ele>
        <time>2015-10-10T15:23:07Z</time>
      </trkpt>
      <trkpt lat="47.67893" lon="-3.36995">
        <ele>-1.79</ele>
        <time>2015-10-10T15:23:08Z</time>
      </trkpt>
      <trkpt lat="47.67896" lon="-3.36995">
        <ele>-1.79</ele>
        <time>2015-10-10T15:23:09Z</time>
      </trkpt>
      <trkpt lat="47.67899" lon="-3.36995">
        <ele>-1.79</ele>
        <time>2015-10-10T15:23:10Z</time>
      </trkpt>
      <trkpt lat="47.67902" lon="-3.36996">
        <ele>-1.79</ele>
        <time>2015-10-10T15:23:11Z</time>
      </trkpt>
      <trkpt lat="47.67905" lon="-3.36996">
        <ele>-0.82</ele>
        <time>2015-10-10T15:23:12Z</time>
      </trkpt>
      <trkpt lat="47.67908" lon="-3.36996">
        <ele>-0.82</ele>
        <time>2015-10-10T15:23:13Z</time>
      </trkpt>
      <trkpt lat="47.67911" lon="-3.36996">
        <ele>-0.82</ele>
        <time>2015-10-10T15:23:14Z</time>
      </trkpt>
      <trkpt lat="47.67914" lon="-3.36997">
        <ele>-0.82</ele>
        <time>2015-10-10T15:23:15Z</time>
      </trkpt>
      <trkpt lat="47.67917" lon="-3.36997">
        <ele>-0.82</ele>
        <time>2015-10-10T15:23:16Z</time>
      </trkpt>
      <trkpt lat="47.6792" lon="-3.36997">
        <ele>-0.82</ele>
        <time>2015-10-10T15:23:17Z</time>
      </trkpt>
      <trkpt lat="47.67923" lon="-3.36996">
        <ele>-0.82</ele>
        <time>2015-10-10T15:23:18Z</time>
      </trkpt>
      <trkpt lat="47.67925" lon="-3.36995">
        <ele>-0.82</ele>
        <time>2015-10-10T15:23:19Z</time>
      </trkpt>
      <trkpt lat="47.67928" lon="-3.36995">
        <ele>-0.82</ele>
        <time>2015-10-10T15:23:20Z</time>
      </trkpt>
      <trkpt lat="47.67931" lon="-3.36995">
        <ele>-0.82</ele>
        <time>2015-10-10T15:23:21Z</time>
      </trkpt>
      <trkpt lat="47.67934" lon="-3.36995">
        <ele>-0.82</ele>
        <time>2015-10-10T15:23:22Z</time>
      </trkpt>
      <trkpt lat="47.67936" lon="-3.36995">
        <ele>-0.82</ele>
        <time>2015-10-10T15:23:23Z</time>
      </trkpt>
      <trkpt lat="47.67939" lon="-3.36995">
        <ele>-1.79</ele>
        <time>2015-10-10T15:23:24Z</time>
      </trkpt>
      <trkpt lat="47.67941" lon="-3.36995">
        <ele>-1.79</ele>
        <time>2015-10-10T15:23:25Z</time>
      </trkpt>
      <trkpt lat="47.67944" lon="-3.36995">
        <ele>-1.79</ele>
        <time>2015-10-10T15:23:26Z</time>
      </trkpt>
      <trkpt lat="47.67947" lon="-3.36995">
        <ele>-1.79</ele>
        <time>2015-10-10T15:23:27Z</time>
      </trkpt>
      <trkpt lat="47.6795" lon="-3.36994">
        <ele>-1.79</ele>
        <time>2015-10-10T15:23:28Z</time>
      </trkpt>
      <trkpt lat="47.67953" lon="-3.36994">
        <ele>-1.79</ele>
        <time>2015-10-10T15:23:29Z</time>
      </trkpt>
      <trkpt lat="47.67955" lon="-3.36994">
        <ele>-1.79</ele>
        <time>2015-10-10T15:23:30Z</time>
      </trkpt>
      <trkpt lat="47.67958" lon="-3.36994">
        <ele>-1.79</ele>
        <time>2015-10-10T15:23:31Z</time>
      </trkpt>
      <trkpt lat="47.67961" lon="-3.36994">
        <ele>-1.79</ele>
        <time>2015-10-10T15:23:32Z</time>
      </trkpt>
      <trkpt lat="47.67964" lon="-3.36994">
        <ele>-1.79</ele>
        <time>2015-10-10T15:23:33Z</time>
      </trkpt>
      <trkpt lat="47.67967" lon="-3.36995">
        <ele>-1.79</ele>
        <time>2015-10-10T15:23:34Z</time>
      </trkpt>
      <trkpt lat="47.67969" lon="-3.36995">
        <ele>-1.79</ele>
        <time>2015-10-10T15:23:35Z</time>
      </trkpt>
      <trkpt lat="47.67972" lon="-3.36995">
        <ele>-1.79</ele>
        <time>2015-10-10T15:23:36Z</time>
      </trkpt>
      <trkpt lat="47.67975" lon="-3.36996">
        <ele>-1.79</ele>
        <time>2015-10-10T15:23:37Z</time>
      </trkpt>
      <trkpt lat="47.67978" lon="-3.36995">
        <ele>-1.79</ele>
        <time>2015-10-10T15:23:38Z</time>
      </trkpt>
      <trkpt lat="47.67981" lon="-3.36995">
        <ele>-1.79</ele>
        <time>2015-10-10T15:23:39Z</time>
      </trkpt>
      <trkpt lat="47.67984" lon="-3.36995">
        <ele>-1.79</ele>
        <time>2015-10-10T15:23:40Z</time>
      </trkpt>
      <trkpt lat="47.67986" lon="-3.36995">
        <ele>-1.79</ele>
        <time>2015-10-10T15:23:41Z</time>
      </trkpt>
      <trkpt lat="47.67989" lon="-3.36995">
        <ele>-1.79</ele>
        <time>2015-10-10T15:23:42Z</time>
      </trkpt>
      <trkpt lat="47.67992" lon="-3.36995">
        <ele>-1.79</ele>
        <time>2015-10-10T15:23:43Z</time>
      </trkpt>
      <trkpt lat="47.67994" lon="-3.36995">
        <ele>-1.79</ele>
        <time>2015-10-10T15:23:44Z</time>
      </trkpt>
      <trkpt lat="47.67997" lon="-3.36996">
        <ele>-1.79</ele>
        <time>2015-10-10T15:23:45Z</time>
      </trkpt>
      <trkpt lat="47.67999" lon="-3.36996">
        <ele>-1.79</ele>
        <time>2015-10-10T15:23:46Z</time>
      </trkpt>
      <trkpt lat="47.68002" lon="-3.36996">
        <ele>-1.79</ele>
        <time>2015-10-10T15:23:47Z</time>
      </trkpt>
      <trkpt lat="47.68004" lon="-3.36996">
        <ele>-1.79</ele>
        <time>2015-10-10T15:23:48Z</time>
      </trkpt>
      <trkpt lat="47.68007" lon="-3.36996">
        <ele>-2.27</ele>
        <time>2015-10-10T15:23:49Z</time>
      </trkpt>
      <trkpt lat="47.6801" lon="-3.36996">
        <ele>-2.27</ele>
        <time>2015-10-10T15:23:50Z</time>
      </trkpt>
      <trkpt lat="47.68012" lon="-3.36996">
        <ele>-2.27</ele>
        <time>2015-10-10T15:23:51Z</time>
      </trkpt>
      <trkpt lat="47.68015" lon="-3.36996">
        <ele>-2.27</ele>
        <time>2015-10-10T15:23:52Z</time>
      </trkpt>
      <trkpt lat="47.68017" lon="-3.36995">
        <ele>-2.27</ele>
        <time>2015-10-10T15:23:53Z</time>
      </trkpt>
      <trkpt lat="47.6802" lon="-3.36995">
        <ele>-2.27</ele>
        <time>2015-10-10T15:23:54Z</time>
      </trkpt>
      <trkpt lat="47.68022" lon="-3.36995">
        <ele>-2.27</ele>
        <time>2015-10-10T15:23:55Z</time>
      </trkpt>
      <trkpt lat="47.68025" lon="-3.36995">
        <ele>-2.27</ele>
        <time>2015-10-10T15:23:56Z</time>
      </trkpt>
      <trkpt lat="47.68028" lon="-3.36995">
        <ele>-2.27</ele>
        <time>2015-10-10T15:23:57Z</time>
      </trkpt>
      <trkpt lat="47.6803" lon="-3.36995">
        <ele>-2.27</ele>
        <time>2015-10-10T15:23:58Z</time>
      </trkpt>
      <trkpt lat="47.68033" lon="-3.36995">
        <ele>-2.27</ele>
        <time>2015-10-10T15:23:59Z</time>
      </trkpt>
      <trkpt lat="47.68036" lon="-3.36995">
        <ele>-2.27</ele>
        <time>2015-10-10T15:24:00Z</time>
      </trkpt>
      <trkpt lat="47.68038" lon="-3.36995">
        <ele>-2.27</ele>
        <time>2015-10-10T15:24:01Z</time>
      </trkpt>
      <trkpt lat="47.68041" lon="-3.36994">
        <ele>-0.82</ele>
        <time>2015-10-10T15:24:02Z</time>
      </trkpt>
      <trkpt lat="47.68044" lon="-3.36994">
        <ele>-0.82</ele>
        <time>2015-10-10T15:24:03Z</time>
      </trkpt>
      <trkpt lat="47.68047" lon="-3.36994">
        <ele>-0.82</ele>
        <time>2015-10-10T15:24:04Z</time>
      </trkpt>
      <trkpt lat="47.68049" lon="-3.36994">
        <ele>-0.82</ele>
        <time>2015-10-10T15:24:05Z</time>
      </trkpt>
      <trkpt lat="47.68052" lon="-3.36994">
        <ele>-2.27</ele>
        <time>2015-10-10T15:24:06Z</time>
      </trkpt>
      <trkpt lat="47.68054" lon="-3.36995">
        <ele>-2.27</ele>
        <time>2015-10-10T15:24:07Z</time>
      </trkpt>
      <trkpt lat="47.68057" lon="-3.36995">
        <ele>-2.27</ele>
        <time>2015-10-10T15:24:08Z</time>
      </trkpt>
      <trkpt lat="47.6806" lon="-3.36995">
        <ele>-2.27</ele>
        <time>2015-10-10T15:24:09Z</time>
      </trkpt>
      <trkpt lat="47.68062" lon="-3.36995">
        <ele>-2.27</ele>
        <time>2015-10-10T15:24:10Z</time>
      </trkpt>
      <trkpt lat="47.68064" lon="-3.36995">
        <ele>-2.27</ele>
        <time>2015-10-10T15:24:11Z</time>
      </trkpt>
      <trkpt lat="47.68066" lon="-3.36996">
        <ele>-2.27</ele>
        <time>2015-10-10T15:24:12Z</time>
      </trkpt>
      <trkpt lat="47.68069" lon="-3.36997">
        <ele>-2.27</ele>
        <time>2015-10-10T15:24:13Z</time>
      </trkpt>
      <trkpt lat="47.68071" lon="-3.36997">
        <ele>-2.27</ele>
        <time>2015-10-10T15:24:14Z</time>
      </trkpt>
      <trkpt lat="47.68074" lon="-3.36997">
        <ele>-2.27</ele>
        <time>2015-10-10T15:24:15Z</time>
      </trkpt>
      <trkpt lat="47.68077" lon="-3.36998">
        <ele>-2.27</ele>
        <time>2015-10-10T15:24:16Z</time>
      </trkpt>
      <trkpt lat="47.68079" lon="-3.36998">
        <ele>-2.27</ele>
        <time>2015-10-10T15:24:17Z</time>
      </trkpt>
      <trkpt lat="47.68082" lon="-3.36999">
        <ele>-2.27</ele>
        <time>2015-10-10T15:24:18Z</time>
      </trkpt>
      <trkpt lat="47.68084" lon="-3.36999">
        <ele>-2.27</ele>
        <time>2015-10-10T15:24:19Z</time>
      </trkpt>
      <trkpt lat="47.68087" lon="-3.37">
        <ele>-2.27</ele>
        <time>2015-10-10T15:24:20Z</time>
      </trkpt>
      <trkpt lat="47.68089" lon="-3.36999">
        <ele>-2.27</ele>
        <time>2015-10-10T15:24:21Z</time>
      </trkpt>
      <trkpt lat="47.68092" lon="-3.36999">
        <ele>-2.27</ele>
        <time>2015-10-10T15:24:22Z</time>
      </trkpt>
      <trkpt lat="47.68094" lon="-3.36998">
        <ele>-2.27</ele>
        <time>2015-10-10T15:24:23Z</time>
      </trkpt>
      <trkpt lat="47.68097" lon="-3.36998">
        <ele>-0.82</ele>
        <time>2015-10-10T15:24:24Z</time>
      </trkpt>
      <trkpt lat="47.681" lon="-3.36998">
        <ele>-0.82</ele>
        <time>2015-10-10T15:24:25Z</time>
      </trkpt>
      <trkpt lat="47.68102" lon="-3.36998">
        <ele>-0.82</ele>
        <time>2015-10-10T15:24:26Z</time>
      </trkpt>
      <trkpt lat="47.68105" lon="-3.36998">
        <ele>-0.82</ele>
        <time>2015-10-10T15:24:27Z</time>
      </trkpt>
      <trkpt lat="47.68108" lon="-3.36998">
        <ele>-0.82</ele>
        <time>2015-10-10T15:24:28Z</time>
      </trkpt>
      <trkpt lat="47.6811" lon="-3.36998">
        <ele>-0.82</ele>
        <time>2015-10-10T15:24:29Z</time>
      </trkpt>
      <trkpt lat="47.68113" lon="-3.36998">
        <ele>-0.82</ele>
        <time>2015-10-10T15:24:30Z</time>
      </trkpt>
      <trkpt lat="47.68115" lon="-3.36998">
        <ele>-0.82</ele>
        <time>2015-10-10T15:24:31Z</time>
      </trkpt>
      <trkpt lat="47.68118" lon="-3.36998">
        <ele>-2.27</ele>
        <time>2015-10-10T15:24:32Z</time>
      </trkpt>
      <trkpt lat="47.68121" lon="-3.36998">
        <ele>-2.27</ele>
        <time>2015-10-10T15:24:33Z</time>
      </trkpt>
      <trkpt lat="47.68123" lon="-3.36998">
        <ele>-2.27</ele>
        <time>2015-10-10T15:24:34Z</time>
      </trkpt>
      <trkpt lat="47.68125" lon="-3.36999">
        <ele>-2.27</ele>
        <time>2015-10-10T15:24:35Z</time>
      </trkpt>
      <trkpt lat="47.68127" lon="-3.36999">
        <ele>-2.27</ele>
        <time>2015-10-10T15:24:36Z</time>
      </trkpt>
      <trkpt lat="47.6813" lon="-3.36999">
        <ele>-2.27</ele>
        <time>2015-10-10T15:24:37Z</time>
      </trkpt>
      <trkpt lat="47.68132" lon="-3.36999">
        <ele>-2.27</ele>
        <time>2015-10-10T15:24:38Z</time>
      </trkpt>
      <trkpt lat="47.68135" lon="-3.36999">
        <ele>-2.27</ele>
        <time>2015-10-10T15:24:39Z</time>
      </trkpt>
      <trkpt lat="47.68137" lon="-3.36999">
        <ele>-2.27</ele>
        <time>2015-10-10T15:24:40Z</time>
      </trkpt>
      <trkpt lat="47.68139" lon="-3.36999">
        <ele>-2.27</ele>
        <time>2015-10-10T15:24:41Z</time>
      </trkpt>
      <trkpt lat="47.68142" lon="-3.36999">
        <ele>-2.27</ele>
        <time>2015-10-10T15:24:42Z</time>
      </trkpt>
      <trkpt lat="47.68144" lon="-3.36999">
        <ele>-2.27</ele>
        <time>2015-10-10T15:24:43Z</time>
      </trkpt>
      <trkpt lat="47.68147" lon="-3.36999">
        <ele>-2.27</ele>
        <time>2015-10-10T15:24:44Z</time>
      </trkpt>
      <trkpt lat="47.6815" lon="-3.36999">
        <ele>-2.27</ele>
        <time>2015-10-10T15:24:45Z</time>
      </trkpt>
      <trkpt lat="47.68152" lon="-3.36999">
        <ele>-2.27</ele>
        <time>2015-10-10T15:24:46Z</time>
      </trkpt>
      <trkpt lat="47.68155" lon="-3.36999">
        <ele>-2.27</ele>
        <time>2015-10-10T15:24:47Z</time>
      </trkpt>
      <trkpt lat="47.68158" lon="-3.36999">
        <ele>-0.82</ele>
        <time>2015-10-10T15:24:48Z</time>
      </trkpt>
      <trkpt lat="47.6816" lon="-3.36999">
        <ele>-0.82</ele>
        <time>2015-10-10T15:24:49Z</time>
      </trkpt>
      <trkpt lat="47.68163" lon="-3.36999">
        <ele>-0.82</ele>
        <time>2015-10-10T15:24:50Z</time>
      </trkpt>
      <trkpt lat="47.68166" lon="-3.37">
        <ele>-0.82</ele>
        <time>2015-10-10T15:24:51Z</time>
      </trkpt>
      <trkpt lat="47.68168" lon="-3.37">
        <ele>-0.82</ele>
        <time>2015-10-10T15:24:52Z</time>
      </trkpt>
      <trkpt lat="47.68171" lon="-3.36999">
        <ele>-0.82</ele>
        <time>2015-10-10T15:24:53Z</time>
      </trkpt>
      <trkpt lat="47.68174" lon="-3.36999">
        <ele>-0.82</ele>
        <time>2015-10-10T15:24:54Z</time>
      </trkpt>
      <trkpt lat="47.68176" lon="-3.36999">
        <ele>-0.82</ele>
        <time>2015-10-10T15:24:55Z</time>
      </trkpt>
      <trkpt lat="47.68179" lon="-3.36999">
        <ele>-0.82</ele>
        <time>2015-10-10T15:24:56Z</time>
      </trkpt>
      <trkpt lat="47.68182" lon="-3.36999">
        <ele>-0.82</ele>
        <time>2015-10-10T15:24:57Z</time>
      </trkpt>
      <trkpt lat="47.68184" lon="-3.36999">
        <ele>-0.82</ele>
        <time>2015-10-10T15:24:58Z</time>
      </trkpt>
      <trkpt lat="47.68186" lon="-3.36999">
        <ele>-1.79</ele>
        <time>2015-10-10T15:24:59Z</time>
      </trkpt>
      <trkpt lat="47.68189" lon="-3.37">
        <ele>-1.79</ele>
        <time>2015-10-10T15:25:00Z</time>
      </trkpt>
      <trkpt lat="47.68191" lon="-3.36999">
        <ele>-1.79</ele>
        <time>2015-10-10T15:25:01Z</time>
      </trkpt>
      <trkpt lat="47.68194" lon="-3.36999">
        <ele>-1.79</ele>
        <time>2015-10-10T15:25:02Z</time>
      </trkpt>
      <trkpt lat="47.68196" lon="-3.36999">
        <ele>-1.79</ele>
        <time>2015-10-10T15:25:03Z</time>
      </trkpt>
      <trkpt lat="47.68198" lon="-3.36999">
        <ele>-1.79</ele>
        <time>2015-10-10T15:25:04Z</time>
      </trkpt>
      <trkpt lat="47.68201" lon="-3.37">
        <ele>-1.79</ele>
        <time>2015-10-10T15:25:05Z</time>
      </trkpt>
      <trkpt lat="47.68203" lon="-3.37">
        <ele>-1.79</ele>
        <time>2015-10-10T15:25:06Z</time>
      </trkpt>
      <trkpt lat="47.68206" lon="-3.36999">
        <ele>-1.79</ele>
        <time>2015-10-10T15:25:07Z</time>
      </trkpt>
      <trkpt lat="47.68209" lon="-3.36999">
        <ele>-1.79</ele>
        <time>2015-10-10T15:25:08Z</time>
      </trkpt>
      <trkpt lat="47.68212" lon="-3.36999">
        <ele>-1.79</ele>
        <time>2015-10-10T15:25:09Z</time>
      </trkpt>
      <trkpt lat="47.68215" lon="-3.37">
        <ele>-1.79</ele>
        <time>2015-10-10T15:25:10Z</time>
      </trkpt>
      <trkpt lat="47.68217" lon="-3.37">
        <ele>-1.79</ele>
        <time>2015-10-10T15:25:11Z</time>
      </trkpt>
      <trkpt lat="47.6822" lon="-3.36999">
        <ele>-0.82</ele>
        <time>2015-10-10T15:25:12Z</time>
      </trkpt>
      <trkpt lat="47.68223" lon="-3.36998">
        <ele>-0.82</ele>
        <time>2015-10-10T15:25:13Z</time>
      </trkpt>
      <trkpt lat="47.68226" lon="-3.36998">
        <ele>-0.82</ele>
        <time>2015-10-10T15:25:14Z</time>
      </trkpt>
      <trkpt lat="47.68229" lon="-3.36998">
        <ele>-0.82</ele>
        <time>2015-10-10T15:25:15Z</time>
      </trkpt>
      <trkpt lat="47.68232" lon="-3.36998">
        <ele>-0.82</ele>
        <time>2015-10-10T15:25:16Z</time>
      </trkpt>
      <trkpt lat="47.68234" lon="-3.36998">
        <ele>-0.82</ele>
        <time>2015-10-10T15:25:17Z</time>
      </trkpt>
      <trkpt lat="47.68237" lon="-3.36998">
        <ele>-1.79</ele>
        <time>2015-10-10T15:25:18Z</time>
      </trkpt>
      <trkpt lat="47.68239" lon="-3.36999">
        <ele>-1.79</ele>
        <time>2015-10-10T15:25:19Z</time>
      </trkpt>
      <trkpt lat="47.68242" lon="-3.36999">
        <ele>-1.79</ele>
        <time>2015-10-10T15:25:20Z</time>
      </trkpt>
      <trkpt lat="47.68244" lon="-3.36999">
        <ele>-1.79</ele>
        <time>2015-10-10T15:25:21Z</time>
      </trkpt>
      <trkpt lat="47.68247" lon="-3.36999">
        <ele>-1.79</ele>
        <time>2015-10-10T15:25:22Z</time>
      </trkpt>
      <trkpt lat="47.68249" lon="-3.37">
        <ele>-1.79</ele>
        <time>2015-10-10T15:25:23Z</time>
      </trkpt>
      <trkpt lat="47.68252" lon="-3.36999">
        <ele>-1.79</ele>
        <time>2015-10-10T15:25:24Z</time>
      </trkpt>
      <trkpt lat="47.68254" lon="-3.36999">
        <ele>-1.79</ele>
        <time>2015-10-10T15:25:25Z</time>
      </trkpt>
      <trkpt lat="47.68256" lon="-3.36999">
        <ele>-1.79</ele>
        <time>2015-10-10T15:25:26Z</time>
      </trkpt>
      <trkpt lat="47.68259" lon="-3.36999">
        <ele>-1.79</ele>
        <time>2015-10-10T15:25:27Z</time>
      </trkpt>
      <trkpt lat="47.68261" lon="-3.36999">
        <ele>-1.79</ele>
        <time>2015-10-10T15:25:28Z</time>
      </trkpt>
      <trkpt lat="47.68264" lon="-3.36998">
        <ele>-1.79</ele>
        <time>2015-10-10T15:25:29Z</time>
      </trkpt>
      <trkpt lat="47.68266" lon="-3.36998">
        <ele>-1.79</ele>
        <time>2015-10-10T15:25:30Z</time>
      </trkpt>
      <trkpt lat="47.68269" lon="-3.36998">
        <ele>-1.79</ele>
        <time>2015-10-10T15:25:31Z</time>
      </trkpt>
      <trkpt lat="47.68271" lon="-3.36998">
        <ele>-1.79</ele>
        <time>2015-10-10T15:25:32Z</time>
      </trkpt>
      <trkpt lat="47.68274" lon="-3.36999">
        <ele>-1.79</ele>
        <time>2015-10-10T15:25:33Z</time>
      </trkpt>
      <trkpt lat="47.68277" lon="-3.36998">
        <ele>-1.79</ele>
        <time>2015-10-10T15:25:34Z</time>
      </trkpt>
      <trkpt lat="47.6828" lon="-3.36999">
        <ele>-1.79</ele>
        <time>2015-10-10T15:25:35Z</time>
      </trkpt>
      <trkpt lat="47.68283" lon="-3.36999">
        <ele>-1.79</ele>
        <time>2015-10-10T15:25:36Z</time>
      </trkpt>
      <trkpt lat="47.68286" lon="-3.36999">
        <ele>-1.79</ele>
        <time>2015-10-10T15:25:37Z</time>
      </trkpt>
      <trkpt lat="47.68288" lon="-3.37">
        <ele>-1.79</ele>
        <time>2015-10-10T15:25:38Z</time>
      </trkpt>
      <trkpt lat="47.68291" lon="-3.37">
        <ele>-1.79</ele>
        <time>2015-10-10T15:25:39Z</time>
      </trkpt>
      <trkpt lat="47.68294" lon="-3.36999">
        <ele>-1.79</ele>
        <time>2015-10-10T15:25:40Z</time>
      </trkpt>
      <trkpt lat="47.68296" lon="-3.36999">
        <ele>-1.79</ele>
        <time>2015-10-10T15:25:41Z</time>
      </trkpt>
      <trkpt lat="47.68299" lon="-3.36999">
        <ele>-1.79</ele>
        <time>2015-10-10T15:25:42Z</time>
      </trkpt>
      <trkpt lat="47.68301" lon="-3.36999">
        <ele>-1.79</ele>
        <time>2015-10-10T15:25:43Z</time>
      </trkpt>
      <trkpt lat="47.68304" lon="-3.36999">
        <ele>-2.27</ele>
        <time>2015-10-10T15:25:44Z</time>
      </trkpt>
      <trkpt lat="47.68306" lon="-3.37">
        <ele>-2.27</ele>
        <time>2015-10-10T15:25:45Z</time>
      </trkpt>
      <trkpt lat="47.68308" lon="-3.37">
        <ele>-2.27</ele>
        <time>2015-10-10T15:25:46Z</time>
      </trkpt>
      <trkpt lat="47.6831" lon="-3.37">
        <ele>-2.27</ele>
        <time>2015-10-10T15:25:47Z</time>
      </trkpt>
      <trkpt lat="47.68312" lon="-3.37">
        <ele>-2.27</ele>
        <time>2015-10-10T15:25:48Z</time>
      </trkpt>
      <trkpt lat="47.68315" lon="-3.37">
        <ele>-2.27</ele>
        <time>2015-10-10T15:25:49Z</time>
      </trkpt>
      <trkpt lat="47.68317" lon="-3.37">
        <ele>-2.27</ele>
        <time>2015-10-10T15:25:50Z</time>
      </trkpt>
      <trkpt lat="47.6832" lon="-3.36999">
        <ele>-2.27</ele>
        <time>2015-10-10T15:25:51Z</time>
      </trkpt>
      <trkpt lat="47.68322" lon="-3.36999">
        <ele>-2.27</ele>
        <time>2015-10-10T15:25:52Z</time>
      </trkpt>
      <trkpt lat="47.68325" lon="-3.36999">
        <ele>-2.27</ele>
        <time>2015-10-10T15:25:53Z</time>
      </trkpt>
      <trkpt lat="47.68327" lon="-3.36999">
        <ele>-2.27</ele>
        <time>2015-10-10T15:25:54Z</time>
      </trkpt>
      <trkpt lat="47.68329" lon="-3.36999">
        <ele>-2.27</ele>
        <time>2015-10-10T15:25:55Z</time>
      </trkpt>
      <trkpt lat="47.68332" lon="-3.37">
        <ele>-2.27</ele>
        <time>2015-10-10T15:25:56Z</time>
      </trkpt>
      <trkpt lat="47.68334" lon="-3.37">
        <ele>-2.27</ele>
        <time>2015-10-10T15:25:57Z</time>
      </trkpt>
      <trkpt lat="47.68337" lon="-3.37">
        <ele>-0.82</ele>
        <time>2015-10-10T15:25:58Z</time>
      </trkpt>
      <trkpt lat="47.6834" lon="-3.37001">
        <ele>-0.82</ele>
        <time>2015-10-10T15:25:59Z</time>
      </trkpt>
      <trkpt lat="47.68342" lon="-3.37001">
        <ele>-0.82</ele>
        <time>2015-10-10T15:26:00Z</time>
      </trkpt>
      <trkpt lat="47.68344" lon="-3.37001">
        <ele>-0.82</ele>
        <time>2015-10-10T15:26:01Z</time>
      </trkpt>
      <trkpt lat="47.68347" lon="-3.37001">
        <ele>-0.82</ele>
        <time>2015-10-10T15:26:02Z</time>
      </trkpt>
      <trkpt lat="47.68349" lon="-3.37002">
        <ele>-0.82</ele>
        <time>2015-10-10T15:26:03Z</time>
      </trkpt>
      <trkpt lat="47.68352" lon="-3.37002">
        <ele>-0.82</ele>
        <time>2015-10-10T15:26:04Z</time>
      </trkpt>
      <trkpt lat="47.68354" lon="-3.37002">
        <ele>-0.82</ele>
        <time>2015-10-10T15:26:05Z</time>
      </trkpt>
      <trkpt lat="47.68357" lon="-3.37002">
        <ele>-0.82</ele>
        <time>2015-10-10T15:26:06Z</time>
      </trkpt>
      <trkpt lat="47.68359" lon="-3.37002">
        <ele>-0.82</ele>
        <time>2015-10-10T15:26:07Z</time>
      </trkpt>
      <trkpt lat="47.68361" lon="-3.37002">
        <ele>-2.75</ele>
        <time>2015-10-10T15:26:08Z</time>
      </trkpt>
      <trkpt lat="47.68363" lon="-3.37002">
        <ele>-2.75</ele>
        <time>2015-10-10T15:26:09Z</time>
      </trkpt>
      <trkpt lat="47.68366" lon="-3.37001">
        <ele>-2.75</ele>
        <time>2015-10-10T15:26:10Z</time>
      </trkpt>
      <trkpt lat="47.68368" lon="-3.37001">
        <ele>-2.75</ele>
        <time>2015-10-10T15:26:11Z</time>
      </trkpt>
      <trkpt lat="47.6837" lon="-3.37">
        <ele>-2.75</ele>
        <time>2015-10-10T15:26:12Z</time>
      </trkpt>
      <trkpt lat="47.68373" lon="-3.37">
        <ele>-2.75</ele>
        <time>2015-10-10T15:26:13Z</time>
      </trkpt>
      <trkpt lat="47.68375" lon="-3.36999">
        <ele>-2.75</ele>
        <time>2015-10-10T15:26:14Z</time>
      </trkpt>
      <trkpt lat="47.68377" lon="-3.36999">
        <ele>-2.75</ele>
        <time>2015-10-10T15:26:15Z</time>
      </trkpt>
      <trkpt lat="47.6838" lon="-3.36998">
        <ele>-2.75</ele>
        <time>2015-10-10T15:26:16Z</time>
      </trkpt>
      <trkpt lat="47.68382" lon="-3.36998">
        <ele>-2.75</ele>
        <time>2015-10-10T15:26:17Z</time>
      </trkpt>
      <trkpt lat="47.68384" lon="-3.36998">
        <ele>-2.75</ele>
        <time>2015-10-10T15:26:18Z</time>
      </trkpt>
      <trkpt lat="47.68387" lon="-3.36998">
        <ele>-2.75</ele>
        <time>2015-10-10T15:26:19Z</time>
      </trkpt>
      <trkpt lat="47.68389" lon="-3.36998">
        <ele>-2.75</ele>
        <time>2015-10-10T15:26:20Z</time>
      </trkpt>
      <trkpt lat="47.68392" lon="-3.36998">
        <ele>-2.75</ele>
        <time>2015-10-10T15:26:21Z</time>
      </trkpt>
      <trkpt lat="47.68394" lon="-3.36999">
        <ele>-2.75</ele>
        <time>2015-10-10T15:26:22Z</time>
      </trkpt>
      <trkpt lat="47.68397" lon="-3.36999">
        <ele>-2.75</ele>
        <time>2015-10-10T15:26:23Z</time>
      </trkpt>
      <trkpt lat="47.68399" lon="-3.36999">
        <ele>-2.75</ele>
        <time>2015-10-10T15:26:24Z</time>
      </trkpt>
      <trkpt lat="47.68402" lon="-3.36999">
        <ele>-2.75</ele>
        <time>2015-10-10T15:26:25Z</time>
      </trkpt>
      <trkpt lat="47.68404" lon="-3.36999">
        <ele>-2.75</ele>
        <time>2015-10-10T15:26:26Z</time>
      </trkpt>
      <trkpt lat="47.68407" lon="-3.36999">
        <ele>-1.3</ele>
        <time>2015-10-10T15:26:27Z</time>
      </trkpt>
      <trkpt lat="47.68409" lon="-3.37">
        <ele>-1.3</ele>
        <time>2015-10-10T15:26:28Z</time>
      </trkpt>
      <trkpt lat="47.68412" lon="-3.36999">
        <ele>-1.3</ele>
        <time>2015-10-10T15:26:29Z</time>
      </trkpt>
      <trkpt lat="47.68414" lon="-3.36999">
        <ele>-1.3</ele>
        <time>2015-10-10T15:26:30Z</time>
      </trkpt>
      <trkpt lat="47.68416" lon="-3.36999">
        <ele>-1.3</ele>
        <time>2015-10-10T15:26:31Z</time>
      </trkpt>
      <trkpt lat="47.68419" lon="-3.36999">
        <ele>-1.3</ele>
        <time>2015-10-10T15:26:32Z</time>
      </trkpt>
      <trkpt lat="47.68421" lon="-3.36999">
        <ele>-1.3</ele>
        <time>2015-10-10T15:26:33Z</time>
      </trkpt>
      <trkpt lat="47.68423" lon="-3.36998">
        <ele>-1.3</ele>
        <time>2015-10-10T15:26:34Z</time>
      </trkpt>
      <trkpt lat="47.68425" lon="-3.36998">
        <ele>-1.3</ele>
        <time>2015-10-10T15:26:35Z</time>
      </trkpt>
      <trkpt lat="47.68428" lon="-3.36998">
        <ele>-1.3</ele>
        <time>2015-10-10T15:26:36Z</time>
      </trkpt>
      <trkpt lat="47.6843" lon="-3.36999">
        <ele>-1.3</ele>
        <time>2015-10-10T15:26:37Z</time>
      </trkpt>
      <trkpt lat="47.68432" lon="-3.36998">
        <ele>-1.3</ele>
        <time>2015-10-10T15:26:38Z</time>
      </trkpt>
      <trkpt lat="47.68434" lon="-3.36999">
        <ele>-1.3</ele>
        <time>2015-10-10T15:26:39Z</time>
      </trkpt>
      <trkpt lat="47.68437" lon="-3.36999">
        <ele>-1.3</ele>
        <time>2015-10-10T15:26:40Z</time>
      </trkpt>
      <trkpt lat="47.68439" lon="-3.36999">
        <ele>-1.3</ele>
        <time>2015-10-10T15:26:41Z</time>
      </trkpt>
      <trkpt lat="47.68442" lon="-3.36999">
        <ele>-1.3</ele>
        <time>2015-10-10T15:26:42Z</time>
      </trkpt>
      <trkpt lat="47.68444" lon="-3.36998">
        <ele>-1.3</ele>
        <time>2015-10-10T15:26:43Z</time>
      </trkpt>
      <trkpt lat="47.68446" lon="-3.36998">
        <ele>-1.3</ele>
        <time>2015-10-10T15:26:44Z</time>
      </trkpt>
      <trkpt lat="47.68449" lon="-3.36998">
        <ele>-1.3</ele>
        <time>2015-10-10T15:26:45Z</time>
      </trkpt>
      <trkpt lat="47.68451" lon="-3.36998">
        <ele>-1.3</ele>
        <time>2015-10-10T15:26:46Z</time>
      </trkpt>
      <trkpt lat="47.68454" lon="-3.36998">
        <ele>-1.3</ele>
        <time>2015-10-10T15:26:47Z</time>
      </trkpt>
      <trkpt lat="47.68457" lon="-3.36998">
        <ele>-1.3</ele>
        <time>2015-10-10T15:26:48Z</time>
      </trkpt>
      <trkpt lat="47.68459" lon="-3.36998">
        <ele>-1.3</ele>
        <time>2015-10-10T15:26:49Z</time>
      </trkpt>
      <trkpt lat="47.68461" lon="-3.36998">
        <ele>-2.75</ele>
        <time>2015-10-10T15:26:50Z</time>
      </trkpt>
      <trkpt lat="47.68463" lon="-3.36999">
        <ele>-2.75</ele>
        <time>2015-10-10T15:26:51Z</time>
      </trkpt>
      <trkpt lat="47.68466" lon="-3.36999">
        <ele>-2.75</ele>
        <time>2015-10-10T15:26:52Z</time>
      </trkpt>
      <trkpt lat="47.68468" lon="-3.36999">
        <ele>-2.75</ele>
        <time>2015-10-10T15:26:53Z</time>
      </trkpt>
      <trkpt lat="47.6847" lon="-3.36999">
        <ele>-2.75</ele>
        <time>2015-10-10T15:26:54Z</time>
      </trkpt>
      <trkpt lat="47.68473" lon="-3.36999">
        <ele>-2.75</ele>
        <time>2015-10-10T15:26:55Z</time>
      </trkpt>
      <trkpt lat="47.68475" lon="-3.36999">
        <ele>-2.75</ele>
        <time>2015-10-10T15:26:56Z</time>
      </trkpt>
      <trkpt lat="47.68477" lon="-3.36998">
        <ele>-2.75</ele>
        <time>2015-10-10T15:26:57Z</time>
      </trkpt>
      <trkpt lat="47.68479" lon="-3.36999">
        <ele>-2.75</ele>
        <time>2015-10-10T15:26:58Z</time>
      </trkpt>
      <trkpt lat="47.68482" lon="-3.36999">
        <ele>-2.75</ele>
        <time>2015-10-10T15:26:59Z</time>
      </trkpt>
      <trkpt lat="47.68484" lon="-3.36999">
        <ele>-2.75</ele>
        <time>2015-10-10T15:27:00Z</time>
      </trkpt>
      <trkpt lat="47.68487" lon="-3.36998">
        <ele>-2.75</ele>
        <time>2015-10-10T15:27:01Z</time>
      </trkpt>
      <trkpt lat="47.68489" lon="-3.36998">
        <ele>-2.75</ele>
        <time>2015-10-10T15:27:02Z</time>
      </trkpt>
      <trkpt lat="47.68492" lon="-3.36998">
        <ele>-2.75</ele>
        <time>2015-10-10T15:27:03Z</time>
      </trkpt>
      <trkpt lat="47.68494" lon="-3.36998">
        <ele>-2.75</ele>
        <time>2015-10-10T15:27:04Z</time>
      </trkpt>
      <trkpt lat="47.68497" lon="-3.36998">
        <ele>-2.75</ele>
        <time>2015-10-10T15:27:05Z</time>
      </trkpt>
      <trkpt lat="47.68499" lon="-3.36998">
        <ele>-2.75</ele>
        <time>2015-10-10T15:27:06Z</time>
      </trkpt>
      <trkpt lat="47.68502" lon="-3.36998">
        <ele>-2.75</ele>
        <time>2015-10-10T15:27:07Z</time>
      </trkpt>
      <trkpt lat="47.68505" lon="-3.36997">
        <ele>-2.75</ele>
        <time>2015-10-10T15:27:08Z</time>
      </trkpt>
      <trkpt lat="47.68507" lon="-3.36997">
        <ele>-2.75</ele>
        <time>2015-10-10T15:27:09Z</time>
      </trkpt>
      <trkpt lat="47.68509" lon="-3.36997">
        <ele>-2.75</ele>
        <time>2015-10-10T15:27:10Z</time>
      </trkpt>
      <trkpt lat="47.68512" lon="-3.36997">
        <ele>-2.75</ele>
        <time>2015-10-10T15:27:11Z</time>
      </trkpt>
      <trkpt lat="47.68514" lon="-3.36997">
        <ele>-2.75</ele>
        <time>2015-10-10T15:27:12Z</time>
      </trkpt>
      <trkpt lat="47.68517" lon="-3.36997">
        <ele>-2.75</ele>
        <time>2015-10-10T15:27:13Z</time>
      </trkpt>
      <trkpt lat="47.68519" lon="-3.36996">
        <ele>-2.75</ele>
        <time>2015-10-10T15:27:14Z</time>
      </trkpt>
      <trkpt lat="47.68521" lon="-3.36996">
        <ele>-2.75</ele>
        <time>2015-10-10T15:27:15Z</time>
      </trkpt>
      <trkpt lat="47.68524" lon="-3.36996">
        <ele>-2.75</ele>
        <time>2015-10-10T15:27:16Z</time>
      </trkpt>
      <trkpt lat="47.68526" lon="-3.36996">
        <ele>-2.75</ele>
        <time>2015-10-10T15:27:17Z</time>
      </trkpt>
      <trkpt lat="47.68529" lon="-3.36996">
        <ele>-2.75</ele>
        <time>2015-10-10T15:27:18Z</time>
      </trkpt>
      <trkpt lat="47.68532" lon="-3.36996">
        <ele>-2.75</ele>
        <time>2015-10-10T15:27:19Z</time>
      </trkpt>
      <trkpt lat="47.68534" lon="-3.36996">
        <ele>-2.75</ele>
        <time>2015-10-10T15:27:20Z</time>
      </trkpt>
      <trkpt lat="47.68536" lon="-3.36996">
        <ele>-2.75</ele>
        <time>2015-10-10T15:27:21Z</time>
      </trkpt>
      <trkpt lat="47.68539" lon="-3.36996">
        <ele>-2.75</ele>
        <time>2015-10-10T15:27:22Z</time>
      </trkpt>
      <trkpt lat="47.68542" lon="-3.36997">
        <ele>-2.75</ele>
        <time>2015-10-10T15:27:23Z</time>
      </trkpt>
      <trkpt lat="47.68544" lon="-3.36996">
        <ele>-2.75</ele>
        <time>2015-10-10T15:27:24Z</time>
      </trkpt>
      <trkpt lat="47.68547" lon="-3.36996">
        <ele>-2.75</ele>
        <time>2015-10-10T15:27:25Z</time>
      </trkpt>
      <trkpt lat="47.68549" lon="-3.36995">
        <ele>-2.75</ele>
        <time>2015-10-10T15:27:26Z</time>
      </trkpt>
      <trkpt lat="47.68552" lon="-3.36994">
        <ele>-2.75</ele>
        <time>2015-10-10T15:27:27Z</time>
      </trkpt>
      <trkpt lat="47.68555" lon="-3.36994">
        <ele>-2.75</ele>
        <time>2015-10-10T15:27:28Z</time>
      </trkpt>
      <trkpt lat="47.68557" lon="-3.36994">
        <ele>-1.3</ele>
        <time>2015-10-10T15:27:29Z</time>
      </trkpt>
      <trkpt lat="47.6856" lon="-3.36994">
        <ele>-1.3</ele>
        <time>2015-10-10T15:27:30Z</time>
      </trkpt>
      <trkpt lat="47.68563" lon="-3.36994">
        <ele>-1.3</ele>
        <time>2015-10-10T15:27:31Z</time>
      </trkpt>
      <trkpt lat="47.68565" lon="-3.36993">
        <ele>-1.3</ele>
        <time>2015-10-10T15:27:32Z</time>
      </trkpt>
      <trkpt lat="47.68568" lon="-3.36994">
        <ele>-1.3</ele>
        <time>2015-10-10T15:27:33Z</time>
      </trkpt>
      <trkpt lat="47.6857" lon="-3.36994">
        <ele>-1.3</ele>
        <time>2015-10-10T15:27:34Z</time>
      </trkpt>
      <trkpt lat="47.68573" lon="-3.36994">
        <ele>-1.3</ele>
        <time>2015-10-10T15:27:35Z</time>
      </trkpt>
      <trkpt lat="47.68575" lon="-3.36993">
        <ele>-1.3</ele>
        <time>2015-10-10T15:27:36Z</time>
      </trkpt>
      <trkpt lat="47.68578" lon="-3.36993">
        <ele>-1.3</ele>
        <time>2015-10-10T15:27:37Z</time>
      </trkpt>
      <trkpt lat="47.6858" lon="-3.36994">
        <ele>-1.3</ele>
        <time>2015-10-10T15:27:38Z</time>
      </trkpt>
      <trkpt lat="47.68583" lon="-3.36994">
        <ele>-1.3</ele>
        <time>2015-10-10T15:27:39Z</time>
      </trkpt>
      <trkpt lat="47.68585" lon="-3.36994">
        <ele>-1.3</ele>
        <time>2015-10-10T15:27:40Z</time>
      </trkpt>
      <trkpt lat="47.68588" lon="-3.36993">
        <ele>-1.3</ele>
        <time>2015-10-10T15:27:41Z</time>
      </trkpt>
      <trkpt lat="47.6859" lon="-3.36993">
        <ele>-1.3</ele>
        <time>2015-10-10T15:27:42Z</time>
      </trkpt>
      <trkpt lat="47.68593" lon="-3.36992">
        <ele>-1.3</ele>
        <time>2015-10-10T15:27:43Z</time>
      </trkpt>
      <trkpt lat="47.68595" lon="-3.36993">
        <ele>-1.3</ele>
        <time>2015-10-10T15:27:44Z</time>
      </trkpt>
      <trkpt lat="47.68598" lon="-3.36993">
        <ele>-1.3</ele>
        <time>2015-10-10T15:27:45Z</time>
      </trkpt>
      <trkpt lat="47.686" lon="-3.36993">
        <ele>-1.3</ele>
        <time>2015-10-10T15:27:46Z</time>
      </trkpt>
      <trkpt lat="47.68603" lon="-3.36993">
        <ele>-1.3</ele>
        <time>2015-10-10T15:27:47Z</time>
      </trkpt>
      <trkpt lat="47.68605" lon="-3.36993">
        <ele>-1.3</ele>
        <time>2015-10-10T15:27:48Z</time>
      </trkpt>
      <trkpt lat="47.68607" lon="-3.36994">
        <ele>-1.3</ele>
        <time>2015-10-10T15:27:49Z</time>
      </trkpt>
      <trkpt lat="47.6861" lon="-3.36994">
        <ele>-1.3</ele>
        <time>2015-10-10T15:27:50Z</time>
      </trkpt>
      <trkpt lat="47.68613" lon="-3.36994">
        <ele>-1.3</ele>
        <time>2015-10-10T15:27:51Z</time>
      </trkpt>
      <trkpt lat="47.68615" lon="-3.36994">
        <ele>-1.3</ele>
        <time>2015-10-10T15:27:52Z</time>
      </trkpt>
      <trkpt lat="47.68617" lon="-3.36994">
        <ele>-1.3</ele>
        <time>2015-10-10T15:27:53Z</time>
      </trkpt>
      <trkpt lat="47.6862" lon="-3.36994">
        <ele>-0.82</ele>
        <time>2015-10-10T15:27:54Z</time>
      </trkpt>
      <trkpt lat="47.68623" lon="-3.36994">
        <ele>-0.82</ele>
        <time>2015-10-10T15:27:55Z</time>
      </trkpt>
      <trkpt lat="47.68625" lon="-3.36993">
        <ele>-0.82</ele>
        <time>2015-10-10T15:27:56Z</time>
      </trkpt>
      <trkpt lat="47.68628" lon="-3.36993">
        <ele>-0.82</ele>
        <time>2015-10-10T15:27:57Z</time>
      </trkpt>
      <trkpt lat="47.6863" lon="-3.36994">
        <ele>-0.82</ele>
        <time>2015-10-10T15:27:58Z</time>
      </trkpt>
      <trkpt lat="47.68633" lon="-3.36994">
        <ele>-0.82</ele>
        <time>2015-10-10T15:27:59Z</time>
      </trkpt>
      <trkpt lat="47.68635" lon="-3.36994">
        <ele>-0.82</ele>
        <time>2015-10-10T15:28:00Z</time>
      </trkpt>
      <trkpt lat="47.68637" lon="-3.36994">
        <ele>-0.82</ele>
        <time>2015-10-10T15:28:01Z</time>
      </trkpt>
      <trkpt lat="47.6864" lon="-3.36994">
        <ele>-0.82</ele>
        <time>2015-10-10T15:28:02Z</time>
      </trkpt>
      <trkpt lat="47.68642" lon="-3.36994">
        <ele>-0.82</ele>
        <time>2015-10-10T15:28:03Z</time>
      </trkpt>
      <trkpt lat="47.68644" lon="-3.36993">
        <ele>-0.82</ele>
        <time>2015-10-10T15:28:04Z</time>
      </trkpt>
      <trkpt lat="47.68647" lon="-3.36993">
        <ele>-0.82</ele>
        <time>2015-10-10T15:28:05Z</time>
      </trkpt>
      <trkpt lat="47.68649" lon="-3.36993">
        <ele>-0.82</ele>
        <time>2015-10-10T15:28:06Z</time>
      </trkpt>
      <trkpt lat="47.68652" lon="-3.36994">
        <ele>-0.82</ele>
        <time>2015-10-10T15:28:07Z</time>
      </trkpt>
      <trkpt lat="47.68654" lon="-3.36994">
        <ele>-0.82</ele>
        <time>2015-10-10T15:28:08Z</time>
      </trkpt>
      <trkpt lat="47.68657" lon="-3.36994">
        <ele>-0.82</ele>
        <time>2015-10-10T15:28:09Z</time>
      </trkpt>
      <trkpt lat="47.68659" lon="-3.36993">
        <ele>-0.82</ele>
        <time>2015-10-10T15:28:10Z</time>
      </trkpt>
      <trkpt lat="47.68661" lon="-3.36993">
        <ele>-0.82</ele>
        <time>2015-10-10T15:28:11Z</time>
      </trkpt>
      <trkpt lat="47.68664" lon="-3.36994">
        <ele>-0.82</ele>
        <time>2015-10-10T15:28:12Z</time>
      </trkpt>
      <trkpt lat="47.68666" lon="-3.36994">
        <ele>-0.82</ele>
        <time>2015-10-10T15:28:13Z</time>
      </trkpt>
      <trkpt lat="47.68669" lon="-3.36993">
        <ele>-0.82</ele>
        <time>2015-10-10T15:28:14Z</time>
      </trkpt>
      <trkpt lat="47.68671" lon="-3.36993">
        <ele>-0.82</ele>
        <time>2015-10-10T15:28:15Z</time>
      </trkpt>
      <trkpt lat="47.68674" lon="-3.36993">
        <ele>-0.82</ele>
        <time>2015-10-10T15:28:16Z</time>
      </trkpt>
      <trkpt lat="47.68676" lon="-3.36993">
        <ele>-0.82</ele>
        <time>2015-10-10T15:28:17Z</time>
      </trkpt>
      <trkpt lat="47.68678" lon="-3.36994">
        <ele>-0.82</ele>
        <time>2015-10-10T15:28:18Z</time>
      </trkpt>
      <trkpt lat="47.68681" lon="-3.36994">
        <ele>-0.82</ele>
        <time>2015-10-10T15:28:19Z</time>
      </trkpt>
      <trkpt lat="47.68683" lon="-3.36994">
        <ele>-0.82</ele>
        <time>2015-10-10T15:28:20Z</time>
      </trkpt>
      <trkpt lat="47.68685" lon="-3.36994">
        <ele>-0.82</ele>
        <time>2015-10-10T15:28:21Z</time>
      </trkpt>
      <trkpt lat="47.68687" lon="-3.36994">
        <ele>-0.82</ele>
        <time>2015-10-10T15:28:22Z</time>
      </trkpt>
      <trkpt lat="47.6869" lon="-3.36994">
        <ele>-0.82</ele>
        <time>2015-10-10T15:28:23Z</time>
      </trkpt>
      <trkpt lat="47.68692" lon="-3.36994">
        <ele>-0.82</ele>
        <time>2015-10-10T15:28:24Z</time>
      </trkpt>
      <trkpt lat="47.68694" lon="-3.36994">
        <ele>-0.82</ele>
        <time>2015-10-10T15:28:25Z</time>
      </trkpt>
      <trkpt lat="47.68697" lon="-3.36994">
        <ele>-0.82</ele>
        <time>2015-10-10T15:28:26Z</time>
      </trkpt>
      <trkpt lat="47.68699" lon="-3.36993">
        <ele>-0.82</ele>
        <time>2015-10-10T15:28:27Z</time>
      </trkpt>
      <trkpt lat="47.68701" lon="-3.36993">
        <ele>-0.82</ele>
        <time>2015-10-10T15:28:28Z</time>
      </trkpt>
      <trkpt lat="47.68704" lon="-3.36992">
        <ele>-0.82</ele>
        <time>2015-10-10T15:28:29Z</time>
      </trkpt>
      <trkpt lat="47.68706" lon="-3.36992">
        <ele>-0.82</ele>
        <time>2015-10-10T15:28:30Z</time>
      </trkpt>
      <trkpt lat="47.68709" lon="-3.36992">
        <ele>-0.82</ele>
        <time>2015-10-10T15:28:31Z</time>
      </trkpt>
      <trkpt lat="47.68711" lon="-3.36992">
        <ele>-0.82</ele>
        <time>2015-10-10T15:28:32Z</time>
      </trkpt>
      <trkpt lat="47.68714" lon="-3.36992">
        <ele>-0.82</ele>
        <time>2015-10-10T15:28:33Z</time>
      </trkpt>
      <trkpt lat="47.68716" lon="-3.36992">
        <ele>-0.82</ele>
        <time>2015-10-10T15:28:34Z</time>
      </trkpt>
      <trkpt lat="47.68719" lon="-3.36992">
        <ele>-0.82</ele>
        <time>2015-10-10T15:28:35Z</time>
      </trkpt>
      <trkpt lat="47.68722" lon="-3.36992">
        <ele>-0.82</ele>
        <time>2015-10-10T15:28:36Z</time>
      </trkpt>
      <trkpt lat="47.68724" lon="-3.36992">
        <ele>-0.82</ele>
        <time>2015-10-10T15:28:37Z</time>
      </trkpt>
      <trkpt lat="47.68727" lon="-3.36992">
        <ele>-0.82</ele>
        <time>2015-10-10T15:28:38Z</time>
      </trkpt>
      <trkpt lat="47.68729" lon="-3.36992">
        <ele>-0.82</ele>
        <time>2015-10-10T15:28:39Z</time>
      </trkpt>
      <trkpt lat="47.68732" lon="-3.36992">
        <ele>-0.82</ele>
        <time>2015-10-10T15:28:40Z</time>
      </trkpt>
      <trkpt lat="47.68734" lon="-3.36992">
        <ele>-0.82</ele>
        <time>2015-10-10T15:28:41Z</time>
      </trkpt>
      <trkpt lat="47.68737" lon="-3.36992">
        <ele>-0.82</ele>
        <time>2015-10-10T15:28:42Z</time>
      </trkpt>
      <trkpt lat="47.68739" lon="-3.36991">
        <ele>-0.82</ele>
        <time>2015-10-10T15:28:43Z</time>
      </trkpt>
      <trkpt lat="47.68742" lon="-3.36991">
        <ele>-0.82</ele>
        <time>2015-10-10T15:28:44Z</time>
      </trkpt>
      <trkpt lat="47.68744" lon="-3.36991">
        <ele>-0.82</ele>
        <time>2015-10-10T15:28:45Z</time>
      </trkpt>
      <trkpt lat="47.68747" lon="-3.36991">
        <ele>-0.82</ele>
        <time>2015-10-10T15:28:46Z</time>
      </trkpt>
      <trkpt lat="47.6875" lon="-3.36991">
        <ele>-0.82</ele>
        <time>2015-10-10T15:28:47Z</time>
      </trkpt>
      <trkpt lat="47.68752" lon="-3.3699">
        <ele>-0.82</ele>
        <time>2015-10-10T15:28:48Z</time>
      </trkpt>
      <trkpt lat="47.68755" lon="-3.36988">
        <ele>-0.82</ele>
        <time>2015-10-10T15:28:49Z</time>
      </trkpt>
      <trkpt lat="47.68757" lon="-3.36988">
        <ele>-0.82</ele>
        <time>2015-10-10T15:28:50Z</time>
      </trkpt>
      <trkpt lat="47.68759" lon="-3.36988">
        <ele>-0.82</ele>
        <time>2015-10-10T15:28:51Z</time>
      </trkpt>
      <trkpt lat="47.68762" lon="-3.36988">
        <ele>-0.82</ele>
        <time>2015-10-10T15:28:52Z</time>
      </trkpt>
      <trkpt lat="47.68765" lon="-3.36988">
        <ele>-0.82</ele>
        <time>2015-10-10T15:28:53Z</time>
      </trkpt>
      <trkpt lat="47.68767" lon="-3.36987">
        <ele>-0.82</ele>
        <time>2015-10-10T15:28:54Z</time>
      </trkpt>
      <trkpt lat="47.68769" lon="-3.36986">
        <ele>-0.82</ele>
        <time>2015-10-10T15:28:55Z</time>
      </trkpt>
      <trkpt lat="47.68772" lon="-3.36985">
        <ele>-0.82</ele>
        <time>2015-10-10T15:28:56Z</time>
      </trkpt>
      <trkpt lat="47.68774" lon="-3.36986">
        <ele>-0.82</ele>
        <time>2015-10-10T15:28:57Z</time>
      </trkpt>
      <trkpt lat="47.68777" lon="-3.36986">
        <ele>-0.34</ele>
        <time>2015-10-10T15:28:58Z</time>
      </trkpt>
      <trkpt lat="47.6878" lon="-3.36986">
        <ele>-0.34</ele>
        <time>2015-10-10T15:28:59Z</time>
      </trkpt>
      <trkpt lat="47.68782" lon="-3.36986">
        <ele>-0.34</ele>
        <time>2015-10-10T15:29:00Z</time>
      </trkpt>
      <trkpt lat="47.68785" lon="-3.36985">
        <ele>-0.34</ele>
        <time>2015-10-10T15:29:01Z</time>
      </trkpt>
      <trkpt lat="47.68788" lon="-3.36985">
        <ele>-0.34</ele>
        <time>2015-10-10T15:29:02Z</time>
      </trkpt>
      <trkpt lat="47.6879" lon="-3.36984">
        <ele>-0.34</ele>
        <time>2015-10-10T15:29:03Z</time>
      </trkpt>
      <trkpt lat="47.68793" lon="-3.36983">
        <ele>-0.34</ele>
        <time>2015-10-10T15:29:04Z</time>
      </trkpt>
      <trkpt lat="47.68795" lon="-3.36983">
        <ele>-0.34</ele>
        <time>2015-10-10T15:29:05Z</time>
      </trkpt>
      <trkpt lat="47.68798" lon="-3.36983">
        <ele>-0.34</ele>
        <time>2015-10-10T15:29:06Z</time>
      </trkpt>
      <trkpt lat="47.688" lon="-3.36983">
        <ele>-0.34</ele>
        <time>2015-10-10T15:29:07Z</time>
      </trkpt>
      <trkpt lat="47.68803" lon="-3.36982">
        <ele>-0.34</ele>
        <time>2015-10-10T15:29:08Z</time>
      </trkpt>
      <trkpt lat="47.68805" lon="-3.36981">
        <ele>-0.34</ele>
        <time>2015-10-10T15:29:09Z</time>
      </trkpt>
      <trkpt lat="47.68808" lon="-3.3698">
        <ele>-0.34</ele>
        <time>2015-10-10T15:29:10Z</time>
      </trkpt>
      <trkpt lat="47.6881" lon="-3.36979">
        <ele>-0.34</ele>
        <time>2015-10-10T15:29:11Z</time>
      </trkpt>
      <trkpt lat="47.68813" lon="-3.36978">
        <ele>-1.3</ele>
        <time>2015-10-10T15:29:12Z</time>
      </trkpt>
      <trkpt lat="47.68815" lon="-3.36977">
        <ele>-1.3</ele>
        <time>2015-10-10T15:29:13Z</time>
      </trkpt>
      <trkpt lat="47.68818" lon="-3.36977">
        <ele>-1.3</ele>
        <time>2015-10-10T15:29:14Z</time>
      </trkpt>
      <trkpt lat="47.68821" lon="-3.36978">
        <ele>-1.3</ele>
        <time>2015-10-10T15:29:15Z</time>
      </trkpt>
      <trkpt lat="47.68823" lon="-3.36978">
        <ele>-1.3</ele>
        <time>2015-10-10T15:29:16Z</time>
      </trkpt>
      <trkpt lat="47.68826" lon="-3.36977">
        <ele>-1.3</ele>
        <time>2015-10-10T15:29:17Z</time>
      </trkpt>
      <trkpt lat="47.68829" lon="-3.36977">
        <ele>-1.3</ele>
        <time>2015-10-10T15:29:18Z</time>
      </trkpt>
      <trkpt lat="47.68832" lon="-3.36976">
        <ele>-1.3</ele>
        <time>2015-10-10T15:29:19Z</time>
      </trkpt>
      <trkpt lat="47.68835" lon="-3.36975">
        <ele>-1.3</ele>
        <time>2015-10-10T15:29:20Z</time>
      </trkpt>
      <trkpt lat="47.68837" lon="-3.36975">
        <ele>-1.3</ele>
        <time>2015-10-10T15:29:21Z</time>
      </trkpt>
      <trkpt lat="47.6884" lon="-3.36975">
        <ele>-1.3</ele>
        <time>2015-10-10T15:29:22Z</time>
      </trkpt>
      <trkpt lat="47.68842" lon="-3.36975">
        <ele>-1.3</ele>
        <time>2015-10-10T15:29:23Z</time>
      </trkpt>
      <trkpt lat="47.68845" lon="-3.36975">
        <ele>-1.3</ele>
        <time>2015-10-10T15:29:24Z</time>
      </trkpt>
      <trkpt lat="47.68848" lon="-3.36975">
        <ele>-1.3</ele>
        <time>2015-10-10T15:29:25Z</time>
      </trkpt>
      <trkpt lat="47.68851" lon="-3.36975">
        <ele>-1.3</ele>
        <time>2015-10-10T15:29:26Z</time>
      </trkpt>
      <trkpt lat="47.68853" lon="-3.36975">
        <ele>-1.3</ele>
        <time>2015-10-10T15:29:27Z</time>
      </trkpt>
      <trkpt lat="47.68856" lon="-3.36974">
        <ele>-1.3</ele>
        <time>2015-10-10T15:29:28Z</time>
      </trkpt>
      <trkpt lat="47.68858" lon="-3.36974">
        <ele>-1.3</ele>
        <time>2015-10-10T15:29:29Z</time>
      </trkpt>
      <trkpt lat="47.68861" lon="-3.36974">
        <ele>-2.27</ele>
        <time>2015-10-10T15:29:30Z</time>
      </trkpt>
      <trkpt lat="47.68863" lon="-3.36974">
        <ele>-2.27</ele>
        <time>2015-10-10T15:29:31Z</time>
      </trkpt>
      <trkpt lat="47.68866" lon="-3.36973">
        <ele>-2.27</ele>
        <time>2015-10-10T15:29:32Z</time>
      </trkpt>
      <trkpt lat="47.68868" lon="-3.36972">
        <ele>-2.27</ele>
        <time>2015-10-10T15:29:33Z</time>
      </trkpt>
      <trkpt lat="47.68871" lon="-3.36972">
        <ele>-2.27</ele>
        <time>2015-10-10T15:29:34Z</time>
      </trkpt>
      <trkpt lat="47.68873" lon="-3.36971">
        <ele>-2.27</ele>
        <time>2015-10-10T15:29:35Z</time>
      </trkpt>
      <trkpt lat="47.68876" lon="-3.36971">
        <ele>-2.27</ele>
        <time>2015-10-10T15:29:36Z</time>
      </trkpt>
      <trkpt lat="47.68878" lon="-3.36971">
        <ele>-2.27</ele>
        <time>2015-10-10T15:29:37Z</time>
      </trkpt>
      <trkpt lat="47.68881" lon="-3.3697">
        <ele>-2.27</ele>
        <time>2015-10-10T15:29:38Z</time>
      </trkpt>
      <trkpt lat="47.68884" lon="-3.3697">
        <ele>-2.27</ele>
        <time>2015-10-10T15:29:39Z</time>
      </trkpt>
      <trkpt lat="47.68887" lon="-3.3697">
        <ele>-2.27</ele>
        <time>2015-10-10T15:29:40Z</time>
      </trkpt>
      <trkpt lat="47.68889" lon="-3.36969">
        <ele>-2.27</ele>
        <time>2015-10-10T15:29:41Z</time>
      </trkpt>
      <trkpt lat="47.68892" lon="-3.36969">
        <ele>-2.27</ele>
        <time>2015-10-10T15:29:42Z</time>
      </trkpt>
      <trkpt lat="47.68895" lon="-3.36969">
        <ele>-2.27</ele>
        <time>2015-10-10T15:29:43Z</time>
      </trkpt>
      <trkpt lat="47.68897" lon="-3.36968">
        <ele>-2.27</ele>
        <time>2015-10-10T15:29:44Z</time>
      </trkpt>
      <trkpt lat="47.689" lon="-3.36968">
        <ele>-2.27</ele>
        <time>2015-10-10T15:29:45Z</time>
      </trkpt>
      <trkpt lat="47.68902" lon="-3.36968">
        <ele>-2.27</ele>
        <time>2015-10-10T15:29:46Z</time>
      </trkpt>
      <trkpt lat="47.68905" lon="-3.36967">
        <ele>-2.27</ele>
        <time>2015-10-10T15:29:47Z</time>
      </trkpt>
      <trkpt lat="47.68907" lon="-3.36967">
        <ele>-2.27</ele>
        <time>2015-10-10T15:29:48Z</time>
      </trkpt>
      <trkpt lat="47.6891" lon="-3.36967">
        <ele>-2.27</ele>
        <time>2015-10-10T15:29:49Z</time>
      </trkpt>
      <trkpt lat="47.68913" lon="-3.36966">
        <ele>-2.27</ele>
        <time>2015-10-10T15:29:50Z</time>
      </trkpt>
      <trkpt lat="47.68915" lon="-3.36965">
        <ele>-2.27</ele>
        <time>2015-10-10T15:29:51Z</time>
      </trkpt>
      <trkpt lat="47.68917" lon="-3.36965">
        <ele>-2.27</ele>
        <time>2015-10-10T15:29:52Z</time>
      </trkpt>
      <trkpt lat="47.68919" lon="-3.36965">
        <ele>-2.27</ele>
        <time>2015-10-10T15:29:53Z</time>
      </trkpt>
      <trkpt lat="47.68922" lon="-3.36965">
        <ele>-1.79</ele>
        <time>2015-10-10T15:29:54Z</time>
      </trkpt>
      <trkpt lat="47.68924" lon="-3.36964">
        <ele>-1.79</ele>
        <time>2015-10-10T15:29:55Z</time>
      </trkpt>
      <trkpt lat="47.68927" lon="-3.36964">
        <ele>-1.79</ele>
        <time>2015-10-10T15:29:56Z</time>
      </trkpt>
      <trkpt lat="47.68929" lon="-3.36963">
        <ele>-1.79</ele>
        <time>2015-10-10T15:29:57Z</time>
      </trkpt>
      <trkpt lat="47.68931" lon="-3.36963">
        <ele>-1.79</ele>
        <time>2015-10-10T15:29:58Z</time>
      </trkpt>
      <trkpt lat="47.68934" lon="-3.36963">
        <ele>-1.79</ele>
        <time>2015-10-10T15:29:59Z</time>
      </trkpt>
      <trkpt lat="47.68936" lon="-3.36962">
        <ele>-1.79</ele>
        <time>2015-10-10T15:30:00Z</time>
      </trkpt>
      <trkpt lat="47.68939" lon="-3.36962">
        <ele>-1.79</ele>
        <time>2015-10-10T15:30:01Z</time>
      </trkpt>
      <trkpt lat="47.68941" lon="-3.36962">
        <ele>-1.79</ele>
        <time>2015-10-10T15:30:02Z</time>
      </trkpt>
      <trkpt lat="47.68944" lon="-3.36962">
        <ele>-1.79</ele>
        <time>2015-10-10T15:30:03Z</time>
      </trkpt>
      <trkpt lat="47.68946" lon="-3.36961">
        <ele>-1.79</ele>
        <time>2015-10-10T15:30:04Z</time>
      </trkpt>
      <trkpt lat="47.68949" lon="-3.36961">
        <ele>-1.79</ele>
        <time>2015-10-10T15:30:05Z</time>
      </trkpt>
      <trkpt lat="47.68951" lon="-3.3696">
        <ele>-1.79</ele>
        <time>2015-10-10T15:30:06Z</time>
      </trkpt>
      <trkpt lat="47.68954" lon="-3.3696">
        <ele>-1.79</ele>
        <time>2015-10-10T15:30:07Z</time>
      </trkpt>
      <trkpt lat="47.68956" lon="-3.36961">
        <ele>-1.79</ele>
        <time>2015-10-10T15:30:08Z</time>
      </trkpt>
      <trkpt lat="47.68959" lon="-3.36961">
        <ele>-1.79</ele>
        <time>2015-10-10T15:30:09Z</time>
      </trkpt>
      <trkpt lat="47.68961" lon="-3.36961">
        <ele>-1.79</ele>
        <time>2015-10-10T15:30:10Z</time>
      </trkpt>
      <trkpt lat="47.68964" lon="-3.36961">
        <ele>-1.79</ele>
        <time>2015-10-10T15:30:11Z</time>
      </trkpt>
      <trkpt lat="47.68966" lon="-3.36961">
        <ele>-1.79</ele>
        <time>2015-10-10T15:30:12Z</time>
      </trkpt>
      <trkpt lat="47.68969" lon="-3.36961">
        <ele>-2.27</ele>
        <time>2015-10-10T15:30:13Z</time>
      </trkpt>
      <trkpt lat="47.68971" lon="-3.36961">
        <ele>-1.79</ele>
        <time>2015-10-10T15:30:14Z</time>
      </trkpt>
      <trkpt lat="47.68973" lon="-3.36961">
        <ele>-1.79</ele>
        <time>2015-10-10T15:30:15Z</time>
      </trkpt>
      <trkpt lat="47.68975" lon="-3.36961">
        <ele>-1.79</ele>
        <time>2015-10-10T15:30:16Z</time>
      </trkpt>
      <trkpt lat="47.68978" lon="-3.36961">
        <ele>-1.79</ele>
        <time>2015-10-10T15:30:17Z</time>
      </trkpt>
      <trkpt lat="47.6898" lon="-3.36961">
        <ele>-1.79</ele>
        <time>2015-10-10T15:30:18Z</time>
      </trkpt>
      <trkpt lat="47.68983" lon="-3.36961">
        <ele>-1.79</ele>
        <time>2015-10-10T15:30:19Z</time>
      </trkpt>
      <trkpt lat="47.68985" lon="-3.36961">
        <ele>-1.79</ele>
        <time>2015-10-10T15:30:20Z</time>
      </trkpt>
      <trkpt lat="47.68987" lon="-3.3696">
        <ele>-1.79</ele>
        <time>2015-10-10T15:30:21Z</time>
      </trkpt>
      <trkpt lat="47.68989" lon="-3.3696">
        <ele>-1.79</ele>
        <time>2015-10-10T15:30:22Z</time>
      </trkpt>
      <trkpt lat="47.68992" lon="-3.3696">
        <ele>-1.79</ele>
        <time>2015-10-10T15:30:23Z</time>
      </trkpt>
      <trkpt lat="47.68994" lon="-3.36959">
        <ele>-1.79</ele>
        <time>2015-10-10T15:30:24Z</time>
      </trkpt>
      <trkpt lat="47.68996" lon="-3.36959">
        <ele>-1.79</ele>
        <time>2015-10-10T15:30:25Z</time>
      </trkpt>
      <trkpt lat="47.68999" lon="-3.36959">
        <ele>-1.79</ele>
        <time>2015-10-10T15:30:26Z</time>
      </trkpt>
      <trkpt lat="47.69001" lon="-3.36959">
        <ele>-1.79</ele>
        <time>2015-10-10T15:30:27Z</time>
      </trkpt>
      <trkpt lat="47.69003" lon="-3.36959">
        <ele>-1.79</ele>
        <time>2015-10-10T15:30:28Z</time>
      </trkpt>
      <trkpt lat="47.69006" lon="-3.36959">
        <ele>-1.79</ele>
        <time>2015-10-10T15:30:29Z</time>
      </trkpt>
      <trkpt lat="47.69008" lon="-3.36959">
        <ele>-1.79</ele>
        <time>2015-10-10T15:30:30Z</time>
      </trkpt>
      <trkpt lat="47.6901" lon="-3.36959">
        <ele>-2.27</ele>
        <time>2015-10-10T15:30:31Z</time>
      </trkpt>
      <trkpt lat="47.69012" lon="-3.36959">
        <ele>-2.27</ele>
        <time>2015-10-10T15:30:32Z</time>
      </trkpt>
      <trkpt lat="47.69015" lon="-3.36959">
        <ele>-2.27</ele>
        <time>2015-10-10T15:30:33Z</time>
      </trkpt>
      <trkpt lat="47.69017" lon="-3.36959">
        <ele>-2.27</ele>
        <time>2015-10-10T15:30:34Z</time>
      </trkpt>
      <trkpt lat="47.69019" lon="-3.36959">
        <ele>-2.27</ele>
        <time>2015-10-10T15:30:35Z</time>
      </trkpt>
      <trkpt lat="47.69022" lon="-3.36959">
        <ele>-2.27</ele>
        <time>2015-10-10T15:30:36Z</time>
      </trkpt>
      <trkpt lat="47.69024" lon="-3.36959">
        <ele>-2.27</ele>
        <time>2015-10-10T15:30:37Z</time>
      </trkpt>
      <trkpt lat="47.69026" lon="-3.36959">
        <ele>-2.27</ele>
        <time>2015-10-10T15:30:38Z</time>
      </trkpt>
      <trkpt lat="47.69028" lon="-3.36959">
        <ele>-1.3</ele>
        <time>2015-10-10T15:30:39Z</time>
      </trkpt>
      <trkpt lat="47.69031" lon="-3.36959">
        <ele>-1.3</ele>
        <time>2015-10-10T15:30:40Z</time>
      </trkpt>
      <trkpt lat="47.69033" lon="-3.36959">
        <ele>-1.3</ele>
        <time>2015-10-10T15:30:41Z</time>
      </trkpt>
      <trkpt lat="47.69035" lon="-3.36959">
        <ele>-0.82</ele>
        <time>2015-10-10T15:30:42Z</time>
      </trkpt>
      <trkpt lat="47.69037" lon="-3.36959">
        <ele>-0.82</ele>
        <time>2015-10-10T15:30:43Z</time>
      </trkpt>
      <trkpt lat="47.69039" lon="-3.36959">
        <ele>-0.82</ele>
        <time>2015-10-10T15:30:44Z</time>
      </trkpt>
      <trkpt lat="47.69042" lon="-3.36959">
        <ele>-0.82</ele>
        <time>2015-10-10T15:30:45Z</time>
      </trkpt>
      <trkpt lat="47.69045" lon="-3.36959">
        <ele>-0.82</ele>
        <time>2015-10-10T15:30:46Z</time>
      </trkpt>
      <trkpt lat="47.69048" lon="-3.36957">
        <ele>-0.82</ele>
        <time>2015-10-10T15:30:47Z</time>
      </trkpt>
      <trkpt lat="47.6905" lon="-3.36957">
        <ele>-0.82</ele>
        <time>2015-10-10T15:30:48Z</time>
      </trkpt>
      <trkpt lat="47.69053" lon="-3.36956">
        <ele>-0.82</ele>
        <time>2015-10-10T15:30:49Z</time>
      </trkpt>
      <trkpt lat="47.69056" lon="-3.36956">
        <ele>-0.82</ele>
        <time>2015-10-10T15:30:50Z</time>
      </trkpt>
      <trkpt lat="47.69058" lon="-3.36957">
        <ele>-0.82</ele>
        <time>2015-10-10T15:30:51Z</time>
      </trkpt>
      <trkpt lat="47.6906" lon="-3.36957">
        <ele>-0.82</ele>
        <time>2015-10-10T15:30:52Z</time>
      </trkpt>
      <trkpt lat="47.69063" lon="-3.36958">
        <ele>-0.82</ele>
        <time>2015-10-10T15:30:53Z</time>
      </trkpt>
      <trkpt lat="47.69066" lon="-3.36958">
        <ele>-0.82</ele>
        <time>2015-10-10T15:30:54Z</time>
      </trkpt>
      <trkpt lat="47.69069" lon="-3.36958">
        <ele>-0.82</ele>
        <time>2015-10-10T15:30:55Z</time>
      </trkpt>
      <trkpt lat="47.69071" lon="-3.36958">
        <ele>-0.82</ele>
        <time>2015-10-10T15:30:56Z</time>
      </trkpt>
      <trkpt lat="47.69073" lon="-3.36958">
        <ele>-0.82</ele>
        <time>2015-10-10T15:30:57Z</time>
      </trkpt>
      <trkpt lat="47.69076" lon="-3.36958">
        <ele>-0.82</ele>
        <time>2015-10-10T15:30:58Z</time>
      </trkpt>
      <trkpt lat="47.69078" lon="-3.36959">
        <ele>-0.82</ele>
        <time>2015-10-10T15:30:59Z</time>
      </trkpt>
      <trkpt lat="47.69081" lon="-3.36959">
        <ele>-0.82</ele>
        <time>2015-10-10T15:31:00Z</time>
      </trkpt>
      <trkpt lat="47.69084" lon="-3.36958">
        <ele>-0.82</ele>
        <time>2015-10-10T15:31:01Z</time>
      </trkpt>
      <trkpt lat="47.69086" lon="-3.36957">
        <ele>-0.82</ele>
        <time>2015-10-10T15:31:02Z</time>
      </trkpt>
      <trkpt lat="47.69089" lon="-3.36956">
        <ele>-0.82</ele>
        <time>2015-10-10T15:31:03Z</time>
      </trkpt>
      <trkpt lat="47.69091" lon="-3.36956">
        <ele>-0.82</ele>
        <time>2015-10-10T15:31:04Z</time>
      </trkpt>
      <trkpt lat="47.69093" lon="-3.36956">
        <ele>-0.82</ele>
        <time>2015-10-10T15:31:05Z</time>
      </trkpt>
      <trkpt lat="47.69095" lon="-3.36956">
        <ele>-0.82</ele>
        <time>2015-10-10T15:31:06Z</time>
      </trkpt>
      <trkpt lat="47.69098" lon="-3.36955">
        <ele>-0.82</ele>
        <time>2015-10-10T15:31:07Z</time>
      </trkpt>
      <trkpt lat="47.69101" lon="-3.36955">
        <ele>-0.82</ele>
        <time>2015-10-10T15:31:08Z</time>
      </trkpt>
      <trkpt lat="47.69103" lon="-3.36955">
        <ele>-0.82</ele>
        <time>2015-10-10T15:31:09Z</time>
      </trkpt>
      <trkpt lat="47.69106" lon="-3.36955">
        <ele>-0.82</ele>
        <time>2015-10-10T15:31:10Z</time>
      </trkpt>
      <trkpt lat="47.69108" lon="-3.36955">
        <ele>-0.82</ele>
        <time>2015-10-10T15:31:11Z</time>
      </trkpt>
      <trkpt lat="47.69111" lon="-3.36955">
        <ele>-0.82</ele>
        <time>2015-10-10T15:31:12Z</time>
      </trkpt>
      <trkpt lat="47.69113" lon="-3.36955">
        <ele>-0.82</ele>
        <time>2015-10-10T15:31:13Z</time>
      </trkpt>
      <trkpt lat="47.69116" lon="-3.36955">
        <ele>-0.82</ele>
        <time>2015-10-10T15:31:14Z</time>
      </trkpt>
      <trkpt lat="47.69118" lon="-3.36954">
        <ele>-0.82</ele>
        <time>2015-10-10T15:31:15Z</time>
      </trkpt>
      <trkpt lat="47.69121" lon="-3.36954">
        <ele>-0.82</ele>
        <time>2015-10-10T15:31:16Z</time>
      </trkpt>
      <trkpt lat="47.69123" lon="-3.36954">
        <ele>-0.82</ele>
        <time>2015-10-10T15:31:17Z</time>
      </trkpt>
      <trkpt lat="47.69126" lon="-3.36953">
        <ele>-0.82</ele>
        <time>2015-10-10T15:31:18Z</time>
      </trkpt>
      <trkpt lat="47.69128" lon="-3.36952">
        <ele>-0.82</ele>
        <time>2015-10-10T15:31:19Z</time>
      </trkpt>
      <trkpt lat="47.6913" lon="-3.36952">
        <ele>-0.82</ele>
        <time>2015-10-10T15:31:20Z</time>
      </trkpt>
      <trkpt lat="47.69133" lon="-3.36952">
        <ele>-0.82</ele>
        <time>2015-10-10T15:31:21Z</time>
      </trkpt>
      <trkpt lat="47.69135" lon="-3.36951">
        <ele>-0.82</ele>
        <time>2015-10-10T15:31:22Z</time>
      </trkpt>
      <trkpt lat="47.69138" lon="-3.36951">
        <ele>-0.82</ele>
        <time>2015-10-10T15:31:23Z</time>
      </trkpt>
      <trkpt lat="47.6914" lon="-3.36951">
        <ele>-0.82</ele>
        <time>2015-10-10T15:31:24Z</time>
      </trkpt>
      <trkpt lat="47.69142" lon="-3.3695">
        <ele>-0.82</ele>
        <time>2015-10-10T15:31:25Z</time>
      </trkpt>
      <trkpt lat="47.69145" lon="-3.3695">
        <ele>-0.82</ele>
        <time>2015-10-10T15:31:26Z</time>
      </trkpt>
      <trkpt lat="47.69147" lon="-3.3695">
        <ele>-0.82</ele>
        <time>2015-10-10T15:31:27Z</time>
      </trkpt>
      <trkpt lat="47.6915" lon="-3.3695">
        <ele>-0.82</ele>
        <time>2015-10-10T15:31:28Z</time>
      </trkpt>
      <trkpt lat="47.69152" lon="-3.3695">
        <ele>-0.82</ele>
        <time>2015-10-10T15:31:29Z</time>
      </trkpt>
      <trkpt lat="47.69155" lon="-3.3695">
        <ele>-2.27</ele>
        <time>2015-10-10T15:31:30Z</time>
      </trkpt>
      <trkpt lat="47.69157" lon="-3.3695">
        <ele>-2.27</ele>
        <time>2015-10-10T15:31:31Z</time>
      </trkpt>
      <trkpt lat="47.6916" lon="-3.3695">
        <ele>-1.79</ele>
        <time>2015-10-10T15:31:32Z</time>
      </trkpt>
      <trkpt lat="47.69162" lon="-3.3695">
        <ele>-1.79</ele>
        <time>2015-10-10T15:31:33Z</time>
      </trkpt>
      <trkpt lat="47.69165" lon="-3.3695">
        <ele>-1.79</ele>
        <time>2015-10-10T15:31:34Z</time>
      </trkpt>
      <trkpt lat="47.69167" lon="-3.3695">
        <ele>-1.79</ele>
        <time>2015-10-10T15:31:35Z</time>
      </trkpt>
      <trkpt lat="47.69169" lon="-3.3695">
        <ele>-1.79</ele>
        <time>2015-10-10T15:31:36Z</time>
      </trkpt>
      <trkpt lat="47.69171" lon="-3.3695">
        <ele>-1.79</ele>
        <time>2015-10-10T15:31:37Z</time>
      </trkpt>
      <trkpt lat="47.69174" lon="-3.3695">
        <ele>-1.79</ele>
        <time>2015-10-10T15:31:38Z</time>
      </trkpt>
      <trkpt lat="47.69176" lon="-3.3695">
        <ele>-1.79</ele>
        <time>2015-10-10T15:31:39Z</time>
      </trkpt>
      <trkpt lat="47.69178" lon="-3.3695">
        <ele>-1.79</ele>
        <time>2015-10-10T15:31:40Z</time>
      </trkpt>
      <trkpt lat="47.6918" lon="-3.3695">
        <ele>-1.79</ele>
        <time>2015-10-10T15:31:41Z</time>
      </trkpt>
      <trkpt lat="47.69182" lon="-3.3695">
        <ele>-1.79</ele>
        <time>2015-10-10T15:31:42Z</time>
      </trkpt>
      <trkpt lat="47.69185" lon="-3.36951">
        <ele>-1.79</ele>
        <time>2015-10-10T15:31:43Z</time>
      </trkpt>
      <trkpt lat="47.69187" lon="-3.36951">
        <ele>-1.79</ele>
        <time>2015-10-10T15:31:44Z</time>
      </trkpt>
      <trkpt lat="47.69189" lon="-3.36951">
        <ele>-1.79</ele>
        <time>2015-10-10T15:31:45Z</time>
      </trkpt>
      <trkpt lat="47.69192" lon="-3.36951">
        <ele>-1.79</ele>
        <time>2015-10-10T15:31:46Z</time>
      </trkpt>
      <trkpt lat="47.69194" lon="-3.36951">
        <ele>-1.79</ele>
        <time>2015-10-10T15:31:47Z</time>
      </trkpt>
      <trkpt lat="47.69196" lon="-3.36951">
        <ele>-1.79</ele>
        <time>2015-10-10T15:31:48Z</time>
      </trkpt>
      <trkpt lat="47.69199" lon="-3.36951">
        <ele>-1.79</ele>
        <time>2015-10-10T15:31:49Z</time>
      </trkpt>
      <trkpt lat="47.69201" lon="-3.36951">
        <ele>-1.79</ele>
        <time>2015-10-10T15:31:50Z</time>
      </trkpt>
      <trkpt lat="47.69204" lon="-3.36951">
        <ele>-1.79</ele>
        <time>2015-10-10T15:31:51Z</time>
      </trkpt>
      <trkpt lat="47.69206" lon="-3.36951">
        <ele>-1.79</ele>
        <time>2015-10-10T15:31:52Z</time>
      </trkpt>
      <trkpt lat="47.69209" lon="-3.36951">
        <ele>-1.79</ele>
        <time>2015-10-10T15:31:53Z</time>
      </trkpt>
      <trkpt lat="47.69211" lon="-3.3695">
        <ele>-1.79</ele>
        <time>2015-10-10T15:31:54Z</time>
      </trkpt>
      <trkpt lat="47.69214" lon="-3.3695">
        <ele>-2.27</ele>
        <time>2015-10-10T15:31:55Z</time>
      </trkpt>
      <trkpt lat="47.69216" lon="-3.3695">
        <ele>-2.27</ele>
        <time>2015-10-10T15:31:56Z</time>
      </trkpt>
      <trkpt lat="47.69218" lon="-3.3695">
        <ele>-1.79</ele>
        <time>2015-10-10T15:31:57Z</time>
      </trkpt>
      <trkpt lat="47.69221" lon="-3.36949">
        <ele>-1.79</ele>
        <time>2015-10-10T15:31:58Z</time>
      </trkpt>
      <trkpt lat="47.69223" lon="-3.36949">
        <ele>-1.79</ele>
        <time>2015-10-10T15:31:59Z</time>
      </trkpt>
      <trkpt lat="47.69226" lon="-3.36949">
        <ele>-1.79</ele>
        <time>2015-10-10T15:32:00Z</time>
      </trkpt>
      <trkpt lat="47.69228" lon="-3.36949">
        <ele>-1.79</ele>
        <time>2015-10-10T15:32:01Z</time>
      </trkpt>
      <trkpt lat="47.6923" lon="-3.36949">
        <ele>-1.79</ele>
        <time>2015-10-10T15:32:02Z</time>
      </trkpt>
      <trkpt lat="47.69232" lon="-3.36949">
        <ele>-1.79</ele>
        <time>2015-10-10T15:32:03Z</time>
      </trkpt>
      <trkpt lat="47.69235" lon="-3.36949">
        <ele>-1.79</ele>
        <time>2015-10-10T15:32:04Z</time>
      </trkpt>
      <trkpt lat="47.69237" lon="-3.36948">
        <ele>-1.79</ele>
        <time>2015-10-10T15:32:05Z</time>
      </trkpt>
      <trkpt lat="47.69239" lon="-3.36948">
        <ele>-1.79</ele>
        <time>2015-10-10T15:32:06Z</time>
      </trkpt>
      <trkpt lat="47.69242" lon="-3.36947">
        <ele>-1.79</ele>
        <time>2015-10-10T15:32:07Z</time>
      </trkpt>
      <trkpt lat="47.69244" lon="-3.36946">
        <ele>-1.79</ele>
        <time>2015-10-10T15:32:08Z</time>
      </trkpt>
      <trkpt lat="47.69246" lon="-3.36944">
        <ele>-1.79</ele>
        <time>2015-10-10T15:32:09Z</time>
      </trkpt>
      <trkpt lat="47.69247" lon="-3.36943">
        <ele>-1.79</ele>
        <time>2015-10-10T15:32:10Z</time>
      </trkpt>
      <trkpt lat="47.69249" lon="-3.36942">
        <ele>-1.79</ele>
        <time>2015-10-10T15:32:11Z</time>
      </trkpt>
      <trkpt lat="47.69252" lon="-3.36941">
        <ele>-1.79</ele>
        <time>2015-10-10T15:32:12Z</time>
      </trkpt>
      <trkpt lat="47.69254" lon="-3.36939">
        <ele>-1.79</ele>
        <time>2015-10-10T15:32:13Z</time>
      </trkpt>
      <trkpt lat="47.69256" lon="-3.36938">
        <ele>-1.79</ele>
        <time>2015-10-10T15:32:14Z</time>
      </trkpt>
      <trkpt lat="47.69258" lon="-3.36937">
        <ele>-1.79</ele>
        <time>2015-10-10T15:32:15Z</time>
      </trkpt>
      <trkpt lat="47.6926" lon="-3.36936">
        <ele>-1.79</ele>
        <time>2015-10-10T15:32:16Z</time>
      </trkpt>
      <trkpt lat="47.69262" lon="-3.36935">
        <ele>-1.79</ele>
        <time>2015-10-10T15:32:17Z</time>
      </trkpt>
      <trkpt lat="47.69264" lon="-3.36935">
        <ele>-1.79</ele>
        <time>2015-10-10T15:32:18Z</time>
      </trkpt>
      <trkpt lat="47.69267" lon="-3.36934">
        <ele>-1.79</ele>
        <time>2015-10-10T15:32:19Z</time>
      </trkpt>
      <trkpt lat="47.69269" lon="-3.36933">
        <ele>-1.79</ele>
        <time>2015-10-10T15:32:20Z</time>
      </trkpt>
      <trkpt lat="47.69271" lon="-3.36932">
        <ele>-1.79</ele>
        <time>2015-10-10T15:32:21Z</time>
      </trkpt>
      <trkpt lat="47.69273" lon="-3.36931">
        <ele>-1.79</ele>
        <time>2015-10-10T15:32:22Z</time>
      </trkpt>
      <trkpt lat="47.69275" lon="-3.3693">
        <ele>-1.79</ele>
        <time>2015-10-10T15:32:23Z</time>
      </trkpt>
      <trkpt lat="47.69278" lon="-3.36929">
        <ele>-1.79</ele>
        <time>2015-10-10T15:32:24Z</time>
      </trkpt>
      <trkpt lat="47.6928" lon="-3.36928">
        <ele>-1.79</ele>
        <time>2015-10-10T15:32:25Z</time>
      </trkpt>
      <trkpt lat="47.69283" lon="-3.36927">
        <ele>-1.79</ele>
        <time>2015-10-10T15:32:26Z</time>
      </trkpt>
      <trkpt lat="47.69285" lon="-3.36926">
        <ele>-1.79</ele>
        <time>2015-10-10T15:32:27Z</time>
      </trkpt>
      <trkpt lat="47.69288" lon="-3.36925">
        <ele>-1.79</ele>
        <time>2015-10-10T15:32:28Z</time>
      </trkpt>
      <trkpt lat="47.6929" lon="-3.36923">
        <ele>-1.79</ele>
        <time>2015-10-10T15:32:29Z</time>
      </trkpt>
      <trkpt lat="47.69292" lon="-3.36922">
        <ele>-1.79</ele>
        <time>2015-10-10T15:32:30Z</time>
      </trkpt>
      <trkpt lat="47.69294" lon="-3.36921">
        <ele>-1.79</ele>
        <time>2015-10-10T15:32:31Z</time>
      </trkpt>
      <trkpt lat="47.69297" lon="-3.3692">
        <ele>-1.79</ele>
        <time>2015-10-10T15:32:32Z</time>
      </trkpt>
      <trkpt lat="47.69299" lon="-3.36919">
        <ele>-1.79</ele>
        <time>2015-10-10T15:32:33Z</time>
      </trkpt>
      <trkpt lat="47.69301" lon="-3.36919">
        <ele>-1.79</ele>
        <time>2015-10-10T15:32:34Z</time>
      </trkpt>
      <trkpt lat="47.69303" lon="-3.36919">
        <ele>-2.27</ele>
        <time>2015-10-10T15:32:35Z</time>
      </trkpt>
      <trkpt lat="47.69305" lon="-3.36918">
        <ele>-2.27</ele>
        <time>2015-10-10T15:32:36Z</time>
      </trkpt>
      <trkpt lat="47.69307" lon="-3.36918">
        <ele>-2.27</ele>
        <time>2015-10-10T15:32:37Z</time>
      </trkpt>
      <trkpt lat="47.69309" lon="-3.36917">
        <ele>-2.27</ele>
        <time>2015-10-10T15:32:38Z</time>
      </trkpt>
      <trkpt lat="47.69311" lon="-3.36916">
        <ele>-2.27</ele>
        <time>2015-10-10T15:32:39Z</time>
      </trkpt>
      <trkpt lat="47.69313" lon="-3.36916">
        <ele>-2.27</ele>
        <time>2015-10-10T15:32:40Z</time>
      </trkpt>
      <trkpt lat="47.69315" lon="-3.36915">
        <ele>-2.27</ele>
        <time>2015-10-10T15:32:41Z</time>
      </trkpt>
      <trkpt lat="47.69318" lon="-3.36914">
        <ele>-2.27</ele>
        <time>2015-10-10T15:32:42Z</time>
      </trkpt>
      <trkpt lat="47.6932" lon="-3.36914">
        <ele>-2.27</ele>
        <time>2015-10-10T15:32:43Z</time>
      </trkpt>
      <trkpt lat="47.69322" lon="-3.36913">
        <ele>-2.27</ele>
        <time>2015-10-10T15:32:44Z</time>
      </trkpt>
      <trkpt lat="47.69324" lon="-3.36912">
        <ele>-2.27</ele>
        <time>2015-10-10T15:32:45Z</time>
      </trkpt>
      <trkpt lat="47.69327" lon="-3.36912">
        <ele>-2.27</ele>
        <time>2015-10-10T15:32:46Z</time>
      </trkpt>
      <trkpt lat="47.69329" lon="-3.36911">
        <ele>-2.27</ele>
        <time>2015-10-10T15:32:47Z</time>
      </trkpt>
      <trkpt lat="47.69331" lon="-3.36911">
        <ele>-2.27</ele>
        <time>2015-10-10T15:32:48Z</time>
      </trkpt>
      <trkpt lat="47.69334" lon="-3.3691">
        <ele>-2.27</ele>
        <time>2015-10-10T15:32:49Z</time>
      </trkpt>
      <trkpt lat="47.69336" lon="-3.3691">
        <ele>-2.27</ele>
        <time>2015-10-10T15:32:50Z</time>
      </trkpt>
      <trkpt lat="47.69338" lon="-3.3691">
        <ele>-2.27</ele>
        <time>2015-10-10T15:32:51Z</time>
      </trkpt>
      <trkpt lat="47.6934" lon="-3.3691">
        <ele>-2.27</ele>
        <time>2015-10-10T15:32:52Z</time>
      </trkpt>
      <trkpt lat="47.69343" lon="-3.3691">
        <ele>-2.27</ele>
        <time>2015-10-10T15:32:53Z</time>
      </trkpt>
      <trkpt lat="47.69345" lon="-3.36909">
        <ele>-2.27</ele>
        <time>2015-10-10T15:32:54Z</time>
      </trkpt>
      <trkpt lat="47.69348" lon="-3.36909">
        <ele>-2.27</ele>
        <time>2015-10-10T15:32:55Z</time>
      </trkpt>
      <trkpt lat="47.6935" lon="-3.36909">
        <ele>-2.27</ele>
        <time>2015-10-10T15:32:56Z</time>
      </trkpt>
      <trkpt lat="47.69352" lon="-3.36909">
        <ele>-2.27</ele>
        <time>2015-10-10T15:32:57Z</time>
      </trkpt>
      <trkpt lat="47.69354" lon="-3.36909">
        <ele>-2.27</ele>
        <time>2015-10-10T15:32:58Z</time>
      </trkpt>
      <trkpt lat="47.69356" lon="-3.36908">
        <ele>-2.27</ele>
        <time>2015-10-10T15:32:59Z</time>
      </trkpt>
      <trkpt lat="47.69358" lon="-3.36908">
        <ele>-2.27</ele>
        <time>2015-10-10T15:33:00Z</time>
      </trkpt>
      <trkpt lat="47.69361" lon="-3.36908">
        <ele>-2.27</ele>
        <time>2015-10-10T15:33:01Z</time>
      </trkpt>
      <trkpt lat="47.69363" lon="-3.36907">
        <ele>-2.27</ele>
        <time>2015-10-10T15:33:02Z</time>
      </trkpt>
      <trkpt lat="47.69365" lon="-3.36907">
        <ele>-2.27</ele>
        <time>2015-10-10T15:33:03Z</time>
      </trkpt>
      <trkpt lat="47.69367" lon="-3.36907">
        <ele>-2.27</ele>
        <time>2015-10-10T15:33:04Z</time>
      </trkpt>
      <trkpt lat="47.6937" lon="-3.36907">
        <ele>-2.27</ele>
        <time>2015-10-10T15:33:05Z</time>
      </trkpt>
      <trkpt lat="47.69372" lon="-3.36907">
        <ele>-2.27</ele>
        <time>2015-10-10T15:33:06Z</time>
      </trkpt>
      <trkpt lat="47.69374" lon="-3.36906">
        <ele>-2.27</ele>
        <time>2015-10-10T15:33:07Z</time>
      </trkpt>
      <trkpt lat="47.69376" lon="-3.36906">
        <ele>-2.27</ele>
        <time>2015-10-10T15:33:08Z</time>
      </trkpt>
      <trkpt lat="47.69379" lon="-3.36906">
        <ele>-2.27</ele>
        <time>2015-10-10T15:33:09Z</time>
      </trkpt>
      <trkpt lat="47.69381" lon="-3.36907">
        <ele>-2.27</ele>
        <time>2015-10-10T15:33:10Z</time>
      </trkpt>
      <trkpt lat="47.69384" lon="-3.36907">
        <ele>-2.27</ele>
        <time>2015-10-10T15:33:11Z</time>
      </trkpt>
      <trkpt lat="47.69386" lon="-3.36907">
        <ele>-2.27</ele>
        <time>2015-10-10T15:33:12Z</time>
      </trkpt>
      <trkpt lat="47.69388" lon="-3.36907">
        <ele>-2.27</ele>
        <time>2015-10-10T15:33:13Z</time>
      </trkpt>
      <trkpt lat="47.6939" lon="-3.36907">
        <ele>-2.27</ele>
        <time>2015-10-10T15:33:14Z</time>
      </trkpt>
      <trkpt lat="47.69393" lon="-3.36907">
        <ele>-2.27</ele>
        <time>2015-10-10T15:33:15Z</time>
      </trkpt>
      <trkpt lat="47.69395" lon="-3.36907">
        <ele>-2.27</ele>
        <time>2015-10-10T15:33:16Z</time>
      </trkpt>
      <trkpt lat="47.69398" lon="-3.36907">
        <ele>-2.75</ele>
        <time>2015-10-10T15:33:17Z</time>
      </trkpt>
      <trkpt lat="47.694" lon="-3.36907">
        <ele>-2.75</ele>
        <time>2015-10-10T15:33:18Z</time>
      </trkpt>
      <trkpt lat="47.69402" lon="-3.36906">
        <ele>-2.75</ele>
        <time>2015-10-10T15:33:19Z</time>
      </trkpt>
      <trkpt lat="47.69405" lon="-3.36906">
        <ele>-2.75</ele>
        <time>2015-10-10T15:33:20Z</time>
      </trkpt>
      <trkpt lat="47.69407" lon="-3.36905">
        <ele>-2.75</ele>
        <time>2015-10-10T15:33:21Z</time>
      </trkpt>
      <trkpt lat="47.6941" lon="-3.36904">
        <ele>-2.75</ele>
        <time>2015-10-10T15:33:22Z</time>
      </trkpt>
      <trkpt lat="47.69412" lon="-3.36903">
        <ele>-2.75</ele>
        <time>2015-10-10T15:33:23Z</time>
      </trkpt>
      <trkpt lat="47.69414" lon="-3.36903">
        <ele>-2.75</ele>
        <time>2015-10-10T15:33:24Z</time>
      </trkpt>
      <trkpt lat="47.69417" lon="-3.36902">
        <ele>-2.75</ele>
        <time>2015-10-10T15:33:25Z</time>
      </trkpt>
      <trkpt lat="47.69419" lon="-3.36902">
        <ele>-2.75</ele>
        <time>2015-10-10T15:33:26Z</time>
      </trkpt>
      <trkpt lat="47.69421" lon="-3.36902">
        <ele>-2.75</ele>
        <time>2015-10-10T15:33:27Z</time>
      </trkpt>
      <trkpt lat="47.69424" lon="-3.36902">
        <ele>-2.75</ele>
        <time>2015-10-10T15:33:28Z</time>
      </trkpt>
      <trkpt lat="47.69427" lon="-3.36902">
        <ele>-2.75</ele>
        <time>2015-10-10T15:33:29Z</time>
      </trkpt>
      <trkpt lat="47.69429" lon="-3.36902">
        <ele>-2.75</ele>
        <time>2015-10-10T15:33:30Z</time>
      </trkpt>
      <trkpt lat="47.69431" lon="-3.36902">
        <ele>-1.3</ele>
        <time>2015-10-10T15:33:31Z</time>
      </trkpt>
      <trkpt lat="47.69434" lon="-3.36901">
        <ele>-1.3</ele>
        <time>2015-10-10T15:33:32Z</time>
      </trkpt>
      <trkpt lat="47.69436" lon="-3.369">
        <ele>0.14</ele>
        <time>2015-10-10T15:33:33Z</time>
      </trkpt>
      <trkpt lat="47.69439" lon="-3.369">
        <ele>0.14</ele>
        <time>2015-10-10T15:33:34Z</time>
      </trkpt>
      <trkpt lat="47.69442" lon="-3.369">
        <ele>0.14</ele>
        <time>2015-10-10T15:33:35Z</time>
      </trkpt>
      <trkpt lat="47.69445" lon="-3.36899">
        <ele>-1.3</ele>
        <time>2015-10-10T15:33:36Z</time>
      </trkpt>
      <trkpt lat="47.69447" lon="-3.36898">
        <ele>-1.3</ele>
        <time>2015-10-10T15:33:37Z</time>
      </trkpt>
      <trkpt lat="47.6945" lon="-3.36898">
        <ele>-1.3</ele>
        <time>2015-10-10T15:33:38Z</time>
      </trkpt>
      <trkpt lat="47.69453" lon="-3.36897">
        <ele>-1.3</ele>
        <time>2015-10-10T15:33:39Z</time>
      </trkpt>
      <trkpt lat="47.69456" lon="-3.36897">
        <ele>-1.3</ele>
        <time>2015-10-10T15:33:40Z</time>
      </trkpt>
      <trkpt lat="47.69458" lon="-3.36897">
        <ele>-1.79</ele>
        <time>2015-10-10T15:33:41Z</time>
      </trkpt>
      <trkpt lat="47.69461" lon="-3.36897">
        <ele>-1.79</ele>
        <time>2015-10-10T15:33:42Z</time>
      </trkpt>
      <trkpt lat="47.69464" lon="-3.36897">
        <ele>-1.79</ele>
        <time>2015-10-10T15:33:43Z</time>
      </trkpt>
      <trkpt lat="47.69467" lon="-3.36897">
        <ele>-1.79</ele>
        <time>2015-10-10T15:33:44Z</time>
      </trkpt>
      <trkpt lat="47.69469" lon="-3.36896">
        <ele>-1.79</ele>
        <time>2015-10-10T15:33:45Z</time>
      </trkpt>
      <trkpt lat="47.69472" lon="-3.36896">
        <ele>-1.79</ele>
        <time>2015-10-10T15:33:46Z</time>
      </trkpt>
      <trkpt lat="47.69474" lon="-3.36896">
        <ele>-1.79</ele>
        <time>2015-10-10T15:33:47Z</time>
      </trkpt>
      <trkpt lat="47.69476" lon="-3.36896">
        <ele>-1.79</ele>
        <time>2015-10-10T15:33:48Z</time>
      </trkpt>
      <trkpt lat="47.69478" lon="-3.36895">
        <ele>-1.79</ele>
        <time>2015-10-10T15:33:49Z</time>
      </trkpt>
      <trkpt lat="47.69481" lon="-3.36895">
        <ele>-1.79</ele>
        <time>2015-10-10T15:33:50Z</time>
      </trkpt>
      <trkpt lat="47.69483" lon="-3.36895">
        <ele>-1.79</ele>
        <time>2015-10-10T15:33:51Z</time>
      </trkpt>
      <trkpt lat="47.69485" lon="-3.36894">
        <ele>-1.79</ele>
        <time>2015-10-10T15:33:52Z</time>
      </trkpt>
      <trkpt lat="47.69488" lon="-3.36894">
        <ele>-1.79</ele>
        <time>2015-10-10T15:33:53Z</time>
      </trkpt>
      <trkpt lat="47.6949" lon="-3.36894">
        <ele>-1.79</ele>
        <time>2015-10-10T15:33:54Z</time>
      </trkpt>
      <trkpt lat="47.69492" lon="-3.36894">
        <ele>-1.79</ele>
        <time>2015-10-10T15:33:55Z</time>
      </trkpt>
      <trkpt lat="47.69495" lon="-3.36894">
        <ele>-1.79</ele>
        <time>2015-10-10T15:33:56Z</time>
      </trkpt>
      <trkpt lat="47.69498" lon="-3.36894">
        <ele>-1.79</ele>
        <time>2015-10-10T15:33:57Z</time>
      </trkpt>
      <trkpt lat="47.695" lon="-3.36893">
        <ele>-1.79</ele>
        <time>2015-10-10T15:33:58Z</time>
      </trkpt>
      <trkpt lat="47.69503" lon="-3.36893">
        <ele>-1.79</ele>
        <time>2015-10-10T15:33:59Z</time>
      </trkpt>
      <trkpt lat="47.69505" lon="-3.36892">
        <ele>-1.79</ele>
        <time>2015-10-10T15:34:00Z</time>
      </trkpt>
      <trkpt lat="47.69508" lon="-3.36891">
        <ele>-1.79</ele>
        <time>2015-10-10T15:34:01Z</time>
      </trkpt>
      <trkpt lat="47.6951" lon="-3.36891">
        <ele>-1.79</ele>
        <time>2015-10-10T15:34:02Z</time>
      </trkpt>
      <trkpt lat="47.69513" lon="-3.36891">
        <ele>-1.79</ele>
        <time>2015-10-10T15:34:03Z</time>
      </trkpt>
      <trkpt lat="47.69515" lon="-3.36891">
        <ele>-1.79</ele>
        <time>2015-10-10T15:34:04Z</time>
      </trkpt>
      <trkpt lat="47.69517" lon="-3.36892">
        <ele>-1.79</ele>
        <time>2015-10-10T15:34:05Z</time>
      </trkpt>
      <trkpt lat="47.6952" lon="-3.36892">
        <ele>-1.79</ele>
        <time>2015-10-10T15:34:06Z</time>
      </trkpt>
      <trkpt lat="47.69522" lon="-3.36892">
        <ele>-1.79</ele>
        <time>2015-10-10T15:34:07Z</time>
      </trkpt>
      <trkpt lat="47.69525" lon="-3.36892">
        <ele>-1.79</ele>
        <time>2015-10-10T15:34:08Z</time>
      </trkpt>
      <trkpt lat="47.69527" lon="-3.36893">
        <ele>-1.79</ele>
        <time>2015-10-10T15:34:09Z</time>
      </trkpt>
      <trkpt lat="47.69529" lon="-3.36893">
        <ele>-1.79</ele>
        <time>2015-10-10T15:34:10Z</time>
      </trkpt>
      <trkpt lat="47.69531" lon="-3.36893">
        <ele>-2.27</ele>
        <time>2015-10-10T15:34:11Z</time>
      </trkpt>
      <trkpt lat="47.69533" lon="-3.36894">
        <ele>-2.27</ele>
        <time>2015-10-10T15:34:12Z</time>
      </trkpt>
      <trkpt lat="47.69536" lon="-3.36894">
        <ele>-2.27</ele>
        <time>2015-10-10T15:34:13Z</time>
      </trkpt>
      <trkpt lat="47.69538" lon="-3.36894">
        <ele>-2.27</ele>
        <time>2015-10-10T15:34:14Z</time>
      </trkpt>
      <trkpt lat="47.6954" lon="-3.36894">
        <ele>-2.27</ele>
        <time>2015-10-10T15:34:15Z</time>
      </trkpt>
      <trkpt lat="47.69542" lon="-3.36894">
        <ele>-3.23</ele>
        <time>2015-10-10T15:34:16Z</time>
      </trkpt>
      <trkpt lat="47.69545" lon="-3.36894">
        <ele>-3.23</ele>
        <time>2015-10-10T15:34:17Z</time>
      </trkpt>
      <trkpt lat="47.69547" lon="-3.36894">
        <ele>-0.82</ele>
        <time>2015-10-10T15:34:18Z</time>
      </trkpt>
      <trkpt lat="47.69549" lon="-3.36894">
        <ele>-0.82</ele>
        <time>2015-10-10T15:34:19Z</time>
      </trkpt>
      <trkpt lat="47.69552" lon="-3.36894">
        <ele>-0.82</ele>
        <time>2015-10-10T15:34:20Z</time>
      </trkpt>
      <trkpt lat="47.69555" lon="-3.36893">
        <ele>-2.75</ele>
        <time>2015-10-10T15:34:21Z</time>
      </trkpt>
      <trkpt lat="47.69558" lon="-3.36893">
        <ele>-2.75</ele>
        <time>2015-10-10T15:34:22Z</time>
      </trkpt>
      <trkpt lat="47.6956" lon="-3.36893">
        <ele>-1.3</ele>
        <time>2015-10-10T15:34:23Z</time>
      </trkpt>
      <trkpt lat="47.69563" lon="-3.36893">
        <ele>-1.3</ele>
        <time>2015-10-10T15:34:24Z</time>
      </trkpt>
      <trkpt lat="47.69565" lon="-3.36893">
        <ele>-1.3</ele>
        <time>2015-10-10T15:34:25Z</time>
      </trkpt>
      <trkpt lat="47.69567" lon="-3.36894">
        <ele>-1.3</ele>
        <time>2015-10-10T15:34:26Z</time>
      </trkpt>
      <trkpt lat="47.69569" lon="-3.36894">
        <ele>-1.3</ele>
        <time>2015-10-10T15:34:27Z</time>
      </trkpt>
      <trkpt lat="47.69572" lon="-3.36894">
        <ele>-1.3</ele>
        <time>2015-10-10T15:34:28Z</time>
      </trkpt>
      <trkpt lat="47.69574" lon="-3.36893">
        <ele>-1.3</ele>
        <time>2015-10-10T15:34:29Z</time>
      </trkpt>
      <trkpt lat="47.69577" lon="-3.36893">
        <ele>-1.3</ele>
        <time>2015-10-10T15:34:30Z</time>
      </trkpt>
      <trkpt lat="47.69579" lon="-3.36893">
        <ele>-1.3</ele>
        <time>2015-10-10T15:34:31Z</time>
      </trkpt>
      <trkpt lat="47.69581" lon="-3.36893">
        <ele>-1.3</ele>
        <time>2015-10-10T15:34:32Z</time>
      </trkpt>
      <trkpt lat="47.69583" lon="-3.36893">
        <ele>-1.3</ele>
        <time>2015-10-10T15:34:33Z</time>
      </trkpt>
      <trkpt lat="47.69586" lon="-3.36893">
        <ele>-1.3</ele>
        <time>2015-10-10T15:34:34Z</time>
      </trkpt>
      <trkpt lat="47.69588" lon="-3.36892">
        <ele>-1.3</ele>
        <time>2015-10-10T15:34:35Z</time>
      </trkpt>
      <trkpt lat="47.6959" lon="-3.36892">
        <ele>-1.3</ele>
        <time>2015-10-10T15:34:36Z</time>
      </trkpt>
      <trkpt lat="47.69593" lon="-3.36891">
        <ele>-1.3</ele>
        <time>2015-10-10T15:34:37Z</time>
      </trkpt>
      <trkpt lat="47.69595" lon="-3.36891">
        <ele>-1.3</ele>
        <time>2015-10-10T15:34:38Z</time>
      </trkpt>
      <trkpt lat="47.69598" lon="-3.36891">
        <ele>-1.3</ele>
        <time>2015-10-10T15:34:39Z</time>
      </trkpt>
      <trkpt lat="47.696" lon="-3.36891">
        <ele>-1.3</ele>
        <time>2015-10-10T15:34:40Z</time>
      </trkpt>
      <trkpt lat="47.69602" lon="-3.36891">
        <ele>-1.3</ele>
        <time>2015-10-10T15:34:41Z</time>
      </trkpt>
      <trkpt lat="47.69604" lon="-3.3689">
        <ele>-1.3</ele>
        <time>2015-10-10T15:34:42Z</time>
      </trkpt>
      <trkpt lat="47.69607" lon="-3.3689">
        <ele>-1.3</ele>
        <time>2015-10-10T15:34:43Z</time>
      </trkpt>
      <trkpt lat="47.69609" lon="-3.3689">
        <ele>-1.3</ele>
        <time>2015-10-10T15:34:44Z</time>
      </trkpt>
      <trkpt lat="47.69612" lon="-3.3689">
        <ele>-1.3</ele>
        <time>2015-10-10T15:34:45Z</time>
      </trkpt>
      <trkpt lat="47.69614" lon="-3.3689">
        <ele>-1.3</ele>
        <time>2015-10-10T15:34:46Z</time>
      </trkpt>
      <trkpt lat="47.69616" lon="-3.3689">
        <ele>-1.3</ele>
        <time>2015-10-10T15:34:47Z</time>
      </trkpt>
      <trkpt lat="47.69618" lon="-3.3689">
        <ele>-1.3</ele>
        <time>2015-10-10T15:34:48Z</time>
      </trkpt>
      <trkpt lat="47.69621" lon="-3.3689">
        <ele>-1.3</ele>
        <time>2015-10-10T15:34:49Z</time>
      </trkpt>
      <trkpt lat="47.69623" lon="-3.3689">
        <ele>-1.3</ele>
        <time>2015-10-10T15:34:50Z</time>
      </trkpt>
      <trkpt lat="47.69625" lon="-3.3689">
        <ele>-1.3</ele>
        <time>2015-10-10T15:34:51Z</time>
      </trkpt>
      <trkpt lat="47.69627" lon="-3.36889">
        <ele>-0.82</ele>
        <time>2015-10-10T15:34:52Z</time>
      </trkpt>
      <trkpt lat="47.6963" lon="-3.3689">
        <ele>-0.82</ele>
        <time>2015-10-10T15:34:53Z</time>
      </trkpt>
      <trkpt lat="47.69632" lon="-3.3689">
        <ele>-2.27</ele>
        <time>2015-10-10T15:34:54Z</time>
      </trkpt>
      <trkpt lat="47.69634" lon="-3.3689">
        <ele>-2.27</ele>
        <time>2015-10-10T15:34:55Z</time>
      </trkpt>
      <trkpt lat="47.69636" lon="-3.36891">
        <ele>-2.27</ele>
        <time>2015-10-10T15:34:56Z</time>
      </trkpt>
      <trkpt lat="47.69639" lon="-3.36891">
        <ele>-0.82</ele>
        <time>2015-10-10T15:34:57Z</time>
      </trkpt>
      <trkpt lat="47.69641" lon="-3.36891">
        <ele>-0.82</ele>
        <time>2015-10-10T15:34:58Z</time>
      </trkpt>
      <trkpt lat="47.69643" lon="-3.36891">
        <ele>-0.82</ele>
        <time>2015-10-10T15:34:59Z</time>
      </trkpt>
      <trkpt lat="47.69646" lon="-3.36891">
        <ele>-0.82</ele>
        <time>2015-10-10T15:35:00Z</time>
      </trkpt>
      <trkpt lat="47.69648" lon="-3.36891">
        <ele>-0.82</ele>
        <time>2015-10-10T15:35:01Z</time>
      </trkpt>
      <trkpt lat="47.6965" lon="-3.36891">
        <ele>-0.82</ele>
        <time>2015-10-10T15:35:02Z</time>
      </trkpt>
      <trkpt lat="47.69653" lon="-3.36891">
        <ele>-0.82</ele>
        <time>2015-10-10T15:35:03Z</time>
      </trkpt>
      <trkpt lat="47.69655" lon="-3.36891">
        <ele>-0.82</ele>
        <time>2015-10-10T15:35:04Z</time>
      </trkpt>
      <trkpt lat="47.69657" lon="-3.36892">
        <ele>-0.82</ele>
        <time>2015-10-10T15:35:05Z</time>
      </trkpt>
      <trkpt lat="47.6966" lon="-3.36892">
        <ele>-2.27</ele>
        <time>2015-10-10T15:35:06Z</time>
      </trkpt>
      <trkpt lat="47.69663" lon="-3.36892">
        <ele>-2.27</ele>
        <time>2015-10-10T15:35:07Z</time>
      </trkpt>
      <trkpt lat="47.69665" lon="-3.36891">
        <ele>-2.27</ele>
        <time>2015-10-10T15:35:08Z</time>
      </trkpt>
      <trkpt lat="47.69667" lon="-3.36891">
        <ele>-2.27</ele>
        <time>2015-10-10T15:35:09Z</time>
      </trkpt>
      <trkpt lat="47.6967" lon="-3.3689">
        <ele>-2.27</ele>
        <time>2015-10-10T15:35:10Z</time>
      </trkpt>
      <trkpt lat="47.69672" lon="-3.3689">
        <ele>-2.27</ele>
        <time>2015-10-10T15:35:11Z</time>
      </trkpt>
      <trkpt lat="47.69674" lon="-3.36889">
        <ele>-1.3</ele>
        <time>2015-10-10T15:35:12Z</time>
      </trkpt>
      <trkpt lat="47.69677" lon="-3.36888">
        <ele>-0.82</ele>
        <time>2015-10-10T15:35:13Z</time>
      </trkpt>
      <trkpt lat="47.69679" lon="-3.36887">
        <ele>-0.82</ele>
        <time>2015-10-10T15:35:14Z</time>
      </trkpt>
      <trkpt lat="47.69682" lon="-3.36887">
        <ele>-1.3</ele>
        <time>2015-10-10T15:35:15Z</time>
      </trkpt>
      <trkpt lat="47.69684" lon="-3.36886">
        <ele>-1.3</ele>
        <time>2015-10-10T15:35:16Z</time>
      </trkpt>
      <trkpt lat="47.69687" lon="-3.36886">
        <ele>-0.82</ele>
        <time>2015-10-10T15:35:17Z</time>
      </trkpt>
      <trkpt lat="47.6969" lon="-3.36886">
        <ele>-0.82</ele>
        <time>2015-10-10T15:35:18Z</time>
      </trkpt>
      <trkpt lat="47.69692" lon="-3.36886">
        <ele>-1.3</ele>
        <time>2015-10-10T15:35:19Z</time>
      </trkpt>
      <trkpt lat="47.69695" lon="-3.36886">
        <ele>-1.3</ele>
        <time>2015-10-10T15:35:20Z</time>
      </trkpt>
      <trkpt lat="47.69697" lon="-3.36886">
        <ele>-0.82</ele>
        <time>2015-10-10T15:35:21Z</time>
      </trkpt>
      <trkpt lat="47.697" lon="-3.36886">
        <ele>-0.82</ele>
        <time>2015-10-10T15:35:22Z</time>
      </trkpt>
      <trkpt lat="47.69702" lon="-3.36885">
        <ele>-0.82</ele>
        <time>2015-10-10T15:35:23Z</time>
      </trkpt>
      <trkpt lat="47.69705" lon="-3.36885">
        <ele>-0.82</ele>
        <time>2015-10-10T15:35:24Z</time>
      </trkpt>
      <trkpt lat="47.69708" lon="-3.36885">
        <ele>-0.82</ele>
        <time>2015-10-10T15:35:25Z</time>
      </trkpt>
      <trkpt lat="47.6971" lon="-3.36885">
        <ele>-0.82</ele>
        <time>2015-10-10T15:35:26Z</time>
      </trkpt>
      <trkpt lat="47.69713" lon="-3.36885">
        <ele>-1.3</ele>
        <time>2015-10-10T15:35:27Z</time>
      </trkpt>
      <trkpt lat="47.69715" lon="-3.36885">
        <ele>-1.3</ele>
        <time>2015-10-10T15:35:28Z</time>
      </trkpt>
      <trkpt lat="47.69718" lon="-3.36885">
        <ele>-1.3</ele>
        <time>2015-10-10T15:35:29Z</time>
      </trkpt>
      <trkpt lat="47.6972" lon="-3.36885">
        <ele>-1.3</ele>
        <time>2015-10-10T15:35:30Z</time>
      </trkpt>
      <trkpt lat="47.69723" lon="-3.36884">
        <ele>-1.3</ele>
        <time>2015-10-10T15:35:31Z</time>
      </trkpt>
      <trkpt lat="47.69725" lon="-3.36884">
        <ele>-1.3</ele>
        <time>2015-10-10T15:35:32Z</time>
      </trkpt>
      <trkpt lat="47.69728" lon="-3.36884">
        <ele>-1.3</ele>
        <time>2015-10-10T15:35:33Z</time>
      </trkpt>
      <trkpt lat="47.6973" lon="-3.36884">
        <ele>-0.82</ele>
        <time>2015-10-10T15:35:34Z</time>
      </trkpt>
      <trkpt lat="47.69733" lon="-3.36884">
        <ele>-1.3</ele>
        <time>2015-10-10T15:35:35Z</time>
      </trkpt>
      <trkpt lat="47.69735" lon="-3.36884">
        <ele>-1.3</ele>
        <time>2015-10-10T15:35:36Z</time>
      </trkpt>
      <trkpt lat="47.69738" lon="-3.36884">
        <ele>-1.3</ele>
        <time>2015-10-10T15:35:37Z</time>
      </trkpt>
      <trkpt lat="47.6974" lon="-3.36884">
        <ele>-0.82</ele>
        <time>2015-10-10T15:35:38Z</time>
      </trkpt>
      <trkpt lat="47.69742" lon="-3.36884">
        <ele>-0.82</ele>
        <time>2015-10-10T15:35:39Z</time>
      </trkpt>
      <trkpt lat="47.69745" lon="-3.36883">
        <ele>-0.82</ele>
        <time>2015-10-10T15:35:40Z</time>
      </trkpt>
      <trkpt lat="47.69747" lon="-3.36882">
        <ele>-0.82</ele>
        <time>2015-10-10T15:35:41Z</time>
      </trkpt>
      <trkpt lat="47.6975" lon="-3.36882">
        <ele>-0.82</ele>
        <time>2015-10-10T15:35:42Z</time>
      </trkpt>
      <trkpt lat="47.69752" lon="-3.36881">
        <ele>-0.82</ele>
        <time>2015-10-10T15:35:43Z</time>
      </trkpt>
      <trkpt lat="47.69755" lon="-3.36881">
        <ele>-0.82</ele>
        <time>2015-10-10T15:35:44Z</time>
      </trkpt>
      <trkpt lat="47.69758" lon="-3.36881">
        <ele>-0.82</ele>
        <time>2015-10-10T15:35:45Z</time>
      </trkpt>
      <trkpt lat="47.6976" lon="-3.36881">
        <ele>-0.82</ele>
        <time>2015-10-10T15:35:46Z</time>
      </trkpt>
      <trkpt lat="47.69763" lon="-3.3688">
        <ele>-0.82</ele>
        <time>2015-10-10T15:35:47Z</time>
      </trkpt>
      <trkpt lat="47.69765" lon="-3.3688">
        <ele>-0.82</ele>
        <time>2015-10-10T15:35:48Z</time>
      </trkpt>
      <trkpt lat="47.69768" lon="-3.36879">
        <ele>-0.82</ele>
        <time>2015-10-10T15:35:49Z</time>
      </trkpt>
      <trkpt lat="47.6977" lon="-3.36879">
        <ele>-0.82</ele>
        <time>2015-10-10T15:35:50Z</time>
      </trkpt>
      <trkpt lat="47.69773" lon="-3.36879">
        <ele>-0.82</ele>
        <time>2015-10-10T15:35:51Z</time>
      </trkpt>
      <trkpt lat="47.69776" lon="-3.36879">
        <ele>-0.82</ele>
        <time>2015-10-10T15:35:52Z</time>
      </trkpt>
      <trkpt lat="47.69778" lon="-3.36878">
        <ele>-0.82</ele>
        <time>2015-10-10T15:35:53Z</time>
      </trkpt>
      <trkpt lat="47.69781" lon="-3.36878">
        <ele>-0.82</ele>
        <time>2015-10-10T15:35:54Z</time>
      </trkpt>
      <trkpt lat="47.69783" lon="-3.36877">
        <ele>-0.82</ele>
        <time>2015-10-10T15:35:55Z</time>
      </trkpt>
      <trkpt lat="47.69786" lon="-3.36877">
        <ele>-0.82</ele>
        <time>2015-10-10T15:35:56Z</time>
      </trkpt>
      <trkpt lat="47.69788" lon="-3.36877">
        <ele>-0.82</ele>
        <time>2015-10-10T15:35:57Z</time>
      </trkpt>
      <trkpt lat="47.69791" lon="-3.36877">
        <ele>-2.27</ele>
        <time>2015-10-10T15:35:58Z</time>
      </trkpt>
      <trkpt lat="47.69793" lon="-3.36877">
        <ele>-2.27</ele>
        <time>2015-10-10T15:35:59Z</time>
      </trkpt>
      <trkpt lat="47.69796" lon="-3.36876">
        <ele>-2.27</ele>
        <time>2015-10-10T15:36:00Z</time>
      </trkpt>
      <trkpt lat="47.69798" lon="-3.36876">
        <ele>-2.27</ele>
        <time>2015-10-10T15:36:01Z</time>
      </trkpt>
      <trkpt lat="47.69801" lon="-3.36875">
        <ele>-2.27</ele>
        <time>2015-10-10T15:36:02Z</time>
      </trkpt>
      <trkpt lat="47.69803" lon="-3.36875">
        <ele>-2.27</ele>
        <time>2015-10-10T15:36:03Z</time>
      </trkpt>
      <trkpt lat="47.69806" lon="-3.36874">
        <ele>-2.27</ele>
        <time>2015-10-10T15:36:04Z</time>
      </trkpt>
      <trkpt lat="47.69808" lon="-3.36874">
        <ele>-2.27</ele>
        <time>2015-10-10T15:36:05Z</time>
      </trkpt>
      <trkpt lat="47.6981" lon="-3.36873">
        <ele>-2.27</ele>
        <time>2015-10-10T15:36:06Z</time>
      </trkpt>
      <trkpt lat="47.69813" lon="-3.36873">
        <ele>-2.27</ele>
        <time>2015-10-10T15:36:07Z</time>
      </trkpt>
      <trkpt lat="47.69815" lon="-3.36872">
        <ele>-2.27</ele>
        <time>2015-10-10T15:36:08Z</time>
      </trkpt>
      <trkpt lat="47.69817" lon="-3.36872">
        <ele>-2.27</ele>
        <time>2015-10-10T15:36:09Z</time>
      </trkpt>
      <trkpt lat="47.6982" lon="-3.36872">
        <ele>-0.82</ele>
        <time>2015-10-10T15:36:10Z</time>
      </trkpt>
      <trkpt lat="47.69822" lon="-3.36871">
        <ele>-0.82</ele>
        <time>2015-10-10T15:36:11Z</time>
      </trkpt>
      <trkpt lat="47.69825" lon="-3.3687">
        <ele>-0.82</ele>
        <time>2015-10-10T15:36:12Z</time>
      </trkpt>
      <trkpt lat="47.69827" lon="-3.36869">
        <ele>-0.82</ele>
        <time>2015-10-10T15:36:13Z</time>
      </trkpt>
      <trkpt lat="47.6983" lon="-3.36869">
        <ele>-0.82</ele>
        <time>2015-10-10T15:36:14Z</time>
      </trkpt>
      <trkpt lat="47.69832" lon="-3.36868">
        <ele>-0.82</ele>
        <time>2015-10-10T15:36:15Z</time>
      </trkpt>
      <trkpt lat="47.69835" lon="-3.36867">
        <ele>-0.82</ele>
        <time>2015-10-10T15:36:16Z</time>
      </trkpt>
      <trkpt lat="47.69837" lon="-3.36867">
        <ele>-0.82</ele>
        <time>2015-10-10T15:36:17Z</time>
      </trkpt>
      <trkpt lat="47.69839" lon="-3.36867">
        <ele>-2.27</ele>
        <time>2015-10-10T15:36:18Z</time>
      </trkpt>
      <trkpt lat="47.69842" lon="-3.36867">
        <ele>-2.27</ele>
        <time>2015-10-10T15:36:19Z</time>
      </trkpt>
      <trkpt lat="47.69844" lon="-3.36866">
        <ele>-2.27</ele>
        <time>2015-10-10T15:36:20Z</time>
      </trkpt>
      <trkpt lat="47.69846" lon="-3.36866">
        <ele>-2.27</ele>
        <time>2015-10-10T15:36:21Z</time>
      </trkpt>
      <trkpt lat="47.69848" lon="-3.36866">
        <ele>-2.27</ele>
        <time>2015-10-10T15:36:22Z</time>
      </trkpt>
      <trkpt lat="47.69851" lon="-3.36866">
        <ele>-2.27</ele>
        <time>2015-10-10T15:36:23Z</time>
      </trkpt>
      <trkpt lat="47.69853" lon="-3.36866">
        <ele>-2.27</ele>
        <time>2015-10-10T15:36:24Z</time>
      </trkpt>
      <trkpt lat="47.69855" lon="-3.36866">
        <ele>-2.27</ele>
        <time>2015-10-10T15:36:25Z</time>
      </trkpt>
      <trkpt lat="47.69858" lon="-3.36865">
        <ele>-2.27</ele>
        <time>2015-10-10T15:36:26Z</time>
      </trkpt>
      <trkpt lat="47.6986" lon="-3.36864">
        <ele>-2.27</ele>
        <time>2015-10-10T15:36:27Z</time>
      </trkpt>
      <trkpt lat="47.69863" lon="-3.36864">
        <ele>-2.27</ele>
        <time>2015-10-10T15:36:28Z</time>
      </trkpt>
      <trkpt lat="47.69865" lon="-3.36863">
        <ele>-2.27</ele>
        <time>2015-10-10T15:36:29Z</time>
      </trkpt>
      <trkpt lat="47.69867" lon="-3.36863">
        <ele>-2.27</ele>
        <time>2015-10-10T15:36:30Z</time>
      </trkpt>
      <trkpt lat="47.69869" lon="-3.36862">
        <ele>-2.27</ele>
        <time>2015-10-10T15:36:31Z</time>
      </trkpt>
      <trkpt lat="47.69872" lon="-3.36862">
        <ele>-2.27</ele>
        <time>2015-10-10T15:36:32Z</time>
      </trkpt>
      <trkpt lat="47.69874" lon="-3.36861">
        <ele>-2.27</ele>
        <time>2015-10-10T15:36:33Z</time>
      </trkpt>
      <trkpt lat="47.69877" lon="-3.36861">
        <ele>-2.27</ele>
        <time>2015-10-10T15:36:34Z</time>
      </trkpt>
      <trkpt lat="47.69879" lon="-3.3686">
        <ele>-2.27</ele>
        <time>2015-10-10T15:36:35Z</time>
      </trkpt>
      <trkpt lat="47.69881" lon="-3.3686">
        <ele>-2.27</ele>
        <time>2015-10-10T15:36:36Z</time>
      </trkpt>
      <trkpt lat="47.69883" lon="-3.36859">
        <ele>-2.27</ele>
        <time>2015-10-10T15:36:37Z</time>
      </trkpt>
      <trkpt lat="47.69885" lon="-3.36859">
        <ele>-2.27</ele>
        <time>2015-10-10T15:36:38Z</time>
      </trkpt>
      <trkpt lat="47.69887" lon="-3.36858">
        <ele>-2.27</ele>
        <time>2015-10-10T15:36:39Z</time>
      </trkpt>
      <trkpt lat="47.6989" lon="-3.36858">
        <ele>-2.27</ele>
        <time>2015-10-10T15:36:40Z</time>
      </trkpt>
      <trkpt lat="47.69892" lon="-3.36857">
        <ele>-2.27</ele>
        <time>2015-10-10T15:36:41Z</time>
      </trkpt>
      <trkpt lat="47.69894" lon="-3.36857">
        <ele>-2.27</ele>
        <time>2015-10-10T15:36:42Z</time>
      </trkpt>
      <trkpt lat="47.69896" lon="-3.36857">
        <ele>-2.27</ele>
        <time>2015-10-10T15:36:43Z</time>
      </trkpt>
      <trkpt lat="47.69898" lon="-3.36856">
        <ele>-2.27</ele>
        <time>2015-10-10T15:36:44Z</time>
      </trkpt>
      <trkpt lat="47.699" lon="-3.36856">
        <ele>-2.27</ele>
        <time>2015-10-10T15:36:45Z</time>
      </trkpt>
      <trkpt lat="47.69903" lon="-3.36856">
        <ele>-2.27</ele>
        <time>2015-10-10T15:36:46Z</time>
      </trkpt>
      <trkpt lat="47.69904" lon="-3.36855">
        <ele>-2.27</ele>
        <time>2015-10-10T15:36:47Z</time>
      </trkpt>
      <trkpt lat="47.69907" lon="-3.36855">
        <ele>-0.82</ele>
        <time>2015-10-10T15:36:48Z</time>
      </trkpt>
      <trkpt lat="47.69909" lon="-3.36855">
        <ele>-0.82</ele>
        <time>2015-10-10T15:36:49Z</time>
      </trkpt>
      <trkpt lat="47.69911" lon="-3.36854">
        <ele>-0.82</ele>
        <time>2015-10-10T15:36:50Z</time>
      </trkpt>
      <trkpt lat="47.69913" lon="-3.36853">
        <ele>-0.34</ele>
        <time>2015-10-10T15:36:51Z</time>
      </trkpt>
      <trkpt lat="47.69916" lon="-3.36853">
        <ele>-0.34</ele>
        <time>2015-10-10T15:36:52Z</time>
      </trkpt>
      <trkpt lat="47.69918" lon="-3.36852">
        <ele>-0.34</ele>
        <time>2015-10-10T15:36:53Z</time>
      </trkpt>
      <trkpt lat="47.69921" lon="-3.3685">
        <ele>-0.34</ele>
        <time>2015-10-10T15:36:54Z</time>
      </trkpt>
      <trkpt lat="47.69923" lon="-3.3685">
        <ele>-0.34</ele>
        <time>2015-10-10T15:36:55Z</time>
      </trkpt>
      <trkpt lat="47.69926" lon="-3.3685">
        <ele>-1.79</ele>
        <time>2015-10-10T15:36:56Z</time>
      </trkpt>
      <trkpt lat="47.69928" lon="-3.36849">
        <ele>-1.79</ele>
        <time>2015-10-10T15:36:57Z</time>
      </trkpt>
      <trkpt lat="47.6993" lon="-3.36848">
        <ele>-1.79</ele>
        <time>2015-10-10T15:36:58Z</time>
      </trkpt>
      <trkpt lat="47.69932" lon="-3.36847">
        <ele>-1.79</ele>
        <time>2015-10-10T15:36:59Z</time>
      </trkpt>
      <trkpt lat="47.69934" lon="-3.36847">
        <ele>-1.79</ele>
        <time>2015-10-10T15:37:00Z</time>
      </trkpt>
      <trkpt lat="47.69937" lon="-3.36846">
        <ele>-1.79</ele>
        <time>2015-10-10T15:37:01Z</time>
      </trkpt>
      <trkpt lat="47.69939" lon="-3.36845">
        <ele>-1.79</ele>
        <time>2015-10-10T15:37:02Z</time>
      </trkpt>
      <trkpt lat="47.69941" lon="-3.36844">
        <ele>-1.79</ele>
        <time>2015-10-10T15:37:03Z</time>
      </trkpt>
      <trkpt lat="47.69944" lon="-3.36843">
        <ele>-1.79</ele>
        <time>2015-10-10T15:37:04Z</time>
      </trkpt>
      <trkpt lat="47.69946" lon="-3.36843">
        <ele>-1.79</ele>
        <time>2015-10-10T15:37:05Z</time>
      </trkpt>
      <trkpt lat="47.69949" lon="-3.36842">
        <ele>-1.79</ele>
        <time>2015-10-10T15:37:06Z</time>
      </trkpt>
      <trkpt lat="47.6995" lon="-3.36842">
        <ele>-1.79</ele>
        <time>2015-10-10T15:37:07Z</time>
      </trkpt>
      <trkpt lat="47.69953" lon="-3.36841">
        <ele>-1.79</ele>
        <time>2015-10-10T15:37:08Z</time>
      </trkpt>
      <trkpt lat="47.69955" lon="-3.36841">
        <ele>-1.79</ele>
        <time>2015-10-10T15:37:09Z</time>
      </trkpt>
      <trkpt lat="47.69957" lon="-3.3684">
        <ele>-1.79</ele>
        <time>2015-10-10T15:37:10Z</time>
      </trkpt>
      <trkpt lat="47.6996" lon="-3.36839">
        <ele>-1.79</ele>
        <time>2015-10-10T15:37:11Z</time>
      </trkpt>
      <trkpt lat="47.69962" lon="-3.36838">
        <ele>-1.79</ele>
        <time>2015-10-10T15:37:12Z</time>
      </trkpt>
      <trkpt lat="47.69964" lon="-3.36838">
        <ele>-1.79</ele>
        <time>2015-10-10T15:37:13Z</time>
      </trkpt>
      <trkpt lat="47.69966" lon="-3.36837">
        <ele>-1.79</ele>
        <time>2015-10-10T15:37:14Z</time>
      </trkpt>
      <trkpt lat="47.69969" lon="-3.36836">
        <ele>-1.79</ele>
        <time>2015-10-10T15:37:15Z</time>
      </trkpt>
      <trkpt lat="47.69972" lon="-3.36835">
        <ele>-1.79</ele>
        <time>2015-10-10T15:37:16Z</time>
      </trkpt>
      <trkpt lat="47.69974" lon="-3.36835">
        <ele>-1.79</ele>
        <time>2015-10-10T15:37:17Z</time>
      </trkpt>
      <trkpt lat="47.69976" lon="-3.36834">
        <ele>-2.27</ele>
        <time>2015-10-10T15:37:18Z</time>
      </trkpt>
      <trkpt lat="47.69978" lon="-3.36833">
        <ele>-2.27</ele>
        <time>2015-10-10T15:37:19Z</time>
      </trkpt>
      <trkpt lat="47.6998" lon="-3.36833">
        <ele>-2.27</ele>
        <time>2015-10-10T15:37:20Z</time>
      </trkpt>
      <trkpt lat="47.69982" lon="-3.36832">
        <ele>-2.27</ele>
        <time>2015-10-10T15:37:21Z</time>
      </trkpt>
      <trkpt lat="47.69985" lon="-3.36832">
        <ele>-2.27</ele>
        <time>2015-10-10T15:37:22Z</time>
      </trkpt>
      <trkpt lat="47.69987" lon="-3.36831">
        <ele>-0.82</ele>
        <time>2015-10-10T15:37:23Z</time>
      </trkpt>
      <trkpt lat="47.69989" lon="-3.36831">
        <ele>-0.82</ele>
        <time>2015-10-10T15:37:24Z</time>
      </trkpt>
      <trkpt lat="47.69991" lon="-3.3683">
        <ele>-2.27</ele>
        <time>2015-10-10T15:37:25Z</time>
      </trkpt>
      <trkpt lat="47.69993" lon="-3.3683">
        <ele>-2.27</ele>
        <time>2015-10-10T15:37:26Z</time>
      </trkpt>
      <trkpt lat="47.69996" lon="-3.36829">
        <ele>-2.27</ele>
        <time>2015-10-10T15:37:27Z</time>
      </trkpt>
      <trkpt lat="47.69998" lon="-3.36829">
        <ele>-2.27</ele>
        <time>2015-10-10T15:37:28Z</time>
      </trkpt>
      <trkpt lat="47.7" lon="-3.36828">
        <ele>-2.27</ele>
        <time>2015-10-10T15:37:29Z</time>
      </trkpt>
      <trkpt lat="47.70002" lon="-3.36828">
        <ele>-2.27</ele>
        <time>2015-10-10T15:37:30Z</time>
      </trkpt>
      <trkpt lat="47.70004" lon="-3.36828">
        <ele>-2.27</ele>
        <time>2015-10-10T15:37:31Z</time>
      </trkpt>
      <trkpt lat="47.70006" lon="-3.36827">
        <ele>-2.27</ele>
        <time>2015-10-10T15:37:32Z</time>
      </trkpt>
      <trkpt lat="47.70008" lon="-3.36827">
        <ele>-2.27</ele>
        <time>2015-10-10T15:37:33Z</time>
      </trkpt>
      <trkpt lat="47.7001" lon="-3.36827">
        <ele>-2.27</ele>
        <time>2015-10-10T15:37:34Z</time>
      </trkpt>
      <trkpt lat="47.70012" lon="-3.36826">
        <ele>-2.27</ele>
        <time>2015-10-10T15:37:35Z</time>
      </trkpt>
      <trkpt lat="47.70015" lon="-3.36826">
        <ele>-2.27</ele>
        <time>2015-10-10T15:37:36Z</time>
      </trkpt>
      <trkpt lat="47.70017" lon="-3.36825">
        <ele>-2.27</ele>
        <time>2015-10-10T15:37:37Z</time>
      </trkpt>
      <trkpt lat="47.70019" lon="-3.36824">
        <ele>-2.27</ele>
        <time>2015-10-10T15:37:38Z</time>
      </trkpt>
      <trkpt lat="47.70021" lon="-3.36824">
        <ele>-2.27</ele>
        <time>2015-10-10T15:37:39Z</time>
      </trkpt>
      <trkpt lat="47.70023" lon="-3.36823">
        <ele>-2.27</ele>
        <time>2015-10-10T15:37:40Z</time>
      </trkpt>
      <trkpt lat="47.70025" lon="-3.36822">
        <ele>-2.27</ele>
        <time>2015-10-10T15:37:41Z</time>
      </trkpt>
      <trkpt lat="47.70028" lon="-3.36822">
        <ele>-2.27</ele>
        <time>2015-10-10T15:37:42Z</time>
      </trkpt>
      <trkpt lat="47.7003" lon="-3.36821">
        <ele>-2.27</ele>
        <time>2015-10-10T15:37:43Z</time>
      </trkpt>
      <trkpt lat="47.70032" lon="-3.36821">
        <ele>-2.27</ele>
        <time>2015-10-10T15:37:44Z</time>
      </trkpt>
      <trkpt lat="47.70035" lon="-3.36821">
        <ele>-2.27</ele>
        <time>2015-10-10T15:37:45Z</time>
      </trkpt>
      <trkpt lat="47.70037" lon="-3.3682">
        <ele>-2.27</ele>
        <time>2015-10-10T15:37:46Z</time>
      </trkpt>
      <trkpt lat="47.70039" lon="-3.3682">
        <ele>-2.27</ele>
        <time>2015-10-10T15:37:47Z</time>
      </trkpt>
      <trkpt lat="47.70042" lon="-3.36819">
        <ele>-2.27</ele>
        <time>2015-10-10T15:37:48Z</time>
      </trkpt>
      <trkpt lat="47.70045" lon="-3.36819">
        <ele>-2.27</ele>
        <time>2015-10-10T15:37:49Z</time>
      </trkpt>
      <trkpt lat="47.70047" lon="-3.36819">
        <ele>-2.27</ele>
        <time>2015-10-10T15:37:50Z</time>
      </trkpt>
      <trkpt lat="47.7005" lon="-3.36819">
        <ele>-2.27</ele>
        <time>2015-10-10T15:37:51Z</time>
      </trkpt>
      <trkpt lat="47.70052" lon="-3.36818">
        <ele>-2.27</ele>
        <time>2015-10-10T15:37:52Z</time>
      </trkpt>
      <trkpt lat="47.70054" lon="-3.36818">
        <ele>-2.27</ele>
        <time>2015-10-10T15:37:53Z</time>
      </trkpt>
      <trkpt lat="47.70057" lon="-3.36817">
        <ele>-2.27</ele>
        <time>2015-10-10T15:37:54Z</time>
      </trkpt>
      <trkpt lat="47.70059" lon="-3.36816">
        <ele>-2.27</ele>
        <time>2015-10-10T15:37:55Z</time>
      </trkpt>
      <trkpt lat="47.70061" lon="-3.36815">
        <ele>-2.27</ele>
        <time>2015-10-10T15:37:56Z</time>
      </trkpt>
      <trkpt lat="47.70063" lon="-3.36814">
        <ele>-2.27</ele>
        <time>2015-10-10T15:37:57Z</time>
      </trkpt>
      <trkpt lat="47.70066" lon="-3.36813">
        <ele>-2.27</ele>
        <time>2015-10-10T15:37:58Z</time>
      </trkpt>
      <trkpt lat="47.70068" lon="-3.36813">
        <ele>-1.79</ele>
        <time>2015-10-10T15:37:59Z</time>
      </trkpt>
      <trkpt lat="47.7007" lon="-3.36813">
        <ele>-1.79</ele>
        <time>2015-10-10T15:38:00Z</time>
      </trkpt>
      <trkpt lat="47.70072" lon="-3.36813">
        <ele>-2.27</ele>
        <time>2015-10-10T15:38:01Z</time>
      </trkpt>
      <trkpt lat="47.70075" lon="-3.36813">
        <ele>-1.79</ele>
        <time>2015-10-10T15:38:02Z</time>
      </trkpt>
      <trkpt lat="47.70077" lon="-3.36812">
        <ele>-1.79</ele>
        <time>2015-10-10T15:38:03Z</time>
      </trkpt>
      <trkpt lat="47.70079" lon="-3.36812">
        <ele>-1.79</ele>
        <time>2015-10-10T15:38:04Z</time>
      </trkpt>
      <trkpt lat="47.70081" lon="-3.36812">
        <ele>-1.79</ele>
        <time>2015-10-10T15:38:05Z</time>
      </trkpt>
      <trkpt lat="47.70084" lon="-3.36812">
        <ele>-1.79</ele>
        <time>2015-10-10T15:38:06Z</time>
      </trkpt>
      <trkpt lat="47.70086" lon="-3.36812">
        <ele>-1.79</ele>
        <time>2015-10-10T15:38:07Z</time>
      </trkpt>
      <trkpt lat="47.70088" lon="-3.36811">
        <ele>-2.27</ele>
        <time>2015-10-10T15:38:08Z</time>
      </trkpt>
      <trkpt lat="47.70091" lon="-3.36811">
        <ele>-2.75</ele>
        <time>2015-10-10T15:38:09Z</time>
      </trkpt>
      <trkpt lat="47.70093" lon="-3.36811">
        <ele>-2.27</ele>
        <time>2015-10-10T15:38:10Z</time>
      </trkpt>
      <trkpt lat="47.70095" lon="-3.36811">
        <ele>-2.27</ele>
        <time>2015-10-10T15:38:11Z</time>
      </trkpt>
      <trkpt lat="47.70098" lon="-3.36811">
        <ele>-2.75</ele>
        <time>2015-10-10T15:38:12Z</time>
      </trkpt>
      <trkpt lat="47.701" lon="-3.36811">
        <ele>-2.27</ele>
        <time>2015-10-10T15:38:13Z</time>
      </trkpt>
      <trkpt lat="47.70102" lon="-3.36811">
        <ele>-2.27</ele>
        <time>2015-10-10T15:38:14Z</time>
      </trkpt>
      <trkpt lat="47.70105" lon="-3.3681">
        <ele>-2.27</ele>
        <time>2015-10-10T15:38:15Z</time>
      </trkpt>
      <trkpt lat="47.70107" lon="-3.3681">
        <ele>-2.27</ele>
        <time>2015-10-10T15:38:16Z</time>
      </trkpt>
      <trkpt lat="47.70109" lon="-3.3681">
        <ele>-2.27</ele>
        <time>2015-10-10T15:38:17Z</time>
      </trkpt>
      <trkpt lat="47.70112" lon="-3.3681">
        <ele>-2.27</ele>
        <time>2015-10-10T15:38:18Z</time>
      </trkpt>
      <trkpt lat="47.70114" lon="-3.3681">
        <ele>-2.27</ele>
        <time>2015-10-10T15:38:19Z</time>
      </trkpt>
      <trkpt lat="47.70116" lon="-3.3681">
        <ele>-0.82</ele>
        <time>2015-10-10T15:38:20Z</time>
      </trkpt>
      <trkpt lat="47.70119" lon="-3.36809">
        <ele>-0.82</ele>
        <time>2015-10-10T15:38:21Z</time>
      </trkpt>
      <trkpt lat="47.70121" lon="-3.36809">
        <ele>-0.82</ele>
        <time>2015-10-10T15:38:22Z</time>
      </trkpt>
      <trkpt lat="47.70123" lon="-3.36809">
        <ele>-0.82</ele>
        <time>2015-10-10T15:38:23Z</time>
      </trkpt>
      <trkpt lat="47.70126" lon="-3.36809">
        <ele>-2.27</ele>
        <time>2015-10-10T15:38:24Z</time>
      </trkpt>
      <trkpt lat="47.70128" lon="-3.36809">
        <ele>-2.27</ele>
        <time>2015-10-10T15:38:25Z</time>
      </trkpt>
      <trkpt lat="47.70131" lon="-3.36809">
        <ele>-2.27</ele>
        <time>2015-10-10T15:38:26Z</time>
      </trkpt>
      <trkpt lat="47.70133" lon="-3.36809">
        <ele>-2.27</ele>
        <time>2015-10-10T15:38:27Z</time>
      </trkpt>
      <trkpt lat="47.70135" lon="-3.3681">
        <ele>-2.27</ele>
        <time>2015-10-10T15:38:28Z</time>
      </trkpt>
      <trkpt lat="47.70138" lon="-3.3681">
        <ele>-2.27</ele>
        <time>2015-10-10T15:38:29Z</time>
      </trkpt>
      <trkpt lat="47.7014" lon="-3.3681">
        <ele>-2.27</ele>
        <time>2015-10-10T15:38:30Z</time>
      </trkpt>
      <trkpt lat="47.70143" lon="-3.3681">
        <ele>-1.79</ele>
        <time>2015-10-10T15:38:31Z</time>
      </trkpt>
      <trkpt lat="47.70145" lon="-3.3681">
        <ele>-1.79</ele>
        <time>2015-10-10T15:38:32Z</time>
      </trkpt>
      <trkpt lat="47.70147" lon="-3.3681">
        <ele>-1.79</ele>
        <time>2015-10-10T15:38:33Z</time>
      </trkpt>
      <trkpt lat="47.70149" lon="-3.36809">
        <ele>-2.27</ele>
        <time>2015-10-10T15:38:34Z</time>
      </trkpt>
      <trkpt lat="47.70152" lon="-3.36809">
        <ele>-2.27</ele>
        <time>2015-10-10T15:38:35Z</time>
      </trkpt>
      <trkpt lat="47.70154" lon="-3.36809">
        <ele>-2.27</ele>
        <time>2015-10-10T15:38:36Z</time>
      </trkpt>
      <trkpt lat="47.70156" lon="-3.36809">
        <ele>-2.27</ele>
        <time>2015-10-10T15:38:37Z</time>
      </trkpt>
      <trkpt lat="47.70158" lon="-3.36809">
        <ele>-2.27</ele>
        <time>2015-10-10T15:38:38Z</time>
      </trkpt>
      <trkpt lat="47.70161" lon="-3.36808">
        <ele>-2.27</ele>
        <time>2015-10-10T15:38:39Z</time>
      </trkpt>
      <trkpt lat="47.70163" lon="-3.36808">
        <ele>-2.27</ele>
        <time>2015-10-10T15:38:40Z</time>
      </trkpt>
      <trkpt lat="47.70165" lon="-3.36808">
        <ele>-2.27</ele>
        <time>2015-10-10T15:38:41Z</time>
      </trkpt>
      <trkpt lat="47.70168" lon="-3.36808">
        <ele>-2.27</ele>
        <time>2015-10-10T15:38:42Z</time>
      </trkpt>
      <trkpt lat="47.7017" lon="-3.36808">
        <ele>-2.27</ele>
        <time>2015-10-10T15:38:43Z</time>
      </trkpt>
      <trkpt lat="47.70172" lon="-3.36808">
        <ele>-2.27</ele>
        <time>2015-10-10T15:38:44Z</time>
      </trkpt>
      <trkpt lat="47.70174" lon="-3.36807">
        <ele>-2.27</ele>
        <time>2015-10-10T15:38:45Z</time>
      </trkpt>
      <trkpt lat="47.70177" lon="-3.36806">
        <ele>-2.27</ele>
        <time>2015-10-10T15:38:46Z</time>
      </trkpt>
      <trkpt lat="47.70179" lon="-3.36805">
        <ele>-2.27</ele>
        <time>2015-10-10T15:38:47Z</time>
      </trkpt>
      <trkpt lat="47.70181" lon="-3.36804">
        <ele>-2.27</ele>
        <time>2015-10-10T15:38:48Z</time>
      </trkpt>
      <trkpt lat="47.70183" lon="-3.36803">
        <ele>-2.27</ele>
        <time>2015-10-10T15:38:49Z</time>
      </trkpt>
      <trkpt lat="47.70186" lon="-3.36802">
        <ele>-2.27</ele>
        <time>2015-10-10T15:38:50Z</time>
      </trkpt>
      <trkpt lat="47.70188" lon="-3.36802">
        <ele>-2.27</ele>
        <time>2015-10-10T15:38:51Z</time>
      </trkpt>
      <trkpt lat="47.7019" lon="-3.36801">
        <ele>-2.27</ele>
        <time>2015-10-10T15:38:52Z</time>
      </trkpt>
      <trkpt lat="47.70193" lon="-3.36801">
        <ele>-2.27</ele>
        <time>2015-10-10T15:38:53Z</time>
      </trkpt>
      <trkpt lat="47.70195" lon="-3.368">
        <ele>-2.27</ele>
        <time>2015-10-10T15:38:54Z</time>
      </trkpt>
      <trkpt lat="47.70197" lon="-3.36799">
        <ele>-2.27</ele>
        <time>2015-10-10T15:38:55Z</time>
      </trkpt>
      <trkpt lat="47.70199" lon="-3.36799">
        <ele>-2.27</ele>
        <time>2015-10-10T15:38:56Z</time>
      </trkpt>
      <trkpt lat="47.70202" lon="-3.36798">
        <ele>-2.27</ele>
        <time>2015-10-10T15:38:57Z</time>
      </trkpt>
      <trkpt lat="47.70204" lon="-3.36797">
        <ele>-2.27</ele>
        <time>2015-10-10T15:38:58Z</time>
      </trkpt>
      <trkpt lat="47.70206" lon="-3.36796">
        <ele>-2.27</ele>
        <time>2015-10-10T15:38:59Z</time>
      </trkpt>
      <trkpt lat="47.70208" lon="-3.36796">
        <ele>-2.27</ele>
        <time>2015-10-10T15:39:00Z</time>
      </trkpt>
      <trkpt lat="47.70211" lon="-3.36795">
        <ele>-2.27</ele>
        <time>2015-10-10T15:39:01Z</time>
      </trkpt>
      <trkpt lat="47.70213" lon="-3.36795">
        <ele>-2.27</ele>
        <time>2015-10-10T15:39:02Z</time>
      </trkpt>
      <trkpt lat="47.70215" lon="-3.36794">
        <ele>-2.27</ele>
        <time>2015-10-10T15:39:03Z</time>
      </trkpt>
      <trkpt lat="47.70217" lon="-3.36793">
        <ele>-2.27</ele>
        <time>2015-10-10T15:39:04Z</time>
      </trkpt>
      <trkpt lat="47.7022" lon="-3.36793">
        <ele>-2.27</ele>
        <time>2015-10-10T15:39:05Z</time>
      </trkpt>
      <trkpt lat="47.70222" lon="-3.36792">
        <ele>-2.27</ele>
        <time>2015-10-10T15:39:06Z</time>
      </trkpt>
      <trkpt lat="47.70224" lon="-3.36792">
        <ele>-2.27</ele>
        <time>2015-10-10T15:39:07Z</time>
      </trkpt>
      <trkpt lat="47.70227" lon="-3.36791">
        <ele>-2.27</ele>
        <time>2015-10-10T15:39:08Z</time>
      </trkpt>
      <trkpt lat="47.70229" lon="-3.3679">
        <ele>-2.27</ele>
        <time>2015-10-10T15:39:09Z</time>
      </trkpt>
      <trkpt lat="47.70231" lon="-3.36789">
        <ele>-2.27</ele>
        <time>2015-10-10T15:39:10Z</time>
      </trkpt>
      <trkpt lat="47.70234" lon="-3.36788">
        <ele>-2.27</ele>
        <time>2015-10-10T15:39:11Z</time>
      </trkpt>
      <trkpt lat="47.70236" lon="-3.36788">
        <ele>-2.27</ele>
        <time>2015-10-10T15:39:12Z</time>
      </trkpt>
      <trkpt lat="47.70238" lon="-3.36787">
        <ele>-2.27</ele>
        <time>2015-10-10T15:39:13Z</time>
      </trkpt>
      <trkpt lat="47.70241" lon="-3.36786">
        <ele>-2.27</ele>
        <time>2015-10-10T15:39:14Z</time>
      </trkpt>
      <trkpt lat="47.70243" lon="-3.36786">
        <ele>-2.27</ele>
        <time>2015-10-10T15:39:15Z</time>
      </trkpt>
      <trkpt lat="47.70246" lon="-3.36785">
        <ele>-2.27</ele>
        <time>2015-10-10T15:39:16Z</time>
      </trkpt>
      <trkpt lat="47.70248" lon="-3.36785">
        <ele>-2.27</ele>
        <time>2015-10-10T15:39:17Z</time>
      </trkpt>
      <trkpt lat="47.70251" lon="-3.36784">
        <ele>-1.79</ele>
        <time>2015-10-10T15:39:18Z</time>
      </trkpt>
      <trkpt lat="47.70253" lon="-3.36783">
        <ele>-2.27</ele>
        <time>2015-10-10T15:39:19Z</time>
      </trkpt>
      <trkpt lat="47.70256" lon="-3.36783">
        <ele>-2.27</ele>
        <time>2015-10-10T15:39:20Z</time>
      </trkpt>
      <trkpt lat="47.70258" lon="-3.36782">
        <ele>-2.27</ele>
        <time>2015-10-10T15:39:21Z</time>
      </trkpt>
      <trkpt lat="47.7026" lon="-3.36781">
        <ele>-2.27</ele>
        <time>2015-10-10T15:39:22Z</time>
      </trkpt>
      <trkpt lat="47.70263" lon="-3.3678">
        <ele>-2.75</ele>
        <time>2015-10-10T15:39:23Z</time>
      </trkpt>
      <trkpt lat="47.70265" lon="-3.36779">
        <ele>-2.75</ele>
        <time>2015-10-10T15:39:24Z</time>
      </trkpt>
      <trkpt lat="47.70267" lon="-3.36779">
        <ele>-2.27</ele>
        <time>2015-10-10T15:39:25Z</time>
      </trkpt>
      <trkpt lat="47.7027" lon="-3.36778">
        <ele>-4.19</ele>
        <time>2015-10-10T15:39:26Z</time>
      </trkpt>
      <trkpt lat="47.70272" lon="-3.36777">
        <ele>0.14</ele>
        <time>2015-10-10T15:39:27Z</time>
      </trkpt>
      <trkpt lat="47.70275" lon="-3.36777">
        <ele>-2.27</ele>
        <time>2015-10-10T15:39:28Z</time>
      </trkpt>
      <trkpt lat="47.70277" lon="-3.36777">
        <ele>-2.27</ele>
        <time>2015-10-10T15:39:29Z</time>
      </trkpt>
      <trkpt lat="47.7028" lon="-3.36777">
        <ele>-2.27</ele>
        <time>2015-10-10T15:39:30Z</time>
      </trkpt>
      <trkpt lat="47.70282" lon="-3.36777">
        <ele>-2.27</ele>
        <time>2015-10-10T15:39:31Z</time>
      </trkpt>
      <trkpt lat="47.70285" lon="-3.36778">
        <ele>-2.27</ele>
        <time>2015-10-10T15:39:32Z</time>
      </trkpt>
      <trkpt lat="47.70287" lon="-3.36778">
        <ele>-2.75</ele>
        <time>2015-10-10T15:39:33Z</time>
      </trkpt>
      <trkpt lat="47.7029" lon="-3.36778">
        <ele>-2.75</ele>
        <time>2015-10-10T15:39:34Z</time>
      </trkpt>
      <trkpt lat="47.70292" lon="-3.36778">
        <ele>-2.75</ele>
        <time>2015-10-10T15:39:35Z</time>
      </trkpt>
      <trkpt lat="47.70294" lon="-3.36778">
        <ele>-3.23</ele>
        <time>2015-10-10T15:39:36Z</time>
      </trkpt>
      <trkpt lat="47.70297" lon="-3.36778">
        <ele>-3.23</ele>
        <time>2015-10-10T15:39:37Z</time>
      </trkpt>
      <trkpt lat="47.70299" lon="-3.36778">
        <ele>-3.23</ele>
        <time>2015-10-10T15:39:38Z</time>
      </trkpt>
      <trkpt lat="47.70301" lon="-3.36779">
        <ele>-3.71</ele>
        <time>2015-10-10T15:39:39Z</time>
      </trkpt>
      <trkpt lat="47.70303" lon="-3.36779">
        <ele>-3.71</ele>
        <time>2015-10-10T15:39:40Z</time>
      </trkpt>
      <trkpt lat="47.70306" lon="-3.36779">
        <ele>-3.71</ele>
        <time>2015-10-10T15:39:41Z</time>
      </trkpt>
      <trkpt lat="47.70308" lon="-3.36779">
        <ele>-3.71</ele>
        <time>2015-10-10T15:39:42Z</time>
      </trkpt>
      <trkpt lat="47.7031" lon="-3.36779">
        <ele>-3.71</ele>
        <time>2015-10-10T15:39:43Z</time>
      </trkpt>
      <trkpt lat="47.70312" lon="-3.36779">
        <ele>-3.71</ele>
        <time>2015-10-10T15:39:44Z</time>
      </trkpt>
      <trkpt lat="47.70314" lon="-3.36779">
        <ele>-3.71</ele>
        <time>2015-10-10T15:39:45Z</time>
      </trkpt>
      <trkpt lat="47.70316" lon="-3.36779">
        <ele>-3.71</ele>
        <time>2015-10-10T15:39:46Z</time>
      </trkpt>
      <trkpt lat="47.70319" lon="-3.36779">
        <ele>-3.71</ele>
        <time>2015-10-10T15:39:47Z</time>
      </trkpt>
      <trkpt lat="47.70321" lon="-3.36779">
        <ele>-3.71</ele>
        <time>2015-10-10T15:39:48Z</time>
      </trkpt>
      <trkpt lat="47.70323" lon="-3.36779">
        <ele>-3.71</ele>
        <time>2015-10-10T15:39:49Z</time>
      </trkpt>
      <trkpt lat="47.70325" lon="-3.36779">
        <ele>-3.71</ele>
        <time>2015-10-10T15:39:50Z</time>
      </trkpt>
      <trkpt lat="47.70327" lon="-3.3678">
        <ele>-3.71</ele>
        <time>2015-10-10T15:39:51Z</time>
      </trkpt>
      <trkpt lat="47.70329" lon="-3.3678">
        <ele>-3.71</ele>
        <time>2015-10-10T15:39:52Z</time>
      </trkpt>
      <trkpt lat="47.70331" lon="-3.3678">
        <ele>-3.71</ele>
        <time>2015-10-10T15:39:53Z</time>
      </trkpt>
      <trkpt lat="47.70334" lon="-3.3678">
        <ele>-3.71</ele>
        <time>2015-10-10T15:39:54Z</time>
      </trkpt>
      <trkpt lat="47.70336" lon="-3.3678">
        <ele>-3.71</ele>
        <time>2015-10-10T15:39:55Z</time>
      </trkpt>
      <trkpt lat="47.70338" lon="-3.3678">
        <ele>-3.71</ele>
        <time>2015-10-10T15:39:56Z</time>
      </trkpt>
      <trkpt lat="47.7034" lon="-3.36779">
        <ele>-4.19</ele>
        <time>2015-10-10T15:39:57Z</time>
      </trkpt>
      <trkpt lat="47.70342" lon="-3.36779">
        <ele>-2.75</ele>
        <time>2015-10-10T15:39:58Z</time>
      </trkpt>
      <trkpt lat="47.70344" lon="-3.36778">
        <ele>-1.3</ele>
        <time>2015-10-10T15:39:59Z</time>
      </trkpt>
      <trkpt lat="47.70346" lon="-3.36777">
        <ele>-1.3</ele>
        <time>2015-10-10T15:40:00Z</time>
      </trkpt>
      <trkpt lat="47.70348" lon="-3.36776">
        <ele>-1.3</ele>
        <time>2015-10-10T15:40:01Z</time>
      </trkpt>
      <trkpt lat="47.7035" lon="-3.36775">
        <ele>-1.3</ele>
        <time>2015-10-10T15:40:02Z</time>
      </trkpt>
      <trkpt lat="47.70352" lon="-3.36774">
        <ele>-1.3</ele>
        <time>2015-10-10T15:40:03Z</time>
      </trkpt>
      <trkpt lat="47.70355" lon="-3.36773">
        <ele>-1.3</ele>
        <time>2015-10-10T15:40:04Z</time>
      </trkpt>
      <trkpt lat="47.70357" lon="-3.36772">
        <ele>-1.3</ele>
        <time>2015-10-10T15:40:05Z</time>
      </trkpt>
      <trkpt lat="47.70358" lon="-3.36771">
        <ele>-3.71</ele>
        <time>2015-10-10T15:40:06Z</time>
      </trkpt>
      <trkpt lat="47.7036" lon="-3.36769">
        <ele>-3.71</ele>
        <time>2015-10-10T15:40:07Z</time>
      </trkpt>
      <trkpt lat="47.70362" lon="-3.36768">
        <ele>-1.3</ele>
        <time>2015-10-10T15:40:08Z</time>
      </trkpt>
      <trkpt lat="47.70364" lon="-3.36767">
        <ele>-1.3</ele>
        <time>2015-10-10T15:40:09Z</time>
      </trkpt>
      <trkpt lat="47.70366" lon="-3.36766">
        <ele>-1.3</ele>
        <time>2015-10-10T15:40:10Z</time>
      </trkpt>
      <trkpt lat="47.70368" lon="-3.36765">
        <ele>-1.3</ele>
        <time>2015-10-10T15:40:11Z</time>
      </trkpt>
      <trkpt lat="47.7037" lon="-3.36763">
        <ele>-3.23</ele>
        <time>2015-10-10T15:40:12Z</time>
      </trkpt>
      <trkpt lat="47.70372" lon="-3.36762">
        <ele>-3.23</ele>
        <time>2015-10-10T15:40:13Z</time>
      </trkpt>
      <trkpt lat="47.70374" lon="-3.36761">
        <ele>-1.79</ele>
        <time>2015-10-10T15:40:14Z</time>
      </trkpt>
      <trkpt lat="47.70376" lon="-3.36759">
        <ele>-1.79</ele>
        <time>2015-10-10T15:40:15Z</time>
      </trkpt>
      <trkpt lat="47.70378" lon="-3.36758">
        <ele>-1.79</ele>
        <time>2015-10-10T15:40:16Z</time>
      </trkpt>
      <trkpt lat="47.70379" lon="-3.36756">
        <ele>-2.75</ele>
        <time>2015-10-10T15:40:17Z</time>
      </trkpt>
      <trkpt lat="47.70381" lon="-3.36755">
        <ele>-2.75</ele>
        <time>2015-10-10T15:40:18Z</time>
      </trkpt>
      <trkpt lat="47.70383" lon="-3.36754">
        <ele>-2.75</ele>
        <time>2015-10-10T15:40:19Z</time>
      </trkpt>
      <trkpt lat="47.70385" lon="-3.36752">
        <ele>-2.75</ele>
        <time>2015-10-10T15:40:20Z</time>
      </trkpt>
      <trkpt lat="47.70387" lon="-3.36751">
        <ele>-2.75</ele>
        <time>2015-10-10T15:40:21Z</time>
      </trkpt>
      <trkpt lat="47.70389" lon="-3.36749">
        <ele>-2.75</ele>
        <time>2015-10-10T15:40:22Z</time>
      </trkpt>
      <trkpt lat="47.70391" lon="-3.36747">
        <ele>-2.75</ele>
        <time>2015-10-10T15:40:23Z</time>
      </trkpt>
      <trkpt lat="47.70393" lon="-3.36746">
        <ele>-2.75</ele>
        <time>2015-10-10T15:40:24Z</time>
      </trkpt>
      <trkpt lat="47.70395" lon="-3.36745">
        <ele>-2.75</ele>
        <time>2015-10-10T15:40:25Z</time>
      </trkpt>
      <trkpt lat="47.70398" lon="-3.36743">
        <ele>-2.75</ele>
        <time>2015-10-10T15:40:26Z</time>
      </trkpt>
      <trkpt lat="47.70399" lon="-3.36742">
        <ele>-2.75</ele>
        <time>2015-10-10T15:40:27Z</time>
      </trkpt>
      <trkpt lat="47.70401" lon="-3.3674">
        <ele>-2.75</ele>
        <time>2015-10-10T15:40:28Z</time>
      </trkpt>
      <trkpt lat="47.70403" lon="-3.36738">
        <ele>-3.71</ele>
        <time>2015-10-10T15:40:29Z</time>
      </trkpt>
      <trkpt lat="47.70405" lon="-3.36737">
        <ele>-2.27</ele>
        <time>2015-10-10T15:40:30Z</time>
      </trkpt>
      <trkpt lat="47.70408" lon="-3.36736">
        <ele>-2.27</ele>
        <time>2015-10-10T15:40:31Z</time>
      </trkpt>
      <trkpt lat="47.7041" lon="-3.36735">
        <ele>-1.79</ele>
        <time>2015-10-10T15:40:32Z</time>
      </trkpt>
      <trkpt lat="47.70413" lon="-3.36734">
        <ele>-1.79</ele>
        <time>2015-10-10T15:40:33Z</time>
      </trkpt>
      <trkpt lat="47.70415" lon="-3.36733">
        <ele>-1.79</ele>
        <time>2015-10-10T15:40:34Z</time>
      </trkpt>
      <trkpt lat="47.70417" lon="-3.36732">
        <ele>-1.79</ele>
        <time>2015-10-10T15:40:35Z</time>
      </trkpt>
      <trkpt lat="47.70419" lon="-3.36731">
        <ele>-1.79</ele>
        <time>2015-10-10T15:40:36Z</time>
      </trkpt>
      <trkpt lat="47.70421" lon="-3.3673">
        <ele>-1.79</ele>
        <time>2015-10-10T15:40:37Z</time>
      </trkpt>
      <trkpt lat="47.70424" lon="-3.36729">
        <ele>-1.79</ele>
        <time>2015-10-10T15:40:38Z</time>
      </trkpt>
      <trkpt lat="47.70426" lon="-3.36728">
        <ele>-1.79</ele>
        <time>2015-10-10T15:40:39Z</time>
      </trkpt>
      <trkpt lat="47.70428" lon="-3.36727">
        <ele>-1.79</ele>
        <time>2015-10-10T15:40:40Z</time>
      </trkpt>
      <trkpt lat="47.70431" lon="-3.36727">
        <ele>-1.79</ele>
        <time>2015-10-10T15:40:41Z</time>
      </trkpt>
      <trkpt lat="47.70433" lon="-3.36726">
        <ele>-1.3</ele>
        <time>2015-10-10T15:40:42Z</time>
      </trkpt>
      <trkpt lat="47.70435" lon="-3.36725">
        <ele>-0.82</ele>
        <time>2015-10-10T15:40:43Z</time>
      </trkpt>
      <trkpt lat="47.70438" lon="-3.36724">
        <ele>-0.82</ele>
        <time>2015-10-10T15:40:44Z</time>
      </trkpt>
      <trkpt lat="47.7044" lon="-3.36723">
        <ele>-0.82</ele>
        <time>2015-10-10T15:40:45Z</time>
      </trkpt>
      <trkpt lat="47.70442" lon="-3.36722">
        <ele>-1.79</ele>
        <time>2015-10-10T15:40:46Z</time>
      </trkpt>
      <trkpt lat="47.70444" lon="-3.36721">
        <ele>-1.79</ele>
        <time>2015-10-10T15:40:47Z</time>
      </trkpt>
      <trkpt lat="47.70447" lon="-3.3672">
        <ele>-1.79</ele>
        <time>2015-10-10T15:40:48Z</time>
      </trkpt>
      <trkpt lat="47.7045" lon="-3.36719">
        <ele>-0.82</ele>
        <time>2015-10-10T15:40:49Z</time>
      </trkpt>
      <trkpt lat="47.70452" lon="-3.36719">
        <ele>-0.82</ele>
        <time>2015-10-10T15:40:50Z</time>
      </trkpt>
      <trkpt lat="47.70454" lon="-3.36718">
        <ele>-0.82</ele>
        <time>2015-10-10T15:40:51Z</time>
      </trkpt>
      <trkpt lat="47.70456" lon="-3.36717">
        <ele>-0.82</ele>
        <time>2015-10-10T15:40:52Z</time>
      </trkpt>
      <trkpt lat="47.70458" lon="-3.36717">
        <ele>-2.27</ele>
        <time>2015-10-10T15:40:53Z</time>
      </trkpt>
      <trkpt lat="47.70461" lon="-3.36716">
        <ele>-3.23</ele>
        <time>2015-10-10T15:40:54Z</time>
      </trkpt>
      <trkpt lat="47.70463" lon="-3.36716">
        <ele>-4.19</ele>
        <time>2015-10-10T15:40:55Z</time>
      </trkpt>
      <trkpt lat="47.70465" lon="-3.36715">
        <ele>-4.19</ele>
        <time>2015-10-10T15:40:56Z</time>
      </trkpt>
      <trkpt lat="47.70467" lon="-3.36715">
        <ele>-4.19</ele>
        <time>2015-10-10T15:40:57Z</time>
      </trkpt>
      <trkpt lat="47.70469" lon="-3.36714">
        <ele>-2.27</ele>
        <time>2015-10-10T15:40:58Z</time>
      </trkpt>
      <trkpt lat="47.70471" lon="-3.36714">
        <ele>-1.79</ele>
        <time>2015-10-10T15:40:59Z</time>
      </trkpt>
      <trkpt lat="47.70473" lon="-3.36713">
        <ele>-1.79</ele>
        <time>2015-10-10T15:41:00Z</time>
      </trkpt>
      <trkpt lat="47.70475" lon="-3.36713">
        <ele>-1.79</ele>
        <time>2015-10-10T15:41:01Z</time>
      </trkpt>
      <trkpt lat="47.70477" lon="-3.36712">
        <ele>-1.79</ele>
        <time>2015-10-10T15:41:02Z</time>
      </trkpt>
      <trkpt lat="47.70479" lon="-3.36711">
        <ele>-1.79</ele>
        <time>2015-10-10T15:41:03Z</time>
      </trkpt>
      <trkpt lat="47.70481" lon="-3.36711">
        <ele>-1.79</ele>
        <time>2015-10-10T15:41:04Z</time>
      </trkpt>
      <trkpt lat="47.70483" lon="-3.36711">
        <ele>-1.79</ele>
        <time>2015-10-10T15:41:05Z</time>
      </trkpt>
      <trkpt lat="47.70485" lon="-3.3671">
        <ele>-1.79</ele>
        <time>2015-10-10T15:41:06Z</time>
      </trkpt>
      <trkpt lat="47.70487" lon="-3.3671">
        <ele>-1.79</ele>
        <time>2015-10-10T15:41:07Z</time>
      </trkpt>
      <trkpt lat="47.70489" lon="-3.3671">
        <ele>-1.79</ele>
        <time>2015-10-10T15:41:08Z</time>
      </trkpt>
      <trkpt lat="47.70491" lon="-3.3671">
        <ele>-1.79</ele>
        <time>2015-10-10T15:41:09Z</time>
      </trkpt>
      <trkpt lat="47.70493" lon="-3.36709">
        <ele>-1.79</ele>
        <time>2015-10-10T15:41:10Z</time>
      </trkpt>
      <trkpt lat="47.70495" lon="-3.36709">
        <ele>-1.79</ele>
        <time>2015-10-10T15:41:11Z</time>
      </trkpt>
      <trkpt lat="47.70497" lon="-3.36709">
        <ele>-1.79</ele>
        <time>2015-10-10T15:41:12Z</time>
      </trkpt>
      <trkpt lat="47.70499" lon="-3.36708">
        <ele>-1.79</ele>
        <time>2015-10-10T15:41:13Z</time>
      </trkpt>
      <trkpt lat="47.70501" lon="-3.36708">
        <ele>-1.79</ele>
        <time>2015-10-10T15:41:14Z</time>
      </trkpt>
      <trkpt lat="47.70503" lon="-3.36707">
        <ele>-1.79</ele>
        <time>2015-10-10T15:41:15Z</time>
      </trkpt>
      <trkpt lat="47.70504" lon="-3.36707">
        <ele>-1.79</ele>
        <time>2015-10-10T15:41:16Z</time>
      </trkpt>
      <trkpt lat="47.70506" lon="-3.36707">
        <ele>-1.79</ele>
        <time>2015-10-10T15:41:17Z</time>
      </trkpt>
      <trkpt lat="47.70508" lon="-3.36706">
        <ele>-1.79</ele>
        <time>2015-10-10T15:41:18Z</time>
      </trkpt>
      <trkpt lat="47.7051" lon="-3.36706">
        <ele>-1.79</ele>
        <time>2015-10-10T15:41:19Z</time>
      </trkpt>
      <trkpt lat="47.70512" lon="-3.36706">
        <ele>-1.79</ele>
        <time>2015-10-10T15:41:20Z</time>
      </trkpt>
      <trkpt lat="47.70514" lon="-3.36706">
        <ele>-1.79</ele>
        <time>2015-10-10T15:41:21Z</time>
      </trkpt>
      <trkpt lat="47.70516" lon="-3.36706">
        <ele>-1.79</ele>
        <time>2015-10-10T15:41:22Z</time>
      </trkpt>
      <trkpt lat="47.70518" lon="-3.36707">
        <ele>-1.79</ele>
        <time>2015-10-10T15:41:23Z</time>
      </trkpt>
      <trkpt lat="47.7052" lon="-3.36706">
        <ele>-1.79</ele>
        <time>2015-10-10T15:41:24Z</time>
      </trkpt>
      <trkpt lat="47.70521" lon="-3.36706">
        <ele>-1.79</ele>
        <time>2015-10-10T15:41:25Z</time>
      </trkpt>
      <trkpt lat="47.70523" lon="-3.36706">
        <ele>-2.75</ele>
        <time>2015-10-10T15:41:26Z</time>
      </trkpt>
      <trkpt lat="47.70525" lon="-3.36706">
        <ele>-2.75</ele>
        <time>2015-10-10T15:41:27Z</time>
      </trkpt>
      <trkpt lat="47.70527" lon="-3.36706">
        <ele>-2.75</ele>
        <time>2015-10-10T15:41:28Z</time>
      </trkpt>
      <trkpt lat="47.70528" lon="-3.36705">
        <ele>-2.75</ele>
        <time>2015-10-10T15:41:29Z</time>
      </trkpt>
      <trkpt lat="47.7053" lon="-3.36705">
        <ele>-2.75</ele>
        <time>2015-10-10T15:41:30Z</time>
      </trkpt>
      <trkpt lat="47.70532" lon="-3.36705">
        <ele>-2.75</ele>
        <time>2015-10-10T15:41:31Z</time>
      </trkpt>
      <trkpt lat="47.70533" lon="-3.36704">
        <ele>-2.75</ele>
        <time>2015-10-10T15:41:32Z</time>
      </trkpt>
      <trkpt lat="47.70534" lon="-3.36704">
        <ele>-2.75</ele>
        <time>2015-10-10T15:41:33Z</time>
      </trkpt>
      <trkpt lat="47.70536" lon="-3.36703">
        <ele>-2.75</ele>
        <time>2015-10-10T15:41:34Z</time>
      </trkpt>
      <trkpt lat="47.70537" lon="-3.36703">
        <ele>-2.75</ele>
        <time>2015-10-10T15:41:35Z</time>
      </trkpt>
      <trkpt lat="47.70539" lon="-3.36702">
        <ele>-2.75</ele>
        <time>2015-10-10T15:41:36Z</time>
      </trkpt>
      <trkpt lat="47.7054" lon="-3.36702">
        <ele>-2.75</ele>
        <time>2015-10-10T15:41:37Z</time>
      </trkpt>
      <trkpt lat="47.70541" lon="-3.36702">
        <ele>-2.75</ele>
        <time>2015-10-10T15:41:38Z</time>
      </trkpt>
      <trkpt lat="47.70543" lon="-3.36702">
        <ele>-4.67</ele>
        <time>2015-10-10T15:41:39Z</time>
      </trkpt>
      <trkpt lat="47.70544" lon="-3.36702">
        <ele>-4.67</ele>
        <time>2015-10-10T15:41:40Z</time>
      </trkpt>
      <trkpt lat="47.70545" lon="-3.36702">
        <ele>-3.23</ele>
        <time>2015-10-10T15:41:41Z</time>
      </trkpt>
      <trkpt lat="47.70547" lon="-3.36702">
        <ele>-3.23</ele>
        <time>2015-10-10T15:41:42Z</time>
      </trkpt>
      <trkpt lat="47.70548" lon="-3.36702">
        <ele>-3.23</ele>
        <time>2015-10-10T15:41:43Z</time>
      </trkpt>
      <trkpt lat="47.70549" lon="-3.36701">
        <ele>-3.23</ele>
        <time>2015-10-10T15:41:44Z</time>
      </trkpt>
      <trkpt lat="47.7055" lon="-3.36701">
        <ele>-2.27</ele>
        <time>2015-10-10T15:41:45Z</time>
      </trkpt>
      <trkpt lat="47.70551" lon="-3.36701">
        <ele>-2.27</ele>
        <time>2015-10-10T15:41:46Z</time>
      </trkpt>
      <trkpt lat="47.70553" lon="-3.367">
        <ele>-2.27</ele>
        <time>2015-10-10T15:41:47Z</time>
      </trkpt>
      <trkpt lat="47.70554" lon="-3.367">
        <ele>-2.27</ele>
        <time>2015-10-10T15:41:48Z</time>
      </trkpt>
      <trkpt lat="47.70555" lon="-3.367">
        <ele>-5.63</ele>
        <time>2015-10-10T15:41:49Z</time>
      </trkpt>
      <trkpt lat="47.70556" lon="-3.367">
        <ele>-1.79</ele>
        <time>2015-10-10T15:41:50Z</time>
      </trkpt>
      <trkpt lat="47.70557" lon="-3.36699">
        <ele>-1.79</ele>
        <time>2015-10-10T15:41:51Z</time>
      </trkpt>
      <trkpt lat="47.70558" lon="-3.36699">
        <ele>0.14</ele>
        <time>2015-10-10T15:41:52Z</time>
      </trkpt>
      <trkpt lat="47.70559" lon="-3.36699">
        <ele>-2.75</ele>
        <time>2015-10-10T15:41:53Z</time>
      </trkpt>
      <trkpt lat="47.70561" lon="-3.36698">
        <ele>-2.75</ele>
        <time>2015-10-10T15:41:54Z</time>
      </trkpt>
      <trkpt lat="47.70562" lon="-3.36698">
        <ele>-2.75</ele>
        <time>2015-10-10T15:41:55Z</time>
      </trkpt>
      <trkpt lat="47.70563" lon="-3.36698">
        <ele>-3.23</ele>
        <time>2015-10-10T15:41:56Z</time>
      </trkpt>
      <trkpt lat="47.70564" lon="-3.36697">
        <ele>-2.75</ele>
        <time>2015-10-10T15:41:57Z</time>
      </trkpt>
      <trkpt lat="47.70565" lon="-3.36697">
        <ele>-2.75</ele>
        <time>2015-10-10T15:41:58Z</time>
      </trkpt>
      <trkpt lat="47.70566" lon="-3.36697">
        <ele>-2.75</ele>
        <time>2015-10-10T15:41:59Z</time>
      </trkpt>
      <trkpt lat="47.70567" lon="-3.36696">
        <ele>-2.75</ele>
        <time>2015-10-10T15:42:00Z</time>
      </trkpt>
      <trkpt lat="47.70568" lon="-3.36696">
        <ele>-2.75</ele>
        <time>2015-10-10T15:42:01Z</time>
      </trkpt>
      <trkpt lat="47.70569" lon="-3.36696">
        <ele>-2.75</ele>
        <time>2015-10-10T15:42:02Z</time>
      </trkpt>
      <trkpt lat="47.7057" lon="-3.36696">
        <ele>-2.75</ele>
        <time>2015-10-10T15:42:03Z</time>
      </trkpt>
      <trkpt lat="47.70571" lon="-3.36695">
        <ele>-2.75</ele>
        <time>2015-10-10T15:42:04Z</time>
      </trkpt>
      <trkpt lat="47.70572" lon="-3.36695">
        <ele>-2.75</ele>
        <time>2015-10-10T15:42:05Z</time>
      </trkpt>
      <trkpt lat="47.70573" lon="-3.36695">
        <ele>-2.75</ele>
        <time>2015-10-10T15:42:06Z</time>
      </trkpt>
      <trkpt lat="47.70574" lon="-3.36695">
        <ele>-2.75</ele>
        <time>2015-10-10T15:42:07Z</time>
      </trkpt>
      <trkpt lat="47.70575" lon="-3.36694">
        <ele>-2.75</ele>
        <time>2015-10-10T15:42:08Z</time>
      </trkpt>
      <trkpt lat="47.70576" lon="-3.36694">
        <ele>-2.75</ele>
        <time>2015-10-10T15:42:09Z</time>
      </trkpt>
      <trkpt lat="47.70578" lon="-3.36694">
        <ele>-2.75</ele>
        <time>2015-10-10T15:42:10Z</time>
      </trkpt>
      <trkpt lat="47.70578" lon="-3.36693">
        <ele>-2.75</ele>
        <time>2015-10-10T15:42:11Z</time>
      </trkpt>
      <trkpt lat="47.70579" lon="-3.36693">
        <ele>-2.75</ele>
        <time>2015-10-10T15:42:12Z</time>
      </trkpt>
      <trkpt lat="47.7058" lon="-3.36692">
        <ele>-2.75</ele>
        <time>2015-10-10T15:42:13Z</time>
      </trkpt>
      <trkpt lat="47.70581" lon="-3.36692">
        <ele>-2.75</ele>
        <time>2015-10-10T15:42:14Z</time>
      </trkpt>
      <trkpt lat="47.70582" lon="-3.36692">
        <ele>-2.75</ele>
        <time>2015-10-10T15:42:15Z</time>
      </trkpt>
      <trkpt lat="47.70583" lon="-3.36692">
        <ele>-2.75</ele>
        <time>2015-10-10T15:42:16Z</time>
      </trkpt>
      <trkpt lat="47.70584" lon="-3.36691">
        <ele>-2.75</ele>
        <time>2015-10-10T15:42:17Z</time>
      </trkpt>
      <trkpt lat="47.70585" lon="-3.36691">
        <ele>-2.75</ele>
        <time>2015-10-10T15:42:18Z</time>
      </trkpt>
      <trkpt lat="47.70585" lon="-3.36691">
        <ele>-2.75</ele>
        <time>2015-10-10T15:42:19Z</time>
      </trkpt>
      <trkpt lat="47.70586" lon="-3.36691">
        <ele>-2.75</ele>
        <time>2015-10-10T15:42:20Z</time>
      </trkpt>
      <trkpt lat="47.70587" lon="-3.36691">
        <ele>-2.75</ele>
        <time>2015-10-10T15:42:21Z</time>
      </trkpt>
      <trkpt lat="47.70588" lon="-3.36691">
        <ele>-2.75</ele>
        <time>2015-10-10T15:42:22Z</time>
      </trkpt>
      <trkpt lat="47.70589" lon="-3.3669">
        <ele>-1.3</ele>
        <time>2015-10-10T15:42:23Z</time>
      </trkpt>
      <trkpt lat="47.7059" lon="-3.3669">
        <ele>-1.3</ele>
        <time>2015-10-10T15:42:24Z</time>
      </trkpt>
      <trkpt lat="47.7059" lon="-3.3669">
        <ele>-1.3</ele>
        <time>2015-10-10T15:42:25Z</time>
      </trkpt>
      <trkpt lat="47.70591" lon="-3.3669">
        <ele>-1.3</ele>
        <time>2015-10-10T15:42:26Z</time>
      </trkpt>
      <trkpt lat="47.70592" lon="-3.3669">
        <ele>-2.75</ele>
        <time>2015-10-10T15:42:27Z</time>
      </trkpt>
      <trkpt lat="47.70593" lon="-3.3669">
        <ele>-2.75</ele>
        <time>2015-10-10T15:42:28Z</time>
      </trkpt>
      <trkpt lat="47.70594" lon="-3.3669">
        <ele>-3.23</ele>
        <time>2015-10-10T15:42:29Z</time>
      </trkpt>
      <trkpt lat="47.70595" lon="-3.3669">
        <ele>-3.23</ele>
        <time>2015-10-10T15:42:30Z</time>
      </trkpt>
      <trkpt lat="47.70596" lon="-3.36689">
        <ele>-3.23</ele>
        <time>2015-10-10T15:42:31Z</time>
      </trkpt>
      <trkpt lat="47.70597" lon="-3.3669">
        <ele>-3.23</ele>
        <time>2015-10-10T15:42:32Z</time>
      </trkpt>
      <trkpt lat="47.70598" lon="-3.36689">
        <ele>-3.23</ele>
        <time>2015-10-10T15:42:33Z</time>
      </trkpt>
      <trkpt lat="47.70599" lon="-3.36689">
        <ele>-3.23</ele>
        <time>2015-10-10T15:42:34Z</time>
      </trkpt>
      <trkpt lat="47.70599" lon="-3.36689">
        <ele>-3.23</ele>
        <time>2015-10-10T15:42:35Z</time>
      </trkpt>
      <trkpt lat="47.706" lon="-3.36689">
        <ele>-3.23</ele>
        <time>2015-10-10T15:42:36Z</time>
      </trkpt>
      <trkpt lat="47.70601" lon="-3.36689">
        <ele>-3.23</ele>
        <time>2015-10-10T15:42:37Z</time>
      </trkpt>
      <trkpt lat="47.70602" lon="-3.36689">
        <ele>-3.23</ele>
        <time>2015-10-10T15:42:38Z</time>
      </trkpt>
      <trkpt lat="47.70603" lon="-3.36689">
        <ele>-3.23</ele>
        <time>2015-10-10T15:42:39Z</time>
      </trkpt>
      <trkpt lat="47.70604" lon="-3.36689">
        <ele>-3.23</ele>
        <time>2015-10-10T15:42:40Z</time>
      </trkpt>
      <trkpt lat="47.70605" lon="-3.36688">
        <ele>-3.23</ele>
        <time>2015-10-10T15:42:41Z</time>
      </trkpt>
      <trkpt lat="47.70606" lon="-3.36688">
        <ele>-3.23</ele>
        <time>2015-10-10T15:42:42Z</time>
      </trkpt>
      <trkpt lat="47.70607" lon="-3.36687">
        <ele>-3.23</ele>
        <time>2015-10-10T15:42:43Z</time>
      </trkpt>
      <trkpt lat="47.70608" lon="-3.36687">
        <ele>-3.23</ele>
        <time>2015-10-10T15:42:44Z</time>
      </trkpt>
      <trkpt lat="47.70609" lon="-3.36687">
        <ele>-3.71</ele>
        <time>2015-10-10T15:42:45Z</time>
      </trkpt>
      <trkpt lat="47.7061" lon="-3.36686">
        <ele>-3.71</ele>
        <time>2015-10-10T15:42:46Z</time>
      </trkpt>
      <trkpt lat="47.70611" lon="-3.36686">
        <ele>-3.71</ele>
        <time>2015-10-10T15:42:47Z</time>
      </trkpt>
      <trkpt lat="47.70612" lon="-3.36686">
        <ele>-3.71</ele>
        <time>2015-10-10T15:42:48Z</time>
      </trkpt>
      <trkpt lat="47.70612" lon="-3.36686">
        <ele>-3.23</ele>
        <time>2015-10-10T15:42:49Z</time>
      </trkpt>
      <trkpt lat="47.70613" lon="-3.36685">
        <ele>-1.3</ele>
        <time>2015-10-10T15:42:50Z</time>
      </trkpt>
      <trkpt lat="47.70614" lon="-3.36685">
        <ele>-1.3</ele>
        <time>2015-10-10T15:42:51Z</time>
      </trkpt>
      <trkpt lat="47.70615" lon="-3.36684">
        <ele>-3.23</ele>
        <time>2015-10-10T15:42:52Z</time>
      </trkpt>
      <trkpt lat="47.70616" lon="-3.36684">
        <ele>-3.23</ele>
        <time>2015-10-10T15:42:53Z</time>
      </trkpt>
      <trkpt lat="47.70616" lon="-3.36684">
        <ele>-3.23</ele>
        <time>2015-10-10T15:42:54Z</time>
      </trkpt>
      <trkpt lat="47.70617" lon="-3.36684">
        <ele>-3.23</ele>
        <time>2015-10-10T15:42:55Z</time>
      </trkpt>
      <trkpt lat="47.70618" lon="-3.36683">
        <ele>-3.23</ele>
        <time>2015-10-10T15:42:56Z</time>
      </trkpt>
      <trkpt lat="47.70619" lon="-3.36683">
        <ele>-3.23</ele>
        <time>2015-10-10T15:42:57Z</time>
      </trkpt>
      <trkpt lat="47.7062" lon="-3.36682">
        <ele>-3.23</ele>
        <time>2015-10-10T15:42:58Z</time>
      </trkpt>
      <trkpt lat="47.70621" lon="-3.36682">
        <ele>-3.23</ele>
        <time>2015-10-10T15:42:59Z</time>
      </trkpt>
      <trkpt lat="47.70621" lon="-3.36682">
        <ele>-3.23</ele>
        <time>2015-10-10T15:43:00Z</time>
      </trkpt>
      <trkpt lat="47.70622" lon="-3.36681">
        <ele>-3.23</ele>
        <time>2015-10-10T15:43:01Z</time>
      </trkpt>
      <trkpt lat="47.70623" lon="-3.36681">
        <ele>-3.23</ele>
        <time>2015-10-10T15:43:02Z</time>
      </trkpt>
      <trkpt lat="47.70624" lon="-3.3668">
        <ele>-3.23</ele>
        <time>2015-10-10T15:43:03Z</time>
      </trkpt>
      <trkpt lat="47.70625" lon="-3.3668">
        <ele>-3.23</ele>
        <time>2015-10-10T15:43:04Z</time>
      </trkpt>
      <trkpt lat="47.70625" lon="-3.36679">
        <ele>-3.23</ele>
        <time>2015-10-10T15:43:05Z</time>
      </trkpt>
      <trkpt lat="47.70626" lon="-3.36679">
        <ele>-3.23</ele>
        <time>2015-10-10T15:43:06Z</time>
      </trkpt>
      <trkpt lat="47.70627" lon="-3.36679">
        <ele>-3.71</ele>
        <time>2015-10-10T15:43:07Z</time>
      </trkpt>
      <trkpt lat="47.70627" lon="-3.36678">
        <ele>-2.75</ele>
        <time>2015-10-10T15:43:08Z</time>
      </trkpt>
      <trkpt lat="47.70628" lon="-3.36678">
        <ele>-2.75</ele>
        <time>2015-10-10T15:43:09Z</time>
      </trkpt>
      <trkpt lat="47.70629" lon="-3.36678">
        <ele>-2.75</ele>
        <time>2015-10-10T15:43:10Z</time>
      </trkpt>
      <trkpt lat="47.70629" lon="-3.36678">
        <ele>-2.27</ele>
        <time>2015-10-10T15:43:11Z</time>
      </trkpt>
      <trkpt lat="47.7063" lon="-3.36677">
        <ele>-2.75</ele>
        <time>2015-10-10T15:43:12Z</time>
      </trkpt>
      <trkpt lat="47.70631" lon="-3.36677">
        <ele>-2.27</ele>
        <time>2015-10-10T15:43:13Z</time>
      </trkpt>
      <trkpt lat="47.70632" lon="-3.36677">
        <ele>-2.27</ele>
        <time>2015-10-10T15:43:14Z</time>
      </trkpt>
      <trkpt lat="47.70632" lon="-3.36677">
        <ele>-2.27</ele>
        <time>2015-10-10T15:43:15Z</time>
      </trkpt>
      <trkpt lat="47.70633" lon="-3.36676">
        <ele>-2.27</ele>
        <time>2015-10-10T15:43:16Z</time>
      </trkpt>
      <trkpt lat="47.70634" lon="-3.36676">
        <ele>-2.27</ele>
        <time>2015-10-10T15:43:17Z</time>
      </trkpt>
      <trkpt lat="47.70635" lon="-3.36676">
        <ele>-2.27</ele>
        <time>2015-10-10T15:43:18Z</time>
      </trkpt>
      <trkpt lat="47.70636" lon="-3.36676">
        <ele>-2.27</ele>
        <time>2015-10-10T15:43:19Z</time>
      </trkpt>
      <trkpt lat="47.70637" lon="-3.36675">
        <ele>-2.27</ele>
        <time>2015-10-10T15:43:20Z</time>
      </trkpt>
      <trkpt lat="47.70637" lon="-3.36675">
        <ele>-2.27</ele>
        <time>2015-10-10T15:43:21Z</time>
      </trkpt>
      <trkpt lat="47.70638" lon="-3.36675">
        <ele>-2.27</ele>
        <time>2015-10-10T15:43:22Z</time>
      </trkpt>
      <trkpt lat="47.70639" lon="-3.36675">
        <ele>-2.27</ele>
        <time>2015-10-10T15:43:23Z</time>
      </trkpt>
      <trkpt lat="47.7064" lon="-3.36674">
        <ele>-2.27</ele>
        <time>2015-10-10T15:43:24Z</time>
      </trkpt>
      <trkpt lat="47.70641" lon="-3.36674">
        <ele>-2.27</ele>
        <time>2015-10-10T15:43:25Z</time>
      </trkpt>
      <trkpt lat="47.70642" lon="-3.36675">
        <ele>-2.27</ele>
        <time>2015-10-10T15:43:26Z</time>
      </trkpt>
      <trkpt lat="47.70643" lon="-3.36675">
        <ele>-1.3</ele>
        <time>2015-10-10T15:43:27Z</time>
      </trkpt>
      <trkpt lat="47.70643" lon="-3.36676">
        <ele>-1.3</ele>
        <time>2015-10-10T15:43:28Z</time>
      </trkpt>
      <trkpt lat="47.70644" lon="-3.36676">
        <ele>-3.71</ele>
        <time>2015-10-10T15:43:29Z</time>
      </trkpt>
      <trkpt lat="47.70645" lon="-3.36676">
        <ele>-1.79</ele>
        <time>2015-10-10T15:43:30Z</time>
      </trkpt>
      <trkpt lat="47.70646" lon="-3.36675">
        <ele>-1.79</ele>
        <time>2015-10-10T15:43:31Z</time>
      </trkpt>
      <trkpt lat="47.70647" lon="-3.36675">
        <ele>-1.79</ele>
        <time>2015-10-10T15:43:32Z</time>
      </trkpt>
      <trkpt lat="47.70648" lon="-3.36675">
        <ele>-1.79</ele>
        <time>2015-10-10T15:43:33Z</time>
      </trkpt>
      <trkpt lat="47.70648" lon="-3.36674">
        <ele>-1.79</ele>
        <time>2015-10-10T15:43:34Z</time>
      </trkpt>
      <trkpt lat="47.70649" lon="-3.36674">
        <ele>-1.79</ele>
        <time>2015-10-10T15:43:35Z</time>
      </trkpt>
      <trkpt lat="47.70649" lon="-3.36673">
        <ele>-1.79</ele>
        <time>2015-10-10T15:43:36Z</time>
      </trkpt>
      <trkpt lat="47.7065" lon="-3.36673">
        <ele>-1.79</ele>
        <time>2015-10-10T15:43:37Z</time>
      </trkpt>
      <trkpt lat="47.70651" lon="-3.36672">
        <ele>-1.79</ele>
        <time>2015-10-10T15:43:38Z</time>
      </trkpt>
      <trkpt lat="47.70652" lon="-3.36671">
        <ele>-1.79</ele>
        <time>2015-10-10T15:43:39Z</time>
      </trkpt>
      <trkpt lat="47.70652" lon="-3.36671">
        <ele>-1.79</ele>
        <time>2015-10-10T15:43:40Z</time>
      </trkpt>
      <trkpt lat="47.70653" lon="-3.3667">
        <ele>-1.79</ele>
        <time>2015-10-10T15:43:41Z</time>
      </trkpt>
      <trkpt lat="47.70654" lon="-3.3667">
        <ele>-3.23</ele>
        <time>2015-10-10T15:43:42Z</time>
      </trkpt>
      <trkpt lat="47.70655" lon="-3.36669">
        <ele>-3.23</ele>
        <time>2015-10-10T15:43:43Z</time>
      </trkpt>
      <trkpt lat="47.70656" lon="-3.36669">
        <ele>-3.23</ele>
        <time>2015-10-10T15:43:44Z</time>
      </trkpt>
      <trkpt lat="47.70656" lon="-3.36669">
        <ele>-3.23</ele>
        <time>2015-10-10T15:43:45Z</time>
      </trkpt>
      <trkpt lat="47.70657" lon="-3.36669">
        <ele>-3.23</ele>
        <time>2015-10-10T15:43:46Z</time>
      </trkpt>
      <trkpt lat="47.70658" lon="-3.36668">
        <ele>-3.23</ele>
        <time>2015-10-10T15:43:47Z</time>
      </trkpt>
      <trkpt lat="47.70659" lon="-3.36668">
        <ele>-3.23</ele>
        <time>2015-10-10T15:43:48Z</time>
      </trkpt>
      <trkpt lat="47.7066" lon="-3.36668">
        <ele>-3.23</ele>
        <time>2015-10-10T15:43:49Z</time>
      </trkpt>
      <trkpt lat="47.70661" lon="-3.36667">
        <ele>-3.23</ele>
        <time>2015-10-10T15:43:50Z</time>
      </trkpt>
      <trkpt lat="47.70662" lon="-3.36667">
        <ele>-3.23</ele>
        <time>2015-10-10T15:43:51Z</time>
      </trkpt>
      <trkpt lat="47.70663" lon="-3.36667">
        <ele>-3.23</ele>
        <time>2015-10-10T15:43:52Z</time>
      </trkpt>
      <trkpt lat="47.70664" lon="-3.36667">
        <ele>-3.23</ele>
        <time>2015-10-10T15:43:53Z</time>
      </trkpt>
      <trkpt lat="47.70665" lon="-3.36667">
        <ele>-3.23</ele>
        <time>2015-10-10T15:43:54Z</time>
      </trkpt>
      <trkpt lat="47.70666" lon="-3.36667">
        <ele>-3.23</ele>
        <time>2015-10-10T15:43:55Z</time>
      </trkpt>
      <trkpt lat="47.70667" lon="-3.36667">
        <ele>-3.23</ele>
        <time>2015-10-10T15:43:56Z</time>
      </trkpt>
      <trkpt lat="47.70668" lon="-3.36666">
        <ele>-3.23</ele>
        <time>2015-10-10T15:43:57Z</time>
      </trkpt>
      <trkpt lat="47.70669" lon="-3.36666">
        <ele>-3.23</ele>
        <time>2015-10-10T15:43:58Z</time>
      </trkpt>
      <trkpt lat="47.7067" lon="-3.36666">
        <ele>-3.23</ele>
        <time>2015-10-10T15:43:59Z</time>
      </trkpt>
      <trkpt lat="47.70671" lon="-3.36666">
        <ele>-3.23</ele>
        <time>2015-10-10T15:44:00Z</time>
      </trkpt>
      <trkpt lat="47.70672" lon="-3.36666">
        <ele>-3.23</ele>
        <time>2015-10-10T15:44:01Z</time>
      </trkpt>
      <trkpt lat="47.70673" lon="-3.36666">
        <ele>-3.23</ele>
        <time>2015-10-10T15:44:02Z</time>
      </trkpt>
      <trkpt lat="47.70674" lon="-3.36666">
        <ele>-3.23</ele>
        <time>2015-10-10T15:44:03Z</time>
      </trkpt>
      <trkpt lat="47.70674" lon="-3.36666">
        <ele>-3.23</ele>
        <time>2015-10-10T15:44:04Z</time>
      </trkpt>
      <trkpt lat="47.70675" lon="-3.36666">
        <ele>-3.23</ele>
        <time>2015-10-10T15:44:05Z</time>
      </trkpt>
      <trkpt lat="47.70676" lon="-3.36666">
        <ele>-3.23</ele>
        <time>2015-10-10T15:44:06Z</time>
      </trkpt>
      <trkpt lat="47.70677" lon="-3.36666">
        <ele>-3.23</ele>
        <time>2015-10-10T15:44:07Z</time>
      </trkpt>
      <trkpt lat="47.70678" lon="-3.36666">
        <ele>-3.23</ele>
        <time>2015-10-10T15:44:08Z</time>
      </trkpt>
      <trkpt lat="47.70679" lon="-3.36665">
        <ele>-3.23</ele>
        <time>2015-10-10T15:44:09Z</time>
      </trkpt>
      <trkpt lat="47.7068" lon="-3.36665">
        <ele>-3.23</ele>
        <time>2015-10-10T15:44:10Z</time>
      </trkpt>
      <trkpt lat="47.70681" lon="-3.36665">
        <ele>-3.23</ele>
        <time>2015-10-10T15:44:11Z</time>
      </trkpt>
      <trkpt lat="47.70682" lon="-3.36665">
        <ele>-3.23</ele>
        <time>2015-10-10T15:44:12Z</time>
      </trkpt>
      <trkpt lat="47.70683" lon="-3.36665">
        <ele>-3.23</ele>
        <time>2015-10-10T15:44:13Z</time>
      </trkpt>
      <trkpt lat="47.70684" lon="-3.36665">
        <ele>-2.75</ele>
        <time>2015-10-10T15:44:14Z</time>
      </trkpt>
      <trkpt lat="47.70685" lon="-3.36665">
        <ele>-2.75</ele>
        <time>2015-10-10T15:44:15Z</time>
      </trkpt>
      <trkpt lat="47.70686" lon="-3.36664">
        <ele>-2.75</ele>
        <time>2015-10-10T15:44:16Z</time>
      </trkpt>
      <trkpt lat="47.70687" lon="-3.36664">
        <ele>-2.75</ele>
        <time>2015-10-10T15:44:17Z</time>
      </trkpt>
      <trkpt lat="47.70688" lon="-3.36664">
        <ele>-2.75</ele>
        <time>2015-10-10T15:44:18Z</time>
      </trkpt>
      <trkpt lat="47.70689" lon="-3.36664">
        <ele>-2.75</ele>
        <time>2015-10-10T15:44:19Z</time>
      </trkpt>
      <trkpt lat="47.7069" lon="-3.36664">
        <ele>-2.75</ele>
        <time>2015-10-10T15:44:20Z</time>
      </trkpt>
      <trkpt lat="47.70691" lon="-3.36664">
        <ele>-2.75</ele>
        <time>2015-10-10T15:44:21Z</time>
      </trkpt>
      <trkpt lat="47.70692" lon="-3.36664">
        <ele>-2.75</ele>
        <time>2015-10-10T15:44:22Z</time>
      </trkpt>
      <trkpt lat="47.70693" lon="-3.36664">
        <ele>-2.75</ele>
        <time>2015-10-10T15:44:23Z</time>
      </trkpt>
      <trkpt lat="47.70693" lon="-3.36664">
        <ele>-2.75</ele>
        <time>2015-10-10T15:44:24Z</time>
      </trkpt>
      <trkpt lat="47.70694" lon="-3.36664">
        <ele>-2.75</ele>
        <time>2015-10-10T15:44:25Z</time>
      </trkpt>
      <trkpt lat="47.70695" lon="-3.36664">
        <ele>-2.75</ele>
        <time>2015-10-10T15:44:26Z</time>
      </trkpt>
      <trkpt lat="47.70696" lon="-3.36665">
        <ele>-2.75</ele>
        <time>2015-10-10T15:44:27Z</time>
      </trkpt>
      <trkpt lat="47.70697" lon="-3.36665">
        <ele>-2.75</ele>
        <time>2015-10-10T15:44:28Z</time>
      </trkpt>
      <trkpt lat="47.70698" lon="-3.36665">
        <ele>-2.75</ele>
        <time>2015-10-10T15:44:29Z</time>
      </trkpt>
      <trkpt lat="47.70699" lon="-3.36665">
        <ele>-2.75</ele>
        <time>2015-10-10T15:44:30Z</time>
      </trkpt>
      <trkpt lat="47.707" lon="-3.36665">
        <ele>-2.75</ele>
        <time>2015-10-10T15:44:31Z</time>
      </trkpt>
      <trkpt lat="47.70701" lon="-3.36665">
        <ele>-2.75</ele>
        <time>2015-10-10T15:44:32Z</time>
      </trkpt>
      <trkpt lat="47.70702" lon="-3.36665">
        <ele>-2.75</ele>
        <time>2015-10-10T15:44:33Z</time>
      </trkpt>
      <trkpt lat="47.70703" lon="-3.36665">
        <ele>-2.75</ele>
        <time>2015-10-10T15:44:34Z</time>
      </trkpt>
      <trkpt lat="47.70704" lon="-3.36664">
        <ele>-2.75</ele>
        <time>2015-10-10T15:44:35Z</time>
      </trkpt>
      <trkpt lat="47.70705" lon="-3.36664">
        <ele>-2.75</ele>
        <time>2015-10-10T15:44:36Z</time>
      </trkpt>
      <trkpt lat="47.70706" lon="-3.36664">
        <ele>-2.75</ele>
        <time>2015-10-10T15:44:37Z</time>
      </trkpt>
      <trkpt lat="47.70707" lon="-3.36664">
        <ele>-2.75</ele>
        <time>2015-10-10T15:44:38Z</time>
      </trkpt>
      <trkpt lat="47.70708" lon="-3.36664">
        <ele>-2.75</ele>
        <time>2015-10-10T15:44:39Z</time>
      </trkpt>
      <trkpt lat="47.70709" lon="-3.36663">
        <ele>-2.75</ele>
        <time>2015-10-10T15:44:40Z</time>
      </trkpt>
      <trkpt lat="47.7071" lon="-3.36663">
        <ele>-2.75</ele>
        <time>2015-10-10T15:44:41Z</time>
      </trkpt>
      <trkpt lat="47.70711" lon="-3.36663">
        <ele>-2.75</ele>
        <time>2015-10-10T15:44:42Z</time>
      </trkpt>
      <trkpt lat="47.70712" lon="-3.36663">
        <ele>-2.75</ele>
        <time>2015-10-10T15:44:43Z</time>
      </trkpt>
      <trkpt lat="47.70713" lon="-3.36663">
        <ele>-2.75</ele>
        <time>2015-10-10T15:44:44Z</time>
      </trkpt>
      <trkpt lat="47.70714" lon="-3.36662">
        <ele>-2.75</ele>
        <time>2015-10-10T15:44:45Z</time>
      </trkpt>
      <trkpt lat="47.70715" lon="-3.36662">
        <ele>-2.75</ele>
        <time>2015-10-10T15:44:46Z</time>
      </trkpt>
      <trkpt lat="47.70716" lon="-3.36662">
        <ele>-2.75</ele>
        <time>2015-10-10T15:44:47Z</time>
      </trkpt>
      <trkpt lat="47.70717" lon="-3.36661">
        <ele>-2.75</ele>
        <time>2015-10-10T15:44:48Z</time>
      </trkpt>
      <trkpt lat="47.70718" lon="-3.36661">
        <ele>-2.75</ele>
        <time>2015-10-10T15:44:49Z</time>
      </trkpt>
      <trkpt lat="47.70719" lon="-3.36661">
        <ele>-2.75</ele>
        <time>2015-10-10T15:44:50Z</time>
      </trkpt>
      <trkpt lat="47.7072" lon="-3.36661">
        <ele>-2.75</ele>
        <time>2015-10-10T15:44:51Z</time>
      </trkpt>
      <trkpt lat="47.70721" lon="-3.36661">
        <ele>-2.75</ele>
        <time>2015-10-10T15:44:52Z</time>
      </trkpt>
      <trkpt lat="47.70722" lon="-3.36661">
        <ele>-2.75</ele>
        <time>2015-10-10T15:44:53Z</time>
      </trkpt>
      <trkpt lat="47.70723" lon="-3.3666">
        <ele>-2.75</ele>
        <time>2015-10-10T15:44:54Z</time>
      </trkpt>
      <trkpt lat="47.70724" lon="-3.3666">
        <ele>-2.75</ele>
        <time>2015-10-10T15:44:55Z</time>
      </trkpt>
      <trkpt lat="47.70725" lon="-3.3666">
        <ele>-2.75</ele>
        <time>2015-10-10T15:44:56Z</time>
      </trkpt>
      <trkpt lat="47.70726" lon="-3.3666">
        <ele>-2.75</ele>
        <time>2015-10-10T15:44:57Z</time>
      </trkpt>
      <trkpt lat="47.70727" lon="-3.3666">
        <ele>-2.75</ele>
        <time>2015-10-10T15:44:58Z</time>
      </trkpt>
      <trkpt lat="47.70728" lon="-3.3666">
        <ele>-2.75</ele>
        <time>2015-10-10T15:44:59Z</time>
      </trkpt>
      <trkpt lat="47.7073" lon="-3.36659">
        <ele>-2.75</ele>
        <time>2015-10-10T15:45:00Z</time>
      </trkpt>
      <trkpt lat="47.7073" lon="-3.36659">
        <ele>-2.75</ele>
        <time>2015-10-10T15:45:01Z</time>
      </trkpt>
      <trkpt lat="47.70731" lon="-3.36659">
        <ele>-2.75</ele>
        <time>2015-10-10T15:45:02Z</time>
      </trkpt>
      <trkpt lat="47.70732" lon="-3.36659">
        <ele>-2.75</ele>
        <time>2015-10-10T15:45:03Z</time>
      </trkpt>
      <trkpt lat="47.70733" lon="-3.36659">
        <ele>-2.75</ele>
        <time>2015-10-10T15:45:04Z</time>
      </trkpt>
      <trkpt lat="47.70734" lon="-3.36659">
        <ele>-2.75</ele>
        <time>2015-10-10T15:45:05Z</time>
      </trkpt>
      <trkpt lat="47.70735" lon="-3.36659">
        <ele>-2.75</ele>
        <time>2015-10-10T15:45:06Z</time>
      </trkpt>
      <trkpt lat="47.70736" lon="-3.36658">
        <ele>-2.75</ele>
        <time>2015-10-10T15:45:07Z</time>
      </trkpt>
      <trkpt lat="47.70737" lon="-3.36658">
        <ele>-2.75</ele>
        <time>2015-10-10T15:45:08Z</time>
      </trkpt>
      <trkpt lat="47.70738" lon="-3.36658">
        <ele>-2.75</ele>
        <time>2015-10-10T15:45:09Z</time>
      </trkpt>
      <trkpt lat="47.70739" lon="-3.36658">
        <ele>-2.75</ele>
        <time>2015-10-10T15:45:10Z</time>
      </trkpt>
      <trkpt lat="47.7074" lon="-3.36658">
        <ele>-2.75</ele>
        <time>2015-10-10T15:45:11Z</time>
      </trkpt>
      <trkpt lat="47.70741" lon="-3.36657">
        <ele>-2.75</ele>
        <time>2015-10-10T15:45:12Z</time>
      </trkpt>
      <trkpt lat="47.70742" lon="-3.36657">
        <ele>-2.75</ele>
        <time>2015-10-10T15:45:13Z</time>
      </trkpt>
      <trkpt lat="47.70743" lon="-3.36656">
        <ele>-2.75</ele>
        <time>2015-10-10T15:45:14Z</time>
      </trkpt>
      <trkpt lat="47.70744" lon="-3.36656">
        <ele>-2.75</ele>
        <time>2015-10-10T15:45:15Z</time>
      </trkpt>
      <trkpt lat="47.70745" lon="-3.36655">
        <ele>-2.75</ele>
        <time>2015-10-10T15:45:16Z</time>
      </trkpt>
      <trkpt lat="47.70746" lon="-3.36655">
        <ele>-2.75</ele>
        <time>2015-10-10T15:45:17Z</time>
      </trkpt>
      <trkpt lat="47.70747" lon="-3.36655">
        <ele>-2.75</ele>
        <time>2015-10-10T15:45:18Z</time>
      </trkpt>
      <trkpt lat="47.70748" lon="-3.36655">
        <ele>-2.75</ele>
        <time>2015-10-10T15:45:19Z</time>
      </trkpt>
      <trkpt lat="47.70749" lon="-3.36655">
        <ele>-2.75</ele>
        <time>2015-10-10T15:45:20Z</time>
      </trkpt>
      <trkpt lat="47.7075" lon="-3.36654">
        <ele>-2.75</ele>
        <time>2015-10-10T15:45:21Z</time>
      </trkpt>
      <trkpt lat="47.70751" lon="-3.36654">
        <ele>-2.75</ele>
        <time>2015-10-10T15:45:22Z</time>
      </trkpt>
      <trkpt lat="47.70752" lon="-3.36654">
        <ele>-2.75</ele>
        <time>2015-10-10T15:45:23Z</time>
      </trkpt>
      <trkpt lat="47.70754" lon="-3.36654">
        <ele>-2.75</ele>
        <time>2015-10-10T15:45:24Z</time>
      </trkpt>
      <trkpt lat="47.70755" lon="-3.36654">
        <ele>-2.75</ele>
        <time>2015-10-10T15:45:25Z</time>
      </trkpt>
      <trkpt lat="47.70756" lon="-3.36654">
        <ele>-2.75</ele>
        <time>2015-10-10T15:45:26Z</time>
      </trkpt>
      <trkpt lat="47.70757" lon="-3.36653">
        <ele>-2.75</ele>
        <time>2015-10-10T15:45:27Z</time>
      </trkpt>
      <trkpt lat="47.70759" lon="-3.36653">
        <ele>-2.75</ele>
        <time>2015-10-10T15:45:28Z</time>
      </trkpt>
      <trkpt lat="47.7076" lon="-3.36653">
        <ele>-2.75</ele>
        <time>2015-10-10T15:45:29Z</time>
      </trkpt>
      <trkpt lat="47.70762" lon="-3.36653">
        <ele>-2.75</ele>
        <time>2015-10-10T15:45:30Z</time>
      </trkpt>
      <trkpt lat="47.70763" lon="-3.36653">
        <ele>-2.75</ele>
        <time>2015-10-10T15:45:31Z</time>
      </trkpt>
      <trkpt lat="47.70764" lon="-3.36653">
        <ele>-2.75</ele>
        <time>2015-10-10T15:45:32Z</time>
      </trkpt>
      <trkpt lat="47.70766" lon="-3.36653">
        <ele>-2.75</ele>
        <time>2015-10-10T15:45:33Z</time>
      </trkpt>
      <trkpt lat="47.70768" lon="-3.36653">
        <ele>-2.75</ele>
        <time>2015-10-10T15:45:34Z</time>
      </trkpt>
      <trkpt lat="47.70769" lon="-3.36653">
        <ele>-2.75</ele>
        <time>2015-10-10T15:45:35Z</time>
      </trkpt>
      <trkpt lat="47.70771" lon="-3.36653">
        <ele>-2.75</ele>
        <time>2015-10-10T15:45:36Z</time>
      </trkpt>
      <trkpt lat="47.70772" lon="-3.36652">
        <ele>-2.75</ele>
        <time>2015-10-10T15:45:37Z</time>
      </trkpt>
      <trkpt lat="47.70774" lon="-3.36652">
        <ele>-2.75</ele>
        <time>2015-10-10T15:45:38Z</time>
      </trkpt>
      <trkpt lat="47.70776" lon="-3.36652">
        <ele>-2.75</ele>
        <time>2015-10-10T15:45:39Z</time>
      </trkpt>
      <trkpt lat="47.70777" lon="-3.36652">
        <ele>-2.75</ele>
        <time>2015-10-10T15:45:40Z</time>
      </trkpt>
      <trkpt lat="47.70779" lon="-3.36652">
        <ele>-2.75</ele>
        <time>2015-10-10T15:45:41Z</time>
      </trkpt>
      <trkpt lat="47.70781" lon="-3.36651">
        <ele>-2.75</ele>
        <time>2015-10-10T15:45:42Z</time>
      </trkpt>
      <trkpt lat="47.70783" lon="-3.36651">
        <ele>-2.75</ele>
        <time>2015-10-10T15:45:43Z</time>
      </trkpt>
      <trkpt lat="47.70784" lon="-3.3665">
        <ele>-2.75</ele>
        <time>2015-10-10T15:45:44Z</time>
      </trkpt>
      <trkpt lat="47.70786" lon="-3.3665">
        <ele>-2.75</ele>
        <time>2015-10-10T15:45:45Z</time>
      </trkpt>
      <trkpt lat="47.70788" lon="-3.36649">
        <ele>-2.75</ele>
        <time>2015-10-10T15:45:46Z</time>
      </trkpt>
      <trkpt lat="47.7079" lon="-3.36648">
        <ele>-2.75</ele>
        <time>2015-10-10T15:45:47Z</time>
      </trkpt>
      <trkpt lat="47.70792" lon="-3.36647">
        <ele>-2.75</ele>
        <time>2015-10-10T15:45:48Z</time>
      </trkpt>
      <trkpt lat="47.70794" lon="-3.36647">
        <ele>-2.75</ele>
        <time>2015-10-10T15:45:49Z</time>
      </trkpt>
      <trkpt lat="47.70796" lon="-3.36646">
        <ele>-2.75</ele>
        <time>2015-10-10T15:45:50Z</time>
      </trkpt>
      <trkpt lat="47.70798" lon="-3.36646">
        <ele>-2.75</ele>
        <time>2015-10-10T15:45:51Z</time>
      </trkpt>
      <trkpt lat="47.70799" lon="-3.36645">
        <ele>-2.75</ele>
        <time>2015-10-10T15:45:52Z</time>
      </trkpt>
      <trkpt lat="47.70801" lon="-3.36644">
        <ele>-2.75</ele>
        <time>2015-10-10T15:45:53Z</time>
      </trkpt>
      <trkpt lat="47.70803" lon="-3.36643">
        <ele>-2.75</ele>
        <time>2015-10-10T15:45:54Z</time>
      </trkpt>
      <trkpt lat="47.70805" lon="-3.36643">
        <ele>-2.75</ele>
        <time>2015-10-10T15:45:55Z</time>
      </trkpt>
      <trkpt lat="47.70807" lon="-3.36642">
        <ele>-2.75</ele>
        <time>2015-10-10T15:45:56Z</time>
      </trkpt>
      <trkpt lat="47.70809" lon="-3.36642">
        <ele>-2.75</ele>
        <time>2015-10-10T15:45:57Z</time>
      </trkpt>
      <trkpt lat="47.7081" lon="-3.36642">
        <ele>-2.75</ele>
        <time>2015-10-10T15:45:58Z</time>
      </trkpt>
      <trkpt lat="47.70812" lon="-3.36641">
        <ele>-2.75</ele>
        <time>2015-10-10T15:45:59Z</time>
      </trkpt>
      <trkpt lat="47.70814" lon="-3.36641">
        <ele>-2.75</ele>
        <time>2015-10-10T15:46:00Z</time>
      </trkpt>
      <trkpt lat="47.70816" lon="-3.36641">
        <ele>-2.75</ele>
        <time>2015-10-10T15:46:01Z</time>
      </trkpt>
      <trkpt lat="47.70817" lon="-3.3664">
        <ele>-2.75</ele>
        <time>2015-10-10T15:46:02Z</time>
      </trkpt>
      <trkpt lat="47.70819" lon="-3.3664">
        <ele>-2.75</ele>
        <time>2015-10-10T15:46:03Z</time>
      </trkpt>
      <trkpt lat="47.70821" lon="-3.3664">
        <ele>-2.75</ele>
        <time>2015-10-10T15:46:04Z</time>
      </trkpt>
      <trkpt lat="47.70823" lon="-3.3664">
        <ele>-2.75</ele>
        <time>2015-10-10T15:46:05Z</time>
      </trkpt>
      <trkpt lat="47.70824" lon="-3.3664">
        <ele>-2.75</ele>
        <time>2015-10-10T15:46:06Z</time>
      </trkpt>
      <trkpt lat="47.70826" lon="-3.3664">
        <ele>-2.75</ele>
        <time>2015-10-10T15:46:07Z</time>
      </trkpt>
      <trkpt lat="47.70827" lon="-3.36639">
        <ele>-2.75</ele>
        <time>2015-10-10T15:46:08Z</time>
      </trkpt>
      <trkpt lat="47.70829" lon="-3.36639">
        <ele>-2.75</ele>
        <time>2015-10-10T15:46:09Z</time>
      </trkpt>
      <trkpt lat="47.7083" lon="-3.36639">
        <ele>-2.75</ele>
        <time>2015-10-10T15:46:10Z</time>
      </trkpt>
      <trkpt lat="47.70832" lon="-3.36639">
        <ele>-2.75</ele>
        <time>2015-10-10T15:46:11Z</time>
      </trkpt>
      <trkpt lat="47.70834" lon="-3.36638">
        <ele>-2.75</ele>
        <time>2015-10-10T15:46:12Z</time>
      </trkpt>
      <trkpt lat="47.70835" lon="-3.36638">
        <ele>-2.75</ele>
        <time>2015-10-10T15:46:13Z</time>
      </trkpt>
      <trkpt lat="47.70837" lon="-3.36637">
        <ele>-2.75</ele>
        <time>2015-10-10T15:46:14Z</time>
      </trkpt>
      <trkpt lat="47.70838" lon="-3.36636">
        <ele>-2.75</ele>
        <time>2015-10-10T15:46:15Z</time>
      </trkpt>
      <trkpt lat="47.7084" lon="-3.36636">
        <ele>-2.75</ele>
        <time>2015-10-10T15:46:16Z</time>
      </trkpt>
      <trkpt lat="47.70841" lon="-3.36636">
        <ele>-2.75</ele>
        <time>2015-10-10T15:46:17Z</time>
      </trkpt>
      <trkpt lat="47.70842" lon="-3.36635">
        <ele>-2.75</ele>
        <time>2015-10-10T15:46:18Z</time>
      </trkpt>
      <trkpt lat="47.70843" lon="-3.36635">
        <ele>-2.75</ele>
        <time>2015-10-10T15:46:19Z</time>
      </trkpt>
      <trkpt lat="47.70844" lon="-3.36635">
        <ele>-2.75</ele>
        <time>2015-10-10T15:46:20Z</time>
      </trkpt>
      <trkpt lat="47.70845" lon="-3.36635">
        <ele>-2.75</ele>
        <time>2015-10-10T15:46:21Z</time>
      </trkpt>
      <trkpt lat="47.70846" lon="-3.36635">
        <ele>-2.75</ele>
        <time>2015-10-10T15:46:22Z</time>
      </trkpt>
      <trkpt lat="47.70848" lon="-3.36635">
        <ele>-2.75</ele>
        <time>2015-10-10T15:46:23Z</time>
      </trkpt>
      <trkpt lat="47.70849" lon="-3.36634">
        <ele>-2.75</ele>
        <time>2015-10-10T15:46:24Z</time>
      </trkpt>
      <trkpt lat="47.7085" lon="-3.36634">
        <ele>-2.75</ele>
        <time>2015-10-10T15:46:25Z</time>
      </trkpt>
      <trkpt lat="47.70851" lon="-3.36634">
        <ele>-2.75</ele>
        <time>2015-10-10T15:46:26Z</time>
      </trkpt>
      <trkpt lat="47.70852" lon="-3.36634">
        <ele>-2.75</ele>
        <time>2015-10-10T15:46:27Z</time>
      </trkpt>
      <trkpt lat="47.70853" lon="-3.36633">
        <ele>-2.75</ele>
        <time>2015-10-10T15:46:28Z</time>
      </trkpt>
      <trkpt lat="47.70854" lon="-3.36633">
        <ele>-2.75</ele>
        <time>2015-10-10T15:46:29Z</time>
      </trkpt>
      <trkpt lat="47.70854" lon="-3.36633">
        <ele>-2.75</ele>
        <time>2015-10-10T15:46:30Z</time>
      </trkpt>
      <trkpt lat="47.70855" lon="-3.36632">
        <ele>-2.75</ele>
        <time>2015-10-10T15:46:31Z</time>
      </trkpt>
      <trkpt lat="47.70856" lon="-3.36632">
        <ele>-2.75</ele>
        <time>2015-10-10T15:46:32Z</time>
      </trkpt>
      <trkpt lat="47.70857" lon="-3.36632">
        <ele>-2.75</ele>
        <time>2015-10-10T15:46:33Z</time>
      </trkpt>
      <trkpt lat="47.70858" lon="-3.36632">
        <ele>-2.75</ele>
        <time>2015-10-10T15:46:34Z</time>
      </trkpt>
      <trkpt lat="47.70859" lon="-3.36632">
        <ele>-2.75</ele>
        <time>2015-10-10T15:46:35Z</time>
      </trkpt>
      <trkpt lat="47.7086" lon="-3.36632">
        <ele>-2.75</ele>
        <time>2015-10-10T15:46:36Z</time>
      </trkpt>
      <trkpt lat="47.70861" lon="-3.36632">
        <ele>-2.75</ele>
        <time>2015-10-10T15:46:37Z</time>
      </trkpt>
      <trkpt lat="47.70862" lon="-3.36632">
        <ele>-2.75</ele>
        <time>2015-10-10T15:46:38Z</time>
      </trkpt>
      <trkpt lat="47.70863" lon="-3.36631">
        <ele>-2.75</ele>
        <time>2015-10-10T15:46:39Z</time>
      </trkpt>
      <trkpt lat="47.70863" lon="-3.36631">
        <ele>-2.75</ele>
        <time>2015-10-10T15:46:40Z</time>
      </trkpt>
      <trkpt lat="47.70864" lon="-3.36631">
        <ele>-2.75</ele>
        <time>2015-10-10T15:46:41Z</time>
      </trkpt>
      <trkpt lat="47.70865" lon="-3.36631">
        <ele>-2.75</ele>
        <time>2015-10-10T15:46:42Z</time>
      </trkpt>
      <trkpt lat="47.70866" lon="-3.3663">
        <ele>-2.75</ele>
        <time>2015-10-10T15:46:43Z</time>
      </trkpt>
      <trkpt lat="47.70867" lon="-3.3663">
        <ele>-2.75</ele>
        <time>2015-10-10T15:46:44Z</time>
      </trkpt>
      <trkpt lat="47.70868" lon="-3.3663">
        <ele>-2.75</ele>
        <time>2015-10-10T15:46:45Z</time>
      </trkpt>
      <trkpt lat="47.70868" lon="-3.3663">
        <ele>-2.75</ele>
        <time>2015-10-10T15:46:46Z</time>
      </trkpt>
      <trkpt lat="47.70869" lon="-3.3663">
        <ele>-2.75</ele>
        <time>2015-10-10T15:46:47Z</time>
      </trkpt>
      <trkpt lat="47.7087" lon="-3.3663">
        <ele>-2.75</ele>
        <time>2015-10-10T15:46:48Z</time>
      </trkpt>
      <trkpt lat="47.70871" lon="-3.3663">
        <ele>-2.75</ele>
        <time>2015-10-10T15:46:49Z</time>
      </trkpt>
      <trkpt lat="47.70872" lon="-3.36629">
        <ele>-2.75</ele>
        <time>2015-10-10T15:46:50Z</time>
      </trkpt>
      <trkpt lat="47.70873" lon="-3.3663">
        <ele>-2.75</ele>
        <time>2015-10-10T15:46:51Z</time>
      </trkpt>
      <trkpt lat="47.70874" lon="-3.36629">
        <ele>-2.75</ele>
        <time>2015-10-10T15:46:52Z</time>
      </trkpt>
      <trkpt lat="47.70875" lon="-3.36629">
        <ele>-2.75</ele>
        <time>2015-10-10T15:46:53Z</time>
      </trkpt>
      <trkpt lat="47.70876" lon="-3.36629">
        <ele>-2.75</ele>
        <time>2015-10-10T15:46:54Z</time>
      </trkpt>
      <trkpt lat="47.70877" lon="-3.36629">
        <ele>-2.75</ele>
        <time>2015-10-10T15:46:55Z</time>
      </trkpt>
      <trkpt lat="47.70878" lon="-3.36628">
        <ele>-2.75</ele>
        <time>2015-10-10T15:46:56Z</time>
      </trkpt>
      <trkpt lat="47.70879" lon="-3.36628">
        <ele>-2.75</ele>
        <time>2015-10-10T15:46:57Z</time>
      </trkpt>
      <trkpt lat="47.7088" lon="-3.36628">
        <ele>-2.75</ele>
        <time>2015-10-10T15:46:58Z</time>
      </trkpt>
      <trkpt lat="47.70881" lon="-3.36627">
        <ele>-2.75</ele>
        <time>2015-10-10T15:46:59Z</time>
      </trkpt>
      <trkpt lat="47.70882" lon="-3.36627">
        <ele>-2.75</ele>
        <time>2015-10-10T15:47:00Z</time>
      </trkpt>
      <trkpt lat="47.70883" lon="-3.36626">
        <ele>-2.75</ele>
        <time>2015-10-10T15:47:01Z</time>
      </trkpt>
      <trkpt lat="47.70884" lon="-3.36626">
        <ele>-2.75</ele>
        <time>2015-10-10T15:47:02Z</time>
      </trkpt>
      <trkpt lat="47.70885" lon="-3.36625">
        <ele>-2.75</ele>
        <time>2015-10-10T15:47:03Z</time>
      </trkpt>
      <trkpt lat="47.70886" lon="-3.36625">
        <ele>-2.75</ele>
        <time>2015-10-10T15:47:04Z</time>
      </trkpt>
      <trkpt lat="47.70887" lon="-3.36625">
        <ele>-2.75</ele>
        <time>2015-10-10T15:47:05Z</time>
      </trkpt>
      <trkpt lat="47.70888" lon="-3.36624">
        <ele>-2.75</ele>
        <time>2015-10-10T15:47:06Z</time>
      </trkpt>
      <trkpt lat="47.70889" lon="-3.36624">
        <ele>-2.75</ele>
        <time>2015-10-10T15:47:07Z</time>
      </trkpt>
      <trkpt lat="47.7089" lon="-3.36624">
        <ele>-2.75</ele>
        <time>2015-10-10T15:47:08Z</time>
      </trkpt>
      <trkpt lat="47.70891" lon="-3.36624">
        <ele>-2.75</ele>
        <time>2015-10-10T15:47:09Z</time>
      </trkpt>
      <trkpt lat="47.70891" lon="-3.36624">
        <ele>-2.75</ele>
        <time>2015-10-10T15:47:10Z</time>
      </trkpt>
      <trkpt lat="47.70892" lon="-3.36624">
        <ele>-2.75</ele>
        <time>2015-10-10T15:47:11Z</time>
      </trkpt>
      <trkpt lat="47.70893" lon="-3.36623">
        <ele>-2.75</ele>
        <time>2015-10-10T15:47:12Z</time>
      </trkpt>
      <trkpt lat="47.70894" lon="-3.36623">
        <ele>-2.75</ele>
        <time>2015-10-10T15:47:13Z</time>
      </trkpt>
      <trkpt lat="47.70895" lon="-3.36623">
        <ele>-2.75</ele>
        <time>2015-10-10T15:47:14Z</time>
      </trkpt>
      <trkpt lat="47.70896" lon="-3.36622">
        <ele>-2.75</ele>
        <time>2015-10-10T15:47:15Z</time>
      </trkpt>
      <trkpt lat="47.70896" lon="-3.36622">
        <ele>-2.75</ele>
        <time>2015-10-10T15:47:16Z</time>
      </trkpt>
      <trkpt lat="47.70897" lon="-3.36622">
        <ele>-2.75</ele>
        <time>2015-10-10T15:47:17Z</time>
      </trkpt>
      <trkpt lat="47.70898" lon="-3.36621">
        <ele>-2.75</ele>
        <time>2015-10-10T15:47:18Z</time>
      </trkpt>
      <trkpt lat="47.70899" lon="-3.36621">
        <ele>-2.75</ele>
        <time>2015-10-10T15:47:19Z</time>
      </trkpt>
      <trkpt lat="47.709" lon="-3.3662">
        <ele>-2.75</ele>
        <time>2015-10-10T15:47:20Z</time>
      </trkpt>
      <trkpt lat="47.709" lon="-3.3662">
        <ele>-2.75</ele>
        <time>2015-10-10T15:47:21Z</time>
      </trkpt>
      <trkpt lat="47.70901" lon="-3.3662">
        <ele>-2.75</ele>
        <time>2015-10-10T15:47:22Z</time>
      </trkpt>
      <trkpt lat="47.70902" lon="-3.3662">
        <ele>-2.75</ele>
        <time>2015-10-10T15:47:23Z</time>
      </trkpt>
      <trkpt lat="47.70902" lon="-3.3662">
        <ele>-2.75</ele>
        <time>2015-10-10T15:47:24Z</time>
      </trkpt>
      <trkpt lat="47.70903" lon="-3.3662">
        <ele>-2.75</ele>
        <time>2015-10-10T15:47:25Z</time>
      </trkpt>
      <trkpt lat="47.70903" lon="-3.3662">
        <ele>-2.75</ele>
        <time>2015-10-10T15:47:26Z</time>
      </trkpt>
      <trkpt lat="47.70904" lon="-3.36619">
        <ele>-2.75</ele>
        <time>2015-10-10T15:47:27Z</time>
      </trkpt>
      <trkpt lat="47.70904" lon="-3.36619">
        <ele>-2.75</ele>
        <time>2015-10-10T15:47:28Z</time>
      </trkpt>
      <trkpt lat="47.70905" lon="-3.36619">
        <ele>-2.75</ele>
        <time>2015-10-10T15:47:29Z</time>
      </trkpt>
      <trkpt lat="47.70906" lon="-3.36619">
        <ele>-2.75</ele>
        <time>2015-10-10T15:47:30Z</time>
      </trkpt>
      <trkpt lat="47.70906" lon="-3.36619">
        <ele>-2.75</ele>
        <time>2015-10-10T15:47:31Z</time>
      </trkpt>
      <trkpt lat="47.70907" lon="-3.36618">
        <ele>-2.75</ele>
        <time>2015-10-10T15:47:32Z</time>
      </trkpt>
      <trkpt lat="47.70908" lon="-3.36618">
        <ele>-2.75</ele>
        <time>2015-10-10T15:47:33Z</time>
      </trkpt>
      <trkpt lat="47.70908" lon="-3.36618">
        <ele>-2.75</ele>
        <time>2015-10-10T15:47:34Z</time>
      </trkpt>
      <trkpt lat="47.70909" lon="-3.36618">
        <ele>-2.75</ele>
        <time>2015-10-10T15:47:35Z</time>
      </trkpt>
      <trkpt lat="47.7091" lon="-3.36617">
        <ele>-2.75</ele>
        <time>2015-10-10T15:47:36Z</time>
      </trkpt>
      <trkpt lat="47.70911" lon="-3.36617">
        <ele>-2.75</ele>
        <time>2015-10-10T15:47:37Z</time>
      </trkpt>
      <trkpt lat="47.70911" lon="-3.36617">
        <ele>-2.75</ele>
        <time>2015-10-10T15:47:38Z</time>
      </trkpt>
      <trkpt lat="47.70912" lon="-3.36616">
        <ele>-2.75</ele>
        <time>2015-10-10T15:47:39Z</time>
      </trkpt>
      <trkpt lat="47.70913" lon="-3.36616">
        <ele>-2.75</ele>
        <time>2015-10-10T15:47:40Z</time>
      </trkpt>
      <trkpt lat="47.70914" lon="-3.36616">
        <ele>-3.23</ele>
        <time>2015-10-10T15:47:41Z</time>
      </trkpt>
      <trkpt lat="47.70915" lon="-3.36616">
        <ele>-3.23</ele>
        <time>2015-10-10T15:47:42Z</time>
      </trkpt>
      <trkpt lat="47.70916" lon="-3.36616">
        <ele>-3.23</ele>
        <time>2015-10-10T15:47:43Z</time>
      </trkpt>
      <trkpt lat="47.70917" lon="-3.36616">
        <ele>-3.23</ele>
        <time>2015-10-10T15:47:44Z</time>
      </trkpt>
      <trkpt lat="47.70918" lon="-3.36616">
        <ele>-3.23</ele>
        <time>2015-10-10T15:47:45Z</time>
      </trkpt>
      <trkpt lat="47.70919" lon="-3.36615">
        <ele>-3.23</ele>
        <time>2015-10-10T15:47:46Z</time>
      </trkpt>
      <trkpt lat="47.7092" lon="-3.36615">
        <ele>-3.23</ele>
        <time>2015-10-10T15:47:47Z</time>
      </trkpt>
      <trkpt lat="47.70921" lon="-3.36615">
        <ele>-3.23</ele>
        <time>2015-10-10T15:47:48Z</time>
      </trkpt>
      <trkpt lat="47.70922" lon="-3.36614">
        <ele>-3.23</ele>
        <time>2015-10-10T15:47:49Z</time>
      </trkpt>
      <trkpt lat="47.70923" lon="-3.36614">
        <ele>-3.23</ele>
        <time>2015-10-10T15:47:50Z</time>
      </trkpt>
      <trkpt lat="47.70924" lon="-3.36614">
        <ele>-3.23</ele>
        <time>2015-10-10T15:47:51Z</time>
      </trkpt>
      <trkpt lat="47.70925" lon="-3.36614">
        <ele>-3.23</ele>
        <time>2015-10-10T15:47:52Z</time>
      </trkpt>
      <trkpt lat="47.70926" lon="-3.36614">
        <ele>-3.23</ele>
        <time>2015-10-10T15:47:53Z</time>
      </trkpt>
      <trkpt lat="47.70927" lon="-3.36614">
        <ele>-3.23</ele>
        <time>2015-10-10T15:47:54Z</time>
      </trkpt>
      <trkpt lat="47.70929" lon="-3.36614">
        <ele>-3.23</ele>
        <time>2015-10-10T15:47:55Z</time>
      </trkpt>
      <trkpt lat="47.7093" lon="-3.36614">
        <ele>-3.23</ele>
        <time>2015-10-10T15:47:56Z</time>
      </trkpt>
      <trkpt lat="47.70931" lon="-3.36613">
        <ele>-3.23</ele>
        <time>2015-10-10T15:47:57Z</time>
      </trkpt>
      <trkpt lat="47.70932" lon="-3.36613">
        <ele>-3.23</ele>
        <time>2015-10-10T15:47:58Z</time>
      </trkpt>
      <trkpt lat="47.70934" lon="-3.36613">
        <ele>-3.23</ele>
        <time>2015-10-10T15:47:59Z</time>
      </trkpt>
      <trkpt lat="47.70935" lon="-3.36613">
        <ele>-3.23</ele>
        <time>2015-10-10T15:48:00Z</time>
      </trkpt>
      <trkpt lat="47.70936" lon="-3.36612">
        <ele>-3.23</ele>
        <time>2015-10-10T15:48:01Z</time>
      </trkpt>
      <trkpt lat="47.70937" lon="-3.36612">
        <ele>-3.23</ele>
        <time>2015-10-10T15:48:02Z</time>
      </trkpt>
      <trkpt lat="47.70939" lon="-3.36612">
        <ele>-3.23</ele>
        <time>2015-10-10T15:48:03Z</time>
      </trkpt>
      <trkpt lat="47.7094" lon="-3.36612">
        <ele>-3.23</ele>
        <time>2015-10-10T15:48:04Z</time>
      </trkpt>
      <trkpt lat="47.70942" lon="-3.36611">
        <ele>-3.71</ele>
        <time>2015-10-10T15:48:05Z</time>
      </trkpt>
      <trkpt lat="47.70943" lon="-3.36611">
        <ele>-3.71</ele>
        <time>2015-10-10T15:48:06Z</time>
      </trkpt>
      <trkpt lat="47.70944" lon="-3.36611">
        <ele>-3.71</ele>
        <time>2015-10-10T15:48:07Z</time>
      </trkpt>
      <trkpt lat="47.70946" lon="-3.3661">
        <ele>-3.71</ele>
        <time>2015-10-10T15:48:08Z</time>
      </trkpt>
      <trkpt lat="47.70947" lon="-3.3661">
        <ele>-3.71</ele>
        <time>2015-10-10T15:48:09Z</time>
      </trkpt>
      <trkpt lat="47.70949" lon="-3.36609">
        <ele>-3.71</ele>
        <time>2015-10-10T15:48:10Z</time>
      </trkpt>
      <trkpt lat="47.7095" lon="-3.36609">
        <ele>-3.71</ele>
        <time>2015-10-10T15:48:11Z</time>
      </trkpt>
      <trkpt lat="47.70952" lon="-3.36608">
        <ele>-3.71</ele>
        <time>2015-10-10T15:48:12Z</time>
      </trkpt>
      <trkpt lat="47.70953" lon="-3.36608">
        <ele>-3.71</ele>
        <time>2015-10-10T15:48:13Z</time>
      </trkpt>
      <trkpt lat="47.70954" lon="-3.36608">
        <ele>-3.71</ele>
        <time>2015-10-10T15:48:14Z</time>
      </trkpt>
      <trkpt lat="47.70956" lon="-3.36608">
        <ele>-3.71</ele>
        <time>2015-10-10T15:48:15Z</time>
      </trkpt>
      <trkpt lat="47.70958" lon="-3.36607">
        <ele>-3.71</ele>
        <time>2015-10-10T15:48:16Z</time>
      </trkpt>
      <trkpt lat="47.70959" lon="-3.36607">
        <ele>-3.71</ele>
        <time>2015-10-10T15:48:17Z</time>
      </trkpt>
      <trkpt lat="47.7096" lon="-3.36607">
        <ele>-3.71</ele>
        <time>2015-10-10T15:48:18Z</time>
      </trkpt>
      <trkpt lat="47.70962" lon="-3.36607">
        <ele>-3.71</ele>
        <time>2015-10-10T15:48:19Z</time>
      </trkpt>
      <trkpt lat="47.70963" lon="-3.36606">
        <ele>-3.71</ele>
        <time>2015-10-10T15:48:20Z</time>
      </trkpt>
      <trkpt lat="47.70965" lon="-3.36606">
        <ele>-3.71</ele>
        <time>2015-10-10T15:48:21Z</time>
      </trkpt>
      <trkpt lat="47.70966" lon="-3.36606">
        <ele>-3.71</ele>
        <time>2015-10-10T15:48:22Z</time>
      </trkpt>
      <trkpt lat="47.70967" lon="-3.36605">
        <ele>-3.23</ele>
        <time>2015-10-10T15:48:23Z</time>
      </trkpt>
      <trkpt lat="47.70969" lon="-3.36605">
        <ele>-3.71</ele>
        <time>2015-10-10T15:48:24Z</time>
      </trkpt>
      <trkpt lat="47.7097" lon="-3.36605">
        <ele>-3.71</ele>
        <time>2015-10-10T15:48:25Z</time>
      </trkpt>
      <trkpt lat="47.70971" lon="-3.36605">
        <ele>-3.23</ele>
        <time>2015-10-10T15:48:26Z</time>
      </trkpt>
      <trkpt lat="47.70973" lon="-3.36605">
        <ele>-3.71</ele>
        <time>2015-10-10T15:48:27Z</time>
      </trkpt>
      <trkpt lat="47.70974" lon="-3.36605">
        <ele>-3.23</ele>
        <time>2015-10-10T15:48:28Z</time>
      </trkpt>
      <trkpt lat="47.70976" lon="-3.36605">
        <ele>-3.23</ele>
        <time>2015-10-10T15:48:29Z</time>
      </trkpt>
      <trkpt lat="47.70977" lon="-3.36605">
        <ele>-3.23</ele>
        <time>2015-10-10T15:48:30Z</time>
      </trkpt>
      <trkpt lat="47.70978" lon="-3.36605">
        <ele>-2.27</ele>
        <time>2015-10-10T15:48:31Z</time>
      </trkpt>
      <trkpt lat="47.7098" lon="-3.36604">
        <ele>-2.27</ele>
        <time>2015-10-10T15:48:32Z</time>
      </trkpt>
      <trkpt lat="47.70981" lon="-3.36604">
        <ele>-2.27</ele>
        <time>2015-10-10T15:48:33Z</time>
      </trkpt>
      <trkpt lat="47.70982" lon="-3.36604">
        <ele>-2.27</ele>
        <time>2015-10-10T15:48:34Z</time>
      </trkpt>
      <trkpt lat="47.70983" lon="-3.36604">
        <ele>-2.27</ele>
        <time>2015-10-10T15:48:35Z</time>
      </trkpt>
      <trkpt lat="47.70984" lon="-3.36604">
        <ele>-2.27</ele>
        <time>2015-10-10T15:48:36Z</time>
      </trkpt>
      <trkpt lat="47.70986" lon="-3.36604">
        <ele>-2.27</ele>
        <time>2015-10-10T15:48:37Z</time>
      </trkpt>
      <trkpt lat="47.70986" lon="-3.36604">
        <ele>-2.27</ele>
        <time>2015-10-10T15:48:38Z</time>
      </trkpt>
      <trkpt lat="47.70988" lon="-3.36605">
        <ele>-2.27</ele>
        <time>2015-10-10T15:48:39Z</time>
      </trkpt>
      <trkpt lat="47.70989" lon="-3.36605">
        <ele>-2.27</ele>
        <time>2015-10-10T15:48:40Z</time>
      </trkpt>
      <trkpt lat="47.7099" lon="-3.36605">
        <ele>-2.27</ele>
        <time>2015-10-10T15:48:41Z</time>
      </trkpt>
      <trkpt lat="47.70992" lon="-3.36605">
        <ele>-2.27</ele>
        <time>2015-10-10T15:48:42Z</time>
      </trkpt>
      <trkpt lat="47.70993" lon="-3.36605">
        <ele>-2.27</ele>
        <time>2015-10-10T15:48:43Z</time>
      </trkpt>
      <trkpt lat="47.70994" lon="-3.36605">
        <ele>-2.27</ele>
        <time>2015-10-10T15:48:44Z</time>
      </trkpt>
      <trkpt lat="47.70995" lon="-3.36605">
        <ele>-2.27</ele>
        <time>2015-10-10T15:48:45Z</time>
      </trkpt>
      <trkpt lat="47.70997" lon="-3.36604">
        <ele>-2.27</ele>
        <time>2015-10-10T15:48:46Z</time>
      </trkpt>
      <trkpt lat="47.70998" lon="-3.36604">
        <ele>-2.27</ele>
        <time>2015-10-10T15:48:47Z</time>
      </trkpt>
      <trkpt lat="47.70999" lon="-3.36604">
        <ele>-2.27</ele>
        <time>2015-10-10T15:48:48Z</time>
      </trkpt>
      <trkpt lat="47.71" lon="-3.36604">
        <ele>-2.27</ele>
        <time>2015-10-10T15:48:49Z</time>
      </trkpt>
      <trkpt lat="47.71001" lon="-3.36604">
        <ele>-2.27</ele>
        <time>2015-10-10T15:48:50Z</time>
      </trkpt>
      <trkpt lat="47.71002" lon="-3.36603">
        <ele>-2.27</ele>
        <time>2015-10-10T15:48:51Z</time>
      </trkpt>
      <trkpt lat="47.71003" lon="-3.36603">
        <ele>-2.27</ele>
        <time>2015-10-10T15:48:52Z</time>
      </trkpt>
      <trkpt lat="47.71004" lon="-3.36603">
        <ele>-2.27</ele>
        <time>2015-10-10T15:48:53Z</time>
      </trkpt>
      <trkpt lat="47.71005" lon="-3.36603">
        <ele>-2.27</ele>
        <time>2015-10-10T15:48:54Z</time>
      </trkpt>
      <trkpt lat="47.71006" lon="-3.36603">
        <ele>-2.27</ele>
        <time>2015-10-10T15:48:55Z</time>
      </trkpt>
      <trkpt lat="47.71007" lon="-3.36603">
        <ele>-2.27</ele>
        <time>2015-10-10T15:48:56Z</time>
      </trkpt>
      <trkpt lat="47.71008" lon="-3.36603">
        <ele>-2.27</ele>
        <time>2015-10-10T15:48:57Z</time>
      </trkpt>
      <trkpt lat="47.71008" lon="-3.36604">
        <ele>-2.27</ele>
        <time>2015-10-10T15:48:58Z</time>
      </trkpt>
      <trkpt lat="47.71009" lon="-3.36604">
        <ele>-2.27</ele>
        <time>2015-10-10T15:48:59Z</time>
      </trkpt>
      <trkpt lat="47.7101" lon="-3.36604">
        <ele>-2.27</ele>
        <time>2015-10-10T15:49:00Z</time>
      </trkpt>
      <trkpt lat="47.71011" lon="-3.36604">
        <ele>-2.27</ele>
        <time>2015-10-10T15:49:01Z</time>
      </trkpt>
      <trkpt lat="47.71012" lon="-3.36604">
        <ele>-2.27</ele>
        <time>2015-10-10T15:49:02Z</time>
      </trkpt>
      <trkpt lat="47.71013" lon="-3.36604">
        <ele>-2.27</ele>
        <time>2015-10-10T15:49:03Z</time>
      </trkpt>
      <trkpt lat="47.71013" lon="-3.36604">
        <ele>-2.27</ele>
        <time>2015-10-10T15:49:04Z</time>
      </trkpt>
      <trkpt lat="47.71014" lon="-3.36604">
        <ele>-2.27</ele>
        <time>2015-10-10T15:49:05Z</time>
      </trkpt>
      <trkpt lat="47.71015" lon="-3.36604">
        <ele>-2.27</ele>
        <time>2015-10-10T15:49:06Z</time>
      </trkpt>
      <trkpt lat="47.71016" lon="-3.36605">
        <ele>-2.27</ele>
        <time>2015-10-10T15:49:07Z</time>
      </trkpt>
      <trkpt lat="47.71017" lon="-3.36605">
        <ele>-2.27</ele>
        <time>2015-10-10T15:49:08Z</time>
      </trkpt>
      <trkpt lat="47.71017" lon="-3.36605">
        <ele>-2.27</ele>
        <time>2015-10-10T15:49:09Z</time>
      </trkpt>
      <trkpt lat="47.71018" lon="-3.36606">
        <ele>-2.27</ele>
        <time>2015-10-10T15:49:10Z</time>
      </trkpt>
      <trkpt lat="47.71019" lon="-3.36606">
        <ele>-2.27</ele>
        <time>2015-10-10T15:49:11Z</time>
      </trkpt>
      <trkpt lat="47.7102" lon="-3.36607">
        <ele>-2.27</ele>
        <time>2015-10-10T15:49:12Z</time>
      </trkpt>
      <trkpt lat="47.71021" lon="-3.36607">
        <ele>-2.27</ele>
        <time>2015-10-10T15:49:13Z</time>
      </trkpt>
      <trkpt lat="47.71021" lon="-3.36608">
        <ele>-2.27</ele>
        <time>2015-10-10T15:49:14Z</time>
      </trkpt>
      <trkpt lat="47.71022" lon="-3.36609">
        <ele>-2.27</ele>
        <time>2015-10-10T15:49:15Z</time>
      </trkpt>
      <trkpt lat="47.71023" lon="-3.36609">
        <ele>-2.27</ele>
        <time>2015-10-10T15:49:16Z</time>
      </trkpt>
      <trkpt lat="47.71024" lon="-3.3661">
        <ele>-2.27</ele>
        <time>2015-10-10T15:49:17Z</time>
      </trkpt>
      <trkpt lat="47.71025" lon="-3.3661">
        <ele>-2.27</ele>
        <time>2015-10-10T15:49:18Z</time>
      </trkpt>
      <trkpt lat="47.71026" lon="-3.3661">
        <ele>-2.27</ele>
        <time>2015-10-10T15:49:19Z</time>
      </trkpt>
      <trkpt lat="47.71027" lon="-3.36611">
        <ele>-2.27</ele>
        <time>2015-10-10T15:49:20Z</time>
      </trkpt>
      <trkpt lat="47.71028" lon="-3.36611">
        <ele>-2.27</ele>
        <time>2015-10-10T15:49:21Z</time>
      </trkpt>
      <trkpt lat="47.71029" lon="-3.36611">
        <ele>-2.27</ele>
        <time>2015-10-10T15:49:22Z</time>
      </trkpt>
      <trkpt lat="47.71029" lon="-3.36612">
        <ele>-2.27</ele>
        <time>2015-10-10T15:49:23Z</time>
      </trkpt>
      <trkpt lat="47.7103" lon="-3.36612">
        <ele>-2.27</ele>
        <time>2015-10-10T15:49:24Z</time>
      </trkpt>
      <trkpt lat="47.71031" lon="-3.36612">
        <ele>-2.27</ele>
        <time>2015-10-10T15:49:25Z</time>
      </trkpt>
      <trkpt lat="47.71032" lon="-3.36612">
        <ele>-2.27</ele>
        <time>2015-10-10T15:49:26Z</time>
      </trkpt>
      <trkpt lat="47.71033" lon="-3.36613">
        <ele>-2.27</ele>
        <time>2015-10-10T15:49:27Z</time>
      </trkpt>
      <trkpt lat="47.71034" lon="-3.36613">
        <ele>-2.27</ele>
        <time>2015-10-10T15:49:28Z</time>
      </trkpt>
      <trkpt lat="47.71034" lon="-3.36613">
        <ele>-2.27</ele>
        <time>2015-10-10T15:49:29Z</time>
      </trkpt>
      <trkpt lat="47.71035" lon="-3.36614">
        <ele>-2.27</ele>
        <time>2015-10-10T15:49:30Z</time>
      </trkpt>
      <trkpt lat="47.71036" lon="-3.36614">
        <ele>-2.27</ele>
        <time>2015-10-10T15:49:31Z</time>
      </trkpt>
      <trkpt lat="47.71036" lon="-3.36614">
        <ele>-2.27</ele>
        <time>2015-10-10T15:49:32Z</time>
      </trkpt>
      <trkpt lat="47.71037" lon="-3.36615">
        <ele>-2.27</ele>
        <time>2015-10-10T15:49:33Z</time>
      </trkpt>
      <trkpt lat="47.71038" lon="-3.36616">
        <ele>-2.27</ele>
        <time>2015-10-10T15:49:34Z</time>
      </trkpt>
      <trkpt lat="47.71039" lon="-3.36616">
        <ele>-2.27</ele>
        <time>2015-10-10T15:49:35Z</time>
      </trkpt>
      <trkpt lat="47.71039" lon="-3.36617">
        <ele>-2.27</ele>
        <time>2015-10-10T15:49:36Z</time>
      </trkpt>
      <trkpt lat="47.7104" lon="-3.36618">
        <ele>-2.27</ele>
        <time>2015-10-10T15:49:37Z</time>
      </trkpt>
      <trkpt lat="47.71041" lon="-3.36619">
        <ele>-2.27</ele>
        <time>2015-10-10T15:49:38Z</time>
      </trkpt>
      <trkpt lat="47.71042" lon="-3.36619">
        <ele>-2.27</ele>
        <time>2015-10-10T15:49:39Z</time>
      </trkpt>
      <trkpt lat="47.71043" lon="-3.3662">
        <ele>-2.27</ele>
        <time>2015-10-10T15:49:40Z</time>
      </trkpt>
      <trkpt lat="47.71044" lon="-3.3662">
        <ele>-2.27</ele>
        <time>2015-10-10T15:49:41Z</time>
      </trkpt>
      <trkpt lat="47.71045" lon="-3.3662">
        <ele>-2.27</ele>
        <time>2015-10-10T15:49:42Z</time>
      </trkpt>
      <trkpt lat="47.71046" lon="-3.36621">
        <ele>-2.27</ele>
        <time>2015-10-10T15:49:43Z</time>
      </trkpt>
      <trkpt lat="47.71046" lon="-3.36621">
        <ele>-2.27</ele>
        <time>2015-10-10T15:49:44Z</time>
      </trkpt>
      <trkpt lat="47.71047" lon="-3.36621">
        <ele>-2.27</ele>
        <time>2015-10-10T15:49:45Z</time>
      </trkpt>
      <trkpt lat="47.71048" lon="-3.36622">
        <ele>-2.27</ele>
        <time>2015-10-10T15:49:46Z</time>
      </trkpt>
      <trkpt lat="47.71049" lon="-3.36622">
        <ele>-2.27</ele>
        <time>2015-10-10T15:49:47Z</time>
      </trkpt>
      <trkpt lat="47.7105" lon="-3.36623">
        <ele>-2.27</ele>
        <time>2015-10-10T15:49:48Z</time>
      </trkpt>
      <trkpt lat="47.71051" lon="-3.36623">
        <ele>-2.27</ele>
        <time>2015-10-10T15:49:49Z</time>
      </trkpt>
      <trkpt lat="47.71051" lon="-3.36623">
        <ele>-2.27</ele>
        <time>2015-10-10T15:49:50Z</time>
      </trkpt>
      <trkpt lat="47.71052" lon="-3.36624">
        <ele>-2.27</ele>
        <time>2015-10-10T15:49:51Z</time>
      </trkpt>
      <trkpt lat="47.71053" lon="-3.36624">
        <ele>-2.27</ele>
        <time>2015-10-10T15:49:52Z</time>
      </trkpt>
      <trkpt lat="47.71054" lon="-3.36624">
        <ele>-2.27</ele>
        <time>2015-10-10T15:49:53Z</time>
      </trkpt>
      <trkpt lat="47.71055" lon="-3.36625">
        <ele>-2.27</ele>
        <time>2015-10-10T15:49:54Z</time>
      </trkpt>
      <trkpt lat="47.71056" lon="-3.36625">
        <ele>-2.27</ele>
        <time>2015-10-10T15:49:55Z</time>
      </trkpt>
      <trkpt lat="47.71056" lon="-3.36626">
        <ele>-2.27</ele>
        <time>2015-10-10T15:49:56Z</time>
      </trkpt>
      <trkpt lat="47.71057" lon="-3.36626">
        <ele>-2.27</ele>
        <time>2015-10-10T15:49:57Z</time>
      </trkpt>
      <trkpt lat="47.71058" lon="-3.36627">
        <ele>-2.27</ele>
        <time>2015-10-10T15:49:58Z</time>
      </trkpt>
      <trkpt lat="47.71059" lon="-3.36627">
        <ele>-2.27</ele>
        <time>2015-10-10T15:49:59Z</time>
      </trkpt>
      <trkpt lat="47.7106" lon="-3.36627">
        <ele>-2.27</ele>
        <time>2015-10-10T15:50:00Z</time>
      </trkpt>
      <trkpt lat="47.7106" lon="-3.36628">
        <ele>-2.27</ele>
        <time>2015-10-10T15:50:01Z</time>
      </trkpt>
      <trkpt lat="47.71061" lon="-3.36628">
        <ele>-2.27</ele>
        <time>2015-10-10T15:50:02Z</time>
      </trkpt>
      <trkpt lat="47.71062" lon="-3.36628">
        <ele>-1.79</ele>
        <time>2015-10-10T15:50:03Z</time>
      </trkpt>
      <trkpt lat="47.71063" lon="-3.36629">
        <ele>-1.79</ele>
        <time>2015-10-10T15:50:04Z</time>
      </trkpt>
      <trkpt lat="47.71064" lon="-3.36629">
        <ele>-1.79</ele>
        <time>2015-10-10T15:50:05Z</time>
      </trkpt>
      <trkpt lat="47.71065" lon="-3.3663">
        <ele>-1.79</ele>
        <time>2015-10-10T15:50:06Z</time>
      </trkpt>
      <trkpt lat="47.71065" lon="-3.3663">
        <ele>-1.79</ele>
        <time>2015-10-10T15:50:07Z</time>
      </trkpt>
      <trkpt lat="47.71066" lon="-3.3663">
        <ele>-1.79</ele>
        <time>2015-10-10T15:50:08Z</time>
      </trkpt>
      <trkpt lat="47.71067" lon="-3.36631">
        <ele>-1.79</ele>
        <time>2015-10-10T15:50:09Z</time>
      </trkpt>
      <trkpt lat="47.71068" lon="-3.36631">
        <ele>-1.79</ele>
        <time>2015-10-10T15:50:10Z</time>
      </trkpt>
      <trkpt lat="47.71068" lon="-3.36631">
        <ele>-2.27</ele>
        <time>2015-10-10T15:50:11Z</time>
      </trkpt>
      <trkpt lat="47.71069" lon="-3.36632">
        <ele>-1.79</ele>
        <time>2015-10-10T15:50:12Z</time>
      </trkpt>
      <trkpt lat="47.7107" lon="-3.36632">
        <ele>-1.79</ele>
        <time>2015-10-10T15:50:13Z</time>
      </trkpt>
      <trkpt lat="47.71071" lon="-3.36633">
        <ele>-1.79</ele>
        <time>2015-10-10T15:50:14Z</time>
      </trkpt>
      <trkpt lat="47.71072" lon="-3.36633">
        <ele>-1.79</ele>
        <time>2015-10-10T15:50:15Z</time>
      </trkpt>
      <trkpt lat="47.71073" lon="-3.36634">
        <ele>-1.79</ele>
        <time>2015-10-10T15:50:16Z</time>
      </trkpt>
      <trkpt lat="47.71074" lon="-3.36635">
        <ele>-1.79</ele>
        <time>2015-10-10T15:50:17Z</time>
      </trkpt>
      <trkpt lat="47.71075" lon="-3.36635">
        <ele>-1.79</ele>
        <time>2015-10-10T15:50:18Z</time>
      </trkpt>
      <trkpt lat="47.71076" lon="-3.36636">
        <ele>-1.79</ele>
        <time>2015-10-10T15:50:19Z</time>
      </trkpt>
      <trkpt lat="47.71077" lon="-3.36636">
        <ele>-1.79</ele>
        <time>2015-10-10T15:50:20Z</time>
      </trkpt>
      <trkpt lat="47.71078" lon="-3.36637">
        <ele>-1.79</ele>
        <time>2015-10-10T15:50:21Z</time>
      </trkpt>
      <trkpt lat="47.71079" lon="-3.36637">
        <ele>-1.79</ele>
        <time>2015-10-10T15:50:22Z</time>
      </trkpt>
      <trkpt lat="47.71081" lon="-3.36638">
        <ele>-1.79</ele>
        <time>2015-10-10T15:50:23Z</time>
      </trkpt>
      <trkpt lat="47.71082" lon="-3.36638">
        <ele>-1.79</ele>
        <time>2015-10-10T15:50:24Z</time>
      </trkpt>
      <trkpt lat="47.71083" lon="-3.36638">
        <ele>-1.79</ele>
        <time>2015-10-10T15:50:25Z</time>
      </trkpt>
      <trkpt lat="47.71084" lon="-3.36638">
        <ele>-1.79</ele>
        <time>2015-10-10T15:50:26Z</time>
      </trkpt>
      <trkpt lat="47.71085" lon="-3.36639">
        <ele>-1.79</ele>
        <time>2015-10-10T15:50:27Z</time>
      </trkpt>
      <trkpt lat="47.71086" lon="-3.36639">
        <ele>-1.79</ele>
        <time>2015-10-10T15:50:28Z</time>
      </trkpt>
      <trkpt lat="47.71088" lon="-3.36639">
        <ele>-1.79</ele>
        <time>2015-10-10T15:50:29Z</time>
      </trkpt>
      <trkpt lat="47.71089" lon="-3.36639">
        <ele>-1.79</ele>
        <time>2015-10-10T15:50:30Z</time>
      </trkpt>
      <trkpt lat="47.7109" lon="-3.36639">
        <ele>-1.79</ele>
        <time>2015-10-10T15:50:31Z</time>
      </trkpt>
      <trkpt lat="47.71091" lon="-3.36639">
        <ele>-1.79</ele>
        <time>2015-10-10T15:50:32Z</time>
      </trkpt>
      <trkpt lat="47.71092" lon="-3.36639">
        <ele>-1.79</ele>
        <time>2015-10-10T15:50:33Z</time>
      </trkpt>
      <trkpt lat="47.71093" lon="-3.36639">
        <ele>-1.79</ele>
        <time>2015-10-10T15:50:34Z</time>
      </trkpt>
      <trkpt lat="47.71094" lon="-3.36639">
        <ele>-1.79</ele>
        <time>2015-10-10T15:50:35Z</time>
      </trkpt>
      <trkpt lat="47.71095" lon="-3.36639">
        <ele>-1.79</ele>
        <time>2015-10-10T15:50:36Z</time>
      </trkpt>
      <trkpt lat="47.71096" lon="-3.36639">
        <ele>-1.79</ele>
        <time>2015-10-10T15:50:37Z</time>
      </trkpt>
      <trkpt lat="47.71097" lon="-3.36639">
        <ele>-1.79</ele>
        <time>2015-10-10T15:50:38Z</time>
      </trkpt>
      <trkpt lat="47.71098" lon="-3.3664">
        <ele>-1.79</ele>
        <time>2015-10-10T15:50:39Z</time>
      </trkpt>
      <trkpt lat="47.71099" lon="-3.3664">
        <ele>-1.79</ele>
        <time>2015-10-10T15:50:40Z</time>
      </trkpt>
      <trkpt lat="47.711" lon="-3.3664">
        <ele>-1.79</ele>
        <time>2015-10-10T15:50:41Z</time>
      </trkpt>
      <trkpt lat="47.71101" lon="-3.3664">
        <ele>-1.79</ele>
        <time>2015-10-10T15:50:42Z</time>
      </trkpt>
      <trkpt lat="47.71102" lon="-3.3664">
        <ele>-1.79</ele>
        <time>2015-10-10T15:50:43Z</time>
      </trkpt>
      <trkpt lat="47.71102" lon="-3.3664">
        <ele>-1.79</ele>
        <time>2015-10-10T15:50:44Z</time>
      </trkpt>
      <trkpt lat="47.71103" lon="-3.3664">
        <ele>-1.79</ele>
        <time>2015-10-10T15:50:45Z</time>
      </trkpt>
      <trkpt lat="47.71104" lon="-3.36641">
        <ele>-1.79</ele>
        <time>2015-10-10T15:50:46Z</time>
      </trkpt>
      <trkpt lat="47.71105" lon="-3.36641">
        <ele>-1.79</ele>
        <time>2015-10-10T15:50:47Z</time>
      </trkpt>
      <trkpt lat="47.71106" lon="-3.36641">
        <ele>-1.79</ele>
        <time>2015-10-10T15:50:48Z</time>
      </trkpt>
      <trkpt lat="47.71107" lon="-3.36642">
        <ele>-1.79</ele>
        <time>2015-10-10T15:50:49Z</time>
      </trkpt>
      <trkpt lat="47.71108" lon="-3.36642">
        <ele>-1.79</ele>
        <time>2015-10-10T15:50:50Z</time>
      </trkpt>
      <trkpt lat="47.71109" lon="-3.36643">
        <ele>-1.79</ele>
        <time>2015-10-10T15:50:51Z</time>
      </trkpt>
      <trkpt lat="47.7111" lon="-3.36643">
        <ele>-1.79</ele>
        <time>2015-10-10T15:50:52Z</time>
      </trkpt>
      <trkpt lat="47.71111" lon="-3.36644">
        <ele>-1.79</ele>
        <time>2015-10-10T15:50:53Z</time>
      </trkpt>
      <trkpt lat="47.71112" lon="-3.36644">
        <ele>-1.79</ele>
        <time>2015-10-10T15:50:54Z</time>
      </trkpt>
      <trkpt lat="47.71113" lon="-3.36645">
        <ele>-1.79</ele>
        <time>2015-10-10T15:50:55Z</time>
      </trkpt>
      <trkpt lat="47.71113" lon="-3.36645">
        <ele>-1.79</ele>
        <time>2015-10-10T15:50:56Z</time>
      </trkpt>
      <trkpt lat="47.71114" lon="-3.36646">
        <ele>-1.79</ele>
        <time>2015-10-10T15:50:57Z</time>
      </trkpt>
      <trkpt lat="47.71115" lon="-3.36647">
        <ele>-1.79</ele>
        <time>2015-10-10T15:50:58Z</time>
      </trkpt>
      <trkpt lat="47.71116" lon="-3.36647">
        <ele>-1.79</ele>
        <time>2015-10-10T15:50:59Z</time>
      </trkpt>
      <trkpt lat="47.71118" lon="-3.36648">
        <ele>-1.79</ele>
        <time>2015-10-10T15:51:00Z</time>
      </trkpt>
      <trkpt lat="47.71119" lon="-3.36648">
        <ele>-1.79</ele>
        <time>2015-10-10T15:51:01Z</time>
      </trkpt>
      <trkpt lat="47.7112" lon="-3.36649">
        <ele>-1.79</ele>
        <time>2015-10-10T15:51:02Z</time>
      </trkpt>
      <trkpt lat="47.71121" lon="-3.36649">
        <ele>-1.79</ele>
        <time>2015-10-10T15:51:03Z</time>
      </trkpt>
      <trkpt lat="47.71122" lon="-3.3665">
        <ele>-1.79</ele>
        <time>2015-10-10T15:51:04Z</time>
      </trkpt>
      <trkpt lat="47.71123" lon="-3.3665">
        <ele>-1.79</ele>
        <time>2015-10-10T15:51:05Z</time>
      </trkpt>
      <trkpt lat="47.71124" lon="-3.3665">
        <ele>-1.79</ele>
        <time>2015-10-10T15:51:06Z</time>
      </trkpt>
      <trkpt lat="47.71125" lon="-3.36651">
        <ele>-1.79</ele>
        <time>2015-10-10T15:51:07Z</time>
      </trkpt>
      <trkpt lat="47.71127" lon="-3.36651">
        <ele>-1.79</ele>
        <time>2015-10-10T15:51:08Z</time>
      </trkpt>
      <trkpt lat="47.71128" lon="-3.36652">
        <ele>-1.79</ele>
        <time>2015-10-10T15:51:09Z</time>
      </trkpt>
      <trkpt lat="47.71129" lon="-3.36652">
        <ele>-1.79</ele>
        <time>2015-10-10T15:51:10Z</time>
      </trkpt>
      <trkpt lat="47.7113" lon="-3.36653">
        <ele>-1.79</ele>
        <time>2015-10-10T15:51:11Z</time>
      </trkpt>
      <trkpt lat="47.71131" lon="-3.36654">
        <ele>-1.79</ele>
        <time>2015-10-10T15:51:12Z</time>
      </trkpt>
      <trkpt lat="47.71132" lon="-3.36654">
        <ele>-1.79</ele>
        <time>2015-10-10T15:51:13Z</time>
      </trkpt>
      <trkpt lat="47.71133" lon="-3.36654">
        <ele>-1.79</ele>
        <time>2015-10-10T15:51:14Z</time>
      </trkpt>
      <trkpt lat="47.71134" lon="-3.36655">
        <ele>-1.79</ele>
        <time>2015-10-10T15:51:15Z</time>
      </trkpt>
      <trkpt lat="47.71135" lon="-3.36655">
        <ele>-1.79</ele>
        <time>2015-10-10T15:51:16Z</time>
      </trkpt>
      <trkpt lat="47.71137" lon="-3.36655">
        <ele>-1.79</ele>
        <time>2015-10-10T15:51:17Z</time>
      </trkpt>
      <trkpt lat="47.71138" lon="-3.36656">
        <ele>-1.79</ele>
        <time>2015-10-10T15:51:18Z</time>
      </trkpt>
      <trkpt lat="47.71139" lon="-3.36656">
        <ele>-1.79</ele>
        <time>2015-10-10T15:51:19Z</time>
      </trkpt>
      <trkpt lat="47.7114" lon="-3.36657">
        <ele>-1.79</ele>
        <time>2015-10-10T15:51:20Z</time>
      </trkpt>
      <trkpt lat="47.71141" lon="-3.36658">
        <ele>-1.79</ele>
        <time>2015-10-10T15:51:21Z</time>
      </trkpt>
      <trkpt lat="47.71143" lon="-3.36658">
        <ele>-1.79</ele>
        <time>2015-10-10T15:51:22Z</time>
      </trkpt>
      <trkpt lat="47.71144" lon="-3.36659">
        <ele>-1.79</ele>
        <time>2015-10-10T15:51:23Z</time>
      </trkpt>
      <trkpt lat="47.71145" lon="-3.36659">
        <ele>-1.79</ele>
        <time>2015-10-10T15:51:24Z</time>
      </trkpt>
      <trkpt lat="47.71147" lon="-3.3666">
        <ele>-1.79</ele>
        <time>2015-10-10T15:51:25Z</time>
      </trkpt>
      <trkpt lat="47.71148" lon="-3.36661">
        <ele>-1.79</ele>
        <time>2015-10-10T15:51:26Z</time>
      </trkpt>
      <trkpt lat="47.7115" lon="-3.36661">
        <ele>-1.79</ele>
        <time>2015-10-10T15:51:27Z</time>
      </trkpt>
      <trkpt lat="47.71151" lon="-3.36662">
        <ele>-1.79</ele>
        <time>2015-10-10T15:51:28Z</time>
      </trkpt>
      <trkpt lat="47.71153" lon="-3.36662">
        <ele>-1.79</ele>
        <time>2015-10-10T15:51:29Z</time>
      </trkpt>
      <trkpt lat="47.71154" lon="-3.36662">
        <ele>-1.79</ele>
        <time>2015-10-10T15:51:30Z</time>
      </trkpt>
      <trkpt lat="47.71155" lon="-3.36663">
        <ele>-1.79</ele>
        <time>2015-10-10T15:51:31Z</time>
      </trkpt>
      <trkpt lat="47.71157" lon="-3.36663">
        <ele>-1.79</ele>
        <time>2015-10-10T15:51:32Z</time>
      </trkpt>
      <trkpt lat="47.71158" lon="-3.36664">
        <ele>-1.79</ele>
        <time>2015-10-10T15:51:33Z</time>
      </trkpt>
      <trkpt lat="47.7116" lon="-3.36664">
        <ele>-1.79</ele>
        <time>2015-10-10T15:51:34Z</time>
      </trkpt>
      <trkpt lat="47.71161" lon="-3.36665">
        <ele>-1.79</ele>
        <time>2015-10-10T15:51:35Z</time>
      </trkpt>
      <trkpt lat="47.71162" lon="-3.36665">
        <ele>-1.79</ele>
        <time>2015-10-10T15:51:36Z</time>
      </trkpt>
      <trkpt lat="47.71164" lon="-3.36665">
        <ele>-1.79</ele>
        <time>2015-10-10T15:51:37Z</time>
      </trkpt>
      <trkpt lat="47.71165" lon="-3.36666">
        <ele>-1.79</ele>
        <time>2015-10-10T15:51:38Z</time>
      </trkpt>
      <trkpt lat="47.71167" lon="-3.36666">
        <ele>-1.79</ele>
        <time>2015-10-10T15:51:39Z</time>
      </trkpt>
      <trkpt lat="47.71168" lon="-3.36666">
        <ele>-1.79</ele>
        <time>2015-10-10T15:51:40Z</time>
      </trkpt>
      <trkpt lat="47.71169" lon="-3.36666">
        <ele>-1.79</ele>
        <time>2015-10-10T15:51:41Z</time>
      </trkpt>
      <trkpt lat="47.71171" lon="-3.36666">
        <ele>-1.79</ele>
        <time>2015-10-10T15:51:42Z</time>
      </trkpt>
      <trkpt lat="47.71172" lon="-3.36666">
        <ele>-1.79</ele>
        <time>2015-10-10T15:51:43Z</time>
      </trkpt>
      <trkpt lat="47.71174" lon="-3.36666">
        <ele>-1.79</ele>
        <time>2015-10-10T15:51:44Z</time>
      </trkpt>
      <trkpt lat="47.71175" lon="-3.36665">
        <ele>-1.79</ele>
        <time>2015-10-10T15:51:45Z</time>
      </trkpt>
      <trkpt lat="47.71176" lon="-3.36665">
        <ele>-1.79</ele>
        <time>2015-10-10T15:51:46Z</time>
      </trkpt>
      <trkpt lat="47.71178" lon="-3.36665">
        <ele>-1.79</ele>
        <time>2015-10-10T15:51:47Z</time>
      </trkpt>
      <trkpt lat="47.71179" lon="-3.36665">
        <ele>-1.79</ele>
        <time>2015-10-10T15:51:48Z</time>
      </trkpt>
      <trkpt lat="47.7118" lon="-3.36664">
        <ele>-1.79</ele>
        <time>2015-10-10T15:51:49Z</time>
      </trkpt>
      <trkpt lat="47.71182" lon="-3.36665">
        <ele>-1.79</ele>
        <time>2015-10-10T15:51:50Z</time>
      </trkpt>
      <trkpt lat="47.71183" lon="-3.36665">
        <ele>-1.79</ele>
        <time>2015-10-10T15:51:51Z</time>
      </trkpt>
      <trkpt lat="47.71185" lon="-3.36665">
        <ele>-1.79</ele>
        <time>2015-10-10T15:51:52Z</time>
      </trkpt>
      <trkpt lat="47.71186" lon="-3.36664">
        <ele>-1.79</ele>
        <time>2015-10-10T15:51:53Z</time>
      </trkpt>
      <trkpt lat="47.71187" lon="-3.36664">
        <ele>-1.79</ele>
        <time>2015-10-10T15:51:54Z</time>
      </trkpt>
      <trkpt lat="47.71189" lon="-3.36664">
        <ele>-1.79</ele>
        <time>2015-10-10T15:51:55Z</time>
      </trkpt>
      <trkpt lat="47.7119" lon="-3.36664">
        <ele>-1.79</ele>
        <time>2015-10-10T15:51:56Z</time>
      </trkpt>
      <trkpt lat="47.71191" lon="-3.36663">
        <ele>-1.79</ele>
        <time>2015-10-10T15:51:57Z</time>
      </trkpt>
      <trkpt lat="47.71192" lon="-3.36663">
        <ele>-1.79</ele>
        <time>2015-10-10T15:51:58Z</time>
      </trkpt>
      <trkpt lat="47.71194" lon="-3.36663">
        <ele>-1.79</ele>
        <time>2015-10-10T15:51:59Z</time>
      </trkpt>
      <trkpt lat="47.71195" lon="-3.36662">
        <ele>-1.79</ele>
        <time>2015-10-10T15:52:00Z</time>
      </trkpt>
      <trkpt lat="47.71196" lon="-3.36662">
        <ele>-1.79</ele>
        <time>2015-10-10T15:52:01Z</time>
      </trkpt>
      <trkpt lat="47.71197" lon="-3.36661">
        <ele>-1.79</ele>
        <time>2015-10-10T15:52:02Z</time>
      </trkpt>
      <trkpt lat="47.71198" lon="-3.36661">
        <ele>-1.79</ele>
        <time>2015-10-10T15:52:03Z</time>
      </trkpt>
      <trkpt lat="47.712" lon="-3.36662">
        <ele>-1.79</ele>
        <time>2015-10-10T15:52:04Z</time>
      </trkpt>
      <trkpt lat="47.71201" lon="-3.36662">
        <ele>-1.79</ele>
        <time>2015-10-10T15:52:05Z</time>
      </trkpt>
      <trkpt lat="47.71202" lon="-3.36662">
        <ele>-1.79</ele>
        <time>2015-10-10T15:52:06Z</time>
      </trkpt>
      <trkpt lat="47.71203" lon="-3.36663">
        <ele>-1.79</ele>
        <time>2015-10-10T15:52:07Z</time>
      </trkpt>
      <trkpt lat="47.71205" lon="-3.36663">
        <ele>-1.79</ele>
        <time>2015-10-10T15:52:08Z</time>
      </trkpt>
      <trkpt lat="47.71206" lon="-3.36663">
        <ele>-1.79</ele>
        <time>2015-10-10T15:52:09Z</time>
      </trkpt>
      <trkpt lat="47.71207" lon="-3.36663">
        <ele>-1.79</ele>
        <time>2015-10-10T15:52:10Z</time>
      </trkpt>
      <trkpt lat="47.71208" lon="-3.36663">
        <ele>-1.79</ele>
        <time>2015-10-10T15:52:11Z</time>
      </trkpt>
      <trkpt lat="47.71209" lon="-3.36663">
        <ele>-1.79</ele>
        <time>2015-10-10T15:52:12Z</time>
      </trkpt>
      <trkpt lat="47.71211" lon="-3.36663">
        <ele>-1.79</ele>
        <time>2015-10-10T15:52:13Z</time>
      </trkpt>
      <trkpt lat="47.71212" lon="-3.36663">
        <ele>-1.79</ele>
        <time>2015-10-10T15:52:14Z</time>
      </trkpt>
      <trkpt lat="47.71213" lon="-3.36663">
        <ele>-1.79</ele>
        <time>2015-10-10T15:52:15Z</time>
      </trkpt>
      <trkpt lat="47.71214" lon="-3.36663">
        <ele>-1.79</ele>
        <time>2015-10-10T15:52:16Z</time>
      </trkpt>
      <trkpt lat="47.71215" lon="-3.36662">
        <ele>-1.79</ele>
        <time>2015-10-10T15:52:17Z</time>
      </trkpt>
      <trkpt lat="47.71217" lon="-3.36662">
        <ele>-1.79</ele>
        <time>2015-10-10T15:52:18Z</time>
      </trkpt>
      <trkpt lat="47.71218" lon="-3.36662">
        <ele>-1.79</ele>
        <time>2015-10-10T15:52:19Z</time>
      </trkpt>
      <trkpt lat="47.71219" lon="-3.36662">
        <ele>-1.79</ele>
        <time>2015-10-10T15:52:20Z</time>
      </trkpt>
      <trkpt lat="47.7122" lon="-3.36662">
        <ele>-1.79</ele>
        <time>2015-10-10T15:52:21Z</time>
      </trkpt>
      <trkpt lat="47.71221" lon="-3.36662">
        <ele>-1.79</ele>
        <time>2015-10-10T15:52:22Z</time>
      </trkpt>
      <trkpt lat="47.71223" lon="-3.36662">
        <ele>-1.79</ele>
        <time>2015-10-10T15:52:23Z</time>
      </trkpt>
      <trkpt lat="47.71224" lon="-3.36662">
        <ele>-1.79</ele>
        <time>2015-10-10T15:52:24Z</time>
      </trkpt>
      <trkpt lat="47.71225" lon="-3.36663">
        <ele>-1.79</ele>
        <time>2015-10-10T15:52:25Z</time>
      </trkpt>
      <trkpt lat="47.71227" lon="-3.36663">
        <ele>-1.79</ele>
        <time>2015-10-10T15:52:26Z</time>
      </trkpt>
      <trkpt lat="47.71228" lon="-3.36663">
        <ele>-1.79</ele>
        <time>2015-10-10T15:52:27Z</time>
      </trkpt>
      <trkpt lat="47.71229" lon="-3.36663">
        <ele>-1.79</ele>
        <time>2015-10-10T15:52:28Z</time>
      </trkpt>
      <trkpt lat="47.7123" lon="-3.36663">
        <ele>-1.79</ele>
        <time>2015-10-10T15:52:29Z</time>
      </trkpt>
      <trkpt lat="47.71231" lon="-3.36664">
        <ele>-1.79</ele>
        <time>2015-10-10T15:52:30Z</time>
      </trkpt>
      <trkpt lat="47.71233" lon="-3.36664">
        <ele>-1.79</ele>
        <time>2015-10-10T15:52:31Z</time>
      </trkpt>
      <trkpt lat="47.71234" lon="-3.36665">
        <ele>-1.79</ele>
        <time>2015-10-10T15:52:32Z</time>
      </trkpt>
      <trkpt lat="47.71235" lon="-3.36666">
        <ele>-1.79</ele>
        <time>2015-10-10T15:52:33Z</time>
      </trkpt>
      <trkpt lat="47.71237" lon="-3.36667">
        <ele>-1.3</ele>
        <time>2015-10-10T15:52:34Z</time>
      </trkpt>
      <trkpt lat="47.71238" lon="-3.36668">
        <ele>-1.3</ele>
        <time>2015-10-10T15:52:35Z</time>
      </trkpt>
      <trkpt lat="47.71239" lon="-3.36669">
        <ele>-1.3</ele>
        <time>2015-10-10T15:52:36Z</time>
      </trkpt>
      <trkpt lat="47.71241" lon="-3.3667">
        <ele>-1.3</ele>
        <time>2015-10-10T15:52:37Z</time>
      </trkpt>
      <trkpt lat="47.71242" lon="-3.3667">
        <ele>-1.3</ele>
        <time>2015-10-10T15:52:38Z</time>
      </trkpt>
      <trkpt lat="47.71244" lon="-3.36671">
        <ele>-2.75</ele>
        <time>2015-10-10T15:52:39Z</time>
      </trkpt>
      <trkpt lat="47.71245" lon="-3.36671">
        <ele>-1.3</ele>
        <time>2015-10-10T15:52:40Z</time>
      </trkpt>
      <trkpt lat="47.71247" lon="-3.36672">
        <ele>-1.3</ele>
        <time>2015-10-10T15:52:41Z</time>
      </trkpt>
      <trkpt lat="47.71248" lon="-3.36672">
        <ele>-1.3</ele>
        <time>2015-10-10T15:52:42Z</time>
      </trkpt>
      <trkpt lat="47.7125" lon="-3.36673">
        <ele>-1.3</ele>
        <time>2015-10-10T15:52:43Z</time>
      </trkpt>
      <trkpt lat="47.71251" lon="-3.36673">
        <ele>-1.3</ele>
        <time>2015-10-10T15:52:44Z</time>
      </trkpt>
      <trkpt lat="47.71253" lon="-3.36674">
        <ele>-1.3</ele>
        <time>2015-10-10T15:52:45Z</time>
      </trkpt>
      <trkpt lat="47.71254" lon="-3.36674">
        <ele>-1.3</ele>
        <time>2015-10-10T15:52:46Z</time>
      </trkpt>
      <trkpt lat="47.71256" lon="-3.36675">
        <ele>-1.3</ele>
        <time>2015-10-10T15:52:47Z</time>
      </trkpt>
      <trkpt lat="47.71257" lon="-3.36675">
        <ele>-2.75</ele>
        <time>2015-10-10T15:52:48Z</time>
      </trkpt>
      <trkpt lat="47.71259" lon="-3.36675">
        <ele>-2.75</ele>
        <time>2015-10-10T15:52:49Z</time>
      </trkpt>
      <trkpt lat="47.71261" lon="-3.36676">
        <ele>-2.75</ele>
        <time>2015-10-10T15:52:50Z</time>
      </trkpt>
      <trkpt lat="47.71262" lon="-3.36676">
        <ele>-2.75</ele>
        <time>2015-10-10T15:52:51Z</time>
      </trkpt>
      <trkpt lat="47.71264" lon="-3.36677">
        <ele>-2.75</ele>
        <time>2015-10-10T15:52:52Z</time>
      </trkpt>
      <trkpt lat="47.71265" lon="-3.36677">
        <ele>-2.75</ele>
        <time>2015-10-10T15:52:53Z</time>
      </trkpt>
      <trkpt lat="47.71267" lon="-3.36678">
        <ele>-1.3</ele>
        <time>2015-10-10T15:52:54Z</time>
      </trkpt>
      <trkpt lat="47.71268" lon="-3.36679">
        <ele>-1.3</ele>
        <time>2015-10-10T15:52:55Z</time>
      </trkpt>
      <trkpt lat="47.7127" lon="-3.3668">
        <ele>-1.3</ele>
        <time>2015-10-10T15:52:56Z</time>
      </trkpt>
      <trkpt lat="47.71271" lon="-3.36681">
        <ele>-1.3</ele>
        <time>2015-10-10T15:52:57Z</time>
      </trkpt>
      <trkpt lat="47.71273" lon="-3.36682">
        <ele>-1.3</ele>
        <time>2015-10-10T15:52:58Z</time>
      </trkpt>
      <trkpt lat="47.71274" lon="-3.36682">
        <ele>-1.3</ele>
        <time>2015-10-10T15:52:59Z</time>
      </trkpt>
      <trkpt lat="47.71275" lon="-3.36682">
        <ele>-0.82</ele>
        <time>2015-10-10T15:53:00Z</time>
      </trkpt>
      <trkpt lat="47.71276" lon="-3.36681">
        <ele>-0.82</ele>
        <time>2015-10-10T15:53:01Z</time>
      </trkpt>
      <trkpt lat="47.71276" lon="-3.3668">
        <ele>-0.82</ele>
        <time>2015-10-10T15:53:02Z</time>
      </trkpt>
      <trkpt lat="47.71276" lon="-3.36679">
        <ele>-0.34</ele>
        <time>2015-10-10T15:53:03Z</time>
      </trkpt>
      <trkpt lat="47.71276" lon="-3.36678">
        <ele>-0.34</ele>
        <time>2015-10-10T15:53:04Z</time>
      </trkpt>
      <trkpt lat="47.71275" lon="-3.36677">
        <ele>-0.34</ele>
        <time>2015-10-10T15:53:05Z</time>
      </trkpt>
      <trkpt lat="47.71274" lon="-3.36676">
        <ele>-0.34</ele>
        <time>2015-10-10T15:53:06Z</time>
      </trkpt>
      <trkpt lat="47.71273" lon="-3.36675">
        <ele>-0.34</ele>
        <time>2015-10-10T15:53:07Z</time>
      </trkpt>
      <trkpt lat="47.71273" lon="-3.36674">
        <ele>-0.34</ele>
        <time>2015-10-10T15:53:08Z</time>
      </trkpt>
      <trkpt lat="47.71273" lon="-3.36673">
        <ele>-0.34</ele>
        <time>2015-10-10T15:53:09Z</time>
      </trkpt>
      <trkpt lat="47.71273" lon="-3.36673">
        <ele>-0.34</ele>
        <time>2015-10-10T15:53:10Z</time>
      </trkpt>
      <trkpt lat="47.71273" lon="-3.36672">
        <ele>-0.34</ele>
        <time>2015-10-10T15:53:11Z</time>
      </trkpt>
      <trkpt lat="47.71273" lon="-3.36672">
        <ele>-0.34</ele>
        <time>2015-10-10T15:53:12Z</time>
      </trkpt>
      <trkpt lat="47.71273" lon="-3.36671">
        <ele>-0.34</ele>
        <time>2015-10-10T15:53:13Z</time>
      </trkpt>
      <trkpt lat="47.71272" lon="-3.3667">
        <ele>-0.34</ele>
        <time>2015-10-10T15:53:14Z</time>
      </trkpt>
      <trkpt lat="47.71272" lon="-3.36669">
        <ele>-0.34</ele>
        <time>2015-10-10T15:53:15Z</time>
      </trkpt>
      <trkpt lat="47.71272" lon="-3.36669">
        <ele>-0.34</ele>
        <time>2015-10-10T15:53:16Z</time>
      </trkpt>
      <trkpt lat="47.71271" lon="-3.36668">
        <ele>-0.34</ele>
        <time>2015-10-10T15:53:17Z</time>
      </trkpt>
      <trkpt lat="47.7127" lon="-3.36667">
        <ele>-0.34</ele>
        <time>2015-10-10T15:53:18Z</time>
      </trkpt>
      <trkpt lat="47.7127" lon="-3.36665">
        <ele>-0.34</ele>
        <time>2015-10-10T15:53:19Z</time>
      </trkpt>
      <trkpt lat="47.71269" lon="-3.36664">
        <ele>-0.34</ele>
        <time>2015-10-10T15:53:20Z</time>
      </trkpt>
      <trkpt lat="47.71268" lon="-3.36663">
        <ele>-0.34</ele>
        <time>2015-10-10T15:53:21Z</time>
      </trkpt>
      <trkpt lat="47.71268" lon="-3.36661">
        <ele>-2.27</ele>
        <time>2015-10-10T15:53:22Z</time>
      </trkpt>
      <trkpt lat="47.71267" lon="-3.36659">
        <ele>-2.27</ele>
        <time>2015-10-10T15:53:23Z</time>
      </trkpt>
      <trkpt lat="47.71266" lon="-3.36657">
        <ele>-2.27</ele>
        <time>2015-10-10T15:53:24Z</time>
      </trkpt>
      <trkpt lat="47.71266" lon="-3.36655">
        <ele>-0.34</ele>
        <time>2015-10-10T15:53:25Z</time>
      </trkpt>
      <trkpt lat="47.71265" lon="-3.36653">
        <ele>-0.34</ele>
        <time>2015-10-10T15:53:26Z</time>
      </trkpt>
      <trkpt lat="47.71264" lon="-3.36651">
        <ele>-0.34</ele>
        <time>2015-10-10T15:53:27Z</time>
      </trkpt>
      <trkpt lat="47.71263" lon="-3.36649">
        <ele>-0.34</ele>
        <time>2015-10-10T15:53:28Z</time>
      </trkpt>
      <trkpt lat="47.71262" lon="-3.36647">
        <ele>-0.34</ele>
        <time>2015-10-10T15:53:29Z</time>
      </trkpt>
      <trkpt lat="47.71262" lon="-3.36644">
        <ele>-0.34</ele>
        <time>2015-10-10T15:53:30Z</time>
      </trkpt>
      <trkpt lat="47.71261" lon="-3.36642">
        <ele>-0.34</ele>
        <time>2015-10-10T15:53:31Z</time>
      </trkpt>
      <trkpt lat="47.71261" lon="-3.36639">
        <ele>-0.34</ele>
        <time>2015-10-10T15:53:32Z</time>
      </trkpt>
      <trkpt lat="47.71261" lon="-3.36637">
        <ele>-0.34</ele>
        <time>2015-10-10T15:53:33Z</time>
      </trkpt>
      <trkpt lat="47.7126" lon="-3.36635">
        <ele>-0.34</ele>
        <time>2015-10-10T15:53:34Z</time>
      </trkpt>
      <trkpt lat="47.7126" lon="-3.36632">
        <ele>-0.34</ele>
        <time>2015-10-10T15:53:35Z</time>
      </trkpt>
      <trkpt lat="47.71259" lon="-3.3663">
        <ele>-0.34</ele>
        <time>2015-10-10T15:53:36Z</time>
      </trkpt>
      <trkpt lat="47.71259" lon="-3.36628">
        <ele>-0.34</ele>
        <time>2015-10-10T15:53:37Z</time>
      </trkpt>
      <trkpt lat="47.71258" lon="-3.36626">
        <ele>-0.34</ele>
        <time>2015-10-10T15:53:38Z</time>
      </trkpt>
      <trkpt lat="47.71257" lon="-3.36623">
        <ele>-0.34</ele>
        <time>2015-10-10T15:53:39Z</time>
      </trkpt>
      <trkpt lat="47.71257" lon="-3.36621">
        <ele>-0.34</ele>
        <time>2015-10-10T15:53:40Z</time>
      </trkpt>
      <trkpt lat="47.71256" lon="-3.36618">
        <ele>-0.34</ele>
        <time>2015-10-10T15:53:41Z</time>
      </trkpt>
      <trkpt lat="47.71255" lon="-3.36616">
        <ele>-0.34</ele>
        <time>2015-10-10T15:53:42Z</time>
      </trkpt>
      <trkpt lat="47.71255" lon="-3.36614">
        <ele>-0.34</ele>
        <time>2015-10-10T15:53:43Z</time>
      </trkpt>
      <trkpt lat="47.71255" lon="-3.36611">
        <ele>-0.34</ele>
        <time>2015-10-10T15:53:44Z</time>
      </trkpt>
      <trkpt lat="47.71254" lon="-3.36609">
        <ele>-0.34</ele>
        <time>2015-10-10T15:53:45Z</time>
      </trkpt>
      <trkpt lat="47.71254" lon="-3.36607">
        <ele>-0.34</ele>
        <time>2015-10-10T15:53:46Z</time>
      </trkpt>
      <trkpt lat="47.71254" lon="-3.36604">
        <ele>-0.34</ele>
        <time>2015-10-10T15:53:47Z</time>
      </trkpt>
      <trkpt lat="47.71253" lon="-3.36602">
        <ele>-0.34</ele>
        <time>2015-10-10T15:53:48Z</time>
      </trkpt>
      <trkpt lat="47.71252" lon="-3.366">
        <ele>-0.34</ele>
        <time>2015-10-10T15:53:49Z</time>
      </trkpt>
      <trkpt lat="47.71251" lon="-3.36598">
        <ele>-0.34</ele>
        <time>2015-10-10T15:53:50Z</time>
      </trkpt>
      <trkpt lat="47.71251" lon="-3.36597">
        <ele>-0.34</ele>
        <time>2015-10-10T15:53:51Z</time>
      </trkpt>
      <trkpt lat="47.7125" lon="-3.36595">
        <ele>-0.34</ele>
        <time>2015-10-10T15:53:52Z</time>
      </trkpt>
      <trkpt lat="47.71249" lon="-3.36593">
        <ele>-0.34</ele>
        <time>2015-10-10T15:53:53Z</time>
      </trkpt>
      <trkpt lat="47.71248" lon="-3.36591">
        <ele>-0.34</ele>
        <time>2015-10-10T15:53:54Z</time>
      </trkpt>
      <trkpt lat="47.71247" lon="-3.36588">
        <ele>-0.34</ele>
        <time>2015-10-10T15:53:55Z</time>
      </trkpt>
      <trkpt lat="47.71246" lon="-3.36586">
        <ele>-0.34</ele>
        <time>2015-10-10T15:53:56Z</time>
      </trkpt>
      <trkpt lat="47.71245" lon="-3.36584">
        <ele>-0.34</ele>
        <time>2015-10-10T15:53:57Z</time>
      </trkpt>
      <trkpt lat="47.71244" lon="-3.36582">
        <ele>-0.34</ele>
        <time>2015-10-10T15:53:58Z</time>
      </trkpt>
      <trkpt lat="47.71243" lon="-3.3658">
        <ele>-0.34</ele>
        <time>2015-10-10T15:53:59Z</time>
      </trkpt>
      <trkpt lat="47.71242" lon="-3.36578">
        <ele>-0.34</ele>
        <time>2015-10-10T15:54:00Z</time>
      </trkpt>
      <trkpt lat="47.71241" lon="-3.36575">
        <ele>-0.34</ele>
        <time>2015-10-10T15:54:01Z</time>
      </trkpt>
      <trkpt lat="47.7124" lon="-3.36573">
        <ele>-0.34</ele>
        <time>2015-10-10T15:54:02Z</time>
      </trkpt>
      <trkpt lat="47.71239" lon="-3.36571">
        <ele>-0.34</ele>
        <time>2015-10-10T15:54:03Z</time>
      </trkpt>
      <trkpt lat="47.71238" lon="-3.36568">
        <ele>-0.34</ele>
        <time>2015-10-10T15:54:04Z</time>
      </trkpt>
      <trkpt lat="47.71237" lon="-3.36566">
        <ele>-0.34</ele>
        <time>2015-10-10T15:54:05Z</time>
      </trkpt>
      <trkpt lat="47.71236" lon="-3.36564">
        <ele>-0.34</ele>
        <time>2015-10-10T15:54:06Z</time>
      </trkpt>
      <trkpt lat="47.71235" lon="-3.36561">
        <ele>-0.34</ele>
        <time>2015-10-10T15:54:07Z</time>
      </trkpt>
      <trkpt lat="47.71234" lon="-3.36559">
        <ele>-0.34</ele>
        <time>2015-10-10T15:54:08Z</time>
      </trkpt>
      <trkpt lat="47.71233" lon="-3.36556">
        <ele>-0.34</ele>
        <time>2015-10-10T15:54:09Z</time>
      </trkpt>
      <trkpt lat="47.71232" lon="-3.36554">
        <ele>-0.34</ele>
        <time>2015-10-10T15:54:10Z</time>
      </trkpt>
      <trkpt lat="47.71231" lon="-3.36552">
        <ele>-0.34</ele>
        <time>2015-10-10T15:54:11Z</time>
      </trkpt>
      <trkpt lat="47.7123" lon="-3.3655">
        <ele>-0.34</ele>
        <time>2015-10-10T15:54:12Z</time>
      </trkpt>
      <trkpt lat="47.71229" lon="-3.36547">
        <ele>-0.34</ele>
        <time>2015-10-10T15:54:13Z</time>
      </trkpt>
      <trkpt lat="47.71228" lon="-3.36545">
        <ele>-0.34</ele>
        <time>2015-10-10T15:54:14Z</time>
      </trkpt>
      <trkpt lat="47.71228" lon="-3.36543">
        <ele>-0.34</ele>
        <time>2015-10-10T15:54:15Z</time>
      </trkpt>
      <trkpt lat="47.71226" lon="-3.36541">
        <ele>-0.34</ele>
        <time>2015-10-10T15:54:16Z</time>
      </trkpt>
      <trkpt lat="47.71225" lon="-3.36539">
        <ele>-0.34</ele>
        <time>2015-10-10T15:54:17Z</time>
      </trkpt>
      <trkpt lat="47.71224" lon="-3.36537">
        <ele>-0.34</ele>
        <time>2015-10-10T15:54:18Z</time>
      </trkpt>
      <trkpt lat="47.71223" lon="-3.36535">
        <ele>-0.34</ele>
        <time>2015-10-10T15:54:19Z</time>
      </trkpt>
      <trkpt lat="47.71222" lon="-3.36532">
        <ele>-0.34</ele>
        <time>2015-10-10T15:54:20Z</time>
      </trkpt>
      <trkpt lat="47.7122" lon="-3.3653">
        <ele>-0.34</ele>
        <time>2015-10-10T15:54:21Z</time>
      </trkpt>
      <trkpt lat="47.71219" lon="-3.36528">
        <ele>-0.34</ele>
        <time>2015-10-10T15:54:22Z</time>
      </trkpt>
      <trkpt lat="47.71219" lon="-3.36525">
        <ele>-0.34</ele>
        <time>2015-10-10T15:54:23Z</time>
      </trkpt>
      <trkpt lat="47.71218" lon="-3.36523">
        <ele>-0.34</ele>
        <time>2015-10-10T15:54:24Z</time>
      </trkpt>
      <trkpt lat="47.71217" lon="-3.36521">
        <ele>-0.34</ele>
        <time>2015-10-10T15:54:25Z</time>
      </trkpt>
      <trkpt lat="47.71216" lon="-3.36518">
        <ele>-0.34</ele>
        <time>2015-10-10T15:54:26Z</time>
      </trkpt>
      <trkpt lat="47.71215" lon="-3.36516">
        <ele>-0.34</ele>
        <time>2015-10-10T15:54:27Z</time>
      </trkpt>
      <trkpt lat="47.71214" lon="-3.36514">
        <ele>-0.34</ele>
        <time>2015-10-10T15:54:28Z</time>
      </trkpt>
      <trkpt lat="47.71212" lon="-3.36513">
        <ele>-0.34</ele>
        <time>2015-10-10T15:54:29Z</time>
      </trkpt>
      <trkpt lat="47.71211" lon="-3.36511">
        <ele>-0.34</ele>
        <time>2015-10-10T15:54:30Z</time>
      </trkpt>
      <trkpt lat="47.7121" lon="-3.36509">
        <ele>-0.34</ele>
        <time>2015-10-10T15:54:31Z</time>
      </trkpt>
      <trkpt lat="47.71209" lon="-3.36506">
        <ele>-0.34</ele>
        <time>2015-10-10T15:54:32Z</time>
      </trkpt>
      <trkpt lat="47.71208" lon="-3.36505">
        <ele>-0.34</ele>
        <time>2015-10-10T15:54:33Z</time>
      </trkpt>
      <trkpt lat="47.71207" lon="-3.36503">
        <ele>-0.34</ele>
        <time>2015-10-10T15:54:34Z</time>
      </trkpt>
      <trkpt lat="47.71206" lon="-3.36501">
        <ele>-0.34</ele>
        <time>2015-10-10T15:54:35Z</time>
      </trkpt>
      <trkpt lat="47.71205" lon="-3.36499">
        <ele>-0.34</ele>
        <time>2015-10-10T15:54:36Z</time>
      </trkpt>
      <trkpt lat="47.71204" lon="-3.36497">
        <ele>-1.79</ele>
        <time>2015-10-10T15:54:37Z</time>
      </trkpt>
      <trkpt lat="47.71203" lon="-3.36495">
        <ele>-1.3</ele>
        <time>2015-10-10T15:54:38Z</time>
      </trkpt>
      <trkpt lat="47.71201" lon="-3.36494">
        <ele>-2.27</ele>
        <time>2015-10-10T15:54:39Z</time>
      </trkpt>
      <trkpt lat="47.712" lon="-3.36492">
        <ele>-0.82</ele>
        <time>2015-10-10T15:54:40Z</time>
      </trkpt>
      <trkpt lat="47.71199" lon="-3.3649">
        <ele>-0.82</ele>
        <time>2015-10-10T15:54:41Z</time>
      </trkpt>
      <trkpt lat="47.71197" lon="-3.36489">
        <ele>-0.82</ele>
        <time>2015-10-10T15:54:42Z</time>
      </trkpt>
      <trkpt lat="47.71197" lon="-3.36487">
        <ele>-0.82</ele>
        <time>2015-10-10T15:54:43Z</time>
      </trkpt>
      <trkpt lat="47.71197" lon="-3.36485">
        <ele>1.1</ele>
        <time>2015-10-10T15:54:44Z</time>
      </trkpt>
      <trkpt lat="47.71197" lon="-3.36484">
        <ele>-0.34</ele>
        <time>2015-10-10T15:54:45Z</time>
      </trkpt>
      <trkpt lat="47.71198" lon="-3.36484">
        <ele>-0.34</ele>
        <time>2015-10-10T15:54:46Z</time>
      </trkpt>
      <trkpt lat="47.71199" lon="-3.36485">
        <ele>-1.79</ele>
        <time>2015-10-10T15:54:47Z</time>
      </trkpt>
      <trkpt lat="47.712" lon="-3.36486">
        <ele>-0.34</ele>
        <time>2015-10-10T15:54:48Z</time>
      </trkpt>
      <trkpt lat="47.71201" lon="-3.36487">
        <ele>-1.79</ele>
        <time>2015-10-10T15:54:49Z</time>
      </trkpt>
      <trkpt lat="47.71202" lon="-3.36489">
        <ele>-1.79</ele>
        <time>2015-10-10T15:54:50Z</time>
      </trkpt>
      <trkpt lat="47.71203" lon="-3.3649">
        <ele>-1.79</ele>
        <time>2015-10-10T15:54:51Z</time>
      </trkpt>
      <trkpt lat="47.71204" lon="-3.36492">
        <ele>-1.79</ele>
        <time>2015-10-10T15:54:52Z</time>
      </trkpt>
      <trkpt lat="47.71205" lon="-3.36493">
        <ele>-1.79</ele>
        <time>2015-10-10T15:54:53Z</time>
      </trkpt>
      <trkpt lat="47.71206" lon="-3.36494">
        <ele>-1.79</ele>
        <time>2015-10-10T15:54:54Z</time>
      </trkpt>
      <trkpt lat="47.71208" lon="-3.36495">
        <ele>-1.79</ele>
        <time>2015-10-10T15:54:55Z</time>
      </trkpt>
      <trkpt lat="47.71209" lon="-3.36497">
        <ele>-1.79</ele>
        <time>2015-10-10T15:54:56Z</time>
      </trkpt>
      <trkpt lat="47.7121" lon="-3.36498">
        <ele>-1.79</ele>
        <time>2015-10-10T15:54:57Z</time>
      </trkpt>
      <trkpt lat="47.71212" lon="-3.36499">
        <ele>-1.79</ele>
        <time>2015-10-10T15:54:58Z</time>
      </trkpt>
      <trkpt lat="47.71213" lon="-3.365">
        <ele>-1.79</ele>
        <time>2015-10-10T15:54:59Z</time>
      </trkpt>
      <trkpt lat="47.71214" lon="-3.36501">
        <ele>-1.79</ele>
        <time>2015-10-10T15:55:00Z</time>
      </trkpt>
      <trkpt lat="47.71215" lon="-3.36503">
        <ele>-1.79</ele>
        <time>2015-10-10T15:55:01Z</time>
      </trkpt>
      <trkpt lat="47.71217" lon="-3.36504">
        <ele>-1.79</ele>
        <time>2015-10-10T15:55:02Z</time>
      </trkpt>
      <trkpt lat="47.71218" lon="-3.36506">
        <ele>-1.79</ele>
        <time>2015-10-10T15:55:03Z</time>
      </trkpt>
      <trkpt lat="47.71219" lon="-3.36507">
        <ele>-1.79</ele>
        <time>2015-10-10T15:55:04Z</time>
      </trkpt>
      <trkpt lat="47.7122" lon="-3.36508">
        <ele>-1.79</ele>
        <time>2015-10-10T15:55:05Z</time>
      </trkpt>
      <trkpt lat="47.71222" lon="-3.3651">
        <ele>-1.79</ele>
        <time>2015-10-10T15:55:06Z</time>
      </trkpt>
      <trkpt lat="47.71223" lon="-3.36512">
        <ele>-1.79</ele>
        <time>2015-10-10T15:55:07Z</time>
      </trkpt>
      <trkpt lat="47.71224" lon="-3.36514">
        <ele>-1.79</ele>
        <time>2015-10-10T15:55:08Z</time>
      </trkpt>
      <trkpt lat="47.71225" lon="-3.36516">
        <ele>-1.79</ele>
        <time>2015-10-10T15:55:09Z</time>
      </trkpt>
      <trkpt lat="47.71226" lon="-3.36518">
        <ele>-1.79</ele>
        <time>2015-10-10T15:55:10Z</time>
      </trkpt>
      <trkpt lat="47.71228" lon="-3.3652">
        <ele>-1.79</ele>
        <time>2015-10-10T15:55:11Z</time>
      </trkpt>
      <trkpt lat="47.71229" lon="-3.36522">
        <ele>-1.79</ele>
        <time>2015-10-10T15:55:12Z</time>
      </trkpt>
      <trkpt lat="47.7123" lon="-3.36523">
        <ele>-1.79</ele>
        <time>2015-10-10T15:55:13Z</time>
      </trkpt>
      <trkpt lat="47.71232" lon="-3.36525">
        <ele>-2.27</ele>
        <time>2015-10-10T15:55:14Z</time>
      </trkpt>
      <trkpt lat="47.71233" lon="-3.36527">
        <ele>-0.82</ele>
        <time>2015-10-10T15:55:15Z</time>
      </trkpt>
      <trkpt lat="47.71235" lon="-3.36528">
        <ele>-0.82</ele>
        <time>2015-10-10T15:55:16Z</time>
      </trkpt>
      <trkpt lat="47.71236" lon="-3.3653">
        <ele>-0.82</ele>
        <time>2015-10-10T15:55:17Z</time>
      </trkpt>
      <trkpt lat="47.71237" lon="-3.36532">
        <ele>-0.82</ele>
        <time>2015-10-10T15:55:18Z</time>
      </trkpt>
      <trkpt lat="47.71239" lon="-3.36533">
        <ele>-0.82</ele>
        <time>2015-10-10T15:55:19Z</time>
      </trkpt>
      <trkpt lat="47.7124" lon="-3.36534">
        <ele>-0.82</ele>
        <time>2015-10-10T15:55:20Z</time>
      </trkpt>
      <trkpt lat="47.71241" lon="-3.36536">
        <ele>-0.82</ele>
        <time>2015-10-10T15:55:21Z</time>
      </trkpt>
      <trkpt lat="47.71243" lon="-3.36537">
        <ele>-0.82</ele>
        <time>2015-10-10T15:55:22Z</time>
      </trkpt>
      <trkpt lat="47.71244" lon="-3.36538">
        <ele>-0.82</ele>
        <time>2015-10-10T15:55:23Z</time>
      </trkpt>
      <trkpt lat="47.71246" lon="-3.36539">
        <ele>-0.82</ele>
        <time>2015-10-10T15:55:24Z</time>
      </trkpt>
      <trkpt lat="47.71248" lon="-3.3654">
        <ele>-0.82</ele>
        <time>2015-10-10T15:55:25Z</time>
      </trkpt>
      <trkpt lat="47.71249" lon="-3.36541">
        <ele>-0.82</ele>
        <time>2015-10-10T15:55:26Z</time>
      </trkpt>
      <trkpt lat="47.71251" lon="-3.36542">
        <ele>-0.82</ele>
        <time>2015-10-10T15:55:27Z</time>
      </trkpt>
      <trkpt lat="47.71252" lon="-3.36543">
        <ele>-0.82</ele>
        <time>2015-10-10T15:55:28Z</time>
      </trkpt>
      <trkpt lat="47.71254" lon="-3.36544">
        <ele>-0.82</ele>
        <time>2015-10-10T15:55:29Z</time>
      </trkpt>
      <trkpt lat="47.71256" lon="-3.36545">
        <ele>-0.82</ele>
        <time>2015-10-10T15:55:30Z</time>
      </trkpt>
      <trkpt lat="47.71257" lon="-3.36545">
        <ele>-2.27</ele>
        <time>2015-10-10T15:55:31Z</time>
      </trkpt>
      <trkpt lat="47.71259" lon="-3.36546">
        <ele>-2.27</ele>
        <time>2015-10-10T15:55:32Z</time>
      </trkpt>
      <trkpt lat="47.71261" lon="-3.36547">
        <ele>-1.79</ele>
        <time>2015-10-10T15:55:33Z</time>
      </trkpt>
      <trkpt lat="47.71263" lon="-3.36548">
        <ele>-1.79</ele>
        <time>2015-10-10T15:55:34Z</time>
      </trkpt>
      <trkpt lat="47.71265" lon="-3.36548">
        <ele>-0.82</ele>
        <time>2015-10-10T15:55:35Z</time>
      </trkpt>
      <trkpt lat="47.71267" lon="-3.36549">
        <ele>-0.82</ele>
        <time>2015-10-10T15:55:36Z</time>
      </trkpt>
      <trkpt lat="47.71269" lon="-3.36549">
        <ele>-0.82</ele>
        <time>2015-10-10T15:55:37Z</time>
      </trkpt>
      <trkpt lat="47.71271" lon="-3.36549">
        <ele>-0.82</ele>
        <time>2015-10-10T15:55:38Z</time>
      </trkpt>
      <trkpt lat="47.71274" lon="-3.3655">
        <ele>-0.82</ele>
        <time>2015-10-10T15:55:39Z</time>
      </trkpt>
      <trkpt lat="47.71276" lon="-3.3655">
        <ele>-0.82</ele>
        <time>2015-10-10T15:55:40Z</time>
      </trkpt>
      <trkpt lat="47.71278" lon="-3.3655">
        <ele>-0.82</ele>
        <time>2015-10-10T15:55:41Z</time>
      </trkpt>
      <trkpt lat="47.7128" lon="-3.36551">
        <ele>-0.82</ele>
        <time>2015-10-10T15:55:42Z</time>
      </trkpt>
      <trkpt lat="47.71283" lon="-3.36551">
        <ele>0.14</ele>
        <time>2015-10-10T15:55:43Z</time>
      </trkpt>
      <trkpt lat="47.71285" lon="-3.36551">
        <ele>-1.3</ele>
        <time>2015-10-10T15:55:44Z</time>
      </trkpt>
      <trkpt lat="47.71288" lon="-3.36551">
        <ele>-1.3</ele>
        <time>2015-10-10T15:55:45Z</time>
      </trkpt>
      <trkpt lat="47.71291" lon="-3.36551">
        <ele>-1.3</ele>
        <time>2015-10-10T15:55:46Z</time>
      </trkpt>
      <trkpt lat="47.71293" lon="-3.36551">
        <ele>-1.3</ele>
        <time>2015-10-10T15:55:47Z</time>
      </trkpt>
      <trkpt lat="47.71295" lon="-3.36551">
        <ele>-1.3</ele>
        <time>2015-10-10T15:55:48Z</time>
      </trkpt>
      <trkpt lat="47.71298" lon="-3.36551">
        <ele>-1.3</ele>
        <time>2015-10-10T15:55:49Z</time>
      </trkpt>
      <trkpt lat="47.713" lon="-3.36551">
        <ele>-1.3</ele>
        <time>2015-10-10T15:55:50Z</time>
      </trkpt>
      <trkpt lat="47.71302" lon="-3.36551">
        <ele>-1.3</ele>
        <time>2015-10-10T15:55:51Z</time>
      </trkpt>
      <trkpt lat="47.71305" lon="-3.36551">
        <ele>-1.3</ele>
        <time>2015-10-10T15:55:52Z</time>
      </trkpt>
      <trkpt lat="47.71307" lon="-3.36551">
        <ele>-0.34</ele>
        <time>2015-10-10T15:55:53Z</time>
      </trkpt>
      <trkpt lat="47.7131" lon="-3.36551">
        <ele>-0.34</ele>
        <time>2015-10-10T15:55:54Z</time>
      </trkpt>
      <trkpt lat="47.71312" lon="-3.36551">
        <ele>-0.34</ele>
        <time>2015-10-10T15:55:55Z</time>
      </trkpt>
      <trkpt lat="47.71314" lon="-3.3655">
        <ele>-0.34</ele>
        <time>2015-10-10T15:55:56Z</time>
      </trkpt>
      <trkpt lat="47.71316" lon="-3.3655">
        <ele>-0.34</ele>
        <time>2015-10-10T15:55:57Z</time>
      </trkpt>
      <trkpt lat="47.71319" lon="-3.3655">
        <ele>-0.34</ele>
        <time>2015-10-10T15:55:58Z</time>
      </trkpt>
      <trkpt lat="47.71321" lon="-3.36549">
        <ele>-0.34</ele>
        <time>2015-10-10T15:55:59Z</time>
      </trkpt>
      <trkpt lat="47.71324" lon="-3.36549">
        <ele>-0.34</ele>
        <time>2015-10-10T15:56:00Z</time>
      </trkpt>
      <trkpt lat="47.71326" lon="-3.36549">
        <ele>-0.34</ele>
        <time>2015-10-10T15:56:01Z</time>
      </trkpt>
      <trkpt lat="47.71328" lon="-3.3655">
        <ele>-0.34</ele>
        <time>2015-10-10T15:56:02Z</time>
      </trkpt>
      <trkpt lat="47.7133" lon="-3.3655">
        <ele>-0.34</ele>
        <time>2015-10-10T15:56:03Z</time>
      </trkpt>
      <trkpt lat="47.71332" lon="-3.36551">
        <ele>-0.34</ele>
        <time>2015-10-10T15:56:04Z</time>
      </trkpt>
      <trkpt lat="47.71334" lon="-3.36551">
        <ele>-0.34</ele>
        <time>2015-10-10T15:56:05Z</time>
      </trkpt>
      <trkpt lat="47.71336" lon="-3.36552">
        <ele>-0.34</ele>
        <time>2015-10-10T15:56:06Z</time>
      </trkpt>
      <trkpt lat="47.71339" lon="-3.36552">
        <ele>-0.34</ele>
        <time>2015-10-10T15:56:07Z</time>
      </trkpt>
      <trkpt lat="47.71341" lon="-3.36552">
        <ele>-0.34</ele>
        <time>2015-10-10T15:56:08Z</time>
      </trkpt>
      <trkpt lat="47.71343" lon="-3.36553">
        <ele>-0.34</ele>
        <time>2015-10-10T15:56:09Z</time>
      </trkpt>
      <trkpt lat="47.71345" lon="-3.36553">
        <ele>-0.34</ele>
        <time>2015-10-10T15:56:10Z</time>
      </trkpt>
      <trkpt lat="47.71347" lon="-3.36553">
        <ele>-0.34</ele>
        <time>2015-10-10T15:56:11Z</time>
      </trkpt>
      <trkpt lat="47.71349" lon="-3.36553">
        <ele>-0.34</ele>
        <time>2015-10-10T15:56:12Z</time>
      </trkpt>
      <trkpt lat="47.71351" lon="-3.36554">
        <ele>-0.34</ele>
        <time>2015-10-10T15:56:13Z</time>
      </trkpt>
      <trkpt lat="47.71354" lon="-3.36554">
        <ele>-0.34</ele>
        <time>2015-10-10T15:56:14Z</time>
      </trkpt>
      <trkpt lat="47.71356" lon="-3.36554">
        <ele>-0.34</ele>
        <time>2015-10-10T15:56:15Z</time>
      </trkpt>
      <trkpt lat="47.71357" lon="-3.36554">
        <ele>-0.34</ele>
        <time>2015-10-10T15:56:16Z</time>
      </trkpt>
      <trkpt lat="47.7136" lon="-3.36555">
        <ele>-0.34</ele>
        <time>2015-10-10T15:56:17Z</time>
      </trkpt>
      <trkpt lat="47.71362" lon="-3.36555">
        <ele>-0.34</ele>
        <time>2015-10-10T15:56:18Z</time>
      </trkpt>
      <trkpt lat="47.71364" lon="-3.36555">
        <ele>-0.34</ele>
        <time>2015-10-10T15:56:19Z</time>
      </trkpt>
      <trkpt lat="47.71366" lon="-3.36555">
        <ele>-2.27</ele>
        <time>2015-10-10T15:56:20Z</time>
      </trkpt>
      <trkpt lat="47.71368" lon="-3.36556">
        <ele>-0.82</ele>
        <time>2015-10-10T15:56:21Z</time>
      </trkpt>
      <trkpt lat="47.7137" lon="-3.36556">
        <ele>-0.82</ele>
        <time>2015-10-10T15:56:22Z</time>
      </trkpt>
      <trkpt lat="47.71372" lon="-3.36556">
        <ele>-0.34</ele>
        <time>2015-10-10T15:56:23Z</time>
      </trkpt>
      <trkpt lat="47.71374" lon="-3.36557">
        <ele>-1.79</ele>
        <time>2015-10-10T15:56:24Z</time>
      </trkpt>
      <trkpt lat="47.71376" lon="-3.36557">
        <ele>-3.71</ele>
        <time>2015-10-10T15:56:25Z</time>
      </trkpt>
      <trkpt lat="47.71378" lon="-3.36558">
        <ele>0.62</ele>
        <time>2015-10-10T15:56:26Z</time>
      </trkpt>
      <trkpt lat="47.7138" lon="-3.36558">
        <ele>1.58</ele>
        <time>2015-10-10T15:56:27Z</time>
      </trkpt>
      <trkpt lat="47.71381" lon="-3.36558">
        <ele>-1.3</ele>
        <time>2015-10-10T15:56:28Z</time>
      </trkpt>
      <trkpt lat="47.71383" lon="-3.36558">
        <ele>-1.79</ele>
        <time>2015-10-10T15:56:29Z</time>
      </trkpt>
      <trkpt lat="47.71385" lon="-3.36558">
        <ele>-1.79</ele>
        <time>2015-10-10T15:56:30Z</time>
      </trkpt>
      <trkpt lat="47.71387" lon="-3.36559">
        <ele>-1.79</ele>
        <time>2015-10-10T15:56:31Z</time>
      </trkpt>
      <trkpt lat="47.71389" lon="-3.3656">
        <ele>-1.79</ele>
        <time>2015-10-10T15:56:32Z</time>
      </trkpt>
      <trkpt lat="47.7139" lon="-3.36561">
        <ele>-1.79</ele>
        <time>2015-10-10T15:56:33Z</time>
      </trkpt>
      <trkpt lat="47.71392" lon="-3.36562">
        <ele>-1.79</ele>
        <time>2015-10-10T15:56:34Z</time>
      </trkpt>
      <trkpt lat="47.71394" lon="-3.36563">
        <ele>-1.79</ele>
        <time>2015-10-10T15:56:35Z</time>
      </trkpt>
      <trkpt lat="47.71396" lon="-3.36564">
        <ele>-1.79</ele>
        <time>2015-10-10T15:56:36Z</time>
      </trkpt>
      <trkpt lat="47.71398" lon="-3.36565">
        <ele>-1.79</ele>
        <time>2015-10-10T15:56:37Z</time>
      </trkpt>
      <trkpt lat="47.714" lon="-3.36566">
        <ele>-1.79</ele>
        <time>2015-10-10T15:56:38Z</time>
      </trkpt>
      <trkpt lat="47.71402" lon="-3.36566">
        <ele>-0.82</ele>
        <time>2015-10-10T15:56:39Z</time>
      </trkpt>
      <trkpt lat="47.71404" lon="-3.36566">
        <ele>-0.82</ele>
        <time>2015-10-10T15:56:40Z</time>
      </trkpt>
      <trkpt lat="47.71406" lon="-3.36566">
        <ele>-0.82</ele>
        <time>2015-10-10T15:56:41Z</time>
      </trkpt>
      <trkpt lat="47.71408" lon="-3.36566">
        <ele>-0.82</ele>
        <time>2015-10-10T15:56:42Z</time>
      </trkpt>
      <trkpt lat="47.7141" lon="-3.36566">
        <ele>-0.34</ele>
        <time>2015-10-10T15:56:43Z</time>
      </trkpt>
      <trkpt lat="47.71412" lon="-3.36566">
        <ele>-0.34</ele>
        <time>2015-10-10T15:56:44Z</time>
      </trkpt>
      <trkpt lat="47.71414" lon="-3.36566">
        <ele>-0.34</ele>
        <time>2015-10-10T15:56:45Z</time>
      </trkpt>
      <trkpt lat="47.71416" lon="-3.36566">
        <ele>-1.79</ele>
        <time>2015-10-10T15:56:46Z</time>
      </trkpt>
      <trkpt lat="47.71418" lon="-3.36566">
        <ele>-0.34</ele>
        <time>2015-10-10T15:56:47Z</time>
      </trkpt>
      <trkpt lat="47.7142" lon="-3.36566">
        <ele>-0.34</ele>
        <time>2015-10-10T15:56:48Z</time>
      </trkpt>
      <trkpt lat="47.71422" lon="-3.36566">
        <ele>-0.34</ele>
        <time>2015-10-10T15:56:49Z</time>
      </trkpt>
      <trkpt lat="47.71423" lon="-3.36565">
        <ele>-0.34</ele>
        <time>2015-10-10T15:56:50Z</time>
      </trkpt>
      <trkpt lat="47.71425" lon="-3.36565">
        <ele>-0.34</ele>
        <time>2015-10-10T15:56:51Z</time>
      </trkpt>
      <trkpt lat="47.71428" lon="-3.36565">
        <ele>-0.34</ele>
        <time>2015-10-10T15:56:52Z</time>
      </trkpt>
      <trkpt lat="47.71429" lon="-3.36565">
        <ele>-0.34</ele>
        <time>2015-10-10T15:56:53Z</time>
      </trkpt>
      <trkpt lat="47.71431" lon="-3.36565">
        <ele>-0.34</ele>
        <time>2015-10-10T15:56:54Z</time>
      </trkpt>
      <trkpt lat="47.71433" lon="-3.36565">
        <ele>-0.34</ele>
        <time>2015-10-10T15:56:55Z</time>
      </trkpt>
      <trkpt lat="47.71435" lon="-3.36565">
        <ele>-0.34</ele>
        <time>2015-10-10T15:56:56Z</time>
      </trkpt>
      <trkpt lat="47.71437" lon="-3.36565">
        <ele>-0.34</ele>
        <time>2015-10-10T15:56:57Z</time>
      </trkpt>
      <trkpt lat="47.7144" lon="-3.36565">
        <ele>-0.34</ele>
        <time>2015-10-10T15:56:58Z</time>
      </trkpt>
      <trkpt lat="47.71442" lon="-3.36565">
        <ele>-0.34</ele>
        <time>2015-10-10T15:56:59Z</time>
      </trkpt>
      <trkpt lat="47.71444" lon="-3.36564">
        <ele>-0.34</ele>
        <time>2015-10-10T15:57:00Z</time>
      </trkpt>
      <trkpt lat="47.71446" lon="-3.36564">
        <ele>-0.34</ele>
        <time>2015-10-10T15:57:01Z</time>
      </trkpt>
      <trkpt lat="47.71448" lon="-3.36564">
        <ele>-0.34</ele>
        <time>2015-10-10T15:57:02Z</time>
      </trkpt>
      <trkpt lat="47.7145" lon="-3.36563">
        <ele>-0.34</ele>
        <time>2015-10-10T15:57:03Z</time>
      </trkpt>
      <trkpt lat="47.71452" lon="-3.36563">
        <ele>-0.34</ele>
        <time>2015-10-10T15:57:04Z</time>
      </trkpt>
      <trkpt lat="47.71454" lon="-3.36563">
        <ele>-0.34</ele>
        <time>2015-10-10T15:57:05Z</time>
      </trkpt>
      <trkpt lat="47.71457" lon="-3.36563">
        <ele>-0.34</ele>
        <time>2015-10-10T15:57:06Z</time>
      </trkpt>
      <trkpt lat="47.71459" lon="-3.36562">
        <ele>-0.34</ele>
        <time>2015-10-10T15:57:07Z</time>
      </trkpt>
      <trkpt lat="47.71461" lon="-3.36561">
        <ele>-0.34</ele>
        <time>2015-10-10T15:57:08Z</time>
      </trkpt>
      <trkpt lat="47.71463" lon="-3.36561">
        <ele>-0.34</ele>
        <time>2015-10-10T15:57:09Z</time>
      </trkpt>
      <trkpt lat="47.71465" lon="-3.36561">
        <ele>-0.34</ele>
        <time>2015-10-10T15:57:10Z</time>
      </trkpt>
      <trkpt lat="47.71468" lon="-3.36562">
        <ele>-0.34</ele>
        <time>2015-10-10T15:57:11Z</time>
      </trkpt>
      <trkpt lat="47.71469" lon="-3.36562">
        <ele>-0.34</ele>
        <time>2015-10-10T15:57:12Z</time>
      </trkpt>
      <trkpt lat="47.71472" lon="-3.36562">
        <ele>-0.34</ele>
        <time>2015-10-10T15:57:13Z</time>
      </trkpt>
      <trkpt lat="47.71474" lon="-3.36562">
        <ele>-0.34</ele>
        <time>2015-10-10T15:57:14Z</time>
      </trkpt>
      <trkpt lat="47.71476" lon="-3.36561">
        <ele>0.14</ele>
        <time>2015-10-10T15:57:15Z</time>
      </trkpt>
      <trkpt lat="47.71478" lon="-3.36561">
        <ele>-0.34</ele>
        <time>2015-10-10T15:57:16Z</time>
      </trkpt>
      <trkpt lat="47.71481" lon="-3.3656">
        <ele>-0.34</ele>
        <time>2015-10-10T15:57:17Z</time>
      </trkpt>
      <trkpt lat="47.71483" lon="-3.3656">
        <ele>-0.34</ele>
        <time>2015-10-10T15:57:18Z</time>
      </trkpt>
      <trkpt lat="47.71485" lon="-3.36559">
        <ele>-0.34</ele>
        <time>2015-10-10T15:57:19Z</time>
      </trkpt>
      <trkpt lat="47.71487" lon="-3.36559">
        <ele>-0.34</ele>
        <time>2015-10-10T15:57:20Z</time>
      </trkpt>
      <trkpt lat="47.71489" lon="-3.36559">
        <ele>-0.34</ele>
        <time>2015-10-10T15:57:21Z</time>
      </trkpt>
      <trkpt lat="47.71491" lon="-3.36559">
        <ele>-0.34</ele>
        <time>2015-10-10T15:57:22Z</time>
      </trkpt>
      <trkpt lat="47.71493" lon="-3.36558">
        <ele>-0.34</ele>
        <time>2015-10-10T15:57:23Z</time>
      </trkpt>
      <trkpt lat="47.71495" lon="-3.36558">
        <ele>-0.34</ele>
        <time>2015-10-10T15:57:24Z</time>
      </trkpt>
      <trkpt lat="47.71498" lon="-3.36558">
        <ele>0.14</ele>
        <time>2015-10-10T15:57:25Z</time>
      </trkpt>
      <trkpt lat="47.71499" lon="-3.36558">
        <ele>-0.34</ele>
        <time>2015-10-10T15:57:26Z</time>
      </trkpt>
      <trkpt lat="47.71501" lon="-3.36558">
        <ele>-0.34</ele>
        <time>2015-10-10T15:57:27Z</time>
      </trkpt>
      <trkpt lat="47.71503" lon="-3.36558">
        <ele>0.14</ele>
        <time>2015-10-10T15:57:28Z</time>
      </trkpt>
      <trkpt lat="47.71505" lon="-3.36558">
        <ele>0.14</ele>
        <time>2015-10-10T15:57:29Z</time>
      </trkpt>
      <trkpt lat="47.71507" lon="-3.36558">
        <ele>0.14</ele>
        <time>2015-10-10T15:57:30Z</time>
      </trkpt>
      <trkpt lat="47.71509" lon="-3.36558">
        <ele>-0.34</ele>
        <time>2015-10-10T15:57:31Z</time>
      </trkpt>
      <trkpt lat="47.71511" lon="-3.36558">
        <ele>0.14</ele>
        <time>2015-10-10T15:57:32Z</time>
      </trkpt>
      <trkpt lat="47.71513" lon="-3.36558">
        <ele>-0.34</ele>
        <time>2015-10-10T15:57:33Z</time>
      </trkpt>
      <trkpt lat="47.71515" lon="-3.36559">
        <ele>-0.34</ele>
        <time>2015-10-10T15:57:34Z</time>
      </trkpt>
      <trkpt lat="47.71517" lon="-3.36559">
        <ele>-0.34</ele>
        <time>2015-10-10T15:57:35Z</time>
      </trkpt>
      <trkpt lat="47.71519" lon="-3.36559">
        <ele>-0.34</ele>
        <time>2015-10-10T15:57:36Z</time>
      </trkpt>
      <trkpt lat="47.71521" lon="-3.36559">
        <ele>0.14</ele>
        <time>2015-10-10T15:57:37Z</time>
      </trkpt>
      <trkpt lat="47.71523" lon="-3.36559">
        <ele>0.14</ele>
        <time>2015-10-10T15:57:38Z</time>
      </trkpt>
      <trkpt lat="47.71525" lon="-3.36558">
        <ele>0.14</ele>
        <time>2015-10-10T15:57:39Z</time>
      </trkpt>
      <trkpt lat="47.71527" lon="-3.36558">
        <ele>0.14</ele>
        <time>2015-10-10T15:57:40Z</time>
      </trkpt>
      <trkpt lat="47.71529" lon="-3.36558">
        <ele>0.14</ele>
        <time>2015-10-10T15:57:41Z</time>
      </trkpt>
      <trkpt lat="47.71531" lon="-3.36558">
        <ele>0.14</ele>
        <time>2015-10-10T15:57:42Z</time>
      </trkpt>
      <trkpt lat="47.71533" lon="-3.36558">
        <ele>-2.27</ele>
        <time>2015-10-10T15:57:43Z</time>
      </trkpt>
      <trkpt lat="47.71536" lon="-3.36558">
        <ele>-0.34</ele>
        <time>2015-10-10T15:57:44Z</time>
      </trkpt>
      <trkpt lat="47.71538" lon="-3.36557">
        <ele>-0.34</ele>
        <time>2015-10-10T15:57:45Z</time>
      </trkpt>
      <trkpt lat="47.7154" lon="-3.36557">
        <ele>-1.3</ele>
        <time>2015-10-10T15:57:46Z</time>
      </trkpt>
      <trkpt lat="47.71542" lon="-3.36556">
        <ele>-1.3</ele>
        <time>2015-10-10T15:57:47Z</time>
      </trkpt>
      <trkpt lat="47.71545" lon="-3.36556">
        <ele>-1.3</ele>
        <time>2015-10-10T15:57:48Z</time>
      </trkpt>
      <trkpt lat="47.71547" lon="-3.36555">
        <ele>-1.3</ele>
        <time>2015-10-10T15:57:49Z</time>
      </trkpt>
      <trkpt lat="47.71549" lon="-3.36554">
        <ele>-1.3</ele>
        <time>2015-10-10T15:57:50Z</time>
      </trkpt>
      <trkpt lat="47.71551" lon="-3.36554">
        <ele>-1.3</ele>
        <time>2015-10-10T15:57:51Z</time>
      </trkpt>
      <trkpt lat="47.71554" lon="-3.36553">
        <ele>-1.3</ele>
        <time>2015-10-10T15:57:52Z</time>
      </trkpt>
      <trkpt lat="47.71556" lon="-3.36553">
        <ele>-1.3</ele>
        <time>2015-10-10T15:57:53Z</time>
      </trkpt>
      <trkpt lat="47.71558" lon="-3.36552">
        <ele>0.14</ele>
        <time>2015-10-10T15:57:54Z</time>
      </trkpt>
      <trkpt lat="47.71561" lon="-3.36552">
        <ele>0.14</ele>
        <time>2015-10-10T15:57:55Z</time>
      </trkpt>
      <trkpt lat="47.71563" lon="-3.36551">
        <ele>0.14</ele>
        <time>2015-10-10T15:57:56Z</time>
      </trkpt>
      <trkpt lat="47.71565" lon="-3.36551">
        <ele>0.14</ele>
        <time>2015-10-10T15:57:57Z</time>
      </trkpt>
      <trkpt lat="47.71568" lon="-3.36551">
        <ele>-2.27</ele>
        <time>2015-10-10T15:57:58Z</time>
      </trkpt>
      <trkpt lat="47.7157" lon="-3.3655">
        <ele>0.62</ele>
        <time>2015-10-10T15:57:59Z</time>
      </trkpt>
      <trkpt lat="47.71572" lon="-3.3655">
        <ele>0.62</ele>
        <time>2015-10-10T15:58:00Z</time>
      </trkpt>
      <trkpt lat="47.71574" lon="-3.36549">
        <ele>-1.3</ele>
        <time>2015-10-10T15:58:01Z</time>
      </trkpt>
      <trkpt lat="47.71576" lon="-3.36548">
        <ele>-1.3</ele>
        <time>2015-10-10T15:58:02Z</time>
      </trkpt>
      <trkpt lat="47.71578" lon="-3.36547">
        <ele>-1.3</ele>
        <time>2015-10-10T15:58:03Z</time>
      </trkpt>
      <trkpt lat="47.7158" lon="-3.36547">
        <ele>-1.3</ele>
        <time>2015-10-10T15:58:04Z</time>
      </trkpt>
      <trkpt lat="47.71582" lon="-3.36546">
        <ele>-1.3</ele>
        <time>2015-10-10T15:58:05Z</time>
      </trkpt>
      <trkpt lat="47.71584" lon="-3.36545">
        <ele>-1.3</ele>
        <time>2015-10-10T15:58:06Z</time>
      </trkpt>
      <trkpt lat="47.71586" lon="-3.36545">
        <ele>-1.3</ele>
        <time>2015-10-10T15:58:07Z</time>
      </trkpt>
      <trkpt lat="47.71588" lon="-3.36544">
        <ele>-1.3</ele>
        <time>2015-10-10T15:58:08Z</time>
      </trkpt>
      <trkpt lat="47.7159" lon="-3.36544">
        <ele>-1.3</ele>
        <time>2015-10-10T15:58:09Z</time>
      </trkpt>
      <trkpt lat="47.71592" lon="-3.36543">
        <ele>-1.3</ele>
        <time>2015-10-10T15:58:10Z</time>
      </trkpt>
      <trkpt lat="47.71594" lon="-3.36542">
        <ele>-1.3</ele>
        <time>2015-10-10T15:58:11Z</time>
      </trkpt>
      <trkpt lat="47.71596" lon="-3.36542">
        <ele>-1.3</ele>
        <time>2015-10-10T15:58:12Z</time>
      </trkpt>
      <trkpt lat="47.71598" lon="-3.36542">
        <ele>-1.3</ele>
        <time>2015-10-10T15:58:13Z</time>
      </trkpt>
      <trkpt lat="47.71601" lon="-3.36542">
        <ele>-1.3</ele>
        <time>2015-10-10T15:58:14Z</time>
      </trkpt>
      <trkpt lat="47.71603" lon="-3.36542">
        <ele>-1.3</ele>
        <time>2015-10-10T15:58:15Z</time>
      </trkpt>
      <trkpt lat="47.71605" lon="-3.36541">
        <ele>-1.3</ele>
        <time>2015-10-10T15:58:16Z</time>
      </trkpt>
      <trkpt lat="47.71607" lon="-3.36541">
        <ele>-1.3</ele>
        <time>2015-10-10T15:58:17Z</time>
      </trkpt>
      <trkpt lat="47.71609" lon="-3.36541">
        <ele>-1.3</ele>
        <time>2015-10-10T15:58:18Z</time>
      </trkpt>
      <trkpt lat="47.71612" lon="-3.36541">
        <ele>-1.3</ele>
        <time>2015-10-10T15:58:19Z</time>
      </trkpt>
      <trkpt lat="47.71614" lon="-3.36541">
        <ele>-1.3</ele>
        <time>2015-10-10T15:58:20Z</time>
      </trkpt>
      <trkpt lat="47.71616" lon="-3.36541">
        <ele>-1.3</ele>
        <time>2015-10-10T15:58:21Z</time>
      </trkpt>
      <trkpt lat="47.71618" lon="-3.36541">
        <ele>-1.3</ele>
        <time>2015-10-10T15:58:22Z</time>
      </trkpt>
      <trkpt lat="47.71621" lon="-3.36541">
        <ele>-1.3</ele>
        <time>2015-10-10T15:58:23Z</time>
      </trkpt>
      <trkpt lat="47.71623" lon="-3.36541">
        <ele>-1.3</ele>
        <time>2015-10-10T15:58:24Z</time>
      </trkpt>
      <trkpt lat="47.71625" lon="-3.36541">
        <ele>-1.3</ele>
        <time>2015-10-10T15:58:25Z</time>
      </trkpt>
      <trkpt lat="47.71628" lon="-3.3654">
        <ele>-1.3</ele>
        <time>2015-10-10T15:58:26Z</time>
      </trkpt>
      <trkpt lat="47.7163" lon="-3.3654">
        <ele>-1.3</ele>
        <time>2015-10-10T15:58:27Z</time>
      </trkpt>
      <trkpt lat="47.71632" lon="-3.3654">
        <ele>-1.3</ele>
        <time>2015-10-10T15:58:28Z</time>
      </trkpt>
      <trkpt lat="47.71634" lon="-3.3654">
        <ele>-1.3</ele>
        <time>2015-10-10T15:58:29Z</time>
      </trkpt>
      <trkpt lat="47.71637" lon="-3.3654">
        <ele>-1.3</ele>
        <time>2015-10-10T15:58:30Z</time>
      </trkpt>
      <trkpt lat="47.71639" lon="-3.3654">
        <ele>-1.3</ele>
        <time>2015-10-10T15:58:31Z</time>
      </trkpt>
      <trkpt lat="47.71641" lon="-3.36539">
        <ele>-1.3</ele>
        <time>2015-10-10T15:58:32Z</time>
      </trkpt>
      <trkpt lat="47.71644" lon="-3.36539">
        <ele>-1.3</ele>
        <time>2015-10-10T15:58:33Z</time>
      </trkpt>
      <trkpt lat="47.71646" lon="-3.36539">
        <ele>-1.3</ele>
        <time>2015-10-10T15:58:34Z</time>
      </trkpt>
      <trkpt lat="47.71648" lon="-3.36539">
        <ele>-1.3</ele>
        <time>2015-10-10T15:58:35Z</time>
      </trkpt>
      <trkpt lat="47.7165" lon="-3.36539">
        <ele>-2.27</ele>
        <time>2015-10-10T15:58:36Z</time>
      </trkpt>
      <trkpt lat="47.71653" lon="-3.3654">
        <ele>-0.34</ele>
        <time>2015-10-10T15:58:37Z</time>
      </trkpt>
      <trkpt lat="47.71655" lon="-3.3654">
        <ele>-0.34</ele>
        <time>2015-10-10T15:58:38Z</time>
      </trkpt>
      <trkpt lat="47.71657" lon="-3.3654">
        <ele>-0.34</ele>
        <time>2015-10-10T15:58:39Z</time>
      </trkpt>
      <trkpt lat="47.71659" lon="-3.3654">
        <ele>-1.3</ele>
        <time>2015-10-10T15:58:40Z</time>
      </trkpt>
      <trkpt lat="47.71661" lon="-3.3654">
        <ele>-1.3</ele>
        <time>2015-10-10T15:58:41Z</time>
      </trkpt>
      <trkpt lat="47.71663" lon="-3.3654">
        <ele>-1.3</ele>
        <time>2015-10-10T15:58:42Z</time>
      </trkpt>
      <trkpt lat="47.71665" lon="-3.36541">
        <ele>-1.3</ele>
        <time>2015-10-10T15:58:43Z</time>
      </trkpt>
      <trkpt lat="47.71667" lon="-3.36541">
        <ele>-1.3</ele>
        <time>2015-10-10T15:58:44Z</time>
      </trkpt>
      <trkpt lat="47.71669" lon="-3.36541">
        <ele>-1.3</ele>
        <time>2015-10-10T15:58:45Z</time>
      </trkpt>
      <trkpt lat="47.71671" lon="-3.36542">
        <ele>-1.3</ele>
        <time>2015-10-10T15:58:46Z</time>
      </trkpt>
      <trkpt lat="47.71673" lon="-3.36542">
        <ele>-1.3</ele>
        <time>2015-10-10T15:58:47Z</time>
      </trkpt>
      <trkpt lat="47.71675" lon="-3.36543">
        <ele>-1.3</ele>
        <time>2015-10-10T15:58:48Z</time>
      </trkpt>
      <trkpt lat="47.71677" lon="-3.36543">
        <ele>-1.3</ele>
        <time>2015-10-10T15:58:49Z</time>
      </trkpt>
      <trkpt lat="47.71679" lon="-3.36544">
        <ele>-1.3</ele>
        <time>2015-10-10T15:58:50Z</time>
      </trkpt>
      <trkpt lat="47.7168" lon="-3.36544">
        <ele>-1.3</ele>
        <time>2015-10-10T15:58:51Z</time>
      </trkpt>
      <trkpt lat="47.71682" lon="-3.36545">
        <ele>-1.3</ele>
        <time>2015-10-10T15:58:52Z</time>
      </trkpt>
      <trkpt lat="47.71684" lon="-3.36545">
        <ele>-1.3</ele>
        <time>2015-10-10T15:58:53Z</time>
      </trkpt>
      <trkpt lat="47.71686" lon="-3.36546">
        <ele>-1.3</ele>
        <time>2015-10-10T15:58:54Z</time>
      </trkpt>
      <trkpt lat="47.71688" lon="-3.36546">
        <ele>-1.3</ele>
        <time>2015-10-10T15:58:55Z</time>
      </trkpt>
      <trkpt lat="47.7169" lon="-3.36546">
        <ele>-1.3</ele>
        <time>2015-10-10T15:58:56Z</time>
      </trkpt>
      <trkpt lat="47.71692" lon="-3.36547">
        <ele>-1.3</ele>
        <time>2015-10-10T15:58:57Z</time>
      </trkpt>
      <trkpt lat="47.71694" lon="-3.36548">
        <ele>-1.3</ele>
        <time>2015-10-10T15:58:58Z</time>
      </trkpt>
      <trkpt lat="47.71695" lon="-3.36548">
        <ele>-1.3</ele>
        <time>2015-10-10T15:58:59Z</time>
      </trkpt>
      <trkpt lat="47.71697" lon="-3.36549">
        <ele>-1.3</ele>
        <time>2015-10-10T15:59:00Z</time>
      </trkpt>
      <trkpt lat="47.717" lon="-3.36549">
        <ele>-1.3</ele>
        <time>2015-10-10T15:59:01Z</time>
      </trkpt>
      <trkpt lat="47.71701" lon="-3.36549">
        <ele>-1.3</ele>
        <time>2015-10-10T15:59:02Z</time>
      </trkpt>
      <trkpt lat="47.71703" lon="-3.3655">
        <ele>-1.3</ele>
        <time>2015-10-10T15:59:03Z</time>
      </trkpt>
      <trkpt lat="47.71706" lon="-3.3655">
        <ele>-1.3</ele>
        <time>2015-10-10T15:59:04Z</time>
      </trkpt>
      <trkpt lat="47.71708" lon="-3.36551">
        <ele>-1.3</ele>
        <time>2015-10-10T15:59:05Z</time>
      </trkpt>
      <trkpt lat="47.7171" lon="-3.36551">
        <ele>-1.3</ele>
        <time>2015-10-10T15:59:06Z</time>
      </trkpt>
      <trkpt lat="47.71712" lon="-3.36551">
        <ele>-1.3</ele>
        <time>2015-10-10T15:59:07Z</time>
      </trkpt>
      <trkpt lat="47.71714" lon="-3.36551">
        <ele>-1.3</ele>
        <time>2015-10-10T15:59:08Z</time>
      </trkpt>
      <trkpt lat="47.71716" lon="-3.36551">
        <ele>-1.3</ele>
        <time>2015-10-10T15:59:09Z</time>
      </trkpt>
      <trkpt lat="47.71719" lon="-3.36551">
        <ele>-1.3</ele>
        <time>2015-10-10T15:59:10Z</time>
      </trkpt>
      <trkpt lat="47.71721" lon="-3.36551">
        <ele>-1.3</ele>
        <time>2015-10-10T15:59:11Z</time>
      </trkpt>
      <trkpt lat="47.71723" lon="-3.36552">
        <ele>-1.3</ele>
        <time>2015-10-10T15:59:12Z</time>
      </trkpt>
      <trkpt lat="47.71725" lon="-3.36552">
        <ele>-1.3</ele>
        <time>2015-10-10T15:59:13Z</time>
      </trkpt>
      <trkpt lat="47.71727" lon="-3.36552">
        <ele>-1.3</ele>
        <time>2015-10-10T15:59:14Z</time>
      </trkpt>
      <trkpt lat="47.71729" lon="-3.36552">
        <ele>-1.3</ele>
        <time>2015-10-10T15:59:15Z</time>
      </trkpt>
      <trkpt lat="47.71731" lon="-3.36553">
        <ele>-1.3</ele>
        <time>2015-10-10T15:59:16Z</time>
      </trkpt>
      <trkpt lat="47.71733" lon="-3.36553">
        <ele>-1.3</ele>
        <time>2015-10-10T15:59:17Z</time>
      </trkpt>
      <trkpt lat="47.71735" lon="-3.36553">
        <ele>-1.3</ele>
        <time>2015-10-10T15:59:18Z</time>
      </trkpt>
      <trkpt lat="47.71738" lon="-3.36553">
        <ele>-1.3</ele>
        <time>2015-10-10T15:59:19Z</time>
      </trkpt>
      <trkpt lat="47.7174" lon="-3.36553">
        <ele>-1.3</ele>
        <time>2015-10-10T15:59:20Z</time>
      </trkpt>
      <trkpt lat="47.71742" lon="-3.36554">
        <ele>-1.3</ele>
        <time>2015-10-10T15:59:21Z</time>
      </trkpt>
      <trkpt lat="47.71744" lon="-3.36554">
        <ele>-1.3</ele>
        <time>2015-10-10T15:59:22Z</time>
      </trkpt>
      <trkpt lat="47.71746" lon="-3.36554">
        <ele>-1.3</ele>
        <time>2015-10-10T15:59:23Z</time>
      </trkpt>
      <trkpt lat="47.71748" lon="-3.36555">
        <ele>-1.3</ele>
        <time>2015-10-10T15:59:24Z</time>
      </trkpt>
      <trkpt lat="47.7175" lon="-3.36555">
        <ele>-1.3</ele>
        <time>2015-10-10T15:59:25Z</time>
      </trkpt>
      <trkpt lat="47.71752" lon="-3.36555">
        <ele>-1.3</ele>
        <time>2015-10-10T15:59:26Z</time>
      </trkpt>
      <trkpt lat="47.71754" lon="-3.36556">
        <ele>-1.3</ele>
        <time>2015-10-10T15:59:27Z</time>
      </trkpt>
      <trkpt lat="47.71756" lon="-3.36556">
        <ele>-1.3</ele>
        <time>2015-10-10T15:59:28Z</time>
      </trkpt>
      <trkpt lat="47.71758" lon="-3.36556">
        <ele>-1.3</ele>
        <time>2015-10-10T15:59:29Z</time>
      </trkpt>
      <trkpt lat="47.7176" lon="-3.36557">
        <ele>-1.3</ele>
        <time>2015-10-10T15:59:30Z</time>
      </trkpt>
      <trkpt lat="47.71762" lon="-3.36557">
        <ele>-1.3</ele>
        <time>2015-10-10T15:59:31Z</time>
      </trkpt>
      <trkpt lat="47.71765" lon="-3.36558">
        <ele>-1.3</ele>
        <time>2015-10-10T15:59:32Z</time>
      </trkpt>
      <trkpt lat="47.71767" lon="-3.36558">
        <ele>-1.3</ele>
        <time>2015-10-10T15:59:33Z</time>
      </trkpt>
      <trkpt lat="47.71769" lon="-3.36558">
        <ele>-1.3</ele>
        <time>2015-10-10T15:59:34Z</time>
      </trkpt>
      <trkpt lat="47.71771" lon="-3.36559">
        <ele>-1.3</ele>
        <time>2015-10-10T15:59:35Z</time>
      </trkpt>
      <trkpt lat="47.71774" lon="-3.36559">
        <ele>-1.3</ele>
        <time>2015-10-10T15:59:36Z</time>
      </trkpt>
      <trkpt lat="47.71776" lon="-3.36559">
        <ele>-1.3</ele>
        <time>2015-10-10T15:59:37Z</time>
      </trkpt>
      <trkpt lat="47.71778" lon="-3.36559">
        <ele>-1.3</ele>
        <time>2015-10-10T15:59:38Z</time>
      </trkpt>
      <trkpt lat="47.7178" lon="-3.36559">
        <ele>-1.3</ele>
        <time>2015-10-10T15:59:39Z</time>
      </trkpt>
      <trkpt lat="47.71783" lon="-3.3656">
        <ele>-1.3</ele>
        <time>2015-10-10T15:59:40Z</time>
      </trkpt>
      <trkpt lat="47.71785" lon="-3.3656">
        <ele>-1.3</ele>
        <time>2015-10-10T15:59:41Z</time>
      </trkpt>
      <trkpt lat="47.71787" lon="-3.3656">
        <ele>-1.3</ele>
        <time>2015-10-10T15:59:42Z</time>
      </trkpt>
      <trkpt lat="47.71789" lon="-3.36561">
        <ele>-1.3</ele>
        <time>2015-10-10T15:59:43Z</time>
      </trkpt>
      <trkpt lat="47.71792" lon="-3.36561">
        <ele>-1.3</ele>
        <time>2015-10-10T15:59:44Z</time>
      </trkpt>
      <trkpt lat="47.71794" lon="-3.36561">
        <ele>-1.3</ele>
        <time>2015-10-10T15:59:45Z</time>
      </trkpt>
      <trkpt lat="47.71797" lon="-3.36561">
        <ele>-1.3</ele>
        <time>2015-10-10T15:59:46Z</time>
      </trkpt>
      <trkpt lat="47.71799" lon="-3.36561">
        <ele>-1.3</ele>
        <time>2015-10-10T15:59:47Z</time>
      </trkpt>
      <trkpt lat="47.71801" lon="-3.36562">
        <ele>-1.3</ele>
        <time>2015-10-10T15:59:48Z</time>
      </trkpt>
      <trkpt lat="47.71804" lon="-3.36562">
        <ele>-1.3</ele>
        <time>2015-10-10T15:59:49Z</time>
      </trkpt>
      <trkpt lat="47.71806" lon="-3.36562">
        <ele>-1.3</ele>
        <time>2015-10-10T15:59:50Z</time>
      </trkpt>
      <trkpt lat="47.71809" lon="-3.36562">
        <ele>-1.3</ele>
        <time>2015-10-10T15:59:51Z</time>
      </trkpt>
      <trkpt lat="47.71811" lon="-3.36563">
        <ele>-1.3</ele>
        <time>2015-10-10T15:59:52Z</time>
      </trkpt>
      <trkpt lat="47.71814" lon="-3.36563">
        <ele>-1.3</ele>
        <time>2015-10-10T15:59:53Z</time>
      </trkpt>
      <trkpt lat="47.71816" lon="-3.36563">
        <ele>-1.3</ele>
        <time>2015-10-10T15:59:54Z</time>
      </trkpt>
      <trkpt lat="47.71818" lon="-3.36564">
        <ele>-1.3</ele>
        <time>2015-10-10T15:59:55Z</time>
      </trkpt>
      <trkpt lat="47.7182" lon="-3.36564">
        <ele>-1.3</ele>
        <time>2015-10-10T15:59:56Z</time>
      </trkpt>
      <trkpt lat="47.71823" lon="-3.36564">
        <ele>-1.3</ele>
        <time>2015-10-10T15:59:57Z</time>
      </trkpt>
      <trkpt lat="47.71825" lon="-3.36564">
        <ele>-1.3</ele>
        <time>2015-10-10T15:59:58Z</time>
      </trkpt>
      <trkpt lat="47.71828" lon="-3.36564">
        <ele>-1.3</ele>
        <time>2015-10-10T15:59:59Z</time>
      </trkpt>
      <trkpt lat="47.7183" lon="-3.36563">
        <ele>-1.3</ele>
        <time>2015-10-10T16:00:00Z</time>
      </trkpt>
      <trkpt lat="47.71837" lon="-3.36561">
        <ele>-1.3</ele>
        <time>2015-10-10T16:00:03Z</time>
      </trkpt>
      <trkpt lat="47.7184" lon="-3.36561">
        <ele>-1.3</ele>
        <time>2015-10-10T16:00:04Z</time>
      </trkpt>
      <trkpt lat="47.71842" lon="-3.3656">
        <ele>-1.3</ele>
        <time>2015-10-10T16:00:05Z</time>
      </trkpt>
      <trkpt lat="47.71845" lon="-3.3656">
        <ele>-1.3</ele>
        <time>2015-10-10T16:00:06Z</time>
      </trkpt>
      <trkpt lat="47.71847" lon="-3.36559">
        <ele>-1.3</ele>
        <time>2015-10-10T16:00:07Z</time>
      </trkpt>
      <trkpt lat="47.7185" lon="-3.36559">
        <ele>-1.3</ele>
        <time>2015-10-10T16:00:08Z</time>
      </trkpt>
      <trkpt lat="47.71852" lon="-3.36559">
        <ele>-1.3</ele>
        <time>2015-10-10T16:00:09Z</time>
      </trkpt>
      <trkpt lat="47.71855" lon="-3.36558">
        <ele>-1.3</ele>
        <time>2015-10-10T16:00:10Z</time>
      </trkpt>
      <trkpt lat="47.71857" lon="-3.36558">
        <ele>-1.3</ele>
        <time>2015-10-10T16:00:11Z</time>
      </trkpt>
      <trkpt lat="47.7186" lon="-3.36557">
        <ele>-1.3</ele>
        <time>2015-10-10T16:00:12Z</time>
      </trkpt>
      <trkpt lat="47.71862" lon="-3.36557">
        <ele>-1.3</ele>
        <time>2015-10-10T16:00:13Z</time>
      </trkpt>
      <trkpt lat="47.71865" lon="-3.36556">
        <ele>-1.3</ele>
        <time>2015-10-10T16:00:14Z</time>
      </trkpt>
      <trkpt lat="47.71867" lon="-3.36556">
        <ele>-1.3</ele>
        <time>2015-10-10T16:00:15Z</time>
      </trkpt>
      <trkpt lat="47.7187" lon="-3.36556">
        <ele>-1.3</ele>
        <time>2015-10-10T16:00:16Z</time>
      </trkpt>
      <trkpt lat="47.71872" lon="-3.36556">
        <ele>-1.3</ele>
        <time>2015-10-10T16:00:17Z</time>
      </trkpt>
      <trkpt lat="47.71875" lon="-3.36556">
        <ele>-1.3</ele>
        <time>2015-10-10T16:00:18Z</time>
      </trkpt>
      <trkpt lat="47.71877" lon="-3.36555">
        <ele>-1.3</ele>
        <time>2015-10-10T16:00:19Z</time>
      </trkpt>
      <trkpt lat="47.71879" lon="-3.36555">
        <ele>-1.3</ele>
        <time>2015-10-10T16:00:20Z</time>
      </trkpt>
      <trkpt lat="47.71882" lon="-3.36554">
        <ele>-1.3</ele>
        <time>2015-10-10T16:00:21Z</time>
      </trkpt>
      <trkpt lat="47.71884" lon="-3.36554">
        <ele>-1.3</ele>
        <time>2015-10-10T16:00:22Z</time>
      </trkpt>
      <trkpt lat="47.71886" lon="-3.36553">
        <ele>-1.3</ele>
        <time>2015-10-10T16:00:23Z</time>
      </trkpt>
      <trkpt lat="47.71889" lon="-3.36553">
        <ele>-1.3</ele>
        <time>2015-10-10T16:00:24Z</time>
      </trkpt>
      <trkpt lat="47.71891" lon="-3.36553">
        <ele>-1.3</ele>
        <time>2015-10-10T16:00:25Z</time>
      </trkpt>
      <trkpt lat="47.71893" lon="-3.36552">
        <ele>-1.3</ele>
        <time>2015-10-10T16:00:26Z</time>
      </trkpt>
      <trkpt lat="47.71896" lon="-3.36552">
        <ele>-1.3</ele>
        <time>2015-10-10T16:00:27Z</time>
      </trkpt>
      <trkpt lat="47.71898" lon="-3.36551">
        <ele>-1.3</ele>
        <time>2015-10-10T16:00:28Z</time>
      </trkpt>
      <trkpt lat="47.719" lon="-3.36551">
        <ele>-1.3</ele>
        <time>2015-10-10T16:00:29Z</time>
      </trkpt>
      <trkpt lat="47.71902" lon="-3.36551">
        <ele>-1.3</ele>
        <time>2015-10-10T16:00:30Z</time>
      </trkpt>
      <trkpt lat="47.71905" lon="-3.3655">
        <ele>-1.3</ele>
        <time>2015-10-10T16:00:31Z</time>
      </trkpt>
      <trkpt lat="47.71907" lon="-3.3655">
        <ele>-1.3</ele>
        <time>2015-10-10T16:00:32Z</time>
      </trkpt>
      <trkpt lat="47.71909" lon="-3.3655">
        <ele>-1.3</ele>
        <time>2015-10-10T16:00:33Z</time>
      </trkpt>
      <trkpt lat="47.71911" lon="-3.3655">
        <ele>-1.3</ele>
        <time>2015-10-10T16:00:34Z</time>
      </trkpt>
      <trkpt lat="47.71913" lon="-3.36549">
        <ele>-1.3</ele>
        <time>2015-10-10T16:00:35Z</time>
      </trkpt>
      <trkpt lat="47.71915" lon="-3.36549">
        <ele>-1.3</ele>
        <time>2015-10-10T16:00:36Z</time>
      </trkpt>
      <trkpt lat="47.71917" lon="-3.36549">
        <ele>-1.3</ele>
        <time>2015-10-10T16:00:37Z</time>
      </trkpt>
      <trkpt lat="47.7192" lon="-3.36548">
        <ele>-1.3</ele>
        <time>2015-10-10T16:00:38Z</time>
      </trkpt>
      <trkpt lat="47.71922" lon="-3.36548">
        <ele>-1.3</ele>
        <time>2015-10-10T16:00:39Z</time>
      </trkpt>
      <trkpt lat="47.71924" lon="-3.36549">
        <ele>-1.3</ele>
        <time>2015-10-10T16:00:40Z</time>
      </trkpt>
      <trkpt lat="47.71926" lon="-3.3655">
        <ele>-1.3</ele>
        <time>2015-10-10T16:00:41Z</time>
      </trkpt>
      <trkpt lat="47.71928" lon="-3.36551">
        <ele>-1.3</ele>
        <time>2015-10-10T16:00:42Z</time>
      </trkpt>
      <trkpt lat="47.7193" lon="-3.36552">
        <ele>-1.3</ele>
        <time>2015-10-10T16:00:43Z</time>
      </trkpt>
      <trkpt lat="47.71932" lon="-3.36553">
        <ele>-1.3</ele>
        <time>2015-10-10T16:00:44Z</time>
      </trkpt>
      <trkpt lat="47.71934" lon="-3.36554">
        <ele>-1.3</ele>
        <time>2015-10-10T16:00:45Z</time>
      </trkpt>
      <trkpt lat="47.71937" lon="-3.36554">
        <ele>-1.3</ele>
        <time>2015-10-10T16:00:46Z</time>
      </trkpt>
      <trkpt lat="47.71939" lon="-3.36555">
        <ele>-0.82</ele>
        <time>2015-10-10T16:00:47Z</time>
      </trkpt>
      <trkpt lat="47.71941" lon="-3.36556">
        <ele>-1.3</ele>
        <time>2015-10-10T16:00:48Z</time>
      </trkpt>
      <trkpt lat="47.71943" lon="-3.36556">
        <ele>-1.3</ele>
        <time>2015-10-10T16:00:49Z</time>
      </trkpt>
      <trkpt lat="47.71945" lon="-3.36556">
        <ele>-0.82</ele>
        <time>2015-10-10T16:00:50Z</time>
      </trkpt>
      <trkpt lat="47.71947" lon="-3.36556">
        <ele>-0.82</ele>
        <time>2015-10-10T16:00:51Z</time>
      </trkpt>
      <trkpt lat="47.71949" lon="-3.36557">
        <ele>0.14</ele>
        <time>2015-10-10T16:00:52Z</time>
      </trkpt>
      <trkpt lat="47.71951" lon="-3.36557">
        <ele>0.14</ele>
        <time>2015-10-10T16:00:53Z</time>
      </trkpt>
      <trkpt lat="47.71953" lon="-3.36557">
        <ele>-2.27</ele>
        <time>2015-10-10T16:00:54Z</time>
      </trkpt>
      <trkpt lat="47.71956" lon="-3.36557">
        <ele>-2.27</ele>
        <time>2015-10-10T16:00:55Z</time>
      </trkpt>
      <trkpt lat="47.71958" lon="-3.36557">
        <ele>-2.27</ele>
        <time>2015-10-10T16:00:56Z</time>
      </trkpt>
      <trkpt lat="47.71961" lon="-3.36557">
        <ele>-2.27</ele>
        <time>2015-10-10T16:00:57Z</time>
      </trkpt>
      <trkpt lat="47.71963" lon="-3.36558">
        <ele>-2.27</ele>
        <time>2015-10-10T16:00:58Z</time>
      </trkpt>
      <trkpt lat="47.71965" lon="-3.36558">
        <ele>-2.27</ele>
        <time>2015-10-10T16:00:59Z</time>
      </trkpt>
      <trkpt lat="47.71968" lon="-3.36558">
        <ele>-2.27</ele>
        <time>2015-10-10T16:01:00Z</time>
      </trkpt>
      <trkpt lat="47.7197" lon="-3.36559">
        <ele>-2.27</ele>
        <time>2015-10-10T16:01:01Z</time>
      </trkpt>
      <trkpt lat="47.71972" lon="-3.36559">
        <ele>-2.27</ele>
        <time>2015-10-10T16:01:02Z</time>
      </trkpt>
      <trkpt lat="47.71975" lon="-3.3656">
        <ele>-2.27</ele>
        <time>2015-10-10T16:01:03Z</time>
      </trkpt>
      <trkpt lat="47.71978" lon="-3.3656">
        <ele>-2.27</ele>
        <time>2015-10-10T16:01:04Z</time>
      </trkpt>
      <trkpt lat="47.7198" lon="-3.36561">
        <ele>-2.27</ele>
        <time>2015-10-10T16:01:05Z</time>
      </trkpt>
      <trkpt lat="47.71983" lon="-3.36561">
        <ele>-2.27</ele>
        <time>2015-10-10T16:01:06Z</time>
      </trkpt>
      <trkpt lat="47.71985" lon="-3.36561">
        <ele>-2.27</ele>
        <time>2015-10-10T16:01:07Z</time>
      </trkpt>
      <trkpt lat="47.71987" lon="-3.36561">
        <ele>-2.27</ele>
        <time>2015-10-10T16:01:08Z</time>
      </trkpt>
      <trkpt lat="47.7199" lon="-3.36561">
        <ele>-2.27</ele>
        <time>2015-10-10T16:01:09Z</time>
      </trkpt>
      <trkpt lat="47.71992" lon="-3.36562">
        <ele>-2.27</ele>
        <time>2015-10-10T16:01:10Z</time>
      </trkpt>
      <trkpt lat="47.71994" lon="-3.36562">
        <ele>0.14</ele>
        <time>2015-10-10T16:01:11Z</time>
      </trkpt>
      <trkpt lat="47.71997" lon="-3.36563">
        <ele>0.14</ele>
        <time>2015-10-10T16:01:12Z</time>
      </trkpt>
      <trkpt lat="47.71999" lon="-3.36563">
        <ele>-1.79</ele>
        <time>2015-10-10T16:01:13Z</time>
      </trkpt>
      <trkpt lat="47.72002" lon="-3.36564">
        <ele>-1.79</ele>
        <time>2015-10-10T16:01:14Z</time>
      </trkpt>
      <trkpt lat="47.72004" lon="-3.36565">
        <ele>0.62</ele>
        <time>2015-10-10T16:01:15Z</time>
      </trkpt>
      <trkpt lat="47.72006" lon="-3.36566">
        <ele>0.62</ele>
        <time>2015-10-10T16:01:16Z</time>
      </trkpt>
      <trkpt lat="47.72008" lon="-3.36566">
        <ele>-1.3</ele>
        <time>2015-10-10T16:01:17Z</time>
      </trkpt>
      <trkpt lat="47.7201" lon="-3.36567">
        <ele>-1.3</ele>
        <time>2015-10-10T16:01:18Z</time>
      </trkpt>
      <trkpt lat="47.72013" lon="-3.36567">
        <ele>-2.27</ele>
        <time>2015-10-10T16:01:19Z</time>
      </trkpt>
      <trkpt lat="47.72015" lon="-3.36568">
        <ele>-2.27</ele>
        <time>2015-10-10T16:01:20Z</time>
      </trkpt>
      <trkpt lat="47.72018" lon="-3.36569">
        <ele>-2.27</ele>
        <time>2015-10-10T16:01:21Z</time>
      </trkpt>
      <trkpt lat="47.72021" lon="-3.36569">
        <ele>-2.27</ele>
        <time>2015-10-10T16:01:22Z</time>
      </trkpt>
      <trkpt lat="47.72023" lon="-3.3657">
        <ele>-2.27</ele>
        <time>2015-10-10T16:01:23Z</time>
      </trkpt>
      <trkpt lat="47.72025" lon="-3.3657">
        <ele>-2.27</ele>
        <time>2015-10-10T16:01:24Z</time>
      </trkpt>
      <trkpt lat="47.72028" lon="-3.36571">
        <ele>-2.75</ele>
        <time>2015-10-10T16:01:25Z</time>
      </trkpt>
      <trkpt lat="47.7203" lon="-3.36571">
        <ele>-2.75</ele>
        <time>2015-10-10T16:01:26Z</time>
      </trkpt>
      <trkpt lat="47.72033" lon="-3.36572">
        <ele>-2.75</ele>
        <time>2015-10-10T16:01:27Z</time>
      </trkpt>
      <trkpt lat="47.72035" lon="-3.36572">
        <ele>-2.75</ele>
        <time>2015-10-10T16:01:28Z</time>
      </trkpt>
      <trkpt lat="47.72038" lon="-3.36572">
        <ele>-2.75</ele>
        <time>2015-10-10T16:01:29Z</time>
      </trkpt>
      <trkpt lat="47.7204" lon="-3.36572">
        <ele>-2.75</ele>
        <time>2015-10-10T16:01:30Z</time>
      </trkpt>
      <trkpt lat="47.72043" lon="-3.36573">
        <ele>-2.75</ele>
        <time>2015-10-10T16:01:31Z</time>
      </trkpt>
      <trkpt lat="47.72045" lon="-3.36573">
        <ele>-2.75</ele>
        <time>2015-10-10T16:01:32Z</time>
      </trkpt>
      <trkpt lat="47.72048" lon="-3.36573">
        <ele>-2.75</ele>
        <time>2015-10-10T16:01:33Z</time>
      </trkpt>
      <trkpt lat="47.7205" lon="-3.36573">
        <ele>-2.75</ele>
        <time>2015-10-10T16:01:34Z</time>
      </trkpt>
      <trkpt lat="47.72053" lon="-3.36573">
        <ele>-2.75</ele>
        <time>2015-10-10T16:01:35Z</time>
      </trkpt>
      <trkpt lat="47.72055" lon="-3.36572">
        <ele>-2.75</ele>
        <time>2015-10-10T16:01:36Z</time>
      </trkpt>
      <trkpt lat="47.72058" lon="-3.36572">
        <ele>-2.75</ele>
        <time>2015-10-10T16:01:37Z</time>
      </trkpt>
      <trkpt lat="47.7206" lon="-3.36572">
        <ele>-2.75</ele>
        <time>2015-10-10T16:01:38Z</time>
      </trkpt>
      <trkpt lat="47.72063" lon="-3.36571">
        <ele>-2.75</ele>
        <time>2015-10-10T16:01:39Z</time>
      </trkpt>
      <trkpt lat="47.72065" lon="-3.36571">
        <ele>-2.75</ele>
        <time>2015-10-10T16:01:40Z</time>
      </trkpt>
      <trkpt lat="47.72068" lon="-3.36571">
        <ele>-2.75</ele>
        <time>2015-10-10T16:01:41Z</time>
      </trkpt>
      <trkpt lat="47.7207" lon="-3.36571">
        <ele>-2.75</ele>
        <time>2015-10-10T16:01:42Z</time>
      </trkpt>
      <trkpt lat="47.72073" lon="-3.3657">
        <ele>-2.75</ele>
        <time>2015-10-10T16:01:43Z</time>
      </trkpt>
      <trkpt lat="47.72075" lon="-3.3657">
        <ele>-2.75</ele>
        <time>2015-10-10T16:01:44Z</time>
      </trkpt>
      <trkpt lat="47.72078" lon="-3.36569">
        <ele>-2.75</ele>
        <time>2015-10-10T16:01:45Z</time>
      </trkpt>
      <trkpt lat="47.7208" lon="-3.36568">
        <ele>-2.75</ele>
        <time>2015-10-10T16:01:46Z</time>
      </trkpt>
      <trkpt lat="47.72082" lon="-3.36566">
        <ele>-2.75</ele>
        <time>2015-10-10T16:01:47Z</time>
      </trkpt>
      <trkpt lat="47.72085" lon="-3.36565">
        <ele>-2.75</ele>
        <time>2015-10-10T16:01:48Z</time>
      </trkpt>
      <trkpt lat="47.72087" lon="-3.36565">
        <ele>-2.75</ele>
        <time>2015-10-10T16:01:49Z</time>
      </trkpt>
      <trkpt lat="47.7209" lon="-3.36565">
        <ele>-2.75</ele>
        <time>2015-10-10T16:01:50Z</time>
      </trkpt>
      <trkpt lat="47.72092" lon="-3.36564">
        <ele>-2.75</ele>
        <time>2015-10-10T16:01:51Z</time>
      </trkpt>
      <trkpt lat="47.72095" lon="-3.36564">
        <ele>-0.82</ele>
        <time>2015-10-10T16:01:52Z</time>
      </trkpt>
      <trkpt lat="47.72097" lon="-3.36564">
        <ele>-0.34</ele>
        <time>2015-10-10T16:01:53Z</time>
      </trkpt>
      <trkpt lat="47.721" lon="-3.36563">
        <ele>0.14</ele>
        <time>2015-10-10T16:01:54Z</time>
      </trkpt>
      <trkpt lat="47.72102" lon="-3.36562">
        <ele>0.14</ele>
        <time>2015-10-10T16:01:55Z</time>
      </trkpt>
      <trkpt lat="47.72104" lon="-3.36562">
        <ele>0.14</ele>
        <time>2015-10-10T16:01:56Z</time>
      </trkpt>
      <trkpt lat="47.72107" lon="-3.36561">
        <ele>0.14</ele>
        <time>2015-10-10T16:01:57Z</time>
      </trkpt>
      <trkpt lat="47.72109" lon="-3.3656">
        <ele>0.14</ele>
        <time>2015-10-10T16:01:58Z</time>
      </trkpt>
      <trkpt lat="47.72111" lon="-3.3656">
        <ele>0.14</ele>
        <time>2015-10-10T16:01:59Z</time>
      </trkpt>
      <trkpt lat="47.72114" lon="-3.3656">
        <ele>0.14</ele>
        <time>2015-10-10T16:02:00Z</time>
      </trkpt>
      <trkpt lat="47.72116" lon="-3.36559">
        <ele>0.14</ele>
        <time>2015-10-10T16:02:01Z</time>
      </trkpt>
      <trkpt lat="47.72118" lon="-3.36559">
        <ele>0.14</ele>
        <time>2015-10-10T16:02:02Z</time>
      </trkpt>
      <trkpt lat="47.72121" lon="-3.36558">
        <ele>0.14</ele>
        <time>2015-10-10T16:02:03Z</time>
      </trkpt>
      <trkpt lat="47.72123" lon="-3.36558">
        <ele>0.14</ele>
        <time>2015-10-10T16:02:04Z</time>
      </trkpt>
      <trkpt lat="47.72125" lon="-3.36557">
        <ele>0.14</ele>
        <time>2015-10-10T16:02:05Z</time>
      </trkpt>
      <trkpt lat="47.72127" lon="-3.36557">
        <ele>0.14</ele>
        <time>2015-10-10T16:02:06Z</time>
      </trkpt>
      <trkpt lat="47.7213" lon="-3.36556">
        <ele>0.14</ele>
        <time>2015-10-10T16:02:07Z</time>
      </trkpt>
      <trkpt lat="47.72132" lon="-3.36555">
        <ele>0.14</ele>
        <time>2015-10-10T16:02:08Z</time>
      </trkpt>
      <trkpt lat="47.72134" lon="-3.36555">
        <ele>0.14</ele>
        <time>2015-10-10T16:02:09Z</time>
      </trkpt>
      <trkpt lat="47.72136" lon="-3.36554">
        <ele>0.14</ele>
        <time>2015-10-10T16:02:10Z</time>
      </trkpt>
      <trkpt lat="47.72139" lon="-3.36554">
        <ele>0.14</ele>
        <time>2015-10-10T16:02:11Z</time>
      </trkpt>
      <trkpt lat="47.72141" lon="-3.36554">
        <ele>0.14</ele>
        <time>2015-10-10T16:02:12Z</time>
      </trkpt>
      <trkpt lat="47.72144" lon="-3.36554">
        <ele>0.14</ele>
        <time>2015-10-10T16:02:13Z</time>
      </trkpt>
      <trkpt lat="47.72146" lon="-3.36555">
        <ele>0.14</ele>
        <time>2015-10-10T16:02:14Z</time>
      </trkpt>
      <trkpt lat="47.72148" lon="-3.36556">
        <ele>0.14</ele>
        <time>2015-10-10T16:02:15Z</time>
      </trkpt>
      <trkpt lat="47.7215" lon="-3.36557">
        <ele>0.14</ele>
        <time>2015-10-10T16:02:16Z</time>
      </trkpt>
      <trkpt lat="47.72152" lon="-3.36557">
        <ele>0.14</ele>
        <time>2015-10-10T16:02:17Z</time>
      </trkpt>
      <trkpt lat="47.72154" lon="-3.36556">
        <ele>0.14</ele>
        <time>2015-10-10T16:02:18Z</time>
      </trkpt>
      <trkpt lat="47.72156" lon="-3.36555">
        <ele>0.14</ele>
        <time>2015-10-10T16:02:19Z</time>
      </trkpt>
      <trkpt lat="47.72158" lon="-3.36554">
        <ele>0.14</ele>
        <time>2015-10-10T16:02:20Z</time>
      </trkpt>
      <trkpt lat="47.7216" lon="-3.36554">
        <ele>0.14</ele>
        <time>2015-10-10T16:02:21Z</time>
      </trkpt>
      <trkpt lat="47.72163" lon="-3.36552">
        <ele>0.14</ele>
        <time>2015-10-10T16:02:22Z</time>
      </trkpt>
      <trkpt lat="47.72165" lon="-3.36551">
        <ele>-0.82</ele>
        <time>2015-10-10T16:02:23Z</time>
      </trkpt>
      <trkpt lat="47.72167" lon="-3.36551">
        <ele>-1.79</ele>
        <time>2015-10-10T16:02:24Z</time>
      </trkpt>
      <trkpt lat="47.72169" lon="-3.3655">
        <ele>-1.79</ele>
        <time>2015-10-10T16:02:25Z</time>
      </trkpt>
      <trkpt lat="47.72171" lon="-3.36549">
        <ele>-1.79</ele>
        <time>2015-10-10T16:02:26Z</time>
      </trkpt>
      <trkpt lat="47.72173" lon="-3.36548">
        <ele>-1.79</ele>
        <time>2015-10-10T16:02:27Z</time>
      </trkpt>
      <trkpt lat="47.72175" lon="-3.36546">
        <ele>-2.27</ele>
        <time>2015-10-10T16:02:28Z</time>
      </trkpt>
      <trkpt lat="47.72177" lon="-3.36545">
        <ele>-0.82</ele>
        <time>2015-10-10T16:02:29Z</time>
      </trkpt>
      <trkpt lat="47.72179" lon="-3.36544">
        <ele>-0.82</ele>
        <time>2015-10-10T16:02:30Z</time>
      </trkpt>
      <trkpt lat="47.72181" lon="-3.36542">
        <ele>-0.82</ele>
        <time>2015-10-10T16:02:31Z</time>
      </trkpt>
      <trkpt lat="47.72182" lon="-3.36541">
        <ele>-0.34</ele>
        <time>2015-10-10T16:02:32Z</time>
      </trkpt>
      <trkpt lat="47.72184" lon="-3.3654">
        <ele>-0.34</ele>
        <time>2015-10-10T16:02:33Z</time>
      </trkpt>
      <trkpt lat="47.72186" lon="-3.36539">
        <ele>-0.34</ele>
        <time>2015-10-10T16:02:34Z</time>
      </trkpt>
      <trkpt lat="47.72188" lon="-3.36538">
        <ele>-0.34</ele>
        <time>2015-10-10T16:02:35Z</time>
      </trkpt>
      <trkpt lat="47.7219" lon="-3.36537">
        <ele>-0.34</ele>
        <time>2015-10-10T16:02:36Z</time>
      </trkpt>
      <trkpt lat="47.72192" lon="-3.36537">
        <ele>-0.34</ele>
        <time>2015-10-10T16:02:37Z</time>
      </trkpt>
      <trkpt lat="47.72194" lon="-3.36536">
        <ele>0.14</ele>
        <time>2015-10-10T16:02:38Z</time>
      </trkpt>
      <trkpt lat="47.72196" lon="-3.36535">
        <ele>0.62</ele>
        <time>2015-10-10T16:02:39Z</time>
      </trkpt>
      <trkpt lat="47.72199" lon="-3.36533">
        <ele>0.14</ele>
        <time>2015-10-10T16:02:40Z</time>
      </trkpt>
      <trkpt lat="47.72201" lon="-3.36532">
        <ele>0.14</ele>
        <time>2015-10-10T16:02:41Z</time>
      </trkpt>
      <trkpt lat="47.72203" lon="-3.36531">
        <ele>0.14</ele>
        <time>2015-10-10T16:02:42Z</time>
      </trkpt>
      <trkpt lat="47.72205" lon="-3.3653">
        <ele>0.62</ele>
        <time>2015-10-10T16:02:43Z</time>
      </trkpt>
      <trkpt lat="47.72207" lon="-3.3653">
        <ele>0.14</ele>
        <time>2015-10-10T16:02:44Z</time>
      </trkpt>
      <trkpt lat="47.72209" lon="-3.36529">
        <ele>0.62</ele>
        <time>2015-10-10T16:02:45Z</time>
      </trkpt>
      <trkpt lat="47.72211" lon="-3.36528">
        <ele>0.62</ele>
        <time>2015-10-10T16:02:46Z</time>
      </trkpt>
      <trkpt lat="47.72213" lon="-3.36527">
        <ele>1.1</ele>
        <time>2015-10-10T16:02:47Z</time>
      </trkpt>
      <trkpt lat="47.72215" lon="-3.36526">
        <ele>1.1</ele>
        <time>2015-10-10T16:02:48Z</time>
      </trkpt>
      <trkpt lat="47.72216" lon="-3.36525">
        <ele>1.1</ele>
        <time>2015-10-10T16:02:49Z</time>
      </trkpt>
      <trkpt lat="47.72218" lon="-3.36524">
        <ele>1.1</ele>
        <time>2015-10-10T16:02:50Z</time>
      </trkpt>
      <trkpt lat="47.7222" lon="-3.36523">
        <ele>1.1</ele>
        <time>2015-10-10T16:02:51Z</time>
      </trkpt>
      <trkpt lat="47.72222" lon="-3.36522">
        <ele>1.1</ele>
        <time>2015-10-10T16:02:52Z</time>
      </trkpt>
      <trkpt lat="47.72223" lon="-3.36521">
        <ele>1.1</ele>
        <time>2015-10-10T16:02:53Z</time>
      </trkpt>
      <trkpt lat="47.72225" lon="-3.36519">
        <ele>1.1</ele>
        <time>2015-10-10T16:02:54Z</time>
      </trkpt>
      <trkpt lat="47.72226" lon="-3.36518">
        <ele>1.1</ele>
        <time>2015-10-10T16:02:55Z</time>
      </trkpt>
      <trkpt lat="47.72227" lon="-3.36517">
        <ele>1.1</ele>
        <time>2015-10-10T16:02:56Z</time>
      </trkpt>
      <trkpt lat="47.72229" lon="-3.36516">
        <ele>1.1</ele>
        <time>2015-10-10T16:02:57Z</time>
      </trkpt>
      <trkpt lat="47.7223" lon="-3.36515">
        <ele>1.1</ele>
        <time>2015-10-10T16:02:58Z</time>
      </trkpt>
      <trkpt lat="47.72232" lon="-3.36514">
        <ele>1.1</ele>
        <time>2015-10-10T16:02:59Z</time>
      </trkpt>
      <trkpt lat="47.72233" lon="-3.36514">
        <ele>-0.82</ele>
        <time>2015-10-10T16:03:00Z</time>
      </trkpt>
      <trkpt lat="47.72235" lon="-3.36513">
        <ele>-0.82</ele>
        <time>2015-10-10T16:03:01Z</time>
      </trkpt>
      <trkpt lat="47.72236" lon="-3.36513">
        <ele>-0.82</ele>
        <time>2015-10-10T16:03:02Z</time>
      </trkpt>
      <trkpt lat="47.72237" lon="-3.36512">
        <ele>-0.82</ele>
        <time>2015-10-10T16:03:03Z</time>
      </trkpt>
      <trkpt lat="47.72238" lon="-3.36512">
        <ele>-0.82</ele>
        <time>2015-10-10T16:03:04Z</time>
      </trkpt>
      <trkpt lat="47.72239" lon="-3.36511">
        <ele>-0.82</ele>
        <time>2015-10-10T16:03:05Z</time>
      </trkpt>
      <trkpt lat="47.7224" lon="-3.3651">
        <ele>-0.82</ele>
        <time>2015-10-10T16:03:06Z</time>
      </trkpt>
      <trkpt lat="47.7224" lon="-3.36509">
        <ele>-0.82</ele>
        <time>2015-10-10T16:03:07Z</time>
      </trkpt>
      <trkpt lat="47.72241" lon="-3.36508">
        <ele>0.62</ele>
        <time>2015-10-10T16:03:08Z</time>
      </trkpt>
      <trkpt lat="47.72242" lon="-3.36507">
        <ele>0.62</ele>
        <time>2015-10-10T16:03:09Z</time>
      </trkpt>
      <trkpt lat="47.72243" lon="-3.36507">
        <ele>0.62</ele>
        <time>2015-10-10T16:03:10Z</time>
      </trkpt>
      <trkpt lat="47.72244" lon="-3.36506">
        <ele>0.62</ele>
        <time>2015-10-10T16:03:11Z</time>
      </trkpt>
      <trkpt lat="47.72245" lon="-3.36506">
        <ele>0.62</ele>
        <time>2015-10-10T16:03:12Z</time>
      </trkpt>
      <trkpt lat="47.72246" lon="-3.36506">
        <ele>0.62</ele>
        <time>2015-10-10T16:03:13Z</time>
      </trkpt>
      <trkpt lat="47.72247" lon="-3.36506">
        <ele>-1.3</ele>
        <time>2015-10-10T16:03:14Z</time>
      </trkpt>
      <trkpt lat="47.72248" lon="-3.36506">
        <ele>-1.3</ele>
        <time>2015-10-10T16:03:15Z</time>
      </trkpt>
      <trkpt lat="47.72249" lon="-3.36506">
        <ele>-1.3</ele>
        <time>2015-10-10T16:03:16Z</time>
      </trkpt>
      <trkpt lat="47.7225" lon="-3.36507">
        <ele>-1.3</ele>
        <time>2015-10-10T16:03:17Z</time>
      </trkpt>
      <trkpt lat="47.72251" lon="-3.36507">
        <ele>-1.3</ele>
        <time>2015-10-10T16:03:18Z</time>
      </trkpt>
      <trkpt lat="47.72252" lon="-3.36508">
        <ele>-1.3</ele>
        <time>2015-10-10T16:03:19Z</time>
      </trkpt>
      <trkpt lat="47.72253" lon="-3.36508">
        <ele>-1.3</ele>
        <time>2015-10-10T16:03:20Z</time>
      </trkpt>
      <trkpt lat="47.72254" lon="-3.36509">
        <ele>-1.3</ele>
        <time>2015-10-10T16:03:21Z</time>
      </trkpt>
      <trkpt lat="47.72255" lon="-3.3651">
        <ele>-1.3</ele>
        <time>2015-10-10T16:03:22Z</time>
      </trkpt>
      <trkpt lat="47.72256" lon="-3.36511">
        <ele>-1.3</ele>
        <time>2015-10-10T16:03:23Z</time>
      </trkpt>
      <trkpt lat="47.72257" lon="-3.36511">
        <ele>-1.3</ele>
        <time>2015-10-10T16:03:24Z</time>
      </trkpt>
      <trkpt lat="47.72258" lon="-3.36512">
        <ele>-1.3</ele>
        <time>2015-10-10T16:03:25Z</time>
      </trkpt>
      <trkpt lat="47.7226" lon="-3.36513">
        <ele>-1.3</ele>
        <time>2015-10-10T16:03:26Z</time>
      </trkpt>
      <trkpt lat="47.72261" lon="-3.36513">
        <ele>-2.27</ele>
        <time>2015-10-10T16:03:27Z</time>
      </trkpt>
      <trkpt lat="47.72262" lon="-3.36514">
        <ele>-1.3</ele>
        <time>2015-10-10T16:03:28Z</time>
      </trkpt>
      <trkpt lat="47.72263" lon="-3.36515">
        <ele>-1.3</ele>
        <time>2015-10-10T16:03:29Z</time>
      </trkpt>
      <trkpt lat="47.72264" lon="-3.36516">
        <ele>-1.3</ele>
        <time>2015-10-10T16:03:30Z</time>
      </trkpt>
      <trkpt lat="47.72265" lon="-3.36518">
        <ele>-1.3</ele>
        <time>2015-10-10T16:03:31Z</time>
      </trkpt>
      <trkpt lat="47.72266" lon="-3.36519">
        <ele>-1.3</ele>
        <time>2015-10-10T16:03:32Z</time>
      </trkpt>
      <trkpt lat="47.72266" lon="-3.36521">
        <ele>-1.3</ele>
        <time>2015-10-10T16:03:33Z</time>
      </trkpt>
      <trkpt lat="47.72267" lon="-3.36522">
        <ele>-1.3</ele>
        <time>2015-10-10T16:03:34Z</time>
      </trkpt>
      <trkpt lat="47.72268" lon="-3.36523">
        <ele>-1.3</ele>
        <time>2015-10-10T16:03:35Z</time>
      </trkpt>
      <trkpt lat="47.72269" lon="-3.36524">
        <ele>-1.3</ele>
        <time>2015-10-10T16:03:36Z</time>
      </trkpt>
      <trkpt lat="47.72269" lon="-3.36526">
        <ele>-1.3</ele>
        <time>2015-10-10T16:03:37Z</time>
      </trkpt>
      <trkpt lat="47.7227" lon="-3.36527">
        <ele>-1.3</ele>
        <time>2015-10-10T16:03:38Z</time>
      </trkpt>
      <trkpt lat="47.72271" lon="-3.36528">
        <ele>-1.3</ele>
        <time>2015-10-10T16:03:39Z</time>
      </trkpt>
      <trkpt lat="47.72272" lon="-3.3653">
        <ele>-1.3</ele>
        <time>2015-10-10T16:03:40Z</time>
      </trkpt>
      <trkpt lat="47.72272" lon="-3.36531">
        <ele>-1.3</ele>
        <time>2015-10-10T16:03:41Z</time>
      </trkpt>
      <trkpt lat="47.72273" lon="-3.36532">
        <ele>-1.3</ele>
        <time>2015-10-10T16:03:42Z</time>
      </trkpt>
      <trkpt lat="47.72274" lon="-3.36533">
        <ele>-1.3</ele>
        <time>2015-10-10T16:03:43Z</time>
      </trkpt>
      <trkpt lat="47.72274" lon="-3.36535">
        <ele>-1.3</ele>
        <time>2015-10-10T16:03:44Z</time>
      </trkpt>
      <trkpt lat="47.72275" lon="-3.36536">
        <ele>-1.3</ele>
        <time>2015-10-10T16:03:45Z</time>
      </trkpt>
      <trkpt lat="47.72276" lon="-3.36537">
        <ele>-1.3</ele>
        <time>2015-10-10T16:03:46Z</time>
      </trkpt>
      <trkpt lat="47.72276" lon="-3.36538">
        <ele>-1.3</ele>
        <time>2015-10-10T16:03:47Z</time>
      </trkpt>
      <trkpt lat="47.72277" lon="-3.3654">
        <ele>-1.3</ele>
        <time>2015-10-10T16:03:48Z</time>
      </trkpt>
      <trkpt lat="47.72278" lon="-3.36541">
        <ele>-1.3</ele>
        <time>2015-10-10T16:03:49Z</time>
      </trkpt>
      <trkpt lat="47.72278" lon="-3.36542">
        <ele>-1.3</ele>
        <time>2015-10-10T16:03:50Z</time>
      </trkpt>
      <trkpt lat="47.72279" lon="-3.36543">
        <ele>-1.3</ele>
        <time>2015-10-10T16:03:51Z</time>
      </trkpt>
      <trkpt lat="47.72279" lon="-3.36545">
        <ele>-1.3</ele>
        <time>2015-10-10T16:03:52Z</time>
      </trkpt>
      <trkpt lat="47.7228" lon="-3.36546">
        <ele>-1.3</ele>
        <time>2015-10-10T16:03:53Z</time>
      </trkpt>
      <trkpt lat="47.72281" lon="-3.36547">
        <ele>-1.3</ele>
        <time>2015-10-10T16:03:54Z</time>
      </trkpt>
      <trkpt lat="47.72281" lon="-3.36548">
        <ele>-1.3</ele>
        <time>2015-10-10T16:03:55Z</time>
      </trkpt>
      <trkpt lat="47.72282" lon="-3.36549">
        <ele>-1.3</ele>
        <time>2015-10-10T16:03:56Z</time>
      </trkpt>
      <trkpt lat="47.72282" lon="-3.36551">
        <ele>-1.3</ele>
        <time>2015-10-10T16:03:57Z</time>
      </trkpt>
      <trkpt lat="47.72283" lon="-3.36552">
        <ele>-1.3</ele>
        <time>2015-10-10T16:03:58Z</time>
      </trkpt>
      <trkpt lat="47.72284" lon="-3.36553">
        <ele>-1.3</ele>
        <time>2015-10-10T16:03:59Z</time>
      </trkpt>
      <trkpt lat="47.72284" lon="-3.36554">
        <ele>-1.3</ele>
        <time>2015-10-10T16:04:00Z</time>
      </trkpt>
      <trkpt lat="47.72285" lon="-3.36555">
        <ele>-1.3</ele>
        <time>2015-10-10T16:04:01Z</time>
      </trkpt>
      <trkpt lat="47.72286" lon="-3.36557">
        <ele>-1.3</ele>
        <time>2015-10-10T16:04:02Z</time>
      </trkpt>
      <trkpt lat="47.72286" lon="-3.36558">
        <ele>2.54</ele>
        <time>2015-10-10T16:04:03Z</time>
      </trkpt>
      <trkpt lat="47.72287" lon="-3.36559">
        <ele>-0.82</ele>
        <time>2015-10-10T16:04:04Z</time>
      </trkpt>
      <trkpt lat="47.72287" lon="-3.3656">
        <ele>-1.79</ele>
        <time>2015-10-10T16:04:05Z</time>
      </trkpt>
      <trkpt lat="47.72288" lon="-3.36562">
        <ele>2.06</ele>
        <time>2015-10-10T16:04:06Z</time>
      </trkpt>
      <trkpt lat="47.72289" lon="-3.36563">
        <ele>-0.82</ele>
        <time>2015-10-10T16:04:07Z</time>
      </trkpt>
      <trkpt lat="47.72289" lon="-3.36563">
        <ele>-0.82</ele>
        <time>2015-10-10T16:04:08Z</time>
      </trkpt>
      <trkpt lat="47.7229" lon="-3.36564">
        <ele>-0.82</ele>
        <time>2015-10-10T16:04:09Z</time>
      </trkpt>
      <trkpt lat="47.7229" lon="-3.36565">
        <ele>0.62</ele>
        <time>2015-10-10T16:04:10Z</time>
      </trkpt>
      <trkpt lat="47.72291" lon="-3.36566">
        <ele>0.62</ele>
        <time>2015-10-10T16:04:11Z</time>
      </trkpt>
      <trkpt lat="47.72292" lon="-3.36567">
        <ele>0.62</ele>
        <time>2015-10-10T16:04:12Z</time>
      </trkpt>
      <trkpt lat="47.72292" lon="-3.36568">
        <ele>0.62</ele>
        <time>2015-10-10T16:04:13Z</time>
      </trkpt>
      <trkpt lat="47.72293" lon="-3.3657">
        <ele>0.62</ele>
        <time>2015-10-10T16:04:14Z</time>
      </trkpt>
      <trkpt lat="47.72293" lon="-3.36571">
        <ele>0.62</ele>
        <time>2015-10-10T16:04:15Z</time>
      </trkpt>
      <trkpt lat="47.72294" lon="-3.36572">
        <ele>-4.67</ele>
        <time>2015-10-10T16:04:16Z</time>
      </trkpt>
      <trkpt lat="47.72295" lon="-3.36573">
        <ele>0.62</ele>
        <time>2015-10-10T16:04:17Z</time>
      </trkpt>
      <trkpt lat="47.72296" lon="-3.36574">
        <ele>3.98</ele>
        <time>2015-10-10T16:04:18Z</time>
      </trkpt>
      <trkpt lat="47.72297" lon="-3.36575">
        <ele>-0.82</ele>
        <time>2015-10-10T16:04:19Z</time>
      </trkpt>
      <trkpt lat="47.72297" lon="-3.36576">
        <ele>-9</ele>
        <time>2015-10-10T16:04:20Z</time>
      </trkpt>
      <trkpt lat="47.72298" lon="-3.36577">
        <ele>2.54</ele>
        <time>2015-10-10T16:04:21Z</time>
      </trkpt>
      <trkpt lat="47.72298" lon="-3.36578">
        <ele>5.42</ele>
        <time>2015-10-10T16:04:22Z</time>
      </trkpt>
      <trkpt lat="47.72299" lon="-3.3658">
        <ele>-0.34</ele>
        <time>2015-10-10T16:04:23Z</time>
      </trkpt>
      <trkpt lat="47.723" lon="-3.36581">
        <ele>-0.82</ele>
        <time>2015-10-10T16:04:24Z</time>
      </trkpt>
      <trkpt lat="47.72301" lon="-3.36582">
        <ele>-6.11</ele>
        <time>2015-10-10T16:04:25Z</time>
      </trkpt>
      <trkpt lat="47.72299" lon="-3.36581">
        <ele>-21.97</ele>
        <time>2015-10-10T16:04:26Z</time>
      </trkpt>
      <trkpt lat="47.72298" lon="-3.3658">
        <ele>-3.23</ele>
        <time>2015-10-10T16:04:27Z</time>
      </trkpt>
      <trkpt lat="47.72299" lon="-3.36582">
        <ele>9.75</ele>
        <time>2015-10-10T16:04:28Z</time>
      </trkpt>
      <trkpt lat="47.72299" lon="-3.36583">
        <ele>13.12</ele>
        <time>2015-10-10T16:04:29Z</time>
      </trkpt>
      <trkpt lat="47.72298" lon="-3.36585">
        <ele>3.02</ele>
        <time>2015-10-10T16:04:30Z</time>
      </trkpt>
      <trkpt lat="47.72298" lon="-3.36587">
        <ele>-0.34</ele>
        <time>2015-10-10T16:04:31Z</time>
      </trkpt>
      <trkpt lat="47.723" lon="-3.36589">
        <ele>-0.34</ele>
        <time>2015-10-10T16:04:32Z</time>
      </trkpt>
      <trkpt lat="47.72301" lon="-3.36591">
        <ele>-2.75</ele>
        <time>2015-10-10T16:04:33Z</time>
      </trkpt>
      <trkpt lat="47.72302" lon="-3.36593">
        <ele>-1.3</ele>
        <time>2015-10-10T16:04:34Z</time>
      </trkpt>
      <trkpt lat="47.72303" lon="-3.36594">
        <ele>2.06</ele>
        <time>2015-10-10T16:04:35Z</time>
      </trkpt>
      <trkpt lat="47.72304" lon="-3.36596">
        <ele>2.06</ele>
        <time>2015-10-10T16:04:36Z</time>
      </trkpt>
      <trkpt lat="47.72305" lon="-3.36598">
        <ele>-2.75</ele>
        <time>2015-10-10T16:04:37Z</time>
      </trkpt>
      <trkpt lat="47.72306" lon="-3.36599">
        <ele>-0.34</ele>
        <time>2015-10-10T16:04:38Z</time>
      </trkpt>
      <trkpt lat="47.72307" lon="-3.36601">
        <ele>-0.34</ele>
        <time>2015-10-10T16:04:39Z</time>
      </trkpt>
      <trkpt lat="47.72308" lon="-3.36602">
        <ele>-0.34</ele>
        <time>2015-10-10T16:04:40Z</time>
      </trkpt>
      <trkpt lat="47.72308" lon="-3.36604">
        <ele>2.06</ele>
        <time>2015-10-10T16:04:41Z</time>
      </trkpt>
      <trkpt lat="47.72309" lon="-3.36606">
        <ele>0.14</ele>
        <time>2015-10-10T16:04:42Z</time>
      </trkpt>
      <trkpt lat="47.7231" lon="-3.36607">
        <ele>-0.82</ele>
        <time>2015-10-10T16:04:43Z</time>
      </trkpt>
      <trkpt lat="47.7231" lon="-3.36609">
        <ele>-0.34</ele>
        <time>2015-10-10T16:04:44Z</time>
      </trkpt>
      <trkpt lat="47.7231" lon="-3.3661">
        <ele>-0.82</ele>
        <time>2015-10-10T16:04:45Z</time>
      </trkpt>
      <trkpt lat="47.72311" lon="-3.36611">
        <ele>-0.82</ele>
        <time>2015-10-10T16:04:46Z</time>
      </trkpt>
      <trkpt lat="47.72311" lon="-3.36612">
        <ele>-0.82</ele>
        <time>2015-10-10T16:04:47Z</time>
      </trkpt>
      <trkpt lat="47.72311" lon="-3.36614">
        <ele>-0.82</ele>
        <time>2015-10-10T16:04:48Z</time>
      </trkpt>
      <trkpt lat="47.72312" lon="-3.36615">
        <ele>-0.82</ele>
        <time>2015-10-10T16:04:49Z</time>
      </trkpt>
      <trkpt lat="47.72312" lon="-3.36616">
        <ele>-0.34</ele>
        <time>2015-10-10T16:04:50Z</time>
      </trkpt>
      <trkpt lat="47.72312" lon="-3.36617">
        <ele>-0.34</ele>
        <time>2015-10-10T16:04:51Z</time>
      </trkpt>
      <trkpt lat="47.72313" lon="-3.36618">
        <ele>-2.27</ele>
        <time>2015-10-10T16:04:52Z</time>
      </trkpt>
      <trkpt lat="47.72313" lon="-3.36619">
        <ele>0.14</ele>
        <time>2015-10-10T16:04:53Z</time>
      </trkpt>
      <trkpt lat="47.72314" lon="-3.36621">
        <ele>0.14</ele>
        <time>2015-10-10T16:04:54Z</time>
      </trkpt>
      <trkpt lat="47.72314" lon="-3.36622">
        <ele>0.14</ele>
        <time>2015-10-10T16:04:55Z</time>
      </trkpt>
      <trkpt lat="47.72315" lon="-3.36624">
        <ele>2.54</ele>
        <time>2015-10-10T16:04:56Z</time>
      </trkpt>
      <trkpt lat="47.72316" lon="-3.36625">
        <ele>-0.34</ele>
        <time>2015-10-10T16:04:57Z</time>
      </trkpt>
      <trkpt lat="47.72317" lon="-3.36626">
        <ele>-0.34</ele>
        <time>2015-10-10T16:04:58Z</time>
      </trkpt>
      <trkpt lat="47.72317" lon="-3.36626">
        <ele>-7.07</ele>
        <time>2015-10-10T16:04:59Z</time>
      </trkpt>
      <trkpt lat="47.72317" lon="-3.36626">
        <ele>5.42</ele>
        <time>2015-10-10T16:05:00Z</time>
      </trkpt>
      <trkpt lat="47.72318" lon="-3.36626">
        <ele>0.14</ele>
        <time>2015-10-10T16:05:01Z</time>
      </trkpt>
      <trkpt lat="47.72318" lon="-3.36626">
        <ele>-1.3</ele>
        <time>2015-10-10T16:05:02Z</time>
      </trkpt>
      <trkpt lat="47.72319" lon="-3.36626">
        <ele>-1.3</ele>
        <time>2015-10-10T16:05:03Z</time>
      </trkpt>
      <trkpt lat="47.72319" lon="-3.36627">
        <ele>0.14</ele>
        <time>2015-10-10T16:05:04Z</time>
      </trkpt>
      <trkpt lat="47.7232" lon="-3.36627">
        <ele>0.14</ele>
        <time>2015-10-10T16:05:05Z</time>
      </trkpt>
      <trkpt lat="47.7232" lon="-3.36627">
        <ele>0.14</ele>
        <time>2015-10-10T16:05:06Z</time>
      </trkpt>
      <trkpt lat="47.72321" lon="-3.36627">
        <ele>0.62</ele>
        <time>2015-10-10T16:05:07Z</time>
      </trkpt>
      <trkpt lat="47.72321" lon="-3.36627">
        <ele>0.14</ele>
        <time>2015-10-10T16:05:08Z</time>
      </trkpt>
      <trkpt lat="47.72322" lon="-3.36628">
        <ele>0.14</ele>
        <time>2015-10-10T16:05:09Z</time>
      </trkpt>
      <trkpt lat="47.72323" lon="-3.36628">
        <ele>-1.3</ele>
        <time>2015-10-10T16:05:10Z</time>
      </trkpt>
      <trkpt lat="47.72323" lon="-3.36629">
        <ele>-1.3</ele>
        <time>2015-10-10T16:05:11Z</time>
      </trkpt>
      <trkpt lat="47.72323" lon="-3.3663">
        <ele>-1.3</ele>
        <time>2015-10-10T16:05:12Z</time>
      </trkpt>
      <trkpt lat="47.72324" lon="-3.36631">
        <ele>-1.3</ele>
        <time>2015-10-10T16:05:13Z</time>
      </trkpt>
      <trkpt lat="47.72324" lon="-3.36631">
        <ele>-1.3</ele>
        <time>2015-10-10T16:05:14Z</time>
      </trkpt>
      <trkpt lat="47.72325" lon="-3.36632">
        <ele>-1.3</ele>
        <time>2015-10-10T16:05:15Z</time>
      </trkpt>
      <trkpt lat="47.72325" lon="-3.36633">
        <ele>-1.3</ele>
        <time>2015-10-10T16:05:16Z</time>
      </trkpt>
      <trkpt lat="47.72326" lon="-3.36634">
        <ele>-1.3</ele>
        <time>2015-10-10T16:05:17Z</time>
      </trkpt>
      <trkpt lat="47.72326" lon="-3.36635">
        <ele>-1.3</ele>
        <time>2015-10-10T16:05:18Z</time>
      </trkpt>
      <trkpt lat="47.72327" lon="-3.36635">
        <ele>-1.3</ele>
        <time>2015-10-10T16:05:19Z</time>
      </trkpt>
      <trkpt lat="47.72328" lon="-3.36636">
        <ele>-1.3</ele>
        <time>2015-10-10T16:05:20Z</time>
      </trkpt>
      <trkpt lat="47.72328" lon="-3.36637">
        <ele>-1.3</ele>
        <time>2015-10-10T16:05:21Z</time>
      </trkpt>
      <trkpt lat="47.72329" lon="-3.36638">
        <ele>-1.3</ele>
        <time>2015-10-10T16:05:22Z</time>
      </trkpt>
      <trkpt lat="47.72329" lon="-3.36638">
        <ele>-1.3</ele>
        <time>2015-10-10T16:05:23Z</time>
      </trkpt>
      <trkpt lat="47.7233" lon="-3.36639">
        <ele>-1.3</ele>
        <time>2015-10-10T16:05:24Z</time>
      </trkpt>
      <trkpt lat="47.7233" lon="-3.36639">
        <ele>-1.3</ele>
        <time>2015-10-10T16:05:25Z</time>
      </trkpt>
      <trkpt lat="47.72331" lon="-3.3664">
        <ele>-1.3</ele>
        <time>2015-10-10T16:05:26Z</time>
      </trkpt>
      <trkpt lat="47.72332" lon="-3.3664">
        <ele>-1.3</ele>
        <time>2015-10-10T16:05:27Z</time>
      </trkpt>
      <trkpt lat="47.72332" lon="-3.3664">
        <ele>-1.3</ele>
        <time>2015-10-10T16:05:28Z</time>
      </trkpt>
      <trkpt lat="47.72333" lon="-3.36641">
        <ele>-1.3</ele>
        <time>2015-10-10T16:05:29Z</time>
      </trkpt>
      <trkpt lat="47.72333" lon="-3.36641">
        <ele>-1.3</ele>
        <time>2015-10-10T16:05:30Z</time>
      </trkpt>
      <trkpt lat="47.72334" lon="-3.36641">
        <ele>-1.3</ele>
        <time>2015-10-10T16:05:31Z</time>
      </trkpt>
      <trkpt lat="47.72335" lon="-3.36642">
        <ele>-1.3</ele>
        <time>2015-10-10T16:05:32Z</time>
      </trkpt>
      <trkpt lat="47.72335" lon="-3.36642">
        <ele>1.1</ele>
        <time>2015-10-10T16:05:33Z</time>
      </trkpt>
      <trkpt lat="47.72336" lon="-3.36643">
        <ele>1.1</ele>
        <time>2015-10-10T16:05:34Z</time>
      </trkpt>
      <trkpt lat="47.72337" lon="-3.36643">
        <ele>-0.82</ele>
        <time>2015-10-10T16:05:35Z</time>
      </trkpt>
      <trkpt lat="47.72337" lon="-3.36643">
        <ele>-0.82</ele>
        <time>2015-10-10T16:05:36Z</time>
      </trkpt>
      <trkpt lat="47.72338" lon="-3.36644">
        <ele>-0.82</ele>
        <time>2015-10-10T16:05:37Z</time>
      </trkpt>
      <trkpt lat="47.72338" lon="-3.36644">
        <ele>-0.82</ele>
        <time>2015-10-10T16:05:38Z</time>
      </trkpt>
      <trkpt lat="47.72339" lon="-3.36644">
        <ele>-0.34</ele>
        <time>2015-10-10T16:05:39Z</time>
      </trkpt>
      <trkpt lat="47.72339" lon="-3.36644">
        <ele>-0.34</ele>
        <time>2015-10-10T16:05:40Z</time>
      </trkpt>
      <trkpt lat="47.7234" lon="-3.36644">
        <ele>-0.34</ele>
        <time>2015-10-10T16:05:41Z</time>
      </trkpt>
      <trkpt lat="47.72341" lon="-3.36645">
        <ele>-0.34</ele>
        <time>2015-10-10T16:05:42Z</time>
      </trkpt>
      <trkpt lat="47.72341" lon="-3.36645">
        <ele>-0.34</ele>
        <time>2015-10-10T16:05:43Z</time>
      </trkpt>
      <trkpt lat="47.72342" lon="-3.36645">
        <ele>-0.82</ele>
        <time>2015-10-10T16:05:44Z</time>
      </trkpt>
      <trkpt lat="47.72343" lon="-3.36645">
        <ele>-0.82</ele>
        <time>2015-10-10T16:05:45Z</time>
      </trkpt>
      <trkpt lat="47.72344" lon="-3.36645">
        <ele>-0.82</ele>
        <time>2015-10-10T16:05:46Z</time>
      </trkpt>
      <trkpt lat="47.72344" lon="-3.36646">
        <ele>-1.3</ele>
        <time>2015-10-10T16:05:47Z</time>
      </trkpt>
      <trkpt lat="47.72345" lon="-3.36645">
        <ele>-1.3</ele>
        <time>2015-10-10T16:05:48Z</time>
      </trkpt>
      <trkpt lat="47.72346" lon="-3.36645">
        <ele>-1.3</ele>
        <time>2015-10-10T16:05:49Z</time>
      </trkpt>
      <trkpt lat="47.72347" lon="-3.36645">
        <ele>-0.34</ele>
        <time>2015-10-10T16:05:50Z</time>
      </trkpt>
      <trkpt lat="47.72348" lon="-3.36645">
        <ele>-0.34</ele>
        <time>2015-10-10T16:05:51Z</time>
      </trkpt>
      <trkpt lat="47.72349" lon="-3.36645">
        <ele>-1.3</ele>
        <time>2015-10-10T16:05:52Z</time>
      </trkpt>
      <trkpt lat="47.7235" lon="-3.36645">
        <ele>-1.3</ele>
        <time>2015-10-10T16:05:53Z</time>
      </trkpt>
      <trkpt lat="47.72351" lon="-3.36645">
        <ele>-1.3</ele>
        <time>2015-10-10T16:05:54Z</time>
      </trkpt>
      <trkpt lat="47.72352" lon="-3.36645">
        <ele>-1.79</ele>
        <time>2015-10-10T16:05:55Z</time>
      </trkpt>
      <trkpt lat="47.72353" lon="-3.36645">
        <ele>-1.79</ele>
        <time>2015-10-10T16:05:56Z</time>
      </trkpt>
      <trkpt lat="47.72354" lon="-3.36645">
        <ele>-1.79</ele>
        <time>2015-10-10T16:05:57Z</time>
      </trkpt>
      <trkpt lat="47.72355" lon="-3.36645">
        <ele>-1.79</ele>
        <time>2015-10-10T16:05:58Z</time>
      </trkpt>
      <trkpt lat="47.72356" lon="-3.36644">
        <ele>-1.79</ele>
        <time>2015-10-10T16:05:59Z</time>
      </trkpt>
      <trkpt lat="47.72357" lon="-3.36644">
        <ele>-1.79</ele>
        <time>2015-10-10T16:06:00Z</time>
      </trkpt>
      <trkpt lat="47.72358" lon="-3.36644">
        <ele>-1.79</ele>
        <time>2015-10-10T16:06:01Z</time>
      </trkpt>
      <trkpt lat="47.72359" lon="-3.36644">
        <ele>-1.79</ele>
        <time>2015-10-10T16:06:02Z</time>
      </trkpt>
      <trkpt lat="47.7236" lon="-3.36643">
        <ele>-1.79</ele>
        <time>2015-10-10T16:06:03Z</time>
      </trkpt>
      <trkpt lat="47.72361" lon="-3.36643">
        <ele>-1.79</ele>
        <time>2015-10-10T16:06:04Z</time>
      </trkpt>
      <trkpt lat="47.72362" lon="-3.36643">
        <ele>-1.79</ele>
        <time>2015-10-10T16:06:05Z</time>
      </trkpt>
      <trkpt lat="47.72363" lon="-3.36642">
        <ele>-1.79</ele>
        <time>2015-10-10T16:06:06Z</time>
      </trkpt>
      <trkpt lat="47.72364" lon="-3.36642">
        <ele>-1.79</ele>
        <time>2015-10-10T16:06:07Z</time>
      </trkpt>
      <trkpt lat="47.72365" lon="-3.36641">
        <ele>-1.79</ele>
        <time>2015-10-10T16:06:08Z</time>
      </trkpt>
      <trkpt lat="47.72366" lon="-3.36641">
        <ele>-1.79</ele>
        <time>2015-10-10T16:06:09Z</time>
      </trkpt>
      <trkpt lat="47.72367" lon="-3.36641">
        <ele>-1.79</ele>
        <time>2015-10-10T16:06:10Z</time>
      </trkpt>
      <trkpt lat="47.72368" lon="-3.36641">
        <ele>-1.79</ele>
        <time>2015-10-10T16:06:11Z</time>
      </trkpt>
      <trkpt lat="47.72368" lon="-3.3664">
        <ele>-1.79</ele>
        <time>2015-10-10T16:06:12Z</time>
      </trkpt>
      <trkpt lat="47.72369" lon="-3.3664">
        <ele>-1.79</ele>
        <time>2015-10-10T16:06:13Z</time>
      </trkpt>
      <trkpt lat="47.7237" lon="-3.36639">
        <ele>-0.82</ele>
        <time>2015-10-10T16:06:14Z</time>
      </trkpt>
      <trkpt lat="47.72371" lon="-3.36639">
        <ele>-0.82</ele>
        <time>2015-10-10T16:06:15Z</time>
      </trkpt>
      <trkpt lat="47.72372" lon="-3.36638">
        <ele>-0.82</ele>
        <time>2015-10-10T16:06:16Z</time>
      </trkpt>
      <trkpt lat="47.72372" lon="-3.36638">
        <ele>-0.82</ele>
        <time>2015-10-10T16:06:17Z</time>
      </trkpt>
      <trkpt lat="47.72373" lon="-3.36638">
        <ele>-2.27</ele>
        <time>2015-10-10T16:06:18Z</time>
      </trkpt>
      <trkpt lat="47.72374" lon="-3.36638">
        <ele>-2.27</ele>
        <time>2015-10-10T16:06:19Z</time>
      </trkpt>
      <trkpt lat="47.72375" lon="-3.36637">
        <ele>-2.27</ele>
        <time>2015-10-10T16:06:20Z</time>
      </trkpt>
      <trkpt lat="47.72376" lon="-3.36637">
        <ele>-2.27</ele>
        <time>2015-10-10T16:06:21Z</time>
      </trkpt>
      <trkpt lat="47.72377" lon="-3.36637">
        <ele>-2.27</ele>
        <time>2015-10-10T16:06:22Z</time>
      </trkpt>
      <trkpt lat="47.72378" lon="-3.36637">
        <ele>-2.27</ele>
        <time>2015-10-10T16:06:23Z</time>
      </trkpt>
      <trkpt lat="47.72379" lon="-3.36637">
        <ele>-2.27</ele>
        <time>2015-10-10T16:06:24Z</time>
      </trkpt>
      <trkpt lat="47.72379" lon="-3.36638">
        <ele>-2.27</ele>
        <time>2015-10-10T16:06:25Z</time>
      </trkpt>
      <trkpt lat="47.7238" lon="-3.36638">
        <ele>-2.27</ele>
        <time>2015-10-10T16:06:26Z</time>
      </trkpt>
      <trkpt lat="47.72381" lon="-3.36638">
        <ele>-2.27</ele>
        <time>2015-10-10T16:06:27Z</time>
      </trkpt>
      <trkpt lat="47.72382" lon="-3.36638">
        <ele>-2.27</ele>
        <time>2015-10-10T16:06:28Z</time>
      </trkpt>
      <trkpt lat="47.72383" lon="-3.36639">
        <ele>-2.27</ele>
        <time>2015-10-10T16:06:29Z</time>
      </trkpt>
      <trkpt lat="47.72384" lon="-3.36639">
        <ele>-2.27</ele>
        <time>2015-10-10T16:06:30Z</time>
      </trkpt>
      <trkpt lat="47.72385" lon="-3.36639">
        <ele>-2.27</ele>
        <time>2015-10-10T16:06:31Z</time>
      </trkpt>
      <trkpt lat="47.72386" lon="-3.3664">
        <ele>-2.27</ele>
        <time>2015-10-10T16:06:32Z</time>
      </trkpt>
      <trkpt lat="47.72387" lon="-3.3664">
        <ele>-2.27</ele>
        <time>2015-10-10T16:06:33Z</time>
      </trkpt>
      <trkpt lat="47.72388" lon="-3.3664">
        <ele>-2.27</ele>
        <time>2015-10-10T16:06:34Z</time>
      </trkpt>
      <trkpt lat="47.72389" lon="-3.3664">
        <ele>-2.27</ele>
        <time>2015-10-10T16:06:35Z</time>
      </trkpt>
      <trkpt lat="47.7239" lon="-3.36641">
        <ele>-2.27</ele>
        <time>2015-10-10T16:06:36Z</time>
      </trkpt>
      <trkpt lat="47.72391" lon="-3.36641">
        <ele>-2.27</ele>
        <time>2015-10-10T16:06:37Z</time>
      </trkpt>
      <trkpt lat="47.72392" lon="-3.36641">
        <ele>-2.27</ele>
        <time>2015-10-10T16:06:38Z</time>
      </trkpt>
      <trkpt lat="47.72393" lon="-3.36641">
        <ele>-2.27</ele>
        <time>2015-10-10T16:06:39Z</time>
      </trkpt>
      <trkpt lat="47.72394" lon="-3.36642">
        <ele>-2.27</ele>
        <time>2015-10-10T16:06:40Z</time>
      </trkpt>
      <trkpt lat="47.72394" lon="-3.36642">
        <ele>-2.27</ele>
        <time>2015-10-10T16:06:41Z</time>
      </trkpt>
      <trkpt lat="47.72396" lon="-3.36642">
        <ele>-2.27</ele>
        <time>2015-10-10T16:06:42Z</time>
      </trkpt>
      <trkpt lat="47.72397" lon="-3.36642">
        <ele>-2.27</ele>
        <time>2015-10-10T16:06:43Z</time>
      </trkpt>
      <trkpt lat="47.72397" lon="-3.36642">
        <ele>-2.27</ele>
        <time>2015-10-10T16:06:44Z</time>
      </trkpt>
      <trkpt lat="47.72398" lon="-3.36642">
        <ele>-2.27</ele>
        <time>2015-10-10T16:06:45Z</time>
      </trkpt>
      <trkpt lat="47.72399" lon="-3.36642">
        <ele>-2.27</ele>
        <time>2015-10-10T16:06:46Z</time>
      </trkpt>
      <trkpt lat="47.724" lon="-3.36642">
        <ele>-1.79</ele>
        <time>2015-10-10T16:06:47Z</time>
      </trkpt>
      <trkpt lat="47.72401" lon="-3.36642">
        <ele>-1.79</ele>
        <time>2015-10-10T16:06:48Z</time>
      </trkpt>
      <trkpt lat="47.72402" lon="-3.36642">
        <ele>-1.79</ele>
        <time>2015-10-10T16:06:49Z</time>
      </trkpt>
      <trkpt lat="47.72403" lon="-3.36642">
        <ele>-1.79</ele>
        <time>2015-10-10T16:06:50Z</time>
      </trkpt>
      <trkpt lat="47.72404" lon="-3.36642">
        <ele>-0.82</ele>
        <time>2015-10-10T16:06:51Z</time>
      </trkpt>
      <trkpt lat="47.72404" lon="-3.36642">
        <ele>-0.82</ele>
        <time>2015-10-10T16:06:52Z</time>
      </trkpt>
      <trkpt lat="47.72405" lon="-3.36642">
        <ele>-0.82</ele>
        <time>2015-10-10T16:06:53Z</time>
      </trkpt>
      <trkpt lat="47.72406" lon="-3.36643">
        <ele>-0.82</ele>
        <time>2015-10-10T16:06:54Z</time>
      </trkpt>
      <trkpt lat="47.72407" lon="-3.36643">
        <ele>-0.82</ele>
        <time>2015-10-10T16:06:55Z</time>
      </trkpt>
      <trkpt lat="47.72408" lon="-3.36643">
        <ele>-0.34</ele>
        <time>2015-10-10T16:06:56Z</time>
      </trkpt>
      <trkpt lat="47.72409" lon="-3.36643">
        <ele>-0.34</ele>
        <time>2015-10-10T16:06:57Z</time>
      </trkpt>
      <trkpt lat="47.7241" lon="-3.36643">
        <ele>-0.34</ele>
        <time>2015-10-10T16:06:58Z</time>
      </trkpt>
      <trkpt lat="47.72411" lon="-3.36644">
        <ele>-0.34</ele>
        <time>2015-10-10T16:06:59Z</time>
      </trkpt>
      <trkpt lat="47.72412" lon="-3.36644">
        <ele>-0.34</ele>
        <time>2015-10-10T16:07:00Z</time>
      </trkpt>
      <trkpt lat="47.72412" lon="-3.36644">
        <ele>-1.79</ele>
        <time>2015-10-10T16:07:01Z</time>
      </trkpt>
      <trkpt lat="47.72413" lon="-3.36645">
        <ele>-1.3</ele>
        <time>2015-10-10T16:07:02Z</time>
      </trkpt>
      <trkpt lat="47.72414" lon="-3.36645">
        <ele>-1.79</ele>
        <time>2015-10-10T16:07:03Z</time>
      </trkpt>
      <trkpt lat="47.72415" lon="-3.36646">
        <ele>-1.79</ele>
        <time>2015-10-10T16:07:04Z</time>
      </trkpt>
      <trkpt lat="47.72416" lon="-3.36646">
        <ele>-1.79</ele>
        <time>2015-10-10T16:07:05Z</time>
      </trkpt>
      <trkpt lat="47.72417" lon="-3.36646">
        <ele>-1.79</ele>
        <time>2015-10-10T16:07:06Z</time>
      </trkpt>
      <trkpt lat="47.72418" lon="-3.36647">
        <ele>-1.79</ele>
        <time>2015-10-10T16:07:07Z</time>
      </trkpt>
      <trkpt lat="47.72418" lon="-3.36647">
        <ele>-1.79</ele>
        <time>2015-10-10T16:07:08Z</time>
      </trkpt>
      <trkpt lat="47.72419" lon="-3.36647">
        <ele>-1.79</ele>
        <time>2015-10-10T16:07:09Z</time>
      </trkpt>
      <trkpt lat="47.7242" lon="-3.36647">
        <ele>-1.79</ele>
        <time>2015-10-10T16:07:10Z</time>
      </trkpt>
      <trkpt lat="47.72421" lon="-3.36647">
        <ele>-1.79</ele>
        <time>2015-10-10T16:07:11Z</time>
      </trkpt>
      <trkpt lat="47.72422" lon="-3.36647">
        <ele>-1.79</ele>
        <time>2015-10-10T16:07:12Z</time>
      </trkpt>
      <trkpt lat="47.72422" lon="-3.36647">
        <ele>-1.79</ele>
        <time>2015-10-10T16:07:13Z</time>
      </trkpt>
      <trkpt lat="47.72423" lon="-3.36647">
        <ele>-0.34</ele>
        <time>2015-10-10T16:07:14Z</time>
      </trkpt>
      <trkpt lat="47.72424" lon="-3.36647">
        <ele>-0.34</ele>
        <time>2015-10-10T16:07:15Z</time>
      </trkpt>
      <trkpt lat="47.72424" lon="-3.36647">
        <ele>-0.34</ele>
        <time>2015-10-10T16:07:16Z</time>
      </trkpt>
      <trkpt lat="47.72425" lon="-3.36646">
        <ele>-0.34</ele>
        <time>2015-10-10T16:07:17Z</time>
      </trkpt>
      <trkpt lat="47.72426" lon="-3.36646">
        <ele>-0.34</ele>
        <time>2015-10-10T16:07:18Z</time>
      </trkpt>
      <trkpt lat="47.72426" lon="-3.36645">
        <ele>-0.34</ele>
        <time>2015-10-10T16:07:19Z</time>
      </trkpt>
      <trkpt lat="47.72427" lon="-3.36645">
        <ele>-0.34</ele>
        <time>2015-10-10T16:07:20Z</time>
      </trkpt>
      <trkpt lat="47.72427" lon="-3.36644">
        <ele>-0.34</ele>
        <time>2015-10-10T16:07:21Z</time>
      </trkpt>
      <trkpt lat="47.72428" lon="-3.36644">
        <ele>-0.34</ele>
        <time>2015-10-10T16:07:22Z</time>
      </trkpt>
      <trkpt lat="47.72428" lon="-3.36643">
        <ele>-0.34</ele>
        <time>2015-10-10T16:07:23Z</time>
      </trkpt>
      <trkpt lat="47.72429" lon="-3.36643">
        <ele>-0.34</ele>
        <time>2015-10-10T16:07:24Z</time>
      </trkpt>
      <trkpt lat="47.72429" lon="-3.36642">
        <ele>-0.34</ele>
        <time>2015-10-10T16:07:25Z</time>
      </trkpt>
      <trkpt lat="47.7243" lon="-3.36642">
        <ele>-0.34</ele>
        <time>2015-10-10T16:07:26Z</time>
      </trkpt>
      <trkpt lat="47.7243" lon="-3.36641">
        <ele>-0.34</ele>
        <time>2015-10-10T16:07:27Z</time>
      </trkpt>
      <trkpt lat="47.72431" lon="-3.36641">
        <ele>-0.34</ele>
        <time>2015-10-10T16:07:28Z</time>
      </trkpt>
      <trkpt lat="47.72431" lon="-3.3664">
        <ele>-0.34</ele>
        <time>2015-10-10T16:07:29Z</time>
      </trkpt>
      <trkpt lat="47.72431" lon="-3.36639">
        <ele>0.14</ele>
        <time>2015-10-10T16:07:30Z</time>
      </trkpt>
      <trkpt lat="47.72432" lon="-3.36639">
        <ele>0.14</ele>
        <time>2015-10-10T16:07:31Z</time>
      </trkpt>
      <trkpt lat="47.72432" lon="-3.36638">
        <ele>0.14</ele>
        <time>2015-10-10T16:07:32Z</time>
      </trkpt>
      <trkpt lat="47.72432" lon="-3.36637">
        <ele>-1.3</ele>
        <time>2015-10-10T16:07:33Z</time>
      </trkpt>
      <trkpt lat="47.72433" lon="-3.36637">
        <ele>-1.3</ele>
        <time>2015-10-10T16:07:34Z</time>
      </trkpt>
      <trkpt lat="47.72433" lon="-3.36636">
        <ele>-1.3</ele>
        <time>2015-10-10T16:07:35Z</time>
      </trkpt>
      <trkpt lat="47.72433" lon="-3.36636">
        <ele>-1.3</ele>
        <time>2015-10-10T16:07:36Z</time>
      </trkpt>
      <trkpt lat="47.72434" lon="-3.36636">
        <ele>-1.3</ele>
        <time>2015-10-10T16:07:37Z</time>
      </trkpt>
      <trkpt lat="47.72434" lon="-3.36635">
        <ele>-1.3</ele>
        <time>2015-10-10T16:07:38Z</time>
      </trkpt>
      <trkpt lat="47.72435" lon="-3.36635">
        <ele>-1.3</ele>
        <time>2015-10-10T16:07:39Z</time>
      </trkpt>
      <trkpt lat="47.72435" lon="-3.36634">
        <ele>-1.3</ele>
        <time>2015-10-10T16:07:40Z</time>
      </trkpt>
      <trkpt lat="47.72436" lon="-3.36634">
        <ele>-1.3</ele>
        <time>2015-10-10T16:07:41Z</time>
      </trkpt>
      <trkpt lat="47.72436" lon="-3.36634">
        <ele>-0.82</ele>
        <time>2015-10-10T16:07:42Z</time>
      </trkpt>
      <trkpt lat="47.72437" lon="-3.36634">
        <ele>-1.3</ele>
        <time>2015-10-10T16:07:43Z</time>
      </trkpt>
      <trkpt lat="47.72437" lon="-3.36633">
        <ele>-1.3</ele>
        <time>2015-10-10T16:07:44Z</time>
      </trkpt>
      <trkpt lat="47.72438" lon="-3.36633">
        <ele>-1.3</ele>
        <time>2015-10-10T16:07:45Z</time>
      </trkpt>
      <trkpt lat="47.72438" lon="-3.36633">
        <ele>-1.3</ele>
        <time>2015-10-10T16:07:46Z</time>
      </trkpt>
      <trkpt lat="47.72439" lon="-3.36633">
        <ele>-1.3</ele>
        <time>2015-10-10T16:07:47Z</time>
      </trkpt>
      <trkpt lat="47.72439" lon="-3.36633">
        <ele>-1.3</ele>
        <time>2015-10-10T16:07:48Z</time>
      </trkpt>
      <trkpt lat="47.7244" lon="-3.36633">
        <ele>-1.3</ele>
        <time>2015-10-10T16:07:49Z</time>
      </trkpt>
      <trkpt lat="47.7244" lon="-3.36632">
        <ele>-1.3</ele>
        <time>2015-10-10T16:07:50Z</time>
      </trkpt>
      <trkpt lat="47.72441" lon="-3.36632">
        <ele>-1.3</ele>
        <time>2015-10-10T16:07:51Z</time>
      </trkpt>
      <trkpt lat="47.72442" lon="-3.36632">
        <ele>-1.3</ele>
        <time>2015-10-10T16:07:52Z</time>
      </trkpt>
      <trkpt lat="47.72442" lon="-3.36632">
        <ele>-1.3</ele>
        <time>2015-10-10T16:07:53Z</time>
      </trkpt>
      <trkpt lat="47.72443" lon="-3.36632">
        <ele>-1.3</ele>
        <time>2015-10-10T16:07:54Z</time>
      </trkpt>
      <trkpt lat="47.72443" lon="-3.36632">
        <ele>-1.3</ele>
        <time>2015-10-10T16:07:55Z</time>
      </trkpt>
      <trkpt lat="47.72444" lon="-3.36631">
        <ele>-1.3</ele>
        <time>2015-10-10T16:07:56Z</time>
      </trkpt>
      <trkpt lat="47.72444" lon="-3.36631">
        <ele>-1.3</ele>
        <time>2015-10-10T16:07:57Z</time>
      </trkpt>
      <trkpt lat="47.72445" lon="-3.36632">
        <ele>-1.3</ele>
        <time>2015-10-10T16:07:58Z</time>
      </trkpt>
      <trkpt lat="47.72446" lon="-3.36632">
        <ele>-1.3</ele>
        <time>2015-10-10T16:07:59Z</time>
      </trkpt>
      <trkpt lat="47.72446" lon="-3.36632">
        <ele>-1.3</ele>
        <time>2015-10-10T16:08:00Z</time>
      </trkpt>
      <trkpt lat="47.72447" lon="-3.36632">
        <ele>-1.3</ele>
        <time>2015-10-10T16:08:01Z</time>
      </trkpt>
      <trkpt lat="47.72447" lon="-3.36631">
        <ele>-1.3</ele>
        <time>2015-10-10T16:08:02Z</time>
      </trkpt>
      <trkpt lat="47.72448" lon="-3.36631">
        <ele>-1.3</ele>
        <time>2015-10-10T16:08:03Z</time>
      </trkpt>
      <trkpt lat="47.72449" lon="-3.36631">
        <ele>-0.82</ele>
        <time>2015-10-10T16:08:04Z</time>
      </trkpt>
      <trkpt lat="47.72449" lon="-3.36631">
        <ele>-0.82</ele>
        <time>2015-10-10T16:08:05Z</time>
      </trkpt>
      <trkpt lat="47.7245" lon="-3.36631">
        <ele>-0.82</ele>
        <time>2015-10-10T16:08:06Z</time>
      </trkpt>
      <trkpt lat="47.72451" lon="-3.36631">
        <ele>-1.3</ele>
        <time>2015-10-10T16:08:07Z</time>
      </trkpt>
      <trkpt lat="47.72451" lon="-3.36631">
        <ele>-0.82</ele>
        <time>2015-10-10T16:08:08Z</time>
      </trkpt>
      <trkpt lat="47.72452" lon="-3.36631">
        <ele>-0.82</ele>
        <time>2015-10-10T16:08:09Z</time>
      </trkpt>
      <trkpt lat="47.72453" lon="-3.36631">
        <ele>-1.3</ele>
        <time>2015-10-10T16:08:10Z</time>
      </trkpt>
      <trkpt lat="47.72453" lon="-3.36631">
        <ele>-0.82</ele>
        <time>2015-10-10T16:08:11Z</time>
      </trkpt>
      <trkpt lat="47.72454" lon="-3.36631">
        <ele>-0.82</ele>
        <time>2015-10-10T16:08:12Z</time>
      </trkpt>
      <trkpt lat="47.72455" lon="-3.36631">
        <ele>-0.82</ele>
        <time>2015-10-10T16:08:13Z</time>
      </trkpt>
      <trkpt lat="47.72455" lon="-3.36631">
        <ele>-0.82</ele>
        <time>2015-10-10T16:08:14Z</time>
      </trkpt>
      <trkpt lat="47.72456" lon="-3.36631">
        <ele>-0.82</ele>
        <time>2015-10-10T16:08:15Z</time>
      </trkpt>
      <trkpt lat="47.72456" lon="-3.3663">
        <ele>-0.82</ele>
        <time>2015-10-10T16:08:16Z</time>
      </trkpt>
      <trkpt lat="47.72457" lon="-3.3663">
        <ele>-0.82</ele>
        <time>2015-10-10T16:08:17Z</time>
      </trkpt>
      <trkpt lat="47.72457" lon="-3.3663">
        <ele>-0.82</ele>
        <time>2015-10-10T16:08:18Z</time>
      </trkpt>
      <trkpt lat="47.72458" lon="-3.3663">
        <ele>-0.82</ele>
        <time>2015-10-10T16:08:19Z</time>
      </trkpt>
      <trkpt lat="47.72458" lon="-3.3663">
        <ele>-0.82</ele>
        <time>2015-10-10T16:08:20Z</time>
      </trkpt>
      <trkpt lat="47.72459" lon="-3.3663">
        <ele>-0.82</ele>
        <time>2015-10-10T16:08:21Z</time>
      </trkpt>
      <trkpt lat="47.72459" lon="-3.3663">
        <ele>-1.79</ele>
        <time>2015-10-10T16:08:22Z</time>
      </trkpt>
      <trkpt lat="47.7246" lon="-3.3663">
        <ele>-1.79</ele>
        <time>2015-10-10T16:08:23Z</time>
      </trkpt>
      <trkpt lat="47.7246" lon="-3.36629">
        <ele>-1.79</ele>
        <time>2015-10-10T16:08:24Z</time>
      </trkpt>
      <trkpt lat="47.72461" lon="-3.36629">
        <ele>-1.79</ele>
        <time>2015-10-10T16:08:25Z</time>
      </trkpt>
      <trkpt lat="47.72462" lon="-3.36629">
        <ele>-1.79</ele>
        <time>2015-10-10T16:08:26Z</time>
      </trkpt>
      <trkpt lat="47.72462" lon="-3.36629">
        <ele>-1.79</ele>
        <time>2015-10-10T16:08:27Z</time>
      </trkpt>
      <trkpt lat="47.72462" lon="-3.36628">
        <ele>-1.79</ele>
        <time>2015-10-10T16:08:28Z</time>
      </trkpt>
      <trkpt lat="47.72463" lon="-3.36628">
        <ele>-1.79</ele>
        <time>2015-10-10T16:08:29Z</time>
      </trkpt>
      <trkpt lat="47.72463" lon="-3.36628">
        <ele>-1.79</ele>
        <time>2015-10-10T16:08:30Z</time>
      </trkpt>
      <trkpt lat="47.72464" lon="-3.36627">
        <ele>-1.79</ele>
        <time>2015-10-10T16:08:31Z</time>
      </trkpt>
      <trkpt lat="47.72464" lon="-3.36627">
        <ele>-1.79</ele>
        <time>2015-10-10T16:08:32Z</time>
      </trkpt>
      <trkpt lat="47.72464" lon="-3.36627">
        <ele>-1.79</ele>
        <time>2015-10-10T16:08:33Z</time>
      </trkpt>
      <trkpt lat="47.72465" lon="-3.36626">
        <ele>-0.34</ele>
        <time>2015-10-10T16:08:34Z</time>
      </trkpt>
      <trkpt lat="47.72465" lon="-3.36626">
        <ele>-0.34</ele>
        <time>2015-10-10T16:08:35Z</time>
      </trkpt>
      <trkpt lat="47.72465" lon="-3.36625">
        <ele>-0.82</ele>
        <time>2015-10-10T16:08:36Z</time>
      </trkpt>
      <trkpt lat="47.72465" lon="-3.36625">
        <ele>-0.82</ele>
        <time>2015-10-10T16:08:37Z</time>
      </trkpt>
      <trkpt lat="47.72466" lon="-3.36624">
        <ele>-0.82</ele>
        <time>2015-10-10T16:08:38Z</time>
      </trkpt>
      <trkpt lat="47.72466" lon="-3.36623">
        <ele>-0.82</ele>
        <time>2015-10-10T16:08:39Z</time>
      </trkpt>
      <trkpt lat="47.72466" lon="-3.36623">
        <ele>-0.82</ele>
        <time>2015-10-10T16:08:40Z</time>
      </trkpt>
      <trkpt lat="47.72466" lon="-3.36622">
        <ele>-0.34</ele>
        <time>2015-10-10T16:08:41Z</time>
      </trkpt>
      <trkpt lat="47.72466" lon="-3.36622">
        <ele>-0.34</ele>
        <time>2015-10-10T16:08:42Z</time>
      </trkpt>
      <trkpt lat="47.72466" lon="-3.36621">
        <ele>-0.34</ele>
        <time>2015-10-10T16:08:43Z</time>
      </trkpt>
      <trkpt lat="47.72466" lon="-3.3662">
        <ele>-0.34</ele>
        <time>2015-10-10T16:08:44Z</time>
      </trkpt>
      <trkpt lat="47.72466" lon="-3.3662">
        <ele>-0.34</ele>
        <time>2015-10-10T16:08:45Z</time>
      </trkpt>
      <trkpt lat="47.72466" lon="-3.36619">
        <ele>-0.34</ele>
        <time>2015-10-10T16:08:46Z</time>
      </trkpt>
      <trkpt lat="47.72466" lon="-3.36618">
        <ele>-0.34</ele>
        <time>2015-10-10T16:08:47Z</time>
      </trkpt>
      <trkpt lat="47.72466" lon="-3.36618">
        <ele>-0.34</ele>
        <time>2015-10-10T16:08:48Z</time>
      </trkpt>
      <trkpt lat="47.72466" lon="-3.36617">
        <ele>-0.34</ele>
        <time>2015-10-10T16:08:49Z</time>
      </trkpt>
      <trkpt lat="47.72466" lon="-3.36617">
        <ele>0.14</ele>
        <time>2015-10-10T16:08:50Z</time>
      </trkpt>
      <trkpt lat="47.72466" lon="-3.36616">
        <ele>0.14</ele>
        <time>2015-10-10T16:08:51Z</time>
      </trkpt>
      <trkpt lat="47.72466" lon="-3.36616">
        <ele>0.14</ele>
        <time>2015-10-10T16:08:52Z</time>
      </trkpt>
      <trkpt lat="47.72466" lon="-3.36615">
        <ele>0.14</ele>
        <time>2015-10-10T16:08:53Z</time>
      </trkpt>
      <trkpt lat="47.72466" lon="-3.36614">
        <ele>0.14</ele>
        <time>2015-10-10T16:08:54Z</time>
      </trkpt>
      <trkpt lat="47.72466" lon="-3.36614">
        <ele>0.14</ele>
        <time>2015-10-10T16:08:55Z</time>
      </trkpt>
      <trkpt lat="47.72466" lon="-3.36613">
        <ele>0.14</ele>
        <time>2015-10-10T16:08:56Z</time>
      </trkpt>
      <trkpt lat="47.72466" lon="-3.36612">
        <ele>0.14</ele>
        <time>2015-10-10T16:08:57Z</time>
      </trkpt>
      <trkpt lat="47.72466" lon="-3.36612">
        <ele>0.14</ele>
        <time>2015-10-10T16:08:58Z</time>
      </trkpt>
      <trkpt lat="47.72466" lon="-3.36611">
        <ele>0.14</ele>
        <time>2015-10-10T16:08:59Z</time>
      </trkpt>
      <trkpt lat="47.72466" lon="-3.36611">
        <ele>0.14</ele>
        <time>2015-10-10T16:09:00Z</time>
      </trkpt>
      <trkpt lat="47.72466" lon="-3.3661">
        <ele>0.14</ele>
        <time>2015-10-10T16:09:01Z</time>
      </trkpt>
      <trkpt lat="47.72466" lon="-3.36609">
        <ele>0.14</ele>
        <time>2015-10-10T16:09:02Z</time>
      </trkpt>
      <trkpt lat="47.72466" lon="-3.36609">
        <ele>0.14</ele>
        <time>2015-10-10T16:09:03Z</time>
      </trkpt>
      <trkpt lat="47.72466" lon="-3.36608">
        <ele>0.14</ele>
        <time>2015-10-10T16:09:04Z</time>
      </trkpt>
      <trkpt lat="47.72465" lon="-3.36608">
        <ele>0.14</ele>
        <time>2015-10-10T16:09:05Z</time>
      </trkpt>
      <trkpt lat="47.72465" lon="-3.36607">
        <ele>0.14</ele>
        <time>2015-10-10T16:09:06Z</time>
      </trkpt>
      <trkpt lat="47.72465" lon="-3.36607">
        <ele>0.14</ele>
        <time>2015-10-10T16:09:07Z</time>
      </trkpt>
      <trkpt lat="47.72466" lon="-3.36606">
        <ele>0.14</ele>
        <time>2015-10-10T16:09:08Z</time>
      </trkpt>
      <trkpt lat="47.72465" lon="-3.36605">
        <ele>0.14</ele>
        <time>2015-10-10T16:09:09Z</time>
      </trkpt>
      <trkpt lat="47.72465" lon="-3.36605">
        <ele>0.14</ele>
        <time>2015-10-10T16:09:10Z</time>
      </trkpt>
      <trkpt lat="47.72465" lon="-3.36604">
        <ele>0.14</ele>
        <time>2015-10-10T16:09:11Z</time>
      </trkpt>
      <trkpt lat="47.72465" lon="-3.36604">
        <ele>0.14</ele>
        <time>2015-10-10T16:09:12Z</time>
      </trkpt>
      <trkpt lat="47.72465" lon="-3.36603">
        <ele>0.14</ele>
        <time>2015-10-10T16:09:13Z</time>
      </trkpt>
      <trkpt lat="47.72465" lon="-3.36602">
        <ele>0.14</ele>
        <time>2015-10-10T16:09:14Z</time>
      </trkpt>
      <trkpt lat="47.72464" lon="-3.36601">
        <ele>0.14</ele>
        <time>2015-10-10T16:09:15Z</time>
      </trkpt>
      <trkpt lat="47.72464" lon="-3.36601">
        <ele>0.14</ele>
        <time>2015-10-10T16:09:16Z</time>
      </trkpt>
      <trkpt lat="47.72464" lon="-3.366">
        <ele>0.14</ele>
        <time>2015-10-10T16:09:17Z</time>
      </trkpt>
      <trkpt lat="47.72464" lon="-3.36599">
        <ele>0.14</ele>
        <time>2015-10-10T16:09:18Z</time>
      </trkpt>
      <trkpt lat="47.72464" lon="-3.36599">
        <ele>0.14</ele>
        <time>2015-10-10T16:09:19Z</time>
      </trkpt>
      <trkpt lat="47.72464" lon="-3.36598">
        <ele>0.14</ele>
        <time>2015-10-10T16:09:20Z</time>
      </trkpt>
      <trkpt lat="47.72463" lon="-3.36597">
        <ele>0.14</ele>
        <time>2015-10-10T16:09:21Z</time>
      </trkpt>
      <trkpt lat="47.72463" lon="-3.36597">
        <ele>0.14</ele>
        <time>2015-10-10T16:09:22Z</time>
      </trkpt>
      <trkpt lat="47.72463" lon="-3.36596">
        <ele>0.14</ele>
        <time>2015-10-10T16:09:23Z</time>
      </trkpt>
      <trkpt lat="47.72463" lon="-3.36595">
        <ele>0.14</ele>
        <time>2015-10-10T16:09:24Z</time>
      </trkpt>
      <trkpt lat="47.72463" lon="-3.36595">
        <ele>0.14</ele>
        <time>2015-10-10T16:09:25Z</time>
      </trkpt>
      <trkpt lat="47.72463" lon="-3.36594">
        <ele>0.14</ele>
        <time>2015-10-10T16:09:26Z</time>
      </trkpt>
      <trkpt lat="47.72463" lon="-3.36594">
        <ele>0.14</ele>
        <time>2015-10-10T16:09:27Z</time>
      </trkpt>
      <trkpt lat="47.72462" lon="-3.36593">
        <ele>0.14</ele>
        <time>2015-10-10T16:09:28Z</time>
      </trkpt>
      <trkpt lat="47.72462" lon="-3.36592">
        <ele>0.14</ele>
        <time>2015-10-10T16:09:29Z</time>
      </trkpt>
      <trkpt lat="47.72462" lon="-3.36592">
        <ele>0.14</ele>
        <time>2015-10-10T16:09:30Z</time>
      </trkpt>
      <trkpt lat="47.72462" lon="-3.36591">
        <ele>0.14</ele>
        <time>2015-10-10T16:09:31Z</time>
      </trkpt>
      <trkpt lat="47.72462" lon="-3.3659">
        <ele>0.14</ele>
        <time>2015-10-10T16:09:32Z</time>
      </trkpt>
      <trkpt lat="47.72462" lon="-3.36589">
        <ele>0.14</ele>
        <time>2015-10-10T16:09:33Z</time>
      </trkpt>
      <trkpt lat="47.72462" lon="-3.36589">
        <ele>0.14</ele>
        <time>2015-10-10T16:09:34Z</time>
      </trkpt>
      <trkpt lat="47.72461" lon="-3.36588">
        <ele>0.14</ele>
        <time>2015-10-10T16:09:35Z</time>
      </trkpt>
      <trkpt lat="47.72461" lon="-3.36588">
        <ele>0.14</ele>
        <time>2015-10-10T16:09:36Z</time>
      </trkpt>
      <trkpt lat="47.72461" lon="-3.36587">
        <ele>0.14</ele>
        <time>2015-10-10T16:09:37Z</time>
      </trkpt>
      <trkpt lat="47.72461" lon="-3.36586">
        <ele>0.14</ele>
        <time>2015-10-10T16:09:38Z</time>
      </trkpt>
      <trkpt lat="47.72461" lon="-3.36586">
        <ele>0.14</ele>
        <time>2015-10-10T16:09:39Z</time>
      </trkpt>
      <trkpt lat="47.72461" lon="-3.36585">
        <ele>0.14</ele>
        <time>2015-10-10T16:09:40Z</time>
      </trkpt>
      <trkpt lat="47.72461" lon="-3.36584">
        <ele>0.14</ele>
        <time>2015-10-10T16:09:41Z</time>
      </trkpt>
      <trkpt lat="47.7246" lon="-3.36583">
        <ele>0.14</ele>
        <time>2015-10-10T16:09:42Z</time>
      </trkpt>
      <trkpt lat="47.7246" lon="-3.36583">
        <ele>0.14</ele>
        <time>2015-10-10T16:09:43Z</time>
      </trkpt>
      <trkpt lat="47.7246" lon="-3.36582">
        <ele>0.14</ele>
        <time>2015-10-10T16:09:44Z</time>
      </trkpt>
      <trkpt lat="47.7246" lon="-3.36581">
        <ele>0.14</ele>
        <time>2015-10-10T16:09:45Z</time>
      </trkpt>
      <trkpt lat="47.7246" lon="-3.36581">
        <ele>0.14</ele>
        <time>2015-10-10T16:09:46Z</time>
      </trkpt>
      <trkpt lat="47.7246" lon="-3.3658">
        <ele>0.14</ele>
        <time>2015-10-10T16:09:47Z</time>
      </trkpt>
      <trkpt lat="47.7246" lon="-3.36579">
        <ele>0.14</ele>
        <time>2015-10-10T16:09:48Z</time>
      </trkpt>
      <trkpt lat="47.7246" lon="-3.36579">
        <ele>0.14</ele>
        <time>2015-10-10T16:09:49Z</time>
      </trkpt>
      <trkpt lat="47.7246" lon="-3.36578">
        <ele>0.14</ele>
        <time>2015-10-10T16:09:50Z</time>
      </trkpt>
      <trkpt lat="47.7246" lon="-3.36577">
        <ele>0.14</ele>
        <time>2015-10-10T16:09:51Z</time>
      </trkpt>
      <trkpt lat="47.7246" lon="-3.36577">
        <ele>0.14</ele>
        <time>2015-10-10T16:09:52Z</time>
      </trkpt>
      <trkpt lat="47.7246" lon="-3.36576">
        <ele>0.14</ele>
        <time>2015-10-10T16:09:53Z</time>
      </trkpt>
      <trkpt lat="47.7246" lon="-3.36575">
        <ele>0.14</ele>
        <time>2015-10-10T16:09:54Z</time>
      </trkpt>
      <trkpt lat="47.7246" lon="-3.36574">
        <ele>0.14</ele>
        <time>2015-10-10T16:09:55Z</time>
      </trkpt>
      <trkpt lat="47.7246" lon="-3.36574">
        <ele>0.14</ele>
        <time>2015-10-10T16:09:56Z</time>
      </trkpt>
      <trkpt lat="47.7246" lon="-3.36573">
        <ele>0.14</ele>
        <time>2015-10-10T16:09:57Z</time>
      </trkpt>
      <trkpt lat="47.7246" lon="-3.36572">
        <ele>0.14</ele>
        <time>2015-10-10T16:09:58Z</time>
      </trkpt>
      <trkpt lat="47.72459" lon="-3.36571">
        <ele>0.14</ele>
        <time>2015-10-10T16:09:59Z</time>
      </trkpt>
      <trkpt lat="47.72459" lon="-3.36571">
        <ele>0.14</ele>
        <time>2015-10-10T16:10:00Z</time>
      </trkpt>
      <trkpt lat="47.72459" lon="-3.3657">
        <ele>0.14</ele>
        <time>2015-10-10T16:10:01Z</time>
      </trkpt>
      <trkpt lat="47.72459" lon="-3.3657">
        <ele>0.14</ele>
        <time>2015-10-10T16:10:02Z</time>
      </trkpt>
      <trkpt lat="47.72459" lon="-3.36569">
        <ele>0.14</ele>
        <time>2015-10-10T16:10:03Z</time>
      </trkpt>
      <trkpt lat="47.72459" lon="-3.36568">
        <ele>0.14</ele>
        <time>2015-10-10T16:10:04Z</time>
      </trkpt>
      <trkpt lat="47.72459" lon="-3.36568">
        <ele>0.14</ele>
        <time>2015-10-10T16:10:05Z</time>
      </trkpt>
      <trkpt lat="47.72459" lon="-3.36567">
        <ele>0.14</ele>
        <time>2015-10-10T16:10:06Z</time>
      </trkpt>
      <trkpt lat="47.72459" lon="-3.36567">
        <ele>0.14</ele>
        <time>2015-10-10T16:10:07Z</time>
      </trkpt>
      <trkpt lat="47.72459" lon="-3.36567">
        <ele>0.14</ele>
        <time>2015-10-10T16:10:08Z</time>
      </trkpt>
      <trkpt lat="47.72459" lon="-3.36566">
        <ele>0.14</ele>
        <time>2015-10-10T16:10:09Z</time>
      </trkpt>
      <trkpt lat="47.72459" lon="-3.36566">
        <ele>-1.3</ele>
        <time>2015-10-10T16:10:10Z</time>
      </trkpt>
      <trkpt lat="47.72459" lon="-3.36565">
        <ele>0.62</ele>
        <time>2015-10-10T16:10:11Z</time>
      </trkpt>
      <trkpt lat="47.72458" lon="-3.36565">
        <ele>-1.3</ele>
        <time>2015-10-10T16:10:12Z</time>
      </trkpt>
      <trkpt lat="47.72458" lon="-3.36564">
        <ele>0.62</ele>
        <time>2015-10-10T16:10:13Z</time>
      </trkpt>
      <trkpt lat="47.72458" lon="-3.36564">
        <ele>-1.3</ele>
        <time>2015-10-10T16:10:14Z</time>
      </trkpt>
      <trkpt lat="47.72458" lon="-3.36563">
        <ele>0.62</ele>
        <time>2015-10-10T16:10:15Z</time>
      </trkpt>
      <trkpt lat="47.72458" lon="-3.36563">
        <ele>0.62</ele>
        <time>2015-10-10T16:10:16Z</time>
      </trkpt>
      <trkpt lat="47.72458" lon="-3.36562">
        <ele>0.62</ele>
        <time>2015-10-10T16:10:17Z</time>
      </trkpt>
      <trkpt lat="47.72458" lon="-3.36562">
        <ele>0.62</ele>
        <time>2015-10-10T16:10:18Z</time>
      </trkpt>
      <trkpt lat="47.72458" lon="-3.36561">
        <ele>-6.11</ele>
        <time>2015-10-10T16:10:19Z</time>
      </trkpt>
      <trkpt lat="47.72458" lon="-3.3656">
        <ele>3.98</ele>
        <time>2015-10-10T16:10:20Z</time>
      </trkpt>
      <trkpt lat="47.72458" lon="-3.36559">
        <ele>0.14</ele>
        <time>2015-10-10T16:10:21Z</time>
      </trkpt>
      <trkpt lat="47.72457" lon="-3.36558">
        <ele>-2.75</ele>
        <time>2015-10-10T16:10:22Z</time>
      </trkpt>
      <trkpt lat="47.72457" lon="-3.36558">
        <ele>-3.23</ele>
        <time>2015-10-10T16:10:23Z</time>
      </trkpt>
      <trkpt lat="47.72457" lon="-3.36557">
        <ele>1.1</ele>
        <time>2015-10-10T16:10:24Z</time>
      </trkpt>
      <trkpt lat="47.72457" lon="-3.36556">
        <ele>1.1</ele>
        <time>2015-10-10T16:10:25Z</time>
      </trkpt>
      <trkpt lat="47.72456" lon="-3.36555">
        <ele>0.62</ele>
        <time>2015-10-10T16:10:26Z</time>
      </trkpt>
      <trkpt lat="47.72456" lon="-3.36555">
        <ele>-0.34</ele>
        <time>2015-10-10T16:10:27Z</time>
      </trkpt>
      <trkpt lat="47.72456" lon="-3.36554">
        <ele>-1.3</ele>
        <time>2015-10-10T16:10:28Z</time>
      </trkpt>
      <trkpt lat="47.72456" lon="-3.36553">
        <ele>-1.3</ele>
        <time>2015-10-10T16:10:29Z</time>
      </trkpt>
      <trkpt lat="47.72455" lon="-3.36552">
        <ele>1.58</ele>
        <time>2015-10-10T16:10:30Z</time>
      </trkpt>
      <trkpt lat="47.72455" lon="-3.36552">
        <ele>-0.34</ele>
        <time>2015-10-10T16:10:31Z</time>
      </trkpt>
      <trkpt lat="47.72455" lon="-3.36551">
        <ele>-0.34</ele>
        <time>2015-10-10T16:10:32Z</time>
      </trkpt>
      <trkpt lat="47.72455" lon="-3.3655">
        <ele>-3.71</ele>
        <time>2015-10-10T16:10:33Z</time>
      </trkpt>
      <trkpt lat="47.72454" lon="-3.36549">
        <ele>-1.3</ele>
        <time>2015-10-10T16:10:34Z</time>
      </trkpt>
      <trkpt lat="47.72454" lon="-3.36548">
        <ele>1.1</ele>
        <time>2015-10-10T16:10:35Z</time>
      </trkpt>
      <trkpt lat="47.72454" lon="-3.36547">
        <ele>1.1</ele>
        <time>2015-10-10T16:10:36Z</time>
      </trkpt>
      <trkpt lat="47.72454" lon="-3.36547">
        <ele>-0.34</ele>
        <time>2015-10-10T16:10:37Z</time>
      </trkpt>
      <trkpt lat="47.72454" lon="-3.36546">
        <ele>-0.34</ele>
        <time>2015-10-10T16:10:38Z</time>
      </trkpt>
      <trkpt lat="47.72454" lon="-3.36545">
        <ele>-1.79</ele>
        <time>2015-10-10T16:10:39Z</time>
      </trkpt>
      <trkpt lat="47.72454" lon="-3.36545">
        <ele>-1.79</ele>
        <time>2015-10-10T16:10:40Z</time>
      </trkpt>
      <trkpt lat="47.72453" lon="-3.36544">
        <ele>0.62</ele>
        <time>2015-10-10T16:10:41Z</time>
      </trkpt>
      <trkpt lat="47.72453" lon="-3.36544">
        <ele>0.62</ele>
        <time>2015-10-10T16:10:42Z</time>
      </trkpt>
      <trkpt lat="47.72453" lon="-3.36543">
        <ele>0.14</ele>
        <time>2015-10-10T16:10:43Z</time>
      </trkpt>
      <trkpt lat="47.72453" lon="-3.36543">
        <ele>0.14</ele>
        <time>2015-10-10T16:10:44Z</time>
      </trkpt>
      <trkpt lat="47.72452" lon="-3.36542">
        <ele>2.06</ele>
        <time>2015-10-10T16:10:45Z</time>
      </trkpt>
      <trkpt lat="47.72452" lon="-3.36542">
        <ele>0.62</ele>
        <time>2015-10-10T16:10:46Z</time>
      </trkpt>
      <trkpt lat="47.72452" lon="-3.36541">
        <ele>0.62</ele>
        <time>2015-10-10T16:10:47Z</time>
      </trkpt>
      <trkpt lat="47.72452" lon="-3.3654">
        <ele>0.62</ele>
        <time>2015-10-10T16:10:48Z</time>
      </trkpt>
      <trkpt lat="47.72451" lon="-3.36539">
        <ele>0.62</ele>
        <time>2015-10-10T16:10:49Z</time>
      </trkpt>
      <trkpt lat="47.72451" lon="-3.36539">
        <ele>0.62</ele>
        <time>2015-10-10T16:10:50Z</time>
      </trkpt>
      <trkpt lat="47.7245" lon="-3.36538">
        <ele>0.62</ele>
        <time>2015-10-10T16:10:51Z</time>
      </trkpt>
      <trkpt lat="47.7245" lon="-3.36537">
        <ele>0.62</ele>
        <time>2015-10-10T16:10:52Z</time>
      </trkpt>
      <trkpt lat="47.72449" lon="-3.36536">
        <ele>0.62</ele>
        <time>2015-10-10T16:10:53Z</time>
      </trkpt>
      <trkpt lat="47.72449" lon="-3.36536">
        <ele>0.62</ele>
        <time>2015-10-10T16:10:54Z</time>
      </trkpt>
      <trkpt lat="47.72448" lon="-3.36535">
        <ele>0.62</ele>
        <time>2015-10-10T16:10:55Z</time>
      </trkpt>
      <trkpt lat="47.72447" lon="-3.36534">
        <ele>0.62</ele>
        <time>2015-10-10T16:10:56Z</time>
      </trkpt>
      <trkpt lat="47.72447" lon="-3.36533">
        <ele>0.62</ele>
        <time>2015-10-10T16:10:57Z</time>
      </trkpt>
      <trkpt lat="47.72446" lon="-3.36532">
        <ele>-0.82</ele>
        <time>2015-10-10T16:10:58Z</time>
      </trkpt>
      <trkpt lat="47.72445" lon="-3.36532">
        <ele>1.58</ele>
        <time>2015-10-10T16:10:59Z</time>
      </trkpt>
      <trkpt lat="47.72445" lon="-3.36531">
        <ele>1.58</ele>
        <time>2015-10-10T16:11:00Z</time>
      </trkpt>
      <trkpt lat="47.72444" lon="-3.3653">
        <ele>-0.34</ele>
        <time>2015-10-10T16:11:01Z</time>
      </trkpt>
      <trkpt lat="47.72443" lon="-3.3653">
        <ele>-0.34</ele>
        <time>2015-10-10T16:11:02Z</time>
      </trkpt>
      <trkpt lat="47.72442" lon="-3.3653">
        <ele>0.62</ele>
        <time>2015-10-10T16:11:03Z</time>
      </trkpt>
      <trkpt lat="47.72442" lon="-3.36529">
        <ele>1.58</ele>
        <time>2015-10-10T16:11:04Z</time>
      </trkpt>
      <trkpt lat="47.72441" lon="-3.36528">
        <ele>0.62</ele>
        <time>2015-10-10T16:11:05Z</time>
      </trkpt>
      <trkpt lat="47.7244" lon="-3.36528">
        <ele>1.1</ele>
        <time>2015-10-10T16:11:06Z</time>
      </trkpt>
      <trkpt lat="47.72439" lon="-3.36527">
        <ele>0.14</ele>
        <time>2015-10-10T16:11:07Z</time>
      </trkpt>
      <trkpt lat="47.72438" lon="-3.36527">
        <ele>0.14</ele>
        <time>2015-10-10T16:11:08Z</time>
      </trkpt>
      <trkpt lat="47.72437" lon="-3.36527">
        <ele>0.14</ele>
        <time>2015-10-10T16:11:09Z</time>
      </trkpt>
      <trkpt lat="47.72436" lon="-3.36526">
        <ele>0.14</ele>
        <time>2015-10-10T16:11:10Z</time>
      </trkpt>
      <trkpt lat="47.72435" lon="-3.36526">
        <ele>0.14</ele>
        <time>2015-10-10T16:11:11Z</time>
      </trkpt>
      <trkpt lat="47.72434" lon="-3.36526">
        <ele>0.14</ele>
        <time>2015-10-10T16:11:12Z</time>
      </trkpt>
      <trkpt lat="47.72433" lon="-3.36525">
        <ele>0.14</ele>
        <time>2015-10-10T16:11:13Z</time>
      </trkpt>
      <trkpt lat="47.72432" lon="-3.36525">
        <ele>0.14</ele>
        <time>2015-10-10T16:11:14Z</time>
      </trkpt>
      <trkpt lat="47.72431" lon="-3.36525">
        <ele>0.14</ele>
        <time>2015-10-10T16:11:15Z</time>
      </trkpt>
      <trkpt lat="47.7243" lon="-3.36525">
        <ele>0.14</ele>
        <time>2015-10-10T16:11:16Z</time>
      </trkpt>
      <trkpt lat="47.72429" lon="-3.36524">
        <ele>-1.3</ele>
        <time>2015-10-10T16:11:17Z</time>
      </trkpt>
      <trkpt lat="47.72428" lon="-3.36524">
        <ele>0.14</ele>
        <time>2015-10-10T16:11:18Z</time>
      </trkpt>
      <trkpt lat="47.72427" lon="-3.36524">
        <ele>1.1</ele>
        <time>2015-10-10T16:11:19Z</time>
      </trkpt>
      <trkpt lat="47.72426" lon="-3.36524">
        <ele>-0.82</ele>
        <time>2015-10-10T16:11:20Z</time>
      </trkpt>
      <trkpt lat="47.72425" lon="-3.36523">
        <ele>-0.82</ele>
        <time>2015-10-10T16:11:21Z</time>
      </trkpt>
      <trkpt lat="47.72424" lon="-3.36523">
        <ele>-0.82</ele>
        <time>2015-10-10T16:11:22Z</time>
      </trkpt>
      <trkpt lat="47.72423" lon="-3.36523">
        <ele>-0.82</ele>
        <time>2015-10-10T16:11:23Z</time>
      </trkpt>
      <trkpt lat="47.72421" lon="-3.36523">
        <ele>-0.82</ele>
        <time>2015-10-10T16:11:24Z</time>
      </trkpt>
      <trkpt lat="47.7242" lon="-3.36523">
        <ele>0.62</ele>
        <time>2015-10-10T16:11:25Z</time>
      </trkpt>
      <trkpt lat="47.72419" lon="-3.36523">
        <ele>-0.34</ele>
        <time>2015-10-10T16:11:26Z</time>
      </trkpt>
      <trkpt lat="47.72418" lon="-3.36523">
        <ele>2.06</ele>
        <time>2015-10-10T16:11:27Z</time>
      </trkpt>
      <trkpt lat="47.72417" lon="-3.36523">
        <ele>2.06</ele>
        <time>2015-10-10T16:11:28Z</time>
      </trkpt>
      <trkpt lat="47.72416" lon="-3.36523">
        <ele>0.14</ele>
        <time>2015-10-10T16:11:29Z</time>
      </trkpt>
      <trkpt lat="47.72415" lon="-3.36523">
        <ele>0.14</ele>
        <time>2015-10-10T16:11:30Z</time>
      </trkpt>
      <trkpt lat="47.72414" lon="-3.36523">
        <ele>-0.34</ele>
        <time>2015-10-10T16:11:31Z</time>
      </trkpt>
      <trkpt lat="47.72413" lon="-3.36523">
        <ele>-0.34</ele>
        <time>2015-10-10T16:11:32Z</time>
      </trkpt>
      <trkpt lat="47.72412" lon="-3.36524">
        <ele>-0.34</ele>
        <time>2015-10-10T16:11:33Z</time>
      </trkpt>
      <trkpt lat="47.7241" lon="-3.36524">
        <ele>-0.34</ele>
        <time>2015-10-10T16:11:34Z</time>
      </trkpt>
      <trkpt lat="47.72409" lon="-3.36524">
        <ele>-0.34</ele>
        <time>2015-10-10T16:11:35Z</time>
      </trkpt>
      <trkpt lat="47.72408" lon="-3.36524">
        <ele>-0.34</ele>
        <time>2015-10-10T16:11:36Z</time>
      </trkpt>
      <trkpt lat="47.72407" lon="-3.36524">
        <ele>-0.34</ele>
        <time>2015-10-10T16:11:37Z</time>
      </trkpt>
      <trkpt lat="47.72405" lon="-3.36525">
        <ele>-0.34</ele>
        <time>2015-10-10T16:11:38Z</time>
      </trkpt>
      <trkpt lat="47.72404" lon="-3.36525">
        <ele>-0.34</ele>
        <time>2015-10-10T16:11:39Z</time>
      </trkpt>
      <trkpt lat="47.72403" lon="-3.36526">
        <ele>-0.82</ele>
        <time>2015-10-10T16:11:40Z</time>
      </trkpt>
      <trkpt lat="47.72402" lon="-3.36526">
        <ele>-0.82</ele>
        <time>2015-10-10T16:11:41Z</time>
      </trkpt>
      <trkpt lat="47.724" lon="-3.36527">
        <ele>-0.82</ele>
        <time>2015-10-10T16:11:42Z</time>
      </trkpt>
      <trkpt lat="47.72399" lon="-3.36527">
        <ele>-0.82</ele>
        <time>2015-10-10T16:11:43Z</time>
      </trkpt>
      <trkpt lat="47.72398" lon="-3.36527">
        <ele>-7.55</ele>
        <time>2015-10-10T16:11:44Z</time>
      </trkpt>
      <trkpt lat="47.72397" lon="-3.36527">
        <ele>3.02</ele>
        <time>2015-10-10T16:11:45Z</time>
      </trkpt>
      <trkpt lat="47.72396" lon="-3.36528">
        <ele>-3.23</ele>
        <time>2015-10-10T16:11:46Z</time>
      </trkpt>
      <trkpt lat="47.72395" lon="-3.36529">
        <ele>-0.34</ele>
        <time>2015-10-10T16:11:47Z</time>
      </trkpt>
      <trkpt lat="47.72393" lon="-3.36529">
        <ele>-0.34</ele>
        <time>2015-10-10T16:11:48Z</time>
      </trkpt>
      <trkpt lat="47.72392" lon="-3.3653">
        <ele>-0.34</ele>
        <time>2015-10-10T16:11:49Z</time>
      </trkpt>
      <trkpt lat="47.72391" lon="-3.3653">
        <ele>-0.34</ele>
        <time>2015-10-10T16:11:50Z</time>
      </trkpt>
      <trkpt lat="47.7239" lon="-3.36531">
        <ele>-1.79</ele>
        <time>2015-10-10T16:11:51Z</time>
      </trkpt>
      <trkpt lat="47.72389" lon="-3.36531">
        <ele>0.62</ele>
        <time>2015-10-10T16:11:52Z</time>
      </trkpt>
      <trkpt lat="47.72388" lon="-3.36531">
        <ele>-0.82</ele>
        <time>2015-10-10T16:11:53Z</time>
      </trkpt>
      <trkpt lat="47.72387" lon="-3.36532">
        <ele>-0.82</ele>
        <time>2015-10-10T16:11:54Z</time>
      </trkpt>
      <trkpt lat="47.72386" lon="-3.36533">
        <ele>-0.82</ele>
        <time>2015-10-10T16:11:55Z</time>
      </trkpt>
      <trkpt lat="47.72385" lon="-3.36534">
        <ele>-0.82</ele>
        <time>2015-10-10T16:11:56Z</time>
      </trkpt>
      <trkpt lat="47.72384" lon="-3.36534">
        <ele>-0.82</ele>
        <time>2015-10-10T16:11:57Z</time>
      </trkpt>
      <trkpt lat="47.72382" lon="-3.36536">
        <ele>-0.82</ele>
        <time>2015-10-10T16:11:58Z</time>
      </trkpt>
      <trkpt lat="47.72381" lon="-3.36537">
        <ele>-0.82</ele>
        <time>2015-10-10T16:11:59Z</time>
      </trkpt>
      <trkpt lat="47.72381" lon="-3.36538">
        <ele>-0.82</ele>
        <time>2015-10-10T16:12:00Z</time>
      </trkpt>
      <trkpt lat="47.7238" lon="-3.36539">
        <ele>-0.82</ele>
        <time>2015-10-10T16:12:01Z</time>
      </trkpt>
      <trkpt lat="47.72378" lon="-3.3654">
        <ele>-0.82</ele>
        <time>2015-10-10T16:12:02Z</time>
      </trkpt>
      <trkpt lat="47.72377" lon="-3.36541">
        <ele>-0.82</ele>
        <time>2015-10-10T16:12:03Z</time>
      </trkpt>
      <trkpt lat="47.72376" lon="-3.36542">
        <ele>-0.82</ele>
        <time>2015-10-10T16:12:04Z</time>
      </trkpt>
      <trkpt lat="47.72375" lon="-3.36543">
        <ele>-0.82</ele>
        <time>2015-10-10T16:12:05Z</time>
      </trkpt>
      <trkpt lat="47.72374" lon="-3.36544">
        <ele>-0.82</ele>
        <time>2015-10-10T16:12:06Z</time>
      </trkpt>
      <trkpt lat="47.72372" lon="-3.36545">
        <ele>-0.82</ele>
        <time>2015-10-10T16:12:07Z</time>
      </trkpt>
      <trkpt lat="47.72371" lon="-3.36547">
        <ele>0.62</ele>
        <time>2015-10-10T16:12:08Z</time>
      </trkpt>
      <trkpt lat="47.7237" lon="-3.36548">
        <ele>0.62</ele>
        <time>2015-10-10T16:12:09Z</time>
      </trkpt>
      <trkpt lat="47.72369" lon="-3.3655">
        <ele>0.62</ele>
        <time>2015-10-10T16:12:10Z</time>
      </trkpt>
      <trkpt lat="47.72368" lon="-3.36551">
        <ele>0.62</ele>
        <time>2015-10-10T16:12:11Z</time>
      </trkpt>
      <trkpt lat="47.72367" lon="-3.36552">
        <ele>0.62</ele>
        <time>2015-10-10T16:12:12Z</time>
      </trkpt>
      <trkpt lat="47.72367" lon="-3.36554">
        <ele>0.62</ele>
        <time>2015-10-10T16:12:13Z</time>
      </trkpt>
      <trkpt lat="47.72366" lon="-3.36555">
        <ele>0.62</ele>
        <time>2015-10-10T16:12:14Z</time>
      </trkpt>
      <trkpt lat="47.72365" lon="-3.36557">
        <ele>0.62</ele>
        <time>2015-10-10T16:12:15Z</time>
      </trkpt>
      <trkpt lat="47.72364" lon="-3.36559">
        <ele>0.62</ele>
        <time>2015-10-10T16:12:16Z</time>
      </trkpt>
      <trkpt lat="47.72363" lon="-3.3656">
        <ele>0.62</ele>
        <time>2015-10-10T16:12:17Z</time>
      </trkpt>
      <trkpt lat="47.72362" lon="-3.36562">
        <ele>-3.23</ele>
        <time>2015-10-10T16:12:18Z</time>
      </trkpt>
      <trkpt lat="47.72362" lon="-3.36563">
        <ele>-3.23</ele>
        <time>2015-10-10T16:12:19Z</time>
      </trkpt>
      <trkpt lat="47.72361" lon="-3.36565">
        <ele>0.14</ele>
        <time>2015-10-10T16:12:20Z</time>
      </trkpt>
      <trkpt lat="47.7236" lon="-3.36566">
        <ele>0.14</ele>
        <time>2015-10-10T16:12:21Z</time>
      </trkpt>
      <trkpt lat="47.7236" lon="-3.36567">
        <ele>-0.34</ele>
        <time>2015-10-10T16:12:22Z</time>
      </trkpt>
      <trkpt lat="47.72359" lon="-3.36569">
        <ele>-0.34</ele>
        <time>2015-10-10T16:12:23Z</time>
      </trkpt>
      <trkpt lat="47.72358" lon="-3.36571">
        <ele>-0.34</ele>
        <time>2015-10-10T16:12:24Z</time>
      </trkpt>
      <trkpt lat="47.72358" lon="-3.36573">
        <ele>-0.34</ele>
        <time>2015-10-10T16:12:25Z</time>
      </trkpt>
      <trkpt lat="47.72357" lon="-3.36575">
        <ele>-0.34</ele>
        <time>2015-10-10T16:12:26Z</time>
      </trkpt>
      <trkpt lat="47.72357" lon="-3.36576">
        <ele>-0.34</ele>
        <time>2015-10-10T16:12:27Z</time>
      </trkpt>
      <trkpt lat="47.72356" lon="-3.36578">
        <ele>-0.34</ele>
        <time>2015-10-10T16:12:28Z</time>
      </trkpt>
      <trkpt lat="47.72356" lon="-3.3658">
        <ele>-0.34</ele>
        <time>2015-10-10T16:12:29Z</time>
      </trkpt>
      <trkpt lat="47.72356" lon="-3.36582">
        <ele>-0.34</ele>
        <time>2015-10-10T16:12:30Z</time>
      </trkpt>
      <trkpt lat="47.72356" lon="-3.36584">
        <ele>-0.34</ele>
        <time>2015-10-10T16:12:31Z</time>
      </trkpt>
      <trkpt lat="47.72355" lon="-3.36586">
        <ele>-0.34</ele>
        <time>2015-10-10T16:12:32Z</time>
      </trkpt>
      <trkpt lat="47.72355" lon="-3.36588">
        <ele>-0.34</ele>
        <time>2015-10-10T16:12:33Z</time>
      </trkpt>
      <trkpt lat="47.72355" lon="-3.36589">
        <ele>-0.34</ele>
        <time>2015-10-10T16:12:34Z</time>
      </trkpt>
      <trkpt lat="47.72355" lon="-3.36591">
        <ele>-0.34</ele>
        <time>2015-10-10T16:12:35Z</time>
      </trkpt>
      <trkpt lat="47.72356" lon="-3.36593">
        <ele>-0.82</ele>
        <time>2015-10-10T16:12:36Z</time>
      </trkpt>
      <trkpt lat="47.72356" lon="-3.36594">
        <ele>-0.82</ele>
        <time>2015-10-10T16:12:37Z</time>
      </trkpt>
      <trkpt lat="47.72356" lon="-3.36596">
        <ele>-0.82</ele>
        <time>2015-10-10T16:12:38Z</time>
      </trkpt>
      <trkpt lat="47.72357" lon="-3.36598">
        <ele>-0.82</ele>
        <time>2015-10-10T16:12:39Z</time>
      </trkpt>
      <trkpt lat="47.72357" lon="-3.366">
        <ele>-0.82</ele>
        <time>2015-10-10T16:12:40Z</time>
      </trkpt>
      <trkpt lat="47.72357" lon="-3.36602">
        <ele>-0.82</ele>
        <time>2015-10-10T16:12:41Z</time>
      </trkpt>
      <trkpt lat="47.72358" lon="-3.36603">
        <ele>-0.82</ele>
        <time>2015-10-10T16:12:42Z</time>
      </trkpt>
      <trkpt lat="47.72358" lon="-3.36605">
        <ele>-0.82</ele>
        <time>2015-10-10T16:12:43Z</time>
      </trkpt>
      <trkpt lat="47.72358" lon="-3.36607">
        <ele>-0.82</ele>
        <time>2015-10-10T16:12:44Z</time>
      </trkpt>
      <trkpt lat="47.72358" lon="-3.36608">
        <ele>-0.82</ele>
        <time>2015-10-10T16:12:45Z</time>
      </trkpt>
      <trkpt lat="47.72358" lon="-3.3661">
        <ele>-0.82</ele>
        <time>2015-10-10T16:12:46Z</time>
      </trkpt>
      <trkpt lat="47.72358" lon="-3.36612">
        <ele>-0.82</ele>
        <time>2015-10-10T16:12:47Z</time>
      </trkpt>
      <trkpt lat="47.72358" lon="-3.36613">
        <ele>-0.82</ele>
        <time>2015-10-10T16:12:48Z</time>
      </trkpt>
      <trkpt lat="47.72358" lon="-3.36615">
        <ele>-0.82</ele>
        <time>2015-10-10T16:12:49Z</time>
      </trkpt>
      <trkpt lat="47.72358" lon="-3.36617">
        <ele>-0.82</ele>
        <time>2015-10-10T16:12:50Z</time>
      </trkpt>
      <trkpt lat="47.72358" lon="-3.36619">
        <ele>-0.82</ele>
        <time>2015-10-10T16:12:51Z</time>
      </trkpt>
      <trkpt lat="47.72358" lon="-3.36621">
        <ele>-0.82</ele>
        <time>2015-10-10T16:12:52Z</time>
      </trkpt>
      <trkpt lat="47.72359" lon="-3.36623">
        <ele>-0.82</ele>
        <time>2015-10-10T16:12:53Z</time>
      </trkpt>
      <trkpt lat="47.72359" lon="-3.36625">
        <ele>-0.82</ele>
        <time>2015-10-10T16:12:54Z</time>
      </trkpt>
      <trkpt lat="47.72359" lon="-3.36626">
        <ele>-0.82</ele>
        <time>2015-10-10T16:12:55Z</time>
      </trkpt>
      <trkpt lat="47.72359" lon="-3.36628">
        <ele>-0.82</ele>
        <time>2015-10-10T16:12:56Z</time>
      </trkpt>
      <trkpt lat="47.72359" lon="-3.3663">
        <ele>-0.82</ele>
        <time>2015-10-10T16:12:57Z</time>
      </trkpt>
      <trkpt lat="47.72359" lon="-3.36632">
        <ele>-0.82</ele>
        <time>2015-10-10T16:12:58Z</time>
      </trkpt>
      <trkpt lat="47.72359" lon="-3.36633">
        <ele>-0.82</ele>
        <time>2015-10-10T16:12:59Z</time>
      </trkpt>
      <trkpt lat="47.7236" lon="-3.36635">
        <ele>-0.82</ele>
        <time>2015-10-10T16:13:00Z</time>
      </trkpt>
      <trkpt lat="47.7236" lon="-3.36637">
        <ele>-0.82</ele>
        <time>2015-10-10T16:13:01Z</time>
      </trkpt>
      <trkpt lat="47.7236" lon="-3.36639">
        <ele>-0.82</ele>
        <time>2015-10-10T16:13:02Z</time>
      </trkpt>
      <trkpt lat="47.72361" lon="-3.36641">
        <ele>-0.82</ele>
        <time>2015-10-10T16:13:03Z</time>
      </trkpt>
      <trkpt lat="47.72361" lon="-3.36642">
        <ele>-0.82</ele>
        <time>2015-10-10T16:13:04Z</time>
      </trkpt>
      <trkpt lat="47.72361" lon="-3.36644">
        <ele>-0.82</ele>
        <time>2015-10-10T16:13:05Z</time>
      </trkpt>
      <trkpt lat="47.72361" lon="-3.36645">
        <ele>-0.82</ele>
        <time>2015-10-10T16:13:06Z</time>
      </trkpt>
      <trkpt lat="47.72362" lon="-3.36646">
        <ele>-0.82</ele>
        <time>2015-10-10T16:13:07Z</time>
      </trkpt>
      <trkpt lat="47.72363" lon="-3.36647">
        <ele>-0.82</ele>
        <time>2015-10-10T16:13:08Z</time>
      </trkpt>
      <trkpt lat="47.72364" lon="-3.36648">
        <ele>-0.82</ele>
        <time>2015-10-10T16:13:09Z</time>
      </trkpt>
      <trkpt lat="47.72364" lon="-3.3665">
        <ele>-1.3</ele>
        <time>2015-10-10T16:13:10Z</time>
      </trkpt>
      <trkpt lat="47.72364" lon="-3.36651">
        <ele>-1.79</ele>
        <time>2015-10-10T16:13:11Z</time>
      </trkpt>
      <trkpt lat="47.72365" lon="-3.36652">
        <ele>-1.79</ele>
        <time>2015-10-10T16:13:12Z</time>
      </trkpt>
      <trkpt lat="47.72365" lon="-3.36654">
        <ele>-1.79</ele>
        <time>2015-10-10T16:13:13Z</time>
      </trkpt>
      <trkpt lat="47.72366" lon="-3.36655">
        <ele>-1.79</ele>
        <time>2015-10-10T16:13:14Z</time>
      </trkpt>
      <trkpt lat="47.72366" lon="-3.36657">
        <ele>-0.34</ele>
        <time>2015-10-10T16:13:15Z</time>
      </trkpt>
      <trkpt lat="47.72366" lon="-3.36659">
        <ele>-0.34</ele>
        <time>2015-10-10T16:13:16Z</time>
      </trkpt>
      <trkpt lat="47.72367" lon="-3.3666">
        <ele>-0.34</ele>
        <time>2015-10-10T16:13:17Z</time>
      </trkpt>
      <trkpt lat="47.72367" lon="-3.36662">
        <ele>-0.34</ele>
        <time>2015-10-10T16:13:18Z</time>
      </trkpt>
      <trkpt lat="47.72368" lon="-3.36663">
        <ele>-2.27</ele>
        <time>2015-10-10T16:13:19Z</time>
      </trkpt>
      <trkpt lat="47.72368" lon="-3.36664">
        <ele>0.14</ele>
        <time>2015-10-10T16:13:20Z</time>
      </trkpt>
      <trkpt lat="47.72369" lon="-3.36666">
        <ele>-1.3</ele>
        <time>2015-10-10T16:13:21Z</time>
      </trkpt>
      <trkpt lat="47.7237" lon="-3.36667">
        <ele>-1.3</ele>
        <time>2015-10-10T16:13:22Z</time>
      </trkpt>
      <trkpt lat="47.7237" lon="-3.36668">
        <ele>-1.3</ele>
        <time>2015-10-10T16:13:23Z</time>
      </trkpt>
      <trkpt lat="47.7237" lon="-3.3667">
        <ele>-1.3</ele>
        <time>2015-10-10T16:13:24Z</time>
      </trkpt>
      <trkpt lat="47.72371" lon="-3.36671">
        <ele>-1.3</ele>
        <time>2015-10-10T16:13:25Z</time>
      </trkpt>
      <trkpt lat="47.72371" lon="-3.36672">
        <ele>-1.3</ele>
        <time>2015-10-10T16:13:26Z</time>
      </trkpt>
      <trkpt lat="47.72372" lon="-3.36674">
        <ele>-2.27</ele>
        <time>2015-10-10T16:13:27Z</time>
      </trkpt>
      <trkpt lat="47.72372" lon="-3.36675">
        <ele>-0.34</ele>
        <time>2015-10-10T16:13:28Z</time>
      </trkpt>
      <trkpt lat="47.72373" lon="-3.36676">
        <ele>0.14</ele>
        <time>2015-10-10T16:13:29Z</time>
      </trkpt>
      <trkpt lat="47.72374" lon="-3.36677">
        <ele>0.14</ele>
        <time>2015-10-10T16:13:30Z</time>
      </trkpt>
      <trkpt lat="47.72374" lon="-3.36678">
        <ele>-0.34</ele>
        <time>2015-10-10T16:13:31Z</time>
      </trkpt>
      <trkpt lat="47.72375" lon="-3.36679">
        <ele>-1.3</ele>
        <time>2015-10-10T16:13:32Z</time>
      </trkpt>
      <trkpt lat="47.72376" lon="-3.3668">
        <ele>-1.3</ele>
        <time>2015-10-10T16:13:33Z</time>
      </trkpt>
      <trkpt lat="47.72377" lon="-3.36681">
        <ele>-1.3</ele>
        <time>2015-10-10T16:13:34Z</time>
      </trkpt>
      <trkpt lat="47.72377" lon="-3.36682">
        <ele>-1.3</ele>
        <time>2015-10-10T16:13:35Z</time>
      </trkpt>
      <trkpt lat="47.72378" lon="-3.36683">
        <ele>-1.3</ele>
        <time>2015-10-10T16:13:36Z</time>
      </trkpt>
      <trkpt lat="47.72379" lon="-3.36684">
        <ele>-1.3</ele>
        <time>2015-10-10T16:13:37Z</time>
      </trkpt>
      <trkpt lat="47.72379" lon="-3.36684">
        <ele>-1.3</ele>
        <time>2015-10-10T16:13:38Z</time>
      </trkpt>
      <trkpt lat="47.7238" lon="-3.36685">
        <ele>-1.3</ele>
        <time>2015-10-10T16:13:39Z</time>
      </trkpt>
      <trkpt lat="47.72381" lon="-3.36686">
        <ele>-1.3</ele>
        <time>2015-10-10T16:13:40Z</time>
      </trkpt>
      <trkpt lat="47.72382" lon="-3.36687">
        <ele>-1.3</ele>
        <time>2015-10-10T16:13:41Z</time>
      </trkpt>
      <trkpt lat="47.72382" lon="-3.36689">
        <ele>-1.3</ele>
        <time>2015-10-10T16:13:42Z</time>
      </trkpt>
      <trkpt lat="47.72383" lon="-3.3669">
        <ele>-1.3</ele>
        <time>2015-10-10T16:13:43Z</time>
      </trkpt>
      <trkpt lat="47.72384" lon="-3.36691">
        <ele>-1.3</ele>
        <time>2015-10-10T16:13:44Z</time>
      </trkpt>
      <trkpt lat="47.72384" lon="-3.36693">
        <ele>-1.3</ele>
        <time>2015-10-10T16:13:45Z</time>
      </trkpt>
      <trkpt lat="47.72385" lon="-3.36694">
        <ele>-1.3</ele>
        <time>2015-10-10T16:13:46Z</time>
      </trkpt>
      <trkpt lat="47.72385" lon="-3.36696">
        <ele>-1.3</ele>
        <time>2015-10-10T16:13:47Z</time>
      </trkpt>
      <trkpt lat="47.72385" lon="-3.36697">
        <ele>-1.3</ele>
        <time>2015-10-10T16:13:48Z</time>
      </trkpt>
      <trkpt lat="47.72386" lon="-3.36699">
        <ele>-1.3</ele>
        <time>2015-10-10T16:13:49Z</time>
      </trkpt>
      <trkpt lat="47.72386" lon="-3.367">
        <ele>-1.3</ele>
        <time>2015-10-10T16:13:50Z</time>
      </trkpt>
      <trkpt lat="47.72386" lon="-3.36702">
        <ele>-1.3</ele>
        <time>2015-10-10T16:13:51Z</time>
      </trkpt>
      <trkpt lat="47.72386" lon="-3.36704">
        <ele>-1.3</ele>
        <time>2015-10-10T16:13:52Z</time>
      </trkpt>
      <trkpt lat="47.72387" lon="-3.36705">
        <ele>-1.3</ele>
        <time>2015-10-10T16:13:53Z</time>
      </trkpt>
      <trkpt lat="47.72387" lon="-3.36707">
        <ele>-1.3</ele>
        <time>2015-10-10T16:13:54Z</time>
      </trkpt>
      <trkpt lat="47.72387" lon="-3.36709">
        <ele>-1.3</ele>
        <time>2015-10-10T16:13:55Z</time>
      </trkpt>
      <trkpt lat="47.72386" lon="-3.36711">
        <ele>-1.3</ele>
        <time>2015-10-10T16:13:56Z</time>
      </trkpt>
      <trkpt lat="47.72386" lon="-3.36713">
        <ele>-1.3</ele>
        <time>2015-10-10T16:13:57Z</time>
      </trkpt>
      <trkpt lat="47.72385" lon="-3.36714">
        <ele>-1.3</ele>
        <time>2015-10-10T16:13:58Z</time>
      </trkpt>
      <trkpt lat="47.72385" lon="-3.36716">
        <ele>-1.3</ele>
        <time>2015-10-10T16:13:59Z</time>
      </trkpt>
      <trkpt lat="47.72384" lon="-3.36718">
        <ele>-1.3</ele>
        <time>2015-10-10T16:14:00Z</time>
      </trkpt>
      <trkpt lat="47.72384" lon="-3.36719">
        <ele>-1.3</ele>
        <time>2015-10-10T16:14:01Z</time>
      </trkpt>
      <trkpt lat="47.72383" lon="-3.36721">
        <ele>-1.3</ele>
        <time>2015-10-10T16:14:02Z</time>
      </trkpt>
      <trkpt lat="47.72382" lon="-3.36723">
        <ele>-0.34</ele>
        <time>2015-10-10T16:14:03Z</time>
      </trkpt>
      <trkpt lat="47.72381" lon="-3.36724">
        <ele>-0.34</ele>
        <time>2015-10-10T16:14:04Z</time>
      </trkpt>
      <trkpt lat="47.7238" lon="-3.36726">
        <ele>-0.34</ele>
        <time>2015-10-10T16:14:05Z</time>
      </trkpt>
      <trkpt lat="47.72379" lon="-3.36727">
        <ele>-0.34</ele>
        <time>2015-10-10T16:14:06Z</time>
      </trkpt>
      <trkpt lat="47.72378" lon="-3.36728">
        <ele>-0.34</ele>
        <time>2015-10-10T16:14:07Z</time>
      </trkpt>
      <trkpt lat="47.72377" lon="-3.36729">
        <ele>-0.34</ele>
        <time>2015-10-10T16:14:08Z</time>
      </trkpt>
      <trkpt lat="47.72376" lon="-3.3673">
        <ele>-0.34</ele>
        <time>2015-10-10T16:14:09Z</time>
      </trkpt>
      <trkpt lat="47.72375" lon="-3.36732">
        <ele>-0.34</ele>
        <time>2015-10-10T16:14:10Z</time>
      </trkpt>
      <trkpt lat="47.72374" lon="-3.36733">
        <ele>-0.34</ele>
        <time>2015-10-10T16:14:11Z</time>
      </trkpt>
      <trkpt lat="47.72373" lon="-3.36734">
        <ele>-0.34</ele>
        <time>2015-10-10T16:14:12Z</time>
      </trkpt>
      <trkpt lat="47.72372" lon="-3.36735">
        <ele>-0.34</ele>
        <time>2015-10-10T16:14:13Z</time>
      </trkpt>
      <trkpt lat="47.72371" lon="-3.36737">
        <ele>-0.34</ele>
        <time>2015-10-10T16:14:14Z</time>
      </trkpt>
      <trkpt lat="47.7237" lon="-3.36738">
        <ele>-0.34</ele>
        <time>2015-10-10T16:14:15Z</time>
      </trkpt>
      <trkpt lat="47.72369" lon="-3.36739">
        <ele>-0.34</ele>
        <time>2015-10-10T16:14:16Z</time>
      </trkpt>
      <trkpt lat="47.72368" lon="-3.3674">
        <ele>-0.34</ele>
        <time>2015-10-10T16:14:17Z</time>
      </trkpt>
      <trkpt lat="47.72367" lon="-3.36741">
        <ele>-0.34</ele>
        <time>2015-10-10T16:14:18Z</time>
      </trkpt>
      <trkpt lat="47.72366" lon="-3.36743">
        <ele>-1.79</ele>
        <time>2015-10-10T16:14:19Z</time>
      </trkpt>
      <trkpt lat="47.72365" lon="-3.36745">
        <ele>-0.34</ele>
        <time>2015-10-10T16:14:20Z</time>
      </trkpt>
      <trkpt lat="47.72365" lon="-3.36747">
        <ele>-0.34</ele>
        <time>2015-10-10T16:14:21Z</time>
      </trkpt>
      <trkpt lat="47.72364" lon="-3.36749">
        <ele>0.14</ele>
        <time>2015-10-10T16:14:22Z</time>
      </trkpt>
      <trkpt lat="47.72363" lon="-3.36751">
        <ele>0.14</ele>
        <time>2015-10-10T16:14:23Z</time>
      </trkpt>
      <trkpt lat="47.72362" lon="-3.36752">
        <ele>0.14</ele>
        <time>2015-10-10T16:14:24Z</time>
      </trkpt>
      <trkpt lat="47.72362" lon="-3.36754">
        <ele>0.14</ele>
        <time>2015-10-10T16:14:25Z</time>
      </trkpt>
      <trkpt lat="47.72361" lon="-3.36756">
        <ele>0.14</ele>
        <time>2015-10-10T16:14:26Z</time>
      </trkpt>
      <trkpt lat="47.7236" lon="-3.36758">
        <ele>0.14</ele>
        <time>2015-10-10T16:14:27Z</time>
      </trkpt>
      <trkpt lat="47.7236" lon="-3.3676">
        <ele>0.14</ele>
        <time>2015-10-10T16:14:28Z</time>
      </trkpt>
      <trkpt lat="47.72359" lon="-3.36762">
        <ele>0.14</ele>
        <time>2015-10-10T16:14:29Z</time>
      </trkpt>
      <trkpt lat="47.72359" lon="-3.36763">
        <ele>0.14</ele>
        <time>2015-10-10T16:14:30Z</time>
      </trkpt>
      <trkpt lat="47.72359" lon="-3.36765">
        <ele>0.14</ele>
        <time>2015-10-10T16:14:31Z</time>
      </trkpt>
      <trkpt lat="47.72359" lon="-3.36767">
        <ele>0.14</ele>
        <time>2015-10-10T16:14:32Z</time>
      </trkpt>
      <trkpt lat="47.72359" lon="-3.36768">
        <ele>0.14</ele>
        <time>2015-10-10T16:14:33Z</time>
      </trkpt>
      <trkpt lat="47.72359" lon="-3.3677">
        <ele>0.14</ele>
        <time>2015-10-10T16:14:34Z</time>
      </trkpt>
      <trkpt lat="47.72359" lon="-3.36772">
        <ele>0.14</ele>
        <time>2015-10-10T16:14:35Z</time>
      </trkpt>
      <trkpt lat="47.7236" lon="-3.36774">
        <ele>0.14</ele>
        <time>2015-10-10T16:14:36Z</time>
      </trkpt>
      <trkpt lat="47.7236" lon="-3.36776">
        <ele>0.14</ele>
        <time>2015-10-10T16:14:37Z</time>
      </trkpt>
      <trkpt lat="47.7236" lon="-3.36778">
        <ele>0.14</ele>
        <time>2015-10-10T16:14:38Z</time>
      </trkpt>
      <trkpt lat="47.7236" lon="-3.36779">
        <ele>0.14</ele>
        <time>2015-10-10T16:14:39Z</time>
      </trkpt>
      <trkpt lat="47.72361" lon="-3.36781">
        <ele>0.14</ele>
        <time>2015-10-10T16:14:40Z</time>
      </trkpt>
      <trkpt lat="47.72362" lon="-3.36783">
        <ele>0.14</ele>
        <time>2015-10-10T16:14:41Z</time>
      </trkpt>
      <trkpt lat="47.72362" lon="-3.36784">
        <ele>0.14</ele>
        <time>2015-10-10T16:14:42Z</time>
      </trkpt>
      <trkpt lat="47.72362" lon="-3.36786">
        <ele>0.14</ele>
        <time>2015-10-10T16:14:43Z</time>
      </trkpt>
      <trkpt lat="47.72362" lon="-3.36788">
        <ele>0.14</ele>
        <time>2015-10-10T16:14:44Z</time>
      </trkpt>
      <trkpt lat="47.72362" lon="-3.3679">
        <ele>0.14</ele>
        <time>2015-10-10T16:14:45Z</time>
      </trkpt>
      <trkpt lat="47.72362" lon="-3.36792">
        <ele>0.14</ele>
        <time>2015-10-10T16:14:46Z</time>
      </trkpt>
      <trkpt lat="47.72362" lon="-3.36794">
        <ele>0.14</ele>
        <time>2015-10-10T16:14:47Z</time>
      </trkpt>
      <trkpt lat="47.72362" lon="-3.36795">
        <ele>0.14</ele>
        <time>2015-10-10T16:14:48Z</time>
      </trkpt>
      <trkpt lat="47.72361" lon="-3.36797">
        <ele>0.14</ele>
        <time>2015-10-10T16:14:49Z</time>
      </trkpt>
      <trkpt lat="47.7236" lon="-3.36799">
        <ele>0.14</ele>
        <time>2015-10-10T16:14:50Z</time>
      </trkpt>
      <trkpt lat="47.72359" lon="-3.368">
        <ele>0.14</ele>
        <time>2015-10-10T16:14:51Z</time>
      </trkpt>
      <trkpt lat="47.72358" lon="-3.36802">
        <ele>0.14</ele>
        <time>2015-10-10T16:14:52Z</time>
      </trkpt>
      <trkpt lat="47.72357" lon="-3.36803">
        <ele>0.14</ele>
        <time>2015-10-10T16:14:53Z</time>
      </trkpt>
      <trkpt lat="47.72356" lon="-3.36805">
        <ele>0.14</ele>
        <time>2015-10-10T16:14:54Z</time>
      </trkpt>
      <trkpt lat="47.72355" lon="-3.36806">
        <ele>0.14</ele>
        <time>2015-10-10T16:14:55Z</time>
      </trkpt>
      <trkpt lat="47.72354" lon="-3.36807">
        <ele>0.14</ele>
        <time>2015-10-10T16:14:56Z</time>
      </trkpt>
      <trkpt lat="47.72353" lon="-3.36808">
        <ele>0.14</ele>
        <time>2015-10-10T16:14:57Z</time>
      </trkpt>
      <trkpt lat="47.72352" lon="-3.36809">
        <ele>0.14</ele>
        <time>2015-10-10T16:14:58Z</time>
      </trkpt>
      <trkpt lat="47.72351" lon="-3.3681">
        <ele>-2.27</ele>
        <time>2015-10-10T16:14:59Z</time>
      </trkpt>
      <trkpt lat="47.7235" lon="-3.36811">
        <ele>-0.82</ele>
        <time>2015-10-10T16:15:00Z</time>
      </trkpt>
      <trkpt lat="47.72349" lon="-3.36812">
        <ele>-0.34</ele>
        <time>2015-10-10T16:15:01Z</time>
      </trkpt>
      <trkpt lat="47.72348" lon="-3.36813">
        <ele>-0.34</ele>
        <time>2015-10-10T16:15:02Z</time>
      </trkpt>
      <trkpt lat="47.72346" lon="-3.36814">
        <ele>-0.34</ele>
        <time>2015-10-10T16:15:03Z</time>
      </trkpt>
      <trkpt lat="47.72345" lon="-3.36815">
        <ele>-0.34</ele>
        <time>2015-10-10T16:15:04Z</time>
      </trkpt>
      <trkpt lat="47.72344" lon="-3.36816">
        <ele>-0.34</ele>
        <time>2015-10-10T16:15:05Z</time>
      </trkpt>
      <trkpt lat="47.72343" lon="-3.36816">
        <ele>-0.34</ele>
        <time>2015-10-10T16:15:06Z</time>
      </trkpt>
      <trkpt lat="47.72341" lon="-3.36817">
        <ele>-0.34</ele>
        <time>2015-10-10T16:15:07Z</time>
      </trkpt>
      <trkpt lat="47.7234" lon="-3.36818">
        <ele>-0.34</ele>
        <time>2015-10-10T16:15:08Z</time>
      </trkpt>
      <trkpt lat="47.72339" lon="-3.36819">
        <ele>-1.3</ele>
        <time>2015-10-10T16:15:09Z</time>
      </trkpt>
      <trkpt lat="47.72338" lon="-3.3682">
        <ele>-1.3</ele>
        <time>2015-10-10T16:15:10Z</time>
      </trkpt>
      <trkpt lat="47.72337" lon="-3.36821">
        <ele>-1.3</ele>
        <time>2015-10-10T16:15:11Z</time>
      </trkpt>
      <trkpt lat="47.72336" lon="-3.36821">
        <ele>-1.3</ele>
        <time>2015-10-10T16:15:12Z</time>
      </trkpt>
      <trkpt lat="47.72335" lon="-3.36822">
        <ele>-1.3</ele>
        <time>2015-10-10T16:15:13Z</time>
      </trkpt>
      <trkpt lat="47.72333" lon="-3.36823">
        <ele>-1.3</ele>
        <time>2015-10-10T16:15:14Z</time>
      </trkpt>
      <trkpt lat="47.72332" lon="-3.36824">
        <ele>-1.3</ele>
        <time>2015-10-10T16:15:15Z</time>
      </trkpt>
      <trkpt lat="47.72331" lon="-3.36825">
        <ele>-1.3</ele>
        <time>2015-10-10T16:15:16Z</time>
      </trkpt>
      <trkpt lat="47.7233" lon="-3.36826">
        <ele>-1.3</ele>
        <time>2015-10-10T16:15:17Z</time>
      </trkpt>
      <trkpt lat="47.72329" lon="-3.36827">
        <ele>-1.3</ele>
        <time>2015-10-10T16:15:18Z</time>
      </trkpt>
      <trkpt lat="47.72328" lon="-3.36829">
        <ele>-1.3</ele>
        <time>2015-10-10T16:15:19Z</time>
      </trkpt>
      <trkpt lat="47.72327" lon="-3.3683">
        <ele>-1.3</ele>
        <time>2015-10-10T16:15:20Z</time>
      </trkpt>
      <trkpt lat="47.72326" lon="-3.36832">
        <ele>-1.3</ele>
        <time>2015-10-10T16:15:21Z</time>
      </trkpt>
      <trkpt lat="47.72326" lon="-3.36833">
        <ele>-5.15</ele>
        <time>2015-10-10T16:15:22Z</time>
      </trkpt>
      <trkpt lat="47.72325" lon="-3.36835">
        <ele>-5.63</ele>
        <time>2015-10-10T16:15:23Z</time>
      </trkpt>
      <trkpt lat="47.72324" lon="-3.36837">
        <ele>5.91</ele>
        <time>2015-10-10T16:15:24Z</time>
      </trkpt>
      <trkpt lat="47.72324" lon="-3.36838">
        <ele>-0.34</ele>
        <time>2015-10-10T16:15:25Z</time>
      </trkpt>
      <trkpt lat="47.72323" lon="-3.3684">
        <ele>-0.82</ele>
        <time>2015-10-10T16:15:26Z</time>
      </trkpt>
      <trkpt lat="47.72323" lon="-3.36841">
        <ele>-0.82</ele>
        <time>2015-10-10T16:15:27Z</time>
      </trkpt>
      <trkpt lat="47.72323" lon="-3.36843">
        <ele>-0.82</ele>
        <time>2015-10-10T16:15:28Z</time>
      </trkpt>
      <trkpt lat="47.72322" lon="-3.36845">
        <ele>-0.82</ele>
        <time>2015-10-10T16:15:29Z</time>
      </trkpt>
      <trkpt lat="47.72322" lon="-3.36847">
        <ele>-0.82</ele>
        <time>2015-10-10T16:15:30Z</time>
      </trkpt>
      <trkpt lat="47.72322" lon="-3.36849">
        <ele>-0.82</ele>
        <time>2015-10-10T16:15:31Z</time>
      </trkpt>
      <trkpt lat="47.72321" lon="-3.36851">
        <ele>-0.82</ele>
        <time>2015-10-10T16:15:32Z</time>
      </trkpt>
      <trkpt lat="47.72321" lon="-3.36853">
        <ele>-0.82</ele>
        <time>2015-10-10T16:15:33Z</time>
      </trkpt>
      <trkpt lat="47.72321" lon="-3.36855">
        <ele>-0.82</ele>
        <time>2015-10-10T16:15:34Z</time>
      </trkpt>
      <trkpt lat="47.7232" lon="-3.36856">
        <ele>-2.75</ele>
        <time>2015-10-10T16:15:35Z</time>
      </trkpt>
      <trkpt lat="47.7232" lon="-3.36858">
        <ele>-0.34</ele>
        <time>2015-10-10T16:15:36Z</time>
      </trkpt>
      <trkpt lat="47.7232" lon="-3.3686">
        <ele>-0.34</ele>
        <time>2015-10-10T16:15:37Z</time>
      </trkpt>
      <trkpt lat="47.7232" lon="-3.36861">
        <ele>-0.34</ele>
        <time>2015-10-10T16:15:38Z</time>
      </trkpt>
      <trkpt lat="47.7232" lon="-3.36863">
        <ele>-0.34</ele>
        <time>2015-10-10T16:15:39Z</time>
      </trkpt>
      <trkpt lat="47.7232" lon="-3.36864">
        <ele>-0.34</ele>
        <time>2015-10-10T16:15:40Z</time>
      </trkpt>
      <trkpt lat="47.72319" lon="-3.36866">
        <ele>-0.34</ele>
        <time>2015-10-10T16:15:41Z</time>
      </trkpt>
      <trkpt lat="47.72319" lon="-3.36867">
        <ele>-0.34</ele>
        <time>2015-10-10T16:15:42Z</time>
      </trkpt>
      <trkpt lat="47.72319" lon="-3.36869">
        <ele>-0.34</ele>
        <time>2015-10-10T16:15:43Z</time>
      </trkpt>
      <trkpt lat="47.72319" lon="-3.3687">
        <ele>-0.34</ele>
        <time>2015-10-10T16:15:44Z</time>
      </trkpt>
    </trkseg>
  </trk>
</gpx>